<?xml version="1.0" encoding="UTF-8"?>
<gpx creator="Garmin Connect" version="1.1"
  xsi:schemaLocation="http://www.topografix.com/GPX/1/1 http://www.topografix.com/GPX/11.xsd"
  xmlns:ns3="http://www.garmin.com/xmlschemas/TrackPointExtension/v1"
  xmlns="http://www.topografix.com/GPX/1/1"
  xmlns:xsi="http://www.w3.org/2001/XMLSchema-instance" xmlns:ns2="http://www.garmin.com/xmlschemas/GpxExtensions/v3">
  <metadata>
    <link href="connect.garmin.com">
      <text>Garmin Connect</text>
    </link>
    <time>2025-09-06T07:55:01.000Z</time>
  </metadata>
  <trk>
    <name>sandlings 2/3</name>
    <desc></desc>
    <type>running</type>
    <trkseg>
      <trkpt lat="52.102171964943408966064453125" lon="1.41777972690761089324951171875">
        <ele>12.6000003814697265625</ele>
        <time>2025-09-06T07:55:01.000Z</time>
        <extensions>
          <ns3:TrackPointExtension>
            <ns3:hr>105</ns3:hr>
            <ns3:cad>0</ns3:cad>
          </ns3:TrackPointExtension>
        </extensions>
      </trkpt>
      <trkpt lat="52.10216651670634746551513671875" lon="1.41778307966887950897216796875">
        <ele>12.3999996185302734375</ele>
        <time>2025-09-06T07:55:02.000Z</time>
        <extensions>
          <ns3:TrackPointExtension>
            <ns3:hr>106</ns3:hr>
            <ns3:cad>0</ns3:cad>
          </ns3:TrackPointExtension>
        </extensions>
      </trkpt>
      <trkpt lat="52.102164924144744873046875" lon="1.41779514960944652557373046875">
        <ele>12.3999996185302734375</ele>
        <time>2025-09-06T07:55:03.000Z</time>
        <extensions>
          <ns3:TrackPointExtension>
            <ns3:hr>110</ns3:hr>
            <ns3:cad>0</ns3:cad>
          </ns3:TrackPointExtension>
        </extensions>
      </trkpt>
      <trkpt lat="52.10215754806995391845703125" lon="1.41780118457973003387451171875">
        <ele>12.3999996185302734375</ele>
        <time>2025-09-06T07:55:04.000Z</time>
        <extensions>
          <ns3:TrackPointExtension>
            <ns3:hr>113</ns3:hr>
            <ns3:cad>0</ns3:cad>
          </ns3:TrackPointExtension>
        </extensions>
      </trkpt>
      <trkpt lat="52.10216199047863483428955078125" lon="1.4178577624261379241943359375">
        <ele>12.6000003814697265625</ele>
        <time>2025-09-06T07:55:06.000Z</time>
        <extensions>
          <ns3:TrackPointExtension>
            <ns3:hr>116</ns3:hr>
            <ns3:cad>0</ns3:cad>
          </ns3:TrackPointExtension>
        </extensions>
      </trkpt>
      <trkpt lat="52.10213885642588138580322265625" lon="1.4178478717803955078125">
        <ele>13</ele>
        <time>2025-09-06T07:55:08.000Z</time>
        <extensions>
          <ns3:TrackPointExtension>
            <ns3:hr>118</ns3:hr>
            <ns3:cad>0</ns3:cad>
          </ns3:TrackPointExtension>
        </extensions>
      </trkpt>
      <trkpt lat="52.10213986225426197052001953125" lon="1.4178725145757198333740234375">
        <ele>12.6000003814697265625</ele>
        <time>2025-09-06T07:55:10.000Z</time>
        <extensions>
          <ns3:TrackPointExtension>
            <ns3:hr>114</ns3:hr>
            <ns3:cad>0</ns3:cad>
          </ns3:TrackPointExtension>
        </extensions>
      </trkpt>
      <trkpt lat="52.10211924277245998382568359375" lon="1.4179162681102752685546875">
        <ele>12.6000003814697265625</ele>
        <time>2025-09-06T07:55:13.000Z</time>
        <extensions>
          <ns3:TrackPointExtension>
            <ns3:hr>117</ns3:hr>
            <ns3:cad>70</ns3:cad>
          </ns3:TrackPointExtension>
        </extensions>
      </trkpt>
      <trkpt lat="52.102109603583812713623046875" lon="1.4179308526217937469482421875">
        <ele>12.6000003814697265625</ele>
        <time>2025-09-06T07:55:14.000Z</time>
        <extensions>
          <ns3:TrackPointExtension>
            <ns3:hr>116</ns3:hr>
            <ns3:cad>70</ns3:cad>
          </ns3:TrackPointExtension>
        </extensions>
      </trkpt>
      <trkpt lat="52.102065347135066986083984375" lon="1.41800670884549617767333984375">
        <ele>12.80000019073486328125</ele>
        <time>2025-09-06T07:55:20.000Z</time>
        <extensions>
          <ns3:TrackPointExtension>
            <ns3:hr>115</ns3:hr>
            <ns3:cad>63</ns3:cad>
          </ns3:TrackPointExtension>
        </extensions>
      </trkpt>
      <trkpt lat="52.1018975414335727691650390625" lon="1.41817443072795867919921875">
        <ele>12.80000019073486328125</ele>
        <time>2025-09-06T07:55:29.000Z</time>
        <extensions>
          <ns3:TrackPointExtension>
            <ns3:hr>114</ns3:hr>
            <ns3:cad>62</ns3:cad>
          </ns3:TrackPointExtension>
        </extensions>
      </trkpt>
      <trkpt lat="52.10187667049467563629150390625" lon="1.418193541467189788818359375">
        <ele>12.80000019073486328125</ele>
        <time>2025-09-06T07:55:30.000Z</time>
        <extensions>
          <ns3:TrackPointExtension>
            <ns3:hr>114</ns3:hr>
            <ns3:cad>0</ns3:cad>
          </ns3:TrackPointExtension>
        </extensions>
      </trkpt>
      <trkpt lat="52.101835347712039947509765625" lon="1.41826830804347991943359375">
        <ele>12.80000019073486328125</ele>
        <time>2025-09-06T07:55:33.000Z</time>
        <extensions>
          <ns3:TrackPointExtension>
            <ns3:hr>117</ns3:hr>
            <ns3:cad>0</ns3:cad>
          </ns3:TrackPointExtension>
        </extensions>
      </trkpt>
      <trkpt lat="52.101826965808868408203125" lon="1.4183791168034076690673828125">
        <ele>12.80000019073486328125</ele>
        <time>2025-09-06T07:55:36.000Z</time>
        <extensions>
          <ns3:TrackPointExtension>
            <ns3:hr>119</ns3:hr>
            <ns3:cad>65</ns3:cad>
          </ns3:TrackPointExtension>
        </extensions>
      </trkpt>
      <trkpt lat="52.10176720283925533294677734375" lon="1.41853862442076206207275390625">
        <ele>13</ele>
        <time>2025-09-06T07:55:42.000Z</time>
        <extensions>
          <ns3:TrackPointExtension>
            <ns3:hr>117</ns3:hr>
            <ns3:cad>65</ns3:cad>
          </ns3:TrackPointExtension>
        </extensions>
      </trkpt>
      <trkpt lat="52.1016957052052021026611328125" lon="1.418689079582691192626953125">
        <ele>13</ele>
        <time>2025-09-06T07:55:48.000Z</time>
        <extensions>
          <ns3:TrackPointExtension>
            <ns3:hr>113</ns3:hr>
            <ns3:cad>64</ns3:cad>
          </ns3:TrackPointExtension>
        </extensions>
      </trkpt>
      <trkpt lat="52.10169260390102863311767578125" lon="1.41872269101440906524658203125">
        <ele>13</ele>
        <time>2025-09-06T07:55:49.000Z</time>
        <extensions>
          <ns3:TrackPointExtension>
            <ns3:hr>112</ns3:hr>
            <ns3:cad>64</ns3:cad>
          </ns3:TrackPointExtension>
        </extensions>
      </trkpt>
      <trkpt lat="52.1016477607190608978271484375" lon="1.41887314617633819580078125">
        <ele>13</ele>
        <time>2025-09-06T07:55:55.000Z</time>
        <extensions>
          <ns3:TrackPointExtension>
            <ns3:hr>108</ns3:hr>
            <ns3:cad>63</ns3:cad>
          </ns3:TrackPointExtension>
        </extensions>
      </trkpt>
      <trkpt lat="52.10163451731204986572265625" lon="1.4189247786998748779296875">
        <ele>13</ele>
        <time>2025-09-06T07:55:57.000Z</time>
        <extensions>
          <ns3:TrackPointExtension>
            <ns3:hr>109</ns3:hr>
            <ns3:cad>65</ns3:cad>
          </ns3:TrackPointExtension>
        </extensions>
      </trkpt>
      <trkpt lat="52.10158263333141803741455078125" lon="1.4191458933055400848388671875">
        <ele>12.80000019073486328125</ele>
        <time>2025-09-06T07:56:05.000Z</time>
        <extensions>
          <ns3:TrackPointExtension>
            <ns3:hr>110</ns3:hr>
            <ns3:cad>64</ns3:cad>
          </ns3:TrackPointExtension>
        </extensions>
      </trkpt>
      <trkpt lat="52.1015627682209014892578125" lon="1.41926340758800506591796875">
        <ele>12.80000019073486328125</ele>
        <time>2025-09-06T07:56:10.000Z</time>
        <extensions>
          <ns3:TrackPointExtension>
            <ns3:hr>107</ns3:hr>
            <ns3:cad>65</ns3:cad>
          </ns3:TrackPointExtension>
        </extensions>
      </trkpt>
      <trkpt lat="52.10155698470771312713623046875" lon="1.41932107508182525634765625">
        <ele>12.80000019073486328125</ele>
        <time>2025-09-06T07:56:12.000Z</time>
        <extensions>
          <ns3:TrackPointExtension>
            <ns3:hr>106</ns3:hr>
            <ns3:cad>64</ns3:cad>
          </ns3:TrackPointExtension>
        </extensions>
      </trkpt>
      <trkpt lat="52.10153133608400821685791015625" lon="1.41944621689617633819580078125">
        <ele>12.80000019073486328125</ele>
        <time>2025-09-06T07:56:16.000Z</time>
        <extensions>
          <ns3:TrackPointExtension>
            <ns3:hr>106</ns3:hr>
            <ns3:cad>63</ns3:cad>
          </ns3:TrackPointExtension>
        </extensions>
      </trkpt>
      <trkpt lat="52.10152161307632923126220703125" lon="1.41948661766946315765380859375">
        <ele>12.6000003814697265625</ele>
        <time>2025-09-06T07:56:18.000Z</time>
        <extensions>
          <ns3:TrackPointExtension>
            <ns3:hr>105</ns3:hr>
            <ns3:cad>63</ns3:cad>
          </ns3:TrackPointExtension>
        </extensions>
      </trkpt>
      <trkpt lat="52.10151691921055316925048828125" lon="1.41966029070317745208740234375">
        <ele>12.6000003814697265625</ele>
        <time>2025-09-06T07:56:25.000Z</time>
        <extensions>
          <ns3:TrackPointExtension>
            <ns3:hr>103</ns3:hr>
            <ns3:cad>0</ns3:cad>
          </ns3:TrackPointExtension>
        </extensions>
      </trkpt>
      <trkpt lat="52.10149361751973628997802734375" lon="1.4197339676320552825927734375">
        <ele>12.6000003814697265625</ele>
        <time>2025-09-06T07:56:28.000Z</time>
        <extensions>
          <ns3:TrackPointExtension>
            <ns3:hr>106</ns3:hr>
            <ns3:cad>60</ns3:cad>
          </ns3:TrackPointExtension>
        </extensions>
      </trkpt>
      <trkpt lat="52.1014744229614734649658203125" lon="1.419801525771617889404296875">
        <ele>12.6000003814697265625</ele>
        <time>2025-09-06T07:56:31.000Z</time>
        <extensions>
          <ns3:TrackPointExtension>
            <ns3:hr>104</ns3:hr>
            <ns3:cad>63</ns3:cad>
          </ns3:TrackPointExtension>
        </extensions>
      </trkpt>
      <trkpt lat="52.10142823867499828338623046875" lon="1.41999774612486362457275390625">
        <ele>12.6000003814697265625</ele>
        <time>2025-09-06T07:56:38.000Z</time>
        <extensions>
          <ns3:TrackPointExtension>
            <ns3:hr>106</ns3:hr>
            <ns3:cad>60</ns3:cad>
          </ns3:TrackPointExtension>
        </extensions>
      </trkpt>
      <trkpt lat="52.10142388008534908294677734375" lon="1.4200176112353801727294921875">
        <ele>12.6000003814697265625</ele>
        <time>2025-09-06T07:56:42.000Z</time>
        <extensions>
          <ns3:TrackPointExtension>
            <ns3:hr>109</ns3:hr>
            <ns3:cad>0</ns3:cad>
          </ns3:TrackPointExtension>
        </extensions>
      </trkpt>
      <trkpt lat="52.10142689757049083709716796875" lon="1.42000227235257625579833984375">
        <ele>12.6000003814697265625</ele>
        <time>2025-09-06T07:56:43.000Z</time>
        <extensions>
          <ns3:TrackPointExtension>
            <ns3:hr>109</ns3:hr>
            <ns3:cad>59</ns3:cad>
          </ns3:TrackPointExtension>
        </extensions>
      </trkpt>
      <trkpt lat="52.101443745195865631103515625" lon="1.41993706114590167999267578125">
        <ele>12.6000003814697265625</ele>
        <time>2025-09-06T07:56:46.000Z</time>
        <extensions>
          <ns3:TrackPointExtension>
            <ns3:hr>106</ns3:hr>
            <ns3:cad>0</ns3:cad>
          </ns3:TrackPointExtension>
        </extensions>
      </trkpt>
      <trkpt lat="52.10147165693342685699462890625" lon="1.419875957071781158447265625">
        <ele>12.6000003814697265625</ele>
        <time>2025-09-06T07:56:49.000Z</time>
        <extensions>
          <ns3:TrackPointExtension>
            <ns3:hr>107</ns3:hr>
            <ns3:cad>59</ns3:cad>
          </ns3:TrackPointExtension>
        </extensions>
      </trkpt>
      <trkpt lat="52.1014972217381000518798828125" lon="1.41981719993054866790771484375">
        <ele>12.6000003814697265625</ele>
        <time>2025-09-06T07:56:52.000Z</time>
        <extensions>
          <ns3:TrackPointExtension>
            <ns3:hr>110</ns3:hr>
            <ns3:cad>62</ns3:cad>
          </ns3:TrackPointExtension>
        </extensions>
      </trkpt>
      <trkpt lat="52.10152077488601207733154296875" lon="1.41977646388113498687744140625">
        <ele>12.6000003814697265625</ele>
        <time>2025-09-06T07:56:54.000Z</time>
        <extensions>
          <ns3:TrackPointExtension>
            <ns3:hr>113</ns3:hr>
            <ns3:cad>63</ns3:cad>
          </ns3:TrackPointExtension>
        </extensions>
      </trkpt>
      <trkpt lat="52.1015508659183979034423828125" lon="1.41968023963272571563720703125">
        <ele>12.19999980926513671875</ele>
        <time>2025-09-06T07:56:58.000Z</time>
        <extensions>
          <ns3:TrackPointExtension>
            <ns3:hr>117</ns3:hr>
            <ns3:cad>64</ns3:cad>
          </ns3:TrackPointExtension>
        </extensions>
      </trkpt>
      <trkpt lat="52.10155849345028400421142578125" lon="1.4196565188467502593994140625">
        <ele>12.19999980926513671875</ele>
        <time>2025-09-06T07:56:59.000Z</time>
        <extensions>
          <ns3:TrackPointExtension>
            <ns3:hr>114</ns3:hr>
            <ns3:cad>64</ns3:cad>
          </ns3:TrackPointExtension>
        </extensions>
      </trkpt>
      <trkpt lat="52.10161901079118251800537109375" lon="1.4194848574697971343994140625">
        <ele>12.3999996185302734375</ele>
        <time>2025-09-06T07:57:07.000Z</time>
        <extensions>
          <ns3:TrackPointExtension>
            <ns3:hr>114</ns3:hr>
            <ns3:cad>62</ns3:cad>
          </ns3:TrackPointExtension>
        </extensions>
      </trkpt>
      <trkpt lat="52.10168573074042797088623046875" lon="1.41937849111855030059814453125">
        <ele>12.19999980926513671875</ele>
        <time>2025-09-06T07:57:14.000Z</time>
        <extensions>
          <ns3:TrackPointExtension>
            <ns3:hr>110</ns3:hr>
            <ns3:cad>63</ns3:cad>
          </ns3:TrackPointExtension>
        </extensions>
      </trkpt>
      <trkpt lat="52.10169847123324871063232421875" lon="1.4193698577582836151123046875">
        <ele>12.19999980926513671875</ele>
        <time>2025-09-06T07:57:15.000Z</time>
        <extensions>
          <ns3:TrackPointExtension>
            <ns3:hr>110</ns3:hr>
            <ns3:cad>62</ns3:cad>
          </ns3:TrackPointExtension>
        </extensions>
      </trkpt>
      <trkpt lat="52.10177390836179256439208984375" lon="1.41916290856897830963134765625">
        <ele>12</ele>
        <time>2025-09-06T07:57:23.000Z</time>
        <extensions>
          <ns3:TrackPointExtension>
            <ns3:hr>108</ns3:hr>
            <ns3:cad>62</ns3:cad>
          </ns3:TrackPointExtension>
        </extensions>
      </trkpt>
      <trkpt lat="52.10178849287331104278564453125" lon="1.41893005929887294769287109375">
        <ele>12</ele>
        <time>2025-09-06T07:57:30.000Z</time>
        <extensions>
          <ns3:TrackPointExtension>
            <ns3:hr>111</ns3:hr>
            <ns3:cad>0</ns3:cad>
          </ns3:TrackPointExtension>
        </extensions>
      </trkpt>
      <trkpt lat="52.10177273489534854888916015625" lon="1.41885110177099704742431640625">
        <ele>12</ele>
        <time>2025-09-06T07:57:32.000Z</time>
        <extensions>
          <ns3:TrackPointExtension>
            <ns3:hr>114</ns3:hr>
            <ns3:cad>0</ns3:cad>
          </ns3:TrackPointExtension>
        </extensions>
      </trkpt>
      <trkpt lat="52.10177709348499774932861328125" lon="1.41879267990589141845703125">
        <ele>12</ele>
        <time>2025-09-06T07:57:34.000Z</time>
        <extensions>
          <ns3:TrackPointExtension>
            <ns3:hr>111</ns3:hr>
            <ns3:cad>64</ns3:cad>
          </ns3:TrackPointExtension>
        </extensions>
      </trkpt>
      <trkpt lat="52.1017966233193874359130859375" lon="1.418679691851139068603515625">
        <ele>12.19999980926513671875</ele>
        <time>2025-09-06T07:57:38.000Z</time>
        <extensions>
          <ns3:TrackPointExtension>
            <ns3:hr>111</ns3:hr>
            <ns3:cad>64</ns3:cad>
          </ns3:TrackPointExtension>
        </extensions>
      </trkpt>
      <trkpt lat="52.101829983294010162353515625" lon="1.41861406154930591583251953125">
        <ele>12.19999980926513671875</ele>
        <time>2025-09-06T07:57:41.000Z</time>
        <extensions>
          <ns3:TrackPointExtension>
            <ns3:hr>108</ns3:hr>
            <ns3:cad>63</ns3:cad>
          </ns3:TrackPointExtension>
        </extensions>
      </trkpt>
      <trkpt lat="52.1018690429627895355224609375" lon="1.4184900932013988494873046875">
        <ele>12</ele>
        <time>2025-09-06T07:57:46.000Z</time>
        <extensions>
          <ns3:TrackPointExtension>
            <ns3:hr>110</ns3:hr>
            <ns3:cad>63</ns3:cad>
          </ns3:TrackPointExtension>
        </extensions>
      </trkpt>
      <trkpt lat="52.1019062586128711700439453125" lon="1.4183346927165985107421875">
        <ele>12</ele>
        <time>2025-09-06T07:57:52.000Z</time>
        <extensions>
          <ns3:TrackPointExtension>
            <ns3:hr>110</ns3:hr>
            <ns3:cad>63</ns3:cad>
          </ns3:TrackPointExtension>
        </extensions>
      </trkpt>
      <trkpt lat="52.10194607265293598175048828125" lon="1.41813755035400390625">
        <ele>11.80000019073486328125</ele>
        <time>2025-09-06T07:57:59.000Z</time>
        <extensions>
          <ns3:TrackPointExtension>
            <ns3:hr>111</ns3:hr>
            <ns3:cad>64</ns3:cad>
          </ns3:TrackPointExtension>
        </extensions>
      </trkpt>
      <trkpt lat="52.10200726054608821868896484375" lon="1.41794518567621707916259765625">
        <ele>11.80000019073486328125</ele>
        <time>2025-09-06T07:58:07.000Z</time>
        <extensions>
          <ns3:TrackPointExtension>
            <ns3:hr>108</ns3:hr>
            <ns3:cad>64</ns3:cad>
          </ns3:TrackPointExtension>
        </extensions>
      </trkpt>
      <trkpt lat="52.1020806021988391876220703125" lon="1.4177179522812366485595703125">
        <ele>11.6000003814697265625</ele>
        <time>2025-09-06T07:58:16.000Z</time>
        <extensions>
          <ns3:TrackPointExtension>
            <ns3:hr>107</ns3:hr>
            <ns3:cad>63</ns3:cad>
          </ns3:TrackPointExtension>
        </extensions>
      </trkpt>
      <trkpt lat="52.1021218411624431610107421875" lon="1.41757822595536708831787109375">
        <ele>11.6000003814697265625</ele>
        <time>2025-09-06T07:58:22.000Z</time>
        <extensions>
          <ns3:TrackPointExtension>
            <ns3:hr>105</ns3:hr>
            <ns3:cad>63</ns3:cad>
          </ns3:TrackPointExtension>
        </extensions>
      </trkpt>
      <trkpt lat="52.1021345816552639007568359375" lon="1.417536400258541107177734375">
        <ele>11.3999996185302734375</ele>
        <time>2025-09-06T07:58:24.000Z</time>
        <extensions>
          <ns3:TrackPointExtension>
            <ns3:hr>106</ns3:hr>
            <ns3:cad>63</ns3:cad>
          </ns3:TrackPointExtension>
        </extensions>
      </trkpt>
      <trkpt lat="52.10217892192304134368896484375" lon="1.4173873700201511383056640625">
        <ele>11.3999996185302734375</ele>
        <time>2025-09-06T07:58:31.000Z</time>
        <extensions>
          <ns3:TrackPointExtension>
            <ns3:hr>103</ns3:hr>
            <ns3:cad>63</ns3:cad>
          </ns3:TrackPointExtension>
        </extensions>
      </trkpt>
      <trkpt lat="52.10218160413205623626708984375" lon="1.41737706027925014495849609375">
        <ele>11.3999996185302734375</ele>
        <time>2025-09-06T07:58:32.000Z</time>
        <extensions>
          <ns3:TrackPointExtension>
            <ns3:hr>103</ns3:hr>
            <ns3:cad>0</ns3:cad>
          </ns3:TrackPointExtension>
        </extensions>
      </trkpt>
      <trkpt lat="52.1021831966936588287353515625" lon="1.41735409386456012725830078125">
        <ele>11.3999996185302734375</ele>
        <time>2025-09-06T07:58:34.000Z</time>
        <extensions>
          <ns3:TrackPointExtension>
            <ns3:hr>106</ns3:hr>
            <ns3:cad>49</ns3:cad>
          </ns3:TrackPointExtension>
        </extensions>
      </trkpt>
      <trkpt lat="52.10219183005392551422119140625" lon="1.41728133894503116607666015625">
        <ele>11.3999996185302734375</ele>
        <time>2025-09-06T07:58:37.000Z</time>
        <extensions>
          <ns3:TrackPointExtension>
            <ns3:hr>109</ns3:hr>
            <ns3:cad>49</ns3:cad>
          </ns3:TrackPointExtension>
        </extensions>
      </trkpt>
      <trkpt lat="52.10221613757312297821044921875" lon="1.4172096736729145050048828125">
        <ele>11.19999980926513671875</ele>
        <time>2025-09-06T07:58:40.000Z</time>
        <extensions>
          <ns3:TrackPointExtension>
            <ns3:hr>106</ns3:hr>
            <ns3:cad>64</ns3:cad>
          </ns3:TrackPointExtension>
        </extensions>
      </trkpt>
      <trkpt lat="52.1022427082061767578125" lon="1.4171330630779266357421875">
        <ele>11.19999980926513671875</ele>
        <time>2025-09-06T07:58:43.000Z</time>
        <extensions>
          <ns3:TrackPointExtension>
            <ns3:hr>105</ns3:hr>
            <ns3:cad>64</ns3:cad>
          </ns3:TrackPointExtension>
        </extensions>
      </trkpt>
      <trkpt lat="52.1022841148078441619873046875" lon="1.41697590239346027374267578125">
        <ele>10.80000019073486328125</ele>
        <time>2025-09-06T07:58:49.000Z</time>
        <extensions>
          <ns3:TrackPointExtension>
            <ns3:hr>107</ns3:hr>
            <ns3:cad>63</ns3:cad>
          </ns3:TrackPointExtension>
        </extensions>
      </trkpt>
      <trkpt lat="52.1022914908826351165771484375" lon="1.41693784855306148529052734375">
        <ele>10.80000019073486328125</ele>
        <time>2025-09-06T07:58:51.000Z</time>
        <extensions>
          <ns3:TrackPointExtension>
            <ns3:hr>104</ns3:hr>
            <ns3:cad>64</ns3:cad>
          </ns3:TrackPointExtension>
        </extensions>
      </trkpt>
      <trkpt lat="52.102306075394153594970703125" lon="1.4169008843600749969482421875">
        <ele>10.80000019073486328125</ele>
        <time>2025-09-06T07:58:55.000Z</time>
        <extensions>
          <ns3:TrackPointExtension>
            <ns3:hr>106</ns3:hr>
            <ns3:cad>57</ns3:cad>
          </ns3:TrackPointExtension>
        </extensions>
      </trkpt>
      <trkpt lat="52.10233549587428569793701171875" lon="1.4168246090412139892578125">
        <ele>10.80000019073486328125</ele>
        <time>2025-09-06T07:58:59.000Z</time>
        <extensions>
          <ns3:TrackPointExtension>
            <ns3:hr>109</ns3:hr>
            <ns3:cad>62</ns3:cad>
          </ns3:TrackPointExtension>
        </extensions>
      </trkpt>
      <trkpt lat="52.1023367531597614288330078125" lon="1.416796781122684478759765625">
        <ele>10.80000019073486328125</ele>
        <time>2025-09-06T07:59:02.000Z</time>
        <extensions>
          <ns3:TrackPointExtension>
            <ns3:hr>106</ns3:hr>
            <ns3:cad>0</ns3:cad>
          </ns3:TrackPointExtension>
        </extensions>
      </trkpt>
      <trkpt lat="52.10235075093805789947509765625" lon="1.4167070947587490081787109375">
        <ele>10.6000003814697265625</ele>
        <time>2025-09-06T07:59:08.000Z</time>
        <extensions>
          <ns3:TrackPointExtension>
            <ns3:hr>105</ns3:hr>
            <ns3:cad>0</ns3:cad>
          </ns3:TrackPointExtension>
        </extensions>
      </trkpt>
      <trkpt lat="52.1023887209594249725341796875" lon="1.416546665132045745849609375">
        <ele>10.3999996185302734375</ele>
        <time>2025-09-06T07:59:14.000Z</time>
        <extensions>
          <ns3:TrackPointExtension>
            <ns3:hr>108</ns3:hr>
            <ns3:cad>62</ns3:cad>
          </ns3:TrackPointExtension>
        </extensions>
      </trkpt>
      <trkpt lat="52.1024011261761188507080078125" lon="1.41653484664857387542724609375">
        <ele>10.3999996185302734375</ele>
        <time>2025-09-06T07:59:15.000Z</time>
        <extensions>
          <ns3:TrackPointExtension>
            <ns3:hr>108</ns3:hr>
            <ns3:cad>62</ns3:cad>
          </ns3:TrackPointExtension>
        </extensions>
      </trkpt>
      <trkpt lat="52.10242283530533313751220703125" lon="1.41652579419314861297607421875">
        <ele>10.3999996185302734375</ele>
        <time>2025-09-06T07:59:17.000Z</time>
        <extensions>
          <ns3:TrackPointExtension>
            <ns3:hr>108</ns3:hr>
            <ns3:cad>62</ns3:cad>
          </ns3:TrackPointExtension>
        </extensions>
      </trkpt>
      <trkpt lat="52.10244596935808658599853515625" lon="1.41654725186526775360107421875">
        <ele>10.3999996185302734375</ele>
        <time>2025-09-06T07:59:19.000Z</time>
        <extensions>
          <ns3:TrackPointExtension>
            <ns3:hr>104</ns3:hr>
            <ns3:cad>62</ns3:cad>
          </ns3:TrackPointExtension>
        </extensions>
      </trkpt>
      <trkpt lat="52.1024752222001552581787109375" lon="1.4165837131440639495849609375">
        <ele>10.3999996185302734375</ele>
        <time>2025-09-06T07:59:21.000Z</time>
        <extensions>
          <ns3:TrackPointExtension>
            <ns3:hr>105</ns3:hr>
            <ns3:cad>62</ns3:cad>
          </ns3:TrackPointExtension>
        </extensions>
      </trkpt>
      <trkpt lat="52.10251520387828350067138671875" lon="1.41661648638546466827392578125">
        <ele>10.3999996185302734375</ele>
        <time>2025-09-06T07:59:25.000Z</time>
        <extensions>
          <ns3:TrackPointExtension>
            <ns3:hr>108</ns3:hr>
            <ns3:cad>63</ns3:cad>
          </ns3:TrackPointExtension>
        </extensions>
      </trkpt>
      <trkpt lat="52.10254454053938388824462890625" lon="1.416611708700656890869140625">
        <ele>10.3999996185302734375</ele>
        <time>2025-09-06T07:59:27.000Z</time>
        <extensions>
          <ns3:TrackPointExtension>
            <ns3:hr>104</ns3:hr>
            <ns3:cad>60</ns3:cad>
          </ns3:TrackPointExtension>
        </extensions>
      </trkpt>
      <trkpt lat="52.10256096906960010528564453125" lon="1.41660575754940509796142578125">
        <ele>10.3999996185302734375</ele>
        <time>2025-09-06T07:59:28.000Z</time>
        <extensions>
          <ns3:TrackPointExtension>
            <ns3:hr>105</ns3:hr>
            <ns3:cad>60</ns3:cad>
          </ns3:TrackPointExtension>
        </extensions>
      </trkpt>
      <trkpt lat="52.1026436984539031982421875" lon="1.41659435816109180450439453125">
        <ele>10.3999996185302734375</ele>
        <time>2025-09-06T07:59:33.000Z</time>
        <extensions>
          <ns3:TrackPointExtension>
            <ns3:hr>101</ns3:hr>
            <ns3:cad>63</ns3:cad>
          </ns3:TrackPointExtension>
        </extensions>
      </trkpt>
      <trkpt lat="52.1026830933988094329833984375" lon="1.41659603454172611236572265625">
        <ele>10.3999996185302734375</ele>
        <time>2025-09-06T07:59:35.000Z</time>
        <extensions>
          <ns3:TrackPointExtension>
            <ns3:hr>97</ns3:hr>
            <ns3:cad>62</ns3:cad>
          </ns3:TrackPointExtension>
        </extensions>
      </trkpt>
      <trkpt lat="52.102744616568088531494140625" lon="1.4166038297116756439208984375">
        <ele>10.3999996185302734375</ele>
        <time>2025-09-06T07:59:38.000Z</time>
        <extensions>
          <ns3:TrackPointExtension>
            <ns3:hr>96</ns3:hr>
            <ns3:cad>62</ns3:cad>
          </ns3:TrackPointExtension>
        </extensions>
      </trkpt>
      <trkpt lat="52.1028175391256809234619140625" lon="1.41662654466927051544189453125">
        <ele>10.3999996185302734375</ele>
        <time>2025-09-06T07:59:42.000Z</time>
        <extensions>
          <ns3:TrackPointExtension>
            <ns3:hr>99</ns3:hr>
            <ns3:cad>64</ns3:cad>
          </ns3:TrackPointExtension>
        </extensions>
      </trkpt>
      <trkpt lat="52.10285685025155544281005859375" lon="1.416635848581790924072265625">
        <ele>10.19999980926513671875</ele>
        <time>2025-09-06T07:59:44.000Z</time>
        <extensions>
          <ns3:TrackPointExtension>
            <ns3:hr>96</ns3:hr>
            <ns3:cad>62</ns3:cad>
          </ns3:TrackPointExtension>
        </extensions>
      </trkpt>
      <trkpt lat="52.10287906229496002197265625" lon="1.41662788577377796173095703125">
        <ele>10.19999980926513671875</ele>
        <time>2025-09-06T07:59:46.000Z</time>
        <extensions>
          <ns3:TrackPointExtension>
            <ns3:hr>97</ns3:hr>
            <ns3:cad>62</ns3:cad>
          </ns3:TrackPointExtension>
        </extensions>
      </trkpt>
      <trkpt lat="52.10290697403252124786376953125" lon="1.4166234433650970458984375">
        <ele>10.19999980926513671875</ele>
        <time>2025-09-06T07:59:48.000Z</time>
        <extensions>
          <ns3:TrackPointExtension>
            <ns3:hr>100</ns3:hr>
            <ns3:cad>0</ns3:cad>
          </ns3:TrackPointExtension>
        </extensions>
      </trkpt>
      <trkpt lat="52.10296715609729290008544921875" lon="1.4165890775620937347412109375">
        <ele>10.19999980926513671875</ele>
        <time>2025-09-06T07:59:52.000Z</time>
        <extensions>
          <ns3:TrackPointExtension>
            <ns3:hr>104</ns3:hr>
            <ns3:cad>0</ns3:cad>
          </ns3:TrackPointExtension>
        </extensions>
      </trkpt>
      <trkpt lat="52.10298056714236736297607421875" lon="1.41658714972436428070068359375">
        <ele>10.3999996185302734375</ele>
        <time>2025-09-06T07:59:53.000Z</time>
        <extensions>
          <ns3:TrackPointExtension>
            <ns3:hr>106</ns3:hr>
            <ns3:cad>0</ns3:cad>
          </ns3:TrackPointExtension>
        </extensions>
      </trkpt>
      <trkpt lat="52.102987356483936309814453125" lon="1.4165749959647655487060546875">
        <ele>10.3999996185302734375</ele>
        <time>2025-09-06T07:59:54.000Z</time>
        <extensions>
          <ns3:TrackPointExtension>
            <ns3:hr>110</ns3:hr>
            <ns3:cad>0</ns3:cad>
          </ns3:TrackPointExtension>
        </extensions>
      </trkpt>
      <trkpt lat="52.10302448831498622894287109375" lon="1.41657893545925617218017578125">
        <ele>10.3999996185302734375</ele>
        <time>2025-09-06T07:59:56.000Z</time>
        <extensions>
          <ns3:TrackPointExtension>
            <ns3:hr>113</ns3:hr>
            <ns3:cad>0</ns3:cad>
          </ns3:TrackPointExtension>
        </extensions>
      </trkpt>
      <trkpt lat="52.10309439338743686676025390625" lon="1.41656368039548397064208984375">
        <ele>10.3999996185302734375</ele>
        <time>2025-09-06T08:00:01.000Z</time>
        <extensions>
          <ns3:TrackPointExtension>
            <ns3:hr>114</ns3:hr>
            <ns3:cad>0</ns3:cad>
          </ns3:TrackPointExtension>
        </extensions>
      </trkpt>
      <trkpt lat="52.10322774946689605712890625" lon="1.4165967889130115509033203125">
        <ele>10.3999996185302734375</ele>
        <time>2025-09-06T08:00:10.000Z</time>
        <extensions>
          <ns3:TrackPointExtension>
            <ns3:hr>114</ns3:hr>
            <ns3:cad>0</ns3:cad>
          </ns3:TrackPointExtension>
        </extensions>
      </trkpt>
      <trkpt lat="52.10327896289527416229248046875" lon="1.4166061766445636749267578125">
        <ele>10.3999996185302734375</ele>
        <time>2025-09-06T08:00:14.000Z</time>
        <extensions>
          <ns3:TrackPointExtension>
            <ns3:hr>111</ns3:hr>
            <ns3:cad>62</ns3:cad>
          </ns3:TrackPointExtension>
        </extensions>
      </trkpt>
      <trkpt lat="52.1033026836812496185302734375" lon="1.41659955494105815887451171875">
        <ele>10.3999996185302734375</ele>
        <time>2025-09-06T08:00:16.000Z</time>
        <extensions>
          <ns3:TrackPointExtension>
            <ns3:hr>108</ns3:hr>
            <ns3:cad>62</ns3:cad>
          </ns3:TrackPointExtension>
        </extensions>
      </trkpt>
      <trkpt lat="52.10331819020211696624755859375" lon="1.41659486107528209686279296875">
        <ele>10.3999996185302734375</ele>
        <time>2025-09-06T08:00:17.000Z</time>
        <extensions>
          <ns3:TrackPointExtension>
            <ns3:hr>105</ns3:hr>
            <ns3:cad>62</ns3:cad>
          </ns3:TrackPointExtension>
        </extensions>
      </trkpt>
      <trkpt lat="52.1033352054655551910400390625" lon="1.41659234650433063507080078125">
        <ele>10.3999996185302734375</ele>
        <time>2025-09-06T08:00:18.000Z</time>
        <extensions>
          <ns3:TrackPointExtension>
            <ns3:hr>102</ns3:hr>
            <ns3:cad>62</ns3:cad>
          </ns3:TrackPointExtension>
        </extensions>
      </trkpt>
      <trkpt lat="52.103476859629154205322265625" lon="1.41664096154272556304931640625">
        <ele>10.3999996185302734375</ele>
        <time>2025-09-06T08:00:26.000Z</time>
        <extensions>
          <ns3:TrackPointExtension>
            <ns3:hr>99</ns3:hr>
            <ns3:cad>62</ns3:cad>
          </ns3:TrackPointExtension>
        </extensions>
      </trkpt>
      <trkpt lat="52.10349052213132381439208984375" lon="1.41665252856910228729248046875">
        <ele>10.3999996185302734375</ele>
        <time>2025-09-06T08:00:27.000Z</time>
        <extensions>
          <ns3:TrackPointExtension>
            <ns3:hr>101</ns3:hr>
            <ns3:cad>62</ns3:cad>
          </ns3:TrackPointExtension>
        </extensions>
      </trkpt>
      <trkpt lat="52.10368347354233264923095703125" lon="1.41674959100782871246337890625">
        <ele>10.3999996185302734375</ele>
        <time>2025-09-06T08:00:37.000Z</time>
        <extensions>
          <ns3:TrackPointExtension>
            <ns3:hr>100</ns3:hr>
            <ns3:cad>61</ns3:cad>
          </ns3:TrackPointExtension>
        </extensions>
      </trkpt>
      <trkpt lat="52.103767879307270050048828125" lon="1.4167801849544048309326171875">
        <ele>10.3999996185302734375</ele>
        <time>2025-09-06T08:00:40.000Z</time>
        <extensions>
          <ns3:TrackPointExtension>
            <ns3:hr>97</ns3:hr>
            <ns3:cad>60</ns3:cad>
          </ns3:TrackPointExtension>
        </extensions>
      </trkpt>
      <trkpt lat="52.103801406919956207275390625" lon="1.41678370535373687744140625">
        <ele>10.3999996185302734375</ele>
        <time>2025-09-06T08:00:42.000Z</time>
        <extensions>
          <ns3:TrackPointExtension>
            <ns3:hr>94</ns3:hr>
            <ns3:cad>60</ns3:cad>
          </ns3:TrackPointExtension>
        </extensions>
      </trkpt>
      <trkpt lat="52.10380920208990573883056640625" lon="1.41678328625857830047607421875">
        <ele>10.3999996185302734375</ele>
        <time>2025-09-06T08:00:43.000Z</time>
        <extensions>
          <ns3:TrackPointExtension>
            <ns3:hr>94</ns3:hr>
            <ns3:cad>60</ns3:cad>
          </ns3:TrackPointExtension>
        </extensions>
      </trkpt>
      <trkpt lat="52.103823535144329071044921875" lon="1.41677943058311939239501953125">
        <ele>10.3999996185302734375</ele>
        <time>2025-09-06T08:00:44.000Z</time>
        <extensions>
          <ns3:TrackPointExtension>
            <ns3:hr>91</ns3:hr>
            <ns3:cad>60</ns3:cad>
          </ns3:TrackPointExtension>
        </extensions>
      </trkpt>
      <trkpt lat="52.1038408018648624420166015625" lon="1.41677926294505596160888671875">
        <ele>10.3999996185302734375</ele>
        <time>2025-09-06T08:00:45.000Z</time>
        <extensions>
          <ns3:TrackPointExtension>
            <ns3:hr>95</ns3:hr>
            <ns3:cad>60</ns3:cad>
          </ns3:TrackPointExtension>
        </extensions>
      </trkpt>
      <trkpt lat="52.10389159619808197021484375" lon="1.4167761616408824920654296875">
        <ele>10.3999996185302734375</ele>
        <time>2025-09-06T08:00:48.000Z</time>
        <extensions>
          <ns3:TrackPointExtension>
            <ns3:hr>92</ns3:hr>
            <ns3:cad>60</ns3:cad>
          </ns3:TrackPointExtension>
        </extensions>
      </trkpt>
      <trkpt lat="52.10392177104949951171875" lon="1.41676669009029865264892578125">
        <ele>10.3999996185302734375</ele>
        <time>2025-09-06T08:00:50.000Z</time>
        <extensions>
          <ns3:TrackPointExtension>
            <ns3:hr>94</ns3:hr>
            <ns3:cad>61</ns3:cad>
          </ns3:TrackPointExtension>
        </extensions>
      </trkpt>
      <trkpt lat="52.104077003896236419677734375" lon="1.4167241938412189483642578125">
        <ele>10.3999996185302734375</ele>
        <time>2025-09-06T08:01:00.000Z</time>
        <extensions>
          <ns3:TrackPointExtension>
            <ns3:hr>94</ns3:hr>
            <ns3:cad>61</ns3:cad>
          </ns3:TrackPointExtension>
        </extensions>
      </trkpt>
      <trkpt lat="52.10418420843780040740966796875" lon="1.4166910015046596527099609375">
        <ele>10.3999996185302734375</ele>
        <time>2025-09-06T08:01:09.000Z</time>
        <extensions>
          <ns3:TrackPointExtension>
            <ns3:hr>94</ns3:hr>
            <ns3:cad>60</ns3:cad>
          </ns3:TrackPointExtension>
        </extensions>
      </trkpt>
      <trkpt lat="52.104190997779369354248046875" lon="1.416688151657581329345703125">
        <ele>10</ele>
        <time>2025-09-06T08:01:11.000Z</time>
        <extensions>
          <ns3:TrackPointExtension>
            <ns3:hr>98</ns3:hr>
            <ns3:cad>58</ns3:cad>
          </ns3:TrackPointExtension>
        </extensions>
      </trkpt>
      <trkpt lat="52.1041871421039104461669921875" lon="1.4166690409183502197265625">
        <ele>9.6000003814697265625</ele>
        <time>2025-09-06T08:01:14.000Z</time>
        <extensions>
          <ns3:TrackPointExtension>
            <ns3:hr>100</ns3:hr>
            <ns3:cad>58</ns3:cad>
          </ns3:TrackPointExtension>
        </extensions>
      </trkpt>
      <trkpt lat="52.1041993796825408935546875" lon="1.4166876487433910369873046875">
        <ele>9.19999980926513671875</ele>
        <time>2025-09-06T08:01:18.000Z</time>
        <extensions>
          <ns3:TrackPointExtension>
            <ns3:hr>101</ns3:hr>
            <ns3:cad>58</ns3:cad>
          </ns3:TrackPointExtension>
        </extensions>
      </trkpt>
      <trkpt lat="52.10420901887118816375732421875" lon="1.416719667613506317138671875">
        <ele>9.19999980926513671875</ele>
        <time>2025-09-06T08:01:22.000Z</time>
        <extensions>
          <ns3:TrackPointExtension>
            <ns3:hr>98</ns3:hr>
            <ns3:cad>0</ns3:cad>
          </ns3:TrackPointExtension>
        </extensions>
      </trkpt>
      <trkpt lat="52.10421438328921794891357421875" lon="1.4167483337223529815673828125">
        <ele>9.19999980926513671875</ele>
        <time>2025-09-06T08:01:25.000Z</time>
        <extensions>
          <ns3:TrackPointExtension>
            <ns3:hr>102</ns3:hr>
            <ns3:cad>0</ns3:cad>
          </ns3:TrackPointExtension>
        </extensions>
      </trkpt>
      <trkpt lat="52.104234583675861358642578125" lon="1.41675009392201900482177734375">
        <ele>9</ele>
        <time>2025-09-06T08:01:29.000Z</time>
        <extensions>
          <ns3:TrackPointExtension>
            <ns3:hr>99</ns3:hr>
            <ns3:cad>0</ns3:cad>
          </ns3:TrackPointExtension>
        </extensions>
      </trkpt>
      <trkpt lat="52.1042422950267791748046875" lon="1.416753865778446197509765625">
        <ele>8.80000019073486328125</ele>
        <time>2025-09-06T08:01:34.000Z</time>
        <extensions>
          <ns3:TrackPointExtension>
            <ns3:hr>100</ns3:hr>
            <ns3:cad>0</ns3:cad>
          </ns3:TrackPointExtension>
        </extensions>
      </trkpt>
      <trkpt lat="52.10424941964447498321533203125" lon="1.4167607389390468597412109375">
        <ele>8.80000019073486328125</ele>
        <time>2025-09-06T08:01:39.000Z</time>
        <extensions>
          <ns3:TrackPointExtension>
            <ns3:hr>103</ns3:hr>
            <ns3:cad>0</ns3:cad>
          </ns3:TrackPointExtension>
        </extensions>
      </trkpt>
      <trkpt lat="52.10426576435565948486328125" lon="1.4167681150138378143310546875">
        <ele>8.6000003814697265625</ele>
        <time>2025-09-06T08:01:46.000Z</time>
        <extensions>
          <ns3:TrackPointExtension>
            <ns3:hr>101</ns3:hr>
            <ns3:cad>0</ns3:cad>
          </ns3:TrackPointExtension>
        </extensions>
      </trkpt>
      <trkpt lat="52.10427892394363880157470703125" lon="1.41677825711667537689208984375">
        <ele>8.6000003814697265625</ele>
        <time>2025-09-06T08:01:50.000Z</time>
        <extensions>
          <ns3:TrackPointExtension>
            <ns3:hr>104</ns3:hr>
            <ns3:cad>0</ns3:cad>
          </ns3:TrackPointExtension>
        </extensions>
      </trkpt>
      <trkpt lat="52.10428663529455661773681640625" lon="1.4167736470699310302734375">
        <ele>8.80000019073486328125</ele>
        <time>2025-09-06T08:01:54.000Z</time>
        <extensions>
          <ns3:TrackPointExtension>
            <ns3:hr>103</ns3:hr>
            <ns3:cad>0</ns3:cad>
          </ns3:TrackPointExtension>
        </extensions>
      </trkpt>
      <trkpt lat="52.104311697185039520263671875" lon="1.41677431762218475341796875">
        <ele>8.3999996185302734375</ele>
        <time>2025-09-06T08:02:03.000Z</time>
        <extensions>
          <ns3:TrackPointExtension>
            <ns3:hr>102</ns3:hr>
            <ns3:cad>0</ns3:cad>
          </ns3:TrackPointExtension>
        </extensions>
      </trkpt>
      <trkpt lat="52.1043095178902149200439453125" lon="1.416775323450565338134765625">
        <ele>8.19999980926513671875</ele>
        <time>2025-09-06T08:02:05.000Z</time>
        <extensions>
          <ns3:TrackPointExtension>
            <ns3:hr>101</ns3:hr>
            <ns3:cad>0</ns3:cad>
          </ns3:TrackPointExtension>
        </extensions>
      </trkpt>
      <trkpt lat="52.1043235994875431060791015625" lon="1.416793763637542724609375">
        <ele>8.3999996185302734375</ele>
        <time>2025-09-06T08:02:12.000Z</time>
        <extensions>
          <ns3:TrackPointExtension>
            <ns3:hr>101</ns3:hr>
            <ns3:cad>0</ns3:cad>
          </ns3:TrackPointExtension>
        </extensions>
      </trkpt>
      <trkpt lat="52.10431630723178386688232421875" lon="1.4167842082679271697998046875">
        <ele>8.6000003814697265625</ele>
        <time>2025-09-06T08:02:20.000Z</time>
        <extensions>
          <ns3:TrackPointExtension>
            <ns3:hr>102</ns3:hr>
            <ns3:cad>0</ns3:cad>
          </ns3:TrackPointExtension>
        </extensions>
      </trkpt>
      <trkpt lat="52.1043222583830356597900390625" lon="1.41677565872669219970703125">
        <ele>8.6000003814697265625</ele>
        <time>2025-09-06T08:02:29.000Z</time>
        <extensions>
          <ns3:TrackPointExtension>
            <ns3:hr>103</ns3:hr>
            <ns3:cad>0</ns3:cad>
          </ns3:TrackPointExtension>
        </extensions>
      </trkpt>
      <trkpt lat="52.10430926643311977386474609375" lon="1.4167895726859569549560546875">
        <ele>9.19999980926513671875</ele>
        <time>2025-09-06T08:02:32.000Z</time>
        <extensions>
          <ns3:TrackPointExtension>
            <ns3:hr>100</ns3:hr>
            <ns3:cad>0</ns3:cad>
          </ns3:TrackPointExtension>
        </extensions>
      </trkpt>
      <trkpt lat="52.1043048240244388580322265625" lon="1.416784040629863739013671875">
        <ele>9.3999996185302734375</ele>
        <time>2025-09-06T08:02:34.000Z</time>
        <extensions>
          <ns3:TrackPointExtension>
            <ns3:hr>98</ns3:hr>
            <ns3:cad>0</ns3:cad>
          </ns3:TrackPointExtension>
        </extensions>
      </trkpt>
      <trkpt lat="52.10430356673896312713623046875" lon="1.41678026877343654632568359375">
        <ele>9.19999980926513671875</ele>
        <time>2025-09-06T08:02:38.000Z</time>
        <extensions>
          <ns3:TrackPointExtension>
            <ns3:hr>98</ns3:hr>
            <ns3:cad>0</ns3:cad>
          </ns3:TrackPointExtension>
        </extensions>
      </trkpt>
      <trkpt lat="52.10430909879505634307861328125" lon="1.41678295098245143890380859375">
        <ele>9</ele>
        <time>2025-09-06T08:02:44.000Z</time>
        <extensions>
          <ns3:TrackPointExtension>
            <ns3:hr>101</ns3:hr>
            <ns3:cad>0</ns3:cad>
          </ns3:TrackPointExtension>
        </extensions>
      </trkpt>
      <trkpt lat="52.1043098531663417816162109375" lon="1.416784711182117462158203125">
        <ele>8.3999996185302734375</ele>
        <time>2025-09-06T08:02:46.000Z</time>
        <extensions>
          <ns3:TrackPointExtension>
            <ns3:hr>101</ns3:hr>
            <ns3:cad>0</ns3:cad>
          </ns3:TrackPointExtension>
        </extensions>
      </trkpt>
      <trkpt lat="52.1043098531663417816162109375" lon="1.416784711182117462158203125">
        <ele>8.3999996185302734375</ele>
        <time>2025-09-06T08:02:47.000Z</time>
        <extensions>
          <ns3:TrackPointExtension>
            <ns3:hr>99</ns3:hr>
            <ns3:cad>0</ns3:cad>
          </ns3:TrackPointExtension>
        </extensions>
      </trkpt>
      <trkpt lat="52.1043185703456401824951171875" lon="1.4167878963053226470947265625">
        <ele>8.80000019073486328125</ele>
        <time>2025-09-06T08:02:48.000Z</time>
        <extensions>
          <ns3:TrackPointExtension>
            <ns3:hr>102</ns3:hr>
            <ns3:cad>0</ns3:cad>
          </ns3:TrackPointExtension>
        </extensions>
      </trkpt>
      <trkpt lat="52.10435201413929462432861328125" lon="1.4167882315814495086669921875">
        <ele>10</ele>
        <time>2025-09-06T08:02:54.000Z</time>
        <extensions>
          <ns3:TrackPointExtension>
            <ns3:hr>102</ns3:hr>
            <ns3:cad>0</ns3:cad>
          </ns3:TrackPointExtension>
        </extensions>
      </trkpt>
      <trkpt lat="52.1043594740331172943115234375" lon="1.41677071340382099151611328125">
        <ele>8.3999996185302734375</ele>
        <time>2025-09-06T08:02:57.000Z</time>
        <extensions>
          <ns3:TrackPointExtension>
            <ns3:hr>100</ns3:hr>
            <ns3:cad>0</ns3:cad>
          </ns3:TrackPointExtension>
        </extensions>
      </trkpt>
      <trkpt lat="52.10438822396099567413330078125" lon="1.4167667739093303680419921875">
        <ele>8.19999980926513671875</ele>
        <time>2025-09-06T08:03:00.000Z</time>
        <extensions>
          <ns3:TrackPointExtension>
            <ns3:hr>103</ns3:hr>
            <ns3:cad>49</ns3:cad>
          </ns3:TrackPointExtension>
        </extensions>
      </trkpt>
      <trkpt lat="52.10440783761441707611083984375" lon="1.41677088104188442230224609375">
        <ele>8.3999996185302734375</ele>
        <time>2025-09-06T08:03:01.000Z</time>
        <extensions>
          <ns3:TrackPointExtension>
            <ns3:hr>102</ns3:hr>
            <ns3:cad>49</ns3:cad>
          </ns3:TrackPointExtension>
        </extensions>
      </trkpt>
      <trkpt lat="52.10451185703277587890625" lon="1.4167677797377109527587890625">
        <ele>8</ele>
        <time>2025-09-06T08:03:08.000Z</time>
        <extensions>
          <ns3:TrackPointExtension>
            <ns3:hr>106</ns3:hr>
            <ns3:cad>79</ns3:cad>
          </ns3:TrackPointExtension>
        </extensions>
      </trkpt>
      <trkpt lat="52.10452803410589694976806640625" lon="1.4167687855660915374755859375">
        <ele>8.19999980926513671875</ele>
        <time>2025-09-06T08:03:09.000Z</time>
        <extensions>
          <ns3:TrackPointExtension>
            <ns3:hr>111</ns3:hr>
            <ns3:cad>80</ns3:cad>
          </ns3:TrackPointExtension>
        </extensions>
      </trkpt>
      <trkpt lat="52.10455032996833324432373046875" lon="1.416773982346057891845703125">
        <ele>8.19999980926513671875</ele>
        <time>2025-09-06T08:03:10.000Z</time>
        <extensions>
          <ns3:TrackPointExtension>
            <ns3:hr>115</ns3:hr>
            <ns3:cad>80</ns3:cad>
          </ns3:TrackPointExtension>
        </extensions>
      </trkpt>
      <trkpt lat="52.10457430221140384674072265625" lon="1.41677993349730968475341796875">
        <ele>8.19999980926513671875</ele>
        <time>2025-09-06T08:03:11.000Z</time>
        <extensions>
          <ns3:TrackPointExtension>
            <ns3:hr>119</ns3:hr>
            <ns3:cad>79</ns3:cad>
          </ns3:TrackPointExtension>
        </extensions>
      </trkpt>
      <trkpt lat="52.10459441877901554107666015625" lon="1.41678479500114917755126953125">
        <ele>8.19999980926513671875</ele>
        <time>2025-09-06T08:03:12.000Z</time>
        <extensions>
          <ns3:TrackPointExtension>
            <ns3:hr>121</ns3:hr>
            <ns3:cad>79</ns3:cad>
          </ns3:TrackPointExtension>
        </extensions>
      </trkpt>
      <trkpt lat="52.1046159602701663970947265625" lon="1.41679435037076473236083984375">
        <ele>8.19999980926513671875</ele>
        <time>2025-09-06T08:03:13.000Z</time>
        <extensions>
          <ns3:TrackPointExtension>
            <ns3:hr>125</ns3:hr>
            <ns3:cad>79</ns3:cad>
          </ns3:TrackPointExtension>
        </extensions>
      </trkpt>
      <trkpt lat="52.1046347357332706451416015625" lon="1.4168053306639194488525390625">
        <ele>8.19999980926513671875</ele>
        <time>2025-09-06T08:03:14.000Z</time>
        <extensions>
          <ns3:TrackPointExtension>
            <ns3:hr>121</ns3:hr>
            <ns3:cad>79</ns3:cad>
          </ns3:TrackPointExtension>
        </extensions>
      </trkpt>
      <trkpt lat="52.1046964265406131744384765625" lon="1.41682536341249942779541015625">
        <ele>8.19999980926513671875</ele>
        <time>2025-09-06T08:03:17.000Z</time>
        <extensions>
          <ns3:TrackPointExtension>
            <ns3:hr>124</ns3:hr>
            <ns3:cad>79</ns3:cad>
          </ns3:TrackPointExtension>
        </extensions>
      </trkpt>
      <trkpt lat="52.10476859472692012786865234375" lon="1.4168472401797771453857421875">
        <ele>8.19999980926513671875</ele>
        <time>2025-09-06T08:03:20.000Z</time>
        <extensions>
          <ns3:TrackPointExtension>
            <ns3:hr>124</ns3:hr>
            <ns3:cad>79</ns3:cad>
          </ns3:TrackPointExtension>
        </extensions>
      </trkpt>
      <trkpt lat="52.10481167770922183990478515625" lon="1.4168636687099933624267578125">
        <ele>8.6000003814697265625</ele>
        <time>2025-09-06T08:03:22.000Z</time>
        <extensions>
          <ns3:TrackPointExtension>
            <ns3:hr>127</ns3:hr>
            <ns3:cad>79</ns3:cad>
          </ns3:TrackPointExtension>
        </extensions>
      </trkpt>
      <trkpt lat="52.10487001575529575347900390625" lon="1.4168807677924633026123046875">
        <ele>8.80000019073486328125</ele>
        <time>2025-09-06T08:03:25.000Z</time>
        <extensions>
          <ns3:TrackPointExtension>
            <ns3:hr>130</ns3:hr>
            <ns3:cad>80</ns3:cad>
          </ns3:TrackPointExtension>
        </extensions>
      </trkpt>
      <trkpt lat="52.10492466576397418975830078125" lon="1.416887305676937103271484375">
        <ele>9</ele>
        <time>2025-09-06T08:03:28.000Z</time>
        <extensions>
          <ns3:TrackPointExtension>
            <ns3:hr>132</ns3:hr>
            <ns3:cad>80</ns3:cad>
          </ns3:TrackPointExtension>
        </extensions>
      </trkpt>
      <trkpt lat="52.10502441041171550750732421875" lon="1.41689677722752094268798828125">
        <ele>9.19999980926513671875</ele>
        <time>2025-09-06T08:03:34.000Z</time>
        <extensions>
          <ns3:TrackPointExtension>
            <ns3:hr>131</ns3:hr>
            <ns3:cad>77</ns3:cad>
          </ns3:TrackPointExtension>
        </extensions>
      </trkpt>
      <trkpt lat="52.10507101379334926605224609375" lon="1.41688705421984195709228515625">
        <ele>9.19999980926513671875</ele>
        <time>2025-09-06T08:03:37.000Z</time>
        <extensions>
          <ns3:TrackPointExtension>
            <ns3:hr>128</ns3:hr>
            <ns3:cad>79</ns3:cad>
          </ns3:TrackPointExtension>
        </extensions>
      </trkpt>
      <trkpt lat="52.10510554723441600799560546875" lon="1.416884623467922210693359375">
        <ele>9.19999980926513671875</ele>
        <time>2025-09-06T08:03:40.000Z</time>
        <extensions>
          <ns3:TrackPointExtension>
            <ns3:hr>131</ns3:hr>
            <ns3:cad>79</ns3:cad>
          </ns3:TrackPointExtension>
        </extensions>
      </trkpt>
      <trkpt lat="52.10513639263808727264404296875" lon="1.4168975315988063812255859375">
        <ele>9.19999980926513671875</ele>
        <time>2025-09-06T08:03:42.000Z</time>
        <extensions>
          <ns3:TrackPointExtension>
            <ns3:hr>129</ns3:hr>
            <ns3:cad>79</ns3:cad>
          </ns3:TrackPointExtension>
        </extensions>
      </trkpt>
      <trkpt lat="52.10532364435493946075439453125" lon="1.41692544333636760711669921875">
        <ele>9</ele>
        <time>2025-09-06T08:03:52.000Z</time>
        <extensions>
          <ns3:TrackPointExtension>
            <ns3:hr>129</ns3:hr>
            <ns3:cad>79</ns3:cad>
          </ns3:TrackPointExtension>
        </extensions>
      </trkpt>
      <trkpt lat="52.10550201125442981719970703125" lon="1.4169411174952983856201171875">
        <ele>8.6000003814697265625</ele>
        <time>2025-09-06T08:04:01.000Z</time>
        <extensions>
          <ns3:TrackPointExtension>
            <ns3:hr>133</ns3:hr>
            <ns3:cad>79</ns3:cad>
          </ns3:TrackPointExtension>
        </extensions>
      </trkpt>
      <trkpt lat="52.1056638658046722412109375" lon="1.4169427938759326934814453125">
        <ele>8</ele>
        <time>2025-09-06T08:04:09.000Z</time>
        <extensions>
          <ns3:TrackPointExtension>
            <ns3:hr>136</ns3:hr>
            <ns3:cad>78</ns3:cad>
          </ns3:TrackPointExtension>
        </extensions>
      </trkpt>
      <trkpt lat="52.10584198124706745147705078125" lon="1.41699769534170627593994140625">
        <ele>7.400000095367431640625</ele>
        <time>2025-09-06T08:04:18.000Z</time>
        <extensions>
          <ns3:TrackPointExtension>
            <ns3:hr>134</ns3:hr>
            <ns3:cad>78</ns3:cad>
          </ns3:TrackPointExtension>
        </extensions>
      </trkpt>
      <trkpt lat="52.1058735810220241546630859375" lon="1.41700389795005321502685546875">
        <ele>7.400000095367431640625</ele>
        <time>2025-09-06T08:04:20.000Z</time>
        <extensions>
          <ns3:TrackPointExtension>
            <ns3:hr>137</ns3:hr>
            <ns3:cad>79</ns3:cad>
          </ns3:TrackPointExtension>
        </extensions>
      </trkpt>
      <trkpt lat="52.10600559599697589874267578125" lon="1.416997276246547698974609375">
        <ele>7.19999980926513671875</ele>
        <time>2025-09-06T08:04:27.000Z</time>
        <extensions>
          <ns3:TrackPointExtension>
            <ns3:hr>136</ns3:hr>
            <ns3:cad>0</ns3:cad>
          </ns3:TrackPointExtension>
        </extensions>
      </trkpt>
      <trkpt lat="52.106135599315166473388671875" lon="1.41699694097042083740234375">
        <ele>6.400000095367431640625</ele>
        <time>2025-09-06T08:04:36.000Z</time>
        <extensions>
          <ns3:TrackPointExtension>
            <ns3:hr>136</ns3:hr>
            <ns3:cad>76</ns3:cad>
          </ns3:TrackPointExtension>
        </extensions>
      </trkpt>
      <trkpt lat="52.10616208612918853759765625" lon="1.41699417494237422943115234375">
        <ele>6</ele>
        <time>2025-09-06T08:04:38.000Z</time>
        <extensions>
          <ns3:TrackPointExtension>
            <ns3:hr>137</ns3:hr>
            <ns3:cad>77</ns3:cad>
          </ns3:TrackPointExtension>
        </extensions>
      </trkpt>
      <trkpt lat="52.106269709765911102294921875" lon="1.417004652321338653564453125">
        <ele>5.400000095367431640625</ele>
        <time>2025-09-06T08:04:45.000Z</time>
        <extensions>
          <ns3:TrackPointExtension>
            <ns3:hr>138</ns3:hr>
            <ns3:cad>79</ns3:cad>
          </ns3:TrackPointExtension>
        </extensions>
      </trkpt>
      <trkpt lat="52.10629619657993316650390625" lon="1.417016051709651947021484375">
        <ele>5.19999980926513671875</ele>
        <time>2025-09-06T08:04:47.000Z</time>
        <extensions>
          <ns3:TrackPointExtension>
            <ns3:hr>138</ns3:hr>
            <ns3:cad>79</ns3:cad>
          </ns3:TrackPointExtension>
        </extensions>
      </trkpt>
      <trkpt lat="52.10641178302466869354248046875" lon="1.417120657861232757568359375">
        <ele>4.599999904632568359375</ele>
        <time>2025-09-06T08:04:55.000Z</time>
        <extensions>
          <ns3:TrackPointExtension>
            <ns3:hr>137</ns3:hr>
            <ns3:cad>76</ns3:cad>
          </ns3:TrackPointExtension>
        </extensions>
      </trkpt>
      <trkpt lat="52.10643625818192958831787109375" lon="1.41713934950530529022216796875">
        <ele>4.400000095367431640625</ele>
        <time>2025-09-06T08:04:58.000Z</time>
        <extensions>
          <ns3:TrackPointExtension>
            <ns3:hr>137</ns3:hr>
            <ns3:cad>77</ns3:cad>
          </ns3:TrackPointExtension>
        </extensions>
      </trkpt>
      <trkpt lat="52.10645453073084354400634765625" lon="1.41714907251298427581787109375">
        <ele>4.19999980926513671875</ele>
        <time>2025-09-06T08:04:59.000Z</time>
        <extensions>
          <ns3:TrackPointExtension>
            <ns3:hr>138</ns3:hr>
            <ns3:cad>77</ns3:cad>
          </ns3:TrackPointExtension>
        </extensions>
      </trkpt>
      <trkpt lat="52.1065605618059635162353515625" lon="1.4171764813363552093505859375">
        <ele>3.599999904632568359375</ele>
        <time>2025-09-06T08:05:05.000Z</time>
        <extensions>
          <ns3:TrackPointExtension>
            <ns3:hr>141</ns3:hr>
            <ns3:cad>79</ns3:cad>
          </ns3:TrackPointExtension>
        </extensions>
      </trkpt>
      <trkpt lat="52.10663826204836368560791015625" lon="1.41715980134904384613037109375">
        <ele>3.599999904632568359375</ele>
        <time>2025-09-06T08:05:08.000Z</time>
        <extensions>
          <ns3:TrackPointExtension>
            <ns3:hr>138</ns3:hr>
            <ns3:cad>78</ns3:cad>
          </ns3:TrackPointExtension>
        </extensions>
      </trkpt>
      <trkpt lat="52.10669986903667449951171875" lon="1.41714580357074737548828125">
        <ele>3.400000095367431640625</ele>
        <time>2025-09-06T08:05:11.000Z</time>
        <extensions>
          <ns3:TrackPointExtension>
            <ns3:hr>139</ns3:hr>
            <ns3:cad>77</ns3:cad>
          </ns3:TrackPointExtension>
        </extensions>
      </trkpt>
      <trkpt lat="52.10684998892247676849365234375" lon="1.417187713086605072021484375">
        <ele>2.7999999523162841796875</ele>
        <time>2025-09-06T08:05:18.000Z</time>
        <extensions>
          <ns3:TrackPointExtension>
            <ns3:hr>142</ns3:hr>
            <ns3:cad>77</ns3:cad>
          </ns3:TrackPointExtension>
        </extensions>
      </trkpt>
      <trkpt lat="52.106904052197933197021484375" lon="1.41720087267458438873291015625">
        <ele>2.7999999523162841796875</ele>
        <time>2025-09-06T08:05:20.000Z</time>
        <extensions>
          <ns3:TrackPointExtension>
            <ns3:hr>143</ns3:hr>
            <ns3:cad>78</ns3:cad>
          </ns3:TrackPointExtension>
        </extensions>
      </trkpt>
      <trkpt lat="52.1070799045264720916748046875" lon="1.417262144386768341064453125">
        <ele>2.2000000476837158203125</ele>
        <time>2025-09-06T08:05:28.000Z</time>
        <extensions>
          <ns3:TrackPointExtension>
            <ns3:hr>144</ns3:hr>
            <ns3:cad>77</ns3:cad>
          </ns3:TrackPointExtension>
        </extensions>
      </trkpt>
      <trkpt lat="52.10709951817989349365234375" lon="1.4172696880996227264404296875">
        <ele>2.2000000476837158203125</ele>
        <time>2025-09-06T08:05:29.000Z</time>
        <extensions>
          <ns3:TrackPointExtension>
            <ns3:hr>144</ns3:hr>
            <ns3:cad>77</ns3:cad>
          </ns3:TrackPointExtension>
        </extensions>
      </trkpt>
      <trkpt lat="52.10721292532980442047119140625" lon="1.417340599000453948974609375">
        <ele>1.2000000476837158203125</ele>
        <time>2025-09-06T08:05:37.000Z</time>
        <extensions>
          <ns3:TrackPointExtension>
            <ns3:hr>145</ns3:hr>
            <ns3:cad>79</ns3:cad>
          </ns3:TrackPointExtension>
        </extensions>
      </trkpt>
      <trkpt lat="52.10724972188472747802734375" lon="1.41736247576773166656494140625">
        <ele>1.2000000476837158203125</ele>
        <time>2025-09-06T08:05:39.000Z</time>
        <extensions>
          <ns3:TrackPointExtension>
            <ns3:hr>144</ns3:hr>
            <ns3:cad>79</ns3:cad>
          </ns3:TrackPointExtension>
        </extensions>
      </trkpt>
      <trkpt lat="52.10741409100592136383056640625" lon="1.41751728951930999755859375">
        <ele>0.4000000059604644775390625</ele>
        <time>2025-09-06T08:05:47.000Z</time>
        <extensions>
          <ns3:TrackPointExtension>
            <ns3:hr>147</ns3:hr>
            <ns3:cad>80</ns3:cad>
          </ns3:TrackPointExtension>
        </extensions>
      </trkpt>
      <trkpt lat="52.1074376441538333892822265625" lon="1.4175622165203094482421875">
        <ele>0.20000000298023223876953125</ele>
        <time>2025-09-06T08:05:49.000Z</time>
        <extensions>
          <ns3:TrackPointExtension>
            <ns3:hr>145</ns3:hr>
            <ns3:cad>80</ns3:cad>
          </ns3:TrackPointExtension>
        </extensions>
      </trkpt>
      <trkpt lat="52.107498832046985626220703125" lon="1.41767109744250774383544921875">
        <ele>-0.20000000298023223876953125</ele>
        <time>2025-09-06T08:05:54.000Z</time>
        <extensions>
          <ns3:TrackPointExtension>
            <ns3:hr>142</ns3:hr>
            <ns3:cad>80</ns3:cad>
          </ns3:TrackPointExtension>
        </extensions>
      </trkpt>
      <trkpt lat="52.1075925417244434356689453125" lon="1.4178047887980937957763671875">
        <ele>-1</ele>
        <time>2025-09-06T08:06:02.000Z</time>
        <extensions>
          <ns3:TrackPointExtension>
            <ns3:hr>143</ns3:hr>
            <ns3:cad>79</ns3:cad>
          </ns3:TrackPointExtension>
        </extensions>
      </trkpt>
      <trkpt lat="52.10771986283361911773681640625" lon="1.41788617707788944244384765625">
        <ele>-1.39999997615814208984375</ele>
        <time>2025-09-06T08:06:10.000Z</time>
        <extensions>
          <ns3:TrackPointExtension>
            <ns3:hr>143</ns3:hr>
            <ns3:cad>80</ns3:cad>
          </ns3:TrackPointExtension>
        </extensions>
      </trkpt>
      <trkpt lat="52.10778071545064449310302734375" lon="1.41790310852229595184326171875">
        <ele>-1.7999999523162841796875</ele>
        <time>2025-09-06T08:06:17.000Z</time>
        <extensions>
          <ns3:TrackPointExtension>
            <ns3:hr>145</ns3:hr>
            <ns3:cad>57</ns3:cad>
          </ns3:TrackPointExtension>
        </extensions>
      </trkpt>
      <trkpt lat="52.10779630579054355621337890625" lon="1.4178912900388240814208984375">
        <ele>-1.7999999523162841796875</ele>
        <time>2025-09-06T08:06:21.000Z</time>
        <extensions>
          <ns3:TrackPointExtension>
            <ns3:hr>142</ns3:hr>
            <ns3:cad>0</ns3:cad>
          </ns3:TrackPointExtension>
        </extensions>
      </trkpt>
      <trkpt lat="52.10780083201825618743896484375" lon="1.41788466833531856536865234375">
        <ele>-2</ele>
        <time>2025-09-06T08:06:22.000Z</time>
        <extensions>
          <ns3:TrackPointExtension>
            <ns3:hr>142</ns3:hr>
            <ns3:cad>0</ns3:cad>
          </ns3:TrackPointExtension>
        </extensions>
      </trkpt>
      <trkpt lat="52.10782564245164394378662109375" lon="1.417925320565700531005859375">
        <ele>-2.2000000476837158203125</ele>
        <time>2025-09-06T08:06:26.000Z</time>
        <extensions>
          <ns3:TrackPointExtension>
            <ns3:hr>141</ns3:hr>
            <ns3:cad>0</ns3:cad>
          </ns3:TrackPointExtension>
        </extensions>
      </trkpt>
      <trkpt lat="52.10787140764296054840087890625" lon="1.4180143363773822784423828125">
        <ele>-2.400000095367431640625</ele>
        <time>2025-09-06T08:06:31.000Z</time>
        <extensions>
          <ns3:TrackPointExtension>
            <ns3:hr>142</ns3:hr>
            <ns3:cad>77</ns3:cad>
          </ns3:TrackPointExtension>
        </extensions>
      </trkpt>
      <trkpt lat="52.10789621807634830474853515625" lon="1.41804459504783153533935546875">
        <ele>-2.7999999523162841796875</ele>
        <time>2025-09-06T08:06:33.000Z</time>
        <extensions>
          <ns3:TrackPointExtension>
            <ns3:hr>143</ns3:hr>
            <ns3:cad>78</ns3:cad>
          </ns3:TrackPointExtension>
        </extensions>
      </trkpt>
      <trkpt lat="52.1079429052770137786865234375" lon="1.4180906116962432861328125">
        <ele>-3</ele>
        <time>2025-09-06T08:06:36.000Z</time>
        <extensions>
          <ns3:TrackPointExtension>
            <ns3:hr>145</ns3:hr>
            <ns3:cad>79</ns3:cad>
          </ns3:TrackPointExtension>
        </extensions>
      </trkpt>
      <trkpt lat="52.10804206319153308868408203125" lon="1.41820066608488559722900390625">
        <ele>-3.2000000476837158203125</ele>
        <time>2025-09-06T08:06:40.000Z</time>
        <extensions>
          <ns3:TrackPointExtension>
            <ns3:hr>149</ns3:hr>
            <ns3:cad>79</ns3:cad>
          </ns3:TrackPointExtension>
        </extensions>
      </trkpt>
      <trkpt lat="52.10818044841289520263671875" lon="1.4183965511620044708251953125">
        <ele>-3.599999904632568359375</ele>
        <time>2025-09-06T08:06:47.000Z</time>
        <extensions>
          <ns3:TrackPointExtension>
            <ns3:hr>150</ns3:hr>
            <ns3:cad>80</ns3:cad>
          </ns3:TrackPointExtension>
        </extensions>
      </trkpt>
      <trkpt lat="52.10820182226598262786865234375" lon="1.41843569464981555938720703125">
        <ele>-3.7999999523162841796875</ele>
        <time>2025-09-06T08:06:48.000Z</time>
        <extensions>
          <ns3:TrackPointExtension>
            <ns3:hr>147</ns3:hr>
            <ns3:cad>80</ns3:cad>
          </ns3:TrackPointExtension>
        </extensions>
      </trkpt>
      <trkpt lat="52.10823417641222476959228515625" lon="1.4185098744928836822509765625">
        <ele>-4</ele>
        <time>2025-09-06T08:06:50.000Z</time>
        <extensions>
          <ns3:TrackPointExtension>
            <ns3:hr>147</ns3:hr>
            <ns3:cad>80</ns3:cad>
          </ns3:TrackPointExtension>
        </extensions>
      </trkpt>
      <trkpt lat="52.10830810479819774627685546875" lon="1.41870492137968540191650390625">
        <ele>-4.80000019073486328125</ele>
        <time>2025-09-06T08:06:56.000Z</time>
        <extensions>
          <ns3:TrackPointExtension>
            <ns3:hr>148</ns3:hr>
            <ns3:cad>79</ns3:cad>
          </ns3:TrackPointExtension>
        </extensions>
      </trkpt>
      <trkpt lat="52.1083479188382625579833984375" lon="1.41877164132893085479736328125">
        <ele>-5</ele>
        <time>2025-09-06T08:06:58.000Z</time>
        <extensions>
          <ns3:TrackPointExtension>
            <ns3:hr>148</ns3:hr>
            <ns3:cad>79</ns3:cad>
          </ns3:TrackPointExtension>
        </extensions>
      </trkpt>
      <trkpt lat="52.10852033458650112152099609375" lon="1.41899610869586467742919921875">
        <ele>-5.19999980926513671875</ele>
        <time>2025-09-06T08:07:04.000Z</time>
        <extensions>
          <ns3:TrackPointExtension>
            <ns3:hr>146</ns3:hr>
            <ns3:cad>79</ns3:cad>
          </ns3:TrackPointExtension>
        </extensions>
      </trkpt>
      <trkpt lat="52.1086630783975124359130859375" lon="1.4191740565001964569091796875">
        <ele>-5.19999980926513671875</ele>
        <time>2025-09-06T08:07:08.000Z</time>
        <extensions>
          <ns3:TrackPointExtension>
            <ns3:hr>149</ns3:hr>
            <ns3:cad>80</ns3:cad>
          </ns3:TrackPointExtension>
        </extensions>
      </trkpt>
      <trkpt lat="52.10869652219116687774658203125" lon="1.419252343475818634033203125">
        <ele>-5.19999980926513671875</ele>
        <time>2025-09-06T08:07:10.000Z</time>
        <extensions>
          <ns3:TrackPointExtension>
            <ns3:hr>147</ns3:hr>
            <ns3:cad>79</ns3:cad>
          </ns3:TrackPointExtension>
        </extensions>
      </trkpt>
      <trkpt lat="52.10877749137580394744873046875" lon="1.4194670878350734710693359375">
        <ele>-5.400000095367431640625</ele>
        <time>2025-09-06T08:07:15.000Z</time>
        <extensions>
          <ns3:TrackPointExtension>
            <ns3:hr>146</ns3:hr>
            <ns3:cad>79</ns3:cad>
          </ns3:TrackPointExtension>
        </extensions>
      </trkpt>
      <trkpt lat="52.1088206581771373748779296875" lon="1.4196863584220409393310546875">
        <ele>-5.599999904632568359375</ele>
        <time>2025-09-06T08:07:21.000Z</time>
        <extensions>
          <ns3:TrackPointExtension>
            <ns3:hr>148</ns3:hr>
            <ns3:cad>79</ns3:cad>
          </ns3:TrackPointExtension>
        </extensions>
      </trkpt>
      <trkpt lat="52.108845300972461700439453125" lon="1.41982088796794414520263671875">
        <ele>-5.80000019073486328125</ele>
        <time>2025-09-06T08:07:25.000Z</time>
        <extensions>
          <ns3:TrackPointExtension>
            <ns3:hr>145</ns3:hr>
            <ns3:cad>80</ns3:cad>
          </ns3:TrackPointExtension>
        </extensions>
      </trkpt>
      <trkpt lat="52.1088525094091892242431640625" lon="1.41985625959932804107666015625">
        <ele>-5.80000019073486328125</ele>
        <time>2025-09-06T08:07:26.000Z</time>
        <extensions>
          <ns3:TrackPointExtension>
            <ns3:hr>145</ns3:hr>
            <ns3:cad>80</ns3:cad>
          </ns3:TrackPointExtension>
        </extensions>
      </trkpt>
      <trkpt lat="52.10889634676277637481689453125" lon="1.41998986713588237762451171875">
        <ele>-6</ele>
        <time>2025-09-06T08:07:30.000Z</time>
        <extensions>
          <ns3:TrackPointExtension>
            <ns3:hr>146</ns3:hr>
            <ns3:cad>80</ns3:cad>
          </ns3:TrackPointExtension>
        </extensions>
      </trkpt>
      <trkpt lat="52.10899491794407367706298828125" lon="1.42016253434121608734130859375">
        <ele>-7.19999980926513671875</ele>
        <time>2025-09-06T08:07:36.000Z</time>
        <extensions>
          <ns3:TrackPointExtension>
            <ns3:hr>147</ns3:hr>
            <ns3:cad>80</ns3:cad>
          </ns3:TrackPointExtension>
        </extensions>
      </trkpt>
      <trkpt lat="52.10903397761285305023193359375" lon="1.42018876969814300537109375">
        <ele>-7.19999980926513671875</ele>
        <time>2025-09-06T08:07:37.000Z</time>
        <extensions>
          <ns3:TrackPointExtension>
            <ns3:hr>146</ns3:hr>
            <ns3:cad>80</ns3:cad>
          </ns3:TrackPointExtension>
        </extensions>
      </trkpt>
      <trkpt lat="52.10915274918079376220703125" lon="1.42029848881065845489501953125">
        <ele>-8.19999980926513671875</ele>
        <time>2025-09-06T08:07:43.000Z</time>
        <extensions>
          <ns3:TrackPointExtension>
            <ns3:hr>146</ns3:hr>
            <ns3:cad>79</ns3:cad>
          </ns3:TrackPointExtension>
        </extensions>
      </trkpt>
      <trkpt lat="52.1092364005744457244873046875" lon="1.42034878022968769073486328125">
        <ele>-9.19999980926513671875</ele>
        <time>2025-09-06T08:07:49.000Z</time>
        <extensions>
          <ns3:TrackPointExtension>
            <ns3:hr>147</ns3:hr>
            <ns3:cad>79</ns3:cad>
          </ns3:TrackPointExtension>
        </extensions>
      </trkpt>
      <trkpt lat="52.109248302876949310302734375" lon="1.4203455112874507904052734375">
        <ele>-9.6000003814697265625</ele>
        <time>2025-09-06T08:07:51.000Z</time>
        <extensions>
          <ns3:TrackPointExtension>
            <ns3:hr>145</ns3:hr>
            <ns3:cad>79</ns3:cad>
          </ns3:TrackPointExtension>
        </extensions>
      </trkpt>
      <trkpt lat="52.10924603976309299468994140625" lon="1.42035917378962039947509765625">
        <ele>-9.80000019073486328125</ele>
        <time>2025-09-06T08:07:57.000Z</time>
        <extensions>
          <ns3:TrackPointExtension>
            <ns3:hr>142</ns3:hr>
            <ns3:cad>0</ns3:cad>
          </ns3:TrackPointExtension>
        </extensions>
      </trkpt>
      <trkpt lat="52.109245620667934417724609375" lon="1.42035984434187412261962890625">
        <ele>-9.80000019073486328125</ele>
        <time>2025-09-06T08:08:01.000Z</time>
        <extensions>
          <ns3:TrackPointExtension>
            <ns3:hr>136</ns3:hr>
            <ns3:cad>0</ns3:cad>
          </ns3:TrackPointExtension>
        </extensions>
      </trkpt>
      <trkpt lat="52.10924528539180755615234375" lon="1.420359425246715545654296875">
        <ele>-9.80000019073486328125</ele>
        <time>2025-09-06T08:08:02.000Z</time>
        <extensions>
          <ns3:TrackPointExtension>
            <ns3:hr>132</ns3:hr>
            <ns3:cad>0</ns3:cad>
          </ns3:TrackPointExtension>
        </extensions>
      </trkpt>
      <trkpt lat="52.10924528539180755615234375" lon="1.42036017961800098419189453125">
        <ele>-10</ele>
        <time>2025-09-06T08:08:03.000Z</time>
        <extensions>
          <ns3:TrackPointExtension>
            <ns3:hr>127</ns3:hr>
            <ns3:cad>0</ns3:cad>
          </ns3:TrackPointExtension>
        </extensions>
      </trkpt>
      <trkpt lat="52.109246291220188140869140625" lon="1.420360095798969268798828125">
        <ele>-10</ele>
        <time>2025-09-06T08:08:04.000Z</time>
        <extensions>
          <ns3:TrackPointExtension>
            <ns3:hr>123</ns3:hr>
            <ns3:cad>0</ns3:cad>
          </ns3:TrackPointExtension>
        </extensions>
      </trkpt>
      <trkpt lat="52.1092491410672664642333984375" lon="1.42035850323736667633056640625">
        <ele>-10</ele>
        <time>2025-09-06T08:08:05.000Z</time>
        <extensions>
          <ns3:TrackPointExtension>
            <ns3:hr>120</ns3:hr>
            <ns3:cad>0</ns3:cad>
          </ns3:TrackPointExtension>
        </extensions>
      </trkpt>
      <trkpt lat="52.10925391875207424163818359375" lon="1.42035506665706634521484375">
        <ele>-10</ele>
        <time>2025-09-06T08:08:07.000Z</time>
        <extensions>
          <ns3:TrackPointExtension>
            <ns3:hr>114</ns3:hr>
            <ns3:cad>0</ns3:cad>
          </ns3:TrackPointExtension>
        </extensions>
      </trkpt>
      <trkpt lat="52.10925676859915256500244140625" lon="1.4203528873622417449951171875">
        <ele>-10</ele>
        <time>2025-09-06T08:08:08.000Z</time>
        <extensions>
          <ns3:TrackPointExtension>
            <ns3:hr>114</ns3:hr>
            <ns3:cad>0</ns3:cad>
          </ns3:TrackPointExtension>
        </extensions>
      </trkpt>
      <trkpt lat="52.109265737235546112060546875" lon="1.420347355306148529052734375">
        <ele>-10</ele>
        <time>2025-09-06T08:08:13.000Z</time>
        <extensions>
          <ns3:TrackPointExtension>
            <ns3:hr>111</ns3:hr>
            <ns3:cad>0</ns3:cad>
          </ns3:TrackPointExtension>
        </extensions>
      </trkpt>
      <trkpt lat="52.1092779748141765594482421875" lon="1.4203465171158313751220703125">
        <ele>-10.19999980926513671875</ele>
        <time>2025-09-06T08:08:15.000Z</time>
        <extensions>
          <ns3:TrackPointExtension>
            <ns3:hr>109</ns3:hr>
            <ns3:cad>0</ns3:cad>
          </ns3:TrackPointExtension>
        </extensions>
      </trkpt>
      <trkpt lat="52.10931301116943359375" lon="1.4203716628253459930419921875">
        <ele>-10.19999980926513671875</ele>
        <time>2025-09-06T08:08:18.000Z</time>
        <extensions>
          <ns3:TrackPointExtension>
            <ns3:hr>109</ns3:hr>
            <ns3:cad>72</ns3:cad>
          </ns3:TrackPointExtension>
        </extensions>
      </trkpt>
      <trkpt lat="52.10934712551534175872802734375" lon="1.42038029618561267852783203125">
        <ele>-10.3999996185302734375</ele>
        <time>2025-09-06T08:08:20.000Z</time>
        <extensions>
          <ns3:TrackPointExtension>
            <ns3:hr>108</ns3:hr>
            <ns3:cad>75</ns3:cad>
          </ns3:TrackPointExtension>
        </extensions>
      </trkpt>
      <trkpt lat="52.1093966625630855560302734375" lon="1.4203820563852787017822265625">
        <ele>-10.3999996185302734375</ele>
        <time>2025-09-06T08:08:24.000Z</time>
        <extensions>
          <ns3:TrackPointExtension>
            <ns3:hr>111</ns3:hr>
            <ns3:cad>79</ns3:cad>
          </ns3:TrackPointExtension>
        </extensions>
      </trkpt>
      <trkpt lat="52.109450139105319976806640625" lon="1.42038532532751560211181640625">
        <ele>-10.6000003814697265625</ele>
        <time>2025-09-06T08:08:27.000Z</time>
        <extensions>
          <ns3:TrackPointExtension>
            <ns3:hr>116</ns3:hr>
            <ns3:cad>79</ns3:cad>
          </ns3:TrackPointExtension>
        </extensions>
      </trkpt>
      <trkpt lat="52.10949414409697055816650390625" lon="1.42039638943970203399658203125">
        <ele>-10.80000019073486328125</ele>
        <time>2025-09-06T08:08:29.000Z</time>
        <extensions>
          <ns3:TrackPointExtension>
            <ns3:hr>121</ns3:hr>
            <ns3:cad>79</ns3:cad>
          </ns3:TrackPointExtension>
        </extensions>
      </trkpt>
      <trkpt lat="52.10956287570297718048095703125" lon="1.42041650600731372833251953125">
        <ele>-10.80000019073486328125</ele>
        <time>2025-09-06T08:08:32.000Z</time>
        <extensions>
          <ns3:TrackPointExtension>
            <ns3:hr>124</ns3:hr>
            <ns3:cad>79</ns3:cad>
          </ns3:TrackPointExtension>
        </extensions>
      </trkpt>
      <trkpt lat="52.10967251099646091461181640625" lon="1.42045975662767887115478515625">
        <ele>-10.80000019073486328125</ele>
        <time>2025-09-06T08:08:37.000Z</time>
        <extensions>
          <ns3:TrackPointExtension>
            <ns3:hr>127</ns3:hr>
            <ns3:cad>79</ns3:cad>
          </ns3:TrackPointExtension>
        </extensions>
      </trkpt>
      <trkpt lat="52.1097999997437000274658203125" lon="1.42048859037458896636962890625">
        <ele>-10.80000019073486328125</ele>
        <time>2025-09-06T08:08:45.000Z</time>
        <extensions>
          <ns3:TrackPointExtension>
            <ns3:hr>127</ns3:hr>
            <ns3:cad>78</ns3:cad>
          </ns3:TrackPointExtension>
        </extensions>
      </trkpt>
      <trkpt lat="52.1099304221570491790771484375" lon="1.42049160785973072052001953125">
        <ele>-10.6000003814697265625</ele>
        <time>2025-09-06T08:08:52.000Z</time>
        <extensions>
          <ns3:TrackPointExtension>
            <ns3:hr>130</ns3:hr>
            <ns3:cad>77</ns3:cad>
          </ns3:TrackPointExtension>
        </extensions>
      </trkpt>
      <trkpt lat="52.1099589206278324127197265625" lon="1.42049646936357021331787109375">
        <ele>-10.6000003814697265625</ele>
        <time>2025-09-06T08:08:53.000Z</time>
        <extensions>
          <ns3:TrackPointExtension>
            <ns3:hr>130</ns3:hr>
            <ns3:cad>77</ns3:cad>
          </ns3:TrackPointExtension>
        </extensions>
      </trkpt>
      <trkpt lat="52.1100648678839206695556640625" lon="1.42051331698894500732421875">
        <ele>-10.6000003814697265625</ele>
        <time>2025-09-06T08:08:56.000Z</time>
        <extensions>
          <ns3:TrackPointExtension>
            <ns3:hr>133</ns3:hr>
            <ns3:cad>78</ns3:cad>
          </ns3:TrackPointExtension>
        </extensions>
      </trkpt>
      <trkpt lat="52.11011222563683986663818359375" lon="1.42052806913852691650390625">
        <ele>-10.3999996185302734375</ele>
        <time>2025-09-06T08:08:59.000Z</time>
        <extensions>
          <ns3:TrackPointExtension>
            <ns3:hr>134</ns3:hr>
            <ns3:cad>75</ns3:cad>
          </ns3:TrackPointExtension>
        </extensions>
      </trkpt>
      <trkpt lat="52.110160253942012786865234375" lon="1.42054013907909393310546875">
        <ele>-10</ele>
        <time>2025-09-06T08:09:02.000Z</time>
        <extensions>
          <ns3:TrackPointExtension>
            <ns3:hr>139</ns3:hr>
            <ns3:cad>75</ns3:cad>
          </ns3:TrackPointExtension>
        </extensions>
      </trkpt>
      <trkpt lat="52.1102311648428440093994140625" lon="1.42053879797458648681640625">
        <ele>-9.3999996185302734375</ele>
        <time>2025-09-06T08:09:06.000Z</time>
        <extensions>
          <ns3:TrackPointExtension>
            <ns3:hr>138</ns3:hr>
            <ns3:cad>0</ns3:cad>
          </ns3:TrackPointExtension>
        </extensions>
      </trkpt>
      <trkpt lat="52.11024616844952106475830078125" lon="1.42053988762199878692626953125">
        <ele>-9.19999980926513671875</ele>
        <time>2025-09-06T08:09:07.000Z</time>
        <extensions>
          <ns3:TrackPointExtension>
            <ns3:hr>140</ns3:hr>
            <ns3:cad>0</ns3:cad>
          </ns3:TrackPointExtension>
        </extensions>
      </trkpt>
      <trkpt lat="52.1103926002979278564453125" lon="1.420554220676422119140625">
        <ele>-8.3999996185302734375</ele>
        <time>2025-09-06T08:09:16.000Z</time>
        <extensions>
          <ns3:TrackPointExtension>
            <ns3:hr>143</ns3:hr>
            <ns3:cad>78</ns3:cad>
          </ns3:TrackPointExtension>
        </extensions>
      </trkpt>
      <trkpt lat="52.110405676066875457763671875" lon="1.42055246047675609588623046875">
        <ele>-8.19999980926513671875</ele>
        <time>2025-09-06T08:09:17.000Z</time>
        <extensions>
          <ns3:TrackPointExtension>
            <ns3:hr>142</ns3:hr>
            <ns3:cad>78</ns3:cad>
          </ns3:TrackPointExtension>
        </extensions>
      </trkpt>
      <trkpt lat="52.11047776043415069580078125" lon="1.420559920370578765869140625">
        <ele>-7.400000095367431640625</ele>
        <time>2025-09-06T08:09:22.000Z</time>
        <extensions>
          <ns3:TrackPointExtension>
            <ns3:hr>145</ns3:hr>
            <ns3:cad>77</ns3:cad>
          </ns3:TrackPointExtension>
        </extensions>
      </trkpt>
      <trkpt lat="52.1104973740875720977783203125" lon="1.42057626508176326751708984375">
        <ele>-7.19999980926513671875</ele>
        <time>2025-09-06T08:09:23.000Z</time>
        <extensions>
          <ns3:TrackPointExtension>
            <ns3:hr>144</ns3:hr>
            <ns3:cad>76</ns3:cad>
          </ns3:TrackPointExtension>
        </extensions>
      </trkpt>
      <trkpt lat="52.11055529303848743438720703125" lon="1.42060392536222934722900390625">
        <ele>-6</ele>
        <time>2025-09-06T08:09:27.000Z</time>
        <extensions>
          <ns3:TrackPointExtension>
            <ns3:hr>142</ns3:hr>
            <ns3:cad>75</ns3:cad>
          </ns3:TrackPointExtension>
        </extensions>
      </trkpt>
      <trkpt lat="52.1105723083019256591796875" lon="1.4206172525882720947265625">
        <ele>-6</ele>
        <time>2025-09-06T08:09:28.000Z</time>
        <extensions>
          <ns3:TrackPointExtension>
            <ns3:hr>141</ns3:hr>
            <ns3:cad>76</ns3:cad>
          </ns3:TrackPointExtension>
        </extensions>
      </trkpt>
      <trkpt lat="52.110636346042156219482421875" lon="1.4206506125628948211669921875">
        <ele>-5.400000095367431640625</ele>
        <time>2025-09-06T08:09:32.000Z</time>
        <extensions>
          <ns3:TrackPointExtension>
            <ns3:hr>144</ns3:hr>
            <ns3:cad>77</ns3:cad>
          </ns3:TrackPointExtension>
        </extensions>
      </trkpt>
      <trkpt lat="52.11069962941110134124755859375" lon="1.42062622122466564178466796875">
        <ele>-5</ele>
        <time>2025-09-06T08:09:37.000Z</time>
        <extensions>
          <ns3:TrackPointExtension>
            <ns3:hr>144</ns3:hr>
            <ns3:cad>77</ns3:cad>
          </ns3:TrackPointExtension>
        </extensions>
      </trkpt>
      <trkpt lat="52.11079501546919345855712890625" lon="1.420574001967906951904296875">
        <ele>-4</ele>
        <time>2025-09-06T08:09:42.000Z</time>
        <extensions>
          <ns3:TrackPointExtension>
            <ns3:hr>143</ns3:hr>
            <ns3:cad>76</ns3:cad>
          </ns3:TrackPointExtension>
        </extensions>
      </trkpt>
      <trkpt lat="52.11083181202411651611328125" lon="1.42054944299161434173583984375">
        <ele>-3.7999999523162841796875</ele>
        <time>2025-09-06T08:09:45.000Z</time>
        <extensions>
          <ns3:TrackPointExtension>
            <ns3:hr>143</ns3:hr>
            <ns3:cad>77</ns3:cad>
          </ns3:TrackPointExtension>
        </extensions>
      </trkpt>
      <trkpt lat="52.11096533574163913726806640625" lon="1.42057140357792377471923828125">
        <ele>-3</ele>
        <time>2025-09-06T08:09:52.000Z</time>
        <extensions>
          <ns3:TrackPointExtension>
            <ns3:hr>144</ns3:hr>
            <ns3:cad>77</ns3:cad>
          </ns3:TrackPointExtension>
        </extensions>
      </trkpt>
      <trkpt lat="52.1109764836728572845458984375" lon="1.42056696116924285888671875">
        <ele>-2.7999999523162841796875</ele>
        <time>2025-09-06T08:09:53.000Z</time>
        <extensions>
          <ns3:TrackPointExtension>
            <ns3:hr>142</ns3:hr>
            <ns3:cad>77</ns3:cad>
          </ns3:TrackPointExtension>
        </extensions>
      </trkpt>
      <trkpt lat="52.1110539324581623077392578125" lon="1.420488171279430389404296875">
        <ele>-2.599999904632568359375</ele>
        <time>2025-09-06T08:10:02.000Z</time>
        <extensions>
          <ns3:TrackPointExtension>
            <ns3:hr>142</ns3:hr>
            <ns3:cad>78</ns3:cad>
          </ns3:TrackPointExtension>
        </extensions>
      </trkpt>
      <trkpt lat="52.11111185140907764434814453125" lon="1.4204886741936206817626953125">
        <ele>-2.400000095367431640625</ele>
        <time>2025-09-06T08:10:05.000Z</time>
        <extensions>
          <ns3:TrackPointExtension>
            <ns3:hr>146</ns3:hr>
            <ns3:cad>79</ns3:cad>
          </ns3:TrackPointExtension>
        </extensions>
      </trkpt>
      <trkpt lat="52.1111984364688396453857421875" lon="1.420479118824005126953125">
        <ele>-2.2000000476837158203125</ele>
        <time>2025-09-06T08:10:09.000Z</time>
        <extensions>
          <ns3:TrackPointExtension>
            <ns3:hr>143</ns3:hr>
            <ns3:cad>77</ns3:cad>
          </ns3:TrackPointExtension>
        </extensions>
      </trkpt>
      <trkpt lat="52.1112225763499736785888671875" lon="1.42048942856490612030029296875">
        <ele>-2.2000000476837158203125</ele>
        <time>2025-09-06T08:10:10.000Z</time>
        <extensions>
          <ns3:TrackPointExtension>
            <ns3:hr>142</ns3:hr>
            <ns3:cad>77</ns3:cad>
          </ns3:TrackPointExtension>
        </extensions>
      </trkpt>
      <trkpt lat="52.1113650687038898468017578125" lon="1.4205097965896129608154296875">
        <ele>-1.7999999523162841796875</ele>
        <time>2025-09-06T08:10:16.000Z</time>
        <extensions>
          <ns3:TrackPointExtension>
            <ns3:hr>143</ns3:hr>
            <ns3:cad>78</ns3:cad>
          </ns3:TrackPointExtension>
        </extensions>
      </trkpt>
      <trkpt lat="52.1113794855773448944091796875" lon="1.420509628951549530029296875">
        <ele>-1.7999999523162841796875</ele>
        <time>2025-09-06T08:10:17.000Z</time>
        <extensions>
          <ns3:TrackPointExtension>
            <ns3:hr>144</ns3:hr>
            <ns3:cad>78</ns3:cad>
          </ns3:TrackPointExtension>
        </extensions>
      </trkpt>
      <trkpt lat="52.1114733628928661346435546875" lon="1.42054759897291660308837890625">
        <ele>-1.39999997615814208984375</ele>
        <time>2025-09-06T08:10:24.000Z</time>
        <extensions>
          <ns3:TrackPointExtension>
            <ns3:hr>148</ns3:hr>
            <ns3:cad>78</ns3:cad>
          </ns3:TrackPointExtension>
        </extensions>
      </trkpt>
      <trkpt lat="52.111505381762981414794921875" lon="1.4205701462924480438232421875">
        <ele>-1.39999997615814208984375</ele>
        <time>2025-09-06T08:10:25.000Z</time>
        <extensions>
          <ns3:TrackPointExtension>
            <ns3:hr>145</ns3:hr>
            <ns3:cad>78</ns3:cad>
          </ns3:TrackPointExtension>
        </extensions>
      </trkpt>
      <trkpt lat="52.111556343734264373779296875" lon="1.4205983094871044158935546875">
        <ele>-1.2000000476837158203125</ele>
        <time>2025-09-06T08:10:29.000Z</time>
        <extensions>
          <ns3:TrackPointExtension>
            <ns3:hr>148</ns3:hr>
            <ns3:cad>75</ns3:cad>
          </ns3:TrackPointExtension>
        </extensions>
      </trkpt>
      <trkpt lat="52.11158425547182559967041015625" lon="1.42062085680663585662841796875">
        <ele>-1.2000000476837158203125</ele>
        <time>2025-09-06T08:10:31.000Z</time>
        <extensions>
          <ns3:TrackPointExtension>
            <ns3:hr>147</ns3:hr>
            <ns3:cad>74</ns3:cad>
          </ns3:TrackPointExtension>
        </extensions>
      </trkpt>
      <trkpt lat="52.11177854798734188079833984375" lon="1.42067383043467998504638671875">
        <ele>-0.800000011920928955078125</ele>
        <time>2025-09-06T08:10:40.000Z</time>
        <extensions>
          <ns3:TrackPointExtension>
            <ns3:hr>147</ns3:hr>
            <ns3:cad>78</ns3:cad>
          </ns3:TrackPointExtension>
        </extensions>
      </trkpt>
      <trkpt lat="52.11180939339101314544677734375" lon="1.4206878282129764556884765625">
        <ele>-0.800000011920928955078125</ele>
        <time>2025-09-06T08:10:41.000Z</time>
        <extensions>
          <ns3:TrackPointExtension>
            <ns3:hr>148</ns3:hr>
            <ns3:cad>77</ns3:cad>
          </ns3:TrackPointExtension>
        </extensions>
      </trkpt>
      <trkpt lat="52.11185448803007602691650390625" lon="1.42070534639060497283935546875">
        <ele>-0.800000011920928955078125</ele>
        <time>2025-09-06T08:10:43.000Z</time>
        <extensions>
          <ns3:TrackPointExtension>
            <ns3:hr>149</ns3:hr>
            <ns3:cad>78</ns3:cad>
          </ns3:TrackPointExtension>
        </extensions>
      </trkpt>
      <trkpt lat="52.1119715832173824310302734375" lon="1.42073702998459339141845703125">
        <ele>-0.60000002384185791015625</ele>
        <time>2025-09-06T08:10:49.000Z</time>
        <extensions>
          <ns3:TrackPointExtension>
            <ns3:hr>149</ns3:hr>
            <ns3:cad>78</ns3:cad>
          </ns3:TrackPointExtension>
        </extensions>
      </trkpt>
      <trkpt lat="52.1121164225041866302490234375" lon="1.42079704441130161285400390625">
        <ele>-0.20000000298023223876953125</ele>
        <time>2025-09-06T08:10:56.000Z</time>
        <extensions>
          <ns3:TrackPointExtension>
            <ns3:hr>149</ns3:hr>
            <ns3:cad>79</ns3:cad>
          </ns3:TrackPointExtension>
        </extensions>
      </trkpt>
      <trkpt lat="52.112233936786651611328125" lon="1.42080911435186862945556640625">
        <ele>-0.20000000298023223876953125</ele>
        <time>2025-09-06T08:11:02.000Z</time>
        <extensions>
          <ns3:TrackPointExtension>
            <ns3:hr>151</ns3:hr>
            <ns3:cad>78</ns3:cad>
          </ns3:TrackPointExtension>
        </extensions>
      </trkpt>
      <trkpt lat="52.1122808754444122314453125" lon="1.42076133750379085540771484375">
        <ele>-0.20000000298023223876953125</ele>
        <time>2025-09-06T08:11:06.000Z</time>
        <extensions>
          <ns3:TrackPointExtension>
            <ns3:hr>154</ns3:hr>
            <ns3:cad>79</ns3:cad>
          </ns3:TrackPointExtension>
        </extensions>
      </trkpt>
      <trkpt lat="52.112314403057098388671875" lon="1.42074725590646266937255859375">
        <ele>-0.20000000298023223876953125</ele>
        <time>2025-09-06T08:11:08.000Z</time>
        <extensions>
          <ns3:TrackPointExtension>
            <ns3:hr>157</ns3:hr>
            <ns3:cad>79</ns3:cad>
          </ns3:TrackPointExtension>
        </extensions>
      </trkpt>
      <trkpt lat="52.1123372018337249755859375" lon="1.42074675299227237701416015625">
        <ele>-0.20000000298023223876953125</ele>
        <time>2025-09-06T08:11:09.000Z</time>
        <extensions>
          <ns3:TrackPointExtension>
            <ns3:hr>160</ns3:hr>
            <ns3:cad>79</ns3:cad>
          </ns3:TrackPointExtension>
        </extensions>
      </trkpt>
      <trkpt lat="52.11240769363939762115478515625" lon="1.42071959562599658966064453125">
        <ele>-0.20000000298023223876953125</ele>
        <time>2025-09-06T08:11:12.000Z</time>
        <extensions>
          <ns3:TrackPointExtension>
            <ns3:hr>158</ns3:hr>
            <ns3:cad>79</ns3:cad>
          </ns3:TrackPointExtension>
        </extensions>
      </trkpt>
      <trkpt lat="52.112580947577953338623046875" lon="1.4207069389522075653076171875">
        <ele>-0.20000000298023223876953125</ele>
        <time>2025-09-06T08:11:20.000Z</time>
        <extensions>
          <ns3:TrackPointExtension>
            <ns3:hr>155</ns3:hr>
            <ns3:cad>78</ns3:cad>
          </ns3:TrackPointExtension>
        </extensions>
      </trkpt>
      <trkpt lat="52.11260315962135791778564453125" lon="1.4207126386463642120361328125">
        <ele>-0.4000000059604644775390625</ele>
        <time>2025-09-06T08:11:21.000Z</time>
        <extensions>
          <ns3:TrackPointExtension>
            <ns3:hr>154</ns3:hr>
            <ns3:cad>78</ns3:cad>
          </ns3:TrackPointExtension>
        </extensions>
      </trkpt>
      <trkpt lat="52.1127819456160068511962890625" lon="1.42073200084269046783447265625">
        <ele>-0.60000002384185791015625</ele>
        <time>2025-09-06T08:11:29.000Z</time>
        <extensions>
          <ns3:TrackPointExtension>
            <ns3:hr>151</ns3:hr>
            <ns3:cad>79</ns3:cad>
          </ns3:TrackPointExtension>
        </extensions>
      </trkpt>
      <trkpt lat="52.11282326839864253997802734375" lon="1.420731581747531890869140625">
        <ele>-0.60000002384185791015625</ele>
        <time>2025-09-06T08:11:31.000Z</time>
        <extensions>
          <ns3:TrackPointExtension>
            <ns3:hr>149</ns3:hr>
            <ns3:cad>79</ns3:cad>
          </ns3:TrackPointExtension>
        </extensions>
      </trkpt>
      <trkpt lat="52.1129683591425418853759765625" lon="1.4207875728607177734375">
        <ele>-0.60000002384185791015625</ele>
        <time>2025-09-06T08:11:37.000Z</time>
        <extensions>
          <ns3:TrackPointExtension>
            <ns3:hr>148</ns3:hr>
            <ns3:cad>72</ns3:cad>
          </ns3:TrackPointExtension>
        </extensions>
      </trkpt>
      <trkpt lat="52.11308310739696025848388671875" lon="1.42090718261897563934326171875">
        <ele>-0.60000002384185791015625</ele>
        <time>2025-09-06T08:11:43.000Z</time>
        <extensions>
          <ns3:TrackPointExtension>
            <ns3:hr>144</ns3:hr>
            <ns3:cad>75</ns3:cad>
          </ns3:TrackPointExtension>
        </extensions>
      </trkpt>
      <trkpt lat="52.11314647458493709564208984375" lon="1.42097608186304569244384765625">
        <ele>-0.60000002384185791015625</ele>
        <time>2025-09-06T08:11:45.000Z</time>
        <extensions>
          <ns3:TrackPointExtension>
            <ns3:hr>145</ns3:hr>
            <ns3:cad>76</ns3:cad>
          </ns3:TrackPointExtension>
        </extensions>
      </trkpt>
      <trkpt lat="52.1133002825081348419189453125" lon="1.42121731303632259368896484375">
        <ele>-0.60000002384185791015625</ele>
        <time>2025-09-06T08:11:51.000Z</time>
        <extensions>
          <ns3:TrackPointExtension>
            <ns3:hr>144</ns3:hr>
            <ns3:cad>77</ns3:cad>
          </ns3:TrackPointExtension>
        </extensions>
      </trkpt>
      <trkpt lat="52.11333003826439380645751953125" lon="1.421250589191913604736328125">
        <ele>-0.60000002384185791015625</ele>
        <time>2025-09-06T08:11:52.000Z</time>
        <extensions>
          <ns3:TrackPointExtension>
            <ns3:hr>144</ns3:hr>
            <ns3:cad>77</ns3:cad>
          </ns3:TrackPointExtension>
        </extensions>
      </trkpt>
      <trkpt lat="52.11337513290345668792724609375" lon="1.4214388467371463775634765625">
        <ele>-0.60000002384185791015625</ele>
        <time>2025-09-06T08:11:58.000Z</time>
        <extensions>
          <ns3:TrackPointExtension>
            <ns3:hr>146</ns3:hr>
            <ns3:cad>77</ns3:cad>
          </ns3:TrackPointExtension>
        </extensions>
      </trkpt>
      <trkpt lat="52.11336943320930004119873046875" lon="1.4215801656246185302734375">
        <ele>-0.60000002384185791015625</ele>
        <time>2025-09-06T08:12:02.000Z</time>
        <extensions>
          <ns3:TrackPointExtension>
            <ns3:hr>149</ns3:hr>
            <ns3:cad>79</ns3:cad>
          </ns3:TrackPointExtension>
        </extensions>
      </trkpt>
      <trkpt lat="52.113347388803958892822265625" lon="1.4216721989214420318603515625">
        <ele>-0.60000002384185791015625</ele>
        <time>2025-09-06T08:12:05.000Z</time>
        <extensions>
          <ns3:TrackPointExtension>
            <ns3:hr>150</ns3:hr>
            <ns3:cad>79</ns3:cad>
          </ns3:TrackPointExtension>
        </extensions>
      </trkpt>
      <trkpt lat="52.1132865361869335174560546875" lon="1.421872861683368682861328125">
        <ele>-0.60000002384185791015625</ele>
        <time>2025-09-06T08:12:11.000Z</time>
        <extensions>
          <ns3:TrackPointExtension>
            <ns3:hr>151</ns3:hr>
            <ns3:cad>78</ns3:cad>
          </ns3:TrackPointExtension>
        </extensions>
      </trkpt>
      <trkpt lat="52.11322291754186153411865234375" lon="1.42201208509504795074462890625">
        <ele>-0.4000000059604644775390625</ele>
        <time>2025-09-06T08:12:16.000Z</time>
        <extensions>
          <ns3:TrackPointExtension>
            <ns3:hr>151</ns3:hr>
            <ns3:cad>79</ns3:cad>
          </ns3:TrackPointExtension>
        </extensions>
      </trkpt>
      <trkpt lat="52.11314898915588855743408203125" lon="1.4222210459411144256591796875">
        <ele>-0.60000002384185791015625</ele>
        <time>2025-09-06T08:12:23.000Z</time>
        <extensions>
          <ns3:TrackPointExtension>
            <ns3:hr>153</ns3:hr>
            <ns3:cad>79</ns3:cad>
          </ns3:TrackPointExtension>
        </extensions>
      </trkpt>
      <trkpt lat="52.1131068281829357147216796875" lon="1.42227192409336566925048828125">
        <ele>-0.4000000059604644775390625</ele>
        <time>2025-09-06T08:12:27.000Z</time>
        <extensions>
          <ns3:TrackPointExtension>
            <ns3:hr>151</ns3:hr>
            <ns3:cad>79</ns3:cad>
          </ns3:TrackPointExtension>
        </extensions>
      </trkpt>
      <trkpt lat="52.11306030862033367156982421875" lon="1.4223821461200714111328125">
        <ele>-0.4000000059604644775390625</ele>
        <time>2025-09-06T08:12:32.000Z</time>
        <extensions>
          <ns3:TrackPointExtension>
            <ns3:hr>153</ns3:hr>
            <ns3:cad>78</ns3:cad>
          </ns3:TrackPointExtension>
        </extensions>
      </trkpt>
      <trkpt lat="52.11303113959729671478271484375" lon="1.42247577197849750518798828125">
        <ele>-0.60000002384185791015625</ele>
        <time>2025-09-06T08:12:35.000Z</time>
        <extensions>
          <ns3:TrackPointExtension>
            <ns3:hr>150</ns3:hr>
            <ns3:cad>79</ns3:cad>
          </ns3:TrackPointExtension>
        </extensions>
      </trkpt>
      <trkpt lat="52.113002054393291473388671875" lon="1.42256897874176502227783203125">
        <ele>-0.60000002384185791015625</ele>
        <time>2025-09-06T08:12:38.000Z</time>
        <extensions>
          <ns3:TrackPointExtension>
            <ns3:hr>153</ns3:hr>
            <ns3:cad>79</ns3:cad>
          </ns3:TrackPointExtension>
        </extensions>
      </trkpt>
      <trkpt lat="52.11296190507709980010986328125" lon="1.42273259349167346954345703125">
        <ele>-0.800000011920928955078125</ele>
        <time>2025-09-06T08:12:43.000Z</time>
        <extensions>
          <ns3:TrackPointExtension>
            <ns3:hr>156</ns3:hr>
            <ns3:cad>80</ns3:cad>
          </ns3:TrackPointExtension>
        </extensions>
      </trkpt>
      <trkpt lat="52.112926281988620758056640625" lon="1.42283619381487369537353515625">
        <ele>-1</ele>
        <time>2025-09-06T08:12:46.000Z</time>
        <extensions>
          <ns3:TrackPointExtension>
            <ns3:hr>155</ns3:hr>
            <ns3:cad>80</ns3:cad>
          </ns3:TrackPointExtension>
        </extensions>
      </trkpt>
      <trkpt lat="52.11290742270648479461669921875" lon="1.4229019917547702789306640625">
        <ele>-1.2000000476837158203125</ele>
        <time>2025-09-06T08:12:48.000Z</time>
        <extensions>
          <ns3:TrackPointExtension>
            <ns3:hr>158</ns3:hr>
            <ns3:cad>81</ns3:cad>
          </ns3:TrackPointExtension>
        </extensions>
      </trkpt>
      <trkpt lat="52.1128506772220134735107421875" lon="1.42308614216744899749755859375">
        <ele>-1.39999997615814208984375</ele>
        <time>2025-09-06T08:12:54.000Z</time>
        <extensions>
          <ns3:TrackPointExtension>
            <ns3:hr>157</ns3:hr>
            <ns3:cad>80</ns3:cad>
          </ns3:TrackPointExtension>
        </extensions>
      </trkpt>
      <trkpt lat="52.11283450014889240264892578125" lon="1.42333709634840488433837890625">
        <ele>-1.60000002384185791015625</ele>
        <time>2025-09-06T08:13:01.000Z</time>
        <extensions>
          <ns3:TrackPointExtension>
            <ns3:hr>156</ns3:hr>
            <ns3:cad>79</ns3:cad>
          </ns3:TrackPointExtension>
        </extensions>
      </trkpt>
      <trkpt lat="52.11281840689480304718017578125" lon="1.42344488762319087982177734375">
        <ele>-1.7999999523162841796875</ele>
        <time>2025-09-06T08:13:04.000Z</time>
        <extensions>
          <ns3:TrackPointExtension>
            <ns3:hr>155</ns3:hr>
            <ns3:cad>80</ns3:cad>
          </ns3:TrackPointExtension>
        </extensions>
      </trkpt>
      <trkpt lat="52.112816311419010162353515625" lon="1.4235983602702617645263671875">
        <ele>-2</ele>
        <time>2025-09-06T08:13:08.000Z</time>
        <extensions>
          <ns3:TrackPointExtension>
            <ns3:hr>155</ns3:hr>
            <ns3:cad>78</ns3:cad>
          </ns3:TrackPointExtension>
        </extensions>
      </trkpt>
      <trkpt lat="52.11282276548445224761962890625" lon="1.42384839244186878204345703125">
        <ele>-2.599999904632568359375</ele>
        <time>2025-09-06T08:13:15.000Z</time>
        <extensions>
          <ns3:TrackPointExtension>
            <ns3:hr>156</ns3:hr>
            <ns3:cad>78</ns3:cad>
          </ns3:TrackPointExtension>
        </extensions>
      </trkpt>
      <trkpt lat="52.112806253135204315185546875" lon="1.42394444905221462249755859375">
        <ele>-2.7999999523162841796875</ele>
        <time>2025-09-06T08:13:18.000Z</time>
        <extensions>
          <ns3:TrackPointExtension>
            <ns3:hr>160</ns3:hr>
            <ns3:cad>79</ns3:cad>
          </ns3:TrackPointExtension>
        </extensions>
      </trkpt>
      <trkpt lat="52.1127851307392120361328125" lon="1.42408275045454502105712890625">
        <ele>-3.2000000476837158203125</ele>
        <time>2025-09-06T08:13:22.000Z</time>
        <extensions>
          <ns3:TrackPointExtension>
            <ns3:hr>159</ns3:hr>
            <ns3:cad>80</ns3:cad>
          </ns3:TrackPointExtension>
        </extensions>
      </trkpt>
      <trkpt lat="52.11273081600666046142578125" lon="1.4243181981146335601806640625">
        <ele>-3.400000095367431640625</ele>
        <time>2025-09-06T08:13:29.000Z</time>
        <extensions>
          <ns3:TrackPointExtension>
            <ns3:hr>160</ns3:hr>
            <ns3:cad>79</ns3:cad>
          </ns3:TrackPointExtension>
        </extensions>
      </trkpt>
      <trkpt lat="52.112692929804325103759765625" lon="1.42443831078708171844482421875">
        <ele>-3.7999999523162841796875</ele>
        <time>2025-09-06T08:13:33.000Z</time>
        <extensions>
          <ns3:TrackPointExtension>
            <ns3:hr>159</ns3:hr>
            <ns3:cad>79</ns3:cad>
          </ns3:TrackPointExtension>
        </extensions>
      </trkpt>
      <trkpt lat="52.1126662753522396087646484375" lon="1.4245347864925861358642578125">
        <ele>-4.19999980926513671875</ele>
        <time>2025-09-06T08:13:36.000Z</time>
        <extensions>
          <ns3:TrackPointExtension>
            <ns3:hr>158</ns3:hr>
            <ns3:cad>80</ns3:cad>
          </ns3:TrackPointExtension>
        </extensions>
      </trkpt>
      <trkpt lat="52.11262059397995471954345703125" lon="1.4246937073767185211181640625">
        <ele>-5.19999980926513671875</ele>
        <time>2025-09-06T08:13:41.000Z</time>
        <extensions>
          <ns3:TrackPointExtension>
            <ns3:hr>157</ns3:hr>
            <ns3:cad>79</ns3:cad>
          </ns3:TrackPointExtension>
        </extensions>
      </trkpt>
      <trkpt lat="52.1126076020300388336181640625" lon="1.4247902669012546539306640625">
        <ele>-5.599999904632568359375</ele>
        <time>2025-09-06T08:13:44.000Z</time>
        <extensions>
          <ns3:TrackPointExtension>
            <ns3:hr>158</ns3:hr>
            <ns3:cad>79</ns3:cad>
          </ns3:TrackPointExtension>
        </extensions>
      </trkpt>
      <trkpt lat="52.1125492639839649200439453125" lon="1.4250444062054157257080078125">
        <ele>-6.19999980926513671875</ele>
        <time>2025-09-06T08:13:52.000Z</time>
        <extensions>
          <ns3:TrackPointExtension>
            <ns3:hr>158</ns3:hr>
            <ns3:cad>80</ns3:cad>
          </ns3:TrackPointExtension>
        </extensions>
      </trkpt>
      <trkpt lat="52.11254264228045940399169921875" lon="1.425075419247150421142578125">
        <ele>-6.19999980926513671875</ele>
        <time>2025-09-06T08:13:53.000Z</time>
        <extensions>
          <ns3:TrackPointExtension>
            <ns3:hr>157</ns3:hr>
            <ns3:cad>79</ns3:cad>
          </ns3:TrackPointExtension>
        </extensions>
      </trkpt>
      <trkpt lat="52.11250551044940948486328125" lon="1.4252677001059055328369140625">
        <ele>-7</ele>
        <time>2025-09-06T08:13:59.000Z</time>
        <extensions>
          <ns3:TrackPointExtension>
            <ns3:hr>158</ns3:hr>
            <ns3:cad>80</ns3:cad>
          </ns3:TrackPointExtension>
        </extensions>
      </trkpt>
      <trkpt lat="52.11247240193188190460205078125" lon="1.4254023134708404541015625">
        <ele>-7.19999980926513671875</ele>
        <time>2025-09-06T08:14:03.000Z</time>
        <extensions>
          <ns3:TrackPointExtension>
            <ns3:hr>156</ns3:hr>
            <ns3:cad>79</ns3:cad>
          </ns3:TrackPointExtension>
        </extensions>
      </trkpt>
      <trkpt lat="52.11244021542370319366455078125" lon="1.42549543641507625579833984375">
        <ele>-7.599999904632568359375</ele>
        <time>2025-09-06T08:14:06.000Z</time>
        <extensions>
          <ns3:TrackPointExtension>
            <ns3:hr>156</ns3:hr>
            <ns3:cad>79</ns3:cad>
          </ns3:TrackPointExtension>
        </extensions>
      </trkpt>
      <trkpt lat="52.1123827993869781494140625" lon="1.425653435289859771728515625">
        <ele>-8.3999996185302734375</ele>
        <time>2025-09-06T08:14:11.000Z</time>
        <extensions>
          <ns3:TrackPointExtension>
            <ns3:hr>155</ns3:hr>
            <ns3:cad>78</ns3:cad>
          </ns3:TrackPointExtension>
        </extensions>
      </trkpt>
      <trkpt lat="52.11231641471385955810546875" lon="1.42578830011188983917236328125">
        <ele>-9.6000003814697265625</ele>
        <time>2025-09-06T08:14:16.000Z</time>
        <extensions>
          <ns3:TrackPointExtension>
            <ns3:hr>156</ns3:hr>
            <ns3:cad>78</ns3:cad>
          </ns3:TrackPointExtension>
        </extensions>
      </trkpt>
      <trkpt lat="52.11229470558464527130126953125" lon="1.42585518769919872283935546875">
        <ele>-10</ele>
        <time>2025-09-06T08:14:18.000Z</time>
        <extensions>
          <ns3:TrackPointExtension>
            <ns3:hr>154</ns3:hr>
            <ns3:cad>78</ns3:cad>
          </ns3:TrackPointExtension>
        </extensions>
      </trkpt>
      <trkpt lat="52.1122538857161998748779296875" lon="1.4259405992925167083740234375">
        <ele>-10.6000003814697265625</ele>
        <time>2025-09-06T08:14:21.000Z</time>
        <extensions>
          <ns3:TrackPointExtension>
            <ns3:hr>156</ns3:hr>
            <ns3:cad>79</ns3:cad>
          </ns3:TrackPointExtension>
        </extensions>
      </trkpt>
      <trkpt lat="52.1121958829462528228759765625" lon="1.4260680042207241058349609375">
        <ele>-10.80000019073486328125</ele>
        <time>2025-09-06T08:14:25.000Z</time>
        <extensions>
          <ns3:TrackPointExtension>
            <ns3:hr>157</ns3:hr>
            <ns3:cad>81</ns3:cad>
          </ns3:TrackPointExtension>
        </extensions>
      </trkpt>
      <trkpt lat="52.11214534007012844085693359375" lon="1.42616833560168743133544921875">
        <ele>-11</ele>
        <time>2025-09-06T08:14:29.000Z</time>
        <extensions>
          <ns3:TrackPointExtension>
            <ns3:hr>160</ns3:hr>
            <ns3:cad>81</ns3:cad>
          </ns3:TrackPointExtension>
        </extensions>
      </trkpt>
      <trkpt lat="52.11211851797997951507568359375" lon="1.4262161962687969207763671875">
        <ele>-11.19999980926513671875</ele>
        <time>2025-09-06T08:14:31.000Z</time>
        <extensions>
          <ns3:TrackPointExtension>
            <ns3:hr>160</ns3:hr>
            <ns3:cad>81</ns3:cad>
          </ns3:TrackPointExtension>
        </extensions>
      </trkpt>
      <trkpt lat="52.1121011674404144287109375" lon="1.42626372165977954864501953125">
        <ele>-11.19999980926513671875</ele>
        <time>2025-09-06T08:14:33.000Z</time>
        <extensions>
          <ns3:TrackPointExtension>
            <ns3:hr>157</ns3:hr>
            <ns3:cad>81</ns3:cad>
          </ns3:TrackPointExtension>
        </extensions>
      </trkpt>
      <trkpt lat="52.11205146275460720062255859375" lon="1.42635575495660305023193359375">
        <ele>-11.19999980926513671875</ele>
        <time>2025-09-06T08:14:37.000Z</time>
        <extensions>
          <ns3:TrackPointExtension>
            <ns3:hr>156</ns3:hr>
            <ns3:cad>80</ns3:cad>
          </ns3:TrackPointExtension>
        </extensions>
      </trkpt>
      <trkpt lat="52.1120081283152103424072265625" lon="1.4264207147061824798583984375">
        <ele>-10.80000019073486328125</ele>
        <time>2025-09-06T08:14:40.000Z</time>
        <extensions>
          <ns3:TrackPointExtension>
            <ns3:hr>153</ns3:hr>
            <ns3:cad>79</ns3:cad>
          </ns3:TrackPointExtension>
        </extensions>
      </trkpt>
      <trkpt lat="52.111953981220722198486328125" lon="1.4265583455562591552734375">
        <ele>-9.80000019073486328125</ele>
        <time>2025-09-06T08:14:45.000Z</time>
        <extensions>
          <ns3:TrackPointExtension>
            <ns3:hr>155</ns3:hr>
            <ns3:cad>79</ns3:cad>
          </ns3:TrackPointExtension>
        </extensions>
      </trkpt>
      <trkpt lat="52.11193227209150791168212890625" lon="1.42660922370851039886474609375">
        <ele>-9.3999996185302734375</ele>
        <time>2025-09-06T08:14:47.000Z</time>
        <extensions>
          <ns3:TrackPointExtension>
            <ns3:hr>155</ns3:hr>
            <ns3:cad>79</ns3:cad>
          </ns3:TrackPointExtension>
        </extensions>
      </trkpt>
      <trkpt lat="52.11187242530286312103271484375" lon="1.42676311545073986053466796875">
        <ele>-9</ele>
        <time>2025-09-06T08:14:52.000Z</time>
        <extensions>
          <ns3:TrackPointExtension>
            <ns3:hr>154</ns3:hr>
            <ns3:cad>80</ns3:cad>
          </ns3:TrackPointExtension>
        </extensions>
      </trkpt>
      <trkpt lat="52.11188214831054210662841796875" lon="1.42700719647109508514404296875">
        <ele>-8.6000003814697265625</ele>
        <time>2025-09-06T08:14:58.000Z</time>
        <extensions>
          <ns3:TrackPointExtension>
            <ns3:hr>151</ns3:hr>
            <ns3:cad>79</ns3:cad>
          </ns3:TrackPointExtension>
        </extensions>
      </trkpt>
      <trkpt lat="52.11188013665378093719482421875" lon="1.427057571709156036376953125">
        <ele>-8.6000003814697265625</ele>
        <time>2025-09-06T08:15:00.000Z</time>
        <extensions>
          <ns3:TrackPointExtension>
            <ns3:hr>150</ns3:hr>
            <ns3:cad>79</ns3:cad>
          </ns3:TrackPointExtension>
        </extensions>
      </trkpt>
      <trkpt lat="52.11189388297498226165771484375" lon="1.42714046873152256011962890625">
        <ele>-8.6000003814697265625</ele>
        <time>2025-09-06T08:15:04.000Z</time>
        <extensions>
          <ns3:TrackPointExtension>
            <ns3:hr>147</ns3:hr>
            <ns3:cad>0</ns3:cad>
          </ns3:TrackPointExtension>
        </extensions>
      </trkpt>
      <trkpt lat="52.1119135804474353790283203125" lon="1.42726351507008075714111328125">
        <ele>-8.80000019073486328125</ele>
        <time>2025-09-06T08:15:08.000Z</time>
        <extensions>
          <ns3:TrackPointExtension>
            <ns3:hr>148</ns3:hr>
            <ns3:cad>75</ns3:cad>
          </ns3:TrackPointExtension>
        </extensions>
      </trkpt>
      <trkpt lat="52.11196211166679859161376953125" lon="1.4275143854320049285888671875">
        <ele>-9.19999980926513671875</ele>
        <time>2025-09-06T08:15:16.000Z</time>
        <extensions>
          <ns3:TrackPointExtension>
            <ns3:hr>149</ns3:hr>
            <ns3:cad>80</ns3:cad>
          </ns3:TrackPointExtension>
        </extensions>
      </trkpt>
      <trkpt lat="52.1119779534637928009033203125" lon="1.4276287145912647247314453125">
        <ele>-9.19999980926513671875</ele>
        <time>2025-09-06T08:15:20.000Z</time>
        <extensions>
          <ns3:TrackPointExtension>
            <ns3:hr>152</ns3:hr>
            <ns3:cad>81</ns3:cad>
          </ns3:TrackPointExtension>
        </extensions>
      </trkpt>
      <trkpt lat="52.11200888268649578094482421875" lon="1.42774648033082485198974609375">
        <ele>-9.19999980926513671875</ele>
        <time>2025-09-06T08:15:24.000Z</time>
        <extensions>
          <ns3:TrackPointExtension>
            <ns3:hr>153</ns3:hr>
            <ns3:cad>80</ns3:cad>
          </ns3:TrackPointExtension>
        </extensions>
      </trkpt>
      <trkpt lat="52.11205758154392242431640625" lon="1.42796181142330169677734375">
        <ele>-9.19999980926513671875</ele>
        <time>2025-09-06T08:15:31.000Z</time>
        <extensions>
          <ns3:TrackPointExtension>
            <ns3:hr>153</ns3:hr>
            <ns3:cad>80</ns3:cad>
          </ns3:TrackPointExtension>
        </extensions>
      </trkpt>
      <trkpt lat="52.11215506307780742645263671875" lon="1.42817697487771511077880859375">
        <ele>-9.19999980926513671875</ele>
        <time>2025-09-06T08:15:41.000Z</time>
        <extensions>
          <ns3:TrackPointExtension>
            <ns3:hr>153</ns3:hr>
            <ns3:cad>78</ns3:cad>
          </ns3:TrackPointExtension>
        </extensions>
      </trkpt>
      <trkpt lat="52.1122585795819759368896484375" lon="1.428420804440975189208984375">
        <ele>-9.19999980926513671875</ele>
        <time>2025-09-06T08:15:49.000Z</time>
        <extensions>
          <ns3:TrackPointExtension>
            <ns3:hr>151</ns3:hr>
            <ns3:cad>80</ns3:cad>
          </ns3:TrackPointExtension>
        </extensions>
      </trkpt>
      <trkpt lat="52.112285904586315155029296875" lon="1.4284907095134258270263671875">
        <ele>-9</ele>
        <time>2025-09-06T08:15:51.000Z</time>
        <extensions>
          <ns3:TrackPointExtension>
            <ns3:hr>151</ns3:hr>
            <ns3:cad>80</ns3:cad>
          </ns3:TrackPointExtension>
        </extensions>
      </trkpt>
      <trkpt lat="52.112331502139568328857421875" lon="1.42879857681691646575927734375">
        <ele>-9</ele>
        <time>2025-09-06T08:15:59.000Z</time>
        <extensions>
          <ns3:TrackPointExtension>
            <ns3:hr>152</ns3:hr>
            <ns3:cad>81</ns3:cad>
          </ns3:TrackPointExtension>
        </extensions>
      </trkpt>
      <trkpt lat="52.11238556541502475738525390625" lon="1.42908322624862194061279296875">
        <ele>-9.19999980926513671875</ele>
        <time>2025-09-06T08:16:07.000Z</time>
        <extensions>
          <ns3:TrackPointExtension>
            <ns3:hr>153</ns3:hr>
            <ns3:cad>81</ns3:cad>
          </ns3:TrackPointExtension>
        </extensions>
      </trkpt>
      <trkpt lat="52.11239361204206943511962890625" lon="1.42910853959619998931884765625">
        <ele>-9.19999980926513671875</ele>
        <time>2025-09-06T08:16:08.000Z</time>
        <extensions>
          <ns3:TrackPointExtension>
            <ns3:hr>154</ns3:hr>
            <ns3:cad>81</ns3:cad>
          </ns3:TrackPointExtension>
        </extensions>
      </trkpt>
      <trkpt lat="52.1124842204153537750244140625" lon="1.429314650595188140869140625">
        <ele>-10</ele>
        <time>2025-09-06T08:16:15.000Z</time>
        <extensions>
          <ns3:TrackPointExtension>
            <ns3:hr>154</ns3:hr>
            <ns3:cad>80</ns3:cad>
          </ns3:TrackPointExtension>
        </extensions>
      </trkpt>
      <trkpt lat="52.1125643514096736907958984375" lon="1.42955780960619449615478515625">
        <ele>-10.19999980926513671875</ele>
        <time>2025-09-06T08:16:23.000Z</time>
        <extensions>
          <ns3:TrackPointExtension>
            <ns3:hr>154</ns3:hr>
            <ns3:cad>81</ns3:cad>
          </ns3:TrackPointExtension>
        </extensions>
      </trkpt>
      <trkpt lat="52.1126173250377178192138671875" lon="1.429778672754764556884765625">
        <ele>-10.3999996185302734375</ele>
        <time>2025-09-06T08:16:30.000Z</time>
        <extensions>
          <ns3:TrackPointExtension>
            <ns3:hr>153</ns3:hr>
            <ns3:cad>80</ns3:cad>
          </ns3:TrackPointExtension>
        </extensions>
      </trkpt>
      <trkpt lat="52.11267155595123767852783203125" lon="1.429909765720367431640625">
        <ele>-10.3999996185302734375</ele>
        <time>2025-09-06T08:16:35.000Z</time>
        <extensions>
          <ns3:TrackPointExtension>
            <ns3:hr>156</ns3:hr>
            <ns3:cad>80</ns3:cad>
          </ns3:TrackPointExtension>
        </extensions>
      </trkpt>
      <trkpt lat="52.11268982850015163421630859375" lon="1.42993130721151828765869140625">
        <ele>-10.3999996185302734375</ele>
        <time>2025-09-06T08:16:36.000Z</time>
        <extensions>
          <ns3:TrackPointExtension>
            <ns3:hr>153</ns3:hr>
            <ns3:cad>80</ns3:cad>
          </ns3:TrackPointExtension>
        </extensions>
      </trkpt>
      <trkpt lat="52.112708352506160736083984375" lon="1.4299625717103481292724609375">
        <ele>-10.6000003814697265625</ele>
        <time>2025-09-06T08:16:37.000Z</time>
        <extensions>
          <ns3:TrackPointExtension>
            <ns3:hr>153</ns3:hr>
            <ns3:cad>79</ns3:cad>
          </ns3:TrackPointExtension>
        </extensions>
      </trkpt>
      <trkpt lat="52.1127658523619174957275390625" lon="1.43012509681284427642822265625">
        <ele>-10.6000003814697265625</ele>
        <time>2025-09-06T08:16:42.000Z</time>
        <extensions>
          <ns3:TrackPointExtension>
            <ns3:hr>150</ns3:hr>
            <ns3:cad>78</ns3:cad>
          </ns3:TrackPointExtension>
        </extensions>
      </trkpt>
      <trkpt lat="52.11279057897627353668212890625" lon="1.43024696968495845794677734375">
        <ele>-10.80000019073486328125</ele>
        <time>2025-09-06T08:16:45.000Z</time>
        <extensions>
          <ns3:TrackPointExtension>
            <ns3:hr>152</ns3:hr>
            <ns3:cad>78</ns3:cad>
          </ns3:TrackPointExtension>
        </extensions>
      </trkpt>
      <trkpt lat="52.11280667223036289215087890625" lon="1.43047504127025604248046875">
        <ele>-11</ele>
        <time>2025-09-06T08:16:52.000Z</time>
        <extensions>
          <ns3:TrackPointExtension>
            <ns3:hr>153</ns3:hr>
            <ns3:cad>79</ns3:cad>
          </ns3:TrackPointExtension>
        </extensions>
      </trkpt>
      <trkpt lat="52.11280516348779201507568359375" lon="1.43054117448627948760986328125">
        <ele>-11</ele>
        <time>2025-09-06T08:16:54.000Z</time>
        <extensions>
          <ns3:TrackPointExtension>
            <ns3:hr>150</ns3:hr>
            <ns3:cad>79</ns3:cad>
          </ns3:TrackPointExtension>
        </extensions>
      </trkpt>
      <trkpt lat="52.11283919401466846466064453125" lon="1.43078944645822048187255859375">
        <ele>-11.3999996185302734375</ele>
        <time>2025-09-06T08:17:02.000Z</time>
        <extensions>
          <ns3:TrackPointExtension>
            <ns3:hr>149</ns3:hr>
            <ns3:cad>80</ns3:cad>
          </ns3:TrackPointExtension>
        </extensions>
      </trkpt>
      <trkpt lat="52.11283533833920955657958984375" lon="1.43086806870996952056884765625">
        <ele>-11.3999996185302734375</ele>
        <time>2025-09-06T08:17:04.000Z</time>
        <extensions>
          <ns3:TrackPointExtension>
            <ns3:hr>150</ns3:hr>
            <ns3:cad>79</ns3:cad>
          </ns3:TrackPointExtension>
        </extensions>
      </trkpt>
      <trkpt lat="52.112846486270427703857421875" lon="1.43117501400411128997802734375">
        <ele>-11.80000019073486328125</ele>
        <time>2025-09-06T08:17:12.000Z</time>
        <extensions>
          <ns3:TrackPointExtension>
            <ns3:hr>150</ns3:hr>
            <ns3:cad>80</ns3:cad>
          </ns3:TrackPointExtension>
        </extensions>
      </trkpt>
      <trkpt lat="52.11286031641066074371337890625" lon="1.43140668980777263641357421875">
        <ele>-11.80000019073486328125</ele>
        <time>2025-09-06T08:17:17.000Z</time>
        <extensions>
          <ns3:TrackPointExtension>
            <ns3:hr>145</ns3:hr>
            <ns3:cad>79</ns3:cad>
          </ns3:TrackPointExtension>
        </extensions>
      </trkpt>
      <trkpt lat="52.11285679601132869720458984375" lon="1.43156468868255615234375">
        <ele>-11.80000019073486328125</ele>
        <time>2025-09-06T08:17:21.000Z</time>
        <extensions>
          <ns3:TrackPointExtension>
            <ns3:hr>143</ns3:hr>
            <ns3:cad>80</ns3:cad>
          </ns3:TrackPointExtension>
        </extensions>
      </trkpt>
      <trkpt lat="52.1128945983946323394775390625" lon="1.4318347536027431488037109375">
        <ele>-11.80000019073486328125</ele>
        <time>2025-09-06T08:17:29.000Z</time>
        <extensions>
          <ns3:TrackPointExtension>
            <ns3:hr>142</ns3:hr>
            <ns3:cad>80</ns3:cad>
          </ns3:TrackPointExtension>
        </extensions>
      </trkpt>
      <trkpt lat="52.11293893866240978240966796875" lon="1.4320282079279422760009765625">
        <ele>-11.6000003814697265625</ele>
        <time>2025-09-06T08:17:35.000Z</time>
        <extensions>
          <ns3:TrackPointExtension>
            <ns3:hr>145</ns3:hr>
            <ns3:cad>79</ns3:cad>
          </ns3:TrackPointExtension>
        </extensions>
      </trkpt>
      <trkpt lat="52.1129448898136615753173828125" lon="1.4321090094745159149169921875">
        <ele>-11.6000003814697265625</ele>
        <time>2025-09-06T08:17:37.000Z</time>
        <extensions>
          <ns3:TrackPointExtension>
            <ns3:hr>144</ns3:hr>
            <ns3:cad>80</ns3:cad>
          </ns3:TrackPointExtension>
        </extensions>
      </trkpt>
      <trkpt lat="52.11298721842467784881591796875" lon="1.4324074052274227142333984375">
        <ele>-11.6000003814697265625</ele>
        <time>2025-09-06T08:17:45.000Z</time>
        <extensions>
          <ns3:TrackPointExtension>
            <ns3:hr>147</ns3:hr>
            <ns3:cad>79</ns3:cad>
          </ns3:TrackPointExtension>
        </extensions>
      </trkpt>
      <trkpt lat="52.113008759915828704833984375" lon="1.4324835129082202911376953125">
        <ele>-11.80000019073486328125</ele>
        <time>2025-09-06T08:17:47.000Z</time>
        <extensions>
          <ns3:TrackPointExtension>
            <ns3:hr>148</ns3:hr>
            <ns3:cad>79</ns3:cad>
          </ns3:TrackPointExtension>
        </extensions>
      </trkpt>
      <trkpt lat="52.1130317263305187225341796875" lon="1.4326576888561248779296875">
        <ele>-12</ele>
        <time>2025-09-06T08:17:52.000Z</time>
        <extensions>
          <ns3:TrackPointExtension>
            <ns3:hr>151</ns3:hr>
            <ns3:cad>78</ns3:cad>
          </ns3:TrackPointExtension>
        </extensions>
      </trkpt>
      <trkpt lat="52.1130340732634067535400390625" lon="1.43273522146046161651611328125">
        <ele>-12.19999980926513671875</ele>
        <time>2025-09-06T08:17:55.000Z</time>
        <extensions>
          <ns3:TrackPointExtension>
            <ns3:hr>150</ns3:hr>
            <ns3:cad>79</ns3:cad>
          </ns3:TrackPointExtension>
        </extensions>
      </trkpt>
      <trkpt lat="52.1130453050136566162109375" lon="1.4328881911933422088623046875">
        <ele>-12.3999996185302734375</ele>
        <time>2025-09-06T08:18:00.000Z</time>
        <extensions>
          <ns3:TrackPointExtension>
            <ns3:hr>151</ns3:hr>
            <ns3:cad>80</ns3:cad>
          </ns3:TrackPointExtension>
        </extensions>
      </trkpt>
      <trkpt lat="52.11304337717592716217041015625" lon="1.4330439269542694091796875">
        <ele>-12.6000003814697265625</ele>
        <time>2025-09-06T08:18:04.000Z</time>
        <extensions>
          <ns3:TrackPointExtension>
            <ns3:hr>152</ns3:hr>
            <ns3:cad>79</ns3:cad>
          </ns3:TrackPointExtension>
        </extensions>
      </trkpt>
      <trkpt lat="52.11304019205272197723388671875" lon="1.43321567215025424957275390625">
        <ele>-12.6000003814697265625</ele>
        <time>2025-09-06T08:18:10.000Z</time>
        <extensions>
          <ns3:TrackPointExtension>
            <ns3:hr>149</ns3:hr>
            <ns3:cad>78</ns3:cad>
          </ns3:TrackPointExtension>
        </extensions>
      </trkpt>
      <trkpt lat="52.11304069496691226959228515625" lon="1.43329496495425701141357421875">
        <ele>-12.80000019073486328125</ele>
        <time>2025-09-06T08:18:13.000Z</time>
        <extensions>
          <ns3:TrackPointExtension>
            <ns3:hr>150</ns3:hr>
            <ns3:cad>79</ns3:cad>
          </ns3:TrackPointExtension>
        </extensions>
      </trkpt>
      <trkpt lat="52.11305025033652782440185546875" lon="1.43356025218963623046875">
        <ele>-12.80000019073486328125</ele>
        <time>2025-09-06T08:18:22.000Z</time>
        <extensions>
          <ns3:TrackPointExtension>
            <ns3:hr>152</ns3:hr>
            <ns3:cad>78</ns3:cad>
          </ns3:TrackPointExtension>
        </extensions>
      </trkpt>
      <trkpt lat="52.1130484901368618011474609375" lon="1.43364247865974903106689453125">
        <ele>-12.6000003814697265625</ele>
        <time>2025-09-06T08:18:24.000Z</time>
        <extensions>
          <ns3:TrackPointExtension>
            <ns3:hr>155</ns3:hr>
            <ns3:cad>80</ns3:cad>
          </ns3:TrackPointExtension>
        </extensions>
      </trkpt>
      <trkpt lat="52.11305326782166957855224609375" lon="1.43370886333286762237548828125">
        <ele>-12.6000003814697265625</ele>
        <time>2025-09-06T08:18:26.000Z</time>
        <extensions>
          <ns3:TrackPointExtension>
            <ns3:hr>158</ns3:hr>
            <ns3:cad>80</ns3:cad>
          </ns3:TrackPointExtension>
        </extensions>
      </trkpt>
      <trkpt lat="52.11305293254554271697998046875" lon="1.433771811425685882568359375">
        <ele>-12.6000003814697265625</ele>
        <time>2025-09-06T08:18:28.000Z</time>
        <extensions>
          <ns3:TrackPointExtension>
            <ns3:hr>161</ns3:hr>
            <ns3:cad>80</ns3:cad>
          </ns3:TrackPointExtension>
        </extensions>
      </trkpt>
      <trkpt lat="52.11304438300430774688720703125" lon="1.43381816335022449493408203125">
        <ele>-12.3999996185302734375</ele>
        <time>2025-09-06T08:18:30.000Z</time>
        <extensions>
          <ns3:TrackPointExtension>
            <ns3:hr>159</ns3:hr>
            <ns3:cad>79</ns3:cad>
          </ns3:TrackPointExtension>
        </extensions>
      </trkpt>
      <trkpt lat="52.11304865777492523193359375" lon="1.43389946781098842620849609375">
        <ele>-12.19999980926513671875</ele>
        <time>2025-09-06T08:18:33.000Z</time>
        <extensions>
          <ns3:TrackPointExtension>
            <ns3:hr>164</ns3:hr>
            <ns3:cad>79</ns3:cad>
          </ns3:TrackPointExtension>
        </extensions>
      </trkpt>
      <trkpt lat="52.113049328327178955078125" lon="1.4339433051645755767822265625">
        <ele>-12.19999980926513671875</ele>
        <time>2025-09-06T08:18:35.000Z</time>
        <extensions>
          <ns3:TrackPointExtension>
            <ns3:hr>167</ns3:hr>
            <ns3:cad>75</ns3:cad>
          </ns3:TrackPointExtension>
        </extensions>
      </trkpt>
      <trkpt lat="52.11306902579963207244873046875" lon="1.43403173424303531646728515625">
        <ele>-12</ele>
        <time>2025-09-06T08:18:39.000Z</time>
        <extensions>
          <ns3:TrackPointExtension>
            <ns3:hr>166</ns3:hr>
            <ns3:cad>74</ns3:cad>
          </ns3:TrackPointExtension>
        </extensions>
      </trkpt>
      <trkpt lat="52.11307355202734470367431640625" lon="1.43405000679194927215576171875">
        <ele>-12</ele>
        <time>2025-09-06T08:18:40.000Z</time>
        <extensions>
          <ns3:TrackPointExtension>
            <ns3:hr>163</ns3:hr>
            <ns3:cad>75</ns3:cad>
          </ns3:TrackPointExtension>
        </extensions>
      </trkpt>
      <trkpt lat="52.1130897291004657745361328125" lon="1.4341324009001255035400390625">
        <ele>-12</ele>
        <time>2025-09-06T08:18:43.000Z</time>
        <extensions>
          <ns3:TrackPointExtension>
            <ns3:hr>166</ns3:hr>
            <ns3:cad>76</ns3:cad>
          </ns3:TrackPointExtension>
        </extensions>
      </trkpt>
      <trkpt lat="52.11308880709111690521240234375" lon="1.4341847039759159088134765625">
        <ele>-12</ele>
        <time>2025-09-06T08:18:45.000Z</time>
        <extensions>
          <ns3:TrackPointExtension>
            <ns3:hr>166</ns3:hr>
            <ns3:cad>77</ns3:cad>
          </ns3:TrackPointExtension>
        </extensions>
      </trkpt>
      <trkpt lat="52.11310238577425479888916015625" lon="1.43434857018291950225830078125">
        <ele>-12</ele>
        <time>2025-09-06T08:18:51.000Z</time>
        <extensions>
          <ns3:TrackPointExtension>
            <ns3:hr>169</ns3:hr>
            <ns3:cad>79</ns3:cad>
          </ns3:TrackPointExtension>
        </extensions>
      </trkpt>
      <trkpt lat="52.1131069958209991455078125" lon="1.4344103448092937469482421875">
        <ele>-12</ele>
        <time>2025-09-06T08:18:53.000Z</time>
        <extensions>
          <ns3:TrackPointExtension>
            <ns3:hr>169</ns3:hr>
            <ns3:cad>80</ns3:cad>
          </ns3:TrackPointExtension>
        </extensions>
      </trkpt>
      <trkpt lat="52.11310632526874542236328125" lon="1.434638164937496185302734375">
        <ele>-12</ele>
        <time>2025-09-06T08:19:01.000Z</time>
        <extensions>
          <ns3:TrackPointExtension>
            <ns3:hr>166</ns3:hr>
            <ns3:cad>80</ns3:cad>
          </ns3:TrackPointExtension>
        </extensions>
      </trkpt>
      <trkpt lat="52.11309484206140041351318359375" lon="1.43468585796654224395751953125">
        <ele>-12</ele>
        <time>2025-09-06T08:19:02.000Z</time>
        <extensions>
          <ns3:TrackPointExtension>
            <ns3:hr>168</ns3:hr>
            <ns3:cad>80</ns3:cad>
          </ns3:TrackPointExtension>
        </extensions>
      </trkpt>
      <trkpt lat="52.113054357469081878662109375" lon="1.43498710356652736663818359375">
        <ele>-11.6000003814697265625</ele>
        <time>2025-09-06T08:19:10.000Z</time>
        <extensions>
          <ns3:TrackPointExtension>
            <ns3:hr>168</ns3:hr>
            <ns3:cad>80</ns3:cad>
          </ns3:TrackPointExtension>
        </extensions>
      </trkpt>
      <trkpt lat="52.11303885094821453094482421875" lon="1.43508366309106349945068359375">
        <ele>-11.6000003814697265625</ele>
        <time>2025-09-06T08:19:12.000Z</time>
        <extensions>
          <ns3:TrackPointExtension>
            <ns3:hr>167</ns3:hr>
            <ns3:cad>79</ns3:cad>
          </ns3:TrackPointExtension>
        </extensions>
      </trkpt>
      <trkpt lat="52.11299777962267398834228515625" lon="1.43529354594647884368896484375">
        <ele>-11.3999996185302734375</ele>
        <time>2025-09-06T08:19:17.000Z</time>
        <extensions>
          <ns3:TrackPointExtension>
            <ns3:hr>165</ns3:hr>
            <ns3:cad>79</ns3:cad>
          </ns3:TrackPointExtension>
        </extensions>
      </trkpt>
      <trkpt lat="52.1129862964153289794921875" lon="1.43535138107836246490478515625">
        <ele>-11.3999996185302734375</ele>
        <time>2025-09-06T08:19:19.000Z</time>
        <extensions>
          <ns3:TrackPointExtension>
            <ns3:hr>166</ns3:hr>
            <ns3:cad>79</ns3:cad>
          </ns3:TrackPointExtension>
        </extensions>
      </trkpt>
      <trkpt lat="52.112953104078769683837890625" lon="1.43552656285464763641357421875">
        <ele>-11.19999980926513671875</ele>
        <time>2025-09-06T08:19:27.000Z</time>
        <extensions>
          <ns3:TrackPointExtension>
            <ns3:hr>169</ns3:hr>
            <ns3:cad>78</ns3:cad>
          </ns3:TrackPointExtension>
        </extensions>
      </trkpt>
      <trkpt lat="52.1129433810710906982421875" lon="1.43556109629571437835693359375">
        <ele>-11.19999980926513671875</ele>
        <time>2025-09-06T08:19:28.000Z</time>
        <extensions>
          <ns3:TrackPointExtension>
            <ns3:hr>165</ns3:hr>
            <ns3:cad>78</ns3:cad>
          </ns3:TrackPointExtension>
        </extensions>
      </trkpt>
      <trkpt lat="52.1129462309181690216064453125" lon="1.435657404363155364990234375">
        <ele>-11</ele>
        <time>2025-09-06T08:19:31.000Z</time>
        <extensions>
          <ns3:TrackPointExtension>
            <ns3:hr>168</ns3:hr>
            <ns3:cad>79</ns3:cad>
          </ns3:TrackPointExtension>
        </extensions>
      </trkpt>
      <trkpt lat="52.1129606477916240692138671875" lon="1.43579428084194660186767578125">
        <ele>-10.80000019073486328125</ele>
        <time>2025-09-06T08:19:35.000Z</time>
        <extensions>
          <ns3:TrackPointExtension>
            <ns3:hr>166</ns3:hr>
            <ns3:cad>80</ns3:cad>
          </ns3:TrackPointExtension>
        </extensions>
      </trkpt>
      <trkpt lat="52.11297716014087200164794921875" lon="1.43607809208333492279052734375">
        <ele>-10.80000019073486328125</ele>
        <time>2025-09-06T08:19:44.000Z</time>
        <extensions>
          <ns3:TrackPointExtension>
            <ns3:hr>166</ns3:hr>
            <ns3:cad>80</ns3:cad>
          </ns3:TrackPointExtension>
        </extensions>
      </trkpt>
      <trkpt lat="52.11292468942701816558837890625" lon="1.43630071543157100677490234375">
        <ele>-10.3999996185302734375</ele>
        <time>2025-09-06T08:19:52.000Z</time>
        <extensions>
          <ns3:TrackPointExtension>
            <ns3:hr>163</ns3:hr>
            <ns3:cad>0</ns3:cad>
          </ns3:TrackPointExtension>
        </extensions>
      </trkpt>
      <trkpt lat="52.11292284540832042694091796875" lon="1.43631865270435810089111328125">
        <ele>-10.3999996185302734375</ele>
        <time>2025-09-06T08:19:53.000Z</time>
        <extensions>
          <ns3:TrackPointExtension>
            <ns3:hr>163</ns3:hr>
            <ns3:cad>0</ns3:cad>
          </ns3:TrackPointExtension>
        </extensions>
      </trkpt>
      <trkpt lat="52.11289552040398120880126953125" lon="1.43640163354575634002685546875">
        <ele>-10.19999980926513671875</ele>
        <time>2025-09-06T08:19:58.000Z</time>
        <extensions>
          <ns3:TrackPointExtension>
            <ns3:hr>164</ns3:hr>
            <ns3:cad>0</ns3:cad>
          </ns3:TrackPointExtension>
        </extensions>
      </trkpt>
      <trkpt lat="52.11288906633853912353515625" lon="1.43650640733540058135986328125">
        <ele>-10.19999980926513671875</ele>
        <time>2025-09-06T08:20:01.000Z</time>
        <extensions>
          <ns3:TrackPointExtension>
            <ns3:hr>160</ns3:hr>
            <ns3:cad>75</ns3:cad>
          </ns3:TrackPointExtension>
        </extensions>
      </trkpt>
      <trkpt lat="52.11289501748979091644287109375" lon="1.43668125383555889129638671875">
        <ele>-10.19999980926513671875</ele>
        <time>2025-09-06T08:20:06.000Z</time>
        <extensions>
          <ns3:TrackPointExtension>
            <ns3:hr>159</ns3:hr>
            <ns3:cad>79</ns3:cad>
          </ns3:TrackPointExtension>
        </extensions>
      </trkpt>
      <trkpt lat="52.112916894257068634033203125" lon="1.43689968623220920562744140625">
        <ele>-10.3999996185302734375</ele>
        <time>2025-09-06T08:20:12.000Z</time>
        <extensions>
          <ns3:TrackPointExtension>
            <ns3:hr>162</ns3:hr>
            <ns3:cad>79</ns3:cad>
          </ns3:TrackPointExtension>
        </extensions>
      </trkpt>
      <trkpt lat="52.11292049847543239593505859375" lon="1.43690764904022216796875">
        <ele>-10.6000003814697265625</ele>
        <time>2025-09-06T08:20:13.000Z</time>
        <extensions>
          <ns3:TrackPointExtension>
            <ns3:hr>163</ns3:hr>
            <ns3:cad>79</ns3:cad>
          </ns3:TrackPointExtension>
        </extensions>
      </trkpt>
      <trkpt lat="52.11292083375155925750732421875" lon="1.4369594492018222808837890625">
        <ele>-10.6000003814697265625</ele>
        <time>2025-09-06T08:20:17.000Z</time>
        <extensions>
          <ns3:TrackPointExtension>
            <ns3:hr>164</ns3:hr>
            <ns3:cad>79</ns3:cad>
          </ns3:TrackPointExtension>
        </extensions>
      </trkpt>
      <trkpt lat="52.1129019744694232940673828125" lon="1.43701971508562564849853515625">
        <ele>-10.80000019073486328125</ele>
        <time>2025-09-06T08:20:19.000Z</time>
        <extensions>
          <ns3:TrackPointExtension>
            <ns3:hr>162</ns3:hr>
            <ns3:cad>79</ns3:cad>
          </ns3:TrackPointExtension>
        </extensions>
      </trkpt>
      <trkpt lat="52.11288747377693653106689453125" lon="1.437077634036540985107421875">
        <ele>-10.80000019073486328125</ele>
        <time>2025-09-06T08:20:22.000Z</time>
        <extensions>
          <ns3:TrackPointExtension>
            <ns3:hr>159</ns3:hr>
            <ns3:cad>79</ns3:cad>
          </ns3:TrackPointExtension>
        </extensions>
      </trkpt>
      <trkpt lat="52.11286836303770542144775390625" lon="1.4371512271463871002197265625">
        <ele>-11</ele>
        <time>2025-09-06T08:20:25.000Z</time>
        <extensions>
          <ns3:TrackPointExtension>
            <ns3:hr>156</ns3:hr>
            <ns3:cad>0</ns3:cad>
          </ns3:TrackPointExtension>
        </extensions>
      </trkpt>
      <trkpt lat="52.11286962032318115234375" lon="1.437184922397136688232421875">
        <ele>-11</ele>
        <time>2025-09-06T08:20:26.000Z</time>
        <extensions>
          <ns3:TrackPointExtension>
            <ns3:hr>155</ns3:hr>
            <ns3:cad>0</ns3:cad>
          </ns3:TrackPointExtension>
        </extensions>
      </trkpt>
      <trkpt lat="52.11291412822902202606201171875" lon="1.4373450167477130889892578125">
        <ele>-11</ele>
        <time>2025-09-06T08:20:31.000Z</time>
        <extensions>
          <ns3:TrackPointExtension>
            <ns3:hr>152</ns3:hr>
            <ns3:cad>77</ns3:cad>
          </ns3:TrackPointExtension>
        </extensions>
      </trkpt>
      <trkpt lat="52.11292603053152561187744140625" lon="1.4374078810214996337890625">
        <ele>-11</ele>
        <time>2025-09-06T08:20:33.000Z</time>
        <extensions>
          <ns3:TrackPointExtension>
            <ns3:hr>152</ns3:hr>
            <ns3:cad>77</ns3:cad>
          </ns3:TrackPointExtension>
        </extensions>
      </trkpt>
      <trkpt lat="52.1129415370523929595947265625" lon="1.43749664537608623504638671875">
        <ele>-11.19999980926513671875</ele>
        <time>2025-09-06T08:20:36.000Z</time>
        <extensions>
          <ns3:TrackPointExtension>
            <ns3:hr>155</ns3:hr>
            <ns3:cad>77</ns3:cad>
          </ns3:TrackPointExtension>
        </extensions>
      </trkpt>
      <trkpt lat="52.11294262669980525970458984375" lon="1.43760108388960361480712890625">
        <ele>-11.19999980926513671875</ele>
        <time>2025-09-06T08:20:40.000Z</time>
        <extensions>
          <ns3:TrackPointExtension>
            <ns3:hr>152</ns3:hr>
            <ns3:cad>77</ns3:cad>
          </ns3:TrackPointExtension>
        </extensions>
      </trkpt>
      <trkpt lat="52.11292971856892108917236328125" lon="1.43764249049127101898193359375">
        <ele>-11</ele>
        <time>2025-09-06T08:20:42.000Z</time>
        <extensions>
          <ns3:TrackPointExtension>
            <ns3:hr>154</ns3:hr>
            <ns3:cad>74</ns3:cad>
          </ns3:TrackPointExtension>
        </extensions>
      </trkpt>
      <trkpt lat="52.1128855459392070770263671875" lon="1.43773351795971393585205078125">
        <ele>-11</ele>
        <time>2025-09-06T08:20:46.000Z</time>
        <extensions>
          <ns3:TrackPointExtension>
            <ns3:hr>157</ns3:hr>
            <ns3:cad>74</ns3:cad>
          </ns3:TrackPointExtension>
        </extensions>
      </trkpt>
      <trkpt lat="52.1128736436367034912109375" lon="1.43776386044919490814208984375">
        <ele>-11</ele>
        <time>2025-09-06T08:20:47.000Z</time>
        <extensions>
          <ns3:TrackPointExtension>
            <ns3:hr>156</ns3:hr>
            <ns3:cad>75</ns3:cad>
          </ns3:TrackPointExtension>
        </extensions>
      </trkpt>
      <trkpt lat="52.11282326839864253997802734375" lon="1.43791054375469684600830078125">
        <ele>-11.19999980926513671875</ele>
        <time>2025-09-06T08:20:51.000Z</time>
        <extensions>
          <ns3:TrackPointExtension>
            <ns3:hr>159</ns3:hr>
            <ns3:cad>77</ns3:cad>
          </ns3:TrackPointExtension>
        </extensions>
      </trkpt>
      <trkpt lat="52.11280080489814281463623046875" lon="1.43803359009325504302978515625">
        <ele>-11.3999996185302734375</ele>
        <time>2025-09-06T08:20:54.000Z</time>
        <extensions>
          <ns3:TrackPointExtension>
            <ns3:hr>161</ns3:hr>
            <ns3:cad>78</ns3:cad>
          </ns3:TrackPointExtension>
        </extensions>
      </trkpt>
      <trkpt lat="52.11279577575623989105224609375" lon="1.43807197920978069305419921875">
        <ele>-11.3999996185302734375</ele>
        <time>2025-09-06T08:20:55.000Z</time>
        <extensions>
          <ns3:TrackPointExtension>
            <ns3:hr>162</ns3:hr>
            <ns3:cad>78</ns3:cad>
          </ns3:TrackPointExtension>
        </extensions>
      </trkpt>
      <trkpt lat="52.11281262338161468505859375" lon="1.43828337080776691436767578125">
        <ele>-12</ele>
        <time>2025-09-06T08:21:01.000Z</time>
        <extensions>
          <ns3:TrackPointExtension>
            <ns3:hr>164</ns3:hr>
            <ns3:cad>78</ns3:cad>
          </ns3:TrackPointExtension>
        </extensions>
      </trkpt>
      <trkpt lat="52.112829051911830902099609375" lon="1.438570283353328704833984375">
        <ele>-12.3999996185302734375</ele>
        <time>2025-09-06T08:21:09.000Z</time>
        <extensions>
          <ns3:TrackPointExtension>
            <ns3:hr>165</ns3:hr>
            <ns3:cad>77</ns3:cad>
          </ns3:TrackPointExtension>
        </extensions>
      </trkpt>
      <trkpt lat="52.1128308959305286407470703125" lon="1.4386029727756977081298828125">
        <ele>-12.3999996185302734375</ele>
        <time>2025-09-06T08:21:10.000Z</time>
        <extensions>
          <ns3:TrackPointExtension>
            <ns3:hr>164</ns3:hr>
            <ns3:cad>77</ns3:cad>
          </ns3:TrackPointExtension>
        </extensions>
      </trkpt>
      <trkpt lat="52.1128540299832820892333984375" lon="1.43872543238103389739990234375">
        <ele>-12.6000003814697265625</ele>
        <time>2025-09-06T08:21:15.000Z</time>
        <extensions>
          <ns3:TrackPointExtension>
            <ns3:hr>165</ns3:hr>
            <ns3:cad>78</ns3:cad>
          </ns3:TrackPointExtension>
        </extensions>
      </trkpt>
      <trkpt lat="52.11287565529346466064453125" lon="1.4389154501259326934814453125">
        <ele>-13</ele>
        <time>2025-09-06T08:21:21.000Z</time>
        <extensions>
          <ns3:TrackPointExtension>
            <ns3:hr>166</ns3:hr>
            <ns3:cad>77</ns3:cad>
          </ns3:TrackPointExtension>
        </extensions>
      </trkpt>
      <trkpt lat="52.11287691257894039154052734375" lon="1.4390413463115692138671875">
        <ele>-13.19999980926513671875</ele>
        <time>2025-09-06T08:21:25.000Z</time>
        <extensions>
          <ns3:TrackPointExtension>
            <ns3:hr>163</ns3:hr>
            <ns3:cad>78</ns3:cad>
          </ns3:TrackPointExtension>
        </extensions>
      </trkpt>
      <trkpt lat="52.11288277991116046905517578125" lon="1.4392289333045482635498046875">
        <ele>-13.6000003814697265625</ele>
        <time>2025-09-06T08:21:30.000Z</time>
        <extensions>
          <ns3:TrackPointExtension>
            <ns3:hr>164</ns3:hr>
            <ns3:cad>78</ns3:cad>
          </ns3:TrackPointExtension>
        </extensions>
      </trkpt>
      <trkpt lat="52.1128835342824459075927734375" lon="1.43926656804978847503662109375">
        <ele>-13.6000003814697265625</ele>
        <time>2025-09-06T08:21:31.000Z</time>
        <extensions>
          <ns3:TrackPointExtension>
            <ns3:hr>163</ns3:hr>
            <ns3:cad>78</ns3:cad>
          </ns3:TrackPointExtension>
        </extensions>
      </trkpt>
      <trkpt lat="52.11288663558661937713623046875" lon="1.43956412561237812042236328125">
        <ele>-14.19999980926513671875</ele>
        <time>2025-09-06T08:21:39.000Z</time>
        <extensions>
          <ns3:TrackPointExtension>
            <ns3:hr>165</ns3:hr>
            <ns3:cad>79</ns3:cad>
          </ns3:TrackPointExtension>
        </extensions>
      </trkpt>
      <trkpt lat="52.1129033155739307403564453125" lon="1.4397134073078632354736328125">
        <ele>-14.6000003814697265625</ele>
        <time>2025-09-06T08:21:43.000Z</time>
        <extensions>
          <ns3:TrackPointExtension>
            <ns3:hr>166</ns3:hr>
            <ns3:cad>80</ns3:cad>
          </ns3:TrackPointExtension>
        </extensions>
      </trkpt>
      <trkpt lat="52.11293139494955539703369140625" lon="1.43985900096595287322998046875">
        <ele>-14.80000019073486328125</ele>
        <time>2025-09-06T08:21:47.000Z</time>
        <extensions>
          <ns3:TrackPointExtension>
            <ns3:hr>167</ns3:hr>
            <ns3:cad>80</ns3:cad>
          </ns3:TrackPointExtension>
        </extensions>
      </trkpt>
      <trkpt lat="52.11295302025973796844482421875" lon="1.44009453244507312774658203125">
        <ele>-15.19999980926513671875</ele>
        <time>2025-09-06T08:21:54.000Z</time>
        <extensions>
          <ns3:TrackPointExtension>
            <ns3:hr>166</ns3:hr>
            <ns3:cad>80</ns3:cad>
          </ns3:TrackPointExtension>
        </extensions>
      </trkpt>
      <trkpt lat="52.1129244379699230194091796875" lon="1.440319083631038665771484375">
        <ele>-15.3999996185302734375</ele>
        <time>2025-09-06T08:22:01.000Z</time>
        <extensions>
          <ns3:TrackPointExtension>
            <ns3:hr>167</ns3:hr>
            <ns3:cad>80</ns3:cad>
          </ns3:TrackPointExtension>
        </extensions>
      </trkpt>
      <trkpt lat="52.112902142107486724853515625" lon="1.4404319040477275848388671875">
        <ele>-15.6000003814697265625</ele>
        <time>2025-09-06T08:22:05.000Z</time>
        <extensions>
          <ns3:TrackPointExtension>
            <ns3:hr>165</ns3:hr>
            <ns3:cad>80</ns3:cad>
          </ns3:TrackPointExtension>
        </extensions>
      </trkpt>
      <trkpt lat="52.11291714571416378021240234375" lon="1.44057691097259521484375">
        <ele>-15.6000003814697265625</ele>
        <time>2025-09-06T08:22:10.000Z</time>
        <extensions>
          <ns3:TrackPointExtension>
            <ns3:hr>164</ns3:hr>
            <ns3:cad>78</ns3:cad>
          </ns3:TrackPointExtension>
        </extensions>
      </trkpt>
      <trkpt lat="52.11290574632585048675537109375" lon="1.4407708682119846343994140625">
        <ele>-15.6000003814697265625</ele>
        <time>2025-09-06T08:22:17.000Z</time>
        <extensions>
          <ns3:TrackPointExtension>
            <ns3:hr>162</ns3:hr>
            <ns3:cad>78</ns3:cad>
          </ns3:TrackPointExtension>
        </extensions>
      </trkpt>
      <trkpt lat="52.11292753927409648895263671875" lon="1.440924592316150665283203125">
        <ele>-15.3999996185302734375</ele>
        <time>2025-09-06T08:22:22.000Z</time>
        <extensions>
          <ns3:TrackPointExtension>
            <ns3:hr>162</ns3:hr>
            <ns3:cad>77</ns3:cad>
          </ns3:TrackPointExtension>
        </extensions>
      </trkpt>
      <trkpt lat="52.11293173022568225860595703125" lon="1.440974883735179901123046875">
        <ele>-15.3999996185302734375</ele>
        <time>2025-09-06T08:22:24.000Z</time>
        <extensions>
          <ns3:TrackPointExtension>
            <ns3:hr>162</ns3:hr>
            <ns3:cad>78</ns3:cad>
          </ns3:TrackPointExtension>
        </extensions>
      </trkpt>
      <trkpt lat="52.1129460632801055908203125" lon="1.4410900510847568511962890625">
        <ele>-15.19999980926513671875</ele>
        <time>2025-09-06T08:22:28.000Z</time>
        <extensions>
          <ns3:TrackPointExtension>
            <ns3:hr>159</ns3:hr>
            <ns3:cad>77</ns3:cad>
          </ns3:TrackPointExtension>
        </extensions>
      </trkpt>
      <trkpt lat="52.1129500865936279296875" lon="1.441155262291431427001953125">
        <ele>-15.19999980926513671875</ele>
        <time>2025-09-06T08:22:30.000Z</time>
        <extensions>
          <ns3:TrackPointExtension>
            <ns3:hr>159</ns3:hr>
            <ns3:cad>77</ns3:cad>
          </ns3:TrackPointExtension>
        </extensions>
      </trkpt>
      <trkpt lat="52.11293826811015605926513671875" lon="1.4412446133792400360107421875">
        <ele>-15</ele>
        <time>2025-09-06T08:22:33.000Z</time>
        <extensions>
          <ns3:TrackPointExtension>
            <ns3:hr>162</ns3:hr>
            <ns3:cad>79</ns3:cad>
          </ns3:TrackPointExtension>
        </extensions>
      </trkpt>
      <trkpt lat="52.1129277907311916351318359375" lon="1.4413435198366641998291015625">
        <ele>-14.80000019073486328125</ele>
        <time>2025-09-06T08:22:36.000Z</time>
        <extensions>
          <ns3:TrackPointExtension>
            <ns3:hr>162</ns3:hr>
            <ns3:cad>79</ns3:cad>
          </ns3:TrackPointExtension>
        </extensions>
      </trkpt>
      <trkpt lat="52.1129281260073184967041015625" lon="1.4413787238299846649169921875">
        <ele>-14.6000003814697265625</ele>
        <time>2025-09-06T08:22:37.000Z</time>
        <extensions>
          <ns3:TrackPointExtension>
            <ns3:hr>163</ns3:hr>
            <ns3:cad>79</ns3:cad>
          </ns3:TrackPointExtension>
        </extensions>
      </trkpt>
      <trkpt lat="52.11292502470314502716064453125" lon="1.44166278652846813201904296875">
        <ele>-14.3999996185302734375</ele>
        <time>2025-09-06T08:22:45.000Z</time>
        <extensions>
          <ns3:TrackPointExtension>
            <ns3:hr>162</ns3:hr>
            <ns3:cad>79</ns3:cad>
          </ns3:TrackPointExtension>
        </extensions>
      </trkpt>
      <trkpt lat="52.112922929227352142333984375" lon="1.44197274930775165557861328125">
        <ele>-13.6000003814697265625</ele>
        <time>2025-09-06T08:22:54.000Z</time>
        <extensions>
          <ns3:TrackPointExtension>
            <ns3:hr>160</ns3:hr>
            <ns3:cad>78</ns3:cad>
          </ns3:TrackPointExtension>
        </extensions>
      </trkpt>
      <trkpt lat="52.11291010491549968719482421875" lon="1.44215161912143230438232421875">
        <ele>-13.6000003814697265625</ele>
        <time>2025-09-06T08:22:59.000Z</time>
        <extensions>
          <ns3:TrackPointExtension>
            <ns3:hr>161</ns3:hr>
            <ns3:cad>79</ns3:cad>
          </ns3:TrackPointExtension>
        </extensions>
      </trkpt>
      <trkpt lat="52.11290474049746990203857421875" lon="1.44221364520490169525146484375">
        <ele>-13.3999996185302734375</ele>
        <time>2025-09-06T08:23:01.000Z</time>
        <extensions>
          <ns3:TrackPointExtension>
            <ns3:hr>161</ns3:hr>
            <ns3:cad>78</ns3:cad>
          </ns3:TrackPointExtension>
        </extensions>
      </trkpt>
      <trkpt lat="52.11289233528077602386474609375" lon="1.4424536190927028656005859375">
        <ele>-13.19999980926513671875</ele>
        <time>2025-09-06T08:23:08.000Z</time>
        <extensions>
          <ns3:TrackPointExtension>
            <ns3:hr>162</ns3:hr>
            <ns3:cad>79</ns3:cad>
          </ns3:TrackPointExtension>
        </extensions>
      </trkpt>
      <trkpt lat="52.11287590675055980682373046875" lon="1.44268252886831760406494140625">
        <ele>-13.3999996185302734375</ele>
        <time>2025-09-06T08:23:15.000Z</time>
        <extensions>
          <ns3:TrackPointExtension>
            <ns3:hr>160</ns3:hr>
            <ns3:cad>78</ns3:cad>
          </ns3:TrackPointExtension>
        </extensions>
      </trkpt>
      <trkpt lat="52.11286802776157855987548828125" lon="1.44287179224193096160888671875">
        <ele>-13.3999996185302734375</ele>
        <time>2025-09-06T08:23:21.000Z</time>
        <extensions>
          <ns3:TrackPointExtension>
            <ns3:hr>163</ns3:hr>
            <ns3:cad>79</ns3:cad>
          </ns3:TrackPointExtension>
        </extensions>
      </trkpt>
      <trkpt lat="52.1128642559051513671875" lon="1.442906074225902557373046875">
        <ele>-13.3999996185302734375</ele>
        <time>2025-09-06T08:23:22.000Z</time>
        <extensions>
          <ns3:TrackPointExtension>
            <ns3:hr>162</ns3:hr>
            <ns3:cad>79</ns3:cad>
          </ns3:TrackPointExtension>
        </extensions>
      </trkpt>
      <trkpt lat="52.1128543652594089508056640625" lon="1.44308268092572689056396484375">
        <ele>-13.6000003814697265625</ele>
        <time>2025-09-06T08:23:28.000Z</time>
        <extensions>
          <ns3:TrackPointExtension>
            <ns3:hr>162</ns3:hr>
            <ns3:cad>78</ns3:cad>
          </ns3:TrackPointExtension>
        </extensions>
      </trkpt>
      <trkpt lat="52.11284078657627105712890625" lon="1.44328795373439788818359375">
        <ele>-14</ele>
        <time>2025-09-06T08:23:34.000Z</time>
        <extensions>
          <ns3:TrackPointExtension>
            <ns3:hr>162</ns3:hr>
            <ns3:cad>79</ns3:cad>
          </ns3:TrackPointExtension>
        </extensions>
      </trkpt>
      <trkpt lat="52.1128107793629169464111328125" lon="1.4435368962585926055908203125">
        <ele>-14</ele>
        <time>2025-09-06T08:23:41.000Z</time>
        <extensions>
          <ns3:TrackPointExtension>
            <ns3:hr>163</ns3:hr>
            <ns3:cad>79</ns3:cad>
          </ns3:TrackPointExtension>
        </extensions>
      </trkpt>
      <trkpt lat="52.11279644630849361419677734375" lon="1.443664468824863433837890625">
        <ele>-14</ele>
        <time>2025-09-06T08:23:45.000Z</time>
        <extensions>
          <ns3:TrackPointExtension>
            <ns3:hr>160</ns3:hr>
            <ns3:cad>77</ns3:cad>
          </ns3:TrackPointExtension>
        </extensions>
      </trkpt>
      <trkpt lat="52.1127906627953052520751953125" lon="1.443766392767429351806640625">
        <ele>-14</ele>
        <time>2025-09-06T08:23:48.000Z</time>
        <extensions>
          <ns3:TrackPointExtension>
            <ns3:hr>162</ns3:hr>
            <ns3:cad>78</ns3:cad>
          </ns3:TrackPointExtension>
        </extensions>
      </trkpt>
      <trkpt lat="52.11279108189046382904052734375" lon="1.444015838205814361572265625">
        <ele>-14.19999980926513671875</ele>
        <time>2025-09-06T08:23:55.000Z</time>
        <extensions>
          <ns3:TrackPointExtension>
            <ns3:hr>162</ns3:hr>
            <ns3:cad>79</ns3:cad>
          </ns3:TrackPointExtension>
        </extensions>
      </trkpt>
      <trkpt lat="52.11277515627443790435791015625" lon="1.4443053491413593292236328125">
        <ele>-14.3999996185302734375</ele>
        <time>2025-09-06T08:24:03.000Z</time>
        <extensions>
          <ns3:TrackPointExtension>
            <ns3:hr>163</ns3:hr>
            <ns3:cad>79</ns3:cad>
          </ns3:TrackPointExtension>
        </extensions>
      </trkpt>
      <trkpt lat="52.1127624996006488800048828125" lon="1.44455923698842525482177734375">
        <ele>-14.3999996185302734375</ele>
        <time>2025-09-06T08:24:10.000Z</time>
        <extensions>
          <ns3:TrackPointExtension>
            <ns3:hr>163</ns3:hr>
            <ns3:cad>80</ns3:cad>
          </ns3:TrackPointExtension>
        </extensions>
      </trkpt>
      <trkpt lat="52.112743556499481201171875" lon="1.44479627721011638641357421875">
        <ele>-14.19999980926513671875</ele>
        <time>2025-09-06T08:24:17.000Z</time>
        <extensions>
          <ns3:TrackPointExtension>
            <ns3:hr>162</ns3:hr>
            <ns3:cad>79</ns3:cad>
          </ns3:TrackPointExtension>
        </extensions>
      </trkpt>
      <trkpt lat="52.11270675994455814361572265625" lon="1.445053517818450927734375">
        <ele>-14</ele>
        <time>2025-09-06T08:24:25.000Z</time>
        <extensions>
          <ns3:TrackPointExtension>
            <ns3:hr>161</ns3:hr>
            <ns3:cad>80</ns3:cad>
          </ns3:TrackPointExtension>
        </extensions>
      </trkpt>
      <trkpt lat="52.11268379352986812591552734375" lon="1.44529935903847217559814453125">
        <ele>-14</ele>
        <time>2025-09-06T08:24:33.000Z</time>
        <extensions>
          <ns3:TrackPointExtension>
            <ns3:hr>161</ns3:hr>
            <ns3:cad>79</ns3:cad>
          </ns3:TrackPointExtension>
        </extensions>
      </trkpt>
      <trkpt lat="52.1126793511211872100830078125" lon="1.44556690938770771026611328125">
        <ele>-14</ele>
        <time>2025-09-06T08:24:41.000Z</time>
        <extensions>
          <ns3:TrackPointExtension>
            <ns3:hr>161</ns3:hr>
            <ns3:cad>79</ns3:cad>
          </ns3:TrackPointExtension>
        </extensions>
      </trkpt>
      <trkpt lat="52.112674154341220855712890625" lon="1.44582658074796199798583984375">
        <ele>-13.6000003814697265625</ele>
        <time>2025-09-06T08:24:48.000Z</time>
        <extensions>
          <ns3:TrackPointExtension>
            <ns3:hr>161</ns3:hr>
            <ns3:cad>80</ns3:cad>
          </ns3:TrackPointExtension>
        </extensions>
      </trkpt>
      <trkpt lat="52.11266770027577877044677734375" lon="1.4460407383739948272705078125">
        <ele>-13.3999996185302734375</ele>
        <time>2025-09-06T08:24:54.000Z</time>
        <extensions>
          <ns3:TrackPointExtension>
            <ns3:hr>160</ns3:hr>
            <ns3:cad>80</ns3:cad>
          </ns3:TrackPointExtension>
        </extensions>
      </trkpt>
      <trkpt lat="52.11265194229781627655029296875" lon="1.4462710730731487274169921875">
        <ele>-13.3999996185302734375</ele>
        <time>2025-09-06T08:25:01.000Z</time>
        <extensions>
          <ns3:TrackPointExtension>
            <ns3:hr>161</ns3:hr>
            <ns3:cad>79</ns3:cad>
          </ns3:TrackPointExtension>
        </extensions>
      </trkpt>
      <trkpt lat="52.11262964643537998199462890625" lon="1.44647777080535888671875">
        <ele>-13.3999996185302734375</ele>
        <time>2025-09-06T08:25:07.000Z</time>
        <extensions>
          <ns3:TrackPointExtension>
            <ns3:hr>159</ns3:hr>
            <ns3:cad>79</ns3:cad>
          </ns3:TrackPointExtension>
        </extensions>
      </trkpt>
      <trkpt lat="52.11260466836392879486083984375" lon="1.44664666615426540374755859375">
        <ele>-13.80000019073486328125</ele>
        <time>2025-09-06T08:25:13.000Z</time>
        <extensions>
          <ns3:TrackPointExtension>
            <ns3:hr>160</ns3:hr>
            <ns3:cad>79</ns3:cad>
          </ns3:TrackPointExtension>
        </extensions>
      </trkpt>
      <trkpt lat="52.11261036805808544158935546875" lon="1.4467149786651134490966796875">
        <ele>-13.80000019073486328125</ele>
        <time>2025-09-06T08:25:19.000Z</time>
        <extensions>
          <ns3:TrackPointExtension>
            <ns3:hr>159</ns3:hr>
            <ns3:cad>0</ns3:cad>
          </ns3:TrackPointExtension>
        </extensions>
      </trkpt>
      <trkpt lat="52.11265747435390949249267578125" lon="1.4467267133295536041259765625">
        <ele>-13.3999996185302734375</ele>
        <time>2025-09-06T08:25:33.000Z</time>
        <extensions>
          <ns3:TrackPointExtension>
            <ns3:hr>156</ns3:hr>
            <ns3:cad>0</ns3:cad>
          </ns3:TrackPointExtension>
        </extensions>
      </trkpt>
      <trkpt lat="52.11268815211951732635498046875" lon="1.44673668779432773590087890625">
        <ele>-13.19999980926513671875</ele>
        <time>2025-09-06T08:25:36.000Z</time>
        <extensions>
          <ns3:TrackPointExtension>
            <ns3:hr>152</ns3:hr>
            <ns3:cad>0</ns3:cad>
          </ns3:TrackPointExtension>
        </extensions>
      </trkpt>
      <trkpt lat="52.112684547901153564453125" lon="1.446738280355930328369140625">
        <ele>-13.19999980926513671875</ele>
        <time>2025-09-06T08:25:41.000Z</time>
        <extensions>
          <ns3:TrackPointExtension>
            <ns3:hr>150</ns3:hr>
            <ns3:cad>0</ns3:cad>
          </ns3:TrackPointExtension>
        </extensions>
      </trkpt>
      <trkpt lat="52.11268513463437557220458984375" lon="1.44673601724207401275634765625">
        <ele>-13.3999996185302734375</ele>
        <time>2025-09-06T08:25:45.000Z</time>
        <extensions>
          <ns3:TrackPointExtension>
            <ns3:hr>147</ns3:hr>
            <ns3:cad>0</ns3:cad>
          </ns3:TrackPointExtension>
        </extensions>
      </trkpt>
      <trkpt lat="52.11269552819430828094482421875" lon="1.44675026647746562957763671875">
        <ele>-13.3999996185302734375</ele>
        <time>2025-09-06T08:25:48.000Z</time>
        <extensions>
          <ns3:TrackPointExtension>
            <ns3:hr>144</ns3:hr>
            <ns3:cad>0</ns3:cad>
          </ns3:TrackPointExtension>
        </extensions>
      </trkpt>
      <trkpt lat="52.112723775207996368408203125" lon="1.44677055068314075469970703125">
        <ele>-13.3999996185302734375</ele>
        <time>2025-09-06T08:25:51.000Z</time>
        <extensions>
          <ns3:TrackPointExtension>
            <ns3:hr>141</ns3:hr>
            <ns3:cad>75</ns3:cad>
          </ns3:TrackPointExtension>
        </extensions>
      </trkpt>
      <trkpt lat="52.11273861117660999298095703125" lon="1.44677859731018543243408203125">
        <ele>-13.3999996185302734375</ele>
        <time>2025-09-06T08:25:52.000Z</time>
        <extensions>
          <ns3:TrackPointExtension>
            <ns3:hr>141</ns3:hr>
            <ns3:cad>77</ns3:cad>
          </ns3:TrackPointExtension>
        </extensions>
      </trkpt>
      <trkpt lat="52.11276836693286895751953125" lon="1.446789912879467010498046875">
        <ele>-13.6000003814697265625</ele>
        <time>2025-09-06T08:25:54.000Z</time>
        <extensions>
          <ns3:TrackPointExtension>
            <ns3:hr>144</ns3:hr>
            <ns3:cad>79</ns3:cad>
          </ns3:TrackPointExtension>
        </extensions>
      </trkpt>
      <trkpt lat="52.11281941272318363189697265625" lon="1.446793936192989349365234375">
        <ele>-13.6000003814697265625</ele>
        <time>2025-09-06T08:25:57.000Z</time>
        <extensions>
          <ns3:TrackPointExtension>
            <ns3:hr>148</ns3:hr>
            <ns3:cad>80</ns3:cad>
          </ns3:TrackPointExtension>
        </extensions>
      </trkpt>
      <trkpt lat="52.11283600889146327972412109375" lon="1.446789912879467010498046875">
        <ele>-13.3999996185302734375</ele>
        <time>2025-09-06T08:25:58.000Z</time>
        <extensions>
          <ns3:TrackPointExtension>
            <ns3:hr>153</ns3:hr>
            <ns3:cad>80</ns3:cad>
          </ns3:TrackPointExtension>
        </extensions>
      </trkpt>
      <trkpt lat="52.112855203449726104736328125" lon="1.44678530283272266387939453125">
        <ele>-13.3999996185302734375</ele>
        <time>2025-09-06T08:25:59.000Z</time>
        <extensions>
          <ns3:TrackPointExtension>
            <ns3:hr>153</ns3:hr>
            <ns3:cad>80</ns3:cad>
          </ns3:TrackPointExtension>
        </extensions>
      </trkpt>
      <trkpt lat="52.1128857135772705078125" lon="1.4467786811292171478271484375">
        <ele>-13.3999996185302734375</ele>
        <time>2025-09-06T08:26:01.000Z</time>
        <extensions>
          <ns3:TrackPointExtension>
            <ns3:hr>154</ns3:hr>
            <ns3:cad>81</ns3:cad>
          </ns3:TrackPointExtension>
        </extensions>
      </trkpt>
      <trkpt lat="52.112932316958904266357421875" lon="1.4467763341963291168212890625">
        <ele>-13.19999980926513671875</ele>
        <time>2025-09-06T08:26:04.000Z</time>
        <extensions>
          <ns3:TrackPointExtension>
            <ns3:hr>149</ns3:hr>
            <ns3:cad>81</ns3:cad>
          </ns3:TrackPointExtension>
        </extensions>
      </trkpt>
      <trkpt lat="52.112951762974262237548828125" lon="1.446773149073123931884765625">
        <ele>-13.19999980926513671875</ele>
        <time>2025-09-06T08:26:05.000Z</time>
        <extensions>
          <ns3:TrackPointExtension>
            <ns3:hr>149</ns3:hr>
            <ns3:cad>81</ns3:cad>
          </ns3:TrackPointExtension>
        </extensions>
      </trkpt>
      <trkpt lat="52.11306885816156864166259765625" lon="1.44676837138831615447998046875">
        <ele>-13.19999980926513671875</ele>
        <time>2025-09-06T08:26:11.000Z</time>
        <extensions>
          <ns3:TrackPointExtension>
            <ns3:hr>150</ns3:hr>
            <ns3:cad>81</ns3:cad>
          </ns3:TrackPointExtension>
        </extensions>
      </trkpt>
      <trkpt lat="52.1131433732807636260986328125" lon="1.44676753319799900054931640625">
        <ele>-13</ele>
        <time>2025-09-06T08:26:17.000Z</time>
        <extensions>
          <ns3:TrackPointExtension>
            <ns3:hr>150</ns3:hr>
            <ns3:cad>80</ns3:cad>
          </ns3:TrackPointExtension>
        </extensions>
      </trkpt>
      <trkpt lat="52.1131658367812633514404296875" lon="1.44676585681736469268798828125">
        <ele>-12.80000019073486328125</ele>
        <time>2025-09-06T08:26:19.000Z</time>
        <extensions>
          <ns3:TrackPointExtension>
            <ns3:hr>153</ns3:hr>
            <ns3:cad>81</ns3:cad>
          </ns3:TrackPointExtension>
        </extensions>
      </trkpt>
      <trkpt lat="52.1132412739098072052001953125" lon="1.4467645995318889617919921875">
        <ele>-12.80000019073486328125</ele>
        <time>2025-09-06T08:26:24.000Z</time>
        <extensions>
          <ns3:TrackPointExtension>
            <ns3:hr>156</ns3:hr>
            <ns3:cad>81</ns3:cad>
          </ns3:TrackPointExtension>
        </extensions>
      </trkpt>
      <trkpt lat="52.11334512569010257720947265625" lon="1.44676669500768184661865234375">
        <ele>-12.3999996185302734375</ele>
        <time>2025-09-06T08:26:29.000Z</time>
        <extensions>
          <ns3:TrackPointExtension>
            <ns3:hr>155</ns3:hr>
            <ns3:cad>80</ns3:cad>
          </ns3:TrackPointExtension>
        </extensions>
      </trkpt>
      <trkpt lat="52.11338795721530914306640625" lon="1.44677373580634593963623046875">
        <ele>-12.3999996185302734375</ele>
        <time>2025-09-06T08:26:31.000Z</time>
        <extensions>
          <ns3:TrackPointExtension>
            <ns3:hr>155</ns3:hr>
            <ns3:cad>80</ns3:cad>
          </ns3:TrackPointExtension>
        </extensions>
      </trkpt>
      <trkpt lat="52.1135353110730648040771484375" lon="1.44679435528814792633056640625">
        <ele>-11.3999996185302734375</ele>
        <time>2025-09-06T08:26:39.000Z</time>
        <extensions>
          <ns3:TrackPointExtension>
            <ns3:hr>154</ns3:hr>
            <ns3:cad>79</ns3:cad>
          </ns3:TrackPointExtension>
        </extensions>
      </trkpt>
      <trkpt lat="52.11357261054217815399169921875" lon="1.44680567085742950439453125">
        <ele>-11.19999980926513671875</ele>
        <time>2025-09-06T08:26:41.000Z</time>
        <extensions>
          <ns3:TrackPointExtension>
            <ns3:hr>152</ns3:hr>
            <ns3:cad>79</ns3:cad>
          </ns3:TrackPointExtension>
        </extensions>
      </trkpt>
      <trkpt lat="52.1136003546416759490966796875" lon="1.44681178964674472808837890625">
        <ele>-11.19999980926513671875</ele>
        <time>2025-09-06T08:26:43.000Z</time>
        <extensions>
          <ns3:TrackPointExtension>
            <ns3:hr>156</ns3:hr>
            <ns3:cad>79</ns3:cad>
          </ns3:TrackPointExtension>
        </extensions>
      </trkpt>
      <trkpt lat="52.11369372904300689697265625" lon="1.44684095866978168487548828125">
        <ele>-11</ele>
        <time>2025-09-06T08:26:48.000Z</time>
        <extensions>
          <ns3:TrackPointExtension>
            <ns3:hr>154</ns3:hr>
            <ns3:cad>80</ns3:cad>
          </ns3:TrackPointExtension>
        </extensions>
      </trkpt>
      <trkpt lat="52.1137586049735546112060546875" lon="1.44684934057295322418212890625">
        <ele>-10.80000019073486328125</ele>
        <time>2025-09-06T08:26:51.000Z</time>
        <extensions>
          <ns3:TrackPointExtension>
            <ns3:hr>151</ns3:hr>
            <ns3:cad>79</ns3:cad>
          </ns3:TrackPointExtension>
        </extensions>
      </trkpt>
      <trkpt lat="52.11382356472313404083251953125" lon="1.44685118459165096282958984375">
        <ele>-10.3999996185302734375</ele>
        <time>2025-09-06T08:26:54.000Z</time>
        <extensions>
          <ns3:TrackPointExtension>
            <ns3:hr>153</ns3:hr>
            <ns3:cad>79</ns3:cad>
          </ns3:TrackPointExtension>
        </extensions>
      </trkpt>
      <trkpt lat="52.1138441003859043121337890625" lon="1.4468598179519176483154296875">
        <ele>-10.19999980926513671875</ele>
        <time>2025-09-06T08:26:55.000Z</time>
        <extensions>
          <ns3:TrackPointExtension>
            <ns3:hr>150</ns3:hr>
            <ns3:cad>79</ns3:cad>
          </ns3:TrackPointExtension>
        </extensions>
      </trkpt>
      <trkpt lat="52.1138668991625308990478515625" lon="1.44687113352119922637939453125">
        <ele>-10</ele>
        <time>2025-09-06T08:26:56.000Z</time>
        <extensions>
          <ns3:TrackPointExtension>
            <ns3:hr>151</ns3:hr>
            <ns3:cad>79</ns3:cad>
          </ns3:TrackPointExtension>
        </extensions>
      </trkpt>
      <trkpt lat="52.113943509757518768310546875" lon="1.44687331281602382659912109375">
        <ele>-9.3999996185302734375</ele>
        <time>2025-09-06T08:27:00.000Z</time>
        <extensions>
          <ns3:TrackPointExtension>
            <ns3:hr>154</ns3:hr>
            <ns3:cad>79</ns3:cad>
          </ns3:TrackPointExtension>
        </extensions>
      </trkpt>
      <trkpt lat="52.113959603011608123779296875" lon="1.44686476327478885650634765625">
        <ele>-9.3999996185302734375</ele>
        <time>2025-09-06T08:27:01.000Z</time>
        <extensions>
          <ns3:TrackPointExtension>
            <ns3:hr>153</ns3:hr>
            <ns3:cad>79</ns3:cad>
          </ns3:TrackPointExtension>
        </extensions>
      </trkpt>
      <trkpt lat="52.114024646580219268798828125" lon="1.44686358980834484100341796875">
        <ele>-9</ele>
        <time>2025-09-06T08:27:04.000Z</time>
        <extensions>
          <ns3:TrackPointExtension>
            <ns3:hr>154</ns3:hr>
            <ns3:cad>80</ns3:cad>
          </ns3:TrackPointExtension>
        </extensions>
      </trkpt>
      <trkpt lat="52.114205695688724517822265625" lon="1.4468814432621002197265625">
        <ele>-8.6000003814697265625</ele>
        <time>2025-09-06T08:27:12.000Z</time>
        <extensions>
          <ns3:TrackPointExtension>
            <ns3:hr>153</ns3:hr>
            <ns3:cad>79</ns3:cad>
          </ns3:TrackPointExtension>
        </extensions>
      </trkpt>
      <trkpt lat="52.1143409796059131622314453125" lon="1.4469003863632678985595703125">
        <ele>-8.3999996185302734375</ele>
        <time>2025-09-06T08:27:18.000Z</time>
        <extensions>
          <ns3:TrackPointExtension>
            <ns3:hr>152</ns3:hr>
            <ns3:cad>80</ns3:cad>
          </ns3:TrackPointExtension>
        </extensions>
      </trkpt>
      <trkpt lat="52.114386744797229766845703125" lon="1.44691052846610546112060546875">
        <ele>-8.19999980926513671875</ele>
        <time>2025-09-06T08:27:20.000Z</time>
        <extensions>
          <ns3:TrackPointExtension>
            <ns3:hr>153</ns3:hr>
            <ns3:cad>80</ns3:cad>
          </ns3:TrackPointExtension>
        </extensions>
      </trkpt>
      <trkpt lat="52.11458229459822177886962890625" lon="1.4469449780881404876708984375">
        <ele>-7.599999904632568359375</ele>
        <time>2025-09-06T08:27:28.000Z</time>
        <extensions>
          <ns3:TrackPointExtension>
            <ns3:hr>154</ns3:hr>
            <ns3:cad>80</ns3:cad>
          </ns3:TrackPointExtension>
        </extensions>
      </trkpt>
      <trkpt lat="52.1147082746028900146484375" lon="1.446975655853748321533203125">
        <ele>-7.19999980926513671875</ele>
        <time>2025-09-06T08:27:33.000Z</time>
        <extensions>
          <ns3:TrackPointExtension>
            <ns3:hr>152</ns3:hr>
            <ns3:cad>78</ns3:cad>
          </ns3:TrackPointExtension>
        </extensions>
      </trkpt>
      <trkpt lat="52.1147751621901988983154296875" lon="1.44698998890817165374755859375">
        <ele>-7.19999980926513671875</ele>
        <time>2025-09-06T08:27:36.000Z</time>
        <extensions>
          <ns3:TrackPointExtension>
            <ns3:hr>151</ns3:hr>
            <ns3:cad>78</ns3:cad>
          </ns3:TrackPointExtension>
        </extensions>
      </trkpt>
      <trkpt lat="52.114816568791866302490234375" lon="1.4469882287085056304931640625">
        <ele>-6.400000095367431640625</ele>
        <time>2025-09-06T08:27:41.000Z</time>
        <extensions>
          <ns3:TrackPointExtension>
            <ns3:hr>153</ns3:hr>
            <ns3:cad>0</ns3:cad>
          </ns3:TrackPointExtension>
        </extensions>
      </trkpt>
      <trkpt lat="52.114831991493701934814453125" lon="1.44699283875524997711181640625">
        <ele>-6.400000095367431640625</ele>
        <time>2025-09-06T08:27:43.000Z</time>
        <extensions>
          <ns3:TrackPointExtension>
            <ns3:hr>150</ns3:hr>
            <ns3:cad>0</ns3:cad>
          </ns3:TrackPointExtension>
        </extensions>
      </trkpt>
      <trkpt lat="52.11489745415747165679931640625" lon="1.44701597280800342559814453125">
        <ele>-6.19999980926513671875</ele>
        <time>2025-09-06T08:27:50.000Z</time>
        <extensions>
          <ns3:TrackPointExtension>
            <ns3:hr>151</ns3:hr>
            <ns3:cad>63</ns3:cad>
          </ns3:TrackPointExtension>
        </extensions>
      </trkpt>
      <trkpt lat="52.11492578499019145965576171875" lon="1.4470438845455646514892578125">
        <ele>-6.19999980926513671875</ele>
        <time>2025-09-06T08:27:52.000Z</time>
        <extensions>
          <ns3:TrackPointExtension>
            <ns3:hr>151</ns3:hr>
            <ns3:cad>0</ns3:cad>
          </ns3:TrackPointExtension>
        </extensions>
      </trkpt>
      <trkpt lat="52.1149387769401073455810546875" lon="1.447052769362926483154296875">
        <ele>-6.19999980926513671875</ele>
        <time>2025-09-06T08:27:53.000Z</time>
        <extensions>
          <ns3:TrackPointExtension>
            <ns3:hr>148</ns3:hr>
            <ns3:cad>0</ns3:cad>
          </ns3:TrackPointExtension>
        </extensions>
      </trkpt>
      <trkpt lat="52.11496383883059024810791015625" lon="1.447091996669769287109375">
        <ele>-6</ele>
        <time>2025-09-06T08:27:56.000Z</time>
        <extensions>
          <ns3:TrackPointExtension>
            <ns3:hr>145</ns3:hr>
            <ns3:cad>0</ns3:cad>
          </ns3:TrackPointExtension>
        </extensions>
      </trkpt>
      <trkpt lat="52.11500591598451137542724609375" lon="1.44722166471183300018310546875">
        <ele>-5.599999904632568359375</ele>
        <time>2025-09-06T08:28:02.000Z</time>
        <extensions>
          <ns3:TrackPointExtension>
            <ns3:hr>143</ns3:hr>
            <ns3:cad>57</ns3:cad>
          </ns3:TrackPointExtension>
        </extensions>
      </trkpt>
      <trkpt lat="52.114961408078670501708984375" lon="1.44738896749913692474365234375">
        <ele>-5.599999904632568359375</ele>
        <time>2025-09-06T08:28:08.000Z</time>
        <extensions>
          <ns3:TrackPointExtension>
            <ns3:hr>143</ns3:hr>
            <ns3:cad>77</ns3:cad>
          </ns3:TrackPointExtension>
        </extensions>
      </trkpt>
      <trkpt lat="52.11485671810805797576904296875" lon="1.44756448455154895782470703125">
        <ele>-5.599999904632568359375</ele>
        <time>2025-09-06T08:28:15.000Z</time>
        <extensions>
          <ns3:TrackPointExtension>
            <ns3:hr>146</ns3:hr>
            <ns3:cad>79</ns3:cad>
          </ns3:TrackPointExtension>
        </extensions>
      </trkpt>
      <trkpt lat="52.11484079249203205108642578125" lon="1.44758728332817554473876953125">
        <ele>-5.599999904632568359375</ele>
        <time>2025-09-06T08:28:16.000Z</time>
        <extensions>
          <ns3:TrackPointExtension>
            <ns3:hr>149</ns3:hr>
            <ns3:cad>79</ns3:cad>
          </ns3:TrackPointExtension>
        </extensions>
      </trkpt>
      <trkpt lat="52.11477172560989856719970703125" lon="1.44768317230045795440673828125">
        <ele>-5.80000019073486328125</ele>
        <time>2025-09-06T08:28:20.000Z</time>
        <extensions>
          <ns3:TrackPointExtension>
            <ns3:hr>152</ns3:hr>
            <ns3:cad>80</ns3:cad>
          </ns3:TrackPointExtension>
        </extensions>
      </trkpt>
      <trkpt lat="52.11471640504896640777587890625" lon="1.44774721004068851470947265625">
        <ele>-5.80000019073486328125</ele>
        <time>2025-09-06T08:28:23.000Z</time>
        <extensions>
          <ns3:TrackPointExtension>
            <ns3:hr>155</ns3:hr>
            <ns3:cad>81</ns3:cad>
          </ns3:TrackPointExtension>
        </extensions>
      </trkpt>
      <trkpt lat="52.1146983839571475982666015625" lon="1.44777051173150539398193359375">
        <ele>-5.80000019073486328125</ele>
        <time>2025-09-06T08:28:24.000Z</time>
        <extensions>
          <ns3:TrackPointExtension>
            <ns3:hr>157</ns3:hr>
            <ns3:cad>81</ns3:cad>
          </ns3:TrackPointExtension>
        </extensions>
      </trkpt>
      <trkpt lat="52.1146680414676666259765625" lon="1.44781057722866535186767578125">
        <ele>-6</ele>
        <time>2025-09-06T08:28:26.000Z</time>
        <extensions>
          <ns3:TrackPointExtension>
            <ns3:hr>160</ns3:hr>
            <ns3:cad>81</ns3:cad>
          </ns3:TrackPointExtension>
        </extensions>
      </trkpt>
      <trkpt lat="52.11455698125064373016357421875" lon="1.44796715117990970611572265625">
        <ele>-6.400000095367431640625</ele>
        <time>2025-09-06T08:28:33.000Z</time>
        <extensions>
          <ns3:TrackPointExtension>
            <ns3:hr>162</ns3:hr>
            <ns3:cad>81</ns3:cad>
          </ns3:TrackPointExtension>
        </extensions>
      </trkpt>
      <trkpt lat="52.11443410255014896392822265625" lon="1.4481633715331554412841796875">
        <ele>-6.599999904632568359375</ele>
        <time>2025-09-06T08:28:42.000Z</time>
        <extensions>
          <ns3:TrackPointExtension>
            <ns3:hr>163</ns3:hr>
            <ns3:cad>81</ns3:cad>
          </ns3:TrackPointExtension>
        </extensions>
      </trkpt>
      <trkpt lat="52.11428758688271045684814453125" lon="1.44834794104099273681640625">
        <ele>-6.599999904632568359375</ele>
        <time>2025-09-06T08:28:52.000Z</time>
        <extensions>
          <ns3:TrackPointExtension>
            <ns3:hr>163</ns3:hr>
            <ns3:cad>81</ns3:cad>
          </ns3:TrackPointExtension>
        </extensions>
      </trkpt>
      <trkpt lat="52.11417946033179759979248046875" lon="1.44852555356919765472412109375">
        <ele>-6.400000095367431640625</ele>
        <time>2025-09-06T08:29:00.000Z</time>
        <extensions>
          <ns3:TrackPointExtension>
            <ns3:hr>161</ns3:hr>
            <ns3:cad>81</ns3:cad>
          </ns3:TrackPointExtension>
        </extensions>
      </trkpt>
      <trkpt lat="52.1141176857054233551025390625" lon="1.44868992269039154052734375">
        <ele>-6.400000095367431640625</ele>
        <time>2025-09-06T08:29:05.000Z</time>
        <extensions>
          <ns3:TrackPointExtension>
            <ns3:hr>164</ns3:hr>
            <ns3:cad>81</ns3:cad>
          </ns3:TrackPointExtension>
        </extensions>
      </trkpt>
      <trkpt lat="52.1140590123832225799560546875" lon="1.448797881603240966796875">
        <ele>-6.400000095367431640625</ele>
        <time>2025-09-06T08:29:09.000Z</time>
        <extensions>
          <ns3:TrackPointExtension>
            <ns3:hr>159</ns3:hr>
            <ns3:cad>81</ns3:cad>
          </ns3:TrackPointExtension>
        </extensions>
      </trkpt>
      <trkpt lat="52.11398483254015445709228515625" lon="1.4489172399044036865234375">
        <ele>-6.400000095367431640625</ele>
        <time>2025-09-06T08:29:14.000Z</time>
        <extensions>
          <ns3:TrackPointExtension>
            <ns3:hr>156</ns3:hr>
            <ns3:cad>80</ns3:cad>
          </ns3:TrackPointExtension>
        </extensions>
      </trkpt>
      <trkpt lat="52.1139371395111083984375" lon="1.44900114275515079498291015625">
        <ele>-6.400000095367431640625</ele>
        <time>2025-09-06T08:29:17.000Z</time>
        <extensions>
          <ns3:TrackPointExtension>
            <ns3:hr>158</ns3:hr>
            <ns3:cad>81</ns3:cad>
          </ns3:TrackPointExtension>
        </extensions>
      </trkpt>
      <trkpt lat="52.11381032131612300872802734375" lon="1.44918906502425670623779296875">
        <ele>-6.80000019073486328125</ele>
        <time>2025-09-06T08:29:25.000Z</time>
        <extensions>
          <ns3:TrackPointExtension>
            <ns3:hr>159</ns3:hr>
            <ns3:cad>80</ns3:cad>
          </ns3:TrackPointExtension>
        </extensions>
      </trkpt>
      <trkpt lat="52.11369984783232212066650390625" lon="1.449415124952793121337890625">
        <ele>-7.19999980926513671875</ele>
        <time>2025-09-06T08:29:32.000Z</time>
        <extensions>
          <ns3:TrackPointExtension>
            <ns3:hr>157</ns3:hr>
            <ns3:cad>80</ns3:cad>
          </ns3:TrackPointExtension>
        </extensions>
      </trkpt>
      <trkpt lat="52.11361368186771869659423828125" lon="1.4495663344860076904296875">
        <ele>-7.19999980926513671875</ele>
        <time>2025-09-06T08:29:37.000Z</time>
        <extensions>
          <ns3:TrackPointExtension>
            <ns3:hr>157</ns3:hr>
            <ns3:cad>81</ns3:cad>
          </ns3:TrackPointExtension>
        </extensions>
      </trkpt>
      <trkpt lat="52.113579399883747100830078125" lon="1.4496503211557865142822265625">
        <ele>-7.400000095367431640625</ele>
        <time>2025-09-06T08:29:39.000Z</time>
        <extensions>
          <ns3:TrackPointExtension>
            <ns3:hr>160</ns3:hr>
            <ns3:cad>81</ns3:cad>
          </ns3:TrackPointExtension>
        </extensions>
      </trkpt>
      <trkpt lat="52.113565988838672637939453125" lon="1.449694074690341949462890625">
        <ele>-7.400000095367431640625</ele>
        <time>2025-09-06T08:29:40.000Z</time>
        <extensions>
          <ns3:TrackPointExtension>
            <ns3:hr>159</ns3:hr>
            <ns3:cad>81</ns3:cad>
          </ns3:TrackPointExtension>
        </extensions>
      </trkpt>
      <trkpt lat="52.1134628914296627044677734375" lon="1.4499740302562713623046875">
        <ele>-8</ele>
        <time>2025-09-06T08:29:48.000Z</time>
        <extensions>
          <ns3:TrackPointExtension>
            <ns3:hr>159</ns3:hr>
            <ns3:cad>80</ns3:cad>
          </ns3:TrackPointExtension>
        </extensions>
      </trkpt>
      <trkpt lat="52.11344118230044841766357421875" lon="1.45004871301352977752685546875">
        <ele>-8.3999996185302734375</ele>
        <time>2025-09-06T08:29:50.000Z</time>
        <extensions>
          <ns3:TrackPointExtension>
            <ns3:hr>159</ns3:hr>
            <ns3:cad>81</ns3:cad>
          </ns3:TrackPointExtension>
        </extensions>
      </trkpt>
      <trkpt lat="52.11337060667574405670166015625" lon="1.4502645470201969146728515625">
        <ele>-8.80000019073486328125</ele>
        <time>2025-09-06T08:29:56.000Z</time>
        <extensions>
          <ns3:TrackPointExtension>
            <ns3:hr>156</ns3:hr>
            <ns3:cad>81</ns3:cad>
          </ns3:TrackPointExtension>
        </extensions>
      </trkpt>
      <trkpt lat="52.11334696970880031585693359375" lon="1.45034140907227993011474609375">
        <ele>-9</ele>
        <time>2025-09-06T08:29:58.000Z</time>
        <extensions>
          <ns3:TrackPointExtension>
            <ns3:hr>158</ns3:hr>
            <ns3:cad>80</ns3:cad>
          </ns3:TrackPointExtension>
        </extensions>
      </trkpt>
      <trkpt lat="52.11329751648008823394775390625" lon="1.4504781179130077362060546875">
        <ele>-9.3999996185302734375</ele>
        <time>2025-09-06T08:30:02.000Z</time>
        <extensions>
          <ns3:TrackPointExtension>
            <ns3:hr>159</ns3:hr>
            <ns3:cad>81</ns3:cad>
          </ns3:TrackPointExtension>
        </extensions>
      </trkpt>
      <trkpt lat="52.1132255159318447113037109375" lon="1.4506722427904605865478515625">
        <ele>-9.6000003814697265625</ele>
        <time>2025-09-06T08:30:08.000Z</time>
        <extensions>
          <ns3:TrackPointExtension>
            <ns3:hr>159</ns3:hr>
            <ns3:cad>81</ns3:cad>
          </ns3:TrackPointExtension>
        </extensions>
      </trkpt>
      <trkpt lat="52.11315334774553775787353515625" lon="1.4509585686028003692626953125">
        <ele>-10</ele>
        <time>2025-09-06T08:30:16.000Z</time>
        <extensions>
          <ns3:TrackPointExtension>
            <ns3:hr>158</ns3:hr>
            <ns3:cad>80</ns3:cad>
          </ns3:TrackPointExtension>
        </extensions>
      </trkpt>
      <trkpt lat="52.1131252683699131011962890625" lon="1.45113936625421047210693359375">
        <ele>-10.3999996185302734375</ele>
        <time>2025-09-06T08:30:21.000Z</time>
        <extensions>
          <ns3:TrackPointExtension>
            <ns3:hr>157</ns3:hr>
            <ns3:cad>80</ns3:cad>
          </ns3:TrackPointExtension>
        </extensions>
      </trkpt>
      <trkpt lat="52.11311328224837779998779296875" lon="1.45120927132666110992431640625">
        <ele>-10.3999996185302734375</ele>
        <time>2025-09-06T08:30:23.000Z</time>
        <extensions>
          <ns3:TrackPointExtension>
            <ns3:hr>157</ns3:hr>
            <ns3:cad>80</ns3:cad>
          </ns3:TrackPointExtension>
        </extensions>
      </trkpt>
      <trkpt lat="52.11307355202734470367431640625" lon="1.45151034928858280181884765625">
        <ele>-10.80000019073486328125</ele>
        <time>2025-09-06T08:30:31.000Z</time>
        <extensions>
          <ns3:TrackPointExtension>
            <ns3:hr>158</ns3:hr>
            <ns3:cad>80</ns3:cad>
          </ns3:TrackPointExtension>
        </extensions>
      </trkpt>
      <trkpt lat="52.113039605319499969482421875" lon="1.451753675937652587890625">
        <ele>-11.19999980926513671875</ele>
        <time>2025-09-06T08:30:38.000Z</time>
        <extensions>
          <ns3:TrackPointExtension>
            <ns3:hr>157</ns3:hr>
            <ns3:cad>79</ns3:cad>
          </ns3:TrackPointExtension>
        </extensions>
      </trkpt>
      <trkpt lat="52.11303633637726306915283203125" lon="1.45179131068289279937744140625">
        <ele>-11.3999996185302734375</ele>
        <time>2025-09-06T08:30:39.000Z</time>
        <extensions>
          <ns3:TrackPointExtension>
            <ns3:hr>158</ns3:hr>
            <ns3:cad>79</ns3:cad>
          </ns3:TrackPointExtension>
        </extensions>
      </trkpt>
      <trkpt lat="52.1130240149796009063720703125" lon="1.45194050855934619903564453125">
        <ele>-11.6000003814697265625</ele>
        <time>2025-09-06T08:30:43.000Z</time>
        <extensions>
          <ns3:TrackPointExtension>
            <ns3:hr>155</ns3:hr>
            <ns3:cad>79</ns3:cad>
          </ns3:TrackPointExtension>
        </extensions>
      </trkpt>
      <trkpt lat="52.1130023896694183349609375" lon="1.45203790627419948577880859375">
        <ele>-12</ele>
        <time>2025-09-06T08:30:46.000Z</time>
        <extensions>
          <ns3:TrackPointExtension>
            <ns3:hr>156</ns3:hr>
            <ns3:cad>78</ns3:cad>
          </ns3:TrackPointExtension>
        </extensions>
      </trkpt>
      <trkpt lat="52.11295821703970432281494140625" lon="1.45223219878971576690673828125">
        <ele>-12.3999996185302734375</ele>
        <time>2025-09-06T08:30:52.000Z</time>
        <extensions>
          <ns3:TrackPointExtension>
            <ns3:hr>156</ns3:hr>
            <ns3:cad>79</ns3:cad>
          </ns3:TrackPointExtension>
        </extensions>
      </trkpt>
      <trkpt lat="52.1129267849028110504150390625" lon="1.45232624374330043792724609375">
        <ele>-12.80000019073486328125</ele>
        <time>2025-09-06T08:30:55.000Z</time>
        <extensions>
          <ns3:TrackPointExtension>
            <ns3:hr>156</ns3:hr>
            <ns3:cad>79</ns3:cad>
          </ns3:TrackPointExtension>
        </extensions>
      </trkpt>
      <trkpt lat="52.1128764934837818145751953125" lon="1.4524411596357822418212890625">
        <ele>-13.19999980926513671875</ele>
        <time>2025-09-06T08:31:00.000Z</time>
        <extensions>
          <ns3:TrackPointExtension>
            <ns3:hr>153</ns3:hr>
            <ns3:cad>78</ns3:cad>
          </ns3:TrackPointExtension>
        </extensions>
      </trkpt>
      <trkpt lat="52.1128697879612445831298828125" lon="1.4524485357105731964111328125">
        <ele>-13.3999996185302734375</ele>
        <time>2025-09-06T08:31:02.000Z</time>
        <extensions>
          <ns3:TrackPointExtension>
            <ns3:hr>155</ns3:hr>
            <ns3:cad>0</ns3:cad>
          </ns3:TrackPointExtension>
        </extensions>
      </trkpt>
      <trkpt lat="52.11286316625773906707763671875" lon="1.45243755541741847991943359375">
        <ele>-13.3999996185302734375</ele>
        <time>2025-09-06T08:31:07.000Z</time>
        <extensions>
          <ns3:TrackPointExtension>
            <ns3:hr>156</ns3:hr>
            <ns3:cad>0</ns3:cad>
          </ns3:TrackPointExtension>
        </extensions>
      </trkpt>
      <trkpt lat="52.11285964585840702056884765625" lon="1.45247762091457843780517578125">
        <ele>-13.6000003814697265625</ele>
        <time>2025-09-06T08:31:12.000Z</time>
        <extensions>
          <ns3:TrackPointExtension>
            <ns3:hr>157</ns3:hr>
            <ns3:cad>0</ns3:cad>
          </ns3:TrackPointExtension>
        </extensions>
      </trkpt>
      <trkpt lat="52.11285143159329891204833984375" lon="1.452481560409069061279296875">
        <ele>-13.6000003814697265625</ele>
        <time>2025-09-06T08:31:18.000Z</time>
        <extensions>
          <ns3:TrackPointExtension>
            <ns3:hr>154</ns3:hr>
            <ns3:cad>0</ns3:cad>
          </ns3:TrackPointExtension>
        </extensions>
      </trkpt>
      <trkpt lat="52.11285126395523548126220703125" lon="1.45248097367584705352783203125">
        <ele>-13.6000003814697265625</ele>
        <time>2025-09-06T08:31:19.000Z</time>
        <extensions>
          <ns3:TrackPointExtension>
            <ns3:hr>150</ns3:hr>
            <ns3:cad>0</ns3:cad>
          </ns3:TrackPointExtension>
        </extensions>
      </trkpt>
      <trkpt lat="52.11285461671650409698486328125" lon="1.452484913170337677001953125">
        <ele>-13.6000003814697265625</ele>
        <time>2025-09-06T08:31:21.000Z</time>
        <extensions>
          <ns3:TrackPointExtension>
            <ns3:hr>149</ns3:hr>
            <ns3:cad>0</ns3:cad>
          </ns3:TrackPointExtension>
        </extensions>
      </trkpt>
      <trkpt lat="52.11286786012351512908935546875" lon="1.45257434807717800140380859375">
        <ele>-13.6000003814697265625</ele>
        <time>2025-09-06T08:31:27.000Z</time>
        <extensions>
          <ns3:TrackPointExtension>
            <ns3:hr>145</ns3:hr>
            <ns3:cad>48</ns3:cad>
          </ns3:TrackPointExtension>
        </extensions>
      </trkpt>
      <trkpt lat="52.11287121288478374481201171875" lon="1.45260418765246868133544921875">
        <ele>-13.6000003814697265625</ele>
        <time>2025-09-06T08:31:29.000Z</time>
        <extensions>
          <ns3:TrackPointExtension>
            <ns3:hr>145</ns3:hr>
            <ns3:cad>48</ns3:cad>
          </ns3:TrackPointExtension>
        </extensions>
      </trkpt>
      <trkpt lat="52.1128811873495578765869140625" lon="1.45265297032892704010009765625">
        <ele>-13.3999996185302734375</ele>
        <time>2025-09-06T08:31:38.000Z</time>
        <extensions>
          <ns3:TrackPointExtension>
            <ns3:hr>144</ns3:hr>
            <ns3:cad>0</ns3:cad>
          </ns3:TrackPointExtension>
        </extensions>
      </trkpt>
      <trkpt lat="52.112882025539875030517578125" lon="1.45265582017600536346435546875">
        <ele>-13.3999996185302734375</ele>
        <time>2025-09-06T08:31:40.000Z</time>
        <extensions>
          <ns3:TrackPointExtension>
            <ns3:hr>141</ns3:hr>
            <ns3:cad>0</ns3:cad>
          </ns3:TrackPointExtension>
        </extensions>
      </trkpt>
      <trkpt lat="52.11288529448211193084716796875" lon="1.45265556871891021728515625">
        <ele>-13.3999996185302734375</ele>
        <time>2025-09-06T08:31:48.000Z</time>
        <extensions>
          <ns3:TrackPointExtension>
            <ns3:hr>138</ns3:hr>
            <ns3:cad>0</ns3:cad>
          </ns3:TrackPointExtension>
        </extensions>
      </trkpt>
      <trkpt lat="52.11288479156792163848876953125" lon="1.45265531726181507110595703125">
        <ele>-13.3999996185302734375</ele>
        <time>2025-09-06T08:31:50.000Z</time>
        <extensions>
          <ns3:TrackPointExtension>
            <ns3:hr>134</ns3:hr>
            <ns3:cad>0</ns3:cad>
          </ns3:TrackPointExtension>
        </extensions>
      </trkpt>
      <trkpt lat="52.1128865517675876617431640625" lon="1.45265556871891021728515625">
        <ele>-13.3999996185302734375</ele>
        <time>2025-09-06T08:31:52.000Z</time>
        <extensions>
          <ns3:TrackPointExtension>
            <ns3:hr>131</ns3:hr>
            <ns3:cad>0</ns3:cad>
          </ns3:TrackPointExtension>
        </extensions>
      </trkpt>
      <trkpt lat="52.11288998834788799285888671875" lon="1.45265766419470310211181640625">
        <ele>-13.3999996185302734375</ele>
        <time>2025-09-06T08:31:54.000Z</time>
        <extensions>
          <ns3:TrackPointExtension>
            <ns3:hr>129</ns3:hr>
            <ns3:cad>0</ns3:cad>
          </ns3:TrackPointExtension>
        </extensions>
      </trkpt>
      <trkpt lat="52.11289216764271259307861328125" lon="1.4526587538421154022216796875">
        <ele>-13.6000003814697265625</ele>
        <time>2025-09-06T08:31:57.000Z</time>
        <extensions>
          <ns3:TrackPointExtension>
            <ns3:hr>126</ns3:hr>
            <ns3:cad>0</ns3:cad>
          </ns3:TrackPointExtension>
        </extensions>
      </trkpt>
      <trkpt lat="52.11289317347109317779541015625" lon="1.4526594243943691253662109375">
        <ele>-13.80000019073486328125</ele>
        <time>2025-09-06T08:32:01.000Z</time>
        <extensions>
          <ns3:TrackPointExtension>
            <ns3:hr>123</ns3:hr>
            <ns3:cad>0</ns3:cad>
          </ns3:TrackPointExtension>
        </extensions>
      </trkpt>
      <trkpt lat="52.112927623093128204345703125" lon="1.452665962278842926025390625">
        <ele>-14.19999980926513671875</ele>
        <time>2025-09-06T08:32:07.000Z</time>
        <extensions>
          <ns3:TrackPointExtension>
            <ns3:hr>122</ns3:hr>
            <ns3:cad>0</ns3:cad>
          </ns3:TrackPointExtension>
        </extensions>
      </trkpt>
      <trkpt lat="52.113020829856395721435546875" lon="1.452628411352634429931640625">
        <ele>-14.19999980926513671875</ele>
        <time>2025-09-06T08:32:15.000Z</time>
        <extensions>
          <ns3:TrackPointExtension>
            <ns3:hr>119</ns3:hr>
            <ns3:cad>54</ns3:cad>
          </ns3:TrackPointExtension>
        </extensions>
      </trkpt>
      <trkpt lat="52.11302761919796466827392578125" lon="1.45261860452592372894287109375">
        <ele>-14.19999980926513671875</ele>
        <time>2025-09-06T08:32:17.000Z</time>
        <extensions>
          <ns3:TrackPointExtension>
            <ns3:hr>120</ns3:hr>
            <ns3:cad>0</ns3:cad>
          </ns3:TrackPointExtension>
        </extensions>
      </trkpt>
      <trkpt lat="52.11302745155990123748779296875" lon="1.45260460674762725830078125">
        <ele>-14.19999980926513671875</ele>
        <time>2025-09-06T08:32:27.000Z</time>
        <extensions>
          <ns3:TrackPointExtension>
            <ns3:hr>121</ns3:hr>
            <ns3:cad>0</ns3:cad>
          </ns3:TrackPointExtension>
        </extensions>
      </trkpt>
      <trkpt lat="52.11302183568477630615234375" lon="1.45260192453861236572265625">
        <ele>-14</ele>
        <time>2025-09-06T08:32:30.000Z</time>
        <extensions>
          <ns3:TrackPointExtension>
            <ns3:hr>118</ns3:hr>
            <ns3:cad>0</ns3:cad>
          </ns3:TrackPointExtension>
        </extensions>
      </trkpt>
      <trkpt lat="52.113042958080768585205078125" lon="1.4525802992284297943115234375">
        <ele>-13.6000003814697265625</ele>
        <time>2025-09-06T08:32:41.000Z</time>
        <extensions>
          <ns3:TrackPointExtension>
            <ns3:hr>119</ns3:hr>
            <ns3:cad>0</ns3:cad>
          </ns3:TrackPointExtension>
        </extensions>
      </trkpt>
      <trkpt lat="52.1130635775625705718994140625" lon="1.4525732584297657012939453125">
        <ele>-13.6000003814697265625</ele>
        <time>2025-09-06T08:32:44.000Z</time>
        <extensions>
          <ns3:TrackPointExtension>
            <ns3:hr>116</ns3:hr>
            <ns3:cad>0</ns3:cad>
          </ns3:TrackPointExtension>
        </extensions>
      </trkpt>
      <trkpt lat="52.11313071660697460174560546875" lon="1.4525387249886989593505859375">
        <ele>-13.3999996185302734375</ele>
        <time>2025-09-06T08:32:53.000Z</time>
        <extensions>
          <ns3:TrackPointExtension>
            <ns3:hr>118</ns3:hr>
            <ns3:cad>45</ns3:cad>
          </ns3:TrackPointExtension>
        </extensions>
      </trkpt>
      <trkpt lat="52.11317799054086208343505859375" lon="1.4524994976818561553955078125">
        <ele>-13.19999980926513671875</ele>
        <time>2025-09-06T08:32:59.000Z</time>
        <extensions>
          <ns3:TrackPointExtension>
            <ns3:hr>121</ns3:hr>
            <ns3:cad>0</ns3:cad>
          </ns3:TrackPointExtension>
        </extensions>
      </trkpt>
      <trkpt lat="52.11318385787308216094970703125" lon="1.45249522291123867034912109375">
        <ele>-13</ele>
        <time>2025-09-06T08:33:02.000Z</time>
        <extensions>
          <ns3:TrackPointExtension>
            <ns3:hr>120</ns3:hr>
            <ns3:cad>0</ns3:cad>
          </ns3:TrackPointExtension>
        </extensions>
      </trkpt>
      <trkpt lat="52.1132064051926136016845703125" lon="1.45248482935130596160888671875">
        <ele>-12.80000019073486328125</ele>
        <time>2025-09-06T08:33:06.000Z</time>
        <extensions>
          <ns3:TrackPointExtension>
            <ns3:hr>117</ns3:hr>
            <ns3:cad>0</ns3:cad>
          </ns3:TrackPointExtension>
        </extensions>
      </trkpt>
      <trkpt lat="52.11327102966606616973876953125" lon="1.45243554376065731048583984375">
        <ele>-12.80000019073486328125</ele>
        <time>2025-09-06T08:33:11.000Z</time>
        <extensions>
          <ns3:TrackPointExtension>
            <ns3:hr>116</ns3:hr>
            <ns3:cad>0</ns3:cad>
          </ns3:TrackPointExtension>
        </extensions>
      </trkpt>
      <trkpt lat="52.11338334716856479644775390625" lon="1.45232423208653926849365234375">
        <ele>-12.6000003814697265625</ele>
        <time>2025-09-06T08:33:18.000Z</time>
        <extensions>
          <ns3:TrackPointExtension>
            <ns3:hr>117</ns3:hr>
            <ns3:cad>74</ns3:cad>
          </ns3:TrackPointExtension>
        </extensions>
      </trkpt>
      <trkpt lat="52.1134001947939395904541015625" lon="1.4523090608417987823486328125">
        <ele>-12.3999996185302734375</ele>
        <time>2025-09-06T08:33:19.000Z</time>
        <extensions>
          <ns3:TrackPointExtension>
            <ns3:hr>120</ns3:hr>
            <ns3:cad>75</ns3:cad>
          </ns3:TrackPointExtension>
        </extensions>
      </trkpt>
      <trkpt lat="52.1134199760854244232177734375" lon="1.45229623652994632720947265625">
        <ele>-12.3999996185302734375</ele>
        <time>2025-09-06T08:33:20.000Z</time>
        <extensions>
          <ns3:TrackPointExtension>
            <ns3:hr>123</ns3:hr>
            <ns3:cad>76</ns3:cad>
          </ns3:TrackPointExtension>
        </extensions>
      </trkpt>
      <trkpt lat="52.11346163414418697357177734375" lon="1.452279724180698394775390625">
        <ele>-12.19999980926513671875</ele>
        <time>2025-09-06T08:33:22.000Z</time>
        <extensions>
          <ns3:TrackPointExtension>
            <ns3:hr>129</ns3:hr>
            <ns3:cad>77</ns3:cad>
          </ns3:TrackPointExtension>
        </extensions>
      </trkpt>
      <trkpt lat="52.11350270546972751617431640625" lon="1.45225952379405498504638671875">
        <ele>-12.19999980926513671875</ele>
        <time>2025-09-06T08:33:24.000Z</time>
        <extensions>
          <ns3:TrackPointExtension>
            <ns3:hr>133</ns3:hr>
            <ns3:cad>77</ns3:cad>
          </ns3:TrackPointExtension>
        </extensions>
      </trkpt>
      <trkpt lat="52.11352248676121234893798828125" lon="1.452248208224773406982421875">
        <ele>-12</ele>
        <time>2025-09-06T08:33:25.000Z</time>
        <extensions>
          <ns3:TrackPointExtension>
            <ns3:hr>136</ns3:hr>
            <ns3:cad>79</ns3:cad>
          </ns3:TrackPointExtension>
        </extensions>
      </trkpt>
      <trkpt lat="52.1135614626109600067138671875" lon="1.4522245712578296661376953125">
        <ele>-12</ele>
        <time>2025-09-06T08:33:27.000Z</time>
        <extensions>
          <ns3:TrackPointExtension>
            <ns3:hr>139</ns3:hr>
            <ns3:cad>80</ns3:cad>
          </ns3:TrackPointExtension>
        </extensions>
      </trkpt>
      <trkpt lat="52.11360144428908824920654296875" lon="1.45220361649990081787109375">
        <ele>-12</ele>
        <time>2025-09-06T08:33:29.000Z</time>
        <extensions>
          <ns3:TrackPointExtension>
            <ns3:hr>142</ns3:hr>
            <ns3:cad>81</ns3:cad>
          </ns3:TrackPointExtension>
        </extensions>
      </trkpt>
      <trkpt lat="52.11366229690611362457275390625" lon="1.45217251963913440704345703125">
        <ele>-11.80000019073486328125</ele>
        <time>2025-09-06T08:33:32.000Z</time>
        <extensions>
          <ns3:TrackPointExtension>
            <ns3:hr>145</ns3:hr>
            <ns3:cad>80</ns3:cad>
          </ns3:TrackPointExtension>
        </extensions>
      </trkpt>
      <trkpt lat="52.11370269767940044403076171875" lon="1.4521501399576663970947265625">
        <ele>-11.6000003814697265625</ele>
        <time>2025-09-06T08:33:34.000Z</time>
        <extensions>
          <ns3:TrackPointExtension>
            <ns3:hr>148</ns3:hr>
            <ns3:cad>79</ns3:cad>
          </ns3:TrackPointExtension>
        </extensions>
      </trkpt>
      <trkpt lat="52.11376220919191837310791015625" lon="1.45211837254464626312255859375">
        <ele>-11.3999996185302734375</ele>
        <time>2025-09-06T08:33:37.000Z</time>
        <extensions>
          <ns3:TrackPointExtension>
            <ns3:hr>150</ns3:hr>
            <ns3:cad>78</ns3:cad>
          </ns3:TrackPointExtension>
        </extensions>
      </trkpt>
      <trkpt lat="52.1138172782957553863525390625" lon="1.45208685658872127532958984375">
        <ele>-11.3999996185302734375</ele>
        <time>2025-09-06T08:33:40.000Z</time>
        <extensions>
          <ns3:TrackPointExtension>
            <ns3:hr>150</ns3:hr>
            <ns3:cad>78</ns3:cad>
          </ns3:TrackPointExtension>
        </extensions>
      </trkpt>
      <trkpt lat="52.1139446832239627838134765625" lon="1.45200940780341625213623046875">
        <ele>-11</ele>
        <time>2025-09-06T08:33:48.000Z</time>
        <extensions>
          <ns3:TrackPointExtension>
            <ns3:hr>151</ns3:hr>
            <ns3:cad>78</ns3:cad>
          </ns3:TrackPointExtension>
        </extensions>
      </trkpt>
      <trkpt lat="52.11397963576018810272216796875" lon="1.4520126767456531524658203125">
        <ele>-10.80000019073486328125</ele>
        <time>2025-09-06T08:33:55.000Z</time>
        <extensions>
          <ns3:TrackPointExtension>
            <ns3:hr>152</ns3:hr>
            <ns3:cad>0</ns3:cad>
          </ns3:TrackPointExtension>
        </extensions>
      </trkpt>
      <trkpt lat="52.11401148699223995208740234375" lon="1.4520475454628467559814453125">
        <ele>-10.6000003814697265625</ele>
        <time>2025-09-06T08:34:00.000Z</time>
        <extensions>
          <ns3:TrackPointExtension>
            <ns3:hr>155</ns3:hr>
            <ns3:cad>43</ns3:cad>
          </ns3:TrackPointExtension>
        </extensions>
      </trkpt>
      <trkpt lat="52.1140328608453273773193359375" lon="1.45205802284181118011474609375">
        <ele>-10.6000003814697265625</ele>
        <time>2025-09-06T08:34:02.000Z</time>
        <extensions>
          <ns3:TrackPointExtension>
            <ns3:hr>154</ns3:hr>
            <ns3:cad>43</ns3:cad>
          </ns3:TrackPointExtension>
        </extensions>
      </trkpt>
      <trkpt lat="52.11407066322863101959228515625" lon="1.45207964815199375152587890625">
        <ele>-10.3999996185302734375</ele>
        <time>2025-09-06T08:34:05.000Z</time>
        <extensions>
          <ns3:TrackPointExtension>
            <ns3:hr>151</ns3:hr>
            <ns3:cad>0</ns3:cad>
          </ns3:TrackPointExtension>
        </extensions>
      </trkpt>
      <trkpt lat="52.11415280587971210479736328125" lon="1.45213027484714984893798828125">
        <ele>-10</ele>
        <time>2025-09-06T08:34:10.000Z</time>
        <extensions>
          <ns3:TrackPointExtension>
            <ns3:hr>153</ns3:hr>
            <ns3:cad>74</ns3:cad>
          </ns3:TrackPointExtension>
        </extensions>
      </trkpt>
      <trkpt lat="52.11421969346702098846435546875" lon="1.452161371707916259765625">
        <ele>-9.6000003814697265625</ele>
        <time>2025-09-06T08:34:15.000Z</time>
        <extensions>
          <ns3:TrackPointExtension>
            <ns3:hr>154</ns3:hr>
            <ns3:cad>0</ns3:cad>
          </ns3:TrackPointExtension>
        </extensions>
      </trkpt>
      <trkpt lat="52.11422656662762165069580078125" lon="1.45217101089656352996826171875">
        <ele>-9.3999996185302734375</ele>
        <time>2025-09-06T08:34:17.000Z</time>
        <extensions>
          <ns3:TrackPointExtension>
            <ns3:hr>157</ns3:hr>
            <ns3:cad>0</ns3:cad>
          </ns3:TrackPointExtension>
        </extensions>
      </trkpt>
      <trkpt lat="52.1142273209989070892333984375" lon="1.4521729387342929840087890625">
        <ele>-9.19999980926513671875</ele>
        <time>2025-09-06T08:34:18.000Z</time>
        <extensions>
          <ns3:TrackPointExtension>
            <ns3:hr>157</ns3:hr>
            <ns3:cad>0</ns3:cad>
          </ns3:TrackPointExtension>
        </extensions>
      </trkpt>
      <trkpt lat="52.11422790773212909698486328125" lon="1.4521840028464794158935546875">
        <ele>-9</ele>
        <time>2025-09-06T08:34:22.000Z</time>
        <extensions>
          <ns3:TrackPointExtension>
            <ns3:hr>153</ns3:hr>
            <ns3:cad>0</ns3:cad>
          </ns3:TrackPointExtension>
        </extensions>
      </trkpt>
      <trkpt lat="52.114227823913097381591796875" lon="1.4521856792271137237548828125">
        <ele>-8.80000019073486328125</ele>
        <time>2025-09-06T08:34:23.000Z</time>
        <extensions>
          <ns3:TrackPointExtension>
            <ns3:hr>149</ns3:hr>
            <ns3:cad>0</ns3:cad>
          </ns3:TrackPointExtension>
        </extensions>
      </trkpt>
      <trkpt lat="52.11422748863697052001953125" lon="1.45219280384480953216552734375">
        <ele>-8.6000003814697265625</ele>
        <time>2025-09-06T08:34:25.000Z</time>
        <extensions>
          <ns3:TrackPointExtension>
            <ns3:hr>146</ns3:hr>
            <ns3:cad>0</ns3:cad>
          </ns3:TrackPointExtension>
        </extensions>
      </trkpt>
      <trkpt lat="52.1142259798943996429443359375" lon="1.45219665952026844024658203125">
        <ele>-8.19999980926513671875</ele>
        <time>2025-09-06T08:34:30.000Z</time>
        <extensions>
          <ns3:TrackPointExtension>
            <ns3:hr>142</ns3:hr>
            <ns3:cad>0</ns3:cad>
          </ns3:TrackPointExtension>
        </extensions>
      </trkpt>
      <trkpt lat="52.114225812256336212158203125" lon="1.452196575701236724853515625">
        <ele>-8.19999980926513671875</ele>
        <time>2025-09-06T08:34:31.000Z</time>
        <extensions>
          <ns3:TrackPointExtension>
            <ns3:hr>142</ns3:hr>
            <ns3:cad>0</ns3:cad>
          </ns3:TrackPointExtension>
        </extensions>
      </trkpt>
      <trkpt lat="52.11425070650875568389892578125" lon="1.4522021077573299407958984375">
        <ele>-8.19999980926513671875</ele>
        <time>2025-09-06T08:34:36.000Z</time>
        <extensions>
          <ns3:TrackPointExtension>
            <ns3:hr>140</ns3:hr>
            <ns3:cad>0</ns3:cad>
          </ns3:TrackPointExtension>
        </extensions>
      </trkpt>
      <trkpt lat="52.11428725160658359527587890625" lon="1.45221577025949954986572265625">
        <ele>-8.19999980926513671875</ele>
        <time>2025-09-06T08:34:40.000Z</time>
        <extensions>
          <ns3:TrackPointExtension>
            <ns3:hr>137</ns3:hr>
            <ns3:cad>0</ns3:cad>
          </ns3:TrackPointExtension>
        </extensions>
      </trkpt>
      <trkpt lat="52.1143426559865474700927734375" lon="1.45223672501742839813232421875">
        <ele>-8.19999980926513671875</ele>
        <time>2025-09-06T08:34:47.000Z</time>
        <extensions>
          <ns3:TrackPointExtension>
            <ns3:hr>133</ns3:hr>
            <ns3:cad>0</ns3:cad>
          </ns3:TrackPointExtension>
        </extensions>
      </trkpt>
      <trkpt lat="52.11436352692544460296630859375" lon="1.4522592723369598388671875">
        <ele>-8</ele>
        <time>2025-09-06T08:34:51.000Z</time>
        <extensions>
          <ns3:TrackPointExtension>
            <ns3:hr>131</ns3:hr>
            <ns3:cad>0</ns3:cad>
          </ns3:TrackPointExtension>
        </extensions>
      </trkpt>
      <trkpt lat="52.1143899299204349517822265625" lon="1.4522634632885456085205078125">
        <ele>-8</ele>
        <time>2025-09-06T08:34:54.000Z</time>
        <extensions>
          <ns3:TrackPointExtension>
            <ns3:hr>128</ns3:hr>
            <ns3:cad>0</ns3:cad>
          </ns3:TrackPointExtension>
        </extensions>
      </trkpt>
      <trkpt lat="52.1144496090710163116455078125" lon="1.45229372195899486541748046875">
        <ele>-7.80000019073486328125</ele>
        <time>2025-09-06T08:35:00.000Z</time>
        <extensions>
          <ns3:TrackPointExtension>
            <ns3:hr>128</ns3:hr>
            <ns3:cad>0</ns3:cad>
          </ns3:TrackPointExtension>
        </extensions>
      </trkpt>
      <trkpt lat="52.1145237050950527191162109375" lon="1.45232439972460269927978515625">
        <ele>-7.19999980926513671875</ele>
        <time>2025-09-06T08:35:06.000Z</time>
        <extensions>
          <ns3:TrackPointExtension>
            <ns3:hr>128</ns3:hr>
            <ns3:cad>0</ns3:cad>
          </ns3:TrackPointExtension>
        </extensions>
      </trkpt>
      <trkpt lat="52.11458631791174411773681640625" lon="1.45235323347151279449462890625">
        <ele>-6.80000019073486328125</ele>
        <time>2025-09-06T08:35:11.000Z</time>
        <extensions>
          <ns3:TrackPointExtension>
            <ns3:hr>125</ns3:hr>
            <ns3:cad>0</ns3:cad>
          </ns3:TrackPointExtension>
        </extensions>
      </trkpt>
      <trkpt lat="52.11459905840456485748291015625" lon="1.4523603580892086029052734375">
        <ele>-6.80000019073486328125</ele>
        <time>2025-09-06T08:35:12.000Z</time>
        <extensions>
          <ns3:TrackPointExtension>
            <ns3:hr>125</ns3:hr>
            <ns3:cad>0</ns3:cad>
          </ns3:TrackPointExtension>
        </extensions>
      </trkpt>
      <trkpt lat="52.11464130319654941558837890625" lon="1.45239899866282939910888671875">
        <ele>-6.400000095367431640625</ele>
        <time>2025-09-06T08:35:18.000Z</time>
        <extensions>
          <ns3:TrackPointExtension>
            <ns3:hr>126</ns3:hr>
            <ns3:cad>0</ns3:cad>
          </ns3:TrackPointExtension>
        </extensions>
      </trkpt>
      <trkpt lat="52.11467214860022068023681640625" lon="1.45242565311491489410400390625">
        <ele>-6.400000095367431640625</ele>
        <time>2025-09-06T08:35:22.000Z</time>
        <extensions>
          <ns3:TrackPointExtension>
            <ns3:hr>123</ns3:hr>
            <ns3:cad>42</ns3:cad>
          </ns3:TrackPointExtension>
        </extensions>
      </trkpt>
      <trkpt lat="52.114665694534778594970703125" lon="1.4524362981319427490234375">
        <ele>-6.19999980926513671875</ele>
        <time>2025-09-06T08:35:27.000Z</time>
        <extensions>
          <ns3:TrackPointExtension>
            <ns3:hr>123</ns3:hr>
            <ns3:cad>0</ns3:cad>
          </ns3:TrackPointExtension>
        </extensions>
      </trkpt>
      <trkpt lat="52.11466443724930286407470703125" lon="1.452435292303562164306640625">
        <ele>-6.19999980926513671875</ele>
        <time>2025-09-06T08:35:28.000Z</time>
        <extensions>
          <ns3:TrackPointExtension>
            <ns3:hr>124</ns3:hr>
            <ns3:cad>0</ns3:cad>
          </ns3:TrackPointExtension>
        </extensions>
      </trkpt>
      <trkpt lat="52.11469553411006927490234375" lon="1.45244258455932140350341796875">
        <ele>-5.80000019073486328125</ele>
        <time>2025-09-06T08:35:33.000Z</time>
        <extensions>
          <ns3:TrackPointExtension>
            <ns3:hr>121</ns3:hr>
            <ns3:cad>0</ns3:cad>
          </ns3:TrackPointExtension>
        </extensions>
      </trkpt>
      <trkpt lat="52.1147171594202518463134765625" lon="1.45245783962309360504150390625">
        <ele>-5.80000019073486328125</ele>
        <time>2025-09-06T08:35:36.000Z</time>
        <extensions>
          <ns3:TrackPointExtension>
            <ns3:hr>122</ns3:hr>
            <ns3:cad>0</ns3:cad>
          </ns3:TrackPointExtension>
        </extensions>
      </trkpt>
      <trkpt lat="52.11474649608135223388671875" lon="1.4524756930768489837646484375">
        <ele>-5.599999904632568359375</ele>
        <time>2025-09-06T08:35:39.000Z</time>
        <extensions>
          <ns3:TrackPointExtension>
            <ns3:hr>119</ns3:hr>
            <ns3:cad>0</ns3:cad>
          </ns3:TrackPointExtension>
        </extensions>
      </trkpt>
      <trkpt lat="52.11475856602191925048828125" lon="1.45249136723577976226806640625">
        <ele>-5.599999904632568359375</ele>
        <time>2025-09-06T08:35:41.000Z</time>
        <extensions>
          <ns3:TrackPointExtension>
            <ns3:hr>116</ns3:hr>
            <ns3:cad>0</ns3:cad>
          </ns3:TrackPointExtension>
        </extensions>
      </trkpt>
      <trkpt lat="52.11478094570338726043701171875" lon="1.45251785404980182647705078125">
        <ele>-5.599999904632568359375</ele>
        <time>2025-09-06T08:35:47.000Z</time>
        <extensions>
          <ns3:TrackPointExtension>
            <ns3:hr>118</ns3:hr>
            <ns3:cad>0</ns3:cad>
          </ns3:TrackPointExtension>
        </extensions>
      </trkpt>
      <trkpt lat="52.11478278972208499908447265625" lon="1.45252740941941738128662109375">
        <ele>-5.599999904632568359375</ele>
        <time>2025-09-06T08:35:50.000Z</time>
        <extensions>
          <ns3:TrackPointExtension>
            <ns3:hr>115</ns3:hr>
            <ns3:cad>0</ns3:cad>
          </ns3:TrackPointExtension>
        </extensions>
      </trkpt>
      <trkpt lat="52.11477625183761119842529296875" lon="1.452525816857814788818359375">
        <ele>-5.599999904632568359375</ele>
        <time>2025-09-06T08:35:58.000Z</time>
        <extensions>
          <ns3:TrackPointExtension>
            <ns3:hr>115</ns3:hr>
            <ns3:cad>0</ns3:cad>
          </ns3:TrackPointExtension>
        </extensions>
      </trkpt>
      <trkpt lat="52.1147754974663257598876953125" lon="1.45252455957233905792236328125">
        <ele>-5.599999904632568359375</ele>
        <time>2025-09-06T08:36:12.000Z</time>
        <extensions>
          <ns3:TrackPointExtension>
            <ns3:hr>113</ns3:hr>
            <ns3:cad>0</ns3:cad>
          </ns3:TrackPointExtension>
        </extensions>
      </trkpt>
      <trkpt lat="52.11477725766599178314208984375" lon="1.45252170972526073455810546875">
        <ele>-5.80000019073486328125</ele>
        <time>2025-09-06T08:36:18.000Z</time>
        <extensions>
          <ns3:TrackPointExtension>
            <ns3:hr>110</ns3:hr>
            <ns3:cad>0</ns3:cad>
          </ns3:TrackPointExtension>
        </extensions>
      </trkpt>
      <trkpt lat="52.1147956140339374542236328125" lon="1.45252657122910022735595703125">
        <ele>-13.19999980926513671875</ele>
        <time>2025-09-06T08:36:22.000Z</time>
        <extensions>
          <ns3:TrackPointExtension>
            <ns3:hr>108</ns3:hr>
            <ns3:cad>0</ns3:cad>
          </ns3:TrackPointExtension>
        </extensions>
      </trkpt>
      <trkpt lat="52.1148060075938701629638671875" lon="1.45253193564713001251220703125">
        <ele>-21.3999996185302734375</ele>
        <time>2025-09-06T08:36:23.000Z</time>
        <extensions>
          <ns3:TrackPointExtension>
            <ns3:hr>108</ns3:hr>
            <ns3:cad>0</ns3:cad>
          </ns3:TrackPointExtension>
        </extensions>
      </trkpt>
      <trkpt lat="52.11481514386832714080810546875" lon="1.4525370486080646514892578125">
        <ele>-30.200000762939453125</ele>
        <time>2025-09-06T08:36:24.000Z</time>
        <extensions>
          <ns3:TrackPointExtension>
            <ns3:hr>108</ns3:hr>
            <ns3:cad>0</ns3:cad>
          </ns3:TrackPointExtension>
        </extensions>
      </trkpt>
      <trkpt lat="52.114829309284687042236328125" lon="1.45253931172192096710205078125">
        <ele>-38.200000762939453125</ele>
        <time>2025-09-06T08:36:25.000Z</time>
        <extensions>
          <ns3:TrackPointExtension>
            <ns3:hr>108</ns3:hr>
            <ns3:cad>0</ns3:cad>
          </ns3:TrackPointExtension>
        </extensions>
      </trkpt>
      <trkpt lat="52.114842720329761505126953125" lon="1.45254031755030155181884765625">
        <ele>-46.200000762939453125</ele>
        <time>2025-09-06T08:36:26.000Z</time>
        <extensions>
          <ns3:TrackPointExtension>
            <ns3:hr>108</ns3:hr>
            <ns3:cad>0</ns3:cad>
          </ns3:TrackPointExtension>
        </extensions>
      </trkpt>
      <trkpt lat="52.11485621519386768341064453125" lon="1.45254182629287242889404296875">
        <ele>-51.40000152587890625</ele>
        <time>2025-09-06T08:36:27.000Z</time>
        <extensions>
          <ns3:TrackPointExtension>
            <ns3:hr>108</ns3:hr>
            <ns3:cad>0</ns3:cad>
          </ns3:TrackPointExtension>
        </extensions>
      </trkpt>
      <trkpt lat="52.11487012915313243865966796875" lon="1.452544592320919036865234375">
        <ele>-56.40000152587890625</ele>
        <time>2025-09-06T08:36:28.000Z</time>
        <extensions>
          <ns3:TrackPointExtension>
            <ns3:hr>108</ns3:hr>
            <ns3:cad>50</ns3:cad>
          </ns3:TrackPointExtension>
        </extensions>
      </trkpt>
      <trkpt lat="52.11488404311239719390869140625" lon="1.452552638947963714599609375">
        <ele>-61</ele>
        <time>2025-09-06T08:36:29.000Z</time>
        <extensions>
          <ns3:TrackPointExtension>
            <ns3:hr>108</ns3:hr>
            <ns3:cad>50</ns3:cad>
          </ns3:TrackPointExtension>
        </extensions>
      </trkpt>
      <trkpt lat="52.114896364510059356689453125" lon="1.4525561593472957611083984375">
        <ele>-65.1999969482421875</ele>
        <time>2025-09-06T08:36:30.000Z</time>
        <extensions>
          <ns3:TrackPointExtension>
            <ns3:hr>108</ns3:hr>
            <ns3:cad>50</ns3:cad>
          </ns3:TrackPointExtension>
        </extensions>
      </trkpt>
      <trkpt lat="52.11490969173610210418701171875" lon="1.452559344470500946044921875">
        <ele>-68.59999847412109375</ele>
        <time>2025-09-06T08:36:31.000Z</time>
        <extensions>
          <ns3:TrackPointExtension>
            <ns3:hr>107</ns3:hr>
            <ns3:cad>52</ns3:cad>
          </ns3:TrackPointExtension>
        </extensions>
      </trkpt>
      <trkpt lat="52.1149233542382717132568359375" lon="1.4525648765265941619873046875">
        <ele>-71.40000152587890625</ele>
        <time>2025-09-06T08:36:32.000Z</time>
        <extensions>
          <ns3:TrackPointExtension>
            <ns3:hr>107</ns3:hr>
            <ns3:cad>53</ns3:cad>
          </ns3:TrackPointExtension>
        </extensions>
      </trkpt>
      <trkpt lat="52.11493550799787044525146484375" lon="1.4525759406387805938720703125">
        <ele>-75.40000152587890625</ele>
        <time>2025-09-06T08:36:33.000Z</time>
        <extensions>
          <ns3:TrackPointExtension>
            <ns3:hr>107</ns3:hr>
            <ns3:cad>53</ns3:cad>
          </ns3:TrackPointExtension>
        </extensions>
      </trkpt>
      <trkpt lat="52.11494908668100833892822265625" lon="1.45258356817066669464111328125">
        <ele>-79.40000152587890625</ele>
        <time>2025-09-06T08:36:34.000Z</time>
        <extensions>
          <ns3:TrackPointExtension>
            <ns3:hr>107</ns3:hr>
            <ns3:cad>53</ns3:cad>
          </ns3:TrackPointExtension>
        </extensions>
      </trkpt>
      <trkpt lat="52.11496509611606597900390625" lon="1.45258851349353790283203125">
        <ele>-82.59999847412109375</ele>
        <time>2025-09-06T08:36:35.000Z</time>
        <extensions>
          <ns3:TrackPointExtension>
            <ns3:hr>107</ns3:hr>
            <ns3:cad>51</ns3:cad>
          </ns3:TrackPointExtension>
        </extensions>
      </trkpt>
      <trkpt lat="52.11497942917048931121826171875" lon="1.45259446464478969573974609375">
        <ele>-85.40000152587890625</ele>
        <time>2025-09-06T08:36:36.000Z</time>
        <extensions>
          <ns3:TrackPointExtension>
            <ns3:hr>107</ns3:hr>
            <ns3:cad>51</ns3:cad>
          </ns3:TrackPointExtension>
        </extensions>
      </trkpt>
      <trkpt lat="52.11499392986297607421875" lon="1.452599577605724334716796875">
        <ele>-88.40000152587890625</ele>
        <time>2025-09-06T08:36:37.000Z</time>
        <extensions>
          <ns3:TrackPointExtension>
            <ns3:hr>106</ns3:hr>
            <ns3:cad>52</ns3:cad>
          </ns3:TrackPointExtension>
        </extensions>
      </trkpt>
      <trkpt lat="52.1150085143744945526123046875" lon="1.452601253986358642578125">
        <ele>-91</ele>
        <time>2025-09-06T08:36:38.000Z</time>
        <extensions>
          <ns3:TrackPointExtension>
            <ns3:hr>106</ns3:hr>
            <ns3:cad>52</ns3:cad>
          </ns3:TrackPointExtension>
        </extensions>
      </trkpt>
      <trkpt lat="52.1150212548673152923583984375" lon="1.45260284654796123504638671875">
        <ele>-95.1999969482421875</ele>
        <time>2025-09-06T08:36:39.000Z</time>
        <extensions>
          <ns3:TrackPointExtension>
            <ns3:hr>106</ns3:hr>
            <ns3:cad>52</ns3:cad>
          </ns3:TrackPointExtension>
        </extensions>
      </trkpt>
      <trkpt lat="52.11503357626497745513916015625" lon="1.4526087976992130279541015625">
        <ele>-98.1999969482421875</ele>
        <time>2025-09-06T08:36:40.000Z</time>
        <extensions>
          <ns3:TrackPointExtension>
            <ns3:hr>105</ns3:hr>
            <ns3:cad>52</ns3:cad>
          </ns3:TrackPointExtension>
        </extensions>
      </trkpt>
      <trkpt lat="52.11504564620554447174072265625" lon="1.452614329755306243896484375">
        <ele>-101</ele>
        <time>2025-09-06T08:36:41.000Z</time>
        <extensions>
          <ns3:TrackPointExtension>
            <ns3:hr>107</ns3:hr>
            <ns3:cad>52</ns3:cad>
          </ns3:TrackPointExtension>
        </extensions>
      </trkpt>
      <trkpt lat="52.115054614841938018798828125" lon="1.452631093561649322509765625">
        <ele>-104.8000030517578125</ele>
        <time>2025-09-06T08:36:42.000Z</time>
        <extensions>
          <ns3:TrackPointExtension>
            <ns3:hr>107</ns3:hr>
            <ns3:cad>53</ns3:cad>
          </ns3:TrackPointExtension>
        </extensions>
      </trkpt>
      <trkpt lat="52.1150695346295833587646484375" lon="1.45263754762709140777587890625">
        <ele>-108.40000152587890625</ele>
        <time>2025-09-06T08:36:43.000Z</time>
        <extensions>
          <ns3:TrackPointExtension>
            <ns3:hr>106</ns3:hr>
            <ns3:cad>54</ns3:cad>
          </ns3:TrackPointExtension>
        </extensions>
      </trkpt>
      <trkpt lat="52.11508286185562610626220703125" lon="1.45264375023543834686279296875">
        <ele>-111</ele>
        <time>2025-09-06T08:36:44.000Z</time>
        <extensions>
          <ns3:TrackPointExtension>
            <ns3:hr>107</ns3:hr>
            <ns3:cad>54</ns3:cad>
          </ns3:TrackPointExtension>
        </extensions>
      </trkpt>
      <trkpt lat="52.11509627290070056915283203125" lon="1.45265263505280017852783203125">
        <ele>-113.8000030517578125</ele>
        <time>2025-09-06T08:36:45.000Z</time>
        <extensions>
          <ns3:TrackPointExtension>
            <ns3:hr>107</ns3:hr>
            <ns3:cad>52</ns3:cad>
          </ns3:TrackPointExtension>
        </extensions>
      </trkpt>
      <trkpt lat="52.11510716937482357025146484375" lon="1.45265766419470310211181640625">
        <ele>-115.59999847412109375</ele>
        <time>2025-09-06T08:36:46.000Z</time>
        <extensions>
          <ns3:TrackPointExtension>
            <ns3:hr>107</ns3:hr>
            <ns3:cad>52</ns3:cad>
          </ns3:TrackPointExtension>
        </extensions>
      </trkpt>
      <trkpt lat="52.11511722765862941741943359375" lon="1.45266252569854259490966796875">
        <ele>-118.40000152587890625</ele>
        <time>2025-09-06T08:36:47.000Z</time>
        <extensions>
          <ns3:TrackPointExtension>
            <ns3:hr>107</ns3:hr>
            <ns3:cad>52</ns3:cad>
          </ns3:TrackPointExtension>
        </extensions>
      </trkpt>
      <trkpt lat="52.1151278726756572723388671875" lon="1.45266537554562091827392578125">
        <ele>-121.1999969482421875</ele>
        <time>2025-09-06T08:36:48.000Z</time>
        <extensions>
          <ns3:TrackPointExtension>
            <ns3:hr>106</ns3:hr>
            <ns3:cad>52</ns3:cad>
          </ns3:TrackPointExtension>
        </extensions>
      </trkpt>
      <trkpt lat="52.11513533256947994232177734375" lon="1.45267526619136333465576171875">
        <ele>-123.40000152587890625</ele>
        <time>2025-09-06T08:36:49.000Z</time>
        <extensions>
          <ns3:TrackPointExtension>
            <ns3:hr>106</ns3:hr>
            <ns3:cad>52</ns3:cad>
          </ns3:TrackPointExtension>
        </extensions>
      </trkpt>
      <trkpt lat="52.11514337919652462005615234375" lon="1.45268783904612064361572265625">
        <ele>-125.8000030517578125</ele>
        <time>2025-09-06T08:36:50.000Z</time>
        <extensions>
          <ns3:TrackPointExtension>
            <ns3:hr>106</ns3:hr>
            <ns3:cad>51</ns3:cad>
          </ns3:TrackPointExtension>
        </extensions>
      </trkpt>
      <trkpt lat="52.11515528149902820587158203125" lon="1.4526951313018798828125">
        <ele>-128</ele>
        <time>2025-09-06T08:36:51.000Z</time>
        <extensions>
          <ns3:TrackPointExtension>
            <ns3:hr>105</ns3:hr>
            <ns3:cad>0</ns3:cad>
          </ns3:TrackPointExtension>
        </extensions>
      </trkpt>
      <trkpt lat="52.11516785435378551483154296875" lon="1.4527016691863536834716796875">
        <ele>-130.8000030517578125</ele>
        <time>2025-09-06T08:36:52.000Z</time>
        <extensions>
          <ns3:TrackPointExtension>
            <ns3:hr>108</ns3:hr>
            <ns3:cad>0</ns3:cad>
          </ns3:TrackPointExtension>
        </extensions>
      </trkpt>
      <trkpt lat="52.11518076248466968536376953125" lon="1.45270929671823978424072265625">
        <ele>-132.1999969482421875</ele>
        <time>2025-09-06T08:36:53.000Z</time>
        <extensions>
          <ns3:TrackPointExtension>
            <ns3:hr>107</ns3:hr>
            <ns3:cad>0</ns3:cad>
          </ns3:TrackPointExtension>
        </extensions>
      </trkpt>
      <trkpt lat="52.11519216187298297882080078125" lon="1.45271449349820613861083984375">
        <ele>-133.8000030517578125</ele>
        <time>2025-09-06T08:36:54.000Z</time>
        <extensions>
          <ns3:TrackPointExtension>
            <ns3:hr>107</ns3:hr>
            <ns3:cad>0</ns3:cad>
          </ns3:TrackPointExtension>
        </extensions>
      </trkpt>
      <trkpt lat="52.11520322598516941070556640625" lon="1.452719271183013916015625">
        <ele>-135.600006103515625</ele>
        <time>2025-09-06T08:36:55.000Z</time>
        <extensions>
          <ns3:TrackPointExtension>
            <ns3:hr>107</ns3:hr>
            <ns3:cad>52</ns3:cad>
          </ns3:TrackPointExtension>
        </extensions>
      </trkpt>
      <trkpt lat="52.1152125298976898193359375" lon="1.4527264796197414398193359375">
        <ele>-137.399993896484375</ele>
        <time>2025-09-06T08:36:56.000Z</time>
        <extensions>
          <ns3:TrackPointExtension>
            <ns3:hr>108</ns3:hr>
            <ns3:cad>52</ns3:cad>
          </ns3:TrackPointExtension>
        </extensions>
      </trkpt>
      <trkpt lat="52.11522250436246395111083984375" lon="1.45273125730454921722412109375">
        <ele>-139.600006103515625</ele>
        <time>2025-09-06T08:36:57.000Z</time>
        <extensions>
          <ns3:TrackPointExtension>
            <ns3:hr>108</ns3:hr>
            <ns3:cad>51</ns3:cad>
          </ns3:TrackPointExtension>
        </extensions>
      </trkpt>
      <trkpt lat="52.11523340083658695220947265625" lon="1.45273963920772075653076171875">
        <ele>-141.1999969482421875</ele>
        <time>2025-09-06T08:36:58.000Z</time>
        <extensions>
          <ns3:TrackPointExtension>
            <ns3:hr>107</ns3:hr>
            <ns3:cad>0</ns3:cad>
          </ns3:TrackPointExtension>
        </extensions>
      </trkpt>
      <trkpt lat="52.11524580605328083038330078125" lon="1.45274676382541656494140625">
        <ele>-142.600006103515625</ele>
        <time>2025-09-06T08:36:59.000Z</time>
        <extensions>
          <ns3:TrackPointExtension>
            <ns3:hr>108</ns3:hr>
            <ns3:cad>0</ns3:cad>
          </ns3:TrackPointExtension>
        </extensions>
      </trkpt>
      <trkpt lat="52.11525837890803813934326171875" lon="1.45275841467082500457763671875">
        <ele>-143.600006103515625</ele>
        <time>2025-09-06T08:37:00.000Z</time>
        <extensions>
          <ns3:TrackPointExtension>
            <ns3:hr>108</ns3:hr>
            <ns3:cad>0</ns3:cad>
          </ns3:TrackPointExtension>
        </extensions>
      </trkpt>
      <trkpt lat="52.1152710355818271636962890625" lon="1.4527670480310916900634765625">
        <ele>-144.8000030517578125</ele>
        <time>2025-09-06T08:37:01.000Z</time>
        <extensions>
          <ns3:TrackPointExtension>
            <ns3:hr>109</ns3:hr>
            <ns3:cad>0</ns3:cad>
          </ns3:TrackPointExtension>
        </extensions>
      </trkpt>
      <trkpt lat="52.11528218351304531097412109375" lon="1.45277584902942180633544921875">
        <ele>-146</ele>
        <time>2025-09-06T08:37:02.000Z</time>
        <extensions>
          <ns3:TrackPointExtension>
            <ns3:hr>108</ns3:hr>
            <ns3:cad>0</ns3:cad>
          </ns3:TrackPointExtension>
        </extensions>
      </trkpt>
      <trkpt lat="52.11529307998716831207275390625" lon="1.45278624258935451507568359375">
        <ele>-149.399993896484375</ele>
        <time>2025-09-06T08:37:03.000Z</time>
        <extensions>
          <ns3:TrackPointExtension>
            <ns3:hr>108</ns3:hr>
            <ns3:cad>0</ns3:cad>
          </ns3:TrackPointExtension>
        </extensions>
      </trkpt>
      <trkpt lat="52.11530263535678386688232421875" lon="1.45280082710087299346923828125">
        <ele>-151.1999969482421875</ele>
        <time>2025-09-06T08:37:04.000Z</time>
        <extensions>
          <ns3:TrackPointExtension>
            <ns3:hr>110</ns3:hr>
            <ns3:cad>51</ns3:cad>
          </ns3:TrackPointExtension>
        </extensions>
      </trkpt>
      <trkpt lat="52.11531587876379489898681640625" lon="1.45280736498534679412841796875">
        <ele>-152.399993896484375</ele>
        <time>2025-09-06T08:37:05.000Z</time>
        <extensions>
          <ns3:TrackPointExtension>
            <ns3:hr>110</ns3:hr>
            <ns3:cad>52</ns3:cad>
          </ns3:TrackPointExtension>
        </extensions>
      </trkpt>
      <trkpt lat="52.115344293415546417236328125" lon="1.45282412879168987274169921875">
        <ele>-153.600006103515625</ele>
        <time>2025-09-06T08:37:07.000Z</time>
        <extensions>
          <ns3:TrackPointExtension>
            <ns3:hr>112</ns3:hr>
            <ns3:cad>53</ns3:cad>
          </ns3:TrackPointExtension>
        </extensions>
      </trkpt>
      <trkpt lat="52.11537186987698078155517578125" lon="1.452843658626079559326171875">
        <ele>-154.8000030517578125</ele>
        <time>2025-09-06T08:37:09.000Z</time>
        <extensions>
          <ns3:TrackPointExtension>
            <ns3:hr>112</ns3:hr>
            <ns3:cad>0</ns3:cad>
          </ns3:TrackPointExtension>
        </extensions>
      </trkpt>
      <trkpt lat="52.11538486182689666748046875" lon="1.45285178907215595245361328125">
        <ele>-156.1999969482421875</ele>
        <time>2025-09-06T08:37:10.000Z</time>
        <extensions>
          <ns3:TrackPointExtension>
            <ns3:hr>113</ns3:hr>
            <ns3:cad>53</ns3:cad>
          </ns3:TrackPointExtension>
        </extensions>
      </trkpt>
      <trkpt lat="52.1154108457267284393310546875" lon="1.45285966806113719940185546875">
        <ele>-158.600006103515625</ele>
        <time>2025-09-06T08:37:12.000Z</time>
        <extensions>
          <ns3:TrackPointExtension>
            <ns3:hr>112</ns3:hr>
            <ns3:cad>53</ns3:cad>
          </ns3:TrackPointExtension>
        </extensions>
      </trkpt>
      <trkpt lat="52.1154198981821537017822265625" lon="1.452867798507213592529296875">
        <ele>-160.1999969482421875</ele>
        <time>2025-09-06T08:37:13.000Z</time>
        <extensions>
          <ns3:TrackPointExtension>
            <ns3:hr>113</ns3:hr>
            <ns3:cad>53</ns3:cad>
          </ns3:TrackPointExtension>
        </extensions>
      </trkpt>
      <trkpt lat="52.115432806313037872314453125" lon="1.45287693478167057037353515625">
        <ele>-161.399993896484375</ele>
        <time>2025-09-06T08:37:14.000Z</time>
        <extensions>
          <ns3:TrackPointExtension>
            <ns3:hr>112</ns3:hr>
            <ns3:cad>54</ns3:cad>
          </ns3:TrackPointExtension>
        </extensions>
      </trkpt>
      <trkpt lat="52.1154618076980113983154296875" lon="1.45289101637899875640869140625">
        <ele>-163.1999969482421875</ele>
        <time>2025-09-06T08:37:16.000Z</time>
        <extensions>
          <ns3:TrackPointExtension>
            <ns3:hr>111</ns3:hr>
            <ns3:cad>55</ns3:cad>
          </ns3:TrackPointExtension>
        </extensions>
      </trkpt>
      <trkpt lat="52.11547211743891239166259765625" lon="1.4528971351683139801025390625">
        <ele>-164.1999969482421875</ele>
        <time>2025-09-06T08:37:17.000Z</time>
        <extensions>
          <ns3:TrackPointExtension>
            <ns3:hr>111</ns3:hr>
            <ns3:cad>55</ns3:cad>
          </ns3:TrackPointExtension>
        </extensions>
      </trkpt>
      <trkpt lat="52.11548234336078166961669921875" lon="1.45290459506213665008544921875">
        <ele>-164.8000030517578125</ele>
        <time>2025-09-06T08:37:18.000Z</time>
        <extensions>
          <ns3:TrackPointExtension>
            <ns3:hr>112</ns3:hr>
            <ns3:cad>55</ns3:cad>
          </ns3:TrackPointExtension>
        </extensions>
      </trkpt>
      <trkpt lat="52.11550514213740825653076171875" lon="1.45292068831622600555419921875">
        <ele>-167.1999969482421875</ele>
        <time>2025-09-06T08:37:20.000Z</time>
        <extensions>
          <ns3:TrackPointExtension>
            <ns3:hr>112</ns3:hr>
            <ns3:cad>0</ns3:cad>
          </ns3:TrackPointExtension>
        </extensions>
      </trkpt>
      <trkpt lat="52.1155144460499286651611328125" lon="1.452929489314556121826171875">
        <ele>-168.399993896484375</ele>
        <time>2025-09-06T08:37:21.000Z</time>
        <extensions>
          <ns3:TrackPointExtension>
            <ns3:hr>114</ns3:hr>
            <ns3:cad>0</ns3:cad>
          </ns3:TrackPointExtension>
        </extensions>
      </trkpt>
      <trkpt lat="52.1155343949794769287109375" lon="1.45293627865612506866455078125">
        <ele>-172.399993896484375</ele>
        <time>2025-09-06T08:37:23.000Z</time>
        <extensions>
          <ns3:TrackPointExtension>
            <ns3:hr>116</ns3:hr>
            <ns3:cad>0</ns3:cad>
          </ns3:TrackPointExtension>
        </extensions>
      </trkpt>
      <trkpt lat="52.1155429445207118988037109375" lon="1.45294399000704288482666015625">
        <ele>-174</ele>
        <time>2025-09-06T08:37:24.000Z</time>
        <extensions>
          <ns3:TrackPointExtension>
            <ns3:hr>116</ns3:hr>
            <ns3:cad>0</ns3:cad>
          </ns3:TrackPointExtension>
        </extensions>
      </trkpt>
      <trkpt lat="52.11555476300418376922607421875" lon="1.452947594225406646728515625">
        <ele>-175.1999969482421875</ele>
        <time>2025-09-06T08:37:25.000Z</time>
        <extensions>
          <ns3:TrackPointExtension>
            <ns3:hr>115</ns3:hr>
            <ns3:cad>0</ns3:cad>
          </ns3:TrackPointExtension>
        </extensions>
      </trkpt>
      <trkpt lat="52.11557538248598575592041015625" lon="1.452959664165973663330078125">
        <ele>-176.399993896484375</ele>
        <time>2025-09-06T08:37:27.000Z</time>
        <extensions>
          <ns3:TrackPointExtension>
            <ns3:hr>115</ns3:hr>
            <ns3:cad>52</ns3:cad>
          </ns3:TrackPointExtension>
        </extensions>
      </trkpt>
      <trkpt lat="52.11558544076979160308837890625" lon="1.45296938717365264892578125">
        <ele>-176.600006103515625</ele>
        <time>2025-09-06T08:37:28.000Z</time>
        <extensions>
          <ns3:TrackPointExtension>
            <ns3:hr>113</ns3:hr>
            <ns3:cad>53</ns3:cad>
          </ns3:TrackPointExtension>
        </extensions>
      </trkpt>
      <trkpt lat="52.11565718986093997955322265625" lon="1.4530211873352527618408203125">
        <ele>-177.1999969482421875</ele>
        <time>2025-09-06T08:37:35.000Z</time>
        <extensions>
          <ns3:TrackPointExtension>
            <ns3:hr>111</ns3:hr>
            <ns3:cad>53</ns3:cad>
          </ns3:TrackPointExtension>
        </extensions>
      </trkpt>
      <trkpt lat="52.11569507606327533721923828125" lon="1.45306737162172794342041015625">
        <ele>-177.399993896484375</ele>
        <time>2025-09-06T08:37:43.000Z</time>
        <extensions>
          <ns3:TrackPointExtension>
            <ns3:hr>110</ns3:hr>
            <ns3:cad>0</ns3:cad>
          </ns3:TrackPointExtension>
        </extensions>
      </trkpt>
      <trkpt lat="52.11569507606327533721923828125" lon="1.45307357423007488250732421875">
        <ele>-177.399993896484375</ele>
        <time>2025-09-06T08:37:44.000Z</time>
        <extensions>
          <ns3:TrackPointExtension>
            <ns3:hr>112</ns3:hr>
            <ns3:cad>0</ns3:cad>
          </ns3:TrackPointExtension>
        </extensions>
      </trkpt>
      <trkpt lat="52.1156921423971652984619140625" lon="1.45309084095060825347900390625">
        <ele>-177.399993896484375</ele>
        <time>2025-09-06T08:37:47.000Z</time>
        <extensions>
          <ns3:TrackPointExtension>
            <ns3:hr>109</ns3:hr>
            <ns3:cad>0</ns3:cad>
          </ns3:TrackPointExtension>
        </extensions>
      </trkpt>
      <trkpt lat="52.11569054983556270599365234375" lon="1.45309855230152606964111328125">
        <ele>-178.600006103515625</ele>
        <time>2025-09-06T08:37:50.000Z</time>
        <extensions>
          <ns3:TrackPointExtension>
            <ns3:hr>111</ns3:hr>
            <ns3:cad>0</ns3:cad>
          </ns3:TrackPointExtension>
        </extensions>
      </trkpt>
      <trkpt lat="52.11569004692137241363525390625" lon="1.453099139034748077392578125">
        <ele>-179.600006103515625</ele>
        <time>2025-09-06T08:37:51.000Z</time>
        <extensions>
          <ns3:TrackPointExtension>
            <ns3:hr>110</ns3:hr>
            <ns3:cad>0</ns3:cad>
          </ns3:TrackPointExtension>
        </extensions>
      </trkpt>
      <trkpt lat="52.1156901307404041290283203125" lon="1.4530993066728115081787109375">
        <ele>-180.600006103515625</ele>
        <time>2025-09-06T08:37:52.000Z</time>
        <extensions>
          <ns3:TrackPointExtension>
            <ns3:hr>106</ns3:hr>
            <ns3:cad>0</ns3:cad>
          </ns3:TrackPointExtension>
        </extensions>
      </trkpt>
      <trkpt lat="52.11569088511168956756591796875" lon="1.45309922285377979278564453125">
        <ele>-181.600006103515625</ele>
        <time>2025-09-06T08:37:53.000Z</time>
        <extensions>
          <ns3:TrackPointExtension>
            <ns3:hr>108</ns3:hr>
            <ns3:cad>0</ns3:cad>
          </ns3:TrackPointExtension>
        </extensions>
      </trkpt>
      <trkpt lat="52.11569063365459442138671875" lon="1.45309972576797008514404296875">
        <ele>-183</ele>
        <time>2025-09-06T08:37:55.000Z</time>
        <extensions>
          <ns3:TrackPointExtension>
            <ns3:hr>109</ns3:hr>
            <ns3:cad>0</ns3:cad>
          </ns3:TrackPointExtension>
        </extensions>
      </trkpt>
      <trkpt lat="52.11569071747362613677978515625" lon="1.45309939049184322357177734375">
        <ele>-183.399993896484375</ele>
        <time>2025-09-06T08:37:57.000Z</time>
        <extensions>
          <ns3:TrackPointExtension>
            <ns3:hr>113</ns3:hr>
            <ns3:cad>0</ns3:cad>
          </ns3:TrackPointExtension>
        </extensions>
      </trkpt>
      <trkpt lat="52.11569063365459442138671875" lon="1.45309939049184322357177734375">
        <ele>-184</ele>
        <time>2025-09-06T08:37:58.000Z</time>
        <extensions>
          <ns3:TrackPointExtension>
            <ns3:hr>115</ns3:hr>
            <ns3:cad>0</ns3:cad>
          </ns3:TrackPointExtension>
        </extensions>
      </trkpt>
      <trkpt lat="52.1156904660165309906005859375" lon="1.4530996419489383697509765625">
        <ele>-185</ele>
        <time>2025-09-06T08:38:00.000Z</time>
        <extensions>
          <ns3:TrackPointExtension>
            <ns3:hr>115</ns3:hr>
            <ns3:cad>0</ns3:cad>
          </ns3:TrackPointExtension>
        </extensions>
      </trkpt>
      <trkpt lat="52.11569054983556270599365234375" lon="1.45310039632022380828857421875">
        <ele>-185.399993896484375</ele>
        <time>2025-09-06T08:38:01.000Z</time>
        <extensions>
          <ns3:TrackPointExtension>
            <ns3:hr>115</ns3:hr>
            <ns3:cad>0</ns3:cad>
          </ns3:TrackPointExtension>
        </extensions>
      </trkpt>
      <trkpt lat="52.115689627826213836669921875" lon="1.453099139034748077392578125">
        <ele>-186.399993896484375</ele>
        <time>2025-09-06T08:38:03.000Z</time>
        <extensions>
          <ns3:TrackPointExtension>
            <ns3:hr>114</ns3:hr>
            <ns3:cad>0</ns3:cad>
          </ns3:TrackPointExtension>
        </extensions>
      </trkpt>
      <trkpt lat="52.1156901307404041290283203125" lon="1.4530993066728115081787109375">
        <ele>-187.8000030517578125</ele>
        <time>2025-09-06T08:38:05.000Z</time>
        <extensions>
          <ns3:TrackPointExtension>
            <ns3:hr>113</ns3:hr>
            <ns3:cad>0</ns3:cad>
          </ns3:TrackPointExtension>
        </extensions>
      </trkpt>
      <trkpt lat="52.11569197475910186767578125" lon="1.453101150691509246826171875">
        <ele>-189</ele>
        <time>2025-09-06T08:38:07.000Z</time>
        <extensions>
          <ns3:TrackPointExtension>
            <ns3:hr>111</ns3:hr>
            <ns3:cad>0</ns3:cad>
          </ns3:TrackPointExtension>
        </extensions>
      </trkpt>
      <trkpt lat="52.115694321691989898681640625" lon="1.45310358144342899322509765625">
        <ele>-189.399993896484375</ele>
        <time>2025-09-06T08:38:08.000Z</time>
        <extensions>
          <ns3:TrackPointExtension>
            <ns3:hr>108</ns3:hr>
            <ns3:cad>0</ns3:cad>
          </ns3:TrackPointExtension>
        </extensions>
      </trkpt>
      <trkpt lat="52.1156965009868144989013671875" lon="1.4531029947102069854736328125">
        <ele>-190.1999969482421875</ele>
        <time>2025-09-06T08:38:11.000Z</time>
        <extensions>
          <ns3:TrackPointExtension>
            <ns3:hr>110</ns3:hr>
            <ns3:cad>0</ns3:cad>
          </ns3:TrackPointExtension>
        </extensions>
      </trkpt>
      <trkpt lat="52.1156954951584339141845703125" lon="1.45310441963374614715576171875">
        <ele>-192</ele>
        <time>2025-09-06T08:38:14.000Z</time>
        <extensions>
          <ns3:TrackPointExtension>
            <ns3:hr>109</ns3:hr>
            <ns3:cad>0</ns3:cad>
          </ns3:TrackPointExtension>
        </extensions>
      </trkpt>
      <trkpt lat="52.11569323204457759857177734375" lon="1.45310257561504840850830078125">
        <ele>-193.600006103515625</ele>
        <time>2025-09-06T08:38:16.000Z</time>
        <extensions>
          <ns3:TrackPointExtension>
            <ns3:hr>109</ns3:hr>
            <ns3:cad>0</ns3:cad>
          </ns3:TrackPointExtension>
        </extensions>
      </trkpt>
      <trkpt lat="52.11569272913038730621337890625" lon="1.45310190506279468536376953125">
        <ele>-194</ele>
        <time>2025-09-06T08:38:17.000Z</time>
        <extensions>
          <ns3:TrackPointExtension>
            <ns3:hr>109</ns3:hr>
            <ns3:cad>0</ns3:cad>
          </ns3:TrackPointExtension>
        </extensions>
      </trkpt>
      <trkpt lat="52.11569071747362613677978515625" lon="1.453099809587001800537109375">
        <ele>-194.600006103515625</ele>
        <time>2025-09-06T08:38:18.000Z</time>
        <extensions>
          <ns3:TrackPointExtension>
            <ns3:hr>110</ns3:hr>
            <ns3:cad>0</ns3:cad>
          </ns3:TrackPointExtension>
        </extensions>
      </trkpt>
      <trkpt lat="52.11568929255008697509765625" lon="1.45309871993958950042724609375">
        <ele>-195.8000030517578125</ele>
        <time>2025-09-06T08:38:20.000Z</time>
        <extensions>
          <ns3:TrackPointExtension>
            <ns3:hr>111</ns3:hr>
            <ns3:cad>0</ns3:cad>
          </ns3:TrackPointExtension>
        </extensions>
      </trkpt>
      <trkpt lat="52.115690298378467559814453125" lon="1.45309813320636749267578125">
        <ele>-197.399993896484375</ele>
        <time>2025-09-06T08:38:21.000Z</time>
        <extensions>
          <ns3:TrackPointExtension>
            <ns3:hr>109</ns3:hr>
            <ns3:cad>0</ns3:cad>
          </ns3:TrackPointExtension>
        </extensions>
      </trkpt>
      <trkpt lat="52.11569054983556270599365234375" lon="1.45309545099735260009765625">
        <ele>-199.1999969482421875</ele>
        <time>2025-09-06T08:38:23.000Z</time>
        <extensions>
          <ns3:TrackPointExtension>
            <ns3:hr>108</ns3:hr>
            <ns3:cad>0</ns3:cad>
          </ns3:TrackPointExtension>
        </extensions>
      </trkpt>
      <trkpt lat="52.115722484886646270751953125" lon="1.45310525782406330108642578125">
        <ele>-200.399993896484375</ele>
        <time>2025-09-06T08:38:26.000Z</time>
        <extensions>
          <ns3:TrackPointExtension>
            <ns3:hr>108</ns3:hr>
            <ns3:cad>0</ns3:cad>
          </ns3:TrackPointExtension>
        </extensions>
      </trkpt>
      <trkpt lat="52.1157682500779628753662109375" lon="1.453116238117218017578125">
        <ele>-201.600006103515625</ele>
        <time>2025-09-06T08:38:29.000Z</time>
        <extensions>
          <ns3:TrackPointExtension>
            <ns3:hr>108</ns3:hr>
            <ns3:cad>0</ns3:cad>
          </ns3:TrackPointExtension>
        </extensions>
      </trkpt>
      <trkpt lat="52.115810997784137725830078125" lon="1.453121267259120941162109375">
        <ele>-202.600006103515625</ele>
        <time>2025-09-06T08:38:32.000Z</time>
        <extensions>
          <ns3:TrackPointExtension>
            <ns3:hr>109</ns3:hr>
            <ns3:cad>56</ns3:cad>
          </ns3:TrackPointExtension>
        </extensions>
      </trkpt>
      <trkpt lat="52.11583840660750865936279296875" lon="1.45312788896262645721435546875">
        <ele>-205.8000030517578125</ele>
        <time>2025-09-06T08:38:34.000Z</time>
        <extensions>
          <ns3:TrackPointExtension>
            <ns3:hr>109</ns3:hr>
            <ns3:cad>56</ns3:cad>
          </ns3:TrackPointExtension>
        </extensions>
      </trkpt>
      <trkpt lat="52.1158470399677753448486328125" lon="1.45312470383942127227783203125">
        <ele>-207.1999969482421875</ele>
        <time>2025-09-06T08:38:35.000Z</time>
        <extensions>
          <ns3:TrackPointExtension>
            <ns3:hr>107</ns3:hr>
            <ns3:cad>56</ns3:cad>
          </ns3:TrackPointExtension>
        </extensions>
      </trkpt>
      <trkpt lat="52.1158627979457378387451171875" lon="1.45309838466346263885498046875">
        <ele>-208.399993896484375</ele>
        <time>2025-09-06T08:38:37.000Z</time>
        <extensions>
          <ns3:TrackPointExtension>
            <ns3:hr>107</ns3:hr>
            <ns3:cad>55</ns3:cad>
          </ns3:TrackPointExtension>
        </extensions>
      </trkpt>
      <trkpt lat="52.115870676934719085693359375" lon="1.4530808664858341217041015625">
        <ele>-208.8000030517578125</ele>
        <time>2025-09-06T08:38:38.000Z</time>
        <extensions>
          <ns3:TrackPointExtension>
            <ns3:hr>107</ns3:hr>
            <ns3:cad>53</ns3:cad>
          </ns3:TrackPointExtension>
        </extensions>
      </trkpt>
      <trkpt lat="52.11591300554573535919189453125" lon="1.45303183235228061676025390625">
        <ele>-209.600006103515625</ele>
        <time>2025-09-06T08:38:42.000Z</time>
        <extensions>
          <ns3:TrackPointExtension>
            <ns3:hr>102</ns3:hr>
            <ns3:cad>47</ns3:cad>
          </ns3:TrackPointExtension>
        </extensions>
      </trkpt>
      <trkpt lat="52.11592289619147777557373046875" lon="1.45302730612456798553466796875">
        <ele>-209.8000030517578125</ele>
        <time>2025-09-06T08:38:43.000Z</time>
        <extensions>
          <ns3:TrackPointExtension>
            <ns3:hr>105</ns3:hr>
            <ns3:cad>47</ns3:cad>
          </ns3:TrackPointExtension>
        </extensions>
      </trkpt>
      <trkpt lat="52.1159560047090053558349609375" lon="1.45301674492657184600830078125">
        <ele>-210</ele>
        <time>2025-09-06T08:38:46.000Z</time>
        <extensions>
          <ns3:TrackPointExtension>
            <ns3:hr>104</ns3:hr>
            <ns3:cad>45</ns3:cad>
          </ns3:TrackPointExtension>
        </extensions>
      </trkpt>
      <trkpt lat="52.11600755341351032257080078125" lon="1.45294968970119953155517578125">
        <ele>-206.8000030517578125</ele>
        <time>2025-09-06T08:38:53.000Z</time>
        <extensions>
          <ns3:TrackPointExtension>
            <ns3:hr>106</ns3:hr>
            <ns3:cad>49</ns3:cad>
          </ns3:TrackPointExtension>
        </extensions>
      </trkpt>
      <trkpt lat="52.1160143427550792694091796875" lon="1.4529521204531192779541015625">
        <ele>-205.8000030517578125</ele>
        <time>2025-09-06T08:38:54.000Z</time>
        <extensions>
          <ns3:TrackPointExtension>
            <ns3:hr>108</ns3:hr>
            <ns3:cad>49</ns3:cad>
          </ns3:TrackPointExtension>
        </extensions>
      </trkpt>
      <trkpt lat="52.11602859199047088623046875" lon="1.4529346860945224761962890625">
        <ele>-204.600006103515625</ele>
        <time>2025-09-06T08:38:56.000Z</time>
        <extensions>
          <ns3:TrackPointExtension>
            <ns3:hr>112</ns3:hr>
            <ns3:cad>50</ns3:cad>
          </ns3:TrackPointExtension>
        </extensions>
      </trkpt>
      <trkpt lat="52.11604326032102108001708984375" lon="1.45290912128984928131103515625">
        <ele>-203.399993896484375</ele>
        <time>2025-09-06T08:38:59.000Z</time>
        <extensions>
          <ns3:TrackPointExtension>
            <ns3:hr>116</ns3:hr>
            <ns3:cad>0</ns3:cad>
          </ns3:TrackPointExtension>
        </extensions>
      </trkpt>
      <trkpt lat="52.11605616845190525054931640625" lon="1.4528884179890155792236328125">
        <ele>-202.399993896484375</ele>
        <time>2025-09-06T08:39:02.000Z</time>
        <extensions>
          <ns3:TrackPointExtension>
            <ns3:hr>118</ns3:hr>
            <ns3:cad>0</ns3:cad>
          </ns3:TrackPointExtension>
        </extensions>
      </trkpt>
      <trkpt lat="52.11606320925056934356689453125" lon="1.45287592895328998565673828125">
        <ele>-199.600006103515625</ele>
        <time>2025-09-06T08:39:05.000Z</time>
        <extensions>
          <ns3:TrackPointExtension>
            <ns3:hr>118</ns3:hr>
            <ns3:cad>0</ns3:cad>
          </ns3:TrackPointExtension>
        </extensions>
      </trkpt>
      <trkpt lat="52.1160559169948101043701171875" lon="1.452830247581005096435546875">
        <ele>-198.399993896484375</ele>
        <time>2025-09-06T08:39:06.000Z</time>
        <extensions>
          <ns3:TrackPointExtension>
            <ns3:hr>118</ns3:hr>
            <ns3:cad>0</ns3:cad>
          </ns3:TrackPointExtension>
        </extensions>
      </trkpt>
      <trkpt lat="52.11604761891067028045654296875" lon="1.45283049903810024261474609375">
        <ele>-197</ele>
        <time>2025-09-06T08:39:08.000Z</time>
        <extensions>
          <ns3:TrackPointExtension>
            <ns3:hr>118</ns3:hr>
            <ns3:cad>0</ns3:cad>
          </ns3:TrackPointExtension>
        </extensions>
      </trkpt>
      <trkpt lat="52.11605030111968517303466796875" lon="1.45283200778067111968994140625">
        <ele>-196.600006103515625</ele>
        <time>2025-09-06T08:39:11.000Z</time>
        <extensions>
          <ns3:TrackPointExtension>
            <ns3:hr>116</ns3:hr>
            <ns3:cad>0</ns3:cad>
          </ns3:TrackPointExtension>
        </extensions>
      </trkpt>
      <trkpt lat="52.11604694835841655731201171875" lon="1.4528307504951953887939453125">
        <ele>-195.8000030517578125</ele>
        <time>2025-09-06T08:39:13.000Z</time>
        <extensions>
          <ns3:TrackPointExtension>
            <ns3:hr>117</ns3:hr>
            <ns3:cad>0</ns3:cad>
          </ns3:TrackPointExtension>
        </extensions>
      </trkpt>
      <trkpt lat="52.11605264805257320404052734375" lon="1.4528210274875164031982421875">
        <ele>-194.600006103515625</ele>
        <time>2025-09-06T08:39:17.000Z</time>
        <extensions>
          <ns3:TrackPointExtension>
            <ns3:hr>115</ns3:hr>
            <ns3:cad>0</ns3:cad>
          </ns3:TrackPointExtension>
        </extensions>
      </trkpt>
      <trkpt lat="52.11605943739414215087890625" lon="1.45281507633626461029052734375">
        <ele>-193.600006103515625</ele>
        <time>2025-09-06T08:39:19.000Z</time>
        <extensions>
          <ns3:TrackPointExtension>
            <ns3:hr>115</ns3:hr>
            <ns3:cad>0</ns3:cad>
          </ns3:TrackPointExtension>
        </extensions>
      </trkpt>
      <trkpt lat="52.1160616166889667510986328125" lon="1.452813483774662017822265625">
        <ele>-193</ele>
        <time>2025-09-06T08:39:22.000Z</time>
        <extensions>
          <ns3:TrackPointExtension>
            <ns3:hr>118</ns3:hr>
            <ns3:cad>0</ns3:cad>
          </ns3:TrackPointExtension>
        </extensions>
      </trkpt>
      <trkpt lat="52.1160616166889667510986328125" lon="1.45281323231756687164306640625">
        <ele>-192.399993896484375</ele>
        <time>2025-09-06T08:39:23.000Z</time>
        <extensions>
          <ns3:TrackPointExtension>
            <ns3:hr>120</ns3:hr>
            <ns3:cad>0</ns3:cad>
          </ns3:TrackPointExtension>
        </extensions>
      </trkpt>
      <trkpt lat="52.1160614490509033203125" lon="1.4528123103082180023193359375">
        <ele>-191.8000030517578125</ele>
        <time>2025-09-06T08:39:24.000Z</time>
        <extensions>
          <ns3:TrackPointExtension>
            <ns3:hr>122</ns3:hr>
            <ns3:cad>0</ns3:cad>
          </ns3:TrackPointExtension>
        </extensions>
      </trkpt>
      <trkpt lat="52.11606136523187160491943359375" lon="1.4528118073940277099609375">
        <ele>-190</ele>
        <time>2025-09-06T08:39:25.000Z</time>
        <extensions>
          <ns3:TrackPointExtension>
            <ns3:hr>122</ns3:hr>
            <ns3:cad>0</ns3:cad>
          </ns3:TrackPointExtension>
        </extensions>
      </trkpt>
      <trkpt lat="52.1160614490509033203125" lon="1.4528109692037105560302734375">
        <ele>-188.1999969482421875</ele>
        <time>2025-09-06T08:39:27.000Z</time>
        <extensions>
          <ns3:TrackPointExtension>
            <ns3:hr>121</ns3:hr>
            <ns3:cad>0</ns3:cad>
          </ns3:TrackPointExtension>
        </extensions>
      </trkpt>
      <trkpt lat="52.116062454879283905029296875" lon="1.4528069458901882171630859375">
        <ele>-187</ele>
        <time>2025-09-06T08:39:30.000Z</time>
        <extensions>
          <ns3:TrackPointExtension>
            <ns3:hr>121</ns3:hr>
            <ns3:cad>0</ns3:cad>
          </ns3:TrackPointExtension>
        </extensions>
      </trkpt>
      <trkpt lat="52.11606480181217193603515625" lon="1.4528062753379344940185546875">
        <ele>-186</ele>
        <time>2025-09-06T08:39:33.000Z</time>
        <extensions>
          <ns3:TrackPointExtension>
            <ns3:hr>120</ns3:hr>
            <ns3:cad>0</ns3:cad>
          </ns3:TrackPointExtension>
        </extensions>
      </trkpt>
      <trkpt lat="52.1160659752786159515380859375" lon="1.45280417986214160919189453125">
        <ele>-184.8000030517578125</ele>
        <time>2025-09-06T08:39:37.000Z</time>
        <extensions>
          <ns3:TrackPointExtension>
            <ns3:hr>118</ns3:hr>
            <ns3:cad>0</ns3:cad>
          </ns3:TrackPointExtension>
        </extensions>
      </trkpt>
      <trkpt lat="52.1160676516592502593994140625" lon="1.452803425490856170654296875">
        <ele>-183.1999969482421875</ele>
        <time>2025-09-06T08:39:39.000Z</time>
        <extensions>
          <ns3:TrackPointExtension>
            <ns3:hr>118</ns3:hr>
            <ns3:cad>0</ns3:cad>
          </ns3:TrackPointExtension>
        </extensions>
      </trkpt>
      <trkpt lat="52.11606807075440883636474609375" lon="1.452800072729587554931640625">
        <ele>-179.600006103515625</ele>
        <time>2025-09-06T08:39:41.000Z</time>
        <extensions>
          <ns3:TrackPointExtension>
            <ns3:hr>117</ns3:hr>
            <ns3:cad>0</ns3:cad>
          </ns3:TrackPointExtension>
        </extensions>
      </trkpt>
      <trkpt lat="52.11606740020215511322021484375" lon="1.45279780961573123931884765625">
        <ele>-173.399993896484375</ele>
        <time>2025-09-06T08:39:42.000Z</time>
        <extensions>
          <ns3:TrackPointExtension>
            <ns3:hr>118</ns3:hr>
            <ns3:cad>0</ns3:cad>
          </ns3:TrackPointExtension>
        </extensions>
      </trkpt>
      <trkpt lat="52.11606706492602825164794921875" lon="1.45279848016798496246337890625">
        <ele>-167.600006103515625</ele>
        <time>2025-09-06T08:39:43.000Z</time>
        <extensions>
          <ns3:TrackPointExtension>
            <ns3:hr>122</ns3:hr>
            <ns3:cad>0</ns3:cad>
          </ns3:TrackPointExtension>
        </extensions>
      </trkpt>
      <trkpt lat="52.11606672964990139007568359375" lon="1.4528010785579681396484375">
        <ele>-163.399993896484375</ele>
        <time>2025-09-06T08:39:44.000Z</time>
        <extensions>
          <ns3:TrackPointExtension>
            <ns3:hr>123</ns3:hr>
            <ns3:cad>0</ns3:cad>
          </ns3:TrackPointExtension>
        </extensions>
      </trkpt>
      <trkpt lat="52.11606555618345737457275390625" lon="1.4528005756437778472900390625">
        <ele>-160.8000030517578125</ele>
        <time>2025-09-06T08:39:45.000Z</time>
        <extensions>
          <ns3:TrackPointExtension>
            <ns3:hr>124</ns3:hr>
            <ns3:cad>0</ns3:cad>
          </ns3:TrackPointExtension>
        </extensions>
      </trkpt>
      <trkpt lat="52.1160653047263622283935546875" lon="1.45280049182474613189697265625">
        <ele>-156.8000030517578125</ele>
        <time>2025-09-06T08:39:46.000Z</time>
        <extensions>
          <ns3:TrackPointExtension>
            <ns3:hr>124</ns3:hr>
            <ns3:cad>0</ns3:cad>
          </ns3:TrackPointExtension>
        </extensions>
      </trkpt>
      <trkpt lat="52.11606471799314022064208984375" lon="1.45279948599636554718017578125">
        <ele>-152.600006103515625</ele>
        <time>2025-09-06T08:39:47.000Z</time>
        <extensions>
          <ns3:TrackPointExtension>
            <ns3:hr>124</ns3:hr>
            <ns3:cad>0</ns3:cad>
          </ns3:TrackPointExtension>
        </extensions>
      </trkpt>
      <trkpt lat="52.1160639636218547821044921875" lon="1.45279780961573123931884765625">
        <ele>-148.600006103515625</ele>
        <time>2025-09-06T08:39:48.000Z</time>
        <extensions>
          <ns3:TrackPointExtension>
            <ns3:hr>124</ns3:hr>
            <ns3:cad>0</ns3:cad>
          </ns3:TrackPointExtension>
        </extensions>
      </trkpt>
      <trkpt lat="52.11606346070766448974609375" lon="1.452795378863811492919921875">
        <ele>-145.1999969482421875</ele>
        <time>2025-09-06T08:39:49.000Z</time>
        <extensions>
          <ns3:TrackPointExtension>
            <ns3:hr>124</ns3:hr>
            <ns3:cad>0</ns3:cad>
          </ns3:TrackPointExtension>
        </extensions>
      </trkpt>
      <trkpt lat="52.11606304161250591278076171875" lon="1.45279244519770145416259765625">
        <ele>-142.8000030517578125</ele>
        <time>2025-09-06T08:39:50.000Z</time>
        <extensions>
          <ns3:TrackPointExtension>
            <ns3:hr>124</ns3:hr>
            <ns3:cad>0</ns3:cad>
          </ns3:TrackPointExtension>
        </extensions>
      </trkpt>
      <trkpt lat="52.116061784327030181884765625" lon="1.4527874998748302459716796875">
        <ele>-140.600006103515625</ele>
        <time>2025-09-06T08:39:51.000Z</time>
        <extensions>
          <ns3:TrackPointExtension>
            <ns3:hr>123</ns3:hr>
            <ns3:cad>0</ns3:cad>
          </ns3:TrackPointExtension>
        </extensions>
      </trkpt>
      <trkpt lat="52.11606069467961788177490234375" lon="1.4527811296284198760986328125">
        <ele>-138.8000030517578125</ele>
        <time>2025-09-06T08:39:52.000Z</time>
        <extensions>
          <ns3:TrackPointExtension>
            <ns3:hr>123</ns3:hr>
            <ns3:cad>0</ns3:cad>
          </ns3:TrackPointExtension>
        </extensions>
      </trkpt>
      <trkpt lat="52.1160602755844593048095703125" lon="1.452772580087184906005859375">
        <ele>-137.1999969482421875</ele>
        <time>2025-09-06T08:39:53.000Z</time>
        <extensions>
          <ns3:TrackPointExtension>
            <ns3:hr>123</ns3:hr>
            <ns3:cad>0</ns3:cad>
          </ns3:TrackPointExtension>
        </extensions>
      </trkpt>
      <trkpt lat="52.11606052704155445098876953125" lon="1.45276931114494800567626953125">
        <ele>-135.600006103515625</ele>
        <time>2025-09-06T08:39:54.000Z</time>
        <extensions>
          <ns3:TrackPointExtension>
            <ns3:hr>122</ns3:hr>
            <ns3:cad>0</ns3:cad>
          </ns3:TrackPointExtension>
        </extensions>
      </trkpt>
      <trkpt lat="52.11606186814606189727783203125" lon="1.45276461727917194366455078125">
        <ele>-134</ele>
        <time>2025-09-06T08:39:55.000Z</time>
        <extensions>
          <ns3:TrackPointExtension>
            <ns3:hr>122</ns3:hr>
            <ns3:cad>0</ns3:cad>
          </ns3:TrackPointExtension>
        </extensions>
      </trkpt>
      <trkpt lat="52.1160629577934741973876953125" lon="1.45275212824344635009765625">
        <ele>-132.1999969482421875</ele>
        <time>2025-09-06T08:39:56.000Z</time>
        <extensions>
          <ns3:TrackPointExtension>
            <ns3:hr>124</ns3:hr>
            <ns3:cad>45</ns3:cad>
          </ns3:TrackPointExtension>
        </extensions>
      </trkpt>
      <trkpt lat="52.11606237106025218963623046875" lon="1.45273796282708644866943359375">
        <ele>-131.399993896484375</ele>
        <time>2025-09-06T08:39:57.000Z</time>
        <extensions>
          <ns3:TrackPointExtension>
            <ns3:hr>121</ns3:hr>
            <ns3:cad>46</ns3:cad>
          </ns3:TrackPointExtension>
        </extensions>
      </trkpt>
      <trkpt lat="52.11606304161250591278076171875" lon="1.45272270776331424713134765625">
        <ele>-131</ele>
        <time>2025-09-06T08:39:58.000Z</time>
        <extensions>
          <ns3:TrackPointExtension>
            <ns3:hr>121</ns3:hr>
            <ns3:cad>49</ns3:cad>
          </ns3:TrackPointExtension>
        </extensions>
      </trkpt>
      <trkpt lat="52.1160579286515712738037109375" lon="1.4526589214801788330078125">
        <ele>-130.600006103515625</ele>
        <time>2025-09-06T08:40:03.000Z</time>
        <extensions>
          <ns3:TrackPointExtension>
            <ns3:hr>118</ns3:hr>
            <ns3:cad>0</ns3:cad>
          </ns3:TrackPointExtension>
        </extensions>
      </trkpt>
      <trkpt lat="52.11605432443320751190185546875" lon="1.45263000391423702239990234375">
        <ele>-130.1999969482421875</ele>
        <time>2025-09-06T08:40:06.000Z</time>
        <extensions>
          <ns3:TrackPointExtension>
            <ns3:hr>115</ns3:hr>
            <ns3:cad>0</ns3:cad>
          </ns3:TrackPointExtension>
        </extensions>
      </trkpt>
      <trkpt lat="52.11605180986225605010986328125" lon="1.45260368473827838897705078125">
        <ele>-130</ele>
        <time>2025-09-06T08:40:08.000Z</time>
        <extensions>
          <ns3:TrackPointExtension>
            <ns3:hr>115</ns3:hr>
            <ns3:cad>0</ns3:cad>
          </ns3:TrackPointExtension>
        </extensions>
      </trkpt>
      <trkpt lat="52.1160498820245265960693359375" lon="1.452570073306560516357421875">
        <ele>-131.399993896484375</ele>
        <time>2025-09-06T08:40:10.000Z</time>
        <extensions>
          <ns3:TrackPointExtension>
            <ns3:hr>115</ns3:hr>
            <ns3:cad>57</ns3:cad>
          </ns3:TrackPointExtension>
        </extensions>
      </trkpt>
      <trkpt lat="52.11605004966259002685546875" lon="1.45252472721040248870849609375">
        <ele>-132.399993896484375</ele>
        <time>2025-09-06T08:40:12.000Z</time>
        <extensions>
          <ns3:TrackPointExtension>
            <ns3:hr>114</ns3:hr>
            <ns3:cad>60</ns3:cad>
          </ns3:TrackPointExtension>
        </extensions>
      </trkpt>
      <trkpt lat="52.1160478703677654266357421875" lon="1.45248524844646453857421875">
        <ele>-132.600006103515625</ele>
        <time>2025-09-06T08:40:14.000Z</time>
        <extensions>
          <ns3:TrackPointExtension>
            <ns3:hr>113</ns3:hr>
            <ns3:cad>60</ns3:cad>
          </ns3:TrackPointExtension>
        </extensions>
      </trkpt>
      <trkpt lat="52.116045691072940826416015625" lon="1.45244099199771881103515625">
        <ele>-131.1999969482421875</ele>
        <time>2025-09-06T08:40:16.000Z</time>
        <extensions>
          <ns3:TrackPointExtension>
            <ns3:hr>113</ns3:hr>
            <ns3:cad>60</ns3:cad>
          </ns3:TrackPointExtension>
        </extensions>
      </trkpt>
      <trkpt lat="52.1160498820245265960693359375" lon="1.45241090096533298492431640625">
        <ele>-129.1999969482421875</ele>
        <time>2025-09-06T08:40:17.000Z</time>
        <extensions>
          <ns3:TrackPointExtension>
            <ns3:hr>113</ns3:hr>
            <ns3:cad>60</ns3:cad>
          </ns3:TrackPointExtension>
        </extensions>
      </trkpt>
      <trkpt lat="52.11605382151901721954345703125" lon="1.45238424651324748992919921875">
        <ele>-126.40000152587890625</ele>
        <time>2025-09-06T08:40:18.000Z</time>
        <extensions>
          <ns3:TrackPointExtension>
            <ns3:hr>112</ns3:hr>
            <ns3:cad>60</ns3:cad>
          </ns3:TrackPointExtension>
        </extensions>
      </trkpt>
      <trkpt lat="52.1160508878529071807861328125" lon="1.452360861003398895263671875">
        <ele>-125</ele>
        <time>2025-09-06T08:40:19.000Z</time>
        <extensions>
          <ns3:TrackPointExtension>
            <ns3:hr>112</ns3:hr>
            <ns3:cad>59</ns3:cad>
          </ns3:TrackPointExtension>
        </extensions>
      </trkpt>
      <trkpt lat="52.1160401590168476104736328125" lon="1.452322639524936676025390625">
        <ele>-123.40000152587890625</ele>
        <time>2025-09-06T08:40:21.000Z</time>
        <extensions>
          <ns3:TrackPointExtension>
            <ns3:hr>110</ns3:hr>
            <ns3:cad>60</ns3:cad>
          </ns3:TrackPointExtension>
        </extensions>
      </trkpt>
      <trkpt lat="52.116035632789134979248046875" lon="1.452303193509578704833984375">
        <ele>-122.40000152587890625</ele>
        <time>2025-09-06T08:40:22.000Z</time>
        <extensions>
          <ns3:TrackPointExtension>
            <ns3:hr>112</ns3:hr>
            <ns3:cad>60</ns3:cad>
          </ns3:TrackPointExtension>
        </extensions>
      </trkpt>
      <trkpt lat="52.1160274185240268707275390625" lon="1.45226128399372100830078125">
        <ele>-120.59999847412109375</ele>
        <time>2025-09-06T08:40:24.000Z</time>
        <extensions>
          <ns3:TrackPointExtension>
            <ns3:hr>112</ns3:hr>
            <ns3:cad>61</ns3:cad>
          </ns3:TrackPointExtension>
        </extensions>
      </trkpt>
      <trkpt lat="52.116019539535045623779296875" lon="1.45222264342010021209716796875">
        <ele>-118.59999847412109375</ele>
        <time>2025-09-06T08:40:26.000Z</time>
        <extensions>
          <ns3:TrackPointExtension>
            <ns3:hr>113</ns3:hr>
            <ns3:cad>61</ns3:cad>
          </ns3:TrackPointExtension>
        </extensions>
      </trkpt>
      <trkpt lat="52.11601560004055500030517578125" lon="1.452204287052154541015625">
        <ele>-117</ele>
        <time>2025-09-06T08:40:27.000Z</time>
        <extensions>
          <ns3:TrackPointExtension>
            <ns3:hr>112</ns3:hr>
            <ns3:cad>61</ns3:cad>
          </ns3:TrackPointExtension>
        </extensions>
      </trkpt>
      <trkpt lat="52.11601492948830127716064453125" lon="1.45219246856868267059326171875">
        <ele>-115</ele>
        <time>2025-09-06T08:40:28.000Z</time>
        <extensions>
          <ns3:TrackPointExtension>
            <ns3:hr>113</ns3:hr>
            <ns3:cad>60</ns3:cad>
          </ns3:TrackPointExtension>
        </extensions>
      </trkpt>
      <trkpt lat="52.116014175117015838623046875" lon="1.45217972807586193084716796875">
        <ele>-113.8000030517578125</ele>
        <time>2025-09-06T08:40:29.000Z</time>
        <extensions>
          <ns3:TrackPointExtension>
            <ns3:hr>113</ns3:hr>
            <ns3:cad>59</ns3:cad>
          </ns3:TrackPointExtension>
        </extensions>
      </trkpt>
      <trkpt lat="52.1160093136131763458251953125" lon="1.4521635510027408599853515625">
        <ele>-112.8000030517578125</ele>
        <time>2025-09-06T08:40:30.000Z</time>
        <extensions>
          <ns3:TrackPointExtension>
            <ns3:hr>111</ns3:hr>
            <ns3:cad>58</ns3:cad>
          </ns3:TrackPointExtension>
        </extensions>
      </trkpt>
      <trkpt lat="52.1160076372325420379638671875" lon="1.45215072669088840484619140625">
        <ele>-111.1999969482421875</ele>
        <time>2025-09-06T08:40:31.000Z</time>
        <extensions>
          <ns3:TrackPointExtension>
            <ns3:hr>111</ns3:hr>
            <ns3:cad>58</ns3:cad>
          </ns3:TrackPointExtension>
        </extensions>
      </trkpt>
      <trkpt lat="52.11600738577544689178466796875" lon="1.45213010720908641815185546875">
        <ele>-109.59999847412109375</ele>
        <time>2025-09-06T08:40:32.000Z</time>
        <extensions>
          <ns3:TrackPointExtension>
            <ns3:hr>110</ns3:hr>
            <ns3:cad>55</ns3:cad>
          </ns3:TrackPointExtension>
        </extensions>
      </trkpt>
      <trkpt lat="52.11601140908896923065185546875" lon="1.4520978368818759918212890625">
        <ele>-107.40000152587890625</ele>
        <time>2025-09-06T08:40:33.000Z</time>
        <extensions>
          <ns3:TrackPointExtension>
            <ns3:hr>110</ns3:hr>
            <ns3:cad>0</ns3:cad>
          </ns3:TrackPointExtension>
        </extensions>
      </trkpt>
      <trkpt lat="52.11601275019347667694091796875" lon="1.452063135802745819091796875">
        <ele>-105.59999847412109375</ele>
        <time>2025-09-06T08:40:34.000Z</time>
        <extensions>
          <ns3:TrackPointExtension>
            <ns3:hr>109</ns3:hr>
            <ns3:cad>0</ns3:cad>
          </ns3:TrackPointExtension>
        </extensions>
      </trkpt>
      <trkpt lat="52.11601140908896923065185546875" lon="1.452037990093231201171875">
        <ele>-104</ele>
        <time>2025-09-06T08:40:35.000Z</time>
        <extensions>
          <ns3:TrackPointExtension>
            <ns3:hr>107</ns3:hr>
            <ns3:cad>0</ns3:cad>
          </ns3:TrackPointExtension>
        </extensions>
      </trkpt>
      <trkpt lat="52.11600922979414463043212890625" lon="1.45201720297336578369140625">
        <ele>-102.59999847412109375</ele>
        <time>2025-09-06T08:40:36.000Z</time>
        <extensions>
          <ns3:TrackPointExtension>
            <ns3:hr>107</ns3:hr>
            <ns3:cad>0</ns3:cad>
          </ns3:TrackPointExtension>
        </extensions>
      </trkpt>
      <trkpt lat="52.116006128489971160888671875" lon="1.452004797756671905517578125">
        <ele>-101.59999847412109375</ele>
        <time>2025-09-06T08:40:37.000Z</time>
        <extensions>
          <ns3:TrackPointExtension>
            <ns3:hr>107</ns3:hr>
            <ns3:cad>0</ns3:cad>
          </ns3:TrackPointExtension>
        </extensions>
      </trkpt>
      <trkpt lat="52.1160019375383853912353515625" lon="1.4520012773573398590087890625">
        <ele>-100.1999969482421875</ele>
        <time>2025-09-06T08:40:38.000Z</time>
        <extensions>
          <ns3:TrackPointExtension>
            <ns3:hr>106</ns3:hr>
            <ns3:cad>0</ns3:cad>
          </ns3:TrackPointExtension>
        </extensions>
      </trkpt>
      <trkpt lat="52.11600151844322681427001953125" lon="1.45199717022478580474853515625">
        <ele>-99</ele>
        <time>2025-09-06T08:40:40.000Z</time>
        <extensions>
          <ns3:TrackPointExtension>
            <ns3:hr>106</ns3:hr>
            <ns3:cad>0</ns3:cad>
          </ns3:TrackPointExtension>
        </extensions>
      </trkpt>
      <trkpt lat="52.116010822355747222900390625" lon="1.451988704502582550048828125">
        <ele>-97.40000152587890625</ele>
        <time>2025-09-06T08:40:42.000Z</time>
        <extensions>
          <ns3:TrackPointExtension>
            <ns3:hr>105</ns3:hr>
            <ns3:cad>0</ns3:cad>
          </ns3:TrackPointExtension>
        </extensions>
      </trkpt>
      <trkpt lat="52.11601224727928638458251953125" lon="1.45198392681777477264404296875">
        <ele>-96.1999969482421875</ele>
        <time>2025-09-06T08:40:44.000Z</time>
        <extensions>
          <ns3:TrackPointExtension>
            <ns3:hr>106</ns3:hr>
            <ns3:cad>0</ns3:cad>
          </ns3:TrackPointExtension>
        </extensions>
      </trkpt>
      <trkpt lat="52.11601073853671550750732421875" lon="1.45197353325784206390380859375">
        <ele>-94.40000152587890625</ele>
        <time>2025-09-06T08:40:46.000Z</time>
        <extensions>
          <ns3:TrackPointExtension>
            <ns3:hr>104</ns3:hr>
            <ns3:cad>0</ns3:cad>
          </ns3:TrackPointExtension>
        </extensions>
      </trkpt>
      <trkpt lat="52.116006799042224884033203125" lon="1.45195676945149898529052734375">
        <ele>-93.1999969482421875</ele>
        <time>2025-09-06T08:40:49.000Z</time>
        <extensions>
          <ns3:TrackPointExtension>
            <ns3:hr>105</ns3:hr>
            <ns3:cad>0</ns3:cad>
          </ns3:TrackPointExtension>
        </extensions>
      </trkpt>
      <trkpt lat="52.11600705049932003021240234375" lon="1.4519583620131015777587890625">
        <ele>-92.8000030517578125</ele>
        <time>2025-09-06T08:40:51.000Z</time>
        <extensions>
          <ns3:TrackPointExtension>
            <ns3:hr>106</ns3:hr>
            <ns3:cad>0</ns3:cad>
          </ns3:TrackPointExtension>
        </extensions>
      </trkpt>
      <trkpt lat="52.1160049550235271453857421875" lon="1.45196221768856048583984375">
        <ele>-92</ele>
        <time>2025-09-06T08:40:54.000Z</time>
        <extensions>
          <ns3:TrackPointExtension>
            <ns3:hr>106</ns3:hr>
            <ns3:cad>0</ns3:cad>
          </ns3:TrackPointExtension>
        </extensions>
      </trkpt>
      <trkpt lat="52.1159982495009899139404296875" lon="1.4519615471363067626953125">
        <ele>-92</ele>
        <time>2025-09-06T08:40:57.000Z</time>
        <extensions>
          <ns3:TrackPointExtension>
            <ns3:hr>103</ns3:hr>
            <ns3:cad>0</ns3:cad>
          </ns3:TrackPointExtension>
        </extensions>
      </trkpt>
      <trkpt lat="52.11600084789097309112548828125" lon="1.45194746553897857666015625">
        <ele>-93.40000152587890625</ele>
        <time>2025-09-06T08:41:05.000Z</time>
        <extensions>
          <ns3:TrackPointExtension>
            <ns3:hr>105</ns3:hr>
            <ns3:cad>0</ns3:cad>
          </ns3:TrackPointExtension>
        </extensions>
      </trkpt>
      <trkpt lat="52.1159985847771167755126953125" lon="1.451948471367359161376953125">
        <ele>-108.40000152587890625</ele>
        <time>2025-09-06T08:41:06.000Z</time>
        <extensions>
          <ns3:TrackPointExtension>
            <ns3:hr>104</ns3:hr>
            <ns3:cad>0</ns3:cad>
          </ns3:TrackPointExtension>
        </extensions>
      </trkpt>
      <trkpt lat="52.11599715985357761383056640625" lon="1.45195291377604007720947265625">
        <ele>-116.1999969482421875</ele>
        <time>2025-09-06T08:41:07.000Z</time>
        <extensions>
          <ns3:TrackPointExtension>
            <ns3:hr>105</ns3:hr>
            <ns3:cad>0</ns3:cad>
          </ns3:TrackPointExtension>
        </extensions>
      </trkpt>
      <trkpt lat="52.11599565111100673675537109375" lon="1.45195559598505496978759765625">
        <ele>-120.59999847412109375</ele>
        <time>2025-09-06T08:41:08.000Z</time>
        <extensions>
          <ns3:TrackPointExtension>
            <ns3:hr>104</ns3:hr>
            <ns3:cad>0</ns3:cad>
          </ns3:TrackPointExtension>
        </extensions>
      </trkpt>
      <trkpt lat="52.115995399653911590576171875" lon="1.4519583620131015777587890625">
        <ele>-125</ele>
        <time>2025-09-06T08:41:09.000Z</time>
        <extensions>
          <ns3:TrackPointExtension>
            <ns3:hr>104</ns3:hr>
            <ns3:cad>0</ns3:cad>
          </ns3:TrackPointExtension>
        </extensions>
      </trkpt>
      <trkpt lat="52.11599682457745075225830078125" lon="1.45196087658405303955078125">
        <ele>-128.600006103515625</ele>
        <time>2025-09-06T08:41:10.000Z</time>
        <extensions>
          <ns3:TrackPointExtension>
            <ns3:hr>102</ns3:hr>
            <ns3:cad>0</ns3:cad>
          </ns3:TrackPointExtension>
        </extensions>
      </trkpt>
      <trkpt lat="52.11599699221551418304443359375" lon="1.451961211860179901123046875">
        <ele>-131.1999969482421875</ele>
        <time>2025-09-06T08:41:11.000Z</time>
        <extensions>
          <ns3:TrackPointExtension>
            <ns3:hr>103</ns3:hr>
            <ns3:cad>0</ns3:cad>
          </ns3:TrackPointExtension>
        </extensions>
      </trkpt>
      <trkpt lat="52.11599699221551418304443359375" lon="1.4519613794982433319091796875">
        <ele>-133</ele>
        <time>2025-09-06T08:41:12.000Z</time>
        <extensions>
          <ns3:TrackPointExtension>
            <ns3:hr>105</ns3:hr>
            <ns3:cad>0</ns3:cad>
          </ns3:TrackPointExtension>
        </extensions>
      </trkpt>
      <trkpt lat="52.11599715985357761383056640625" lon="1.45196163095533847808837890625">
        <ele>-136.8000030517578125</ele>
        <time>2025-09-06T08:41:13.000Z</time>
        <extensions>
          <ns3:TrackPointExtension>
            <ns3:hr>104</ns3:hr>
            <ns3:cad>0</ns3:cad>
          </ns3:TrackPointExtension>
        </extensions>
      </trkpt>
      <trkpt lat="52.1159975789487361907958984375" lon="1.4519623853266239166259765625">
        <ele>-140.600006103515625</ele>
        <time>2025-09-06T08:41:14.000Z</time>
        <extensions>
          <ns3:TrackPointExtension>
            <ns3:hr>103</ns3:hr>
            <ns3:cad>0</ns3:cad>
          </ns3:TrackPointExtension>
        </extensions>
      </trkpt>
      <trkpt lat="52.11599749512970447540283203125" lon="1.451962888240814208984375">
        <ele>-144</ele>
        <time>2025-09-06T08:41:15.000Z</time>
        <extensions>
          <ns3:TrackPointExtension>
            <ns3:hr>104</ns3:hr>
            <ns3:cad>0</ns3:cad>
          </ns3:TrackPointExtension>
        </extensions>
      </trkpt>
      <trkpt lat="52.11599766276776790618896484375" lon="1.451962888240814208984375">
        <ele>-147.1999969482421875</ele>
        <time>2025-09-06T08:41:16.000Z</time>
        <extensions>
          <ns3:TrackPointExtension>
            <ns3:hr>103</ns3:hr>
            <ns3:cad>0</ns3:cad>
          </ns3:TrackPointExtension>
        </extensions>
      </trkpt>
      <trkpt lat="52.1159982495009899139404296875" lon="1.45196364261209964752197265625">
        <ele>-149.8000030517578125</ele>
        <time>2025-09-06T08:41:17.000Z</time>
        <extensions>
          <ns3:TrackPointExtension>
            <ns3:hr>103</ns3:hr>
            <ns3:cad>0</ns3:cad>
          </ns3:TrackPointExtension>
        </extensions>
      </trkpt>
      <trkpt lat="52.1160012669861316680908203125" lon="1.4519647322595119476318359375">
        <ele>-152.1999969482421875</ele>
        <time>2025-09-06T08:41:18.000Z</time>
        <extensions>
          <ns3:TrackPointExtension>
            <ns3:hr>103</ns3:hr>
            <ns3:cad>0</ns3:cad>
          </ns3:TrackPointExtension>
        </extensions>
      </trkpt>
      <trkpt lat="52.11600118316709995269775390625" lon="1.45196598954498767852783203125">
        <ele>-154.399993896484375</ele>
        <time>2025-09-06T08:41:19.000Z</time>
        <extensions>
          <ns3:TrackPointExtension>
            <ns3:hr>102</ns3:hr>
            <ns3:cad>0</ns3:cad>
          </ns3:TrackPointExtension>
        </extensions>
      </trkpt>
      <trkpt lat="52.11600051261484622955322265625" lon="1.4519667439162731170654296875">
        <ele>-156.399993896484375</ele>
        <time>2025-09-06T08:41:20.000Z</time>
        <extensions>
          <ns3:TrackPointExtension>
            <ns3:hr>101</ns3:hr>
            <ns3:cad>0</ns3:cad>
          </ns3:TrackPointExtension>
        </extensions>
      </trkpt>
      <trkpt lat="52.11600101552903652191162109375" lon="1.45196624100208282470703125">
        <ele>-158.1999969482421875</ele>
        <time>2025-09-06T08:41:21.000Z</time>
        <extensions>
          <ns3:TrackPointExtension>
            <ns3:hr>103</ns3:hr>
            <ns3:cad>0</ns3:cad>
          </ns3:TrackPointExtension>
        </extensions>
      </trkpt>
      <trkpt lat="52.1160010993480682373046875" lon="1.4519655704498291015625">
        <ele>-159.8000030517578125</ele>
        <time>2025-09-06T08:41:22.000Z</time>
        <extensions>
          <ns3:TrackPointExtension>
            <ns3:hr>103</ns3:hr>
            <ns3:cad>0</ns3:cad>
          </ns3:TrackPointExtension>
        </extensions>
      </trkpt>
      <trkpt lat="52.11600269190967082977294921875" lon="1.45196381025016307830810546875">
        <ele>-161.399993896484375</ele>
        <time>2025-09-06T08:41:23.000Z</time>
        <extensions>
          <ns3:TrackPointExtension>
            <ns3:hr>103</ns3:hr>
            <ns3:cad>0</ns3:cad>
          </ns3:TrackPointExtension>
        </extensions>
      </trkpt>
      <trkpt lat="52.1160022728145122528076171875" lon="1.4519615471363067626953125">
        <ele>-163</ele>
        <time>2025-09-06T08:41:24.000Z</time>
        <extensions>
          <ns3:TrackPointExtension>
            <ns3:hr>102</ns3:hr>
            <ns3:cad>0</ns3:cad>
          </ns3:TrackPointExtension>
        </extensions>
      </trkpt>
      <trkpt lat="52.1160019375383853912353515625" lon="1.45196213386952877044677734375">
        <ele>-164.399993896484375</ele>
        <time>2025-09-06T08:41:25.000Z</time>
        <extensions>
          <ns3:TrackPointExtension>
            <ns3:hr>102</ns3:hr>
            <ns3:cad>0</ns3:cad>
          </ns3:TrackPointExtension>
        </extensions>
      </trkpt>
      <trkpt lat="52.1160016022622585296630859375" lon="1.4519615471363067626953125">
        <ele>-165.8000030517578125</ele>
        <time>2025-09-06T08:41:26.000Z</time>
        <extensions>
          <ns3:TrackPointExtension>
            <ns3:hr>103</ns3:hr>
            <ns3:cad>0</ns3:cad>
          </ns3:TrackPointExtension>
        </extensions>
      </trkpt>
      <trkpt lat="52.11600068025290966033935546875" lon="1.4519603736698627471923828125">
        <ele>-168.1999969482421875</ele>
        <time>2025-09-06T08:41:27.000Z</time>
        <extensions>
          <ns3:TrackPointExtension>
            <ns3:hr>104</ns3:hr>
            <ns3:cad>0</ns3:cad>
          </ns3:TrackPointExtension>
        </extensions>
      </trkpt>
      <trkpt lat="52.1159984171390533447265625" lon="1.451957859098911285400390625">
        <ele>-169.600006103515625</ele>
        <time>2025-09-06T08:41:28.000Z</time>
        <extensions>
          <ns3:TrackPointExtension>
            <ns3:hr>103</ns3:hr>
            <ns3:cad>0</ns3:cad>
          </ns3:TrackPointExtension>
        </extensions>
      </trkpt>
      <trkpt lat="52.11600118316709995269775390625" lon="1.451956517994403839111328125">
        <ele>-171.399993896484375</ele>
        <time>2025-09-06T08:41:30.000Z</time>
        <extensions>
          <ns3:TrackPointExtension>
            <ns3:hr>102</ns3:hr>
            <ns3:cad>0</ns3:cad>
          </ns3:TrackPointExtension>
        </extensions>
      </trkpt>
      <trkpt lat="52.1160012669861316680908203125" lon="1.45195224322378635406494140625">
        <ele>-170</ele>
        <time>2025-09-06T08:41:40.000Z</time>
        <extensions>
          <ns3:TrackPointExtension>
            <ns3:hr>101</ns3:hr>
            <ns3:cad>42</ns3:cad>
          </ns3:TrackPointExtension>
        </extensions>
      </trkpt>
      <trkpt lat="52.1160012669861316680908203125" lon="1.451958529651165008544921875">
        <ele>-169</ele>
        <time>2025-09-06T08:41:43.000Z</time>
        <extensions>
          <ns3:TrackPointExtension>
            <ns3:hr>101</ns3:hr>
            <ns3:cad>0</ns3:cad>
          </ns3:TrackPointExtension>
        </extensions>
      </trkpt>
      <trkpt lat="52.11592557840049266815185546875" lon="1.45195777527987957000732421875">
        <ele>-169.600006103515625</ele>
        <time>2025-09-06T08:41:51.000Z</time>
        <extensions>
          <ns3:TrackPointExtension>
            <ns3:hr>101</ns3:hr>
            <ns3:cad>0</ns3:cad>
          </ns3:TrackPointExtension>
        </extensions>
      </trkpt>
      <trkpt lat="52.115916274487972259521484375" lon="1.45195961929857730865478515625">
        <ele>-170.1999969482421875</ele>
        <time>2025-09-06T08:41:52.000Z</time>
        <extensions>
          <ns3:TrackPointExtension>
            <ns3:hr>100</ns3:hr>
            <ns3:cad>48</ns3:cad>
          </ns3:TrackPointExtension>
        </extensions>
      </trkpt>
      <trkpt lat="52.1158839203417301177978515625" lon="1.45195148885250091552734375">
        <ele>-170</ele>
        <time>2025-09-06T08:42:03.000Z</time>
        <extensions>
          <ns3:TrackPointExtension>
            <ns3:hr>100</ns3:hr>
            <ns3:cad>0</ns3:cad>
          </ns3:TrackPointExtension>
        </extensions>
      </trkpt>
      <trkpt lat="52.11587461642920970916748046875" lon="1.45194838754832744598388671875">
        <ele>-167.8000030517578125</ele>
        <time>2025-09-06T08:42:05.000Z</time>
        <extensions>
          <ns3:TrackPointExtension>
            <ns3:hr>100</ns3:hr>
            <ns3:cad>0</ns3:cad>
          </ns3:TrackPointExtension>
        </extensions>
      </trkpt>
      <trkpt lat="52.1158735267817974090576171875" lon="1.45195190794765949249267578125">
        <ele>-165</ele>
        <time>2025-09-06T08:42:06.000Z</time>
        <extensions>
          <ns3:TrackPointExtension>
            <ns3:hr>100</ns3:hr>
            <ns3:cad>0</ns3:cad>
          </ns3:TrackPointExtension>
        </extensions>
      </trkpt>
      <trkpt lat="52.1158723533153533935546875" lon="1.45195391960442066192626953125">
        <ele>-163</ele>
        <time>2025-09-06T08:42:07.000Z</time>
        <extensions>
          <ns3:TrackPointExtension>
            <ns3:hr>99</ns3:hr>
            <ns3:cad>0</ns3:cad>
          </ns3:TrackPointExtension>
        </extensions>
      </trkpt>
      <trkpt lat="52.11587143130600452423095703125" lon="1.45195375196635723114013671875">
        <ele>-161.8000030517578125</ele>
        <time>2025-09-06T08:42:08.000Z</time>
        <extensions>
          <ns3:TrackPointExtension>
            <ns3:hr>102</ns3:hr>
            <ns3:cad>0</ns3:cad>
          </ns3:TrackPointExtension>
        </extensions>
      </trkpt>
      <trkpt lat="52.11587193422019481658935546875" lon="1.451953165233135223388671875">
        <ele>-160.8000030517578125</ele>
        <time>2025-09-06T08:42:09.000Z</time>
        <extensions>
          <ns3:TrackPointExtension>
            <ns3:hr>99</ns3:hr>
            <ns3:cad>0</ns3:cad>
          </ns3:TrackPointExtension>
        </extensions>
      </trkpt>
      <trkpt lat="52.115876711905002593994140625" lon="1.45194604061543941497802734375">
        <ele>-159.399993896484375</ele>
        <time>2025-09-06T08:42:11.000Z</time>
        <extensions>
          <ns3:TrackPointExtension>
            <ns3:hr>100</ns3:hr>
            <ns3:cad>0</ns3:cad>
          </ns3:TrackPointExtension>
        </extensions>
      </trkpt>
      <trkpt lat="52.1158785559237003326416015625" lon="1.45194478332996368408203125">
        <ele>-157.399993896484375</ele>
        <time>2025-09-06T08:42:12.000Z</time>
        <extensions>
          <ns3:TrackPointExtension>
            <ns3:hr>100</ns3:hr>
            <ns3:cad>0</ns3:cad>
          </ns3:TrackPointExtension>
        </extensions>
      </trkpt>
      <trkpt lat="52.11587964557111263275146484375" lon="1.4519446156919002532958984375">
        <ele>-156</ele>
        <time>2025-09-06T08:42:13.000Z</time>
        <extensions>
          <ns3:TrackPointExtension>
            <ns3:hr>101</ns3:hr>
            <ns3:cad>0</ns3:cad>
          </ns3:TrackPointExtension>
        </extensions>
      </trkpt>
      <trkpt lat="52.11588107049465179443359375" lon="1.4519489742815494537353515625">
        <ele>-154.8000030517578125</ele>
        <time>2025-09-06T08:42:14.000Z</time>
        <extensions>
          <ns3:TrackPointExtension>
            <ns3:hr>101</ns3:hr>
            <ns3:cad>0</ns3:cad>
          </ns3:TrackPointExtension>
        </extensions>
      </trkpt>
      <trkpt lat="52.1158815734088420867919921875" lon="1.45195391960442066192626953125">
        <ele>-153.8000030517578125</ele>
        <time>2025-09-06T08:42:15.000Z</time>
        <extensions>
          <ns3:TrackPointExtension>
            <ns3:hr>100</ns3:hr>
            <ns3:cad>0</ns3:cad>
          </ns3:TrackPointExtension>
        </extensions>
      </trkpt>
      <trkpt lat="52.115881741046905517578125" lon="1.4519543386995792388916015625">
        <ele>-153.1999969482421875</ele>
        <time>2025-09-06T08:42:16.000Z</time>
        <extensions>
          <ns3:TrackPointExtension>
            <ns3:hr>100</ns3:hr>
            <ns3:cad>0</ns3:cad>
          </ns3:TrackPointExtension>
        </extensions>
      </trkpt>
      <trkpt lat="52.1158815734088420867919921875" lon="1.4519550092518329620361328125">
        <ele>-153</ele>
        <time>2025-09-06T08:42:17.000Z</time>
        <extensions>
          <ns3:TrackPointExtension>
            <ns3:hr>100</ns3:hr>
            <ns3:cad>0</ns3:cad>
          </ns3:TrackPointExtension>
        </extensions>
      </trkpt>
      <trkpt lat="52.11588785983622074127197265625" lon="1.4519633911550045013427734375">
        <ele>-152</ele>
        <time>2025-09-06T08:42:21.000Z</time>
        <extensions>
          <ns3:TrackPointExtension>
            <ns3:hr>99</ns3:hr>
            <ns3:cad>0</ns3:cad>
          </ns3:TrackPointExtension>
        </extensions>
      </trkpt>
      <trkpt lat="52.115905545651912689208984375" lon="1.45195626653730869293212890625">
        <ele>-151.8000030517578125</ele>
        <time>2025-09-06T08:42:26.000Z</time>
        <extensions>
          <ns3:TrackPointExtension>
            <ns3:hr>99</ns3:hr>
            <ns3:cad>0</ns3:cad>
          </ns3:TrackPointExtension>
        </extensions>
      </trkpt>
      <trkpt lat="52.115929685533046722412109375" lon="1.45194302313029766082763671875">
        <ele>-151.600006103515625</ele>
        <time>2025-09-06T08:42:28.000Z</time>
        <extensions>
          <ns3:TrackPointExtension>
            <ns3:hr>96</ns3:hr>
            <ns3:cad>0</ns3:cad>
          </ns3:TrackPointExtension>
        </extensions>
      </trkpt>
      <trkpt lat="52.11595826782286167144775390625" lon="1.45193564705550670623779296875">
        <ele>-151.600006103515625</ele>
        <time>2025-09-06T08:42:30.000Z</time>
        <extensions>
          <ns3:TrackPointExtension>
            <ns3:hr>104</ns3:hr>
            <ns3:cad>72</ns3:cad>
          </ns3:TrackPointExtension>
        </extensions>
      </trkpt>
      <trkpt lat="52.11600269190967082977294921875" lon="1.4519244991242885589599609375">
        <ele>-151.399993896484375</ele>
        <time>2025-09-06T08:42:33.000Z</time>
        <extensions>
          <ns3:TrackPointExtension>
            <ns3:hr>108</ns3:hr>
            <ns3:cad>75</ns3:cad>
          </ns3:TrackPointExtension>
        </extensions>
      </trkpt>
      <trkpt lat="52.11601945571601390838623046875" lon="1.45192458294332027435302734375">
        <ele>-151.399993896484375</ele>
        <time>2025-09-06T08:42:34.000Z</time>
        <extensions>
          <ns3:TrackPointExtension>
            <ns3:hr>113</ns3:hr>
            <ns3:cad>75</ns3:cad>
          </ns3:TrackPointExtension>
        </extensions>
      </trkpt>
      <trkpt lat="52.11603504605591297149658203125" lon="1.45192257128655910491943359375">
        <ele>-151.399993896484375</ele>
        <time>2025-09-06T08:42:35.000Z</time>
        <extensions>
          <ns3:TrackPointExtension>
            <ns3:hr>117</ns3:hr>
            <ns3:cad>75</ns3:cad>
          </ns3:TrackPointExtension>
        </extensions>
      </trkpt>
      <trkpt lat="52.116066478192806243896484375" lon="1.45191687159240245819091796875">
        <ele>-151.600006103515625</ele>
        <time>2025-09-06T08:42:37.000Z</time>
        <extensions>
          <ns3:TrackPointExtension>
            <ns3:hr>122</ns3:hr>
            <ns3:cad>76</ns3:cad>
          </ns3:TrackPointExtension>
        </extensions>
      </trkpt>
      <trkpt lat="52.11609539575874805450439453125" lon="1.45191393792629241943359375">
        <ele>-153.600006103515625</ele>
        <time>2025-09-06T08:42:39.000Z</time>
        <extensions>
          <ns3:TrackPointExtension>
            <ns3:hr>127</ns3:hr>
            <ns3:cad>77</ns3:cad>
          </ns3:TrackPointExtension>
        </extensions>
      </trkpt>
      <trkpt lat="52.11615071631968021392822265625" lon="1.45191268064081668853759765625">
        <ele>-154.1999969482421875</ele>
        <time>2025-09-06T08:42:42.000Z</time>
        <extensions>
          <ns3:TrackPointExtension>
            <ns3:hr>130</ns3:hr>
            <ns3:cad>76</ns3:cad>
          </ns3:TrackPointExtension>
        </extensions>
      </trkpt>
      <trkpt lat="52.11616898886859416961669921875" lon="1.45191100426018238067626953125">
        <ele>-154.1999969482421875</ele>
        <time>2025-09-06T08:42:43.000Z</time>
        <extensions>
          <ns3:TrackPointExtension>
            <ns3:hr>131</ns3:hr>
            <ns3:cad>77</ns3:cad>
          </ns3:TrackPointExtension>
        </extensions>
      </trkpt>
      <trkpt lat="52.1162041090428829193115234375" lon="1.4519127644598484039306640625">
        <ele>-151.8000030517578125</ele>
        <time>2025-09-06T08:42:45.000Z</time>
        <extensions>
          <ns3:TrackPointExtension>
            <ns3:hr>133</ns3:hr>
            <ns3:cad>78</ns3:cad>
          </ns3:TrackPointExtension>
        </extensions>
      </trkpt>
      <trkpt lat="52.116222046315670013427734375" lon="1.45191536284983158111572265625">
        <ele>-150.600006103515625</ele>
        <time>2025-09-06T08:42:46.000Z</time>
        <extensions>
          <ns3:TrackPointExtension>
            <ns3:hr>133</ns3:hr>
            <ns3:cad>78</ns3:cad>
          </ns3:TrackPointExtension>
        </extensions>
      </trkpt>
      <trkpt lat="52.11627175100147724151611328125" lon="1.45191553048789501190185546875">
        <ele>-149</ele>
        <time>2025-09-06T08:42:48.000Z</time>
        <extensions>
          <ns3:TrackPointExtension>
            <ns3:hr>134</ns3:hr>
            <ns3:cad>74</ns3:cad>
          </ns3:TrackPointExtension>
        </extensions>
      </trkpt>
      <trkpt lat="52.11631600745022296905517578125" lon="1.45192055962979793548583984375">
        <ele>-148.600006103515625</ele>
        <time>2025-09-06T08:42:50.000Z</time>
        <extensions>
          <ns3:TrackPointExtension>
            <ns3:hr>137</ns3:hr>
            <ns3:cad>74</ns3:cad>
          </ns3:TrackPointExtension>
        </extensions>
      </trkpt>
      <trkpt lat="52.11633394472301006317138671875" lon="1.4519208110868930816650390625">
        <ele>-147.600006103515625</ele>
        <time>2025-09-06T08:42:51.000Z</time>
        <extensions>
          <ns3:TrackPointExtension>
            <ns3:hr>136</ns3:hr>
            <ns3:cad>75</ns3:cad>
          </ns3:TrackPointExtension>
        </extensions>
      </trkpt>
      <trkpt lat="52.11635272018611431121826171875" lon="1.4519234932959079742431640625">
        <ele>-146.399993896484375</ele>
        <time>2025-09-06T08:42:52.000Z</time>
        <extensions>
          <ns3:TrackPointExtension>
            <ns3:hr>137</ns3:hr>
            <ns3:cad>75</ns3:cad>
          </ns3:TrackPointExtension>
        </extensions>
      </trkpt>
      <trkpt lat="52.1163948811590671539306640625" lon="1.45192625932395458221435546875">
        <ele>-144.1999969482421875</ele>
        <time>2025-09-06T08:42:54.000Z</time>
        <extensions>
          <ns3:TrackPointExtension>
            <ns3:hr>137</ns3:hr>
            <ns3:cad>75</ns3:cad>
          </ns3:TrackPointExtension>
        </extensions>
      </trkpt>
      <trkpt lat="52.11643268354237079620361328125" lon="1.4519208110868930816650390625">
        <ele>-142.600006103515625</ele>
        <time>2025-09-06T08:42:56.000Z</time>
        <extensions>
          <ns3:TrackPointExtension>
            <ns3:hr>138</ns3:hr>
            <ns3:cad>76</ns3:cad>
          </ns3:TrackPointExtension>
        </extensions>
      </trkpt>
      <trkpt lat="52.11645263247191905975341796875" lon="1.4519181288778781890869140625">
        <ele>-140.8000030517578125</ele>
        <time>2025-09-06T08:42:57.000Z</time>
        <extensions>
          <ns3:TrackPointExtension>
            <ns3:hr>138</ns3:hr>
            <ns3:cad>77</ns3:cad>
          </ns3:TrackPointExtension>
        </extensions>
      </trkpt>
      <trkpt lat="52.1164892613887786865234375" lon="1.45191050134599208831787109375">
        <ele>-139.399993896484375</ele>
        <time>2025-09-06T08:42:59.000Z</time>
        <extensions>
          <ns3:TrackPointExtension>
            <ns3:hr>138</ns3:hr>
            <ns3:cad>78</ns3:cad>
          </ns3:TrackPointExtension>
        </extensions>
      </trkpt>
      <trkpt lat="52.11656997911632061004638671875" lon="1.45190052688121795654296875">
        <ele>-139.1999969482421875</ele>
        <time>2025-09-06T08:43:06.000Z</time>
        <extensions>
          <ns3:TrackPointExtension>
            <ns3:hr>138</ns3:hr>
            <ns3:cad>0</ns3:cad>
          </ns3:TrackPointExtension>
        </extensions>
      </trkpt>
      <trkpt lat="52.1165724098682403564453125" lon="1.45190899260342121124267578125">
        <ele>-140.399993896484375</ele>
        <time>2025-09-06T08:43:14.000Z</time>
        <extensions>
          <ns3:TrackPointExtension>
            <ns3:hr>138</ns3:hr>
            <ns3:cad>0</ns3:cad>
          </ns3:TrackPointExtension>
        </extensions>
      </trkpt>
      <trkpt lat="52.1165776066482067108154296875" lon="1.45190714858472347259521484375">
        <ele>-141.399993896484375</ele>
        <time>2025-09-06T08:43:15.000Z</time>
        <extensions>
          <ns3:TrackPointExtension>
            <ns3:hr>139</ns3:hr>
            <ns3:cad>0</ns3:cad>
          </ns3:TrackPointExtension>
        </extensions>
      </trkpt>
      <trkpt lat="52.1165883354842662811279296875" lon="1.45190656185150146484375">
        <ele>-142</ele>
        <time>2025-09-06T08:43:16.000Z</time>
        <extensions>
          <ns3:TrackPointExtension>
            <ns3:hr>140</ns3:hr>
            <ns3:cad>0</ns3:cad>
          </ns3:TrackPointExtension>
        </extensions>
      </trkpt>
      <trkpt lat="52.1166111342608928680419921875" lon="1.45190714858472347259521484375">
        <ele>-144.399993896484375</ele>
        <time>2025-09-06T08:43:18.000Z</time>
        <extensions>
          <ns3:TrackPointExtension>
            <ns3:hr>141</ns3:hr>
            <ns3:cad>0</ns3:cad>
          </ns3:TrackPointExtension>
        </extensions>
      </trkpt>
      <trkpt lat="52.1166379563510417938232421875" lon="1.45191938616335391998291015625">
        <ele>-146.600006103515625</ele>
        <time>2025-09-06T08:43:20.000Z</time>
        <extensions>
          <ns3:TrackPointExtension>
            <ns3:hr>139</ns3:hr>
            <ns3:cad>0</ns3:cad>
          </ns3:TrackPointExtension>
        </extensions>
      </trkpt>
      <trkpt lat="52.1166641078889369964599609375" lon="1.45191284827888011932373046875">
        <ele>-148.399993896484375</ele>
        <time>2025-09-06T08:43:22.000Z</time>
        <extensions>
          <ns3:TrackPointExtension>
            <ns3:hr>137</ns3:hr>
            <ns3:cad>0</ns3:cad>
          </ns3:TrackPointExtension>
        </extensions>
      </trkpt>
      <trkpt lat="52.11668975651264190673828125" lon="1.45190932787954807281494140625">
        <ele>-149.399993896484375</ele>
        <time>2025-09-06T08:43:24.000Z</time>
        <extensions>
          <ns3:TrackPointExtension>
            <ns3:hr>138</ns3:hr>
            <ns3:cad>56</ns3:cad>
          </ns3:TrackPointExtension>
        </extensions>
      </trkpt>
      <trkpt lat="52.1167199313640594482421875" lon="1.4519040472805500030517578125">
        <ele>-150.399993896484375</ele>
        <time>2025-09-06T08:43:26.000Z</time>
        <extensions>
          <ns3:TrackPointExtension>
            <ns3:hr>138</ns3:hr>
            <ns3:cad>54</ns3:cad>
          </ns3:TrackPointExtension>
        </extensions>
      </trkpt>
      <trkpt lat="52.1167512796819210052490234375" lon="1.4519025385379791259765625">
        <ele>-152</ele>
        <time>2025-09-06T08:43:28.000Z</time>
        <extensions>
          <ns3:TrackPointExtension>
            <ns3:hr>137</ns3:hr>
            <ns3:cad>54</ns3:cad>
          </ns3:TrackPointExtension>
        </extensions>
      </trkpt>
      <trkpt lat="52.11678036488592624664306640625" lon="1.45189189352095127105712890625">
        <ele>-153.399993896484375</ele>
        <time>2025-09-06T08:43:30.000Z</time>
        <extensions>
          <ns3:TrackPointExtension>
            <ns3:hr>136</ns3:hr>
            <ns3:cad>54</ns3:cad>
          </ns3:TrackPointExtension>
        </extensions>
      </trkpt>
      <trkpt lat="52.11682931520044803619384765625" lon="1.4518815837800502777099609375">
        <ele>-154.600006103515625</ele>
        <time>2025-09-06T08:43:33.000Z</time>
        <extensions>
          <ns3:TrackPointExtension>
            <ns3:hr>136</ns3:hr>
            <ns3:cad>54</ns3:cad>
          </ns3:TrackPointExtension>
        </extensions>
      </trkpt>
      <trkpt lat="52.1168620884418487548828125" lon="1.4518812485039234161376953125">
        <ele>-156.600006103515625</ele>
        <time>2025-09-06T08:43:35.000Z</time>
        <extensions>
          <ns3:TrackPointExtension>
            <ns3:hr>137</ns3:hr>
            <ns3:cad>0</ns3:cad>
          </ns3:TrackPointExtension>
        </extensions>
      </trkpt>
      <trkpt lat="52.116899304091930389404296875" lon="1.45187714137136936187744140625">
        <ele>-157.600006103515625</ele>
        <time>2025-09-06T08:43:37.000Z</time>
        <extensions>
          <ns3:TrackPointExtension>
            <ns3:hr>137</ns3:hr>
            <ns3:cad>0</ns3:cad>
          </ns3:TrackPointExtension>
        </extensions>
      </trkpt>
      <trkpt lat="52.11692118085920810699462890625" lon="1.451879404485225677490234375">
        <ele>-157.600006103515625</ele>
        <time>2025-09-06T08:43:38.000Z</time>
        <extensions>
          <ns3:TrackPointExtension>
            <ns3:hr>138</ns3:hr>
            <ns3:cad>0</ns3:cad>
          </ns3:TrackPointExtension>
        </extensions>
      </trkpt>
      <trkpt lat="52.1170230209827423095703125" lon="1.4518933184444904327392578125">
        <ele>-157.8000030517578125</ele>
        <time>2025-09-06T08:43:44.000Z</time>
        <extensions>
          <ns3:TrackPointExtension>
            <ns3:hr>134</ns3:hr>
            <ns3:cad>76</ns3:cad>
          </ns3:TrackPointExtension>
        </extensions>
      </trkpt>
      <trkpt lat="52.11703869514167308807373046875" lon="1.45189650356769561767578125">
        <ele>-157.8000030517578125</ele>
        <time>2025-09-06T08:43:45.000Z</time>
        <extensions>
          <ns3:TrackPointExtension>
            <ns3:hr>136</ns3:hr>
            <ns3:cad>75</ns3:cad>
          </ns3:TrackPointExtension>
        </extensions>
      </trkpt>
      <trkpt lat="52.1170701272785663604736328125" lon="1.45189725793898105621337890625">
        <ele>-155.600006103515625</ele>
        <time>2025-09-06T08:43:47.000Z</time>
        <extensions>
          <ns3:TrackPointExtension>
            <ns3:hr>134</ns3:hr>
            <ns3:cad>75</ns3:cad>
          </ns3:TrackPointExtension>
        </extensions>
      </trkpt>
      <trkpt lat="52.11708479560911655426025390625" lon="1.4518953301012516021728515625">
        <ele>-153.8000030517578125</ele>
        <time>2025-09-06T08:43:48.000Z</time>
        <extensions>
          <ns3:TrackPointExtension>
            <ns3:hr>132</ns3:hr>
            <ns3:cad>75</ns3:cad>
          </ns3:TrackPointExtension>
        </extensions>
      </trkpt>
      <trkpt lat="52.117099463939666748046875" lon="1.451893150806427001953125">
        <ele>-152</ele>
        <time>2025-09-06T08:43:49.000Z</time>
        <extensions>
          <ns3:TrackPointExtension>
            <ns3:hr>132</ns3:hr>
            <ns3:cad>76</ns3:cad>
          </ns3:TrackPointExtension>
        </extensions>
      </trkpt>
      <trkpt lat="52.1171150542795658111572265625" lon="1.451893150806427001953125">
        <ele>-149.600006103515625</ele>
        <time>2025-09-06T08:43:50.000Z</time>
        <extensions>
          <ns3:TrackPointExtension>
            <ns3:hr>131</ns3:hr>
            <ns3:cad>76</ns3:cad>
          </ns3:TrackPointExtension>
        </extensions>
      </trkpt>
      <trkpt lat="52.11712687276303768157958984375" lon="1.45190455019474029541015625">
        <ele>-148.399993896484375</ele>
        <time>2025-09-06T08:43:51.000Z</time>
        <extensions>
          <ns3:TrackPointExtension>
            <ns3:hr>131</ns3:hr>
            <ns3:cad>76</ns3:cad>
          </ns3:TrackPointExtension>
        </extensions>
      </trkpt>
      <trkpt lat="52.1171428821980953216552734375" lon="1.451904885470867156982421875">
        <ele>-147</ele>
        <time>2025-09-06T08:43:52.000Z</time>
        <extensions>
          <ns3:TrackPointExtension>
            <ns3:hr>132</ns3:hr>
            <ns3:cad>77</ns3:cad>
          </ns3:TrackPointExtension>
        </extensions>
      </trkpt>
      <trkpt lat="52.1171572990715503692626953125" lon="1.45190496928989887237548828125">
        <ele>-145.8000030517578125</ele>
        <time>2025-09-06T08:43:53.000Z</time>
        <extensions>
          <ns3:TrackPointExtension>
            <ns3:hr>132</ns3:hr>
            <ns3:cad>77</ns3:cad>
          </ns3:TrackPointExtension>
        </extensions>
      </trkpt>
      <trkpt lat="52.1171707101166248321533203125" lon="1.45190346054732799530029296875">
        <ele>-144.8000030517578125</ele>
        <time>2025-09-06T08:43:54.000Z</time>
        <extensions>
          <ns3:TrackPointExtension>
            <ns3:hr>130</ns3:hr>
            <ns3:cad>77</ns3:cad>
          </ns3:TrackPointExtension>
        </extensions>
      </trkpt>
      <trkpt lat="52.11718806065618991851806640625" lon="1.45190186798572540283203125">
        <ele>-144.399993896484375</ele>
        <time>2025-09-06T08:43:55.000Z</time>
        <extensions>
          <ns3:TrackPointExtension>
            <ns3:hr>130</ns3:hr>
            <ns3:cad>76</ns3:cad>
          </ns3:TrackPointExtension>
        </extensions>
      </trkpt>
      <trkpt lat="52.11720616556704044342041015625" lon="1.45189784467220306396484375">
        <ele>-142.600006103515625</ele>
        <time>2025-09-06T08:43:56.000Z</time>
        <extensions>
          <ns3:TrackPointExtension>
            <ns3:hr>129</ns3:hr>
            <ns3:cad>76</ns3:cad>
          </ns3:TrackPointExtension>
        </extensions>
      </trkpt>
      <trkpt lat="52.11722225882112979888916015625" lon="1.45189809612929821014404296875">
        <ele>-141.399993896484375</ele>
        <time>2025-09-06T08:43:57.000Z</time>
        <extensions>
          <ns3:TrackPointExtension>
            <ns3:hr>131</ns3:hr>
            <ns3:cad>76</ns3:cad>
          </ns3:TrackPointExtension>
        </extensions>
      </trkpt>
      <trkpt lat="52.1172401122748851776123046875" lon="1.4519023708999156951904296875">
        <ele>-139.8000030517578125</ele>
        <time>2025-09-06T08:43:58.000Z</time>
        <extensions>
          <ns3:TrackPointExtension>
            <ns3:hr>132</ns3:hr>
            <ns3:cad>76</ns3:cad>
          </ns3:TrackPointExtension>
        </extensions>
      </trkpt>
      <trkpt lat="52.1172582171857357025146484375" lon="1.451905556023120880126953125">
        <ele>-138.600006103515625</ele>
        <time>2025-09-06T08:43:59.000Z</time>
        <extensions>
          <ns3:TrackPointExtension>
            <ns3:hr>133</ns3:hr>
            <ns3:cad>76</ns3:cad>
          </ns3:TrackPointExtension>
        </extensions>
      </trkpt>
      <trkpt lat="52.117295600473880767822265625" lon="1.451911590993404388427734375">
        <ele>-137.399993896484375</ele>
        <time>2025-09-06T08:44:01.000Z</time>
        <extensions>
          <ns3:TrackPointExtension>
            <ns3:hr>136</ns3:hr>
            <ns3:cad>76</ns3:cad>
          </ns3:TrackPointExtension>
        </extensions>
      </trkpt>
      <trkpt lat="52.11731697432696819305419921875" lon="1.451910920441150665283203125">
        <ele>-137.1999969482421875</ele>
        <time>2025-09-06T08:44:02.000Z</time>
        <extensions>
          <ns3:TrackPointExtension>
            <ns3:hr>139</ns3:hr>
            <ns3:cad>76</ns3:cad>
          </ns3:TrackPointExtension>
        </extensions>
      </trkpt>
      <trkpt lat="52.117421329021453857421875" lon="1.451920978724956512451171875">
        <ele>-138.399993896484375</ele>
        <time>2025-09-06T08:44:07.000Z</time>
        <extensions>
          <ns3:TrackPointExtension>
            <ns3:hr>142</ns3:hr>
            <ns3:cad>79</ns3:cad>
          </ns3:TrackPointExtension>
        </extensions>
      </trkpt>
      <trkpt lat="52.1174416132271289825439453125" lon="1.45192290656268596649169921875">
        <ele>-139</ele>
        <time>2025-09-06T08:44:08.000Z</time>
        <extensions>
          <ns3:TrackPointExtension>
            <ns3:hr>141</ns3:hr>
            <ns3:cad>79</ns3:cad>
          </ns3:TrackPointExtension>
        </extensions>
      </trkpt>
      <trkpt lat="52.11755502037703990936279296875" lon="1.4519372396171092987060546875">
        <ele>-140</ele>
        <time>2025-09-06T08:44:14.000Z</time>
        <extensions>
          <ns3:TrackPointExtension>
            <ns3:hr>141</ns3:hr>
            <ns3:cad>75</ns3:cad>
          </ns3:TrackPointExtension>
        </extensions>
      </trkpt>
      <trkpt lat="52.11758988909423351287841796875" lon="1.45193782635033130645751953125">
        <ele>-140.8000030517578125</ele>
        <time>2025-09-06T08:44:16.000Z</time>
        <extensions>
          <ns3:TrackPointExtension>
            <ns3:hr>142</ns3:hr>
            <ns3:cad>75</ns3:cad>
          </ns3:TrackPointExtension>
        </extensions>
      </trkpt>
      <trkpt lat="52.11760782636702060699462890625" lon="1.4519358985126018524169921875">
        <ele>-141</ele>
        <time>2025-09-06T08:44:17.000Z</time>
        <extensions>
          <ns3:TrackPointExtension>
            <ns3:hr>141</ns3:hr>
            <ns3:cad>76</ns3:cad>
          </ns3:TrackPointExtension>
        </extensions>
      </trkpt>
      <trkpt lat="52.117691226303577423095703125" lon="1.451937071979045867919921875">
        <ele>-141.1999969482421875</ele>
        <time>2025-09-06T08:44:23.000Z</time>
        <extensions>
          <ns3:TrackPointExtension>
            <ns3:hr>144</ns3:hr>
            <ns3:cad>77</ns3:cad>
          </ns3:TrackPointExtension>
        </extensions>
      </trkpt>
      <trkpt lat="52.11772215552628040313720703125" lon="1.4519426040351390838623046875">
        <ele>-133.600006103515625</ele>
        <time>2025-09-06T08:44:27.000Z</time>
        <extensions>
          <ns3:TrackPointExtension>
            <ns3:hr>142</ns3:hr>
            <ns3:cad>0</ns3:cad>
          </ns3:TrackPointExtension>
        </extensions>
      </trkpt>
      <trkpt lat="52.117728777229785919189453125" lon="1.45194268785417079925537109375">
        <ele>-129.600006103515625</ele>
        <time>2025-09-06T08:44:28.000Z</time>
        <extensions>
          <ns3:TrackPointExtension>
            <ns3:hr>142</ns3:hr>
            <ns3:cad>0</ns3:cad>
          </ns3:TrackPointExtension>
        </extensions>
      </trkpt>
      <trkpt lat="52.11773875169456005096435546875" lon="1.451944448053836822509765625">
        <ele>-127.1999969482421875</ele>
        <time>2025-09-06T08:44:29.000Z</time>
        <extensions>
          <ns3:TrackPointExtension>
            <ns3:hr>142</ns3:hr>
            <ns3:cad>0</ns3:cad>
          </ns3:TrackPointExtension>
        </extensions>
      </trkpt>
      <trkpt lat="52.11775283329188823699951171875" lon="1.4519459567964076995849609375">
        <ele>-125.8000030517578125</ele>
        <time>2025-09-06T08:44:30.000Z</time>
        <extensions>
          <ns3:TrackPointExtension>
            <ns3:hr>141</ns3:hr>
            <ns3:cad>0</ns3:cad>
          </ns3:TrackPointExtension>
        </extensions>
      </trkpt>
      <trkpt lat="52.1177819184958934783935546875" lon="1.4519483037292957305908203125">
        <ele>-124</ele>
        <time>2025-09-06T08:44:32.000Z</time>
        <extensions>
          <ns3:TrackPointExtension>
            <ns3:hr>141</ns3:hr>
            <ns3:cad>75</ns3:cad>
          </ns3:TrackPointExtension>
        </extensions>
      </trkpt>
      <trkpt lat="52.1178412623703479766845703125" lon="1.4519506506621837615966796875">
        <ele>-123</ele>
        <time>2025-09-06T08:44:35.000Z</time>
        <extensions>
          <ns3:TrackPointExtension>
            <ns3:hr>140</ns3:hr>
            <ns3:cad>76</ns3:cad>
          </ns3:TrackPointExtension>
        </extensions>
      </trkpt>
      <trkpt lat="52.117872945964336395263671875" lon="1.4519483037292957305908203125">
        <ele>-122.59999847412109375</ele>
        <time>2025-09-06T08:44:37.000Z</time>
        <extensions>
          <ns3:TrackPointExtension>
            <ns3:hr>140</ns3:hr>
            <ns3:cad>77</ns3:cad>
          </ns3:TrackPointExtension>
        </extensions>
      </trkpt>
      <trkpt lat="52.1179029531776905059814453125" lon="1.451943777501583099365234375">
        <ele>-121.59999847412109375</ele>
        <time>2025-09-06T08:44:40.000Z</time>
        <extensions>
          <ns3:TrackPointExtension>
            <ns3:hr>139</ns3:hr>
            <ns3:cad>77</ns3:cad>
          </ns3:TrackPointExtension>
        </extensions>
      </trkpt>
      <trkpt lat="52.1179123409092426300048828125" lon="1.4519456215202808380126953125">
        <ele>-121.1999969482421875</ele>
        <time>2025-09-06T08:44:42.000Z</time>
        <extensions>
          <ns3:TrackPointExtension>
            <ns3:hr>137</ns3:hr>
            <ns3:cad>0</ns3:cad>
          </ns3:TrackPointExtension>
        </extensions>
      </trkpt>
      <trkpt lat="52.1179153583943843841552734375" lon="1.45194084383547306060791015625">
        <ele>-121.1999969482421875</ele>
        <time>2025-09-06T08:44:45.000Z</time>
        <extensions>
          <ns3:TrackPointExtension>
            <ns3:hr>140</ns3:hr>
            <ns3:cad>0</ns3:cad>
          </ns3:TrackPointExtension>
        </extensions>
      </trkpt>
      <trkpt lat="52.11794042028486728668212890625" lon="1.45193916745483875274658203125">
        <ele>-122.8000030517578125</ele>
        <time>2025-09-06T08:44:50.000Z</time>
        <extensions>
          <ns3:TrackPointExtension>
            <ns3:hr>139</ns3:hr>
            <ns3:cad>0</ns3:cad>
          </ns3:TrackPointExtension>
        </extensions>
      </trkpt>
      <trkpt lat="52.1179497241973876953125" lon="1.4519374072551727294921875">
        <ele>-123</ele>
        <time>2025-09-06T08:44:51.000Z</time>
        <extensions>
          <ns3:TrackPointExtension>
            <ns3:hr>136</ns3:hr>
            <ns3:cad>0</ns3:cad>
          </ns3:TrackPointExtension>
        </extensions>
      </trkpt>
      <trkpt lat="52.11804720573127269744873046875" lon="1.451944448053836822509765625">
        <ele>-123.1999969482421875</ele>
        <time>2025-09-06T08:44:58.000Z</time>
        <extensions>
          <ns3:TrackPointExtension>
            <ns3:hr>132</ns3:hr>
            <ns3:cad>72</ns3:cad>
          </ns3:TrackPointExtension>
        </extensions>
      </trkpt>
      <trkpt lat="52.1180933900177478790283203125" lon="1.4519481360912322998046875">
        <ele>-122.59999847412109375</ele>
        <time>2025-09-06T08:45:01.000Z</time>
        <extensions>
          <ns3:TrackPointExtension>
            <ns3:hr>135</ns3:hr>
            <ns3:cad>75</ns3:cad>
          </ns3:TrackPointExtension>
        </extensions>
      </trkpt>
      <trkpt lat="52.1181280910968780517578125" lon="1.45195123739540576934814453125">
        <ele>-120.1999969482421875</ele>
        <time>2025-09-06T08:45:03.000Z</time>
        <extensions>
          <ns3:TrackPointExtension>
            <ns3:hr>138</ns3:hr>
            <ns3:cad>76</ns3:cad>
          </ns3:TrackPointExtension>
        </extensions>
      </trkpt>
      <trkpt lat="52.11814359761774539947509765625" lon="1.45195685327053070068359375">
        <ele>-116</ele>
        <time>2025-09-06T08:45:04.000Z</time>
        <extensions>
          <ns3:TrackPointExtension>
            <ns3:hr>138</ns3:hr>
            <ns3:cad>76</ns3:cad>
          </ns3:TrackPointExtension>
        </extensions>
      </trkpt>
      <trkpt lat="52.1181577630341053009033203125" lon="1.45195542834699153900146484375">
        <ele>-114</ele>
        <time>2025-09-06T08:45:05.000Z</time>
        <extensions>
          <ns3:TrackPointExtension>
            <ns3:hr>140</ns3:hr>
            <ns3:cad>76</ns3:cad>
          </ns3:TrackPointExtension>
        </extensions>
      </trkpt>
      <trkpt lat="52.118168659508228302001953125" lon="1.4519535005092620849609375">
        <ele>-113</ele>
        <time>2025-09-06T08:45:06.000Z</time>
        <extensions>
          <ns3:TrackPointExtension>
            <ns3:hr>140</ns3:hr>
            <ns3:cad>76</ns3:cad>
          </ns3:TrackPointExtension>
        </extensions>
      </trkpt>
      <trkpt lat="52.1181795559823513031005859375" lon="1.45194872282445430755615234375">
        <ele>-111.59999847412109375</ele>
        <time>2025-09-06T08:45:08.000Z</time>
        <extensions>
          <ns3:TrackPointExtension>
            <ns3:hr>143</ns3:hr>
            <ns3:cad>0</ns3:cad>
          </ns3:TrackPointExtension>
        </extensions>
      </trkpt>
      <trkpt lat="52.11818802170455455780029296875" lon="1.45196263678371906280517578125">
        <ele>-111.1999969482421875</ele>
        <time>2025-09-06T08:45:15.000Z</time>
        <extensions>
          <ns3:TrackPointExtension>
            <ns3:hr>140</ns3:hr>
            <ns3:cad>0</ns3:cad>
          </ns3:TrackPointExtension>
        </extensions>
      </trkpt>
      <trkpt lat="52.1181978285312652587890625" lon="1.45196263678371906280517578125">
        <ele>-112</ele>
        <time>2025-09-06T08:45:16.000Z</time>
        <extensions>
          <ns3:TrackPointExtension>
            <ns3:hr>139</ns3:hr>
            <ns3:cad>0</ns3:cad>
          </ns3:TrackPointExtension>
        </extensions>
      </trkpt>
      <trkpt lat="52.1182073839008808135986328125" lon="1.4519620500504970550537109375">
        <ele>-112.8000030517578125</ele>
        <time>2025-09-06T08:45:17.000Z</time>
        <extensions>
          <ns3:TrackPointExtension>
            <ns3:hr>139</ns3:hr>
            <ns3:cad>0</ns3:cad>
          </ns3:TrackPointExtension>
        </extensions>
      </trkpt>
      <trkpt lat="52.1182050369679927825927734375" lon="1.45199733786284923553466796875">
        <ele>-113.8000030517578125</ele>
        <time>2025-09-06T08:45:22.000Z</time>
        <extensions>
          <ns3:TrackPointExtension>
            <ns3:hr>137</ns3:hr>
            <ns3:cad>0</ns3:cad>
          </ns3:TrackPointExtension>
        </extensions>
      </trkpt>
      <trkpt lat="52.1182036958634853363037109375" lon="1.45200354047119617462158203125">
        <ele>-113.8000030517578125</ele>
        <time>2025-09-06T08:45:23.000Z</time>
        <extensions>
          <ns3:TrackPointExtension>
            <ns3:hr>137</ns3:hr>
            <ns3:cad>0</ns3:cad>
          </ns3:TrackPointExtension>
        </extensions>
      </trkpt>
      <trkpt lat="52.11823345161974430084228515625" lon="1.452048718929290771484375">
        <ele>-114.40000152587890625</ele>
        <time>2025-09-06T08:45:29.000Z</time>
        <extensions>
          <ns3:TrackPointExtension>
            <ns3:hr>133</ns3:hr>
            <ns3:cad>0</ns3:cad>
          </ns3:TrackPointExtension>
        </extensions>
      </trkpt>
      <trkpt lat="52.11829329840838909149169921875" lon="1.4520079828798770904541015625">
        <ele>-114.1999969482421875</ele>
        <time>2025-09-06T08:45:33.000Z</time>
        <extensions>
          <ns3:TrackPointExtension>
            <ns3:hr>132</ns3:hr>
            <ns3:cad>77</ns3:cad>
          </ns3:TrackPointExtension>
        </extensions>
      </trkpt>
      <trkpt lat="52.118391953408718109130859375" lon="1.45195014774799346923828125">
        <ele>-113.1999969482421875</ele>
        <time>2025-09-06T08:45:39.000Z</time>
        <extensions>
          <ns3:TrackPointExtension>
            <ns3:hr>131</ns3:hr>
            <ns3:cad>79</ns3:cad>
          </ns3:TrackPointExtension>
        </extensions>
      </trkpt>
      <trkpt lat="52.1184233017265796661376953125" lon="1.45192676223814487457275390625">
        <ele>-112.40000152587890625</ele>
        <time>2025-09-06T08:45:41.000Z</time>
        <extensions>
          <ns3:TrackPointExtension>
            <ns3:hr>134</ns3:hr>
            <ns3:cad>79</ns3:cad>
          </ns3:TrackPointExtension>
        </extensions>
      </trkpt>
      <trkpt lat="52.1184631995856761932373046875" lon="1.45189826376736164093017578125">
        <ele>-110.59999847412109375</ele>
        <time>2025-09-06T08:45:43.000Z</time>
        <extensions>
          <ns3:TrackPointExtension>
            <ns3:hr>136</ns3:hr>
            <ns3:cad>79</ns3:cad>
          </ns3:TrackPointExtension>
        </extensions>
      </trkpt>
      <trkpt lat="52.11851541884243488311767578125" lon="1.4518864452838897705078125">
        <ele>-109.1999969482421875</ele>
        <time>2025-09-06T08:45:45.000Z</time>
        <extensions>
          <ns3:TrackPointExtension>
            <ns3:hr>136</ns3:hr>
            <ns3:cad>79</ns3:cad>
          </ns3:TrackPointExtension>
        </extensions>
      </trkpt>
      <trkpt lat="52.11855263449251651763916015625" lon="1.4518708549439907073974609375">
        <ele>-107.1999969482421875</ele>
        <time>2025-09-06T08:45:47.000Z</time>
        <extensions>
          <ns3:TrackPointExtension>
            <ns3:hr>137</ns3:hr>
            <ns3:cad>79</ns3:cad>
          </ns3:TrackPointExtension>
        </extensions>
      </trkpt>
      <trkpt lat="52.118570320308208465576171875" lon="1.45186431705951690673828125">
        <ele>-105.59999847412109375</ele>
        <time>2025-09-06T08:45:48.000Z</time>
        <extensions>
          <ns3:TrackPointExtension>
            <ns3:hr>138</ns3:hr>
            <ns3:cad>80</ns3:cad>
          </ns3:TrackPointExtension>
        </extensions>
      </trkpt>
      <trkpt lat="52.11859018541872501373291015625" lon="1.4518581144511699676513671875">
        <ele>-104.1999969482421875</ele>
        <time>2025-09-06T08:45:49.000Z</time>
        <extensions>
          <ns3:TrackPointExtension>
            <ns3:hr>137</ns3:hr>
            <ns3:cad>80</ns3:cad>
          </ns3:TrackPointExtension>
        </extensions>
      </trkpt>
      <trkpt lat="52.11860912851989269256591796875" lon="1.45185333676636219024658203125">
        <ele>-101</ele>
        <time>2025-09-06T08:45:50.000Z</time>
        <extensions>
          <ns3:TrackPointExtension>
            <ns3:hr>139</ns3:hr>
            <ns3:cad>80</ns3:cad>
          </ns3:TrackPointExtension>
        </extensions>
      </trkpt>
      <trkpt lat="52.1186363697052001953125" lon="1.45184864290058612823486328125">
        <ele>-98.8000030517578125</ele>
        <time>2025-09-06T08:45:51.000Z</time>
        <extensions>
          <ns3:TrackPointExtension>
            <ns3:hr>139</ns3:hr>
            <ns3:cad>79</ns3:cad>
          </ns3:TrackPointExtension>
        </extensions>
      </trkpt>
      <trkpt lat="52.118665538728237152099609375" lon="1.45184512250125408172607421875">
        <ele>-97.59999847412109375</ele>
        <time>2025-09-06T08:45:52.000Z</time>
        <extensions>
          <ns3:TrackPointExtension>
            <ns3:hr>140</ns3:hr>
            <ns3:cad>80</ns3:cad>
          </ns3:TrackPointExtension>
        </extensions>
      </trkpt>
      <trkpt lat="52.11869680322706699371337890625" lon="1.45183908753097057342529296875">
        <ele>-96.40000152587890625</ele>
        <time>2025-09-06T08:45:53.000Z</time>
        <extensions>
          <ns3:TrackPointExtension>
            <ns3:hr>140</ns3:hr>
            <ns3:cad>80</ns3:cad>
          </ns3:TrackPointExtension>
        </extensions>
      </trkpt>
      <trkpt lat="52.1187237091362476348876953125" lon="1.45183607004582881927490234375">
        <ele>-93.8000030517578125</ele>
        <time>2025-09-06T08:45:54.000Z</time>
        <extensions>
          <ns3:TrackPointExtension>
            <ns3:hr>141</ns3:hr>
            <ns3:cad>80</ns3:cad>
          </ns3:TrackPointExtension>
        </extensions>
      </trkpt>
      <trkpt lat="52.11874902248382568359375" lon="1.45183372311294078826904296875">
        <ele>-92.1999969482421875</ele>
        <time>2025-09-06T08:45:55.000Z</time>
        <extensions>
          <ns3:TrackPointExtension>
            <ns3:hr>142</ns3:hr>
            <ns3:cad>81</ns3:cad>
          </ns3:TrackPointExtension>
        </extensions>
      </trkpt>
      <trkpt lat="52.11877475492656230926513671875" lon="1.4518289454281330108642578125">
        <ele>-87.59999847412109375</ele>
        <time>2025-09-06T08:45:56.000Z</time>
        <extensions>
          <ns3:TrackPointExtension>
            <ns3:hr>143</ns3:hr>
            <ns3:cad>81</ns3:cad>
          </ns3:TrackPointExtension>
        </extensions>
      </trkpt>
      <trkpt lat="52.1187991462647914886474609375" lon="1.4518242515623569488525390625">
        <ele>-85</ele>
        <time>2025-09-06T08:45:57.000Z</time>
        <extensions>
          <ns3:TrackPointExtension>
            <ns3:hr>144</ns3:hr>
            <ns3:cad>81</ns3:cad>
          </ns3:TrackPointExtension>
        </extensions>
      </trkpt>
      <trkpt lat="52.11882412433624267578125" lon="1.451819725334644317626953125">
        <ele>-83.59999847412109375</ele>
        <time>2025-09-06T08:45:58.000Z</time>
        <extensions>
          <ns3:TrackPointExtension>
            <ns3:hr>143</ns3:hr>
            <ns3:cad>81</ns3:cad>
          </ns3:TrackPointExtension>
        </extensions>
      </trkpt>
      <trkpt lat="52.1188997291028499603271484375" lon="1.45179860293865203857421875">
        <ele>-82.59999847412109375</ele>
        <time>2025-09-06T08:46:01.000Z</time>
        <extensions>
          <ns3:TrackPointExtension>
            <ns3:hr>145</ns3:hr>
            <ns3:cad>81</ns3:cad>
          </ns3:TrackPointExtension>
        </extensions>
      </trkpt>
      <trkpt lat="52.11898916400969028472900390625" lon="1.451776809990406036376953125">
        <ele>-81.40000152587890625</ele>
        <time>2025-09-06T08:46:05.000Z</time>
        <extensions>
          <ns3:TrackPointExtension>
            <ns3:hr>145</ns3:hr>
            <ns3:cad>80</ns3:cad>
          </ns3:TrackPointExtension>
        </extensions>
      </trkpt>
      <trkpt lat="52.11901179514825344085693359375" lon="1.4517749659717082977294921875">
        <ele>-81.40000152587890625</ele>
        <time>2025-09-06T08:46:06.000Z</time>
        <extensions>
          <ns3:TrackPointExtension>
            <ns3:hr>143</ns3:hr>
            <ns3:cad>80</ns3:cad>
          </ns3:TrackPointExtension>
        </extensions>
      </trkpt>
      <trkpt lat="52.11916049011051654815673828125" lon="1.45174495875835418701171875">
        <ele>-81.8000030517578125</ele>
        <time>2025-09-06T08:46:13.000Z</time>
        <extensions>
          <ns3:TrackPointExtension>
            <ns3:hr>146</ns3:hr>
            <ns3:cad>80</ns3:cad>
          </ns3:TrackPointExtension>
        </extensions>
      </trkpt>
      <trkpt lat="52.11918152868747711181640625" lon="1.4517370797693729400634765625">
        <ele>-81.8000030517578125</ele>
        <time>2025-09-06T08:46:14.000Z</time>
        <extensions>
          <ns3:TrackPointExtension>
            <ns3:hr>147</ns3:hr>
            <ns3:cad>80</ns3:cad>
          </ns3:TrackPointExtension>
        </extensions>
      </trkpt>
      <trkpt lat="52.1192779205739498138427734375" lon="1.4517028816044330596923828125">
        <ele>-80.40000152587890625</ele>
        <time>2025-09-06T08:46:19.000Z</time>
        <extensions>
          <ns3:TrackPointExtension>
            <ns3:hr>147</ns3:hr>
            <ns3:cad>80</ns3:cad>
          </ns3:TrackPointExtension>
        </extensions>
      </trkpt>
      <trkpt lat="52.11929929442703723907470703125" lon="1.451697014272212982177734375">
        <ele>-79.59999847412109375</ele>
        <time>2025-09-06T08:46:20.000Z</time>
        <extensions>
          <ns3:TrackPointExtension>
            <ns3:hr>147</ns3:hr>
            <ns3:cad>80</ns3:cad>
          </ns3:TrackPointExtension>
        </extensions>
      </trkpt>
      <trkpt lat="52.1193211711943149566650390625" lon="1.45168838091194629669189453125">
        <ele>-78</ele>
        <time>2025-09-06T08:46:21.000Z</time>
        <extensions>
          <ns3:TrackPointExtension>
            <ns3:hr>147</ns3:hr>
            <ns3:cad>80</ns3:cad>
          </ns3:TrackPointExtension>
        </extensions>
      </trkpt>
      <trkpt lat="52.11934204213321208953857421875" lon="1.4516820944845676422119140625">
        <ele>-74.1999969482421875</ele>
        <time>2025-09-06T08:46:22.000Z</time>
        <extensions>
          <ns3:TrackPointExtension>
            <ns3:hr>147</ns3:hr>
            <ns3:cad>80</ns3:cad>
          </ns3:TrackPointExtension>
        </extensions>
      </trkpt>
      <trkpt lat="52.11936165578663349151611328125" lon="1.45167522132396697998046875">
        <ele>-72.1999969482421875</ele>
        <time>2025-09-06T08:46:23.000Z</time>
        <extensions>
          <ns3:TrackPointExtension>
            <ns3:hr>147</ns3:hr>
            <ns3:cad>79</ns3:cad>
          </ns3:TrackPointExtension>
        </extensions>
      </trkpt>
      <trkpt lat="52.1193828620016574859619140625" lon="1.451666839420795440673828125">
        <ele>-47</ele>
        <time>2025-09-06T08:46:24.000Z</time>
        <extensions>
          <ns3:TrackPointExtension>
            <ns3:hr>148</ns3:hr>
            <ns3:cad>79</ns3:cad>
          </ns3:TrackPointExtension>
        </extensions>
      </trkpt>
      <trkpt lat="52.11943566799163818359375" lon="1.45163188688457012176513671875">
        <ele>-46</ele>
        <time>2025-09-06T08:46:27.000Z</time>
        <extensions>
          <ns3:TrackPointExtension>
            <ns3:hr>148</ns3:hr>
            <ns3:cad>78</ns3:cad>
          </ns3:TrackPointExtension>
        </extensions>
      </trkpt>
      <trkpt lat="52.11948621086776256561279296875" lon="1.45159131847321987152099609375">
        <ele>-44.799999237060546875</ele>
        <time>2025-09-06T08:46:30.000Z</time>
        <extensions>
          <ns3:TrackPointExtension>
            <ns3:hr>148</ns3:hr>
            <ns3:cad>78</ns3:cad>
          </ns3:TrackPointExtension>
        </extensions>
      </trkpt>
      <trkpt lat="52.1195308864116668701171875" lon="1.4515677653253078460693359375">
        <ele>-43.799999237060546875</ele>
        <time>2025-09-06T08:46:33.000Z</time>
        <extensions>
          <ns3:TrackPointExtension>
            <ns3:hr>148</ns3:hr>
            <ns3:cad>79</ns3:cad>
          </ns3:TrackPointExtension>
        </extensions>
      </trkpt>
      <trkpt lat="52.1195857040584087371826171875" lon="1.45154647529125213623046875">
        <ele>-42.59999847412109375</ele>
        <time>2025-09-06T08:46:36.000Z</time>
        <extensions>
          <ns3:TrackPointExtension>
            <ns3:hr>149</ns3:hr>
            <ns3:cad>78</ns3:cad>
          </ns3:TrackPointExtension>
        </extensions>
      </trkpt>
      <trkpt lat="52.1196437068283557891845703125" lon="1.451507918536663055419921875">
        <ele>-41.40000152587890625</ele>
        <time>2025-09-06T08:46:39.000Z</time>
        <extensions>
          <ns3:TrackPointExtension>
            <ns3:hr>148</ns3:hr>
            <ns3:cad>78</ns3:cad>
          </ns3:TrackPointExtension>
        </extensions>
      </trkpt>
      <trkpt lat="52.119678072631359100341796875" lon="1.4514862932264804840087890625">
        <ele>-40.40000152587890625</ele>
        <time>2025-09-06T08:46:41.000Z</time>
        <extensions>
          <ns3:TrackPointExtension>
            <ns3:hr>149</ns3:hr>
            <ns3:cad>79</ns3:cad>
          </ns3:TrackPointExtension>
        </extensions>
      </trkpt>
      <trkpt lat="52.11969827301800251007080078125" lon="1.45147782750427722930908203125">
        <ele>-40</ele>
        <time>2025-09-06T08:46:42.000Z</time>
        <extensions>
          <ns3:TrackPointExtension>
            <ns3:hr>148</ns3:hr>
            <ns3:cad>79</ns3:cad>
          </ns3:TrackPointExtension>
        </extensions>
      </trkpt>
      <trkpt lat="52.11976197548210620880126953125" lon="1.4514510892331600189208984375">
        <ele>-38.799999237060546875</ele>
        <time>2025-09-06T08:46:45.000Z</time>
        <extensions>
          <ns3:TrackPointExtension>
            <ns3:hr>150</ns3:hr>
            <ns3:cad>79</ns3:cad>
          </ns3:TrackPointExtension>
        </extensions>
      </trkpt>
      <trkpt lat="52.11982282809913158416748046875" lon="1.45140054635703563690185546875">
        <ele>-37.799999237060546875</ele>
        <time>2025-09-06T08:46:48.000Z</time>
        <extensions>
          <ns3:TrackPointExtension>
            <ns3:hr>150</ns3:hr>
            <ns3:cad>79</ns3:cad>
          </ns3:TrackPointExtension>
        </extensions>
      </trkpt>
      <trkpt lat="52.11987898685038089752197265625" lon="1.45135578699409961700439453125">
        <ele>-36.799999237060546875</ele>
        <time>2025-09-06T08:46:51.000Z</time>
        <extensions>
          <ns3:TrackPointExtension>
            <ns3:hr>148</ns3:hr>
            <ns3:cad>80</ns3:cad>
          </ns3:TrackPointExtension>
        </extensions>
      </trkpt>
      <trkpt lat="52.11994587443768978118896484375" lon="1.451297700405120849609375">
        <ele>-35.59999847412109375</ele>
        <time>2025-09-06T08:46:55.000Z</time>
        <extensions>
          <ns3:TrackPointExtension>
            <ns3:hr>147</ns3:hr>
            <ns3:cad>78</ns3:cad>
          </ns3:TrackPointExtension>
        </extensions>
      </trkpt>
      <trkpt lat="52.11996112950146198272705078125" lon="1.45128630101680755615234375">
        <ele>-35.200000762939453125</ele>
        <time>2025-09-06T08:46:56.000Z</time>
        <extensions>
          <ns3:TrackPointExtension>
            <ns3:hr>147</ns3:hr>
            <ns3:cad>78</ns3:cad>
          </ns3:TrackPointExtension>
        </extensions>
      </trkpt>
      <trkpt lat="52.120007984340190887451171875" lon="1.4512472413480281829833984375">
        <ele>-34.40000152587890625</ele>
        <time>2025-09-06T08:46:59.000Z</time>
        <extensions>
          <ns3:TrackPointExtension>
            <ns3:hr>147</ns3:hr>
            <ns3:cad>78</ns3:cad>
          </ns3:TrackPointExtension>
        </extensions>
      </trkpt>
      <trkpt lat="52.12007545866072177886962890625" lon="1.4512053318321704864501953125">
        <ele>-33.40000152587890625</ele>
        <time>2025-09-06T08:47:03.000Z</time>
        <extensions>
          <ns3:TrackPointExtension>
            <ns3:hr>147</ns3:hr>
            <ns3:cad>78</ns3:cad>
          </ns3:TrackPointExtension>
        </extensions>
      </trkpt>
      <trkpt lat="52.1201194636523723602294921875" lon="1.45119233988225460052490234375">
        <ele>-32.799999237060546875</ele>
        <time>2025-09-06T08:47:05.000Z</time>
        <extensions>
          <ns3:TrackPointExtension>
            <ns3:hr>150</ns3:hr>
            <ns3:cad>78</ns3:cad>
          </ns3:TrackPointExtension>
        </extensions>
      </trkpt>
      <trkpt lat="52.12015894241631031036376953125" lon="1.4511835388839244842529296875">
        <ele>-32.200000762939453125</ele>
        <time>2025-09-06T08:47:07.000Z</time>
        <extensions>
          <ns3:TrackPointExtension>
            <ns3:hr>149</ns3:hr>
            <ns3:cad>78</ns3:cad>
          </ns3:TrackPointExtension>
        </extensions>
      </trkpt>
      <trkpt lat="52.12021862156689167022705078125" lon="1.4511597342789173126220703125">
        <ele>-31</ele>
        <time>2025-09-06T08:47:10.000Z</time>
        <extensions>
          <ns3:TrackPointExtension>
            <ns3:hr>150</ns3:hr>
            <ns3:cad>80</ns3:cad>
          </ns3:TrackPointExtension>
        </extensions>
      </trkpt>
      <trkpt lat="52.12024024687707424163818359375" lon="1.451152861118316650390625">
        <ele>-30.799999237060546875</ele>
        <time>2025-09-06T08:47:11.000Z</time>
        <extensions>
          <ns3:TrackPointExtension>
            <ns3:hr>148</ns3:hr>
            <ns3:cad>80</ns3:cad>
          </ns3:TrackPointExtension>
        </extensions>
      </trkpt>
      <trkpt lat="52.120281569659709930419921875" lon="1.4511389471590518951416015625">
        <ele>-30</ele>
        <time>2025-09-06T08:47:13.000Z</time>
        <extensions>
          <ns3:TrackPointExtension>
            <ns3:hr>148</ns3:hr>
            <ns3:cad>79</ns3:cad>
          </ns3:TrackPointExtension>
        </extensions>
      </trkpt>
      <trkpt lat="52.12034284137189388275146484375" lon="1.45110935904085636138916015625">
        <ele>-29</ele>
        <time>2025-09-06T08:47:16.000Z</time>
        <extensions>
          <ns3:TrackPointExtension>
            <ns3:hr>148</ns3:hr>
            <ns3:cad>79</ns3:cad>
          </ns3:TrackPointExtension>
        </extensions>
      </trkpt>
      <trkpt lat="52.12042531929910182952880859375" lon="1.45106258802115917205810546875">
        <ele>-27.6000003814697265625</ele>
        <time>2025-09-06T08:47:20.000Z</time>
        <extensions>
          <ns3:TrackPointExtension>
            <ns3:hr>148</ns3:hr>
            <ns3:cad>79</ns3:cad>
          </ns3:TrackPointExtension>
        </extensions>
      </trkpt>
      <trkpt lat="52.1204661391675472259521484375" lon="1.4510333351790904998779296875">
        <ele>-27</ele>
        <time>2025-09-06T08:47:22.000Z</time>
        <extensions>
          <ns3:TrackPointExtension>
            <ns3:hr>148</ns3:hr>
            <ns3:cad>79</ns3:cad>
          </ns3:TrackPointExtension>
        </extensions>
      </trkpt>
      <trkpt lat="52.12050058878958225250244140625" lon="1.45100357942283153533935546875">
        <ele>-26.3999996185302734375</ele>
        <time>2025-09-06T08:47:24.000Z</time>
        <extensions>
          <ns3:TrackPointExtension>
            <ns3:hr>148</ns3:hr>
            <ns3:cad>79</ns3:cad>
          </ns3:TrackPointExtension>
        </extensions>
      </trkpt>
      <trkpt lat="52.12056831456720829010009765625" lon="1.45096183754503726959228515625">
        <ele>-25</ele>
        <time>2025-09-06T08:47:28.000Z</time>
        <extensions>
          <ns3:TrackPointExtension>
            <ns3:hr>147</ns3:hr>
            <ns3:cad>78</ns3:cad>
          </ns3:TrackPointExtension>
        </extensions>
      </trkpt>
      <trkpt lat="52.120621204376220703125" lon="1.450913138687610626220703125">
        <ele>-23.799999237060546875</ele>
        <time>2025-09-06T08:47:32.000Z</time>
        <extensions>
          <ns3:TrackPointExtension>
            <ns3:hr>145</ns3:hr>
            <ns3:cad>0</ns3:cad>
          </ns3:TrackPointExtension>
        </extensions>
      </trkpt>
      <trkpt lat="52.12068398483097553253173828125" lon="1.4508754201233386993408203125">
        <ele>-22.6000003814697265625</ele>
        <time>2025-09-06T08:47:36.000Z</time>
        <extensions>
          <ns3:TrackPointExtension>
            <ns3:hr>145</ns3:hr>
            <ns3:cad>0</ns3:cad>
          </ns3:TrackPointExtension>
        </extensions>
      </trkpt>
      <trkpt lat="52.12075539864599704742431640625" lon="1.450847089290618896484375">
        <ele>-21.3999996185302734375</ele>
        <time>2025-09-06T08:47:40.000Z</time>
        <extensions>
          <ns3:TrackPointExtension>
            <ns3:hr>143</ns3:hr>
            <ns3:cad>77</ns3:cad>
          </ns3:TrackPointExtension>
        </extensions>
      </trkpt>
      <trkpt lat="52.12082630954682826995849609375" lon="1.4508160762488842010498046875">
        <ele>-20.200000762939453125</ele>
        <time>2025-09-06T08:47:44.000Z</time>
        <extensions>
          <ns3:TrackPointExtension>
            <ns3:hr>142</ns3:hr>
            <ns3:cad>78</ns3:cad>
          </ns3:TrackPointExtension>
        </extensions>
      </trkpt>
      <trkpt lat="52.12086788378655910491943359375" lon="1.4507795311510562896728515625">
        <ele>-19.200000762939453125</ele>
        <time>2025-09-06T08:47:47.000Z</time>
        <extensions>
          <ns3:TrackPointExtension>
            <ns3:hr>143</ns3:hr>
            <ns3:cad>78</ns3:cad>
          </ns3:TrackPointExtension>
        </extensions>
      </trkpt>
      <trkpt lat="52.12087844498455524444580078125" lon="1.4507694728672504425048828125">
        <ele>-19</ele>
        <time>2025-09-06T08:47:48.000Z</time>
        <extensions>
          <ns3:TrackPointExtension>
            <ns3:hr>146</ns3:hr>
            <ns3:cad>78</ns3:cad>
          </ns3:TrackPointExtension>
        </extensions>
      </trkpt>
      <trkpt lat="52.12093192152678966522216796875" lon="1.45073602907359600067138671875">
        <ele>-17.799999237060546875</ele>
        <time>2025-09-06T08:47:52.000Z</time>
        <extensions>
          <ns3:TrackPointExtension>
            <ns3:hr>146</ns3:hr>
            <ns3:cad>77</ns3:cad>
          </ns3:TrackPointExtension>
        </extensions>
      </trkpt>
      <trkpt lat="52.12096477858722209930419921875" lon="1.4507181756198406219482421875">
        <ele>-17.200000762939453125</ele>
        <time>2025-09-06T08:47:54.000Z</time>
        <extensions>
          <ns3:TrackPointExtension>
            <ns3:hr>144</ns3:hr>
            <ns3:cad>78</ns3:cad>
          </ns3:TrackPointExtension>
        </extensions>
      </trkpt>
      <trkpt lat="52.12100249715149402618408203125" lon="1.45070493221282958984375">
        <ele>-16.3999996185302734375</ele>
        <time>2025-09-06T08:47:56.000Z</time>
        <extensions>
          <ns3:TrackPointExtension>
            <ns3:hr>146</ns3:hr>
            <ns3:cad>78</ns3:cad>
          </ns3:TrackPointExtension>
        </extensions>
      </trkpt>
      <trkpt lat="52.12109788320958614349365234375" lon="1.4506776072084903717041015625">
        <ele>-15.19999980926513671875</ele>
        <time>2025-09-06T08:48:00.000Z</time>
        <extensions>
          <ns3:TrackPointExtension>
            <ns3:hr>150</ns3:hr>
            <ns3:cad>79</ns3:cad>
          </ns3:TrackPointExtension>
        </extensions>
      </trkpt>
      <trkpt lat="52.12116410024464130401611328125" lon="1.45065204240381717681884765625">
        <ele>-14</ele>
        <time>2025-09-06T08:48:03.000Z</time>
        <extensions>
          <ns3:TrackPointExtension>
            <ns3:hr>150</ns3:hr>
            <ns3:cad>79</ns3:cad>
          </ns3:TrackPointExtension>
        </extensions>
      </trkpt>
      <trkpt lat="52.1212034113705158233642578125" lon="1.45063175819814205169677734375">
        <ele>-13.19999980926513671875</ele>
        <time>2025-09-06T08:48:05.000Z</time>
        <extensions>
          <ns3:TrackPointExtension>
            <ns3:hr>147</ns3:hr>
            <ns3:cad>79</ns3:cad>
          </ns3:TrackPointExtension>
        </extensions>
      </trkpt>
      <trkpt lat="52.12122746743261814117431640625" lon="1.45062723197042942047119140625">
        <ele>-12.80000019073486328125</ele>
        <time>2025-09-06T08:48:06.000Z</time>
        <extensions>
          <ns3:TrackPointExtension>
            <ns3:hr>147</ns3:hr>
            <ns3:cad>79</ns3:cad>
          </ns3:TrackPointExtension>
        </extensions>
      </trkpt>
      <trkpt lat="52.12128446437418460845947265625" lon="1.45060543902218341827392578125">
        <ele>-11.3999996185302734375</ele>
        <time>2025-09-06T08:48:09.000Z</time>
        <extensions>
          <ns3:TrackPointExtension>
            <ns3:hr>148</ns3:hr>
            <ns3:cad>79</ns3:cad>
          </ns3:TrackPointExtension>
        </extensions>
      </trkpt>
      <trkpt lat="52.12130340747535228729248046875" lon="1.45059672184288501739501953125">
        <ele>-11</ele>
        <time>2025-09-06T08:48:10.000Z</time>
        <extensions>
          <ns3:TrackPointExtension>
            <ns3:hr>148</ns3:hr>
            <ns3:cad>79</ns3:cad>
          </ns3:TrackPointExtension>
        </extensions>
      </trkpt>
      <trkpt lat="52.12134204804897308349609375" lon="1.45058062858879566192626953125">
        <ele>-10.19999980926513671875</ele>
        <time>2025-09-06T08:48:12.000Z</time>
        <extensions>
          <ns3:TrackPointExtension>
            <ns3:hr>147</ns3:hr>
            <ns3:cad>78</ns3:cad>
          </ns3:TrackPointExtension>
        </extensions>
      </trkpt>
      <trkpt lat="52.1214072592556476593017578125" lon="1.45055816508829593658447265625">
        <ele>-9</ele>
        <time>2025-09-06T08:48:15.000Z</time>
        <extensions>
          <ns3:TrackPointExtension>
            <ns3:hr>148</ns3:hr>
            <ns3:cad>78</ns3:cad>
          </ns3:TrackPointExtension>
        </extensions>
      </trkpt>
      <trkpt lat="52.121475152671337127685546875" lon="1.45053000189363956451416015625">
        <ele>-7.80000019073486328125</ele>
        <time>2025-09-06T08:48:18.000Z</time>
        <extensions>
          <ns3:TrackPointExtension>
            <ns3:hr>149</ns3:hr>
            <ns3:cad>80</ns3:cad>
          </ns3:TrackPointExtension>
        </extensions>
      </trkpt>
      <trkpt lat="52.12153122760355472564697265625" lon="1.45051114261150360107421875">
        <ele>-6.599999904632568359375</ele>
        <time>2025-09-06T08:48:21.000Z</time>
        <extensions>
          <ns3:TrackPointExtension>
            <ns3:hr>149</ns3:hr>
            <ns3:cad>80</ns3:cad>
          </ns3:TrackPointExtension>
        </extensions>
      </trkpt>
      <trkpt lat="52.1215862967073917388916015625" lon="1.45049479790031909942626953125">
        <ele>-5.19999980926513671875</ele>
        <time>2025-09-06T08:48:24.000Z</time>
        <extensions>
          <ns3:TrackPointExtension>
            <ns3:hr>149</ns3:hr>
            <ns3:cad>80</ns3:cad>
          </ns3:TrackPointExtension>
        </extensions>
      </trkpt>
      <trkpt lat="52.12164371274411678314208984375" lon="1.45047652535140514373779296875">
        <ele>-3.7999999523162841796875</ele>
        <time>2025-09-06T08:48:27.000Z</time>
        <extensions>
          <ns3:TrackPointExtension>
            <ns3:hr>150</ns3:hr>
            <ns3:cad>80</ns3:cad>
          </ns3:TrackPointExtension>
        </extensions>
      </trkpt>
      <trkpt lat="52.12167656980454921722412109375" lon="1.4504650421440601348876953125">
        <ele>-2.7999999523162841796875</ele>
        <time>2025-09-06T08:48:29.000Z</time>
        <extensions>
          <ns3:TrackPointExtension>
            <ns3:hr>149</ns3:hr>
            <ns3:cad>79</ns3:cad>
          </ns3:TrackPointExtension>
        </extensions>
      </trkpt>
      <trkpt lat="52.12170540355145931243896484375" lon="1.45044450648128986358642578125">
        <ele>-1.7999999523162841796875</ele>
        <time>2025-09-06T08:48:31.000Z</time>
        <extensions>
          <ns3:TrackPointExtension>
            <ns3:hr>150</ns3:hr>
            <ns3:cad>78</ns3:cad>
          </ns3:TrackPointExtension>
        </extensions>
      </trkpt>
      <trkpt lat="52.12173742242157459259033203125" lon="1.45042707212269306182861328125">
        <ele>-0.800000011920928955078125</ele>
        <time>2025-09-06T08:48:33.000Z</time>
        <extensions>
          <ns3:TrackPointExtension>
            <ns3:hr>147</ns3:hr>
            <ns3:cad>78</ns3:cad>
          </ns3:TrackPointExtension>
        </extensions>
      </trkpt>
      <trkpt lat="52.12176776491105556488037109375" lon="1.45041382871568202972412109375">
        <ele>0.20000000298023223876953125</ele>
        <time>2025-09-06T08:48:35.000Z</time>
        <extensions>
          <ns3:TrackPointExtension>
            <ns3:hr>147</ns3:hr>
            <ns3:cad>78</ns3:cad>
          </ns3:TrackPointExtension>
        </extensions>
      </trkpt>
      <trkpt lat="52.12178486399352550506591796875" lon="1.45040812902152538299560546875">
        <ele>0.800000011920928955078125</ele>
        <time>2025-09-06T08:48:36.000Z</time>
        <extensions>
          <ns3:TrackPointExtension>
            <ns3:hr>147</ns3:hr>
            <ns3:cad>78</ns3:cad>
          </ns3:TrackPointExtension>
        </extensions>
      </trkpt>
      <trkpt lat="52.1218541823327541351318359375" lon="1.45039253868162631988525390625">
        <ele>2.2000000476837158203125</ele>
        <time>2025-09-06T08:48:39.000Z</time>
        <extensions>
          <ns3:TrackPointExtension>
            <ns3:hr>149</ns3:hr>
            <ns3:cad>79</ns3:cad>
          </ns3:TrackPointExtension>
        </extensions>
      </trkpt>
      <trkpt lat="52.1218830160796642303466796875" lon="1.45038776099681854248046875">
        <ele>3</ele>
        <time>2025-09-06T08:48:41.000Z</time>
        <extensions>
          <ns3:TrackPointExtension>
            <ns3:hr>149</ns3:hr>
            <ns3:cad>0</ns3:cad>
          </ns3:TrackPointExtension>
        </extensions>
      </trkpt>
      <trkpt lat="52.12189584039151668548583984375" lon="1.450376696884632110595703125">
        <ele>3.400000095367431640625</ele>
        <time>2025-09-06T08:48:42.000Z</time>
        <extensions>
          <ns3:TrackPointExtension>
            <ns3:hr>148</ns3:hr>
            <ns3:cad>0</ns3:cad>
          </ns3:TrackPointExtension>
        </extensions>
      </trkpt>
      <trkpt lat="52.12193355895578861236572265625" lon="1.45035482011735439300537109375">
        <ele>4.80000019073486328125</ele>
        <time>2025-09-06T08:48:45.000Z</time>
        <extensions>
          <ns3:TrackPointExtension>
            <ns3:hr>147</ns3:hr>
            <ns3:cad>63</ns3:cad>
          </ns3:TrackPointExtension>
        </extensions>
      </trkpt>
      <trkpt lat="52.12196700274944305419921875" lon="1.4503497071564197540283203125">
        <ele>5.400000095367431640625</ele>
        <time>2025-09-06T08:48:47.000Z</time>
        <extensions>
          <ns3:TrackPointExtension>
            <ns3:hr>150</ns3:hr>
            <ns3:cad>63</ns3:cad>
          </ns3:TrackPointExtension>
        </extensions>
      </trkpt>
      <trkpt lat="52.1219809167087078094482421875" lon="1.45034962333738803863525390625">
        <ele>5.80000019073486328125</ele>
        <time>2025-09-06T08:48:48.000Z</time>
        <extensions>
          <ns3:TrackPointExtension>
            <ns3:hr>150</ns3:hr>
            <ns3:cad>57</ns3:cad>
          </ns3:TrackPointExtension>
        </extensions>
      </trkpt>
      <trkpt lat="52.122039087116718292236328125" lon="1.45035423338413238525390625">
        <ele>6.80000019073486328125</ele>
        <time>2025-09-06T08:48:52.000Z</time>
        <extensions>
          <ns3:TrackPointExtension>
            <ns3:hr>149</ns3:hr>
            <ns3:cad>56</ns3:cad>
          </ns3:TrackPointExtension>
        </extensions>
      </trkpt>
      <trkpt lat="52.12210203520953655242919921875" lon="1.45035088062286376953125">
        <ele>7.599999904632568359375</ele>
        <time>2025-09-06T08:48:55.000Z</time>
        <extensions>
          <ns3:TrackPointExtension>
            <ns3:hr>147</ns3:hr>
            <ns3:cad>76</ns3:cad>
          </ns3:TrackPointExtension>
        </extensions>
      </trkpt>
      <trkpt lat="52.12212466634809970855712890625" lon="1.45035096444189548492431640625">
        <ele>8</ele>
        <time>2025-09-06T08:48:56.000Z</time>
        <extensions>
          <ns3:TrackPointExtension>
            <ns3:hr>146</ns3:hr>
            <ns3:cad>76</ns3:cad>
          </ns3:TrackPointExtension>
        </extensions>
      </trkpt>
      <trkpt lat="52.12221317924559116363525390625" lon="1.45034694112837314605712890625">
        <ele>9</ele>
        <time>2025-09-06T08:49:00.000Z</time>
        <extensions>
          <ns3:TrackPointExtension>
            <ns3:hr>145</ns3:hr>
            <ns3:cad>77</ns3:cad>
          </ns3:TrackPointExtension>
        </extensions>
      </trkpt>
      <trkpt lat="52.1222984232008457183837890625" lon="1.4503383077681064605712890625">
        <ele>10.19999980926513671875</ele>
        <time>2025-09-06T08:49:04.000Z</time>
        <extensions>
          <ns3:TrackPointExtension>
            <ns3:hr>145</ns3:hr>
            <ns3:cad>77</ns3:cad>
          </ns3:TrackPointExtension>
        </extensions>
      </trkpt>
      <trkpt lat="52.12232046760618686676025390625" lon="1.45033587701618671417236328125">
        <ele>10.6000003814697265625</ele>
        <time>2025-09-06T08:49:05.000Z</time>
        <extensions>
          <ns3:TrackPointExtension>
            <ns3:hr>146</ns3:hr>
            <ns3:cad>76</ns3:cad>
          </ns3:TrackPointExtension>
        </extensions>
      </trkpt>
      <trkpt lat="52.1223815716803073883056640625" lon="1.4503299258649349212646484375">
        <ele>11.3999996185302734375</ele>
        <time>2025-09-06T08:49:08.000Z</time>
        <extensions>
          <ns3:TrackPointExtension>
            <ns3:hr>145</ns3:hr>
            <ns3:cad>76</ns3:cad>
          </ns3:TrackPointExtension>
        </extensions>
      </trkpt>
      <trkpt lat="52.12246648035943508148193359375" lon="1.45030863583087921142578125">
        <ele>12.6000003814697265625</ele>
        <time>2025-09-06T08:49:12.000Z</time>
        <extensions>
          <ns3:TrackPointExtension>
            <ns3:hr>147</ns3:hr>
            <ns3:cad>77</ns3:cad>
          </ns3:TrackPointExtension>
        </extensions>
      </trkpt>
      <trkpt lat="52.1224834956228733062744140625" lon="1.4503067918121814727783203125">
        <ele>12.80000019073486328125</ele>
        <time>2025-09-06T08:49:13.000Z</time>
        <extensions>
          <ns3:TrackPointExtension>
            <ns3:hr>147</ns3:hr>
            <ns3:cad>77</ns3:cad>
          </ns3:TrackPointExtension>
        </extensions>
      </trkpt>
      <trkpt lat="52.12252196855843067169189453125" lon="1.4502890221774578094482421875">
        <ele>13.6000003814697265625</ele>
        <time>2025-09-06T08:49:16.000Z</time>
        <extensions>
          <ns3:TrackPointExtension>
            <ns3:hr>150</ns3:hr>
            <ns3:cad>76</ns3:cad>
          </ns3:TrackPointExtension>
        </extensions>
      </trkpt>
      <trkpt lat="52.122544012963771820068359375" lon="1.4502886869013309478759765625">
        <ele>14</ele>
        <time>2025-09-06T08:49:18.000Z</time>
        <extensions>
          <ns3:TrackPointExtension>
            <ns3:hr>150</ns3:hr>
            <ns3:cad>113</ns3:cad>
          </ns3:TrackPointExtension>
        </extensions>
      </trkpt>
      <trkpt lat="52.12257452309131622314453125" lon="1.45027401857078075408935546875">
        <ele>14.80000019073486328125</ele>
        <time>2025-09-06T08:49:21.000Z</time>
        <extensions>
          <ns3:TrackPointExtension>
            <ns3:hr>150</ns3:hr>
            <ns3:cad>113</ns3:cad>
          </ns3:TrackPointExtension>
        </extensions>
      </trkpt>
      <trkpt lat="52.12261819280683994293212890625" lon="1.45024300552904605865478515625">
        <ele>15.6000003814697265625</ele>
        <time>2025-09-06T08:49:26.000Z</time>
        <extensions>
          <ns3:TrackPointExtension>
            <ns3:hr>149</ns3:hr>
            <ns3:cad>0</ns3:cad>
          </ns3:TrackPointExtension>
        </extensions>
      </trkpt>
      <trkpt lat="52.12262221612036228179931640625" lon="1.45024501718580722808837890625">
        <ele>15.80000019073486328125</ele>
        <time>2025-09-06T08:49:27.000Z</time>
        <extensions>
          <ns3:TrackPointExtension>
            <ns3:hr>149</ns3:hr>
            <ns3:cad>0</ns3:cad>
          </ns3:TrackPointExtension>
        </extensions>
      </trkpt>
      <trkpt lat="52.12262255139648914337158203125" lon="1.45024870522320270538330078125">
        <ele>16</ele>
        <time>2025-09-06T08:49:29.000Z</time>
        <extensions>
          <ns3:TrackPointExtension>
            <ns3:hr>146</ns3:hr>
            <ns3:cad>0</ns3:cad>
          </ns3:TrackPointExtension>
        </extensions>
      </trkpt>
      <trkpt lat="52.12262556888163089752197265625" lon="1.45025507546961307525634765625">
        <ele>16.799999237060546875</ele>
        <time>2025-09-06T08:49:34.000Z</time>
        <extensions>
          <ns3:TrackPointExtension>
            <ns3:hr>146</ns3:hr>
            <ns3:cad>0</ns3:cad>
          </ns3:TrackPointExtension>
        </extensions>
      </trkpt>
      <trkpt lat="52.12265021167695522308349609375" lon="1.45019673742353916168212890625">
        <ele>17.3999996185302734375</ele>
        <time>2025-09-06T08:49:39.000Z</time>
        <extensions>
          <ns3:TrackPointExtension>
            <ns3:hr>143</ns3:hr>
            <ns3:cad>0</ns3:cad>
          </ns3:TrackPointExtension>
        </extensions>
      </trkpt>
      <trkpt lat="52.122662030160427093505859375" lon="1.4501539058983325958251953125">
        <ele>17.6000003814697265625</ele>
        <time>2025-09-06T08:49:41.000Z</time>
        <extensions>
          <ns3:TrackPointExtension>
            <ns3:hr>140</ns3:hr>
            <ns3:cad>54</ns3:cad>
          </ns3:TrackPointExtension>
        </extensions>
      </trkpt>
      <trkpt lat="52.12266999296844005584716796875" lon="1.450127251446247100830078125">
        <ele>17.799999237060546875</ele>
        <time>2025-09-06T08:49:42.000Z</time>
        <extensions>
          <ns3:TrackPointExtension>
            <ns3:hr>141</ns3:hr>
            <ns3:cad>54</ns3:cad>
          </ns3:TrackPointExtension>
        </extensions>
      </trkpt>
      <trkpt lat="52.12271810509264469146728515625" lon="1.4499326236546039581298828125">
        <ele>18.6000003814697265625</ele>
        <time>2025-09-06T08:49:48.000Z</time>
        <extensions>
          <ns3:TrackPointExtension>
            <ns3:hr>138</ns3:hr>
            <ns3:cad>79</ns3:cad>
          </ns3:TrackPointExtension>
        </extensions>
      </trkpt>
      <trkpt lat="52.12272598408162593841552734375" lon="1.4498652331531047821044921875">
        <ele>19</ele>
        <time>2025-09-06T08:49:50.000Z</time>
        <extensions>
          <ns3:TrackPointExtension>
            <ns3:hr>141</ns3:hr>
            <ns3:cad>80</ns3:cad>
          </ns3:TrackPointExtension>
        </extensions>
      </trkpt>
      <trkpt lat="52.12274660356342792510986328125" lon="1.44969080574810504913330078125">
        <ele>20</ele>
        <time>2025-09-06T08:49:55.000Z</time>
        <extensions>
          <ns3:TrackPointExtension>
            <ns3:hr>143</ns3:hr>
            <ns3:cad>79</ns3:cad>
          </ns3:TrackPointExtension>
        </extensions>
      </trkpt>
      <trkpt lat="52.12274911813437938690185546875" lon="1.44965258426964282989501953125">
        <ele>20.3999996185302734375</ele>
        <time>2025-09-06T08:49:56.000Z</time>
        <extensions>
          <ns3:TrackPointExtension>
            <ns3:hr>143</ns3:hr>
            <ns3:cad>79</ns3:cad>
          </ns3:TrackPointExtension>
        </extensions>
      </trkpt>
      <trkpt lat="52.12274350225925445556640625" lon="1.4495882950723171234130859375">
        <ele>21.200000762939453125</ele>
        <time>2025-09-06T08:49:58.000Z</time>
        <extensions>
          <ns3:TrackPointExtension>
            <ns3:hr>144</ns3:hr>
            <ns3:cad>79</ns3:cad>
          </ns3:TrackPointExtension>
        </extensions>
      </trkpt>
      <trkpt lat="52.122749201953411102294921875" lon="1.44948997534811496734619140625">
        <ele>22.3999996185302734375</ele>
        <time>2025-09-06T08:50:01.000Z</time>
        <extensions>
          <ns3:TrackPointExtension>
            <ns3:hr>146</ns3:hr>
            <ns3:cad>79</ns3:cad>
          </ns3:TrackPointExtension>
        </extensions>
      </trkpt>
      <trkpt lat="52.1227611042559146881103515625" lon="1.4494612254202365875244140625">
        <ele>22.799999237060546875</ele>
        <time>2025-09-06T08:50:02.000Z</time>
        <extensions>
          <ns3:TrackPointExtension>
            <ns3:hr>147</ns3:hr>
            <ns3:cad>80</ns3:cad>
          </ns3:TrackPointExtension>
        </extensions>
      </trkpt>
      <trkpt lat="52.12278633378446102142333984375" lon="1.44940246827900409698486328125">
        <ele>23.6000003814697265625</ele>
        <time>2025-09-06T08:50:04.000Z</time>
        <extensions>
          <ns3:TrackPointExtension>
            <ns3:hr>147</ns3:hr>
            <ns3:cad>80</ns3:cad>
          </ns3:TrackPointExtension>
        </extensions>
      </trkpt>
      <trkpt lat="52.12284299544990062713623046875" lon="1.44933926872909069061279296875">
        <ele>25</ele>
        <time>2025-09-06T08:50:07.000Z</time>
        <extensions>
          <ns3:TrackPointExtension>
            <ns3:hr>146</ns3:hr>
            <ns3:cad>79</ns3:cad>
          </ns3:TrackPointExtension>
        </extensions>
      </trkpt>
      <trkpt lat="52.12287761270999908447265625" lon="1.4493142068386077880859375">
        <ele>25.799999237060546875</ele>
        <time>2025-09-06T08:50:09.000Z</time>
        <extensions>
          <ns3:TrackPointExtension>
            <ns3:hr>147</ns3:hr>
            <ns3:cad>79</ns3:cad>
          </ns3:TrackPointExtension>
        </extensions>
      </trkpt>
      <trkpt lat="52.1228918619453907012939453125" lon="1.44930674694478511810302734375">
        <ele>26.3999996185302734375</ele>
        <time>2025-09-06T08:50:10.000Z</time>
        <extensions>
          <ns3:TrackPointExtension>
            <ns3:hr>146</ns3:hr>
            <ns3:cad>79</ns3:cad>
          </ns3:TrackPointExtension>
        </extensions>
      </trkpt>
      <trkpt lat="52.1229292452335357666015625" lon="1.44928713329136371612548828125">
        <ele>27.6000003814697265625</ele>
        <time>2025-09-06T08:50:13.000Z</time>
        <extensions>
          <ns3:TrackPointExtension>
            <ns3:hr>147</ns3:hr>
            <ns3:cad>79</ns3:cad>
          </ns3:TrackPointExtension>
        </extensions>
      </trkpt>
      <trkpt lat="52.12296880781650543212890625" lon="1.4492717944085597991943359375">
        <ele>28.799999237060546875</ele>
        <time>2025-09-06T08:50:16.000Z</time>
        <extensions>
          <ns3:TrackPointExtension>
            <ns3:hr>146</ns3:hr>
            <ns3:cad>78</ns3:cad>
          </ns3:TrackPointExtension>
        </extensions>
      </trkpt>
      <trkpt lat="52.12297978810966014862060546875" lon="1.44926651380956172943115234375">
        <ele>29.200000762939453125</ele>
        <time>2025-09-06T08:50:17.000Z</time>
        <extensions>
          <ns3:TrackPointExtension>
            <ns3:hr>146</ns3:hr>
            <ns3:cad>78</ns3:cad>
          </ns3:TrackPointExtension>
        </extensions>
      </trkpt>
      <trkpt lat="52.12301147170364856719970703125" lon="1.44926349632441997528076171875">
        <ele>30</ele>
        <time>2025-09-06T08:50:19.000Z</time>
        <extensions>
          <ns3:TrackPointExtension>
            <ns3:hr>146</ns3:hr>
            <ns3:cad>78</ns3:cad>
          </ns3:TrackPointExtension>
        </extensions>
      </trkpt>
      <trkpt lat="52.12305908091366291046142578125" lon="1.44926232285797595977783203125">
        <ele>31.200000762939453125</ele>
        <time>2025-09-06T08:50:22.000Z</time>
        <extensions>
          <ns3:TrackPointExtension>
            <ns3:hr>148</ns3:hr>
            <ns3:cad>78</ns3:cad>
          </ns3:TrackPointExtension>
        </extensions>
      </trkpt>
      <trkpt lat="52.1231030859053134918212890625" lon="1.4492659270763397216796875">
        <ele>32.200000762939453125</ele>
        <time>2025-09-06T08:50:25.000Z</time>
        <extensions>
          <ns3:TrackPointExtension>
            <ns3:hr>148</ns3:hr>
            <ns3:cad>78</ns3:cad>
          </ns3:TrackPointExtension>
        </extensions>
      </trkpt>
      <trkpt lat="52.12312437593936920166015625" lon="1.4492704533040523529052734375">
        <ele>32.59999847412109375</ele>
        <time>2025-09-06T08:50:26.000Z</time>
        <extensions>
          <ns3:TrackPointExtension>
            <ns3:hr>148</ns3:hr>
            <ns3:cad>78</ns3:cad>
          </ns3:TrackPointExtension>
        </extensions>
      </trkpt>
      <trkpt lat="52.12316569872200489044189453125" lon="1.44927606917917728424072265625">
        <ele>33.200000762939453125</ele>
        <time>2025-09-06T08:50:28.000Z</time>
        <extensions>
          <ns3:TrackPointExtension>
            <ns3:hr>149</ns3:hr>
            <ns3:cad>79</ns3:cad>
          </ns3:TrackPointExtension>
        </extensions>
      </trkpt>
      <trkpt lat="52.1232200972735881805419921875" lon="1.44927238114178180694580078125">
        <ele>34.40000152587890625</ele>
        <time>2025-09-06T08:50:31.000Z</time>
        <extensions>
          <ns3:TrackPointExtension>
            <ns3:hr>149</ns3:hr>
            <ns3:cad>77</ns3:cad>
          </ns3:TrackPointExtension>
        </extensions>
      </trkpt>
      <trkpt lat="52.1232512779533863067626953125" lon="1.4492704533040523529052734375">
        <ele>35</ele>
        <time>2025-09-06T08:50:33.000Z</time>
        <extensions>
          <ns3:TrackPointExtension>
            <ns3:hr>150</ns3:hr>
            <ns3:cad>78</ns3:cad>
          </ns3:TrackPointExtension>
        </extensions>
      </trkpt>
      <trkpt lat="52.1232693828642368316650390625" lon="1.449270956218242645263671875">
        <ele>35.40000152587890625</ele>
        <time>2025-09-06T08:50:34.000Z</time>
        <extensions>
          <ns3:TrackPointExtension>
            <ns3:hr>150</ns3:hr>
            <ns3:cad>78</ns3:cad>
          </ns3:TrackPointExtension>
        </extensions>
      </trkpt>
      <trkpt lat="52.12331238202750682830810546875" lon="1.44926123321056365966796875">
        <ele>36.40000152587890625</ele>
        <time>2025-09-06T08:50:37.000Z</time>
        <extensions>
          <ns3:TrackPointExtension>
            <ns3:hr>149</ns3:hr>
            <ns3:cad>78</ns3:cad>
          </ns3:TrackPointExtension>
        </extensions>
      </trkpt>
      <trkpt lat="52.12336041033267974853515625" lon="1.4492406137287616729736328125">
        <ele>37.59999847412109375</ele>
        <time>2025-09-06T08:50:40.000Z</time>
        <extensions>
          <ns3:TrackPointExtension>
            <ns3:hr>150</ns3:hr>
            <ns3:cad>78</ns3:cad>
          </ns3:TrackPointExtension>
        </extensions>
      </trkpt>
      <trkpt lat="52.1234205923974514007568359375" lon="1.44922234117984771728515625">
        <ele>39</ele>
        <time>2025-09-06T08:50:43.000Z</time>
        <extensions>
          <ns3:TrackPointExtension>
            <ns3:hr>152</ns3:hr>
            <ns3:cad>79</ns3:cad>
          </ns3:TrackPointExtension>
        </extensions>
      </trkpt>
      <trkpt lat="52.1234832890331745147705078125" lon="1.4491973631083965301513671875">
        <ele>40.40000152587890625</ele>
        <time>2025-09-06T08:50:46.000Z</time>
        <extensions>
          <ns3:TrackPointExtension>
            <ns3:hr>151</ns3:hr>
            <ns3:cad>79</ns3:cad>
          </ns3:TrackPointExtension>
        </extensions>
      </trkpt>
      <trkpt lat="52.1235235221683979034423828125" lon="1.44919459708034992218017578125">
        <ele>41.40000152587890625</ele>
        <time>2025-09-06T08:50:48.000Z</time>
        <extensions>
          <ns3:TrackPointExtension>
            <ns3:hr>151</ns3:hr>
            <ns3:cad>79</ns3:cad>
          </ns3:TrackPointExtension>
        </extensions>
      </trkpt>
      <trkpt lat="52.12356132455170154571533203125" lon="1.44918420352041721343994140625">
        <ele>42.59999847412109375</ele>
        <time>2025-09-06T08:50:50.000Z</time>
        <extensions>
          <ns3:TrackPointExtension>
            <ns3:hr>152</ns3:hr>
            <ns3:cad>80</ns3:cad>
          </ns3:TrackPointExtension>
        </extensions>
      </trkpt>
      <trkpt lat="52.12360289879143238067626953125" lon="1.44917942583560943603515625">
        <ele>43.59999847412109375</ele>
        <time>2025-09-06T08:50:52.000Z</time>
        <extensions>
          <ns3:TrackPointExtension>
            <ns3:hr>153</ns3:hr>
            <ns3:cad>80</ns3:cad>
          </ns3:TrackPointExtension>
        </extensions>
      </trkpt>
      <trkpt lat="52.1236546151340007781982421875" lon="1.44917347468435764312744140625">
        <ele>44.59999847412109375</ele>
        <time>2025-09-06T08:50:54.000Z</time>
        <extensions>
          <ns3:TrackPointExtension>
            <ns3:hr>153</ns3:hr>
            <ns3:cad>79</ns3:cad>
          </ns3:TrackPointExtension>
        </extensions>
      </trkpt>
      <trkpt lat="52.12370373308658599853515625" lon="1.44915997982025146484375">
        <ele>45.799999237060546875</ele>
        <time>2025-09-06T08:50:56.000Z</time>
        <extensions>
          <ns3:TrackPointExtension>
            <ns3:hr>152</ns3:hr>
            <ns3:cad>78</ns3:cad>
          </ns3:TrackPointExtension>
        </extensions>
      </trkpt>
      <trkpt lat="52.12378025986254215240478515625" lon="1.44915369339287281036376953125">
        <ele>47.200000762939453125</ele>
        <time>2025-09-06T08:50:59.000Z</time>
        <extensions>
          <ns3:TrackPointExtension>
            <ns3:hr>152</ns3:hr>
            <ns3:cad>78</ns3:cad>
          </ns3:TrackPointExtension>
        </extensions>
      </trkpt>
      <trkpt lat="52.1237991191446781158447265625" lon="1.449152939021587371826171875">
        <ele>47.59999847412109375</ele>
        <time>2025-09-06T08:51:00.000Z</time>
        <extensions>
          <ns3:TrackPointExtension>
            <ns3:hr>151</ns3:hr>
            <ns3:cad>78</ns3:cad>
          </ns3:TrackPointExtension>
        </extensions>
      </trkpt>
      <trkpt lat="52.1238349936902523040771484375" lon="1.449151597917079925537109375">
        <ele>48.59999847412109375</ele>
        <time>2025-09-06T08:51:02.000Z</time>
        <extensions>
          <ns3:TrackPointExtension>
            <ns3:hr>150</ns3:hr>
            <ns3:cad>78</ns3:cad>
          </ns3:TrackPointExtension>
        </extensions>
      </trkpt>
      <trkpt lat="52.12390481494367122650146484375" lon="1.449158303439617156982421875">
        <ele>50</ele>
        <time>2025-09-06T08:51:05.000Z</time>
        <extensions>
          <ns3:TrackPointExtension>
            <ns3:hr>152</ns3:hr>
            <ns3:cad>78</ns3:cad>
          </ns3:TrackPointExtension>
        </extensions>
      </trkpt>
      <trkpt lat="52.12395158596336841583251953125" lon="1.4491614885628223419189453125">
        <ele>51</ele>
        <time>2025-09-06T08:51:07.000Z</time>
        <extensions>
          <ns3:TrackPointExtension>
            <ns3:hr>151</ns3:hr>
            <ns3:cad>80</ns3:cad>
          </ns3:TrackPointExtension>
        </extensions>
      </trkpt>
      <trkpt lat="52.12399533949792385101318359375" lon="1.449168361723423004150390625">
        <ele>52.200000762939453125</ele>
        <time>2025-09-06T08:51:09.000Z</time>
        <extensions>
          <ns3:TrackPointExtension>
            <ns3:hr>152</ns3:hr>
            <ns3:cad>79</ns3:cad>
          </ns3:TrackPointExtension>
        </extensions>
      </trkpt>
      <trkpt lat="52.1240415237843990325927734375" lon="1.44918235950171947479248046875">
        <ele>53.40000152587890625</ele>
        <time>2025-09-06T08:51:11.000Z</time>
        <extensions>
          <ns3:TrackPointExtension>
            <ns3:hr>152</ns3:hr>
            <ns3:cad>79</ns3:cad>
          </ns3:TrackPointExtension>
        </extensions>
      </trkpt>
      <trkpt lat="52.12408569641411304473876953125" lon="1.449200548231601715087890625">
        <ele>54.59999847412109375</ele>
        <time>2025-09-06T08:51:13.000Z</time>
        <extensions>
          <ns3:TrackPointExtension>
            <ns3:hr>152</ns3:hr>
            <ns3:cad>80</ns3:cad>
          </ns3:TrackPointExtension>
        </extensions>
      </trkpt>
      <trkpt lat="52.12410598061978816986083984375" lon="1.4492080919444561004638671875">
        <ele>55.200000762939453125</ele>
        <time>2025-09-06T08:51:14.000Z</time>
        <extensions>
          <ns3:TrackPointExtension>
            <ns3:hr>154</ns3:hr>
            <ns3:cad>80</ns3:cad>
          </ns3:TrackPointExtension>
        </extensions>
      </trkpt>
      <trkpt lat="52.12412190623581409454345703125" lon="1.4492131210863590240478515625">
        <ele>55.799999237060546875</ele>
        <time>2025-09-06T08:51:15.000Z</time>
        <extensions>
          <ns3:TrackPointExtension>
            <ns3:hr>153</ns3:hr>
            <ns3:cad>79</ns3:cad>
          </ns3:TrackPointExtension>
        </extensions>
      </trkpt>
      <trkpt lat="52.12415878660976886749267578125" lon="1.44923030398786067962646484375">
        <ele>57</ele>
        <time>2025-09-06T08:51:17.000Z</time>
        <extensions>
          <ns3:TrackPointExtension>
            <ns3:hr>154</ns3:hr>
            <ns3:cad>79</ns3:cad>
          </ns3:TrackPointExtension>
        </extensions>
      </trkpt>
      <trkpt lat="52.12419516406953334808349609375" lon="1.4492526836693286895751953125">
        <ele>58.200000762939453125</ele>
        <time>2025-09-06T08:51:19.000Z</time>
        <extensions>
          <ns3:TrackPointExtension>
            <ns3:hr>153</ns3:hr>
            <ns3:cad>80</ns3:cad>
          </ns3:TrackPointExtension>
        </extensions>
      </trkpt>
      <trkpt lat="52.1242327988147735595703125" lon="1.44928210414946079254150390625">
        <ele>59.40000152587890625</ele>
        <time>2025-09-06T08:51:21.000Z</time>
        <extensions>
          <ns3:TrackPointExtension>
            <ns3:hr>153</ns3:hr>
            <ns3:cad>80</ns3:cad>
          </ns3:TrackPointExtension>
        </extensions>
      </trkpt>
      <trkpt lat="52.1242701821029186248779296875" lon="1.44932351075112819671630859375">
        <ele>60.40000152587890625</ele>
        <time>2025-09-06T08:51:23.000Z</time>
        <extensions>
          <ns3:TrackPointExtension>
            <ns3:hr>154</ns3:hr>
            <ns3:cad>80</ns3:cad>
          </ns3:TrackPointExtension>
        </extensions>
      </trkpt>
      <trkpt lat="52.12430731393396854400634765625" lon="1.4493636600673198699951171875">
        <ele>61.59999847412109375</ele>
        <time>2025-09-06T08:51:25.000Z</time>
        <extensions>
          <ns3:TrackPointExtension>
            <ns3:hr>153</ns3:hr>
            <ns3:cad>79</ns3:cad>
          </ns3:TrackPointExtension>
        </extensions>
      </trkpt>
      <trkpt lat="52.12433866225183010101318359375" lon="1.44939257763326168060302734375">
        <ele>62.799999237060546875</ele>
        <time>2025-09-06T08:51:27.000Z</time>
        <extensions>
          <ns3:TrackPointExtension>
            <ns3:hr>153</ns3:hr>
            <ns3:cad>77</ns3:cad>
          </ns3:TrackPointExtension>
        </extensions>
      </trkpt>
      <trkpt lat="52.1243764646351337432861328125" lon="1.44940649159252643585205078125">
        <ele>63.799999237060546875</ele>
        <time>2025-09-06T08:51:29.000Z</time>
        <extensions>
          <ns3:TrackPointExtension>
            <ns3:hr>151</ns3:hr>
            <ns3:cad>77</ns3:cad>
          </ns3:TrackPointExtension>
        </extensions>
      </trkpt>
      <trkpt lat="52.12440437637269496917724609375" lon="1.44940875470638275146484375">
        <ele>64.40000152587890625</ele>
        <time>2025-09-06T08:51:30.000Z</time>
        <extensions>
          <ns3:TrackPointExtension>
            <ns3:hr>153</ns3:hr>
            <ns3:cad>78</ns3:cad>
          </ns3:TrackPointExtension>
        </extensions>
      </trkpt>
      <trkpt lat="52.1244250796735286712646484375" lon="1.4494119398295879364013671875">
        <ele>64.8000030517578125</ele>
        <time>2025-09-06T08:51:31.000Z</time>
        <extensions>
          <ns3:TrackPointExtension>
            <ns3:hr>152</ns3:hr>
            <ns3:cad>78</ns3:cad>
          </ns3:TrackPointExtension>
        </extensions>
      </trkpt>
      <trkpt lat="52.124470174312591552734375" lon="1.4494186453521251678466796875">
        <ele>65.8000030517578125</ele>
        <time>2025-09-06T08:51:33.000Z</time>
        <extensions>
          <ns3:TrackPointExtension>
            <ns3:hr>152</ns3:hr>
            <ns3:cad>77</ns3:cad>
          </ns3:TrackPointExtension>
        </extensions>
      </trkpt>
      <trkpt lat="52.12450831197202205657958984375" lon="1.44942526705563068389892578125">
        <ele>66.8000030517578125</ele>
        <time>2025-09-06T08:51:35.000Z</time>
        <extensions>
          <ns3:TrackPointExtension>
            <ns3:hr>154</ns3:hr>
            <ns3:cad>77</ns3:cad>
          </ns3:TrackPointExtension>
        </extensions>
      </trkpt>
      <trkpt lat="52.12456849403679370880126953125" lon="1.44943884573876857757568359375">
        <ele>68.40000152587890625</ele>
        <time>2025-09-06T08:51:38.000Z</time>
        <extensions>
          <ns3:TrackPointExtension>
            <ns3:hr>152</ns3:hr>
            <ns3:cad>80</ns3:cad>
          </ns3:TrackPointExtension>
        </extensions>
      </trkpt>
      <trkpt lat="52.12462632916867733001708984375" lon="1.44944923929870128631591796875">
        <ele>69.8000030517578125</ele>
        <time>2025-09-06T08:51:41.000Z</time>
        <extensions>
          <ns3:TrackPointExtension>
            <ns3:hr>153</ns3:hr>
            <ns3:cad>80</ns3:cad>
          </ns3:TrackPointExtension>
        </extensions>
      </trkpt>
      <trkpt lat="52.12468014098703861236572265625" lon="1.4494592137634754180908203125">
        <ele>71.1999969482421875</ele>
        <time>2025-09-06T08:51:44.000Z</time>
        <extensions>
          <ns3:TrackPointExtension>
            <ns3:hr>154</ns3:hr>
            <ns3:cad>79</ns3:cad>
          </ns3:TrackPointExtension>
        </extensions>
      </trkpt>
      <trkpt lat="52.12474082596600055694580078125" lon="1.44946734420955181121826171875">
        <ele>72.40000152587890625</ele>
        <time>2025-09-06T08:51:47.000Z</time>
        <extensions>
          <ns3:TrackPointExtension>
            <ns3:hr>153</ns3:hr>
            <ns3:cad>79</ns3:cad>
          </ns3:TrackPointExtension>
        </extensions>
      </trkpt>
      <trkpt lat="52.12476722896099090576171875" lon="1.44947572611272335052490234375">
        <ele>72.8000030517578125</ele>
        <time>2025-09-06T08:51:48.000Z</time>
        <extensions>
          <ns3:TrackPointExtension>
            <ns3:hr>155</ns3:hr>
            <ns3:cad>79</ns3:cad>
          </ns3:TrackPointExtension>
        </extensions>
      </trkpt>
      <trkpt lat="52.1248079650104045867919921875" lon="1.44948209635913372039794921875">
        <ele>73.59999847412109375</ele>
        <time>2025-09-06T08:51:50.000Z</time>
        <extensions>
          <ns3:TrackPointExtension>
            <ns3:hr>154</ns3:hr>
            <ns3:cad>79</ns3:cad>
          </ns3:TrackPointExtension>
        </extensions>
      </trkpt>
      <trkpt lat="52.124871499836444854736328125" lon="1.44949324429035186767578125">
        <ele>74.8000030517578125</ele>
        <time>2025-09-06T08:51:53.000Z</time>
        <extensions>
          <ns3:TrackPointExtension>
            <ns3:hr>153</ns3:hr>
            <ns3:cad>79</ns3:cad>
          </ns3:TrackPointExtension>
        </extensions>
      </trkpt>
      <trkpt lat="52.1249380521476268768310546875" lon="1.44951964728534221649169921875">
        <ele>76</ele>
        <time>2025-09-06T08:51:56.000Z</time>
        <extensions>
          <ns3:TrackPointExtension>
            <ns3:hr>152</ns3:hr>
            <ns3:cad>79</ns3:cad>
          </ns3:TrackPointExtension>
        </extensions>
      </trkpt>
      <trkpt lat="52.12495825253427028656005859375" lon="1.44952920265495777130126953125">
        <ele>76.40000152587890625</ele>
        <time>2025-09-06T08:51:57.000Z</time>
        <extensions>
          <ns3:TrackPointExtension>
            <ns3:hr>152</ns3:hr>
            <ns3:cad>78</ns3:cad>
          </ns3:TrackPointExtension>
        </extensions>
      </trkpt>
      <trkpt lat="52.1249947138130664825439453125" lon="1.4495470561087131500244140625">
        <ele>77</ele>
        <time>2025-09-06T08:51:59.000Z</time>
        <extensions>
          <ns3:TrackPointExtension>
            <ns3:hr>151</ns3:hr>
            <ns3:cad>78</ns3:cad>
          </ns3:TrackPointExtension>
        </extensions>
      </trkpt>
      <trkpt lat="52.12505447678267955780029296875" lon="1.4495691843330860137939453125">
        <ele>78.1999969482421875</ele>
        <time>2025-09-06T08:52:02.000Z</time>
        <extensions>
          <ns3:TrackPointExtension>
            <ns3:hr>151</ns3:hr>
            <ns3:cad>77</ns3:cad>
          </ns3:TrackPointExtension>
        </extensions>
      </trkpt>
      <trkpt lat="52.12509269826114177703857421875" lon="1.44957580603659152984619140625">
        <ele>78.8000030517578125</ele>
        <time>2025-09-06T08:52:04.000Z</time>
        <extensions>
          <ns3:TrackPointExtension>
            <ns3:hr>151</ns3:hr>
            <ns3:cad>77</ns3:cad>
          </ns3:TrackPointExtension>
        </extensions>
      </trkpt>
      <trkpt lat="52.1251179277896881103515625" lon="1.44957580603659152984619140625">
        <ele>79.1999969482421875</ele>
        <time>2025-09-06T08:52:05.000Z</time>
        <extensions>
          <ns3:TrackPointExtension>
            <ns3:hr>150</ns3:hr>
            <ns3:cad>77</ns3:cad>
          </ns3:TrackPointExtension>
        </extensions>
      </trkpt>
      <trkpt lat="52.1251586638391017913818359375" lon="1.44958066754043102264404296875">
        <ele>79.8000030517578125</ele>
        <time>2025-09-06T08:52:07.000Z</time>
        <extensions>
          <ns3:TrackPointExtension>
            <ns3:hr>153</ns3:hr>
            <ns3:cad>78</ns3:cad>
          </ns3:TrackPointExtension>
        </extensions>
      </trkpt>
      <trkpt lat="52.1251983940601348876953125" lon="1.44958720542490482330322265625">
        <ele>80.40000152587890625</ele>
        <time>2025-09-06T08:52:09.000Z</time>
        <extensions>
          <ns3:TrackPointExtension>
            <ns3:hr>153</ns3:hr>
            <ns3:cad>78</ns3:cad>
          </ns3:TrackPointExtension>
        </extensions>
      </trkpt>
      <trkpt lat="52.12525832466781139373779296875" lon="1.44960715435445308685302734375">
        <ele>81.1999969482421875</ele>
        <time>2025-09-06T08:52:12.000Z</time>
        <extensions>
          <ns3:TrackPointExtension>
            <ns3:hr>154</ns3:hr>
            <ns3:cad>78</ns3:cad>
          </ns3:TrackPointExtension>
        </extensions>
      </trkpt>
      <trkpt lat="52.12529554031789302825927734375" lon="1.449615955352783203125">
        <ele>81.59999847412109375</ele>
        <time>2025-09-06T08:52:14.000Z</time>
        <extensions>
          <ns3:TrackPointExtension>
            <ns3:hr>155</ns3:hr>
            <ns3:cad>78</ns3:cad>
          </ns3:TrackPointExtension>
        </extensions>
      </trkpt>
      <trkpt lat="52.12541741319000720977783203125" lon="1.44963942468166351318359375">
        <ele>82.8000030517578125</ele>
        <time>2025-09-06T08:52:20.000Z</time>
        <extensions>
          <ns3:TrackPointExtension>
            <ns3:hr>154</ns3:hr>
            <ns3:cad>78</ns3:cad>
          </ns3:TrackPointExtension>
        </extensions>
      </trkpt>
      <trkpt lat="52.12543702684342861175537109375" lon="1.44964344799518585205078125">
        <ele>83</ele>
        <time>2025-09-06T08:52:21.000Z</time>
        <extensions>
          <ns3:TrackPointExtension>
            <ns3:hr>154</ns3:hr>
            <ns3:cad>78</ns3:cad>
          </ns3:TrackPointExtension>
        </extensions>
      </trkpt>
      <trkpt lat="52.1255626715719699859619140625" lon="1.44968410022556781768798828125">
        <ele>83.8000030517578125</ele>
        <time>2025-09-06T08:52:27.000Z</time>
        <extensions>
          <ns3:TrackPointExtension>
            <ns3:hr>155</ns3:hr>
            <ns3:cad>78</ns3:cad>
          </ns3:TrackPointExtension>
        </extensions>
      </trkpt>
      <trkpt lat="52.12559762410819530487060546875" lon="1.449697427451610565185546875">
        <ele>84.1999969482421875</ele>
        <time>2025-09-06T08:52:29.000Z</time>
        <extensions>
          <ns3:TrackPointExtension>
            <ns3:hr>155</ns3:hr>
            <ns3:cad>78</ns3:cad>
          </ns3:TrackPointExtension>
        </extensions>
      </trkpt>
      <trkpt lat="52.12572134099900722503662109375" lon="1.44975584931671619415283203125">
        <ele>85</ele>
        <time>2025-09-06T08:52:36.000Z</time>
        <extensions>
          <ns3:TrackPointExtension>
            <ns3:hr>154</ns3:hr>
            <ns3:cad>78</ns3:cad>
          </ns3:TrackPointExtension>
        </extensions>
      </trkpt>
      <trkpt lat="52.12586735375225543975830078125" lon="1.4497576095163822174072265625">
        <ele>85.8000030517578125</ele>
        <time>2025-09-06T08:52:43.000Z</time>
        <extensions>
          <ns3:TrackPointExtension>
            <ns3:hr>157</ns3:hr>
            <ns3:cad>78</ns3:cad>
          </ns3:TrackPointExtension>
        </extensions>
      </trkpt>
      <trkpt lat="52.12590582668781280517578125" lon="1.4497710205614566802978515625">
        <ele>86</ele>
        <time>2025-09-06T08:52:45.000Z</time>
        <extensions>
          <ns3:TrackPointExtension>
            <ns3:hr>157</ns3:hr>
            <ns3:cad>78</ns3:cad>
          </ns3:TrackPointExtension>
        </extensions>
      </trkpt>
      <trkpt lat="52.12600515224039554595947265625" lon="1.44978317432105541229248046875">
        <ele>86.8000030517578125</ele>
        <time>2025-09-06T08:52:50.000Z</time>
        <extensions>
          <ns3:TrackPointExtension>
            <ns3:hr>158</ns3:hr>
            <ns3:cad>79</ns3:cad>
          </ns3:TrackPointExtension>
        </extensions>
      </trkpt>
      <trkpt lat="52.12602518498897552490234375" lon="1.4497884549200534820556640625">
        <ele>87</ele>
        <time>2025-09-06T08:52:51.000Z</time>
        <extensions>
          <ns3:TrackPointExtension>
            <ns3:hr>159</ns3:hr>
            <ns3:cad>79</ns3:cad>
          </ns3:TrackPointExtension>
        </extensions>
      </trkpt>
      <trkpt lat="52.12611579336225986480712890625" lon="1.449794657528400421142578125">
        <ele>88.1999969482421875</ele>
        <time>2025-09-06T08:52:56.000Z</time>
        <extensions>
          <ns3:TrackPointExtension>
            <ns3:hr>162</ns3:hr>
            <ns3:cad>79</ns3:cad>
          </ns3:TrackPointExtension>
        </extensions>
      </trkpt>
      <trkpt lat="52.12615317665040493011474609375" lon="1.449788622558116912841796875">
        <ele>88.8000030517578125</ele>
        <time>2025-09-06T08:52:58.000Z</time>
        <extensions>
          <ns3:TrackPointExtension>
            <ns3:hr>167</ns3:hr>
            <ns3:cad>79</ns3:cad>
          </ns3:TrackPointExtension>
        </extensions>
      </trkpt>
      <trkpt lat="52.12619424797594547271728515625" lon="1.4497809112071990966796875">
        <ele>89.40000152587890625</ele>
        <time>2025-09-06T08:53:00.000Z</time>
        <extensions>
          <ns3:TrackPointExtension>
            <ns3:hr>170</ns3:hr>
            <ns3:cad>79</ns3:cad>
          </ns3:TrackPointExtension>
        </extensions>
      </trkpt>
      <trkpt lat="52.1262154541909694671630859375" lon="1.44978518597781658172607421875">
        <ele>89.59999847412109375</ele>
        <time>2025-09-06T08:53:01.000Z</time>
        <extensions>
          <ns3:TrackPointExtension>
            <ns3:hr>167</ns3:hr>
            <ns3:cad>79</ns3:cad>
          </ns3:TrackPointExtension>
        </extensions>
      </trkpt>
      <trkpt lat="52.12628393433988094329833984375" lon="1.44980278797447681427001953125">
        <ele>90.40000152587890625</ele>
        <time>2025-09-06T08:53:04.000Z</time>
        <extensions>
          <ns3:TrackPointExtension>
            <ns3:hr>167</ns3:hr>
            <ns3:cad>79</ns3:cad>
          </ns3:TrackPointExtension>
        </extensions>
      </trkpt>
      <trkpt lat="52.126328609883785247802734375" lon="1.4498065598309040069580078125">
        <ele>91</ele>
        <time>2025-09-06T08:53:06.000Z</time>
        <extensions>
          <ns3:TrackPointExtension>
            <ns3:hr>166</ns3:hr>
            <ns3:cad>79</ns3:cad>
          </ns3:TrackPointExtension>
        </extensions>
      </trkpt>
      <trkpt lat="52.12636708281934261322021484375" lon="1.4498048834502696990966796875">
        <ele>91.59999847412109375</ele>
        <time>2025-09-06T08:53:08.000Z</time>
        <extensions>
          <ns3:TrackPointExtension>
            <ns3:hr>164</ns3:hr>
            <ns3:cad>79</ns3:cad>
          </ns3:TrackPointExtension>
        </extensions>
      </trkpt>
      <trkpt lat="52.1264464594423770904541015625" lon="1.4497840963304042816162109375">
        <ele>92.59999847412109375</ele>
        <time>2025-09-06T08:53:12.000Z</time>
        <extensions>
          <ns3:TrackPointExtension>
            <ns3:hr>165</ns3:hr>
            <ns3:cad>78</ns3:cad>
          </ns3:TrackPointExtension>
        </extensions>
      </trkpt>
      <trkpt lat="52.12654553353786468505859375" lon="1.44978116266429424285888671875">
        <ele>91.59999847412109375</ele>
        <time>2025-09-06T08:53:17.000Z</time>
        <extensions>
          <ns3:TrackPointExtension>
            <ns3:hr>170</ns3:hr>
            <ns3:cad>79</ns3:cad>
          </ns3:TrackPointExtension>
        </extensions>
      </trkpt>
      <trkpt lat="52.1265879459679126739501953125" lon="1.44978468306362628936767578125">
        <ele>89.8000030517578125</ele>
        <time>2025-09-06T08:53:19.000Z</time>
        <extensions>
          <ns3:TrackPointExtension>
            <ns3:hr>175</ns3:hr>
            <ns3:cad>78</ns3:cad>
          </ns3:TrackPointExtension>
        </extensions>
      </trkpt>
      <trkpt lat="52.126608900725841522216796875" lon="1.449776552617549896240234375">
        <ele>88.8000030517578125</ele>
        <time>2025-09-06T08:53:20.000Z</time>
        <extensions>
          <ns3:TrackPointExtension>
            <ns3:hr>176</ns3:hr>
            <ns3:cad>78</ns3:cad>
          </ns3:TrackPointExtension>
        </extensions>
      </trkpt>
      <trkpt lat="52.12662868201732635498046875" lon="1.44977026619017124176025390625">
        <ele>88</ele>
        <time>2025-09-06T08:53:21.000Z</time>
        <extensions>
          <ns3:TrackPointExtension>
            <ns3:hr>177</ns3:hr>
            <ns3:cad>78</ns3:cad>
          </ns3:TrackPointExtension>
        </extensions>
      </trkpt>
      <trkpt lat="52.126667238771915435791015625" lon="1.44975953735411167144775390625">
        <ele>86.1999969482421875</ele>
        <time>2025-09-06T08:53:23.000Z</time>
        <extensions>
          <ns3:TrackPointExtension>
            <ns3:hr>178</ns3:hr>
            <ns3:cad>78</ns3:cad>
          </ns3:TrackPointExtension>
        </extensions>
      </trkpt>
      <trkpt lat="52.12672616355121135711669921875" lon="1.44976079463958740234375">
        <ele>84.40000152587890625</ele>
        <time>2025-09-06T08:53:25.000Z</time>
        <extensions>
          <ns3:TrackPointExtension>
            <ns3:hr>179</ns3:hr>
            <ns3:cad>78</ns3:cad>
          </ns3:TrackPointExtension>
        </extensions>
      </trkpt>
      <trkpt lat="52.12675248272716999053955078125" lon="1.44975475966930389404296875">
        <ele>83.59999847412109375</ele>
        <time>2025-09-06T08:53:26.000Z</time>
        <extensions>
          <ns3:TrackPointExtension>
            <ns3:hr>180</ns3:hr>
            <ns3:cad>78</ns3:cad>
          </ns3:TrackPointExtension>
        </extensions>
      </trkpt>
      <trkpt lat="52.1267743594944477081298828125" lon="1.44974780268967151641845703125">
        <ele>82.8000030517578125</ele>
        <time>2025-09-06T08:53:27.000Z</time>
        <extensions>
          <ns3:TrackPointExtension>
            <ns3:hr>181</ns3:hr>
            <ns3:cad>78</ns3:cad>
          </ns3:TrackPointExtension>
        </extensions>
      </trkpt>
      <trkpt lat="52.1267874352633953094482421875" lon="1.44973841495811939239501953125">
        <ele>82</ele>
        <time>2025-09-06T08:53:28.000Z</time>
        <extensions>
          <ns3:TrackPointExtension>
            <ns3:hr>182</ns3:hr>
            <ns3:cad>78</ns3:cad>
          </ns3:TrackPointExtension>
        </extensions>
      </trkpt>
      <trkpt lat="52.12679908610880374908447265625" lon="1.44973573274910449981689453125">
        <ele>81</ele>
        <time>2025-09-06T08:53:29.000Z</time>
        <extensions>
          <ns3:TrackPointExtension>
            <ns3:hr>182</ns3:hr>
            <ns3:cad>78</ns3:cad>
          </ns3:TrackPointExtension>
        </extensions>
      </trkpt>
      <trkpt lat="52.12680478580296039581298828125" lon="1.4497428573668003082275390625">
        <ele>79.40000152587890625</ele>
        <time>2025-09-06T08:53:31.000Z</time>
        <extensions>
          <ns3:TrackPointExtension>
            <ns3:hr>183</ns3:hr>
            <ns3:cad>0</ns3:cad>
          </ns3:TrackPointExtension>
        </extensions>
      </trkpt>
      <trkpt lat="52.12681132368743419647216796875" lon="1.4497408457100391387939453125">
        <ele>77.8000030517578125</ele>
        <time>2025-09-06T08:53:33.000Z</time>
        <extensions>
          <ns3:TrackPointExtension>
            <ns3:hr>184</ns3:hr>
            <ns3:cad>0</ns3:cad>
          </ns3:TrackPointExtension>
        </extensions>
      </trkpt>
      <trkpt lat="52.1268159337341785430908203125" lon="1.4497371576726436614990234375">
        <ele>76.1999969482421875</ele>
        <time>2025-09-06T08:53:35.000Z</time>
        <extensions>
          <ns3:TrackPointExtension>
            <ns3:hr>182</ns3:hr>
            <ns3:cad>0</ns3:cad>
          </ns3:TrackPointExtension>
        </extensions>
      </trkpt>
      <trkpt lat="52.1268172748386859893798828125" lon="1.44973657093942165374755859375">
        <ele>74.8000030517578125</ele>
        <time>2025-09-06T08:53:37.000Z</time>
        <extensions>
          <ns3:TrackPointExtension>
            <ns3:hr>181</ns3:hr>
            <ns3:cad>0</ns3:cad>
          </ns3:TrackPointExtension>
        </extensions>
      </trkpt>
      <trkpt lat="52.126822806894779205322265625" lon="1.4497381635010242462158203125">
        <ele>73.1999969482421875</ele>
        <time>2025-09-06T08:53:39.000Z</time>
        <extensions>
          <ns3:TrackPointExtension>
            <ns3:hr>179</ns3:hr>
            <ns3:cad>0</ns3:cad>
          </ns3:TrackPointExtension>
        </extensions>
      </trkpt>
      <trkpt lat="52.1268273331224918365478515625" lon="1.4497428573668003082275390625">
        <ele>71.8000030517578125</ele>
        <time>2025-09-06T08:53:41.000Z</time>
        <extensions>
          <ns3:TrackPointExtension>
            <ns3:hr>177</ns3:hr>
            <ns3:cad>0</ns3:cad>
          </ns3:TrackPointExtension>
        </extensions>
      </trkpt>
      <trkpt lat="52.12682993151247501373291015625" lon="1.44974864087998867034912109375">
        <ele>70.40000152587890625</ele>
        <time>2025-09-06T08:53:43.000Z</time>
        <extensions>
          <ns3:TrackPointExtension>
            <ns3:hr>178</ns3:hr>
            <ns3:cad>0</ns3:cad>
          </ns3:TrackPointExtension>
        </extensions>
      </trkpt>
      <trkpt lat="52.1268350444734096527099609375" lon="1.44975819624960422515869140625">
        <ele>68.8000030517578125</ele>
        <time>2025-09-06T08:53:45.000Z</time>
        <extensions>
          <ns3:TrackPointExtension>
            <ns3:hr>175</ns3:hr>
            <ns3:cad>0</ns3:cad>
          </ns3:TrackPointExtension>
        </extensions>
      </trkpt>
      <trkpt lat="52.12683848105370998382568359375" lon="1.44977177493274211883544921875">
        <ele>68.1999969482421875</ele>
        <time>2025-09-06T08:53:46.000Z</time>
        <extensions>
          <ns3:TrackPointExtension>
            <ns3:hr>176</ns3:hr>
            <ns3:cad>0</ns3:cad>
          </ns3:TrackPointExtension>
        </extensions>
      </trkpt>
      <trkpt lat="52.12683864869177341461181640625" lon="1.449787616729736328125">
        <ele>67.40000152587890625</ele>
        <time>2025-09-06T08:53:47.000Z</time>
        <extensions>
          <ns3:TrackPointExtension>
            <ns3:hr>173</ns3:hr>
            <ns3:cad>0</ns3:cad>
          </ns3:TrackPointExtension>
        </extensions>
      </trkpt>
      <trkpt lat="52.1268481202423572540283203125" lon="1.44978350959718227386474609375">
        <ele>66.1999969482421875</ele>
        <time>2025-09-06T08:53:49.000Z</time>
        <extensions>
          <ns3:TrackPointExtension>
            <ns3:hr>172</ns3:hr>
            <ns3:cad>0</ns3:cad>
          </ns3:TrackPointExtension>
        </extensions>
      </trkpt>
      <trkpt lat="52.12685273028910160064697265625" lon="1.44978501833975315093994140625">
        <ele>64.8000030517578125</ele>
        <time>2025-09-06T08:53:51.000Z</time>
        <extensions>
          <ns3:TrackPointExtension>
            <ns3:hr>171</ns3:hr>
            <ns3:cad>0</ns3:cad>
          </ns3:TrackPointExtension>
        </extensions>
      </trkpt>
      <trkpt lat="52.1268558315932750701904296875" lon="1.44978350959718227386474609375">
        <ele>63.40000152587890625</ele>
        <time>2025-09-06T08:53:53.000Z</time>
        <extensions>
          <ns3:TrackPointExtension>
            <ns3:hr>171</ns3:hr>
            <ns3:cad>0</ns3:cad>
          </ns3:TrackPointExtension>
        </extensions>
      </trkpt>
      <trkpt lat="52.12685641832649707794189453125" lon="1.44978468306362628936767578125">
        <ele>62.799999237060546875</ele>
        <time>2025-09-06T08:53:54.000Z</time>
        <extensions>
          <ns3:TrackPointExtension>
            <ns3:hr>170</ns3:hr>
            <ns3:cad>0</ns3:cad>
          </ns3:TrackPointExtension>
        </extensions>
      </trkpt>
      <trkpt lat="52.12685675360262393951416015625" lon="1.44978233613073825836181640625">
        <ele>62.200000762939453125</ele>
        <time>2025-09-06T08:53:55.000Z</time>
        <extensions>
          <ns3:TrackPointExtension>
            <ns3:hr>170</ns3:hr>
            <ns3:cad>0</ns3:cad>
          </ns3:TrackPointExtension>
        </extensions>
      </trkpt>
      <trkpt lat="52.1268591843545436859130859375" lon="1.4497817493975162506103515625">
        <ele>60.799999237060546875</ele>
        <time>2025-09-06T08:53:57.000Z</time>
        <extensions>
          <ns3:TrackPointExtension>
            <ns3:hr>168</ns3:hr>
            <ns3:cad>0</ns3:cad>
          </ns3:TrackPointExtension>
        </extensions>
      </trkpt>
      <trkpt lat="52.1268591843545436859130859375" lon="1.44978166557848453521728515625">
        <ele>60.200000762939453125</ele>
        <time>2025-09-06T08:53:58.000Z</time>
        <extensions>
          <ns3:TrackPointExtension>
            <ns3:hr>165</ns3:hr>
            <ns3:cad>0</ns3:cad>
          </ns3:TrackPointExtension>
        </extensions>
      </trkpt>
      <trkpt lat="52.1268595196306705474853515625" lon="1.44978099502623081207275390625">
        <ele>59.59999847412109375</ele>
        <time>2025-09-06T08:53:59.000Z</time>
        <extensions>
          <ns3:TrackPointExtension>
            <ns3:hr>166</ns3:hr>
            <ns3:cad>0</ns3:cad>
          </ns3:TrackPointExtension>
        </extensions>
      </trkpt>
      <trkpt lat="52.12685926817357540130615234375" lon="1.44978015683591365814208984375">
        <ele>59</ele>
        <time>2025-09-06T08:54:00.000Z</time>
        <extensions>
          <ns3:TrackPointExtension>
            <ns3:hr>162</ns3:hr>
            <ns3:cad>0</ns3:cad>
          </ns3:TrackPointExtension>
        </extensions>
      </trkpt>
      <trkpt lat="52.12686027400195598602294921875" lon="1.4497809112071990966796875">
        <ele>58.40000152587890625</ele>
        <time>2025-09-06T08:54:01.000Z</time>
        <extensions>
          <ns3:TrackPointExtension>
            <ns3:hr>158</ns3:hr>
            <ns3:cad>0</ns3:cad>
          </ns3:TrackPointExtension>
        </extensions>
      </trkpt>
      <trkpt lat="52.12686069309711456298828125" lon="1.449781246483325958251953125">
        <ele>57.799999237060546875</ele>
        <time>2025-09-06T08:54:02.000Z</time>
        <extensions>
          <ns3:TrackPointExtension>
            <ns3:hr>158</ns3:hr>
            <ns3:cad>0</ns3:cad>
          </ns3:TrackPointExtension>
        </extensions>
      </trkpt>
      <trkpt lat="52.12686060927808284759521484375" lon="1.4497814141213893890380859375">
        <ele>57.200000762939453125</ele>
        <time>2025-09-06T08:54:03.000Z</time>
        <extensions>
          <ns3:TrackPointExtension>
            <ns3:hr>155</ns3:hr>
            <ns3:cad>0</ns3:cad>
          </ns3:TrackPointExtension>
        </extensions>
      </trkpt>
      <trkpt lat="52.12686060927808284759521484375" lon="1.44978166557848453521728515625">
        <ele>56</ele>
        <time>2025-09-06T08:54:05.000Z</time>
        <extensions>
          <ns3:TrackPointExtension>
            <ns3:hr>155</ns3:hr>
            <ns3:cad>0</ns3:cad>
          </ns3:TrackPointExtension>
        </extensions>
      </trkpt>
      <trkpt lat="52.12685876525938510894775390625" lon="1.4497804082930088043212890625">
        <ele>55</ele>
        <time>2025-09-06T08:54:07.000Z</time>
        <extensions>
          <ns3:TrackPointExtension>
            <ns3:hr>157</ns3:hr>
            <ns3:cad>0</ns3:cad>
          </ns3:TrackPointExtension>
        </extensions>
      </trkpt>
      <trkpt lat="52.12685792706906795501708984375" lon="1.4497817493975162506103515625">
        <ele>53.799999237060546875</ele>
        <time>2025-09-06T08:54:09.000Z</time>
        <extensions>
          <ns3:TrackPointExtension>
            <ns3:hr>154</ns3:hr>
            <ns3:cad>0</ns3:cad>
          </ns3:TrackPointExtension>
        </extensions>
      </trkpt>
      <trkpt lat="52.1268586814403533935546875" lon="1.449779570102691650390625">
        <ele>52.59999847412109375</ele>
        <time>2025-09-06T08:54:11.000Z</time>
        <extensions>
          <ns3:TrackPointExtension>
            <ns3:hr>153</ns3:hr>
            <ns3:cad>0</ns3:cad>
          </ns3:TrackPointExtension>
        </extensions>
      </trkpt>
      <trkpt lat="52.1268702484667301177978515625" lon="1.44976993091404438018798828125">
        <ele>51.59999847412109375</ele>
        <time>2025-09-06T08:54:13.000Z</time>
        <extensions>
          <ns3:TrackPointExtension>
            <ns3:hr>152</ns3:hr>
            <ns3:cad>0</ns3:cad>
          </ns3:TrackPointExtension>
        </extensions>
      </trkpt>
      <trkpt lat="52.126879133284091949462890625" lon="1.449760459363460540771484375">
        <ele>50.40000152587890625</ele>
        <time>2025-09-06T08:54:15.000Z</time>
        <extensions>
          <ns3:TrackPointExtension>
            <ns3:hr>151</ns3:hr>
            <ns3:cad>0</ns3:cad>
          </ns3:TrackPointExtension>
        </extensions>
      </trkpt>
      <trkpt lat="52.126901932060718536376953125" lon="1.449757777154445648193359375">
        <ele>49.40000152587890625</ele>
        <time>2025-09-06T08:54:17.000Z</time>
        <extensions>
          <ns3:TrackPointExtension>
            <ns3:hr>151</ns3:hr>
            <ns3:cad>0</ns3:cad>
          </ns3:TrackPointExtension>
        </extensions>
      </trkpt>
      <trkpt lat="52.1269332803785800933837890625" lon="1.44975316710770130157470703125">
        <ele>48.40000152587890625</ele>
        <time>2025-09-06T08:54:19.000Z</time>
        <extensions>
          <ns3:TrackPointExtension>
            <ns3:hr>150</ns3:hr>
            <ns3:cad>0</ns3:cad>
          </ns3:TrackPointExtension>
        </extensions>
      </trkpt>
      <trkpt lat="52.12695230729877948760986328125" lon="1.44974830560386180877685546875">
        <ele>48</ele>
        <time>2025-09-06T08:54:20.000Z</time>
        <extensions>
          <ns3:TrackPointExtension>
            <ns3:hr>150</ns3:hr>
            <ns3:cad>75</ns3:cad>
          </ns3:TrackPointExtension>
        </extensions>
      </trkpt>
      <trkpt lat="52.1269713342189788818359375" lon="1.44974528811872005462646484375">
        <ele>47.40000152587890625</ele>
        <time>2025-09-06T08:54:21.000Z</time>
        <extensions>
          <ns3:TrackPointExtension>
            <ns3:hr>150</ns3:hr>
            <ns3:cad>77</ns3:cad>
          </ns3:TrackPointExtension>
        </extensions>
      </trkpt>
      <trkpt lat="52.126991786062717437744140625" lon="1.44974059425294399261474609375">
        <ele>47</ele>
        <time>2025-09-06T08:54:22.000Z</time>
        <extensions>
          <ns3:TrackPointExtension>
            <ns3:hr>153</ns3:hr>
            <ns3:cad>77</ns3:cad>
          </ns3:TrackPointExtension>
        </extensions>
      </trkpt>
      <trkpt lat="52.1270352043211460113525390625" lon="1.449732296168804168701171875">
        <ele>46</ele>
        <time>2025-09-06T08:54:24.000Z</time>
        <extensions>
          <ns3:TrackPointExtension>
            <ns3:hr>157</ns3:hr>
            <ns3:cad>79</ns3:cad>
          </ns3:TrackPointExtension>
        </extensions>
      </trkpt>
      <trkpt lat="52.127101421356201171875" lon="1.449722908437252044677734375">
        <ele>44.59999847412109375</ele>
        <time>2025-09-06T08:54:27.000Z</time>
        <extensions>
          <ns3:TrackPointExtension>
            <ns3:hr>160</ns3:hr>
            <ns3:cad>80</ns3:cad>
          </ns3:TrackPointExtension>
        </extensions>
      </trkpt>
      <trkpt lat="52.12714039720594882965087890625" lon="1.44971293397247791290283203125">
        <ele>43.59999847412109375</ele>
        <time>2025-09-06T08:54:29.000Z</time>
        <extensions>
          <ns3:TrackPointExtension>
            <ns3:hr>165</ns3:hr>
            <ns3:cad>79</ns3:cad>
          </ns3:TrackPointExtension>
        </extensions>
      </trkpt>
      <trkpt lat="52.12715900503098964691162109375" lon="1.44970438443124294281005859375">
        <ele>43.200000762939453125</ele>
        <time>2025-09-06T08:54:30.000Z</time>
        <extensions>
          <ns3:TrackPointExtension>
            <ns3:hr>165</ns3:hr>
            <ns3:cad>78</ns3:cad>
          </ns3:TrackPointExtension>
        </extensions>
      </trkpt>
      <trkpt lat="52.127215079963207244873046875" lon="1.4496717788279056549072265625">
        <ele>41.799999237060546875</ele>
        <time>2025-09-06T08:54:33.000Z</time>
        <extensions>
          <ns3:TrackPointExtension>
            <ns3:hr>167</ns3:hr>
            <ns3:cad>78</ns3:cad>
          </ns3:TrackPointExtension>
        </extensions>
      </trkpt>
      <trkpt lat="52.12727107107639312744140625" lon="1.4496342279016971588134765625">
        <ele>40.40000152587890625</ele>
        <time>2025-09-06T08:54:36.000Z</time>
        <extensions>
          <ns3:TrackPointExtension>
            <ns3:hr>169</ns3:hr>
            <ns3:cad>79</ns3:cad>
          </ns3:TrackPointExtension>
        </extensions>
      </trkpt>
      <trkpt lat="52.12733619846403598785400390625" lon="1.44959089346230030059814453125">
        <ele>39.200000762939453125</ele>
        <time>2025-09-06T08:54:39.000Z</time>
        <extensions>
          <ns3:TrackPointExtension>
            <ns3:hr>171</ns3:hr>
            <ns3:cad>79</ns3:cad>
          </ns3:TrackPointExtension>
        </extensions>
      </trkpt>
      <trkpt lat="52.1274040080606937408447265625" lon="1.44955770112574100494384765625">
        <ele>38</ele>
        <time>2025-09-06T08:54:42.000Z</time>
        <extensions>
          <ns3:TrackPointExtension>
            <ns3:hr>172</ns3:hr>
            <ns3:cad>79</ns3:cad>
          </ns3:TrackPointExtension>
        </extensions>
      </trkpt>
      <trkpt lat="52.12742739357054233551025390625" lon="1.44954730756580829620361328125">
        <ele>37.59999847412109375</ele>
        <time>2025-09-06T08:54:43.000Z</time>
        <extensions>
          <ns3:TrackPointExtension>
            <ns3:hr>174</ns3:hr>
            <ns3:cad>79</ns3:cad>
          </ns3:TrackPointExtension>
        </extensions>
      </trkpt>
      <trkpt lat="52.1274740807712078094482421875" lon="1.44954076968133449554443359375">
        <ele>36.799999237060546875</ele>
        <time>2025-09-06T08:54:45.000Z</time>
        <extensions>
          <ns3:TrackPointExtension>
            <ns3:hr>172</ns3:hr>
            <ns3:cad>80</ns3:cad>
          </ns3:TrackPointExtension>
        </extensions>
      </trkpt>
      <trkpt lat="52.127545662224292755126953125" lon="1.449537836015224456787109375">
        <ele>35.59999847412109375</ele>
        <time>2025-09-06T08:54:48.000Z</time>
        <extensions>
          <ns3:TrackPointExtension>
            <ns3:hr>174</ns3:hr>
            <ns3:cad>80</ns3:cad>
          </ns3:TrackPointExtension>
        </extensions>
      </trkpt>
      <trkpt lat="52.12757206521928310394287109375" lon="1.4495359919965267181396484375">
        <ele>35.200000762939453125</ele>
        <time>2025-09-06T08:54:49.000Z</time>
        <extensions>
          <ns3:TrackPointExtension>
            <ns3:hr>171</ns3:hr>
            <ns3:cad>80</ns3:cad>
          </ns3:TrackPointExtension>
        </extensions>
      </trkpt>
      <trkpt lat="52.12761565111577510833740234375" lon="1.449529118835926055908203125">
        <ele>34.40000152587890625</ele>
        <time>2025-09-06T08:54:51.000Z</time>
        <extensions>
          <ns3:TrackPointExtension>
            <ns3:hr>172</ns3:hr>
            <ns3:cad>80</ns3:cad>
          </ns3:TrackPointExtension>
        </extensions>
      </trkpt>
      <trkpt lat="52.1276866458356380462646484375" lon="1.44953087903559207916259765625">
        <ele>33.40000152587890625</ele>
        <time>2025-09-06T08:54:54.000Z</time>
        <extensions>
          <ns3:TrackPointExtension>
            <ns3:hr>171</ns3:hr>
            <ns3:cad>80</ns3:cad>
          </ns3:TrackPointExtension>
        </extensions>
      </trkpt>
      <trkpt lat="52.1277583949267864227294921875" lon="1.449543535709381103515625">
        <ele>32.200000762939453125</ele>
        <time>2025-09-06T08:54:57.000Z</time>
        <extensions>
          <ns3:TrackPointExtension>
            <ns3:hr>170</ns3:hr>
            <ns3:cad>80</ns3:cad>
          </ns3:TrackPointExtension>
        </extensions>
      </trkpt>
      <trkpt lat="52.1278189122676849365234375" lon="1.449555940926074981689453125">
        <ele>31.200000762939453125</ele>
        <time>2025-09-06T08:55:00.000Z</time>
        <extensions>
          <ns3:TrackPointExtension>
            <ns3:hr>173</ns3:hr>
            <ns3:cad>81</ns3:cad>
          </ns3:TrackPointExtension>
        </extensions>
      </trkpt>
      <trkpt lat="52.127867527306079864501953125" lon="1.44956306554377079010009765625">
        <ele>30.200000762939453125</ele>
        <time>2025-09-06T08:55:03.000Z</time>
        <extensions>
          <ns3:TrackPointExtension>
            <ns3:hr>172</ns3:hr>
            <ns3:cad>79</ns3:cad>
          </ns3:TrackPointExtension>
        </extensions>
      </trkpt>
      <trkpt lat="52.12788387201726436614990234375" lon="1.4495648257434368133544921875">
        <ele>29.799999237060546875</ele>
        <time>2025-09-06T08:55:04.000Z</time>
        <extensions>
          <ns3:TrackPointExtension>
            <ns3:hr>171</ns3:hr>
            <ns3:cad>79</ns3:cad>
          </ns3:TrackPointExtension>
        </extensions>
      </trkpt>
      <trkpt lat="52.1279142983257770538330078125" lon="1.44957245327532291412353515625">
        <ele>29</ele>
        <time>2025-09-06T08:55:06.000Z</time>
        <extensions>
          <ns3:TrackPointExtension>
            <ns3:hr>171</ns3:hr>
            <ns3:cad>81</ns3:cad>
          </ns3:TrackPointExtension>
        </extensions>
      </trkpt>
      <trkpt lat="52.127980850636959075927734375" lon="1.4495836012065410614013671875">
        <ele>27.799999237060546875</ele>
        <time>2025-09-06T08:55:10.000Z</time>
        <extensions>
          <ns3:TrackPointExtension>
            <ns3:hr>172</ns3:hr>
            <ns3:cad>81</ns3:cad>
          </ns3:TrackPointExtension>
        </extensions>
      </trkpt>
      <trkpt lat="52.1279984526336193084716796875" lon="1.4495836012065410614013671875">
        <ele>27.3999996185302734375</ele>
        <time>2025-09-06T08:55:11.000Z</time>
        <extensions>
          <ns3:TrackPointExtension>
            <ns3:hr>173</ns3:hr>
            <ns3:cad>81</ns3:cad>
          </ns3:TrackPointExtension>
        </extensions>
      </trkpt>
      <trkpt lat="52.1280442178249359130859375" lon="1.4495742134749889373779296875">
        <ele>26.6000003814697265625</ele>
        <time>2025-09-06T08:55:14.000Z</time>
        <extensions>
          <ns3:TrackPointExtension>
            <ns3:hr>174</ns3:hr>
            <ns3:cad>81</ns3:cad>
          </ns3:TrackPointExtension>
        </extensions>
      </trkpt>
      <trkpt lat="52.12806022725999355316162109375" lon="1.44957345910370349884033203125">
        <ele>26.200000762939453125</ele>
        <time>2025-09-06T08:55:15.000Z</time>
        <extensions>
          <ns3:TrackPointExtension>
            <ns3:hr>171</ns3:hr>
            <ns3:cad>81</ns3:cad>
          </ns3:TrackPointExtension>
        </extensions>
      </trkpt>
      <trkpt lat="52.128080092370510101318359375" lon="1.4495716989040374755859375">
        <ele>26</ele>
        <time>2025-09-06T08:55:16.000Z</time>
        <extensions>
          <ns3:TrackPointExtension>
            <ns3:hr>174</ns3:hr>
            <ns3:cad>81</ns3:cad>
          </ns3:TrackPointExtension>
        </extensions>
      </trkpt>
      <trkpt lat="52.1280978620052337646484375" lon="1.44957178272306919097900390625">
        <ele>25.6000003814697265625</ele>
        <time>2025-09-06T08:55:17.000Z</time>
        <extensions>
          <ns3:TrackPointExtension>
            <ns3:hr>171</ns3:hr>
            <ns3:cad>81</ns3:cad>
          </ns3:TrackPointExtension>
        </extensions>
      </trkpt>
      <trkpt lat="52.128117643296718597412109375" lon="1.449576057493686676025390625">
        <ele>25.3999996185302734375</ele>
        <time>2025-09-06T08:55:18.000Z</time>
        <extensions>
          <ns3:TrackPointExtension>
            <ns3:hr>171</ns3:hr>
            <ns3:cad>81</ns3:cad>
          </ns3:TrackPointExtension>
        </extensions>
      </trkpt>
      <trkpt lat="52.1282016299664974212646484375" lon="1.449580080807209014892578125">
        <ele>24.200000762939453125</ele>
        <time>2025-09-06T08:55:22.000Z</time>
        <extensions>
          <ns3:TrackPointExtension>
            <ns3:hr>172</ns3:hr>
            <ns3:cad>81</ns3:cad>
          </ns3:TrackPointExtension>
        </extensions>
      </trkpt>
      <trkpt lat="52.12829433381557464599609375" lon="1.44958234392106533050537109375">
        <ele>23</ele>
        <time>2025-09-06T08:55:26.000Z</time>
        <extensions>
          <ns3:TrackPointExtension>
            <ns3:hr>173</ns3:hr>
            <ns3:cad>81</ns3:cad>
          </ns3:TrackPointExtension>
        </extensions>
      </trkpt>
      <trkpt lat="52.12831520475447177886962890625" lon="1.44958284683525562286376953125">
        <ele>22.799999237060546875</ele>
        <time>2025-09-06T08:55:27.000Z</time>
        <extensions>
          <ns3:TrackPointExtension>
            <ns3:hr>173</ns3:hr>
            <ns3:cad>81</ns3:cad>
          </ns3:TrackPointExtension>
        </extensions>
      </trkpt>
      <trkpt lat="52.12838259525597095489501953125" lon="1.4495842717587947845458984375">
        <ele>22</ele>
        <time>2025-09-06T08:55:30.000Z</time>
        <extensions>
          <ns3:TrackPointExtension>
            <ns3:hr>171</ns3:hr>
            <ns3:cad>81</ns3:cad>
          </ns3:TrackPointExtension>
        </extensions>
      </trkpt>
      <trkpt lat="52.1284735389053821563720703125" lon="1.4495876245200634002685546875">
        <ele>21</ele>
        <time>2025-09-06T08:55:34.000Z</time>
        <extensions>
          <ns3:TrackPointExtension>
            <ns3:hr>171</ns3:hr>
            <ns3:cad>80</ns3:cad>
          </ns3:TrackPointExtension>
        </extensions>
      </trkpt>
      <trkpt lat="52.12849642150104045867919921875" lon="1.44959156401455402374267578125">
        <ele>20.799999237060546875</ele>
        <time>2025-09-06T08:55:35.000Z</time>
        <extensions>
          <ns3:TrackPointExtension>
            <ns3:hr>171</ns3:hr>
            <ns3:cad>80</ns3:cad>
          </ns3:TrackPointExtension>
        </extensions>
      </trkpt>
      <trkpt lat="52.1285761334002017974853515625" lon="1.44964420236647129058837890625">
        <ele>19.799999237060546875</ele>
        <time>2025-09-06T08:55:39.000Z</time>
        <extensions>
          <ns3:TrackPointExtension>
            <ns3:hr>170</ns3:hr>
            <ns3:cad>80</ns3:cad>
          </ns3:TrackPointExtension>
        </extensions>
      </trkpt>
      <trkpt lat="52.128597758710384368896484375" lon="1.449705474078655242919921875">
        <ele>19.3999996185302734375</ele>
        <time>2025-09-06T08:55:41.000Z</time>
        <extensions>
          <ns3:TrackPointExtension>
            <ns3:hr>168</ns3:hr>
            <ns3:cad>79</ns3:cad>
          </ns3:TrackPointExtension>
        </extensions>
      </trkpt>
      <trkpt lat="52.1286006085574626922607421875" lon="1.44979507662355899810791015625">
        <ele>18.6000003814697265625</ele>
        <time>2025-09-06T08:55:44.000Z</time>
        <extensions>
          <ns3:TrackPointExtension>
            <ns3:hr>166</ns3:hr>
            <ns3:cad>78</ns3:cad>
          </ns3:TrackPointExtension>
        </extensions>
      </trkpt>
      <trkpt lat="52.1285835094749927520751953125" lon="1.44985844381153583526611328125">
        <ele>18.200000762939453125</ele>
        <time>2025-09-06T08:55:46.000Z</time>
        <extensions>
          <ns3:TrackPointExtension>
            <ns3:hr>171</ns3:hr>
            <ns3:cad>79</ns3:cad>
          </ns3:TrackPointExtension>
        </extensions>
      </trkpt>
      <trkpt lat="52.1285580284893512725830078125" lon="1.4499570988118648529052734375">
        <ele>17.6000003814697265625</ele>
        <time>2025-09-06T08:55:49.000Z</time>
        <extensions>
          <ns3:TrackPointExtension>
            <ns3:hr>169</ns3:hr>
            <ns3:cad>79</ns3:cad>
          </ns3:TrackPointExtension>
        </extensions>
      </trkpt>
      <trkpt lat="52.1285109221935272216796875" lon="1.45012347958981990814208984375">
        <ele>16.6000003814697265625</ele>
        <time>2025-09-06T08:55:54.000Z</time>
        <extensions>
          <ns3:TrackPointExtension>
            <ns3:hr>169</ns3:hr>
            <ns3:cad>80</ns3:cad>
          </ns3:TrackPointExtension>
        </extensions>
      </trkpt>
      <trkpt lat="52.12850312702357769012451171875" lon="1.45016186870634555816650390625">
        <ele>16.3999996185302734375</ele>
        <time>2025-09-06T08:55:55.000Z</time>
        <extensions>
          <ns3:TrackPointExtension>
            <ns3:hr>169</ns3:hr>
            <ns3:cad>80</ns3:cad>
          </ns3:TrackPointExtension>
        </extensions>
      </trkpt>
      <trkpt lat="52.1284614689648151397705078125" lon="1.45030871964991092681884765625">
        <ele>15.6000003814697265625</ele>
        <time>2025-09-06T08:55:59.000Z</time>
        <extensions>
          <ns3:TrackPointExtension>
            <ns3:hr>172</ns3:hr>
            <ns3:cad>80</ns3:cad>
          </ns3:TrackPointExtension>
        </extensions>
      </trkpt>
      <trkpt lat="52.12841226719319820404052734375" lon="1.4504392258822917938232421875">
        <ele>14.80000019073486328125</ele>
        <time>2025-09-06T08:56:03.000Z</time>
        <extensions>
          <ns3:TrackPointExtension>
            <ns3:hr>169</ns3:hr>
            <ns3:cad>78</ns3:cad>
          </ns3:TrackPointExtension>
        </extensions>
      </trkpt>
      <trkpt lat="52.12840120308101177215576171875" lon="1.45047266967594623565673828125">
        <ele>14.6000003814697265625</ele>
        <time>2025-09-06T08:56:04.000Z</time>
        <extensions>
          <ns3:TrackPointExtension>
            <ns3:hr>169</ns3:hr>
            <ns3:cad>78</ns3:cad>
          </ns3:TrackPointExtension>
        </extensions>
      </trkpt>
      <trkpt lat="52.12839131243526935577392578125" lon="1.4505056105554103851318359375">
        <ele>14.3999996185302734375</ele>
        <time>2025-09-06T08:56:05.000Z</time>
        <extensions>
          <ns3:TrackPointExtension>
            <ns3:hr>169</ns3:hr>
            <ns3:cad>79</ns3:cad>
          </ns3:TrackPointExtension>
        </extensions>
      </trkpt>
      <trkpt lat="52.12832459248602390289306640625" lon="1.450703926384449005126953125">
        <ele>13.19999980926513671875</ele>
        <time>2025-09-06T08:56:11.000Z</time>
        <extensions>
          <ns3:TrackPointExtension>
            <ns3:hr>169</ns3:hr>
            <ns3:cad>79</ns3:cad>
          </ns3:TrackPointExtension>
        </extensions>
      </trkpt>
      <trkpt lat="52.128285951912403106689453125" lon="1.45079185254871845245361328125">
        <ele>12.80000019073486328125</ele>
        <time>2025-09-06T08:56:14.000Z</time>
        <extensions>
          <ns3:TrackPointExtension>
            <ns3:hr>170</ns3:hr>
            <ns3:cad>80</ns3:cad>
          </ns3:TrackPointExtension>
        </extensions>
      </trkpt>
      <trkpt lat="52.1282421983778476715087890625" lon="1.45087215118110179901123046875">
        <ele>12.19999980926513671875</ele>
        <time>2025-09-06T08:56:17.000Z</time>
        <extensions>
          <ns3:TrackPointExtension>
            <ns3:hr>169</ns3:hr>
            <ns3:cad>80</ns3:cad>
          </ns3:TrackPointExtension>
        </extensions>
      </trkpt>
      <trkpt lat="52.12817958556115627288818359375" lon="1.451025120913982391357421875">
        <ele>11.19999980926513671875</ele>
        <time>2025-09-06T08:56:22.000Z</time>
        <extensions>
          <ns3:TrackPointExtension>
            <ns3:hr>169</ns3:hr>
            <ns3:cad>79</ns3:cad>
          </ns3:TrackPointExtension>
        </extensions>
      </trkpt>
      <trkpt lat="52.12817254476249217987060546875" lon="1.451056301593780517578125">
        <ele>11.19999980926513671875</ele>
        <time>2025-09-06T08:56:23.000Z</time>
        <extensions>
          <ns3:TrackPointExtension>
            <ns3:hr>169</ns3:hr>
            <ns3:cad>78</ns3:cad>
          </ns3:TrackPointExtension>
        </extensions>
      </trkpt>
      <trkpt lat="52.12814438156783580780029296875" lon="1.4511406235396862030029296875">
        <ele>10.6000003814697265625</ele>
        <time>2025-09-06T08:56:26.000Z</time>
        <extensions>
          <ns3:TrackPointExtension>
            <ns3:hr>170</ns3:hr>
            <ns3:cad>81</ns3:cad>
          </ns3:TrackPointExtension>
        </extensions>
      </trkpt>
      <trkpt lat="52.12812661193311214447021484375" lon="1.4512003026902675628662109375">
        <ele>10.3999996185302734375</ele>
        <time>2025-09-06T08:56:28.000Z</time>
        <extensions>
          <ns3:TrackPointExtension>
            <ns3:hr>171</ns3:hr>
            <ns3:cad>81</ns3:cad>
          </ns3:TrackPointExtension>
        </extensions>
      </trkpt>
      <trkpt lat="52.1281097643077373504638671875" lon="1.451262496411800384521484375">
        <ele>10</ele>
        <time>2025-09-06T08:56:30.000Z</time>
        <extensions>
          <ns3:TrackPointExtension>
            <ns3:hr>171</ns3:hr>
            <ns3:cad>80</ns3:cad>
          </ns3:TrackPointExtension>
        </extensions>
      </trkpt>
      <trkpt lat="52.12807238101959228515625" lon="1.45138344727456569671630859375">
        <ele>9.3999996185302734375</ele>
        <time>2025-09-06T08:56:34.000Z</time>
        <extensions>
          <ns3:TrackPointExtension>
            <ns3:hr>173</ns3:hr>
            <ns3:cad>80</ns3:cad>
          </ns3:TrackPointExtension>
        </extensions>
      </trkpt>
      <trkpt lat="52.12803994305431842803955078125" lon="1.451463997364044189453125">
        <ele>9</ele>
        <time>2025-09-06T08:56:37.000Z</time>
        <extensions>
          <ns3:TrackPointExtension>
            <ns3:hr>172</ns3:hr>
            <ns3:cad>79</ns3:cad>
          </ns3:TrackPointExtension>
        </extensions>
      </trkpt>
      <trkpt lat="52.127968780696392059326171875" lon="1.451642028987407684326171875">
        <ele>8</ele>
        <time>2025-09-06T08:56:43.000Z</time>
        <extensions>
          <ns3:TrackPointExtension>
            <ns3:hr>173</ns3:hr>
            <ns3:cad>80</ns3:cad>
          </ns3:TrackPointExtension>
        </extensions>
      </trkpt>
      <trkpt lat="52.12795813567936420440673828125" lon="1.45166977308690547943115234375">
        <ele>7.80000019073486328125</ele>
        <time>2025-09-06T08:56:44.000Z</time>
        <extensions>
          <ns3:TrackPointExtension>
            <ns3:hr>173</ns3:hr>
            <ns3:cad>80</ns3:cad>
          </ns3:TrackPointExtension>
        </extensions>
      </trkpt>
      <trkpt lat="52.1278750710189342498779296875" lon="1.45188468508422374725341796875">
        <ele>6.80000019073486328125</ele>
        <time>2025-09-06T08:56:52.000Z</time>
        <extensions>
          <ns3:TrackPointExtension>
            <ns3:hr>174</ns3:hr>
            <ns3:cad>79</ns3:cad>
          </ns3:TrackPointExtension>
        </extensions>
      </trkpt>
      <trkpt lat="52.12786509655416011810302734375" lon="1.45191527903079986572265625">
        <ele>6.599999904632568359375</ele>
        <time>2025-09-06T08:56:53.000Z</time>
        <extensions>
          <ns3:TrackPointExtension>
            <ns3:hr>174</ns3:hr>
            <ns3:cad>79</ns3:cad>
          </ns3:TrackPointExtension>
        </extensions>
      </trkpt>
      <trkpt lat="52.12779468856751918792724609375" lon="1.4521454460918903350830078125">
        <ele>5.80000019073486328125</ele>
        <time>2025-09-06T08:57:00.000Z</time>
        <extensions>
          <ns3:TrackPointExtension>
            <ns3:hr>172</ns3:hr>
            <ns3:cad>80</ns3:cad>
          </ns3:TrackPointExtension>
        </extensions>
      </trkpt>
      <trkpt lat="52.12776283733546733856201171875" lon="1.452235467731952667236328125">
        <ele>5.400000095367431640625</ele>
        <time>2025-09-06T08:57:03.000Z</time>
        <extensions>
          <ns3:TrackPointExtension>
            <ns3:hr>173</ns3:hr>
            <ns3:cad>79</ns3:cad>
          </ns3:TrackPointExtension>
        </extensions>
      </trkpt>
      <trkpt lat="52.12770902551710605621337890625" lon="1.4524314366281032562255859375">
        <ele>4.599999904632568359375</ele>
        <time>2025-09-06T08:57:09.000Z</time>
        <extensions>
          <ns3:TrackPointExtension>
            <ns3:hr>175</ns3:hr>
            <ns3:cad>79</ns3:cad>
          </ns3:TrackPointExtension>
        </extensions>
      </trkpt>
      <trkpt lat="52.12770114652812480926513671875" lon="1.4524642936885356903076171875">
        <ele>4.599999904632568359375</ele>
        <time>2025-09-06T08:57:10.000Z</time>
        <extensions>
          <ns3:TrackPointExtension>
            <ns3:hr>175</ns3:hr>
            <ns3:cad>79</ns3:cad>
          </ns3:TrackPointExtension>
        </extensions>
      </trkpt>
      <trkpt lat="52.12762654758989810943603515625" lon="1.45267702639102935791015625">
        <ele>3.599999904632568359375</ele>
        <time>2025-09-06T08:57:18.000Z</time>
        <extensions>
          <ns3:TrackPointExtension>
            <ns3:hr>177</ns3:hr>
            <ns3:cad>81</ns3:cad>
          </ns3:TrackPointExtension>
        </extensions>
      </trkpt>
      <trkpt lat="52.12759025394916534423828125" lon="1.4527851529419422149658203125">
        <ele>3.2000000476837158203125</ele>
        <time>2025-09-06T08:57:23.000Z</time>
        <extensions>
          <ns3:TrackPointExtension>
            <ns3:hr>176</ns3:hr>
            <ns3:cad>78</ns3:cad>
          </ns3:TrackPointExtension>
        </extensions>
      </trkpt>
      <trkpt lat="52.127540297806262969970703125" lon="1.45293627865612506866455078125">
        <ele>2.599999904632568359375</ele>
        <time>2025-09-06T08:57:28.000Z</time>
        <extensions>
          <ns3:TrackPointExtension>
            <ns3:hr>174</ns3:hr>
            <ns3:cad>78</ns3:cad>
          </ns3:TrackPointExtension>
        </extensions>
      </trkpt>
      <trkpt lat="52.12752294726669788360595703125" lon="1.45299889147281646728515625">
        <ele>2.400000095367431640625</ele>
        <time>2025-09-06T08:57:30.000Z</time>
        <extensions>
          <ns3:TrackPointExtension>
            <ns3:hr>174</ns3:hr>
            <ns3:cad>79</ns3:cad>
          </ns3:TrackPointExtension>
        </extensions>
      </trkpt>
      <trkpt lat="52.12745404802262783050537109375" lon="1.45316259004175662994384765625">
        <ele>1.7999999523162841796875</ele>
        <time>2025-09-06T08:57:36.000Z</time>
        <extensions>
          <ns3:TrackPointExtension>
            <ns3:hr>176</ns3:hr>
            <ns3:cad>79</ns3:cad>
          </ns3:TrackPointExtension>
        </extensions>
      </trkpt>
      <trkpt lat="52.1274271421134471893310546875" lon="1.4532471634447574615478515625">
        <ele>1.60000002384185791015625</ele>
        <time>2025-09-06T08:57:39.000Z</time>
        <extensions>
          <ns3:TrackPointExtension>
            <ns3:hr>176</ns3:hr>
            <ns3:cad>80</ns3:cad>
          </ns3:TrackPointExtension>
        </extensions>
      </trkpt>
      <trkpt lat="52.12739042937755584716796875" lon="1.4533645100891590118408203125">
        <ele>1.2000000476837158203125</ele>
        <time>2025-09-06T08:57:43.000Z</time>
        <extensions>
          <ns3:TrackPointExtension>
            <ns3:hr>175</ns3:hr>
            <ns3:cad>80</ns3:cad>
          </ns3:TrackPointExtension>
        </extensions>
      </trkpt>
      <trkpt lat="52.1273138187825679779052734375" lon="1.4535824395716190338134765625">
        <ele>0.60000002384185791015625</ele>
        <time>2025-09-06T08:57:50.000Z</time>
        <extensions>
          <ns3:TrackPointExtension>
            <ns3:hr>173</ns3:hr>
            <ns3:cad>79</ns3:cad>
          </ns3:TrackPointExtension>
        </extensions>
      </trkpt>
      <trkpt lat="52.1272886730730533599853515625" lon="1.45364823751151561737060546875">
        <ele>0.4000000059604644775390625</ele>
        <time>2025-09-06T08:57:52.000Z</time>
        <extensions>
          <ns3:TrackPointExtension>
            <ns3:hr>174</ns3:hr>
            <ns3:cad>79</ns3:cad>
          </ns3:TrackPointExtension>
        </extensions>
      </trkpt>
      <trkpt lat="52.12722304277122020721435546875" lon="1.4537839405238628387451171875">
        <ele>0.20000000298023223876953125</ele>
        <time>2025-09-06T08:57:57.000Z</time>
        <extensions>
          <ns3:TrackPointExtension>
            <ns3:hr>173</ns3:hr>
            <ns3:cad>79</ns3:cad>
          </ns3:TrackPointExtension>
        </extensions>
      </trkpt>
      <trkpt lat="52.12715305387973785400390625" lon="1.4540000259876251220703125">
        <ele>-0.4000000059604644775390625</ele>
        <time>2025-09-06T08:58:04.000Z</time>
        <extensions>
          <ns3:TrackPointExtension>
            <ns3:hr>173</ns3:hr>
            <ns3:cad>80</ns3:cad>
          </ns3:TrackPointExtension>
        </extensions>
      </trkpt>
      <trkpt lat="52.127127237617969512939453125" lon="1.45406783558428287506103515625">
        <ele>-0.60000002384185791015625</ele>
        <time>2025-09-06T08:58:06.000Z</time>
        <extensions>
          <ns3:TrackPointExtension>
            <ns3:hr>174</ns3:hr>
            <ns3:cad>80</ns3:cad>
          </ns3:TrackPointExtension>
        </extensions>
      </trkpt>
      <trkpt lat="52.12707837112247943878173828125" lon="1.45420898683369159698486328125">
        <ele>-1</ele>
        <time>2025-09-06T08:58:11.000Z</time>
        <extensions>
          <ns3:TrackPointExtension>
            <ns3:hr>173</ns3:hr>
            <ns3:cad>77</ns3:cad>
          </ns3:TrackPointExtension>
        </extensions>
      </trkpt>
      <trkpt lat="52.1270107291638851165771484375" lon="1.45441601984202861785888671875">
        <ele>-1.39999997615814208984375</ele>
        <time>2025-09-06T08:58:18.000Z</time>
        <extensions>
          <ns3:TrackPointExtension>
            <ns3:hr>173</ns3:hr>
            <ns3:cad>79</ns3:cad>
          </ns3:TrackPointExtension>
        </extensions>
      </trkpt>
      <trkpt lat="52.1269812248647212982177734375" lon="1.4544907025992870330810546875">
        <ele>-1.60000002384185791015625</ele>
        <time>2025-09-06T08:58:21.000Z</time>
        <extensions>
          <ns3:TrackPointExtension>
            <ns3:hr>173</ns3:hr>
            <ns3:cad>79</ns3:cad>
          </ns3:TrackPointExtension>
        </extensions>
      </trkpt>
      <trkpt lat="52.1269356273114681243896484375" lon="1.45466848276555538177490234375">
        <ele>-2</ele>
        <time>2025-09-06T08:58:26.000Z</time>
        <extensions>
          <ns3:TrackPointExtension>
            <ns3:hr>173</ns3:hr>
            <ns3:cad>79</ns3:cad>
          </ns3:TrackPointExtension>
        </extensions>
      </trkpt>
      <trkpt lat="52.12692179717123508453369140625" lon="1.4548561535775661468505859375">
        <ele>-2.400000095367431640625</ele>
        <time>2025-09-06T08:58:32.000Z</time>
        <extensions>
          <ns3:TrackPointExtension>
            <ns3:hr>172</ns3:hr>
            <ns3:cad>80</ns3:cad>
          </ns3:TrackPointExtension>
        </extensions>
      </trkpt>
      <trkpt lat="52.1269346214830875396728515625" lon="1.454992108047008514404296875">
        <ele>-2.599999904632568359375</ele>
        <time>2025-09-06T08:58:36.000Z</time>
        <extensions>
          <ns3:TrackPointExtension>
            <ns3:hr>173</ns3:hr>
            <ns3:cad>79</ns3:cad>
          </ns3:TrackPointExtension>
        </extensions>
      </trkpt>
      <trkpt lat="52.126949541270732879638671875" lon="1.45505639724433422088623046875">
        <ele>-2.7999999523162841796875</ele>
        <time>2025-09-06T08:58:38.000Z</time>
        <extensions>
          <ns3:TrackPointExtension>
            <ns3:hr>173</ns3:hr>
            <ns3:cad>79</ns3:cad>
          </ns3:TrackPointExtension>
        </extensions>
      </trkpt>
      <trkpt lat="52.12700427509844303131103515625" lon="1.45531455986201763153076171875">
        <ele>-3.2000000476837158203125</ele>
        <time>2025-09-06T08:58:46.000Z</time>
        <extensions>
          <ns3:TrackPointExtension>
            <ns3:hr>173</ns3:hr>
            <ns3:cad>78</ns3:cad>
          </ns3:TrackPointExtension>
        </extensions>
      </trkpt>
      <trkpt lat="52.12705138139426708221435546875" lon="1.45551555790007114410400390625">
        <ele>-3.599999904632568359375</ele>
        <time>2025-09-06T08:58:52.000Z</time>
        <extensions>
          <ns3:TrackPointExtension>
            <ns3:hr>173</ns3:hr>
            <ns3:cad>80</ns3:cad>
          </ns3:TrackPointExtension>
        </extensions>
      </trkpt>
      <trkpt lat="52.12705674581229686737060546875" lon="1.45555076189339160919189453125">
        <ele>-3.7999999523162841796875</ele>
        <time>2025-09-06T08:58:53.000Z</time>
        <extensions>
          <ns3:TrackPointExtension>
            <ns3:hr>173</ns3:hr>
            <ns3:cad>81</ns3:cad>
          </ns3:TrackPointExtension>
        </extensions>
      </trkpt>
      <trkpt lat="52.1270865015685558319091796875" lon="1.45572175271809101104736328125">
        <ele>-4</ele>
        <time>2025-09-06T08:58:58.000Z</time>
        <extensions>
          <ns3:TrackPointExtension>
            <ns3:hr>176</ns3:hr>
            <ns3:cad>81</ns3:cad>
          </ns3:TrackPointExtension>
        </extensions>
      </trkpt>
      <trkpt lat="52.1271052770316600799560546875" lon="1.4558123610913753509521484375">
        <ele>-4.19999980926513671875</ele>
        <time>2025-09-06T08:59:01.000Z</time>
        <extensions>
          <ns3:TrackPointExtension>
            <ns3:hr>176</ns3:hr>
            <ns3:cad>81</ns3:cad>
          </ns3:TrackPointExtension>
        </extensions>
      </trkpt>
      <trkpt lat="52.1271592564880847930908203125" lon="1.45606599748134613037109375">
        <ele>-4.80000019073486328125</ele>
        <time>2025-09-06T08:59:09.000Z</time>
        <extensions>
          <ns3:TrackPointExtension>
            <ns3:hr>175</ns3:hr>
            <ns3:cad>80</ns3:cad>
          </ns3:TrackPointExtension>
        </extensions>
      </trkpt>
      <trkpt lat="52.12719521485269069671630859375" lon="1.45621578209102153778076171875">
        <ele>-5</ele>
        <time>2025-09-06T08:59:14.000Z</time>
        <extensions>
          <ns3:TrackPointExtension>
            <ns3:hr>172</ns3:hr>
            <ns3:cad>80</ns3:cad>
          </ns3:TrackPointExtension>
        </extensions>
      </trkpt>
      <trkpt lat="52.12720912881195545196533203125" lon="1.456278227269649505615234375">
        <ele>-5</ele>
        <time>2025-09-06T08:59:16.000Z</time>
        <extensions>
          <ns3:TrackPointExtension>
            <ns3:hr>173</ns3:hr>
            <ns3:cad>80</ns3:cad>
          </ns3:TrackPointExtension>
        </extensions>
      </trkpt>
      <trkpt lat="52.127261348068714141845703125" lon="1.45657293498516082763671875">
        <ele>-5.599999904632568359375</ele>
        <time>2025-09-06T08:59:25.000Z</time>
        <extensions>
          <ns3:TrackPointExtension>
            <ns3:hr>175</ns3:hr>
            <ns3:cad>80</ns3:cad>
          </ns3:TrackPointExtension>
        </extensions>
      </trkpt>
      <trkpt lat="52.1272732503712177276611328125" lon="1.45667024888098239898681640625">
        <ele>-5.80000019073486328125</ele>
        <time>2025-09-06T08:59:28.000Z</time>
        <extensions>
          <ns3:TrackPointExtension>
            <ns3:hr>175</ns3:hr>
            <ns3:cad>79</ns3:cad>
          </ns3:TrackPointExtension>
        </extensions>
      </trkpt>
      <trkpt lat="52.12731993757188320159912109375" lon="1.45690561272203922271728515625">
        <ele>-6.19999980926513671875</ele>
        <time>2025-09-06T08:59:35.000Z</time>
        <extensions>
          <ns3:TrackPointExtension>
            <ns3:hr>175</ns3:hr>
            <ns3:cad>79</ns3:cad>
          </ns3:TrackPointExtension>
        </extensions>
      </trkpt>
      <trkpt lat="52.1273936145007610321044921875" lon="1.45714483223855495452880859375">
        <ele>-6.400000095367431640625</ele>
        <time>2025-09-06T08:59:43.000Z</time>
        <extensions>
          <ns3:TrackPointExtension>
            <ns3:hr>174</ns3:hr>
            <ns3:cad>79</ns3:cad>
          </ns3:TrackPointExtension>
        </extensions>
      </trkpt>
      <trkpt lat="52.12744650430977344512939453125" lon="1.45733191631734371185302734375">
        <ele>-6.80000019073486328125</ele>
        <time>2025-09-06T08:59:49.000Z</time>
        <extensions>
          <ns3:TrackPointExtension>
            <ns3:hr>173</ns3:hr>
            <ns3:cad>78</ns3:cad>
          </ns3:TrackPointExtension>
        </extensions>
      </trkpt>
      <trkpt lat="52.12745555676519870758056640625" lon="1.45736795850098133087158203125">
        <ele>-6.80000019073486328125</ele>
        <time>2025-09-06T08:59:50.000Z</time>
        <extensions>
          <ns3:TrackPointExtension>
            <ns3:hr>174</ns3:hr>
            <ns3:cad>78</ns3:cad>
          </ns3:TrackPointExtension>
        </extensions>
      </trkpt>
      <trkpt lat="52.12749042548239231109619140625" lon="1.45754464901983737945556640625">
        <ele>-7</ele>
        <time>2025-09-06T08:59:55.000Z</time>
        <extensions>
          <ns3:TrackPointExtension>
            <ns3:hr>171</ns3:hr>
            <ns3:cad>79</ns3:cad>
          </ns3:TrackPointExtension>
        </extensions>
      </trkpt>
      <trkpt lat="52.12750366888940334320068359375" lon="1.4576121233403682708740234375">
        <ele>-7.19999980926513671875</ele>
        <time>2025-09-06T08:59:57.000Z</time>
        <extensions>
          <ns3:TrackPointExtension>
            <ns3:hr>170</ns3:hr>
            <ns3:cad>79</ns3:cad>
          </ns3:TrackPointExtension>
        </extensions>
      </trkpt>
      <trkpt lat="52.1275694668292999267578125" lon="1.45792166702449321746826171875">
        <ele>-7.599999904632568359375</ele>
        <time>2025-09-06T09:00:06.000Z</time>
        <extensions>
          <ns3:TrackPointExtension>
            <ns3:hr>172</ns3:hr>
            <ns3:cad>80</ns3:cad>
          </ns3:TrackPointExtension>
        </extensions>
      </trkpt>
      <trkpt lat="52.1276045031845569610595703125" lon="1.45809215493500232696533203125">
        <ele>-7.80000019073486328125</ele>
        <time>2025-09-06T09:00:11.000Z</time>
        <extensions>
          <ns3:TrackPointExtension>
            <ns3:hr>173</ns3:hr>
            <ns3:cad>80</ns3:cad>
          </ns3:TrackPointExtension>
        </extensions>
      </trkpt>
      <trkpt lat="52.12762118317186832427978515625" lon="1.45815803669393062591552734375">
        <ele>-7.80000019073486328125</ele>
        <time>2025-09-06T09:00:13.000Z</time>
        <extensions>
          <ns3:TrackPointExtension>
            <ns3:hr>176</ns3:hr>
            <ns3:cad>79</ns3:cad>
          </ns3:TrackPointExtension>
        </extensions>
      </trkpt>
      <trkpt lat="52.1276279725134372711181640625" lon="1.45818988792598247528076171875">
        <ele>-8</ele>
        <time>2025-09-06T09:00:14.000Z</time>
        <extensions>
          <ns3:TrackPointExtension>
            <ns3:hr>175</ns3:hr>
            <ns3:cad>79</ns3:cad>
          </ns3:TrackPointExtension>
        </extensions>
      </trkpt>
      <trkpt lat="52.12765839882194995880126953125" lon="1.458328776061534881591796875">
        <ele>-8.19999980926513671875</ele>
        <time>2025-09-06T09:00:18.000Z</time>
        <extensions>
          <ns3:TrackPointExtension>
            <ns3:hr>178</ns3:hr>
            <ns3:cad>81</ns3:cad>
          </ns3:TrackPointExtension>
        </extensions>
      </trkpt>
      <trkpt lat="52.12767918594181537628173828125" lon="1.458432711660861968994140625">
        <ele>-8.19999980926513671875</ele>
        <time>2025-09-06T09:00:21.000Z</time>
        <extensions>
          <ns3:TrackPointExtension>
            <ns3:hr>177</ns3:hr>
            <ns3:cad>82</ns3:cad>
          </ns3:TrackPointExtension>
        </extensions>
      </trkpt>
      <trkpt lat="52.1277171559631824493408203125" lon="1.4587135054171085357666015625">
        <ele>-8.6000003814697265625</ele>
        <time>2025-09-06T09:00:29.000Z</time>
        <extensions>
          <ns3:TrackPointExtension>
            <ns3:hr>177</ns3:hr>
            <ns3:cad>81</ns3:cad>
          </ns3:TrackPointExtension>
        </extensions>
      </trkpt>
      <trkpt lat="52.127730734646320343017578125" lon="1.458787433803081512451171875">
        <ele>-8.80000019073486328125</ele>
        <time>2025-09-06T09:00:31.000Z</time>
        <extensions>
          <ns3:TrackPointExtension>
            <ns3:hr>173</ns3:hr>
            <ns3:cad>81</ns3:cad>
          </ns3:TrackPointExtension>
        </extensions>
      </trkpt>
      <trkpt lat="52.12774045765399932861328125" lon="1.4588655531406402587890625">
        <ele>-8.80000019073486328125</ele>
        <time>2025-09-06T09:00:33.000Z</time>
        <extensions>
          <ns3:TrackPointExtension>
            <ns3:hr>173</ns3:hr>
            <ns3:cad>80</ns3:cad>
          </ns3:TrackPointExtension>
        </extensions>
      </trkpt>
      <trkpt lat="52.12775680236518383026123046875" lon="1.45904190838336944580078125">
        <ele>-9</ele>
        <time>2025-09-06T09:00:38.000Z</time>
        <extensions>
          <ns3:TrackPointExtension>
            <ns3:hr>174</ns3:hr>
            <ns3:cad>80</ns3:cad>
          </ns3:TrackPointExtension>
        </extensions>
      </trkpt>
      <trkpt lat="52.12778211571276187896728515625" lon="1.4592885039746761322021484375">
        <ele>-9.3999996185302734375</ele>
        <time>2025-09-06T09:00:45.000Z</time>
        <extensions>
          <ns3:TrackPointExtension>
            <ns3:hr>173</ns3:hr>
            <ns3:cad>81</ns3:cad>
          </ns3:TrackPointExtension>
        </extensions>
      </trkpt>
      <trkpt lat="52.1278207562863826751708984375" lon="1.45959846675395965576171875">
        <ele>-9.80000019073486328125</ele>
        <time>2025-09-06T09:00:54.000Z</time>
        <extensions>
          <ns3:TrackPointExtension>
            <ns3:hr>171</ns3:hr>
            <ns3:cad>79</ns3:cad>
          </ns3:TrackPointExtension>
        </extensions>
      </trkpt>
      <trkpt lat="52.1278291381895542144775390625" lon="1.45963308401405811309814453125">
        <ele>-9.80000019073486328125</ele>
        <time>2025-09-06T09:00:55.000Z</time>
        <extensions>
          <ns3:TrackPointExtension>
            <ns3:hr>170</ns3:hr>
            <ns3:cad>79</ns3:cad>
          </ns3:TrackPointExtension>
        </extensions>
      </trkpt>
      <trkpt lat="52.12786962278187274932861328125" lon="1.45989057607948780059814453125">
        <ele>-10.19999980926513671875</ele>
        <time>2025-09-06T09:01:02.000Z</time>
        <extensions>
          <ns3:TrackPointExtension>
            <ns3:hr>170</ns3:hr>
            <ns3:cad>79</ns3:cad>
          </ns3:TrackPointExtension>
        </extensions>
      </trkpt>
      <trkpt lat="52.12790734134614467620849609375" lon="1.46017421968281269073486328125">
        <ele>-10.6000003814697265625</ele>
        <time>2025-09-06T09:01:10.000Z</time>
        <extensions>
          <ns3:TrackPointExtension>
            <ns3:hr>173</ns3:hr>
            <ns3:cad>79</ns3:cad>
          </ns3:TrackPointExtension>
        </extensions>
      </trkpt>
      <trkpt lat="52.12794003076851367950439453125" lon="1.46040178835391998291015625">
        <ele>-10.80000019073486328125</ele>
        <time>2025-09-06T09:01:17.000Z</time>
        <extensions>
          <ns3:TrackPointExtension>
            <ns3:hr>172</ns3:hr>
            <ns3:cad>78</ns3:cad>
          </ns3:TrackPointExtension>
        </extensions>
      </trkpt>
      <trkpt lat="52.127939276397228240966796875" lon="1.4604431949555873870849609375">
        <ele>-11</ele>
        <time>2025-09-06T09:01:20.000Z</time>
        <extensions>
          <ns3:TrackPointExtension>
            <ns3:hr>169</ns3:hr>
            <ns3:cad>76</ns3:cad>
          </ns3:TrackPointExtension>
        </extensions>
      </trkpt>
      <trkpt lat="52.1279407851397991180419921875" lon="1.460447050631046295166015625">
        <ele>-11.19999980926513671875</ele>
        <time>2025-09-06T09:01:23.000Z</time>
        <extensions>
          <ns3:TrackPointExtension>
            <ns3:hr>170</ns3:hr>
            <ns3:cad>0</ns3:cad>
          </ns3:TrackPointExtension>
        </extensions>
      </trkpt>
      <trkpt lat="52.127970792353153228759765625" lon="1.46043456159532070159912109375">
        <ele>-11.6000003814697265625</ele>
        <time>2025-09-06T09:01:34.000Z</time>
        <extensions>
          <ns3:TrackPointExtension>
            <ns3:hr>169</ns3:hr>
            <ns3:cad>0</ns3:cad>
          </ns3:TrackPointExtension>
        </extensions>
      </trkpt>
      <trkpt lat="52.1279759891331195831298828125" lon="1.46044470369815826416015625">
        <ele>-11.80000019073486328125</ele>
        <time>2025-09-06T09:01:40.000Z</time>
        <extensions>
          <ns3:TrackPointExtension>
            <ns3:hr>166</ns3:hr>
            <ns3:cad>0</ns3:cad>
          </ns3:TrackPointExtension>
        </extensions>
      </trkpt>
      <trkpt lat="52.12797841988503932952880859375" lon="1.4604448713362216949462890625">
        <ele>-12</ele>
        <time>2025-09-06T09:01:42.000Z</time>
        <extensions>
          <ns3:TrackPointExtension>
            <ns3:hr>163</ns3:hr>
            <ns3:cad>0</ns3:cad>
          </ns3:TrackPointExtension>
        </extensions>
      </trkpt>
      <trkpt lat="52.12798319756984710693359375" lon="1.46044143475592136383056640625">
        <ele>-12.19999980926513671875</ele>
        <time>2025-09-06T09:01:47.000Z</time>
        <extensions>
          <ns3:TrackPointExtension>
            <ns3:hr>162</ns3:hr>
            <ns3:cad>0</ns3:cad>
          </ns3:TrackPointExtension>
        </extensions>
      </trkpt>
      <trkpt lat="52.12795126251876354217529296875" lon="1.46045333705842494964599609375">
        <ele>-12.3999996185302734375</ele>
        <time>2025-09-06T09:01:55.000Z</time>
        <extensions>
          <ns3:TrackPointExtension>
            <ns3:hr>159</ns3:hr>
            <ns3:cad>52</ns3:cad>
          </ns3:TrackPointExtension>
        </extensions>
      </trkpt>
      <trkpt lat="52.127945981919765472412109375" lon="1.4604569412767887115478515625">
        <ele>-12.3999996185302734375</ele>
        <time>2025-09-06T09:01:56.000Z</time>
        <extensions>
          <ns3:TrackPointExtension>
            <ns3:hr>157</ns3:hr>
            <ns3:cad>52</ns3:cad>
          </ns3:TrackPointExtension>
        </extensions>
      </trkpt>
      <trkpt lat="52.12783374823629856109619140625" lon="1.46050999872386455535888671875">
        <ele>-12.6000003814697265625</ele>
        <time>2025-09-06T09:02:03.000Z</time>
        <extensions>
          <ns3:TrackPointExtension>
            <ns3:hr>158</ns3:hr>
            <ns3:cad>80</ns3:cad>
          </ns3:TrackPointExtension>
        </extensions>
      </trkpt>
      <trkpt lat="52.12778563611209392547607421875" lon="1.4605256728827953338623046875">
        <ele>-12.80000019073486328125</ele>
        <time>2025-09-06T09:02:05.000Z</time>
        <extensions>
          <ns3:TrackPointExtension>
            <ns3:hr>161</ns3:hr>
            <ns3:cad>81</ns3:cad>
          </ns3:TrackPointExtension>
        </extensions>
      </trkpt>
      <trkpt lat="52.1277003921568393707275390625" lon="1.46055157296359539031982421875">
        <ele>-12.80000019073486328125</ele>
        <time>2025-09-06T09:02:09.000Z</time>
        <extensions>
          <ns3:TrackPointExtension>
            <ns3:hr>164</ns3:hr>
            <ns3:cad>81</ns3:cad>
          </ns3:TrackPointExtension>
        </extensions>
      </trkpt>
      <trkpt lat="52.1276836283504962921142578125" lon="1.4605508185923099517822265625">
        <ele>-12.80000019073486328125</ele>
        <time>2025-09-06T09:02:10.000Z</time>
        <extensions>
          <ns3:TrackPointExtension>
            <ns3:hr>165</ns3:hr>
            <ns3:cad>81</ns3:cad>
          </ns3:TrackPointExtension>
        </extensions>
      </trkpt>
      <trkpt lat="52.1276524476706981658935546875" lon="1.46055391989648342132568359375">
        <ele>-12.80000019073486328125</ele>
        <time>2025-09-06T09:02:12.000Z</time>
        <extensions>
          <ns3:TrackPointExtension>
            <ns3:hr>166</ns3:hr>
            <ns3:cad>41</ns3:cad>
          </ns3:TrackPointExtension>
        </extensions>
      </trkpt>
      <trkpt lat="52.12757952511310577392578125" lon="1.46059490740299224853515625">
        <ele>-13</ele>
        <time>2025-09-06T09:02:17.000Z</time>
        <extensions>
          <ns3:TrackPointExtension>
            <ns3:hr>167</ns3:hr>
            <ns3:cad>41</ns3:cad>
          </ns3:TrackPointExtension>
        </extensions>
      </trkpt>
      <trkpt lat="52.12745086289942264556884765625" lon="1.460637152194976806640625">
        <ele>-13</ele>
        <time>2025-09-06T09:02:23.000Z</time>
        <extensions>
          <ns3:TrackPointExtension>
            <ns3:hr>167</ns3:hr>
            <ns3:cad>80</ns3:cad>
          </ns3:TrackPointExtension>
        </extensions>
      </trkpt>
      <trkpt lat="52.12731272913515567779541015625" lon="1.4607050456106662750244140625">
        <ele>-13.19999980926513671875</ele>
        <time>2025-09-06T09:02:30.000Z</time>
        <extensions>
          <ns3:TrackPointExtension>
            <ns3:hr>167</ns3:hr>
            <ns3:cad>82</ns3:cad>
          </ns3:TrackPointExtension>
        </extensions>
      </trkpt>
      <trkpt lat="52.12723243050277233123779296875" lon="1.46075475029647350311279296875">
        <ele>-13.6000003814697265625</ele>
        <time>2025-09-06T09:02:34.000Z</time>
        <extensions>
          <ns3:TrackPointExtension>
            <ns3:hr>170</ns3:hr>
            <ns3:cad>83</ns3:cad>
          </ns3:TrackPointExtension>
        </extensions>
      </trkpt>
      <trkpt lat="52.127143330872058868408203125" lon="1.46079733036458492279052734375">
        <ele>-14</ele>
        <time>2025-09-06T09:02:38.000Z</time>
        <extensions>
          <ns3:TrackPointExtension>
            <ns3:hr>173</ns3:hr>
            <ns3:cad>83</ns3:cad>
          </ns3:TrackPointExtension>
        </extensions>
      </trkpt>
      <trkpt lat="52.12703797034919261932373046875" lon="1.46083806641399860382080078125">
        <ele>-15.19999980926513671875</ele>
        <time>2025-09-06T09:02:43.000Z</time>
        <extensions>
          <ns3:TrackPointExtension>
            <ns3:hr>172</ns3:hr>
            <ns3:cad>82</ns3:cad>
          </ns3:TrackPointExtension>
        </extensions>
      </trkpt>
      <trkpt lat="52.127017937600612640380859375" lon="1.460841335356235504150390625">
        <ele>-15.6000003814697265625</ele>
        <time>2025-09-06T09:02:44.000Z</time>
        <extensions>
          <ns3:TrackPointExtension>
            <ns3:hr>172</ns3:hr>
            <ns3:cad>82</ns3:cad>
          </ns3:TrackPointExtension>
        </extensions>
      </trkpt>
      <trkpt lat="52.12695163674652576446533203125" lon="1.46085768006742000579833984375">
        <ele>-16.3999996185302734375</ele>
        <time>2025-09-06T09:02:47.000Z</time>
        <extensions>
          <ns3:TrackPointExtension>
            <ns3:hr>173</ns3:hr>
            <ns3:cad>81</ns3:cad>
          </ns3:TrackPointExtension>
        </extensions>
      </trkpt>
      <trkpt lat="52.1268632076680660247802734375" lon="1.46089875139296054840087890625">
        <ele>-17.6000003814697265625</ele>
        <time>2025-09-06T09:02:51.000Z</time>
        <extensions>
          <ns3:TrackPointExtension>
            <ns3:hr>173</ns3:hr>
            <ns3:cad>82</ns3:cad>
          </ns3:TrackPointExtension>
        </extensions>
      </trkpt>
      <trkpt lat="52.12682037614285945892333984375" lon="1.46091266535222530364990234375">
        <ele>-18.200000762939453125</ele>
        <time>2025-09-06T09:02:53.000Z</time>
        <extensions>
          <ns3:TrackPointExtension>
            <ns3:hr>175</ns3:hr>
            <ns3:cad>83</ns3:cad>
          </ns3:TrackPointExtension>
        </extensions>
      </trkpt>
      <trkpt lat="52.12678316049277782440185546875" lon="1.46091249771416187286376953125">
        <ele>-18.6000003814697265625</ele>
        <time>2025-09-06T09:02:55.000Z</time>
        <extensions>
          <ns3:TrackPointExtension>
            <ns3:hr>173</ns3:hr>
            <ns3:cad>82</ns3:cad>
          </ns3:TrackPointExtension>
        </extensions>
      </trkpt>
      <trkpt lat="52.12670772336423397064208984375" lon="1.46094853989779949188232421875">
        <ele>-19.799999237060546875</ele>
        <time>2025-09-06T09:02:59.000Z</time>
        <extensions>
          <ns3:TrackPointExtension>
            <ns3:hr>173</ns3:hr>
            <ns3:cad>82</ns3:cad>
          </ns3:TrackPointExtension>
        </extensions>
      </trkpt>
      <trkpt lat="52.12668634951114654541015625" lon="1.46095700562000274658203125">
        <ele>-20</ele>
        <time>2025-09-06T09:03:00.000Z</time>
        <extensions>
          <ns3:TrackPointExtension>
            <ns3:hr>173</ns3:hr>
            <ns3:cad>82</ns3:cad>
          </ns3:TrackPointExtension>
        </extensions>
      </trkpt>
      <trkpt lat="52.1266154386103153228759765625" lon="1.460975445806980133056640625">
        <ele>-21</ele>
        <time>2025-09-06T09:03:03.000Z</time>
        <extensions>
          <ns3:TrackPointExtension>
            <ns3:hr>171</ns3:hr>
            <ns3:cad>81</ns3:cad>
          </ns3:TrackPointExtension>
        </extensions>
      </trkpt>
      <trkpt lat="52.12654779665172100067138671875" lon="1.46098894067108631134033203125">
        <ele>-22.200000762939453125</ele>
        <time>2025-09-06T09:03:06.000Z</time>
        <extensions>
          <ns3:TrackPointExtension>
            <ns3:hr>171</ns3:hr>
            <ns3:cad>81</ns3:cad>
          </ns3:TrackPointExtension>
        </extensions>
      </trkpt>
      <trkpt lat="52.126500271260738372802734375" lon="1.460994221270084381103515625">
        <ele>-22.799999237060546875</ele>
        <time>2025-09-06T09:03:08.000Z</time>
        <extensions>
          <ns3:TrackPointExtension>
            <ns3:hr>172</ns3:hr>
            <ns3:cad>80</ns3:cad>
          </ns3:TrackPointExtension>
        </extensions>
      </trkpt>
      <trkpt lat="52.12647914886474609375" lon="1.461000256240367889404296875">
        <ele>-23.200000762939453125</ele>
        <time>2025-09-06T09:03:09.000Z</time>
        <extensions>
          <ns3:TrackPointExtension>
            <ns3:hr>170</ns3:hr>
            <ns3:cad>81</ns3:cad>
          </ns3:TrackPointExtension>
        </extensions>
      </trkpt>
      <trkpt lat="52.1264139376580715179443359375" lon="1.46101961843669414520263671875">
        <ele>-24.3999996185302734375</ele>
        <time>2025-09-06T09:03:12.000Z</time>
        <extensions>
          <ns3:TrackPointExtension>
            <ns3:hr>169</ns3:hr>
            <ns3:cad>80</ns3:cad>
          </ns3:TrackPointExtension>
        </extensions>
      </trkpt>
      <trkpt lat="52.1263458766043186187744140625" lon="1.4610413275659084320068359375">
        <ele>-25.6000003814697265625</ele>
        <time>2025-09-06T09:03:15.000Z</time>
        <extensions>
          <ns3:TrackPointExtension>
            <ns3:hr>168</ns3:hr>
            <ns3:cad>80</ns3:cad>
          </ns3:TrackPointExtension>
        </extensions>
      </trkpt>
      <trkpt lat="52.12632559239864349365234375" lon="1.46104694344103336334228515625">
        <ele>-26</ele>
        <time>2025-09-06T09:03:16.000Z</time>
        <extensions>
          <ns3:TrackPointExtension>
            <ns3:hr>168</ns3:hr>
            <ns3:cad>80</ns3:cad>
          </ns3:TrackPointExtension>
        </extensions>
      </trkpt>
      <trkpt lat="52.126278989017009735107421875" lon="1.4610607735812664031982421875">
        <ele>-26.799999237060546875</ele>
        <time>2025-09-06T09:03:18.000Z</time>
        <extensions>
          <ns3:TrackPointExtension>
            <ns3:hr>168</ns3:hr>
            <ns3:cad>80</ns3:cad>
          </ns3:TrackPointExtension>
        </extensions>
      </trkpt>
      <trkpt lat="52.12620832957327365875244140625" lon="1.4610617794096469879150390625">
        <ele>-28.200000762939453125</ele>
        <time>2025-09-06T09:03:21.000Z</time>
        <extensions>
          <ns3:TrackPointExtension>
            <ns3:hr>168</ns3:hr>
            <ns3:cad>80</ns3:cad>
          </ns3:TrackPointExtension>
        </extensions>
      </trkpt>
      <trkpt lat="52.12616390548646450042724609375" lon="1.46106219850480556488037109375">
        <ele>-29</ele>
        <time>2025-09-06T09:03:23.000Z</time>
        <extensions>
          <ns3:TrackPointExtension>
            <ns3:hr>169</ns3:hr>
            <ns3:cad>81</ns3:cad>
          </ns3:TrackPointExtension>
        </extensions>
      </trkpt>
      <trkpt lat="52.1261425316333770751953125" lon="1.46106370724737644195556640625">
        <ele>-29.3999996185302734375</ele>
        <time>2025-09-06T09:03:24.000Z</time>
        <extensions>
          <ns3:TrackPointExtension>
            <ns3:hr>170</ns3:hr>
            <ns3:cad>81</ns3:cad>
          </ns3:TrackPointExtension>
        </extensions>
      </trkpt>
      <trkpt lat="52.1260793320834636688232421875" lon="1.4610936306416988372802734375">
        <ele>-30.6000003814697265625</ele>
        <time>2025-09-06T09:03:27.000Z</time>
        <extensions>
          <ns3:TrackPointExtension>
            <ns3:hr>170</ns3:hr>
            <ns3:cad>81</ns3:cad>
          </ns3:TrackPointExtension>
        </extensions>
      </trkpt>
      <trkpt lat="52.12601990438997745513916015625" lon="1.4611033536493778228759765625">
        <ele>-31.799999237060546875</ele>
        <time>2025-09-06T09:03:30.000Z</time>
        <extensions>
          <ns3:TrackPointExtension>
            <ns3:hr>169</ns3:hr>
            <ns3:cad>81</ns3:cad>
          </ns3:TrackPointExtension>
        </extensions>
      </trkpt>
      <trkpt lat="52.12600146420300006866455078125" lon="1.46110142581164836883544921875">
        <ele>-32.200000762939453125</ele>
        <time>2025-09-06T09:03:31.000Z</time>
        <extensions>
          <ns3:TrackPointExtension>
            <ns3:hr>169</ns3:hr>
            <ns3:cad>80</ns3:cad>
          </ns3:TrackPointExtension>
        </extensions>
      </trkpt>
      <trkpt lat="52.1259616501629352569580078125" lon="1.4610958099365234375">
        <ele>-32.799999237060546875</ele>
        <time>2025-09-06T09:03:33.000Z</time>
        <extensions>
          <ns3:TrackPointExtension>
            <ns3:hr>171</ns3:hr>
            <ns3:cad>80</ns3:cad>
          </ns3:TrackPointExtension>
        </extensions>
      </trkpt>
      <trkpt lat="52.12589702568948268890380859375" lon="1.46112690679728984832763671875">
        <ele>-34</ele>
        <time>2025-09-06T09:03:36.000Z</time>
        <extensions>
          <ns3:TrackPointExtension>
            <ns3:hr>171</ns3:hr>
            <ns3:cad>81</ns3:cad>
          </ns3:TrackPointExtension>
        </extensions>
      </trkpt>
      <trkpt lat="52.12585394270718097686767578125" lon="1.46114668808877468109130859375">
        <ele>-34.59999847412109375</ele>
        <time>2025-09-06T09:03:38.000Z</time>
        <extensions>
          <ns3:TrackPointExtension>
            <ns3:hr>170</ns3:hr>
            <ns3:cad>82</ns3:cad>
          </ns3:TrackPointExtension>
        </extensions>
      </trkpt>
      <trkpt lat="52.1258313953876495361328125" lon="1.4611586742103099822998046875">
        <ele>-35</ele>
        <time>2025-09-06T09:03:39.000Z</time>
        <extensions>
          <ns3:TrackPointExtension>
            <ns3:hr>170</ns3:hr>
            <ns3:cad>82</ns3:cad>
          </ns3:TrackPointExtension>
        </extensions>
      </trkpt>
      <trkpt lat="52.12574246339499950408935546875" lon="1.461180634796619415283203125">
        <ele>-36.200000762939453125</ele>
        <time>2025-09-06T09:03:43.000Z</time>
        <extensions>
          <ns3:TrackPointExtension>
            <ns3:hr>172</ns3:hr>
            <ns3:cad>82</ns3:cad>
          </ns3:TrackPointExtension>
        </extensions>
      </trkpt>
      <trkpt lat="52.125677503645420074462890625" lon="1.46118340082466602325439453125">
        <ele>-37.200000762939453125</ele>
        <time>2025-09-06T09:03:46.000Z</time>
        <extensions>
          <ns3:TrackPointExtension>
            <ns3:hr>170</ns3:hr>
            <ns3:cad>82</ns3:cad>
          </ns3:TrackPointExtension>
        </extensions>
      </trkpt>
      <trkpt lat="52.12565612979233264923095703125" lon="1.46118222735822200775146484375">
        <ele>-37.40000152587890625</ele>
        <time>2025-09-06T09:03:47.000Z</time>
        <extensions>
          <ns3:TrackPointExtension>
            <ns3:hr>170</ns3:hr>
            <ns3:cad>82</ns3:cad>
          </ns3:TrackPointExtension>
        </extensions>
      </trkpt>
      <trkpt lat="52.12557767517864704132080078125" lon="1.46118541248142719268798828125">
        <ele>-38.59999847412109375</ele>
        <time>2025-09-06T09:03:51.000Z</time>
        <extensions>
          <ns3:TrackPointExtension>
            <ns3:hr>173</ns3:hr>
            <ns3:cad>82</ns3:cad>
          </ns3:TrackPointExtension>
        </extensions>
      </trkpt>
      <trkpt lat="52.12548815645277500152587890625" lon="1.46119329147040843963623046875">
        <ele>-39.59999847412109375</ele>
        <time>2025-09-06T09:03:55.000Z</time>
        <extensions>
          <ns3:TrackPointExtension>
            <ns3:hr>173</ns3:hr>
            <ns3:cad>82</ns3:cad>
          </ns3:TrackPointExtension>
        </extensions>
      </trkpt>
      <trkpt lat="52.1254657767713069915771484375" lon="1.46119111217558383941650390625">
        <ele>-39.799999237060546875</ele>
        <time>2025-09-06T09:03:56.000Z</time>
        <extensions>
          <ns3:TrackPointExtension>
            <ns3:hr>173</ns3:hr>
            <ns3:cad>82</ns3:cad>
          </ns3:TrackPointExtension>
        </extensions>
      </trkpt>
      <trkpt lat="52.12535329163074493408203125" lon="1.46116026677191257476806640625">
        <ele>-41</ele>
        <time>2025-09-06T09:04:01.000Z</time>
        <extensions>
          <ns3:TrackPointExtension>
            <ns3:hr>173</ns3:hr>
            <ns3:cad>81</ns3:cad>
          </ns3:TrackPointExtension>
        </extensions>
      </trkpt>
      <trkpt lat="52.12531280703842639923095703125" lon="1.46115557290613651275634765625">
        <ele>-41.40000152587890625</ele>
        <time>2025-09-06T09:04:03.000Z</time>
        <extensions>
          <ns3:TrackPointExtension>
            <ns3:hr>171</ns3:hr>
            <ns3:cad>81</ns3:cad>
          </ns3:TrackPointExtension>
        </extensions>
      </trkpt>
      <trkpt lat="52.1252669580280780792236328125" lon="1.461157165467739105224609375">
        <ele>-42</ele>
        <time>2025-09-06T09:04:06.000Z</time>
        <extensions>
          <ns3:TrackPointExtension>
            <ns3:hr>172</ns3:hr>
            <ns3:cad>80</ns3:cad>
          </ns3:TrackPointExtension>
        </extensions>
      </trkpt>
      <trkpt lat="52.12522362358868122100830078125" lon="1.461178623139858245849609375">
        <ele>-42.799999237060546875</ele>
        <time>2025-09-06T09:04:10.000Z</time>
        <extensions>
          <ns3:TrackPointExtension>
            <ns3:hr>173</ns3:hr>
            <ns3:cad>0</ns3:cad>
          </ns3:TrackPointExtension>
        </extensions>
      </trkpt>
      <trkpt lat="52.12521306239068508148193359375" lon="1.46118356846272945404052734375">
        <ele>-43.200000762939453125</ele>
        <time>2025-09-06T09:04:12.000Z</time>
        <extensions>
          <ns3:TrackPointExtension>
            <ns3:hr>171</ns3:hr>
            <ns3:cad>0</ns3:cad>
          </ns3:TrackPointExtension>
        </extensions>
      </trkpt>
      <trkpt lat="52.12518657557666301727294921875" lon="1.461230926215648651123046875">
        <ele>-43.59999847412109375</ele>
        <time>2025-09-06T09:04:19.000Z</time>
        <extensions>
          <ns3:TrackPointExtension>
            <ns3:hr>170</ns3:hr>
            <ns3:cad>0</ns3:cad>
          </ns3:TrackPointExtension>
        </extensions>
      </trkpt>
      <trkpt lat="52.12517132051289081573486328125" lon="1.46128834225237369537353515625">
        <ele>-43.59999847412109375</ele>
        <time>2025-09-06T09:04:22.000Z</time>
        <extensions>
          <ns3:TrackPointExtension>
            <ns3:hr>167</ns3:hr>
            <ns3:cad>56</ns3:cad>
          </ns3:TrackPointExtension>
        </extensions>
      </trkpt>
      <trkpt lat="52.12516880594193935394287109375" lon="1.46130510605871677398681640625">
        <ele>-43.59999847412109375</ele>
        <time>2025-09-06T09:04:23.000Z</time>
        <extensions>
          <ns3:TrackPointExtension>
            <ns3:hr>164</ns3:hr>
            <ns3:cad>56</ns3:cad>
          </ns3:TrackPointExtension>
        </extensions>
      </trkpt>
      <trkpt lat="52.125159837305545806884765625" lon="1.4613531343638896942138671875">
        <ele>-43.59999847412109375</ele>
        <time>2025-09-06T09:04:25.000Z</time>
        <extensions>
          <ns3:TrackPointExtension>
            <ns3:hr>161</ns3:hr>
            <ns3:cad>55</ns3:cad>
          </ns3:TrackPointExtension>
        </extensions>
      </trkpt>
      <trkpt lat="52.12514047510921955108642578125" lon="1.461414657533168792724609375">
        <ele>-43.40000152587890625</ele>
        <time>2025-09-06T09:04:28.000Z</time>
        <extensions>
          <ns3:TrackPointExtension>
            <ns3:hr>158</ns3:hr>
            <ns3:cad>53</ns3:cad>
          </ns3:TrackPointExtension>
        </extensions>
      </trkpt>
      <trkpt lat="52.12512664496898651123046875" lon="1.46147333085536956787109375">
        <ele>-43.200000762939453125</ele>
        <time>2025-09-06T09:04:30.000Z</time>
        <extensions>
          <ns3:TrackPointExtension>
            <ns3:hr>159</ns3:hr>
            <ns3:cad>58</ns3:cad>
          </ns3:TrackPointExtension>
        </extensions>
      </trkpt>
      <trkpt lat="52.12505548261106014251708984375" lon="1.46172101609408855438232421875">
        <ele>-42.200000762939453125</ele>
        <time>2025-09-06T09:04:38.000Z</time>
        <extensions>
          <ns3:TrackPointExtension>
            <ns3:hr>156</ns3:hr>
            <ns3:cad>78</ns3:cad>
          </ns3:TrackPointExtension>
        </extensions>
      </trkpt>
      <trkpt lat="52.12503268383443355560302734375" lon="1.46178756840527057647705078125">
        <ele>-42</ele>
        <time>2025-09-06T09:04:40.000Z</time>
        <extensions>
          <ns3:TrackPointExtension>
            <ns3:hr>157</ns3:hr>
            <ns3:cad>79</ns3:cad>
          </ns3:TrackPointExtension>
        </extensions>
      </trkpt>
      <trkpt lat="52.125004939734935760498046875" lon="1.46188102662563323974609375">
        <ele>-41.799999237060546875</ele>
        <time>2025-09-06T09:04:43.000Z</time>
        <extensions>
          <ns3:TrackPointExtension>
            <ns3:hr>161</ns3:hr>
            <ns3:cad>79</ns3:cad>
          </ns3:TrackPointExtension>
        </extensions>
      </trkpt>
      <trkpt lat="52.1249953843653202056884765625" lon="1.46191195584833621978759765625">
        <ele>-41.799999237060546875</ele>
        <time>2025-09-06T09:04:44.000Z</time>
        <extensions>
          <ns3:TrackPointExtension>
            <ns3:hr>164</ns3:hr>
            <ns3:cad>79</ns3:cad>
          </ns3:TrackPointExtension>
        </extensions>
      </trkpt>
      <trkpt lat="52.12497920729219913482666015625" lon="1.4619717188179492950439453125">
        <ele>-41.799999237060546875</ele>
        <time>2025-09-06T09:04:46.000Z</time>
        <extensions>
          <ns3:TrackPointExtension>
            <ns3:hr>168</ns3:hr>
            <ns3:cad>80</ns3:cad>
          </ns3:TrackPointExtension>
        </extensions>
      </trkpt>
      <trkpt lat="52.12495791725814342498779296875" lon="1.46205159835517406463623046875">
        <ele>-41.799999237060546875</ele>
        <time>2025-09-06T09:04:48.000Z</time>
        <extensions>
          <ns3:TrackPointExtension>
            <ns3:hr>171</ns3:hr>
            <ns3:cad>80</ns3:cad>
          </ns3:TrackPointExtension>
        </extensions>
      </trkpt>
      <trkpt lat="52.12493042461574077606201171875" lon="1.46213441155850887298583984375">
        <ele>-41.799999237060546875</ele>
        <time>2025-09-06T09:04:52.000Z</time>
        <extensions>
          <ns3:TrackPointExtension>
            <ns3:hr>173</ns3:hr>
            <ns3:cad>78</ns3:cad>
          </ns3:TrackPointExtension>
        </extensions>
      </trkpt>
      <trkpt lat="52.12492455728352069854736328125" lon="1.4621339924633502960205078125">
        <ele>-42.200000762939453125</ele>
        <time>2025-09-06T09:04:57.000Z</time>
        <extensions>
          <ns3:TrackPointExtension>
            <ns3:hr>177</ns3:hr>
            <ns3:cad>0</ns3:cad>
          </ns3:TrackPointExtension>
        </extensions>
      </trkpt>
      <trkpt lat="52.12491902522742748260498046875" lon="1.4621517620980739593505859375">
        <ele>-43.200000762939453125</ele>
        <time>2025-09-06T09:05:01.000Z</time>
        <extensions>
          <ns3:TrackPointExtension>
            <ns3:hr>177</ns3:hr>
            <ns3:cad>0</ns3:cad>
          </ns3:TrackPointExtension>
        </extensions>
      </trkpt>
      <trkpt lat="52.12491097860038280487060546875" lon="1.46216978318989276885986328125">
        <ele>-43.40000152587890625</ele>
        <time>2025-09-06T09:05:02.000Z</time>
        <extensions>
          <ns3:TrackPointExtension>
            <ns3:hr>178</ns3:hr>
            <ns3:cad>0</ns3:cad>
          </ns3:TrackPointExtension>
        </extensions>
      </trkpt>
      <trkpt lat="52.124878875911235809326171875" lon="1.4622868783771991729736328125">
        <ele>-44.200000762939453125</ele>
        <time>2025-09-06T09:05:06.000Z</time>
        <extensions>
          <ns3:TrackPointExtension>
            <ns3:hr>176</ns3:hr>
            <ns3:cad>77</ns3:cad>
          </ns3:TrackPointExtension>
        </extensions>
      </trkpt>
      <trkpt lat="52.1248589269816875457763671875" lon="1.462351419031620025634765625">
        <ele>-44.59999847412109375</ele>
        <time>2025-09-06T09:05:08.000Z</time>
        <extensions>
          <ns3:TrackPointExtension>
            <ns3:hr>177</ns3:hr>
            <ns3:cad>80</ns3:cad>
          </ns3:TrackPointExtension>
        </extensions>
      </trkpt>
      <trkpt lat="52.12477653287351131439208984375" lon="1.462601535022258758544921875">
        <ele>-44.59999847412109375</ele>
        <time>2025-09-06T09:05:15.000Z</time>
        <extensions>
          <ns3:TrackPointExtension>
            <ns3:hr>179</ns3:hr>
            <ns3:cad>81</ns3:cad>
          </ns3:TrackPointExtension>
        </extensions>
      </trkpt>
      <trkpt lat="52.12470897473394870758056640625" lon="1.46284854970872402191162109375">
        <ele>-44.59999847412109375</ele>
        <time>2025-09-06T09:05:22.000Z</time>
        <extensions>
          <ns3:TrackPointExtension>
            <ns3:hr>179</ns3:hr>
            <ns3:cad>81</ns3:cad>
          </ns3:TrackPointExtension>
        </extensions>
      </trkpt>
      <trkpt lat="52.12463638745248317718505859375" lon="1.46312800236046314239501953125">
        <ele>-44.200000762939453125</ele>
        <time>2025-09-06T09:05:30.000Z</time>
        <extensions>
          <ns3:TrackPointExtension>
            <ns3:hr>178</ns3:hr>
            <ns3:cad>81</ns3:cad>
          </ns3:TrackPointExtension>
        </extensions>
      </trkpt>
      <trkpt lat="52.12459749542176723480224609375" lon="1.463264040648937225341796875">
        <ele>-44</ele>
        <time>2025-09-06T09:05:34.000Z</time>
        <extensions>
          <ns3:TrackPointExtension>
            <ns3:hr>174</ns3:hr>
            <ns3:cad>81</ns3:cad>
          </ns3:TrackPointExtension>
        </extensions>
      </trkpt>
      <trkpt lat="52.12454670108854770660400390625" lon="1.46344886161386966705322265625">
        <ele>-43.59999847412109375</ele>
        <time>2025-09-06T09:05:39.000Z</time>
        <extensions>
          <ns3:TrackPointExtension>
            <ns3:hr>173</ns3:hr>
            <ns3:cad>81</ns3:cad>
          </ns3:TrackPointExtension>
        </extensions>
      </trkpt>
      <trkpt lat="52.12448517791926860809326171875" lon="1.46366913802921772003173828125">
        <ele>-43.200000762939453125</ele>
        <time>2025-09-06T09:05:46.000Z</time>
        <extensions>
          <ns3:TrackPointExtension>
            <ns3:hr>174</ns3:hr>
            <ns3:cad>81</ns3:cad>
          </ns3:TrackPointExtension>
        </extensions>
      </trkpt>
      <trkpt lat="52.12447310797870159149169921875" lon="1.46369688212871551513671875">
        <ele>-43</ele>
        <time>2025-09-06T09:05:47.000Z</time>
        <extensions>
          <ns3:TrackPointExtension>
            <ns3:hr>174</ns3:hr>
            <ns3:cad>81</ns3:cad>
          </ns3:TrackPointExtension>
        </extensions>
      </trkpt>
      <trkpt lat="52.12438342161476612091064453125" lon="1.4638824574649333953857421875">
        <ele>-42.59999847412109375</ele>
        <time>2025-09-06T09:05:54.000Z</time>
        <extensions>
          <ns3:TrackPointExtension>
            <ns3:hr>174</ns3:hr>
            <ns3:cad>81</ns3:cad>
          </ns3:TrackPointExtension>
        </extensions>
      </trkpt>
      <trkpt lat="52.12433815933763980865478515625" lon="1.4639431424438953399658203125">
        <ele>-42.40000152587890625</ele>
        <time>2025-09-06T09:06:00.000Z</time>
        <extensions>
          <ns3:TrackPointExtension>
            <ns3:hr>172</ns3:hr>
            <ns3:cad>0</ns3:cad>
          </ns3:TrackPointExtension>
        </extensions>
      </trkpt>
      <trkpt lat="52.12430295534431934356689453125" lon="1.4639957807958126068115234375">
        <ele>-42.40000152587890625</ele>
        <time>2025-09-06T09:06:06.000Z</time>
        <extensions>
          <ns3:TrackPointExtension>
            <ns3:hr>169</ns3:hr>
            <ns3:cad>0</ns3:cad>
          </ns3:TrackPointExtension>
        </extensions>
      </trkpt>
      <trkpt lat="52.1242695115506649017333984375" lon="1.46405638195574283599853515625">
        <ele>-43</ele>
        <time>2025-09-06T09:06:11.000Z</time>
        <extensions>
          <ns3:TrackPointExtension>
            <ns3:hr>166</ns3:hr>
            <ns3:cad>0</ns3:cad>
          </ns3:TrackPointExtension>
        </extensions>
      </trkpt>
      <trkpt lat="52.12426372803747653961181640625" lon="1.4640692062675952911376953125">
        <ele>-43.200000762939453125</ele>
        <time>2025-09-06T09:06:12.000Z</time>
        <extensions>
          <ns3:TrackPointExtension>
            <ns3:hr>165</ns3:hr>
            <ns3:cad>0</ns3:cad>
          </ns3:TrackPointExtension>
        </extensions>
      </trkpt>
      <trkpt lat="52.124225087463855743408203125" lon="1.46412980742752552032470703125">
        <ele>-44.40000152587890625</ele>
        <time>2025-09-06T09:06:17.000Z</time>
        <extensions>
          <ns3:TrackPointExtension>
            <ns3:hr>161</ns3:hr>
            <ns3:cad>0</ns3:cad>
          </ns3:TrackPointExtension>
        </extensions>
      </trkpt>
      <trkpt lat="52.1242094971239566802978515625" lon="1.46413567475974559783935546875">
        <ele>-45.40000152587890625</ele>
        <time>2025-09-06T09:06:20.000Z</time>
        <extensions>
          <ns3:TrackPointExtension>
            <ns3:hr>161</ns3:hr>
            <ns3:cad>0</ns3:cad>
          </ns3:TrackPointExtension>
        </extensions>
      </trkpt>
      <trkpt lat="52.12420874275267124176025390625" lon="1.46413743495941162109375">
        <ele>-46.200000762939453125</ele>
        <time>2025-09-06T09:06:22.000Z</time>
        <extensions>
          <ns3:TrackPointExtension>
            <ns3:hr>160</ns3:hr>
            <ns3:cad>0</ns3:cad>
          </ns3:TrackPointExtension>
        </extensions>
      </trkpt>
      <trkpt lat="52.12420823983848094940185546875" lon="1.4641389437019824981689453125">
        <ele>-46.59999847412109375</ele>
        <time>2025-09-06T09:06:23.000Z</time>
        <extensions>
          <ns3:TrackPointExtension>
            <ns3:hr>160</ns3:hr>
            <ns3:cad>0</ns3:cad>
          </ns3:TrackPointExtension>
        </extensions>
      </trkpt>
      <trkpt lat="52.12421276606619358062744140625" lon="1.4641349203884601593017578125">
        <ele>-47.799999237060546875</ele>
        <time>2025-09-06T09:06:26.000Z</time>
        <extensions>
          <ns3:TrackPointExtension>
            <ns3:hr>158</ns3:hr>
            <ns3:cad>0</ns3:cad>
          </ns3:TrackPointExtension>
        </extensions>
      </trkpt>
      <trkpt lat="52.124213017523288726806640625" lon="1.4641342498362064361572265625">
        <ele>-48.59999847412109375</ele>
        <time>2025-09-06T09:06:28.000Z</time>
        <extensions>
          <ns3:TrackPointExtension>
            <ns3:hr>152</ns3:hr>
            <ns3:cad>0</ns3:cad>
          </ns3:TrackPointExtension>
        </extensions>
      </trkpt>
      <trkpt lat="52.12421293370425701141357421875" lon="1.4641342498362064361572265625">
        <ele>-49</ele>
        <time>2025-09-06T09:06:29.000Z</time>
        <extensions>
          <ns3:TrackPointExtension>
            <ns3:hr>148</ns3:hr>
            <ns3:cad>0</ns3:cad>
          </ns3:TrackPointExtension>
        </extensions>
      </trkpt>
      <trkpt lat="52.1242131851613521575927734375" lon="1.464134752750396728515625">
        <ele>-50</ele>
        <time>2025-09-06T09:06:32.000Z</time>
        <extensions>
          <ns3:TrackPointExtension>
            <ns3:hr>142</ns3:hr>
            <ns3:cad>0</ns3:cad>
          </ns3:TrackPointExtension>
        </extensions>
      </trkpt>
      <trkpt lat="52.12421343661844730377197265625" lon="1.464134752750396728515625">
        <ele>-50.40000152587890625</ele>
        <time>2025-09-06T09:06:33.000Z</time>
        <extensions>
          <ns3:TrackPointExtension>
            <ns3:hr>136</ns3:hr>
            <ns3:cad>0</ns3:cad>
          </ns3:TrackPointExtension>
        </extensions>
      </trkpt>
      <trkpt lat="52.124213688075542449951171875" lon="1.46413500420749187469482421875">
        <ele>-50.799999237060546875</ele>
        <time>2025-09-06T09:06:34.000Z</time>
        <extensions>
          <ns3:TrackPointExtension>
            <ns3:hr>131</ns3:hr>
            <ns3:cad>0</ns3:cad>
          </ns3:TrackPointExtension>
        </extensions>
      </trkpt>
      <trkpt lat="52.1242140233516693115234375" lon="1.4641359262168407440185546875">
        <ele>-51.200000762939453125</ele>
        <time>2025-09-06T09:06:35.000Z</time>
        <extensions>
          <ns3:TrackPointExtension>
            <ns3:hr>127</ns3:hr>
            <ns3:cad>0</ns3:cad>
          </ns3:TrackPointExtension>
        </extensions>
      </trkpt>
      <trkpt lat="52.124214358627796173095703125" lon="1.46413818933069705963134765625">
        <ele>-52.200000762939453125</ele>
        <time>2025-09-06T09:06:38.000Z</time>
        <extensions>
          <ns3:TrackPointExtension>
            <ns3:hr>125</ns3:hr>
            <ns3:cad>0</ns3:cad>
          </ns3:TrackPointExtension>
        </extensions>
      </trkpt>
      <trkpt lat="52.124212346971035003662109375" lon="1.464146487414836883544921875">
        <ele>-53.40000152587890625</ele>
        <time>2025-09-06T09:06:41.000Z</time>
        <extensions>
          <ns3:TrackPointExtension>
            <ns3:hr>123</ns3:hr>
            <ns3:cad>0</ns3:cad>
          </ns3:TrackPointExtension>
        </extensions>
      </trkpt>
      <trkpt lat="52.124183513224124908447265625" lon="1.46419518627226352691650390625">
        <ele>-54.40000152587890625</ele>
        <time>2025-09-06T09:06:44.000Z</time>
        <extensions>
          <ns3:TrackPointExtension>
            <ns3:hr>121</ns3:hr>
            <ns3:cad>0</ns3:cad>
          </ns3:TrackPointExtension>
        </extensions>
      </trkpt>
      <trkpt lat="52.124170772731304168701171875" lon="1.464218907058238983154296875">
        <ele>-54.799999237060546875</ele>
        <time>2025-09-06T09:06:45.000Z</time>
        <extensions>
          <ns3:TrackPointExtension>
            <ns3:hr>120</ns3:hr>
            <ns3:cad>0</ns3:cad>
          </ns3:TrackPointExtension>
        </extensions>
      </trkpt>
      <trkpt lat="52.124142609536647796630859375" lon="1.46427347324788570404052734375">
        <ele>-55.40000152587890625</ele>
        <time>2025-09-06T09:06:47.000Z</time>
        <extensions>
          <ns3:TrackPointExtension>
            <ns3:hr>121</ns3:hr>
            <ns3:cad>0</ns3:cad>
          </ns3:TrackPointExtension>
        </extensions>
      </trkpt>
      <trkpt lat="52.12411654181778430938720703125" lon="1.46432376466691493988037109375">
        <ele>-56.200000762939453125</ele>
        <time>2025-09-06T09:06:49.000Z</time>
        <extensions>
          <ns3:TrackPointExtension>
            <ns3:hr>125</ns3:hr>
            <ns3:cad>78</ns3:cad>
          </ns3:TrackPointExtension>
        </extensions>
      </trkpt>
      <trkpt lat="52.1241012029349803924560546875" lon="1.46434689871966838836669921875">
        <ele>-56.40000152587890625</ele>
        <time>2025-09-06T09:06:50.000Z</time>
        <extensions>
          <ns3:TrackPointExtension>
            <ns3:hr>128</ns3:hr>
            <ns3:cad>78</ns3:cad>
          </ns3:TrackPointExtension>
        </extensions>
      </trkpt>
      <trkpt lat="52.12408754043281078338623046875" lon="1.46436936222016811370849609375">
        <ele>-56.799999237060546875</ele>
        <time>2025-09-06T09:06:51.000Z</time>
        <extensions>
          <ns3:TrackPointExtension>
            <ns3:hr>131</ns3:hr>
            <ns3:cad>79</ns3:cad>
          </ns3:TrackPointExtension>
        </extensions>
      </trkpt>
      <trkpt lat="52.12407614104449748992919921875" lon="1.46439383737742900848388671875">
        <ele>-57.200000762939453125</ele>
        <time>2025-09-06T09:06:52.000Z</time>
        <extensions>
          <ns3:TrackPointExtension>
            <ns3:hr>133</ns3:hr>
            <ns3:cad>79</ns3:cad>
          </ns3:TrackPointExtension>
        </extensions>
      </trkpt>
      <trkpt lat="52.124064825475215911865234375" lon="1.46441864781081676483154296875">
        <ele>-57.40000152587890625</ele>
        <time>2025-09-06T09:06:53.000Z</time>
        <extensions>
          <ns3:TrackPointExtension>
            <ns3:hr>137</ns3:hr>
            <ns3:cad>79</ns3:cad>
          </ns3:TrackPointExtension>
        </extensions>
      </trkpt>
      <trkpt lat="52.12405300699174404144287109375" lon="1.4644410274922847747802734375">
        <ele>-57.59999847412109375</ele>
        <time>2025-09-06T09:06:54.000Z</time>
        <extensions>
          <ns3:TrackPointExtension>
            <ns3:hr>138</ns3:hr>
            <ns3:cad>80</ns3:cad>
          </ns3:TrackPointExtension>
        </extensions>
      </trkpt>
      <trkpt lat="52.124024927616119384765625" lon="1.46448947489261627197265625">
        <ele>-58</ele>
        <time>2025-09-06T09:06:56.000Z</time>
        <extensions>
          <ns3:TrackPointExtension>
            <ns3:hr>141</ns3:hr>
            <ns3:cad>81</ns3:cad>
          </ns3:TrackPointExtension>
        </extensions>
      </trkpt>
      <trkpt lat="52.12398326955735683441162109375" lon="1.46456181071698665618896484375">
        <ele>-58.59999847412109375</ele>
        <time>2025-09-06T09:06:59.000Z</time>
        <extensions>
          <ns3:TrackPointExtension>
            <ns3:hr>145</ns3:hr>
            <ns3:cad>82</ns3:cad>
          </ns3:TrackPointExtension>
        </extensions>
      </trkpt>
      <trkpt lat="52.1239701099693775177001953125" lon="1.464589722454547882080078125">
        <ele>-58.799999237060546875</ele>
        <time>2025-09-06T09:07:00.000Z</time>
        <extensions>
          <ns3:TrackPointExtension>
            <ns3:hr>145</ns3:hr>
            <ns3:cad>82</ns3:cad>
          </ns3:TrackPointExtension>
        </extensions>
      </trkpt>
      <trkpt lat="52.12394270114600658416748046875" lon="1.46464076824486255645751953125">
        <ele>-59.200000762939453125</ele>
        <time>2025-09-06T09:07:02.000Z</time>
        <extensions>
          <ns3:TrackPointExtension>
            <ns3:hr>148</ns3:hr>
            <ns3:cad>82</ns3:cad>
          </ns3:TrackPointExtension>
        </extensions>
      </trkpt>
      <trkpt lat="52.12388436309993267059326171875" lon="1.46476632915437221527099609375">
        <ele>-60</ele>
        <time>2025-09-06T09:07:07.000Z</time>
        <extensions>
          <ns3:TrackPointExtension>
            <ns3:hr>150</ns3:hr>
            <ns3:cad>81</ns3:cad>
          </ns3:TrackPointExtension>
        </extensions>
      </trkpt>
      <trkpt lat="52.12383356876671314239501953125" lon="1.4648634754121303558349609375">
        <ele>-60.59999847412109375</ele>
        <time>2025-09-06T09:07:11.000Z</time>
        <extensions>
          <ns3:TrackPointExtension>
            <ns3:hr>153</ns3:hr>
            <ns3:cad>80</ns3:cad>
          </ns3:TrackPointExtension>
        </extensions>
      </trkpt>
      <trkpt lat="52.1237927488982677459716796875" lon="1.46493363194167613983154296875">
        <ele>-61</ele>
        <time>2025-09-06T09:07:14.000Z</time>
        <extensions>
          <ns3:TrackPointExtension>
            <ns3:hr>154</ns3:hr>
            <ns3:cad>81</ns3:cad>
          </ns3:TrackPointExtension>
        </extensions>
      </trkpt>
      <trkpt lat="52.1237729676067829132080078125" lon="1.464994736015796661376953125">
        <ele>-61.200000762939453125</ele>
        <time>2025-09-06T09:07:16.000Z</time>
        <extensions>
          <ns3:TrackPointExtension>
            <ns3:hr>153</ns3:hr>
            <ns3:cad>81</ns3:cad>
          </ns3:TrackPointExtension>
        </extensions>
      </trkpt>
      <trkpt lat="52.12368386797606945037841796875" lon="1.46521341986954212188720703125">
        <ele>-61.799999237060546875</ele>
        <time>2025-09-06T09:07:24.000Z</time>
        <extensions>
          <ns3:TrackPointExtension>
            <ns3:hr>155</ns3:hr>
            <ns3:cad>81</ns3:cad>
          </ns3:TrackPointExtension>
        </extensions>
      </trkpt>
      <trkpt lat="52.12363759987056255340576171875" lon="1.46532791666686534881591796875">
        <ele>-62</ele>
        <time>2025-09-06T09:07:28.000Z</time>
        <extensions>
          <ns3:TrackPointExtension>
            <ns3:hr>156</ns3:hr>
            <ns3:cad>81</ns3:cad>
          </ns3:TrackPointExtension>
        </extensions>
      </trkpt>
      <trkpt lat="52.12359686382114887237548828125" lon="1.4653982408344745635986328125">
        <ele>-62.40000152587890625</ele>
        <time>2025-09-06T09:07:31.000Z</time>
        <extensions>
          <ns3:TrackPointExtension>
            <ns3:hr>157</ns3:hr>
            <ns3:cad>81</ns3:cad>
          </ns3:TrackPointExtension>
        </extensions>
      </trkpt>
      <trkpt lat="52.123535759747028350830078125" lon="1.4655222930014133453369140625">
        <ele>-63</ele>
        <time>2025-09-06T09:07:36.000Z</time>
        <extensions>
          <ns3:TrackPointExtension>
            <ns3:hr>158</ns3:hr>
            <ns3:cad>81</ns3:cad>
          </ns3:TrackPointExtension>
        </extensions>
      </trkpt>
      <trkpt lat="52.12350047193467617034912109375" lon="1.46558457054197788238525390625">
        <ele>-63.40000152587890625</ele>
        <time>2025-09-06T09:07:39.000Z</time>
        <extensions>
          <ns3:TrackPointExtension>
            <ns3:hr>160</ns3:hr>
            <ns3:cad>81</ns3:cad>
          </ns3:TrackPointExtension>
        </extensions>
      </trkpt>
      <trkpt lat="52.123445905745029449462890625" lon="1.465677358210086822509765625">
        <ele>-64</ele>
        <time>2025-09-06T09:07:43.000Z</time>
        <extensions>
          <ns3:TrackPointExtension>
            <ns3:hr>160</ns3:hr>
            <ns3:cad>81</ns3:cad>
          </ns3:TrackPointExtension>
        </extensions>
      </trkpt>
      <trkpt lat="52.12340190075337886810302734375" lon="1.46577785722911357879638671875">
        <ele>-64.59999847412109375</ele>
        <time>2025-09-06T09:07:47.000Z</time>
        <extensions>
          <ns3:TrackPointExtension>
            <ns3:hr>159</ns3:hr>
            <ns3:cad>81</ns3:cad>
          </ns3:TrackPointExtension>
        </extensions>
      </trkpt>
      <trkpt lat="52.123382203280925750732421875" lon="1.4658401347696781158447265625">
        <ele>-65</ele>
        <time>2025-09-06T09:07:49.000Z</time>
        <extensions>
          <ns3:TrackPointExtension>
            <ns3:hr>162</ns3:hr>
            <ns3:cad>81</ns3:cad>
          </ns3:TrackPointExtension>
        </extensions>
      </trkpt>
      <trkpt lat="52.12337574921548366546630859375" lon="1.465872488915920257568359375">
        <ele>-65.1999969482421875</ele>
        <time>2025-09-06T09:07:50.000Z</time>
        <extensions>
          <ns3:TrackPointExtension>
            <ns3:hr>161</ns3:hr>
            <ns3:cad>81</ns3:cad>
          </ns3:TrackPointExtension>
        </extensions>
      </trkpt>
      <trkpt lat="52.123345993459224700927734375" lon="1.46607424132525920867919921875">
        <ele>-66.1999969482421875</ele>
        <time>2025-09-06T09:07:56.000Z</time>
        <extensions>
          <ns3:TrackPointExtension>
            <ns3:hr>161</ns3:hr>
            <ns3:cad>80</ns3:cad>
          </ns3:TrackPointExtension>
        </extensions>
      </trkpt>
      <trkpt lat="52.123321183025836944580078125" lon="1.46614733152091503143310546875">
        <ele>-66.59999847412109375</ele>
        <time>2025-09-06T09:07:59.000Z</time>
        <extensions>
          <ns3:TrackPointExtension>
            <ns3:hr>158</ns3:hr>
            <ns3:cad>79</ns3:cad>
          </ns3:TrackPointExtension>
        </extensions>
      </trkpt>
      <trkpt lat="52.12330316193401813507080078125" lon="1.46617901511490345001220703125">
        <ele>-67</ele>
        <time>2025-09-06T09:08:01.000Z</time>
        <extensions>
          <ns3:TrackPointExtension>
            <ns3:hr>158</ns3:hr>
            <ns3:cad>58</ns3:cad>
          </ns3:TrackPointExtension>
        </extensions>
      </trkpt>
      <trkpt lat="52.1232995577156543731689453125" lon="1.4662122912704944610595703125">
        <ele>-67.40000152587890625</ele>
        <time>2025-09-06T09:08:03.000Z</time>
        <extensions>
          <ns3:TrackPointExtension>
            <ns3:hr>159</ns3:hr>
            <ns3:cad>0</ns3:cad>
          </ns3:TrackPointExtension>
        </extensions>
      </trkpt>
      <trkpt lat="52.1232928521931171417236328125" lon="1.4662496745586395263671875">
        <ele>-67.8000030517578125</ele>
        <time>2025-09-06T09:08:06.000Z</time>
        <extensions>
          <ns3:TrackPointExtension>
            <ns3:hr>162</ns3:hr>
            <ns3:cad>0</ns3:cad>
          </ns3:TrackPointExtension>
        </extensions>
      </trkpt>
      <trkpt lat="52.1232886612415313720703125" lon="1.4662813581526279449462890625">
        <ele>-68</ele>
        <time>2025-09-06T09:08:08.000Z</time>
        <extensions>
          <ns3:TrackPointExtension>
            <ns3:hr>160</ns3:hr>
            <ns3:cad>0</ns3:cad>
          </ns3:TrackPointExtension>
        </extensions>
      </trkpt>
      <trkpt lat="52.12328321300446987152099609375" lon="1.46630792878568172454833984375">
        <ele>-68.40000152587890625</ele>
        <time>2025-09-06T09:08:10.000Z</time>
        <extensions>
          <ns3:TrackPointExtension>
            <ns3:hr>160</ns3:hr>
            <ns3:cad>0</ns3:cad>
          </ns3:TrackPointExtension>
        </extensions>
      </trkpt>
      <trkpt lat="52.12326946668326854705810546875" lon="1.46637112833559513092041015625">
        <ele>-69</ele>
        <time>2025-09-06T09:08:14.000Z</time>
        <extensions>
          <ns3:TrackPointExtension>
            <ns3:hr>157</ns3:hr>
            <ns3:cad>51</ns3:cad>
          </ns3:TrackPointExtension>
        </extensions>
      </trkpt>
      <trkpt lat="52.12325722910463809967041015625" lon="1.46644706837832927703857421875">
        <ele>-69.40000152587890625</ele>
        <time>2025-09-06T09:08:17.000Z</time>
        <extensions>
          <ns3:TrackPointExtension>
            <ns3:hr>154</ns3:hr>
            <ns3:cad>51</ns3:cad>
          </ns3:TrackPointExtension>
        </extensions>
      </trkpt>
      <trkpt lat="52.123240716755390167236328125" lon="1.46654069423675537109375">
        <ele>-70</ele>
        <time>2025-09-06T09:08:20.000Z</time>
        <extensions>
          <ns3:TrackPointExtension>
            <ns3:hr>154</ns3:hr>
            <ns3:cad>51</ns3:cad>
          </ns3:TrackPointExtension>
        </extensions>
      </trkpt>
      <trkpt lat="52.12323728017508983612060546875" lon="1.46657564677298069000244140625">
        <ele>-70</ele>
        <time>2025-09-06T09:08:21.000Z</time>
        <extensions>
          <ns3:TrackPointExtension>
            <ns3:hr>151</ns3:hr>
            <ns3:cad>77</ns3:cad>
          </ns3:TrackPointExtension>
        </extensions>
      </trkpt>
      <trkpt lat="52.12323308922350406646728515625" lon="1.466610431671142578125">
        <ele>-70.1999969482421875</ele>
        <time>2025-09-06T09:08:22.000Z</time>
        <extensions>
          <ns3:TrackPointExtension>
            <ns3:hr>154</ns3:hr>
            <ns3:cad>77</ns3:cad>
          </ns3:TrackPointExtension>
        </extensions>
      </trkpt>
      <trkpt lat="52.12322319857776165008544921875" lon="1.46670673973858356475830078125">
        <ele>-70.59999847412109375</ele>
        <time>2025-09-06T09:08:25.000Z</time>
        <extensions>
          <ns3:TrackPointExtension>
            <ns3:hr>158</ns3:hr>
            <ns3:cad>78</ns3:cad>
          </ns3:TrackPointExtension>
        </extensions>
      </trkpt>
      <trkpt lat="52.1232135593891143798828125" lon="1.46680355072021484375">
        <ele>-70.8000030517578125</ele>
        <time>2025-09-06T09:08:28.000Z</time>
        <extensions>
          <ns3:TrackPointExtension>
            <ns3:hr>159</ns3:hr>
            <ns3:cad>78</ns3:cad>
          </ns3:TrackPointExtension>
        </extensions>
      </trkpt>
      <trkpt lat="52.1231952868402004241943359375" lon="1.46691712550818920135498046875">
        <ele>-71</ele>
        <time>2025-09-06T09:08:32.000Z</time>
        <extensions>
          <ns3:TrackPointExtension>
            <ns3:hr>162</ns3:hr>
            <ns3:cad>78</ns3:cad>
          </ns3:TrackPointExtension>
        </extensions>
      </trkpt>
      <trkpt lat="52.12318531237542629241943359375" lon="1.4669794030487537384033203125">
        <ele>-71</ele>
        <time>2025-09-06T09:08:34.000Z</time>
        <extensions>
          <ns3:TrackPointExtension>
            <ns3:hr>163</ns3:hr>
            <ns3:cad>79</ns3:cad>
          </ns3:TrackPointExtension>
        </extensions>
      </trkpt>
      <trkpt lat="52.1231466718018054962158203125" lon="1.46725676022469997406005859375">
        <ele>-71.40000152587890625</ele>
        <time>2025-09-06T09:08:42.000Z</time>
        <extensions>
          <ns3:TrackPointExtension>
            <ns3:hr>166</ns3:hr>
            <ns3:cad>78</ns3:cad>
          </ns3:TrackPointExtension>
        </extensions>
      </trkpt>
      <trkpt lat="52.12314289994537830352783203125" lon="1.4672922156751155853271484375">
        <ele>-71.40000152587890625</ele>
        <time>2025-09-06T09:08:43.000Z</time>
        <extensions>
          <ns3:TrackPointExtension>
            <ns3:hr>166</ns3:hr>
            <ns3:cad>78</ns3:cad>
          </ns3:TrackPointExtension>
        </extensions>
      </trkpt>
      <trkpt lat="52.12313217110931873321533203125" lon="1.4673586003482341766357421875">
        <ele>-71.59999847412109375</ele>
        <time>2025-09-06T09:08:45.000Z</time>
        <extensions>
          <ns3:TrackPointExtension>
            <ns3:hr>166</ns3:hr>
            <ns3:cad>78</ns3:cad>
          </ns3:TrackPointExtension>
        </extensions>
      </trkpt>
      <trkpt lat="52.1231285668909549713134765625" lon="1.46739296615123748779296875">
        <ele>-71.59999847412109375</ele>
        <time>2025-09-06T09:08:46.000Z</time>
        <extensions>
          <ns3:TrackPointExtension>
            <ns3:hr>160</ns3:hr>
            <ns3:cad>79</ns3:cad>
          </ns3:TrackPointExtension>
        </extensions>
      </trkpt>
      <trkpt lat="52.1231252141296863555908203125" lon="1.467426829040050506591796875">
        <ele>-71.8000030517578125</ele>
        <time>2025-09-06T09:08:47.000Z</time>
        <extensions>
          <ns3:TrackPointExtension>
            <ns3:hr>160</ns3:hr>
            <ns3:cad>79</ns3:cad>
          </ns3:TrackPointExtension>
        </extensions>
      </trkpt>
      <trkpt lat="52.1231047622859477996826171875" lon="1.4675544016063213348388671875">
        <ele>-72</ele>
        <time>2025-09-06T09:08:51.000Z</time>
        <extensions>
          <ns3:TrackPointExtension>
            <ns3:hr>160</ns3:hr>
            <ns3:cad>78</ns3:cad>
          </ns3:TrackPointExtension>
        </extensions>
      </trkpt>
      <trkpt lat="52.1230796165764331817626953125" lon="1.46773586980998516082763671875">
        <ele>-72.59999847412109375</ele>
        <time>2025-09-06T09:08:57.000Z</time>
        <extensions>
          <ns3:TrackPointExtension>
            <ns3:hr>157</ns3:hr>
            <ns3:cad>77</ns3:cad>
          </ns3:TrackPointExtension>
        </extensions>
      </trkpt>
      <trkpt lat="52.12307366542518138885498046875" lon="1.467798985540866851806640625">
        <ele>-72.59999847412109375</ele>
        <time>2025-09-06T09:08:59.000Z</time>
        <extensions>
          <ns3:TrackPointExtension>
            <ns3:hr>159</ns3:hr>
            <ns3:cad>79</ns3:cad>
          </ns3:TrackPointExtension>
        </extensions>
      </trkpt>
      <trkpt lat="52.12306939065456390380859375" lon="1.4678320102393627166748046875">
        <ele>-72.59999847412109375</ele>
        <time>2025-09-06T09:09:00.000Z</time>
        <extensions>
          <ns3:TrackPointExtension>
            <ns3:hr>158</ns3:hr>
            <ns3:cad>79</ns3:cad>
          </ns3:TrackPointExtension>
        </extensions>
      </trkpt>
      <trkpt lat="52.12302555330097675323486328125" lon="1.4680180884897708892822265625">
        <ele>-72.59999847412109375</ele>
        <time>2025-09-06T09:09:06.000Z</time>
        <extensions>
          <ns3:TrackPointExtension>
            <ns3:hr>161</ns3:hr>
            <ns3:cad>77</ns3:cad>
          </ns3:TrackPointExtension>
        </extensions>
      </trkpt>
      <trkpt lat="52.122975178062915802001953125" lon="1.468309946358203887939453125">
        <ele>-72.40000152587890625</ele>
        <time>2025-09-06T09:09:15.000Z</time>
        <extensions>
          <ns3:TrackPointExtension>
            <ns3:hr>162</ns3:hr>
            <ns3:cad>78</ns3:cad>
          </ns3:TrackPointExtension>
        </extensions>
      </trkpt>
      <trkpt lat="52.12293486110866069793701171875" lon="1.468574143946170806884765625">
        <ele>-72.40000152587890625</ele>
        <time>2025-09-06T09:09:23.000Z</time>
        <extensions>
          <ns3:TrackPointExtension>
            <ns3:hr>163</ns3:hr>
            <ns3:cad>78</ns3:cad>
          </ns3:TrackPointExtension>
        </extensions>
      </trkpt>
      <trkpt lat="52.12289077229797840118408203125" lon="1.4687199890613555908203125">
        <ele>-72.59999847412109375</ele>
        <time>2025-09-06T09:09:30.000Z</time>
        <extensions>
          <ns3:TrackPointExtension>
            <ns3:hr>162</ns3:hr>
            <ns3:cad>77</ns3:cad>
          </ns3:TrackPointExtension>
        </extensions>
      </trkpt>
      <trkpt lat="52.12286260910332202911376953125" lon="1.46890648640692234039306640625">
        <ele>-73.1999969482421875</ele>
        <time>2025-09-06T09:09:38.000Z</time>
        <extensions>
          <ns3:TrackPointExtension>
            <ns3:hr>162</ns3:hr>
            <ns3:cad>59</ns3:cad>
          </ns3:TrackPointExtension>
        </extensions>
      </trkpt>
      <trkpt lat="52.12281801737844944000244140625" lon="1.46906800568103790283203125">
        <ele>-73.59999847412109375</ele>
        <time>2025-09-06T09:09:44.000Z</time>
        <extensions>
          <ns3:TrackPointExtension>
            <ns3:hr>161</ns3:hr>
            <ns3:cad>75</ns3:cad>
          </ns3:TrackPointExtension>
        </extensions>
      </trkpt>
      <trkpt lat="52.12279119528830051422119140625" lon="1.4691144414246082305908203125">
        <ele>-73.59999847412109375</ele>
        <time>2025-09-06T09:09:46.000Z</time>
        <extensions>
          <ns3:TrackPointExtension>
            <ns3:hr>161</ns3:hr>
            <ns3:cad>75</ns3:cad>
          </ns3:TrackPointExtension>
        </extensions>
      </trkpt>
      <trkpt lat="52.12276873178780078887939453125" lon="1.4691518247127532958984375">
        <ele>-73.8000030517578125</ele>
        <time>2025-09-06T09:09:48.000Z</time>
        <extensions>
          <ns3:TrackPointExtension>
            <ns3:hr>158</ns3:hr>
            <ns3:cad>73</ns3:cad>
          </ns3:TrackPointExtension>
        </extensions>
      </trkpt>
      <trkpt lat="52.1227118186652660369873046875" lon="1.4692334644496440887451171875">
        <ele>-74.1999969482421875</ele>
        <time>2025-09-06T09:09:52.000Z</time>
        <extensions>
          <ns3:TrackPointExtension>
            <ns3:hr>160</ns3:hr>
            <ns3:cad>78</ns3:cad>
          </ns3:TrackPointExtension>
        </extensions>
      </trkpt>
      <trkpt lat="52.1226883493363857269287109375" lon="1.4692854322493076324462890625">
        <ele>-74.40000152587890625</ele>
        <time>2025-09-06T09:09:54.000Z</time>
        <extensions>
          <ns3:TrackPointExtension>
            <ns3:hr>163</ns3:hr>
            <ns3:cad>78</ns3:cad>
          </ns3:TrackPointExtension>
        </extensions>
      </trkpt>
      <trkpt lat="52.12268105708062648773193359375" lon="1.46931535564363002777099609375">
        <ele>-74.40000152587890625</ele>
        <time>2025-09-06T09:09:55.000Z</time>
        <extensions>
          <ns3:TrackPointExtension>
            <ns3:hr>159</ns3:hr>
            <ns3:cad>78</ns3:cad>
          </ns3:TrackPointExtension>
        </extensions>
      </trkpt>
      <trkpt lat="52.12266781367361545562744140625" lon="1.46939657628536224365234375">
        <ele>-74.8000030517578125</ele>
        <time>2025-09-06T09:09:58.000Z</time>
        <extensions>
          <ns3:TrackPointExtension>
            <ns3:hr>161</ns3:hr>
            <ns3:cad>78</ns3:cad>
          </ns3:TrackPointExtension>
        </extensions>
      </trkpt>
      <trkpt lat="52.1226645447313785552978515625" lon="1.46942205727100372314453125">
        <ele>-74.8000030517578125</ele>
        <time>2025-09-06T09:09:59.000Z</time>
        <extensions>
          <ns3:TrackPointExtension>
            <ns3:hr>161</ns3:hr>
            <ns3:cad>79</ns3:cad>
          </ns3:TrackPointExtension>
        </extensions>
      </trkpt>
      <trkpt lat="52.12265633046627044677734375" lon="1.46947662346065044403076171875">
        <ele>-75.1999969482421875</ele>
        <time>2025-09-06T09:10:01.000Z</time>
        <extensions>
          <ns3:TrackPointExtension>
            <ns3:hr>164</ns3:hr>
            <ns3:cad>79</ns3:cad>
          </ns3:TrackPointExtension>
        </extensions>
      </trkpt>
      <trkpt lat="52.12263529188930988311767578125" lon="1.469638310372829437255859375">
        <ele>-75.8000030517578125</ele>
        <time>2025-09-06T09:10:07.000Z</time>
        <extensions>
          <ns3:TrackPointExtension>
            <ns3:hr>167</ns3:hr>
            <ns3:cad>79</ns3:cad>
          </ns3:TrackPointExtension>
        </extensions>
      </trkpt>
      <trkpt lat="52.1226206235587596893310546875" lon="1.4697484485805034637451171875">
        <ele>-76.40000152587890625</ele>
        <time>2025-09-06T09:10:14.000Z</time>
        <extensions>
          <ns3:TrackPointExtension>
            <ns3:hr>167</ns3:hr>
            <ns3:cad>0</ns3:cad>
          </ns3:TrackPointExtension>
        </extensions>
      </trkpt>
      <trkpt lat="52.12262221612036228179931640625" lon="1.46973495371639728546142578125">
        <ele>-76.8000030517578125</ele>
        <time>2025-09-06T09:10:19.000Z</time>
        <extensions>
          <ns3:TrackPointExtension>
            <ns3:hr>169</ns3:hr>
            <ns3:cad>0</ns3:cad>
          </ns3:TrackPointExtension>
        </extensions>
      </trkpt>
      <trkpt lat="52.122641243040561676025390625" lon="1.46974065341055393218994140625">
        <ele>-77.40000152587890625</ele>
        <time>2025-09-06T09:10:22.000Z</time>
        <extensions>
          <ns3:TrackPointExtension>
            <ns3:hr>168</ns3:hr>
            <ns3:cad>0</ns3:cad>
          </ns3:TrackPointExtension>
        </extensions>
      </trkpt>
      <trkpt lat="52.12263428606092929840087890625" lon="1.469759680330753326416015625">
        <ele>-78</ele>
        <time>2025-09-06T09:10:25.000Z</time>
        <extensions>
          <ns3:TrackPointExtension>
            <ns3:hr>167</ns3:hr>
            <ns3:cad>0</ns3:cad>
          </ns3:TrackPointExtension>
        </extensions>
      </trkpt>
      <trkpt lat="52.12261903099715709686279296875" lon="1.4698017574846744537353515625">
        <ele>-78.59999847412109375</ele>
        <time>2025-09-06T09:10:28.000Z</time>
        <extensions>
          <ns3:TrackPointExtension>
            <ns3:hr>166</ns3:hr>
            <ns3:cad>0</ns3:cad>
          </ns3:TrackPointExtension>
        </extensions>
      </trkpt>
      <trkpt lat="52.12262506596744060516357421875" lon="1.46984006278216838836669921875">
        <ele>-79</ele>
        <time>2025-09-06T09:10:30.000Z</time>
        <extensions>
          <ns3:TrackPointExtension>
            <ns3:hr>168</ns3:hr>
            <ns3:cad>0</ns3:cad>
          </ns3:TrackPointExtension>
        </extensions>
      </trkpt>
      <trkpt lat="52.12261140346527099609375" lon="1.4698867499828338623046875">
        <ele>-79.40000152587890625</ele>
        <time>2025-09-06T09:10:32.000Z</time>
        <extensions>
          <ns3:TrackPointExtension>
            <ns3:hr>165</ns3:hr>
            <ns3:cad>0</ns3:cad>
          </ns3:TrackPointExtension>
        </extensions>
      </trkpt>
      <trkpt lat="52.12259463965892791748046875" lon="1.469968222081661224365234375">
        <ele>-79.8000030517578125</ele>
        <time>2025-09-06T09:10:35.000Z</time>
        <extensions>
          <ns3:TrackPointExtension>
            <ns3:hr>168</ns3:hr>
            <ns3:cad>77</ns3:cad>
          </ns3:TrackPointExtension>
        </extensions>
      </trkpt>
      <trkpt lat="52.12258013896644115447998046875" lon="1.47003435529768466949462890625">
        <ele>-80</ele>
        <time>2025-09-06T09:10:37.000Z</time>
        <extensions>
          <ns3:TrackPointExtension>
            <ns3:hr>168</ns3:hr>
            <ns3:cad>78</ns3:cad>
          </ns3:TrackPointExtension>
        </extensions>
      </trkpt>
      <trkpt lat="52.12253185920417308807373046875" lon="1.47026251070201396942138671875">
        <ele>-80.40000152587890625</ele>
        <time>2025-09-06T09:10:44.000Z</time>
        <extensions>
          <ns3:TrackPointExtension>
            <ns3:hr>169</ns3:hr>
            <ns3:cad>80</ns3:cad>
          </ns3:TrackPointExtension>
        </extensions>
      </trkpt>
      <trkpt lat="52.1225170232355594635009765625" lon="1.4703120477497577667236328125">
        <ele>-80.40000152587890625</ele>
        <time>2025-09-06T09:10:46.000Z</time>
        <extensions>
          <ns3:TrackPointExtension>
            <ns3:hr>165</ns3:hr>
            <ns3:cad>78</ns3:cad>
          </ns3:TrackPointExtension>
        </extensions>
      </trkpt>
      <trkpt lat="52.12248735129833221435546875" lon="1.47043132223188877105712890625">
        <ele>-80</ele>
        <time>2025-09-06T09:10:51.000Z</time>
        <extensions>
          <ns3:TrackPointExtension>
            <ns3:hr>166</ns3:hr>
            <ns3:cad>78</ns3:cad>
          </ns3:TrackPointExtension>
        </extensions>
      </trkpt>
      <trkpt lat="52.1224295161664485931396484375" lon="1.47065453231334686279296875">
        <ele>-79.40000152587890625</ele>
        <time>2025-09-06T09:10:59.000Z</time>
        <extensions>
          <ns3:TrackPointExtension>
            <ns3:hr>165</ns3:hr>
            <ns3:cad>79</ns3:cad>
          </ns3:TrackPointExtension>
        </extensions>
      </trkpt>
      <trkpt lat="52.1224033646285533905029296875" lon="1.47080532275140285491943359375">
        <ele>-79</ele>
        <time>2025-09-06T09:11:05.000Z</time>
        <extensions>
          <ns3:TrackPointExtension>
            <ns3:hr>164</ns3:hr>
            <ns3:cad>77</ns3:cad>
          </ns3:TrackPointExtension>
        </extensions>
      </trkpt>
      <trkpt lat="52.12238282896578311920166015625" lon="1.4708662591874599456787109375">
        <ele>-78.8000030517578125</ele>
        <time>2025-09-06T09:11:08.000Z</time>
        <extensions>
          <ns3:TrackPointExtension>
            <ns3:hr>163</ns3:hr>
            <ns3:cad>78</ns3:cad>
          </ns3:TrackPointExtension>
        </extensions>
      </trkpt>
      <trkpt lat="52.12234980426728725433349609375" lon="1.47097161971032619476318359375">
        <ele>-78.59999847412109375</ele>
        <time>2025-09-06T09:11:12.000Z</time>
        <extensions>
          <ns3:TrackPointExtension>
            <ns3:hr>166</ns3:hr>
            <ns3:cad>79</ns3:cad>
          </ns3:TrackPointExtension>
        </extensions>
      </trkpt>
      <trkpt lat="52.1223121695220470428466796875" lon="1.47103683091700077056884765625">
        <ele>-78.40000152587890625</ele>
        <time>2025-09-06T09:11:15.000Z</time>
        <extensions>
          <ns3:TrackPointExtension>
            <ns3:hr>166</ns3:hr>
            <ns3:cad>80</ns3:cad>
          </ns3:TrackPointExtension>
        </extensions>
      </trkpt>
      <trkpt lat="52.12224352173507213592529296875" lon="1.4712012000381946563720703125">
        <ele>-78</ele>
        <time>2025-09-06T09:11:22.000Z</time>
        <extensions>
          <ns3:TrackPointExtension>
            <ns3:hr>166</ns3:hr>
            <ns3:cad>80</ns3:cad>
          </ns3:TrackPointExtension>
        </extensions>
      </trkpt>
      <trkpt lat="52.12223262526094913482666015625" lon="1.47123548202216625213623046875">
        <ele>-78</ele>
        <time>2025-09-06T09:11:23.000Z</time>
        <extensions>
          <ns3:TrackPointExtension>
            <ns3:hr>166</ns3:hr>
            <ns3:cad>79</ns3:cad>
          </ns3:TrackPointExtension>
        </extensions>
      </trkpt>
      <trkpt lat="52.1222038753330707550048828125" lon="1.47129884921014308929443359375">
        <ele>-77.8000030517578125</ele>
        <time>2025-09-06T09:11:25.000Z</time>
        <extensions>
          <ns3:TrackPointExtension>
            <ns3:hr>163</ns3:hr>
            <ns3:cad>79</ns3:cad>
          </ns3:TrackPointExtension>
        </extensions>
      </trkpt>
      <trkpt lat="52.12219289503991603851318359375" lon="1.47132910788059234619140625">
        <ele>-77.8000030517578125</ele>
        <time>2025-09-06T09:11:26.000Z</time>
        <extensions>
          <ns3:TrackPointExtension>
            <ns3:hr>166</ns3:hr>
            <ns3:cad>78</ns3:cad>
          </ns3:TrackPointExtension>
        </extensions>
      </trkpt>
      <trkpt lat="52.12216774933040142059326171875" lon="1.47143363021314144134521484375">
        <ele>-77.59999847412109375</ele>
        <time>2025-09-06T09:11:30.000Z</time>
        <extensions>
          <ns3:TrackPointExtension>
            <ns3:hr>163</ns3:hr>
            <ns3:cad>78</ns3:cad>
          </ns3:TrackPointExtension>
        </extensions>
      </trkpt>
      <trkpt lat="52.12215366773307323455810546875" lon="1.4714707620441913604736328125">
        <ele>-77.59999847412109375</ele>
        <time>2025-09-06T09:11:35.000Z</time>
        <extensions>
          <ns3:TrackPointExtension>
            <ns3:hr>164</ns3:hr>
            <ns3:cad>19</ns3:cad>
          </ns3:TrackPointExtension>
        </extensions>
      </trkpt>
      <trkpt lat="52.12215417064726352691650390625" lon="1.47147989831864833831787109375">
        <ele>-77.59999847412109375</ele>
        <time>2025-09-06T09:11:37.000Z</time>
        <extensions>
          <ns3:TrackPointExtension>
            <ns3:hr>161</ns3:hr>
            <ns3:cad>19</ns3:cad>
          </ns3:TrackPointExtension>
        </extensions>
      </trkpt>
      <trkpt lat="52.12212516926229000091552734375" lon="1.47156405262649059295654296875">
        <ele>-77.8000030517578125</ele>
        <time>2025-09-06T09:11:45.000Z</time>
        <extensions>
          <ns3:TrackPointExtension>
            <ns3:hr>158</ns3:hr>
            <ns3:cad>0</ns3:cad>
          </ns3:TrackPointExtension>
        </extensions>
      </trkpt>
      <trkpt lat="52.12211108766496181488037109375" lon="1.4716280065476894378662109375">
        <ele>-78</ele>
        <time>2025-09-06T09:11:47.000Z</time>
        <extensions>
          <ns3:TrackPointExtension>
            <ns3:hr>156</ns3:hr>
            <ns3:cad>80</ns3:cad>
          </ns3:TrackPointExtension>
        </extensions>
      </trkpt>
      <trkpt lat="52.12205794639885425567626953125" lon="1.47180293686687946319580078125">
        <ele>-78</ele>
        <time>2025-09-06T09:11:52.000Z</time>
        <extensions>
          <ns3:TrackPointExtension>
            <ns3:hr>161</ns3:hr>
            <ns3:cad>81</ns3:cad>
          </ns3:TrackPointExtension>
        </extensions>
      </trkpt>
      <trkpt lat="52.122041769325733184814453125" lon="1.47188340313732624053955078125">
        <ele>-78</ele>
        <time>2025-09-06T09:11:54.000Z</time>
        <extensions>
          <ns3:TrackPointExtension>
            <ns3:hr>164</ns3:hr>
            <ns3:cad>81</ns3:cad>
          </ns3:TrackPointExtension>
        </extensions>
      </trkpt>
      <trkpt lat="52.122008241713047027587890625" lon="1.472067050635814666748046875">
        <ele>-77.8000030517578125</ele>
        <time>2025-09-06T09:11:59.000Z</time>
        <extensions>
          <ns3:TrackPointExtension>
            <ns3:hr>167</ns3:hr>
            <ns3:cad>81</ns3:cad>
          </ns3:TrackPointExtension>
        </extensions>
      </trkpt>
      <trkpt lat="52.121998853981494903564453125" lon="1.4721275679767131805419921875">
        <ele>-77.8000030517578125</ele>
        <time>2025-09-06T09:12:01.000Z</time>
        <extensions>
          <ns3:TrackPointExtension>
            <ns3:hr>166</ns3:hr>
            <ns3:cad>81</ns3:cad>
          </ns3:TrackPointExtension>
        </extensions>
      </trkpt>
      <trkpt lat="52.1220027096569538116455078125" lon="1.47235161624848842620849609375">
        <ele>-77.40000152587890625</ele>
        <time>2025-09-06T09:12:08.000Z</time>
        <extensions>
          <ns3:TrackPointExtension>
            <ns3:hr>166</ns3:hr>
            <ns3:cad>81</ns3:cad>
          </ns3:TrackPointExtension>
        </extensions>
      </trkpt>
      <trkpt lat="52.12201419286429882049560546875" lon="1.47253886796534061431884765625">
        <ele>-77</ele>
        <time>2025-09-06T09:12:15.000Z</time>
        <extensions>
          <ns3:TrackPointExtension>
            <ns3:hr>166</ns3:hr>
            <ns3:cad>80</ns3:cad>
          </ns3:TrackPointExtension>
        </extensions>
      </trkpt>
      <trkpt lat="52.12200698442757129669189453125" lon="1.472603492438793182373046875">
        <ele>-77</ele>
        <time>2025-09-06T09:12:17.000Z</time>
        <extensions>
          <ns3:TrackPointExtension>
            <ns3:hr>163</ns3:hr>
            <ns3:cad>80</ns3:cad>
          </ns3:TrackPointExtension>
        </extensions>
      </trkpt>
      <trkpt lat="52.1219852752983570098876953125" lon="1.47273416630923748016357421875">
        <ele>-76.59999847412109375</ele>
        <time>2025-09-06T09:12:21.000Z</time>
        <extensions>
          <ns3:TrackPointExtension>
            <ns3:hr>163</ns3:hr>
            <ns3:cad>80</ns3:cad>
          </ns3:TrackPointExtension>
        </extensions>
      </trkpt>
      <trkpt lat="52.1219936572015285491943359375" lon="1.472820080816745758056640625">
        <ele>-76.40000152587890625</ele>
        <time>2025-09-06T09:12:24.000Z</time>
        <extensions>
          <ns3:TrackPointExtension>
            <ns3:hr>166</ns3:hr>
            <ns3:cad>81</ns3:cad>
          </ns3:TrackPointExtension>
        </extensions>
      </trkpt>
      <trkpt lat="52.12199357338249683380126953125" lon="1.47294170223176479339599609375">
        <ele>-76</ele>
        <time>2025-09-06T09:12:28.000Z</time>
        <extensions>
          <ns3:TrackPointExtension>
            <ns3:hr>164</ns3:hr>
            <ns3:cad>80</ns3:cad>
          </ns3:TrackPointExtension>
        </extensions>
      </trkpt>
      <trkpt lat="52.12199072353541851043701171875" lon="1.4729966036975383758544921875">
        <ele>-75.40000152587890625</ele>
        <time>2025-09-06T09:12:33.000Z</time>
        <extensions>
          <ns3:TrackPointExtension>
            <ns3:hr>164</ns3:hr>
            <ns3:cad>0</ns3:cad>
          </ns3:TrackPointExtension>
        </extensions>
      </trkpt>
      <trkpt lat="52.12199424393475055694580078125" lon="1.473024599254131317138671875">
        <ele>-74.8000030517578125</ele>
        <time>2025-09-06T09:12:37.000Z</time>
        <extensions>
          <ns3:TrackPointExtension>
            <ns3:cad>0</ns3:cad>
          </ns3:TrackPointExtension>
        </extensions>
      </trkpt>
      <trkpt lat="52.12198804132640361785888671875" lon="1.47310766391456127166748046875">
        <ele>-74.40000152587890625</ele>
        <time>2025-09-06T09:12:41.000Z</time>
        <extensions>
          <ns3:TrackPointExtension>
            <ns3:hr>159</ns3:hr>
            <ns3:cad>0</ns3:cad>
          </ns3:TrackPointExtension>
        </extensions>
      </trkpt>
      <trkpt lat="52.1219886280596256256103515625" lon="1.47312778048217296600341796875">
        <ele>-74.1999969482421875</ele>
        <time>2025-09-06T09:12:42.000Z</time>
        <extensions>
          <ns3:TrackPointExtension>
            <ns3:hr>158</ns3:hr>
            <ns3:cad>0</ns3:cad>
          </ns3:TrackPointExtension>
        </extensions>
      </trkpt>
      <trkpt lat="52.12198686785995960235595703125" lon="1.47322903387248516082763671875">
        <ele>-73.8000030517578125</ele>
        <time>2025-09-06T09:12:45.000Z</time>
        <extensions>
          <ns3:TrackPointExtension>
            <ns3:hr>159</ns3:hr>
            <ns3:cad>78</ns3:cad>
          </ns3:TrackPointExtension>
        </extensions>
      </trkpt>
      <trkpt lat="52.1219913102686405181884765625" lon="1.473328359425067901611328125">
        <ele>-73</ele>
        <time>2025-09-06T09:12:48.000Z</time>
        <extensions>
          <ns3:TrackPointExtension>
            <ns3:hr>160</ns3:hr>
            <ns3:cad>79</ns3:cad>
          </ns3:TrackPointExtension>
        </extensions>
      </trkpt>
      <trkpt lat="52.12198854424059391021728515625" lon="1.47337186150252819061279296875">
        <ele>-72.8000030517578125</ele>
        <time>2025-09-06T09:12:49.000Z</time>
        <extensions>
          <ns3:TrackPointExtension>
            <ns3:hr>159</ns3:hr>
            <ns3:cad>79</ns3:cad>
          </ns3:TrackPointExtension>
        </extensions>
      </trkpt>
      <trkpt lat="52.1219770610332489013671875" lon="1.473515443503856658935546875">
        <ele>-71.59999847412109375</ele>
        <time>2025-09-06T09:12:53.000Z</time>
        <extensions>
          <ns3:TrackPointExtension>
            <ns3:hr>160</ns3:hr>
            <ns3:cad>80</ns3:cad>
          </ns3:TrackPointExtension>
        </extensions>
      </trkpt>
      <trkpt lat="52.12197178043425083160400390625" lon="1.4735954068601131439208984375">
        <ele>-71</ele>
        <time>2025-09-06T09:12:55.000Z</time>
        <extensions>
          <ns3:TrackPointExtension>
            <ns3:hr>161</ns3:hr>
            <ns3:cad>80</ns3:cad>
          </ns3:TrackPointExtension>
        </extensions>
      </trkpt>
      <trkpt lat="52.12196524254977703094482421875" lon="1.47366690449416637420654296875">
        <ele>-70.40000152587890625</ele>
        <time>2025-09-06T09:12:57.000Z</time>
        <extensions>
          <ns3:TrackPointExtension>
            <ns3:hr>162</ns3:hr>
            <ns3:cad>80</ns3:cad>
          </ns3:TrackPointExtension>
        </extensions>
      </trkpt>
      <trkpt lat="52.1219608001410961151123046875" lon="1.47370294667780399322509765625">
        <ele>-70.1999969482421875</ele>
        <time>2025-09-06T09:12:58.000Z</time>
        <extensions>
          <ns3:TrackPointExtension>
            <ns3:hr>167</ns3:hr>
            <ns3:cad>80</ns3:cad>
          </ns3:TrackPointExtension>
        </extensions>
      </trkpt>
      <trkpt lat="52.121952585875988006591796875" lon="1.4738428406417369842529296875">
        <ele>-69.40000152587890625</ele>
        <time>2025-09-06T09:13:02.000Z</time>
        <extensions>
          <ns3:TrackPointExtension>
            <ns3:hr>167</ns3:hr>
            <ns3:cad>78</ns3:cad>
          </ns3:TrackPointExtension>
        </extensions>
      </trkpt>
      <trkpt lat="52.12195216678082942962646484375" lon="1.47387854754924774169921875">
        <ele>-69.1999969482421875</ele>
        <time>2025-09-06T09:13:03.000Z</time>
        <extensions>
          <ns3:TrackPointExtension>
            <ns3:hr>166</ns3:hr>
            <ns3:cad>77</ns3:cad>
          </ns3:TrackPointExtension>
        </extensions>
      </trkpt>
      <trkpt lat="52.1219366602599620819091796875" lon="1.47415540181100368499755859375">
        <ele>-68.59999847412109375</ele>
        <time>2025-09-06T09:13:12.000Z</time>
        <extensions>
          <ns3:TrackPointExtension>
            <ns3:hr>165</ns3:hr>
            <ns3:cad>78</ns3:cad>
          </ns3:TrackPointExtension>
        </extensions>
      </trkpt>
      <trkpt lat="52.121950574219226837158203125" lon="1.474259085953235626220703125">
        <ele>-68.40000152587890625</ele>
        <time>2025-09-06T09:13:16.000Z</time>
        <extensions>
          <ns3:TrackPointExtension>
            <ns3:hr>161</ns3:hr>
            <ns3:cad>76</ns3:cad>
          </ns3:TrackPointExtension>
        </extensions>
      </trkpt>
      <trkpt lat="52.12194764055311679840087890625" lon="1.47436939179897308349609375">
        <ele>-68.40000152587890625</ele>
        <time>2025-09-06T09:13:20.000Z</time>
        <extensions>
          <ns3:TrackPointExtension>
            <ns3:hr>161</ns3:hr>
            <ns3:cad>77</ns3:cad>
          </ns3:TrackPointExtension>
        </extensions>
      </trkpt>
      <trkpt lat="52.12194822728633880615234375" lon="1.47442345507442951202392578125">
        <ele>-68.40000152587890625</ele>
        <time>2025-09-06T09:13:22.000Z</time>
        <extensions>
          <ns3:TrackPointExtension>
            <ns3:hr>161</ns3:hr>
            <ns3:cad>77</ns3:cad>
          </ns3:TrackPointExtension>
        </extensions>
      </trkpt>
      <trkpt lat="52.12195132859051227569580078125" lon="1.4744838885962963104248046875">
        <ele>-68.1999969482421875</ele>
        <time>2025-09-06T09:13:26.000Z</time>
        <extensions>
          <ns3:TrackPointExtension>
            <ns3:hr>160</ns3:hr>
            <ns3:cad>0</ns3:cad>
          </ns3:TrackPointExtension>
        </extensions>
      </trkpt>
      <trkpt lat="52.12191964499652385711669921875" lon="1.47449570707976818084716796875">
        <ele>-68.40000152587890625</ele>
        <time>2025-09-06T09:13:34.000Z</time>
        <extensions>
          <ns3:TrackPointExtension>
            <ns3:hr>159</ns3:hr>
            <ns3:cad>0</ns3:cad>
          </ns3:TrackPointExtension>
        </extensions>
      </trkpt>
      <trkpt lat="52.12191578932106494903564453125" lon="1.47451967932283878326416015625">
        <ele>-68.40000152587890625</ele>
        <time>2025-09-06T09:13:37.000Z</time>
        <extensions>
          <ns3:TrackPointExtension>
            <ns3:hr>156</ns3:hr>
            <ns3:cad>0</ns3:cad>
          </ns3:TrackPointExtension>
        </extensions>
      </trkpt>
      <trkpt lat="52.1219269372522830963134765625" lon="1.474580280482769012451171875">
        <ele>-68.59999847412109375</ele>
        <time>2025-09-06T09:13:40.000Z</time>
        <extensions>
          <ns3:TrackPointExtension>
            <ns3:hr>154</ns3:hr>
            <ns3:cad>0</ns3:cad>
          </ns3:TrackPointExtension>
        </extensions>
      </trkpt>
      <trkpt lat="52.1219450421631336212158203125" lon="1.47466938011348247528076171875">
        <ele>-68.8000030517578125</ele>
        <time>2025-09-06T09:13:44.000Z</time>
        <extensions>
          <ns3:TrackPointExtension>
            <ns3:hr>151</ns3:hr>
            <ns3:cad>58</ns3:cad>
          </ns3:TrackPointExtension>
        </extensions>
      </trkpt>
      <trkpt lat="52.121951244771480560302734375" lon="1.47470944561064243316650390625">
        <ele>-68.8000030517578125</ele>
        <time>2025-09-06T09:13:46.000Z</time>
        <extensions>
          <ns3:TrackPointExtension>
            <ns3:hr>148</ns3:hr>
            <ns3:cad>58</ns3:cad>
          </ns3:TrackPointExtension>
        </extensions>
      </trkpt>
      <trkpt lat="52.1219554357230663299560546875" lon="1.4747299812734127044677734375">
        <ele>-68.8000030517578125</ele>
        <time>2025-09-06T09:13:47.000Z</time>
        <extensions>
          <ns3:TrackPointExtension>
            <ns3:hr>145</ns3:hr>
            <ns3:cad>56</ns3:cad>
          </ns3:TrackPointExtension>
        </extensions>
      </trkpt>
      <trkpt lat="52.1219614706933498382568359375" lon="1.4747603237628936767578125">
        <ele>-69</ele>
        <time>2025-09-06T09:13:48.000Z</time>
        <extensions>
          <ns3:TrackPointExtension>
            <ns3:hr>146</ns3:hr>
            <ns3:cad>55</ns3:cad>
          </ns3:TrackPointExtension>
        </extensions>
      </trkpt>
      <trkpt lat="52.12195350788533687591552734375" lon="1.474941037595272064208984375">
        <ele>-69.1999969482421875</ele>
        <time>2025-09-06T09:13:54.000Z</time>
        <extensions>
          <ns3:TrackPointExtension>
            <ns3:hr>144</ns3:hr>
            <ns3:cad>75</ns3:cad>
          </ns3:TrackPointExtension>
        </extensions>
      </trkpt>
      <trkpt lat="52.12192006409168243408203125" lon="1.47516357712447643280029296875">
        <ele>-69.1999969482421875</ele>
        <time>2025-09-06T09:14:00.000Z</time>
        <extensions>
          <ns3:TrackPointExtension>
            <ns3:hr>148</ns3:hr>
            <ns3:cad>80</ns3:cad>
          </ns3:TrackPointExtension>
        </extensions>
      </trkpt>
      <trkpt lat="52.12191595695912837982177734375" lon="1.475198529660701751708984375">
        <ele>-69.1999969482421875</ele>
        <time>2025-09-06T09:14:01.000Z</time>
        <extensions>
          <ns3:TrackPointExtension>
            <ns3:hr>151</ns3:hr>
            <ns3:cad>80</ns3:cad>
          </ns3:TrackPointExtension>
        </extensions>
      </trkpt>
      <trkpt lat="52.1219118498265743255615234375" lon="1.475233398377895355224609375">
        <ele>-69.1999969482421875</ele>
        <time>2025-09-06T09:14:02.000Z</time>
        <extensions>
          <ns3:TrackPointExtension>
            <ns3:hr>153</ns3:hr>
            <ns3:cad>80</ns3:cad>
          </ns3:TrackPointExtension>
        </extensions>
      </trkpt>
      <trkpt lat="52.12188494391739368438720703125" lon="1.4753971807658672332763671875">
        <ele>-69</ele>
        <time>2025-09-06T09:14:07.000Z</time>
        <extensions>
          <ns3:TrackPointExtension>
            <ns3:hr>156</ns3:hr>
            <ns3:cad>77</ns3:cad>
          </ns3:TrackPointExtension>
        </extensions>
      </trkpt>
      <trkpt lat="52.12187471799552440643310546875" lon="1.47547052241861820220947265625">
        <ele>-69</ele>
        <time>2025-09-06T09:14:09.000Z</time>
        <extensions>
          <ns3:TrackPointExtension>
            <ns3:hr>155</ns3:hr>
            <ns3:cad>78</ns3:cad>
          </ns3:TrackPointExtension>
        </extensions>
      </trkpt>
      <trkpt lat="52.12185543961822986602783203125" lon="1.47563179023563861846923828125">
        <ele>-68.8000030517578125</ele>
        <time>2025-09-06T09:14:14.000Z</time>
        <extensions>
          <ns3:TrackPointExtension>
            <ns3:hr>159</ns3:hr>
            <ns3:cad>79</ns3:cad>
          </ns3:TrackPointExtension>
        </extensions>
      </trkpt>
      <trkpt lat="52.12184286676347255706787109375" lon="1.47572181187570095062255859375">
        <ele>-68.59999847412109375</ele>
        <time>2025-09-06T09:14:17.000Z</time>
        <extensions>
          <ns3:TrackPointExtension>
            <ns3:hr>160</ns3:hr>
            <ns3:cad>78</ns3:cad>
          </ns3:TrackPointExtension>
        </extensions>
      </trkpt>
      <trkpt lat="52.1218126080930233001708984375" lon="1.47594259120523929595947265625">
        <ele>-68.1999969482421875</ele>
        <time>2025-09-06T09:14:24.000Z</time>
        <extensions>
          <ns3:TrackPointExtension>
            <ns3:hr>160</ns3:hr>
            <ns3:cad>77</ns3:cad>
          </ns3:TrackPointExtension>
        </extensions>
      </trkpt>
      <trkpt lat="52.12177698500454425811767578125" lon="1.47616487927734851837158203125">
        <ele>-67.40000152587890625</ele>
        <time>2025-09-06T09:14:32.000Z</time>
        <extensions>
          <ns3:TrackPointExtension>
            <ns3:hr>160</ns3:hr>
            <ns3:cad>77</ns3:cad>
          </ns3:TrackPointExtension>
        </extensions>
      </trkpt>
      <trkpt lat="52.121762149035930633544921875" lon="1.4762209542095661163330078125">
        <ele>-67.1999969482421875</ele>
        <time>2025-09-06T09:14:34.000Z</time>
        <extensions>
          <ns3:TrackPointExtension>
            <ns3:hr>160</ns3:hr>
            <ns3:cad>77</ns3:cad>
          </ns3:TrackPointExtension>
        </extensions>
      </trkpt>
      <trkpt lat="52.12173993699252605438232421875" lon="1.47637660615146160125732421875">
        <ele>-66</ele>
        <time>2025-09-06T09:14:39.000Z</time>
        <extensions>
          <ns3:TrackPointExtension>
            <ns3:hr>161</ns3:hr>
            <ns3:cad>78</ns3:cad>
          </ns3:TrackPointExtension>
        </extensions>
      </trkpt>
      <trkpt lat="52.12173230946063995361328125" lon="1.47641097195446491241455078125">
        <ele>-65.8000030517578125</ele>
        <time>2025-09-06T09:14:40.000Z</time>
        <extensions>
          <ns3:TrackPointExtension>
            <ns3:hr>163</ns3:hr>
            <ns3:cad>78</ns3:cad>
          </ns3:TrackPointExtension>
        </extensions>
      </trkpt>
      <trkpt lat="52.1217026375234127044677734375" lon="1.47651054896414279937744140625">
        <ele>-65</ele>
        <time>2025-09-06T09:14:43.000Z</time>
        <extensions>
          <ns3:TrackPointExtension>
            <ns3:hr>161</ns3:hr>
            <ns3:cad>77</ns3:cad>
          </ns3:TrackPointExtension>
        </extensions>
      </trkpt>
      <trkpt lat="52.12167070247232913970947265625" lon="1.47662890143692493438720703125">
        <ele>-64</ele>
        <time>2025-09-06T09:14:47.000Z</time>
        <extensions>
          <ns3:TrackPointExtension>
            <ns3:hr>162</ns3:hr>
            <ns3:cad>77</ns3:cad>
          </ns3:TrackPointExtension>
        </extensions>
      </trkpt>
      <trkpt lat="52.12166315875947475433349609375" lon="1.47666058503091335296630859375">
        <ele>-63.799999237060546875</ele>
        <time>2025-09-06T09:14:48.000Z</time>
        <extensions>
          <ns3:TrackPointExtension>
            <ns3:hr>161</ns3:hr>
            <ns3:cad>77</ns3:cad>
          </ns3:TrackPointExtension>
        </extensions>
      </trkpt>
      <trkpt lat="52.12164002470672130584716796875" lon="1.47680886089801788330078125">
        <ele>-62.799999237060546875</ele>
        <time>2025-09-06T09:14:53.000Z</time>
        <extensions>
          <ns3:TrackPointExtension>
            <ns3:hr>161</ns3:hr>
            <ns3:cad>78</ns3:cad>
          </ns3:TrackPointExtension>
        </extensions>
      </trkpt>
      <trkpt lat="52.12162527255713939666748046875" lon="1.4768925122916698455810546875">
        <ele>-62.200000762939453125</ele>
        <time>2025-09-06T09:14:56.000Z</time>
        <extensions>
          <ns3:TrackPointExtension>
            <ns3:hr>162</ns3:hr>
            <ns3:cad>76</ns3:cad>
          </ns3:TrackPointExtension>
        </extensions>
      </trkpt>
      <trkpt lat="52.12161219678819179534912109375" lon="1.476992927491664886474609375">
        <ele>-61.59999847412109375</ele>
        <time>2025-09-06T09:14:59.000Z</time>
        <extensions>
          <ns3:TrackPointExtension>
            <ns3:hr>163</ns3:hr>
            <ns3:cad>78</ns3:cad>
          </ns3:TrackPointExtension>
        </extensions>
      </trkpt>
      <trkpt lat="52.12158252485096454620361328125" lon="1.4771510101854801177978515625">
        <ele>-60.799999237060546875</ele>
        <time>2025-09-06T09:15:04.000Z</time>
        <extensions>
          <ns3:TrackPointExtension>
            <ns3:hr>164</ns3:hr>
            <ns3:cad>79</ns3:cad>
          </ns3:TrackPointExtension>
        </extensions>
      </trkpt>
      <trkpt lat="52.12157783098518848419189453125" lon="1.47718210704624652862548828125">
        <ele>-60.59999847412109375</ele>
        <time>2025-09-06T09:15:05.000Z</time>
        <extensions>
          <ns3:TrackPointExtension>
            <ns3:hr>164</ns3:hr>
            <ns3:cad>79</ns3:cad>
          </ns3:TrackPointExtension>
        </extensions>
      </trkpt>
      <trkpt lat="52.121544219553470611572265625" lon="1.47735561244189739227294921875">
        <ele>-59.799999237060546875</ele>
        <time>2025-09-06T09:15:10.000Z</time>
        <extensions>
          <ns3:TrackPointExtension>
            <ns3:hr>165</ns3:hr>
            <ns3:cad>80</ns3:cad>
          </ns3:TrackPointExtension>
        </extensions>
      </trkpt>
      <trkpt lat="52.12153005413711071014404296875" lon="1.4774162136018276214599609375">
        <ele>-59.59999847412109375</ele>
        <time>2025-09-06T09:15:12.000Z</time>
        <extensions>
          <ns3:TrackPointExtension>
            <ns3:hr>166</ns3:hr>
            <ns3:cad>81</ns3:cad>
          </ns3:TrackPointExtension>
        </extensions>
      </trkpt>
      <trkpt lat="52.12150591425597667694091796875" lon="1.47758762352168560028076171875">
        <ele>-58.799999237060546875</ele>
        <time>2025-09-06T09:15:17.000Z</time>
        <extensions>
          <ns3:TrackPointExtension>
            <ns3:hr>166</ns3:hr>
            <ns3:cad>80</ns3:cad>
          </ns3:TrackPointExtension>
        </extensions>
      </trkpt>
      <trkpt lat="52.1215018071234226226806640625" lon="1.47762215696275234222412109375">
        <ele>-58.799999237060546875</ele>
        <time>2025-09-06T09:15:18.000Z</time>
        <extensions>
          <ns3:TrackPointExtension>
            <ns3:hr>169</ns3:hr>
            <ns3:cad>80</ns3:cad>
          </ns3:TrackPointExtension>
        </extensions>
      </trkpt>
      <trkpt lat="52.1215001307427883148193359375" lon="1.47765769623219966888427734375">
        <ele>-58.59999847412109375</ele>
        <time>2025-09-06T09:15:19.000Z</time>
        <extensions>
          <ns3:TrackPointExtension>
            <ns3:hr>168</ns3:hr>
            <ns3:cad>80</ns3:cad>
          </ns3:TrackPointExtension>
        </extensions>
      </trkpt>
      <trkpt lat="52.12148688733577728271484375" lon="1.477782167494297027587890625">
        <ele>-58</ele>
        <time>2025-09-06T09:15:23.000Z</time>
        <extensions>
          <ns3:TrackPointExtension>
            <ns3:hr>165</ns3:hr>
            <ns3:cad>80</ns3:cad>
          </ns3:TrackPointExtension>
        </extensions>
      </trkpt>
      <trkpt lat="52.1214702911674976348876953125" lon="1.4778792299330234527587890625">
        <ele>-57.59999847412109375</ele>
        <time>2025-09-06T09:15:26.000Z</time>
        <extensions>
          <ns3:TrackPointExtension>
            <ns3:hr>165</ns3:hr>
            <ns3:cad>78</ns3:cad>
          </ns3:TrackPointExtension>
        </extensions>
      </trkpt>
      <trkpt lat="52.12146677076816558837890625" lon="1.4779161103069782257080078125">
        <ele>-57.40000152587890625</ele>
        <time>2025-09-06T09:15:27.000Z</time>
        <extensions>
          <ns3:TrackPointExtension>
            <ns3:hr>165</ns3:hr>
            <ns3:cad>78</ns3:cad>
          </ns3:TrackPointExtension>
        </extensions>
      </trkpt>
      <trkpt lat="52.1214424632489681243896484375" lon="1.4780529029667377471923828125">
        <ele>-56.59999847412109375</ele>
        <time>2025-09-06T09:15:32.000Z</time>
        <extensions>
          <ns3:TrackPointExtension>
            <ns3:hr>162</ns3:hr>
            <ns3:cad>77</ns3:cad>
          </ns3:TrackPointExtension>
        </extensions>
      </trkpt>
      <trkpt lat="52.12144003249704837799072265625" lon="1.47807880304753780364990234375">
        <ele>-56.59999847412109375</ele>
        <time>2025-09-06T09:15:33.000Z</time>
        <extensions>
          <ns3:TrackPointExtension>
            <ns3:hr>163</ns3:hr>
            <ns3:cad>76</ns3:cad>
          </ns3:TrackPointExtension>
        </extensions>
      </trkpt>
      <trkpt lat="52.1214218437671661376953125" lon="1.47823956795036792755126953125">
        <ele>-55.799999237060546875</ele>
        <time>2025-09-06T09:15:39.000Z</time>
        <extensions>
          <ns3:TrackPointExtension>
            <ns3:hr>171</ns3:hr>
            <ns3:cad>73</ns3:cad>
          </ns3:TrackPointExtension>
        </extensions>
      </trkpt>
      <trkpt lat="52.12142159231007099151611328125" lon="1.4782604388892650604248046875">
        <ele>-55.59999847412109375</ele>
        <time>2025-09-06T09:15:40.000Z</time>
        <extensions>
          <ns3:TrackPointExtension>
            <ns3:hr>172</ns3:hr>
            <ns3:cad>73</ns3:cad>
          </ns3:TrackPointExtension>
        </extensions>
      </trkpt>
      <trkpt lat="52.1214213408529758453369140625" lon="1.4782929606735706329345703125">
        <ele>-55.59999847412109375</ele>
        <time>2025-09-06T09:15:42.000Z</time>
        <extensions>
          <ns3:TrackPointExtension>
            <ns3:hr>172</ns3:hr>
            <ns3:cad>75</ns3:cad>
          </ns3:TrackPointExtension>
        </extensions>
      </trkpt>
      <trkpt lat="52.12142896838486194610595703125" lon="1.478321962058544158935546875">
        <ele>-55.40000152587890625</ele>
        <time>2025-09-06T09:15:44.000Z</time>
        <extensions>
          <ns3:TrackPointExtension>
            <ns3:hr>172</ns3:hr>
            <ns3:cad>79</ns3:cad>
          </ns3:TrackPointExtension>
        </extensions>
      </trkpt>
      <trkpt lat="52.12145511992275714874267578125" lon="1.4783445931971073150634765625">
        <ele>-55.200000762939453125</ele>
        <time>2025-09-06T09:15:46.000Z</time>
        <extensions>
          <ns3:TrackPointExtension>
            <ns3:hr>171</ns3:hr>
            <ns3:cad>79</ns3:cad>
          </ns3:TrackPointExtension>
        </extensions>
      </trkpt>
      <trkpt lat="52.12147875688970088958740234375" lon="1.47836948744952678680419921875">
        <ele>-55</ele>
        <time>2025-09-06T09:15:52.000Z</time>
        <extensions>
          <ns3:TrackPointExtension>
            <ns3:hr>173</ns3:hr>
            <ns3:cad>0</ns3:cad>
          </ns3:TrackPointExtension>
        </extensions>
      </trkpt>
      <trkpt lat="52.1214934252202510833740234375" lon="1.4783593453466892242431640625">
        <ele>-54.799999237060546875</ele>
        <time>2025-09-06T09:15:56.000Z</time>
        <extensions>
          <ns3:TrackPointExtension>
            <ns3:hr>170</ns3:hr>
            <ns3:cad>65</ns3:cad>
          </ns3:TrackPointExtension>
        </extensions>
      </trkpt>
      <trkpt lat="52.12153877131640911102294921875" lon="1.478352807462215423583984375">
        <ele>-54.59999847412109375</ele>
        <time>2025-09-06T09:15:59.000Z</time>
        <extensions>
          <ns3:TrackPointExtension>
            <ns3:hr>169</ns3:hr>
            <ns3:cad>55</ns3:cad>
          </ns3:TrackPointExtension>
        </extensions>
      </trkpt>
      <trkpt lat="52.12157028727233409881591796875" lon="1.47834450937807559967041015625">
        <ele>-54.59999847412109375</ele>
        <time>2025-09-06T09:16:01.000Z</time>
        <extensions>
          <ns3:TrackPointExtension>
            <ns3:hr>166</ns3:hr>
            <ns3:cad>75</ns3:cad>
          </ns3:TrackPointExtension>
        </extensions>
      </trkpt>
      <trkpt lat="52.12160289287567138671875" lon="1.47834635339677333831787109375">
        <ele>-54.40000152587890625</ele>
        <time>2025-09-06T09:16:03.000Z</time>
        <extensions>
          <ns3:TrackPointExtension>
            <ns3:hr>166</ns3:hr>
            <ns3:cad>75</ns3:cad>
          </ns3:TrackPointExtension>
        </extensions>
      </trkpt>
      <trkpt lat="52.12165678851306438446044921875" lon="1.47835657931864261627197265625">
        <ele>-54.200000762939453125</ele>
        <time>2025-09-06T09:16:06.000Z</time>
        <extensions>
          <ns3:TrackPointExtension>
            <ns3:hr>167</ns3:hr>
            <ns3:cad>77</ns3:cad>
          </ns3:TrackPointExtension>
        </extensions>
      </trkpt>
      <trkpt lat="52.12172250263392925262451171875" lon="1.4783630333840847015380859375">
        <ele>-53.59999847412109375</ele>
        <time>2025-09-06T09:16:10.000Z</time>
        <extensions>
          <ns3:TrackPointExtension>
            <ns3:hr>170</ns3:hr>
            <ns3:cad>79</ns3:cad>
          </ns3:TrackPointExtension>
        </extensions>
      </trkpt>
      <trkpt lat="52.12174379266798496246337890625" lon="1.47836412303149700164794921875">
        <ele>-53.40000152587890625</ele>
        <time>2025-09-06T09:16:11.000Z</time>
        <extensions>
          <ns3:TrackPointExtension>
            <ns3:hr>171</ns3:hr>
            <ns3:cad>79</ns3:cad>
          </ns3:TrackPointExtension>
        </extensions>
      </trkpt>
      <trkpt lat="52.12178385816514492034912109375" lon="1.47835917770862579345703125">
        <ele>-52.799999237060546875</ele>
        <time>2025-09-06T09:16:13.000Z</time>
        <extensions>
          <ns3:TrackPointExtension>
            <ns3:hr>172</ns3:hr>
            <ns3:cad>79</ns3:cad>
          </ns3:TrackPointExtension>
        </extensions>
      </trkpt>
      <trkpt lat="52.1218266896903514862060546875" lon="1.47835113108158111572265625">
        <ele>-52.200000762939453125</ele>
        <time>2025-09-06T09:16:15.000Z</time>
        <extensions>
          <ns3:TrackPointExtension>
            <ns3:hr>173</ns3:hr>
            <ns3:cad>80</ns3:cad>
          </ns3:TrackPointExtension>
        </extensions>
      </trkpt>
      <trkpt lat="52.12187807075679302215576171875" lon="1.478351466357707977294921875">
        <ele>-51.200000762939453125</ele>
        <time>2025-09-06T09:16:18.000Z</time>
        <extensions>
          <ns3:TrackPointExtension>
            <ns3:hr>176</ns3:hr>
            <ns3:cad>79</ns3:cad>
          </ns3:TrackPointExtension>
        </extensions>
      </trkpt>
      <trkpt lat="52.12189299054443836212158203125" lon="1.47835389710962772369384765625">
        <ele>-50.799999237060546875</ele>
        <time>2025-09-06T09:16:19.000Z</time>
        <extensions>
          <ns3:TrackPointExtension>
            <ns3:hr>176</ns3:hr>
            <ns3:cad>79</ns3:cad>
          </ns3:TrackPointExtension>
        </extensions>
      </trkpt>
      <trkpt lat="52.1219078265130519866943359375" lon="1.4783566631376743316650390625">
        <ele>-50.40000152587890625</ele>
        <time>2025-09-06T09:16:20.000Z</time>
        <extensions>
          <ns3:TrackPointExtension>
            <ns3:hr>176</ns3:hr>
            <ns3:cad>79</ns3:cad>
          </ns3:TrackPointExtension>
        </extensions>
      </trkpt>
      <trkpt lat="52.12194428779184818267822265625" lon="1.478352807462215423583984375">
        <ele>-49.799999237060546875</ele>
        <time>2025-09-06T09:16:22.000Z</time>
        <extensions>
          <ns3:TrackPointExtension>
            <ns3:hr>176</ns3:hr>
            <ns3:cad>78</ns3:cad>
          </ns3:TrackPointExtension>
        </extensions>
      </trkpt>
      <trkpt lat="52.12200715206563472747802734375" lon="1.4783509634435176849365234375">
        <ele>-48.59999847412109375</ele>
        <time>2025-09-06T09:16:25.000Z</time>
        <extensions>
          <ns3:TrackPointExtension>
            <ns3:hr>174</ns3:hr>
            <ns3:cad>78</ns3:cad>
          </ns3:TrackPointExtension>
        </extensions>
      </trkpt>
      <trkpt lat="52.12205274961888790130615234375" lon="1.47834517993032932281494140625">
        <ele>-47.799999237060546875</ele>
        <time>2025-09-06T09:16:27.000Z</time>
        <extensions>
          <ns3:TrackPointExtension>
            <ns3:hr>175</ns3:hr>
            <ns3:cad>78</ns3:cad>
          </ns3:TrackPointExtension>
        </extensions>
      </trkpt>
      <trkpt lat="52.1220771409571170806884765625" lon="1.47834165953099727630615234375">
        <ele>-47.40000152587890625</ele>
        <time>2025-09-06T09:16:28.000Z</time>
        <extensions>
          <ns3:TrackPointExtension>
            <ns3:hr>176</ns3:hr>
            <ns3:cad>79</ns3:cad>
          </ns3:TrackPointExtension>
        </extensions>
      </trkpt>
      <trkpt lat="52.12216414511203765869140625" lon="1.4783479459583759307861328125">
        <ele>-46.200000762939453125</ele>
        <time>2025-09-06T09:16:32.000Z</time>
        <extensions>
          <ns3:TrackPointExtension>
            <ns3:hr>176</ns3:hr>
            <ns3:cad>80</ns3:cad>
          </ns3:TrackPointExtension>
        </extensions>
      </trkpt>
      <trkpt lat="52.12222809903323650360107421875" lon="1.47835607640445232391357421875">
        <ele>-45.40000152587890625</ele>
        <time>2025-09-06T09:16:35.000Z</time>
        <extensions>
          <ns3:TrackPointExtension>
            <ns3:hr>176</ns3:hr>
            <ns3:cad>79</ns3:cad>
          </ns3:TrackPointExtension>
        </extensions>
      </trkpt>
      <trkpt lat="52.12225265800952911376953125" lon="1.4783533103764057159423828125">
        <ele>-45</ele>
        <time>2025-09-06T09:16:36.000Z</time>
        <extensions>
          <ns3:TrackPointExtension>
            <ns3:hr>176</ns3:hr>
            <ns3:cad>79</ns3:cad>
          </ns3:TrackPointExtension>
        </extensions>
      </trkpt>
      <trkpt lat="52.1223745308816432952880859375" lon="1.47835892625153064727783203125">
        <ele>-44</ele>
        <time>2025-09-06T09:16:41.000Z</time>
        <extensions>
          <ns3:TrackPointExtension>
            <ns3:hr>175</ns3:hr>
            <ns3:cad>80</ns3:cad>
          </ns3:TrackPointExtension>
        </extensions>
      </trkpt>
      <trkpt lat="52.122394479811191558837890625" lon="1.47836345247924327850341796875">
        <ele>-43.799999237060546875</ele>
        <time>2025-09-06T09:16:42.000Z</time>
        <extensions>
          <ns3:TrackPointExtension>
            <ns3:hr>175</ns3:hr>
            <ns3:cad>80</ns3:cad>
          </ns3:TrackPointExtension>
        </extensions>
      </trkpt>
      <trkpt lat="52.1225564181804656982421875" lon="1.47837317548692226409912109375">
        <ele>-43</ele>
        <time>2025-09-06T09:16:49.000Z</time>
        <extensions>
          <ns3:TrackPointExtension>
            <ns3:hr>174</ns3:hr>
            <ns3:cad>78</ns3:cad>
          </ns3:TrackPointExtension>
        </extensions>
      </trkpt>
      <trkpt lat="52.1225777082145214080810546875" lon="1.47839136421680450439453125">
        <ele>-42.799999237060546875</ele>
        <time>2025-09-06T09:16:50.000Z</time>
        <extensions>
          <ns3:TrackPointExtension>
            <ns3:hr>173</ns3:hr>
            <ns3:cad>78</ns3:cad>
          </ns3:TrackPointExtension>
        </extensions>
      </trkpt>
      <trkpt lat="52.12274593301117420196533203125" lon="1.47839060984551906585693359375">
        <ele>-42</ele>
        <time>2025-09-06T09:16:58.000Z</time>
        <extensions>
          <ns3:TrackPointExtension>
            <ns3:hr>175</ns3:hr>
            <ns3:cad>80</ns3:cad>
          </ns3:TrackPointExtension>
        </extensions>
      </trkpt>
      <trkpt lat="52.122768647968769073486328125" lon="1.4783888496458530426025390625">
        <ele>-41.799999237060546875</ele>
        <time>2025-09-06T09:16:59.000Z</time>
        <extensions>
          <ns3:TrackPointExtension>
            <ns3:hr>175</ns3:hr>
            <ns3:cad>80</ns3:cad>
          </ns3:TrackPointExtension>
        </extensions>
      </trkpt>
      <trkpt lat="52.122939638793468475341796875" lon="1.4783875085413455963134765625">
        <ele>-41.40000152587890625</ele>
        <time>2025-09-06T09:17:06.000Z</time>
        <extensions>
          <ns3:TrackPointExtension>
            <ns3:hr>176</ns3:hr>
            <ns3:cad>81</ns3:cad>
          </ns3:TrackPointExtension>
        </extensions>
      </trkpt>
      <trkpt lat="52.12306846864521503448486328125" lon="1.478404104709625244140625">
        <ele>-41.40000152587890625</ele>
        <time>2025-09-06T09:17:12.000Z</time>
        <extensions>
          <ns3:TrackPointExtension>
            <ns3:hr>173</ns3:hr>
            <ns3:cad>79</ns3:cad>
          </ns3:TrackPointExtension>
        </extensions>
      </trkpt>
      <trkpt lat="52.1231292374432086944580078125" lon="1.47841106168925762176513671875">
        <ele>-41.40000152587890625</ele>
        <time>2025-09-06T09:17:15.000Z</time>
        <extensions>
          <ns3:TrackPointExtension>
            <ns3:hr>172</ns3:hr>
            <ns3:cad>79</ns3:cad>
          </ns3:TrackPointExtension>
        </extensions>
      </trkpt>
      <trkpt lat="52.123254798352718353271484375" lon="1.47842061705887317657470703125">
        <ele>-41.40000152587890625</ele>
        <time>2025-09-06T09:17:22.000Z</time>
        <extensions>
          <ns3:TrackPointExtension>
            <ns3:hr>170</ns3:hr>
            <ns3:cad>78</ns3:cad>
          </ns3:TrackPointExtension>
        </extensions>
      </trkpt>
      <trkpt lat="52.123307101428508758544921875" lon="1.4784005843102931976318359375">
        <ele>-41.59999847412109375</ele>
        <time>2025-09-06T09:17:28.000Z</time>
        <extensions>
          <ns3:TrackPointExtension>
            <ns3:hr>166</ns3:hr>
            <ns3:cad>76</ns3:cad>
          </ns3:TrackPointExtension>
        </extensions>
      </trkpt>
      <trkpt lat="52.12333065457642078399658203125" lon="1.4783972315490245819091796875">
        <ele>-41.59999847412109375</ele>
        <time>2025-09-06T09:17:31.000Z</time>
        <extensions>
          <ns3:TrackPointExtension>
            <ns3:hr>167</ns3:hr>
            <ns3:cad>54</ns3:cad>
          </ns3:TrackPointExtension>
        </extensions>
      </trkpt>
      <trkpt lat="52.12334255687892436981201171875" lon="1.478394381701946258544921875">
        <ele>-41.59999847412109375</ele>
        <time>2025-09-06T09:17:33.000Z</time>
        <extensions>
          <ns3:TrackPointExtension>
            <ns3:hr>164</ns3:hr>
            <ns3:cad>55</ns3:cad>
          </ns3:TrackPointExtension>
        </extensions>
      </trkpt>
      <trkpt lat="52.12338094599545001983642578125" lon="1.47838893346488475799560546875">
        <ele>-41.59999847412109375</ele>
        <time>2025-09-06T09:17:37.000Z</time>
        <extensions>
          <ns3:TrackPointExtension>
            <ns3:hr>161</ns3:hr>
            <ns3:cad>54</ns3:cad>
          </ns3:TrackPointExtension>
        </extensions>
      </trkpt>
      <trkpt lat="52.1234068460762500762939453125" lon="1.47836278192698955535888671875">
        <ele>-41.799999237060546875</ele>
        <time>2025-09-06T09:17:40.000Z</time>
        <extensions>
          <ns3:TrackPointExtension>
            <ns3:hr>161</ns3:hr>
            <ns3:cad>54</ns3:cad>
          </ns3:TrackPointExtension>
        </extensions>
      </trkpt>
      <trkpt lat="52.1234702132642269134521484375" lon="1.4783057011663913726806640625">
        <ele>-42.59999847412109375</ele>
        <time>2025-09-06T09:17:46.000Z</time>
        <extensions>
          <ns3:TrackPointExtension>
            <ns3:hr>158</ns3:hr>
            <ns3:cad>58</ns3:cad>
          </ns3:TrackPointExtension>
        </extensions>
      </trkpt>
      <trkpt lat="52.12350198067724704742431640625" lon="1.47827577777206897735595703125">
        <ele>-43</ele>
        <time>2025-09-06T09:17:49.000Z</time>
        <extensions>
          <ns3:TrackPointExtension>
            <ns3:hr>156</ns3:hr>
            <ns3:cad>58</ns3:cad>
          </ns3:TrackPointExtension>
        </extensions>
      </trkpt>
      <trkpt lat="52.12356316857039928436279296875" lon="1.4782305993139743804931640625">
        <ele>-43.799999237060546875</ele>
        <time>2025-09-06T09:17:55.000Z</time>
        <extensions>
          <ns3:TrackPointExtension>
            <ns3:hr>152</ns3:hr>
            <ns3:cad>0</ns3:cad>
          </ns3:TrackPointExtension>
        </extensions>
      </trkpt>
      <trkpt lat="52.12357775308191776275634765625" lon="1.478225402534008026123046875">
        <ele>-44</ele>
        <time>2025-09-06T09:17:57.000Z</time>
        <extensions>
          <ns3:TrackPointExtension>
            <ns3:hr>150</ns3:hr>
            <ns3:cad>0</ns3:cad>
          </ns3:TrackPointExtension>
        </extensions>
      </trkpt>
      <trkpt lat="52.12358445860445499420166015625" lon="1.4782191999256610870361328125">
        <ele>-44</ele>
        <time>2025-09-06T09:17:58.000Z</time>
        <extensions>
          <ns3:TrackPointExtension>
            <ns3:hr>150</ns3:hr>
            <ns3:cad>0</ns3:cad>
          </ns3:TrackPointExtension>
        </extensions>
      </trkpt>
      <trkpt lat="52.123580686748027801513671875" lon="1.478206627070903778076171875">
        <ele>-44.59999847412109375</ele>
        <time>2025-09-06T09:18:05.000Z</time>
        <extensions>
          <ns3:TrackPointExtension>
            <ns3:hr>147</ns3:hr>
            <ns3:cad>0</ns3:cad>
          </ns3:TrackPointExtension>
        </extensions>
      </trkpt>
      <trkpt lat="52.12358303368091583251953125" lon="1.47821207530796527862548828125">
        <ele>-43.200000762939453125</ele>
        <time>2025-09-06T09:18:13.000Z</time>
        <extensions>
          <ns3:TrackPointExtension>
            <ns3:hr>144</ns3:hr>
            <ns3:cad>0</ns3:cad>
          </ns3:TrackPointExtension>
        </extensions>
      </trkpt>
      <trkpt lat="52.12358362041413784027099609375" lon="1.47821039892733097076416015625">
        <ele>-43</ele>
        <time>2025-09-06T09:18:14.000Z</time>
        <extensions>
          <ns3:TrackPointExtension>
            <ns3:hr>144</ns3:hr>
            <ns3:cad>0</ns3:cad>
          </ns3:TrackPointExtension>
        </extensions>
      </trkpt>
      <trkpt lat="52.123578004539012908935546875" lon="1.4782123267650604248046875">
        <ele>-42.40000152587890625</ele>
        <time>2025-09-06T09:18:16.000Z</time>
        <extensions>
          <ns3:TrackPointExtension>
            <ns3:hr>144</ns3:hr>
            <ns3:cad>0</ns3:cad>
          </ns3:TrackPointExtension>
        </extensions>
      </trkpt>
      <trkpt lat="52.12357741780579090118408203125" lon="1.47819732315838336944580078125">
        <ele>-41.59999847412109375</ele>
        <time>2025-09-06T09:18:18.000Z</time>
        <extensions>
          <ns3:TrackPointExtension>
            <ns3:hr>143</ns3:hr>
            <ns3:cad>0</ns3:cad>
          </ns3:TrackPointExtension>
        </extensions>
      </trkpt>
      <trkpt lat="52.12358437478542327880859375" lon="1.4781725965440273284912109375">
        <ele>-40.799999237060546875</ele>
        <time>2025-09-06T09:18:21.000Z</time>
        <extensions>
          <ns3:TrackPointExtension>
            <ns3:hr>143</ns3:hr>
            <ns3:cad>0</ns3:cad>
          </ns3:TrackPointExtension>
        </extensions>
      </trkpt>
      <trkpt lat="52.123590409755706787109375" lon="1.4781601913273334503173828125">
        <ele>-40.40000152587890625</ele>
        <time>2025-09-06T09:18:22.000Z</time>
        <extensions>
          <ns3:TrackPointExtension>
            <ns3:hr>141</ns3:hr>
            <ns3:cad>0</ns3:cad>
          </ns3:TrackPointExtension>
        </extensions>
      </trkpt>
      <trkpt lat="52.123610861599445343017578125" lon="1.47813211195170879364013671875">
        <ele>-39.200000762939453125</ele>
        <time>2025-09-06T09:18:26.000Z</time>
        <extensions>
          <ns3:TrackPointExtension>
            <ns3:hr>142</ns3:hr>
            <ns3:cad>0</ns3:cad>
          </ns3:TrackPointExtension>
        </extensions>
      </trkpt>
      <trkpt lat="52.123620919883251190185546875" lon="1.47812641225755214691162109375">
        <ele>-38</ele>
        <time>2025-09-06T09:18:31.000Z</time>
        <extensions>
          <ns3:TrackPointExtension>
            <ns3:hr>142</ns3:hr>
            <ns3:cad>0</ns3:cad>
          </ns3:TrackPointExtension>
        </extensions>
      </trkpt>
      <trkpt lat="52.1236247755587100982666015625" lon="1.47813496179878711700439453125">
        <ele>-37.799999237060546875</ele>
        <time>2025-09-06T09:18:32.000Z</time>
        <extensions>
          <ns3:TrackPointExtension>
            <ns3:hr>140</ns3:hr>
            <ns3:cad>0</ns3:cad>
          </ns3:TrackPointExtension>
        </extensions>
      </trkpt>
      <trkpt lat="52.12363994680345058441162109375" lon="1.47814636118710041046142578125">
        <ele>-37.40000152587890625</ele>
        <time>2025-09-06T09:18:36.000Z</time>
        <extensions>
          <ns3:TrackPointExtension>
            <ns3:hr>137</ns3:hr>
            <ns3:cad>0</ns3:cad>
          </ns3:TrackPointExtension>
        </extensions>
      </trkpt>
      <trkpt lat="52.12364749051630496978759765625" lon="1.478142924606800079345703125">
        <ele>-37</ele>
        <time>2025-09-06T09:18:39.000Z</time>
        <extensions>
          <ns3:TrackPointExtension>
            <ns3:hr>137</ns3:hr>
            <ns3:cad>0</ns3:cad>
          </ns3:TrackPointExtension>
        </extensions>
      </trkpt>
      <trkpt lat="52.12365939281880855560302734375" lon="1.4781457744538784027099609375">
        <ele>-36.799999237060546875</ele>
        <time>2025-09-06T09:18:42.000Z</time>
        <extensions>
          <ns3:TrackPointExtension>
            <ns3:hr>131</ns3:hr>
            <ns3:cad>0</ns3:cad>
          </ns3:TrackPointExtension>
        </extensions>
      </trkpt>
      <trkpt lat="52.1236643381416797637939453125" lon="1.4781447686254978179931640625">
        <ele>-36.59999847412109375</ele>
        <time>2025-09-06T09:18:44.000Z</time>
        <extensions>
          <ns3:TrackPointExtension>
            <ns3:hr>128</ns3:hr>
            <ns3:cad>0</ns3:cad>
          </ns3:TrackPointExtension>
        </extensions>
      </trkpt>
      <trkpt lat="52.1236686967313289642333984375" lon="1.47813923656940460205078125">
        <ele>-36.40000152587890625</ele>
        <time>2025-09-06T09:18:46.000Z</time>
        <extensions>
          <ns3:TrackPointExtension>
            <ns3:hr>122</ns3:hr>
            <ns3:cad>0</ns3:cad>
          </ns3:TrackPointExtension>
        </extensions>
      </trkpt>
      <trkpt lat="52.12366894818842411041259765625" lon="1.4781293459236621856689453125">
        <ele>-36.200000762939453125</ele>
        <time>2025-09-06T09:18:48.000Z</time>
        <extensions>
          <ns3:TrackPointExtension>
            <ns3:hr>119</ns3:hr>
            <ns3:cad>0</ns3:cad>
          </ns3:TrackPointExtension>
        </extensions>
      </trkpt>
      <trkpt lat="52.12366056628525257110595703125" lon="1.47812020964920520782470703125">
        <ele>-36</ele>
        <time>2025-09-06T09:18:50.000Z</time>
        <extensions>
          <ns3:TrackPointExtension>
            <ns3:hr>119</ns3:hr>
            <ns3:cad>0</ns3:cad>
          </ns3:TrackPointExtension>
        </extensions>
      </trkpt>
      <trkpt lat="52.1236080117523670196533203125" lon="1.47813127376139163970947265625">
        <ele>-35</ele>
        <time>2025-09-06T09:19:00.000Z</time>
        <extensions>
          <ns3:TrackPointExtension>
            <ns3:hr>119</ns3:hr>
            <ns3:cad>43</ns3:cad>
          </ns3:TrackPointExtension>
        </extensions>
      </trkpt>
      <trkpt lat="52.12359988130629062652587890625" lon="1.47812850773334503173828125">
        <ele>-34.799999237060546875</ele>
        <time>2025-09-06T09:19:01.000Z</time>
        <extensions>
          <ns3:TrackPointExtension>
            <ns3:hr>119</ns3:hr>
            <ns3:cad>45</ns3:cad>
          </ns3:TrackPointExtension>
        </extensions>
      </trkpt>
      <trkpt lat="52.1235476620495319366455078125" lon="1.4780894480645656585693359375">
        <ele>-33.799999237060546875</ele>
        <time>2025-09-06T09:19:07.000Z</time>
        <extensions>
          <ns3:TrackPointExtension>
            <ns3:hr>120</ns3:hr>
            <ns3:cad>42</ns3:cad>
          </ns3:TrackPointExtension>
        </extensions>
      </trkpt>
      <trkpt lat="52.12354422546923160552978515625" lon="1.4780830778181552886962890625">
        <ele>-33.40000152587890625</ele>
        <time>2025-09-06T09:19:08.000Z</time>
        <extensions>
          <ns3:TrackPointExtension>
            <ns3:hr>115</ns3:hr>
            <ns3:cad>0</ns3:cad>
          </ns3:TrackPointExtension>
        </extensions>
      </trkpt>
      <trkpt lat="52.1235335804522037506103515625" lon="1.4780730195343494415283203125">
        <ele>-32.40000152587890625</ele>
        <time>2025-09-06T09:19:10.000Z</time>
        <extensions>
          <ns3:TrackPointExtension>
            <ns3:hr>115</ns3:hr>
            <ns3:cad>0</ns3:cad>
          </ns3:TrackPointExtension>
        </extensions>
      </trkpt>
      <trkpt lat="52.1235198341310024261474609375" lon="1.47806170396506786346435546875">
        <ele>-31.3999996185302734375</ele>
        <time>2025-09-06T09:19:12.000Z</time>
        <extensions>
          <ns3:TrackPointExtension>
            <ns3:hr>114</ns3:hr>
            <ns3:cad>0</ns3:cad>
          </ns3:TrackPointExtension>
        </extensions>
      </trkpt>
      <trkpt lat="52.1235139667987823486328125" lon="1.47805742919445037841796875">
        <ele>-30.799999237060546875</ele>
        <time>2025-09-06T09:19:13.000Z</time>
        <extensions>
          <ns3:TrackPointExtension>
            <ns3:hr>113</ns3:hr>
            <ns3:cad>0</ns3:cad>
          </ns3:TrackPointExtension>
        </extensions>
      </trkpt>
      <trkpt lat="52.1235077641904354095458984375" lon="1.47805273532867431640625">
        <ele>-30.3999996185302734375</ele>
        <time>2025-09-06T09:19:14.000Z</time>
        <extensions>
          <ns3:TrackPointExtension>
            <ns3:hr>114</ns3:hr>
            <ns3:cad>0</ns3:cad>
          </ns3:TrackPointExtension>
        </extensions>
      </trkpt>
      <trkpt lat="52.12350063957273960113525390625" lon="1.478049047291278839111328125">
        <ele>-29.200000762939453125</ele>
        <time>2025-09-06T09:19:16.000Z</time>
        <extensions>
          <ns3:TrackPointExtension>
            <ns3:hr>114</ns3:hr>
            <ns3:cad>0</ns3:cad>
          </ns3:TrackPointExtension>
        </extensions>
      </trkpt>
      <trkpt lat="52.12350256741046905517578125" lon="1.47803940810263156890869140625">
        <ele>-28.200000762939453125</ele>
        <time>2025-09-06T09:19:18.000Z</time>
        <extensions>
          <ns3:TrackPointExtension>
            <ns3:hr>115</ns3:hr>
            <ns3:cad>0</ns3:cad>
          </ns3:TrackPointExtension>
        </extensions>
      </trkpt>
      <trkpt lat="52.12349988520145416259765625" lon="1.4780378155410289764404296875">
        <ele>-27</ele>
        <time>2025-09-06T09:19:20.000Z</time>
        <extensions>
          <ns3:TrackPointExtension>
            <ns3:hr>114</ns3:hr>
            <ns3:cad>0</ns3:cad>
          </ns3:TrackPointExtension>
        </extensions>
      </trkpt>
      <trkpt lat="52.1234997175633907318115234375" lon="1.4780379831790924072265625">
        <ele>-26</ele>
        <time>2025-09-06T09:19:22.000Z</time>
        <extensions>
          <ns3:TrackPointExtension>
            <ns3:hr>116</ns3:hr>
            <ns3:cad>0</ns3:cad>
          </ns3:TrackPointExtension>
        </extensions>
      </trkpt>
      <trkpt lat="52.1234990470111370086669921875" lon="1.47803773172199726104736328125">
        <ele>-24.799999237060546875</ele>
        <time>2025-09-06T09:19:24.000Z</time>
        <extensions>
          <ns3:TrackPointExtension>
            <ns3:hr>117</ns3:hr>
            <ns3:cad>0</ns3:cad>
          </ns3:TrackPointExtension>
        </extensions>
      </trkpt>
      <trkpt lat="52.1234987117350101470947265625" lon="1.4780378155410289764404296875">
        <ele>-23.6000003814697265625</ele>
        <time>2025-09-06T09:19:26.000Z</time>
        <extensions>
          <ns3:TrackPointExtension>
            <ns3:hr>116</ns3:hr>
            <ns3:cad>0</ns3:cad>
          </ns3:TrackPointExtension>
        </extensions>
      </trkpt>
      <trkpt lat="52.1234987117350101470947265625" lon="1.4780379831790924072265625">
        <ele>-22.3999996185302734375</ele>
        <time>2025-09-06T09:19:28.000Z</time>
        <extensions>
          <ns3:TrackPointExtension>
            <ns3:hr>117</ns3:hr>
            <ns3:cad>0</ns3:cad>
          </ns3:TrackPointExtension>
        </extensions>
      </trkpt>
      <trkpt lat="52.12349879555404186248779296875" lon="1.47803789936006069183349609375">
        <ele>-21.3999996185302734375</ele>
        <time>2025-09-06T09:19:30.000Z</time>
        <extensions>
          <ns3:TrackPointExtension>
            <ns3:hr>116</ns3:hr>
            <ns3:cad>0</ns3:cad>
          </ns3:TrackPointExtension>
        </extensions>
      </trkpt>
      <trkpt lat="52.123498879373073577880859375" lon="1.47803865373134613037109375">
        <ele>-20.200000762939453125</ele>
        <time>2025-09-06T09:19:32.000Z</time>
        <extensions>
          <ns3:TrackPointExtension>
            <ns3:hr>115</ns3:hr>
            <ns3:cad>0</ns3:cad>
          </ns3:TrackPointExtension>
        </extensions>
      </trkpt>
      <trkpt lat="52.1234990470111370086669921875" lon="1.47803873755037784576416015625">
        <ele>-19</ele>
        <time>2025-09-06T09:19:34.000Z</time>
        <extensions>
          <ns3:TrackPointExtension>
            <ns3:hr>113</ns3:hr>
            <ns3:cad>0</ns3:cad>
          </ns3:TrackPointExtension>
        </extensions>
      </trkpt>
      <trkpt lat="52.1234993822872638702392578125" lon="1.47803907282650470733642578125">
        <ele>-17.799999237060546875</ele>
        <time>2025-09-06T09:19:36.000Z</time>
        <extensions>
          <ns3:TrackPointExtension>
            <ns3:hr>113</ns3:hr>
            <ns3:cad>0</ns3:cad>
          </ns3:TrackPointExtension>
        </extensions>
      </trkpt>
      <trkpt lat="52.1235000528395175933837890625" lon="1.47803856991231441497802734375">
        <ele>-16.3999996185302734375</ele>
        <time>2025-09-06T09:19:38.000Z</time>
        <extensions>
          <ns3:TrackPointExtension>
            <ns3:hr>112</ns3:hr>
            <ns3:cad>0</ns3:cad>
          </ns3:TrackPointExtension>
        </extensions>
      </trkpt>
      <trkpt lat="52.1235007233917713165283203125" lon="1.478036306798458099365234375">
        <ele>-15</ele>
        <time>2025-09-06T09:19:40.000Z</time>
        <extensions>
          <ns3:TrackPointExtension>
            <ns3:hr>112</ns3:hr>
            <ns3:cad>0</ns3:cad>
          </ns3:TrackPointExtension>
        </extensions>
      </trkpt>
      <trkpt lat="52.12350332178175449371337890625" lon="1.47803689353168010711669921875">
        <ele>-13.6000003814697265625</ele>
        <time>2025-09-06T09:19:42.000Z</time>
        <extensions>
          <ns3:TrackPointExtension>
            <ns3:hr>112</ns3:hr>
            <ns3:cad>0</ns3:cad>
          </ns3:TrackPointExtension>
        </extensions>
      </trkpt>
      <trkpt lat="52.12350617162883281707763671875" lon="1.47803974337875843048095703125">
        <ele>-12.19999980926513671875</ele>
        <time>2025-09-06T09:19:44.000Z</time>
        <extensions>
          <ns3:TrackPointExtension>
            <ns3:hr>112</ns3:hr>
            <ns3:cad>0</ns3:cad>
          </ns3:TrackPointExtension>
        </extensions>
      </trkpt>
      <trkpt lat="52.12350927293300628662109375" lon="1.47804628126323223114013671875">
        <ele>-10.6000003814697265625</ele>
        <time>2025-09-06T09:19:46.000Z</time>
        <extensions>
          <ns3:TrackPointExtension>
            <ns3:hr>110</ns3:hr>
            <ns3:cad>0</ns3:cad>
          </ns3:TrackPointExtension>
        </extensions>
      </trkpt>
      <trkpt lat="52.1235107816755771636962890625" lon="1.47805198095738887786865234375">
        <ele>-9.19999980926513671875</ele>
        <time>2025-09-06T09:19:48.000Z</time>
        <extensions>
          <ns3:TrackPointExtension>
            <ns3:hr>109</ns3:hr>
            <ns3:cad>0</ns3:cad>
          </ns3:TrackPointExtension>
        </extensions>
      </trkpt>
      <trkpt lat="52.12351120077073574066162109375" lon="1.4780529029667377471923828125">
        <ele>-8.3999996185302734375</ele>
        <time>2025-09-06T09:19:49.000Z</time>
        <extensions>
          <ns3:TrackPointExtension>
            <ns3:hr>108</ns3:hr>
            <ns3:cad>0</ns3:cad>
          </ns3:TrackPointExtension>
        </extensions>
      </trkpt>
      <trkpt lat="52.1235101111233234405517578125" lon="1.4780575968325138092041015625">
        <ele>-7.599999904632568359375</ele>
        <time>2025-09-06T09:19:50.000Z</time>
        <extensions>
          <ns3:TrackPointExtension>
            <ns3:hr>107</ns3:hr>
            <ns3:cad>0</ns3:cad>
          </ns3:TrackPointExtension>
        </extensions>
      </trkpt>
      <trkpt lat="52.123504579067230224609375" lon="1.47806488908827304840087890625">
        <ele>-6.19999980926513671875</ele>
        <time>2025-09-06T09:19:52.000Z</time>
        <extensions>
          <ns3:TrackPointExtension>
            <ns3:hr>106</ns3:hr>
            <ns3:cad>0</ns3:cad>
          </ns3:TrackPointExtension>
        </extensions>
      </trkpt>
      <trkpt lat="52.1235040761530399322509765625" lon="1.47806572727859020233154296875">
        <ele>-4.599999904632568359375</ele>
        <time>2025-09-06T09:19:54.000Z</time>
        <extensions>
          <ns3:TrackPointExtension>
            <ns3:hr>106</ns3:hr>
            <ns3:cad>0</ns3:cad>
          </ns3:TrackPointExtension>
        </extensions>
      </trkpt>
      <trkpt lat="52.1235047467052936553955078125" lon="1.47806589491665363311767578125">
        <ele>-3</ele>
        <time>2025-09-06T09:19:56.000Z</time>
        <extensions>
          <ns3:TrackPointExtension>
            <ns3:hr>106</ns3:hr>
            <ns3:cad>0</ns3:cad>
          </ns3:TrackPointExtension>
        </extensions>
      </trkpt>
      <trkpt lat="52.123504914343357086181640625" lon="1.478066481649875640869140625">
        <ele>-1.60000002384185791015625</ele>
        <time>2025-09-06T09:19:58.000Z</time>
        <extensions>
          <ns3:TrackPointExtension>
            <ns3:hr>106</ns3:hr>
            <ns3:cad>0</ns3:cad>
          </ns3:TrackPointExtension>
        </extensions>
      </trkpt>
      <trkpt lat="52.12350985966622829437255859375" lon="1.4780743606388568878173828125">
        <ele>0</ele>
        <time>2025-09-06T09:20:00.000Z</time>
        <extensions>
          <ns3:TrackPointExtension>
            <ns3:hr>108</ns3:hr>
            <ns3:cad>0</ns3:cad>
          </ns3:TrackPointExtension>
        </extensions>
      </trkpt>
      <trkpt lat="52.123516984283924102783203125" lon="1.4780835807323455810546875">
        <ele>1.60000002384185791015625</ele>
        <time>2025-09-06T09:20:02.000Z</time>
        <extensions>
          <ns3:TrackPointExtension>
            <ns3:hr>106</ns3:hr>
            <ns3:cad>0</ns3:cad>
          </ns3:TrackPointExtension>
        </extensions>
      </trkpt>
      <trkpt lat="52.12352192960679531097412109375" lon="1.47809053771197795867919921875">
        <ele>3</ele>
        <time>2025-09-06T09:20:04.000Z</time>
        <extensions>
          <ns3:TrackPointExtension>
            <ns3:hr>107</ns3:hr>
            <ns3:cad>0</ns3:cad>
          </ns3:TrackPointExtension>
        </extensions>
      </trkpt>
      <trkpt lat="52.123529054224491119384765625" lon="1.478090621531009674072265625">
        <ele>4.400000095367431640625</ele>
        <time>2025-09-06T09:20:06.000Z</time>
        <extensions>
          <ns3:TrackPointExtension>
            <ns3:hr>105</ns3:hr>
            <ns3:cad>0</ns3:cad>
          </ns3:TrackPointExtension>
        </extensions>
      </trkpt>
      <trkpt lat="52.1235389448702335357666015625" lon="1.47808433510363101959228515625">
        <ele>5.80000019073486328125</ele>
        <time>2025-09-06T09:20:08.000Z</time>
        <extensions>
          <ns3:TrackPointExtension>
            <ns3:hr>104</ns3:hr>
            <ns3:cad>0</ns3:cad>
          </ns3:TrackPointExtension>
        </extensions>
      </trkpt>
      <trkpt lat="52.12354640476405620574951171875" lon="1.47807754576206207275390625">
        <ele>7.19999980926513671875</ele>
        <time>2025-09-06T09:20:10.000Z</time>
        <extensions>
          <ns3:TrackPointExtension>
            <ns3:hr>103</ns3:hr>
            <ns3:cad>0</ns3:cad>
          </ns3:TrackPointExtension>
        </extensions>
      </trkpt>
      <trkpt lat="52.12355176918208599090576171875" lon="1.47807075642049312591552734375">
        <ele>8.3999996185302734375</ele>
        <time>2025-09-06T09:20:12.000Z</time>
        <extensions>
          <ns3:TrackPointExtension>
            <ns3:hr>103</ns3:hr>
            <ns3:cad>0</ns3:cad>
          </ns3:TrackPointExtension>
        </extensions>
      </trkpt>
      <trkpt lat="52.12355160154402256011962890625" lon="1.47807125933468341827392578125">
        <ele>9.6000003814697265625</ele>
        <time>2025-09-06T09:20:14.000Z</time>
        <extensions>
          <ns3:TrackPointExtension>
            <ns3:hr>104</ns3:hr>
            <ns3:cad>0</ns3:cad>
          </ns3:TrackPointExtension>
        </extensions>
      </trkpt>
      <trkpt lat="52.1235573850572109222412109375" lon="1.4780730195343494415283203125">
        <ele>11</ele>
        <time>2025-09-06T09:20:16.000Z</time>
        <extensions>
          <ns3:TrackPointExtension>
            <ns3:hr>103</ns3:hr>
            <ns3:cad>0</ns3:cad>
          </ns3:TrackPointExtension>
        </extensions>
      </trkpt>
      <trkpt lat="52.1235568821430206298828125" lon="1.478078551590442657470703125">
        <ele>12</ele>
        <time>2025-09-06T09:20:18.000Z</time>
        <extensions>
          <ns3:TrackPointExtension>
            <ns3:hr>105</ns3:hr>
            <ns3:cad>0</ns3:cad>
          </ns3:TrackPointExtension>
        </extensions>
      </trkpt>
      <trkpt lat="52.12355981580913066864013671875" lon="1.47809070535004138946533203125">
        <ele>13.19999980926513671875</ele>
        <time>2025-09-06T09:20:20.000Z</time>
        <extensions>
          <ns3:TrackPointExtension>
            <ns3:hr>108</ns3:hr>
            <ns3:cad>43</ns3:cad>
          </ns3:TrackPointExtension>
        </extensions>
      </trkpt>
      <trkpt lat="52.12357339449226856231689453125" lon="1.47809623740613460540771484375">
        <ele>14.3999996185302734375</ele>
        <time>2025-09-06T09:20:22.000Z</time>
        <extensions>
          <ns3:TrackPointExtension>
            <ns3:hr>109</ns3:hr>
            <ns3:cad>43</ns3:cad>
          </ns3:TrackPointExtension>
        </extensions>
      </trkpt>
      <trkpt lat="52.1235892362892627716064453125" lon="1.4781068824231624603271484375">
        <ele>15.6000003814697265625</ele>
        <time>2025-09-06T09:20:24.000Z</time>
        <extensions>
          <ns3:TrackPointExtension>
            <ns3:hr>112</ns3:hr>
            <ns3:cad>51</ns3:cad>
          </ns3:TrackPointExtension>
        </extensions>
      </trkpt>
      <trkpt lat="52.12360558100044727325439453125" lon="1.4781176112592220306396484375">
        <ele>16.799999237060546875</ele>
        <time>2025-09-06T09:20:26.000Z</time>
        <extensions>
          <ns3:TrackPointExtension>
            <ns3:hr>111</ns3:hr>
            <ns3:cad>52</ns3:cad>
          </ns3:TrackPointExtension>
        </extensions>
      </trkpt>
      <trkpt lat="52.1236145496368408203125" lon="1.4781169407069683074951171875">
        <ele>17.799999237060546875</ele>
        <time>2025-09-06T09:20:28.000Z</time>
        <extensions>
          <ns3:TrackPointExtension>
            <ns3:hr>113</ns3:hr>
            <ns3:cad>0</ns3:cad>
          </ns3:TrackPointExtension>
        </extensions>
      </trkpt>
      <trkpt lat="52.1236204169690608978271484375" lon="1.47810646332800388336181640625">
        <ele>19</ele>
        <time>2025-09-06T09:20:30.000Z</time>
        <extensions>
          <ns3:TrackPointExtension>
            <ns3:hr>110</ns3:hr>
            <ns3:cad>0</ns3:cad>
          </ns3:TrackPointExtension>
        </extensions>
      </trkpt>
      <trkpt lat="52.12362066842615604400634765625" lon="1.478108726441860198974609375">
        <ele>20.200000762939453125</ele>
        <time>2025-09-06T09:20:32.000Z</time>
        <extensions>
          <ns3:TrackPointExtension>
            <ns3:hr>109</ns3:hr>
            <ns3:cad>0</ns3:cad>
          </ns3:TrackPointExtension>
        </extensions>
      </trkpt>
      <trkpt lat="52.1236274577677249908447265625" lon="1.47810428403317928314208984375">
        <ele>21.3999996185302734375</ele>
        <time>2025-09-06T09:20:34.000Z</time>
        <extensions>
          <ns3:TrackPointExtension>
            <ns3:hr>110</ns3:hr>
            <ns3:cad>0</ns3:cad>
          </ns3:TrackPointExtension>
        </extensions>
      </trkpt>
      <trkpt lat="52.12363089434802532196044921875" lon="1.4781048707664012908935546875">
        <ele>22.3999996185302734375</ele>
        <time>2025-09-06T09:20:36.000Z</time>
        <extensions>
          <ns3:TrackPointExtension>
            <ns3:hr>111</ns3:hr>
            <ns3:cad>0</ns3:cad>
          </ns3:TrackPointExtension>
        </extensions>
      </trkpt>
      <trkpt lat="52.123630978167057037353515625" lon="1.47810361348092555999755859375">
        <ele>23</ele>
        <time>2025-09-06T09:20:37.000Z</time>
        <extensions>
          <ns3:TrackPointExtension>
            <ns3:hr>111</ns3:hr>
            <ns3:cad>0</ns3:cad>
          </ns3:TrackPointExtension>
        </extensions>
      </trkpt>
      <trkpt lat="52.12363240309059619903564453125" lon="1.47810059599578380584716796875">
        <ele>23.6000003814697265625</ele>
        <time>2025-09-06T09:20:38.000Z</time>
        <extensions>
          <ns3:TrackPointExtension>
            <ns3:hr>112</ns3:hr>
            <ns3:cad>0</ns3:cad>
          </ns3:TrackPointExtension>
        </extensions>
      </trkpt>
      <trkpt lat="52.1236346662044525146484375" lon="1.478101350367069244384765625">
        <ele>24.6000003814697265625</ele>
        <time>2025-09-06T09:20:40.000Z</time>
        <extensions>
          <ns3:TrackPointExtension>
            <ns3:hr>111</ns3:hr>
            <ns3:cad>0</ns3:cad>
          </ns3:TrackPointExtension>
        </extensions>
      </trkpt>
      <trkpt lat="52.1236304752528667449951171875" lon="1.47809221409261226654052734375">
        <ele>26</ele>
        <time>2025-09-06T09:20:43.000Z</time>
        <extensions>
          <ns3:TrackPointExtension>
            <ns3:hr>109</ns3:hr>
            <ns3:cad>0</ns3:cad>
          </ns3:TrackPointExtension>
        </extensions>
      </trkpt>
      <trkpt lat="52.12362536229193210601806640625" lon="1.47809623740613460540771484375">
        <ele>27.200000762939453125</ele>
        <time>2025-09-06T09:20:46.000Z</time>
        <extensions>
          <ns3:TrackPointExtension>
            <ns3:hr>109</ns3:hr>
            <ns3:cad>0</ns3:cad>
          </ns3:TrackPointExtension>
        </extensions>
      </trkpt>
      <trkpt lat="52.123624943196773529052734375" lon="1.478093974292278289794921875">
        <ele>28</ele>
        <time>2025-09-06T09:20:49.000Z</time>
        <extensions>
          <ns3:TrackPointExtension>
            <ns3:hr>112</ns3:hr>
            <ns3:cad>0</ns3:cad>
          </ns3:TrackPointExtension>
        </extensions>
      </trkpt>
      <trkpt lat="52.1236244402825832366943359375" lon="1.47809229791164398193359375">
        <ele>28.3999996185302734375</ele>
        <time>2025-09-06T09:20:50.000Z</time>
        <extensions>
          <ns3:TrackPointExtension>
            <ns3:hr>110</ns3:hr>
            <ns3:cad>0</ns3:cad>
          </ns3:TrackPointExtension>
        </extensions>
      </trkpt>
      <trkpt lat="52.12362460792064666748046875" lon="1.4780916273593902587890625">
        <ele>28.6000003814697265625</ele>
        <time>2025-09-06T09:20:51.000Z</time>
        <extensions>
          <ns3:TrackPointExtension>
            <ns3:hr>111</ns3:hr>
            <ns3:cad>0</ns3:cad>
          </ns3:TrackPointExtension>
        </extensions>
      </trkpt>
      <trkpt lat="52.1236207522451877593994140625" lon="1.47809154354035854339599609375">
        <ele>29.6000003814697265625</ele>
        <time>2025-09-06T09:20:54.000Z</time>
        <extensions>
          <ns3:TrackPointExtension>
            <ns3:hr>111</ns3:hr>
            <ns3:cad>0</ns3:cad>
          </ns3:TrackPointExtension>
        </extensions>
      </trkpt>
      <trkpt lat="52.12361195124685764312744140625" lon="1.478093974292278289794921875">
        <ele>30.6000003814697265625</ele>
        <time>2025-09-06T09:20:58.000Z</time>
        <extensions>
          <ns3:TrackPointExtension>
            <ns3:hr>111</ns3:hr>
            <ns3:cad>0</ns3:cad>
          </ns3:TrackPointExtension>
        </extensions>
      </trkpt>
      <trkpt lat="52.1235972829163074493408203125" lon="1.4781068824231624603271484375">
        <ele>31.799999237060546875</ele>
        <time>2025-09-06T09:21:03.000Z</time>
        <extensions>
          <ns3:TrackPointExtension>
            <ns3:hr>112</ns3:hr>
            <ns3:cad>0</ns3:cad>
          </ns3:TrackPointExtension>
        </extensions>
      </trkpt>
      <trkpt lat="52.123610861599445343017578125" lon="1.47810378111898899078369140625">
        <ele>32.40000152587890625</ele>
        <time>2025-09-06T09:21:06.000Z</time>
        <extensions>
          <ns3:TrackPointExtension>
            <ns3:hr>111</ns3:hr>
            <ns3:cad>0</ns3:cad>
          </ns3:TrackPointExtension>
        </extensions>
      </trkpt>
      <trkpt lat="52.12362251244485378265380859375" lon="1.47809891961514949798583984375">
        <ele>33</ele>
        <time>2025-09-06T09:21:08.000Z</time>
        <extensions>
          <ns3:TrackPointExtension>
            <ns3:hr>111</ns3:hr>
            <ns3:cad>0</ns3:cad>
          </ns3:TrackPointExtension>
        </extensions>
      </trkpt>
      <trkpt lat="52.12366618216037750244140625" lon="1.47808919660747051239013671875">
        <ele>34</ele>
        <time>2025-09-06T09:21:13.000Z</time>
        <extensions>
          <ns3:TrackPointExtension>
            <ns3:hr>110</ns3:hr>
            <ns3:cad>53</ns3:cad>
          </ns3:TrackPointExtension>
        </extensions>
      </trkpt>
      <trkpt lat="52.12371152825653553009033203125" lon="1.47805273532867431640625">
        <ele>34.59999847412109375</ele>
        <time>2025-09-06T09:21:17.000Z</time>
        <extensions>
          <ns3:TrackPointExtension>
            <ns3:hr>113</ns3:hr>
            <ns3:cad>59</ns3:cad>
          </ns3:TrackPointExtension>
        </extensions>
      </trkpt>
      <trkpt lat="52.1237260289490222930908203125" lon="1.47804728709161281585693359375">
        <ele>34.799999237060546875</ele>
        <time>2025-09-06T09:21:18.000Z</time>
        <extensions>
          <ns3:TrackPointExtension>
            <ns3:hr>111</ns3:hr>
            <ns3:cad>60</ns3:cad>
          </ns3:TrackPointExtension>
        </extensions>
      </trkpt>
      <trkpt lat="52.1237360872328281402587890625" lon="1.47803856991231441497802734375">
        <ele>35</ele>
        <time>2025-09-06T09:21:19.000Z</time>
        <extensions>
          <ns3:TrackPointExtension>
            <ns3:hr>113</ns3:hr>
            <ns3:cad>60</ns3:cad>
          </ns3:TrackPointExtension>
        </extensions>
      </trkpt>
      <trkpt lat="52.123773135244846343994140625" lon="1.4779989235103130340576171875">
        <ele>35.40000152587890625</ele>
        <time>2025-09-06T09:21:22.000Z</time>
        <extensions>
          <ns3:TrackPointExtension>
            <ns3:hr>116</ns3:hr>
            <ns3:cad>112</ns3:cad>
          </ns3:TrackPointExtension>
        </extensions>
      </trkpt>
      <trkpt lat="52.1238671801984310150146484375" lon="1.4779409207403659820556640625">
        <ele>36</ele>
        <time>2025-09-06T09:21:27.000Z</time>
        <extensions>
          <ns3:TrackPointExtension>
            <ns3:hr>112</ns3:hr>
            <ns3:cad>80</ns3:cad>
          </ns3:TrackPointExtension>
        </extensions>
      </trkpt>
      <trkpt lat="52.12388268671929836273193359375" lon="1.47792440839111804962158203125">
        <ele>36.200000762939453125</ele>
        <time>2025-09-06T09:21:28.000Z</time>
        <extensions>
          <ns3:TrackPointExtension>
            <ns3:hr>114</ns3:hr>
            <ns3:cad>80</ns3:cad>
          </ns3:TrackPointExtension>
        </extensions>
      </trkpt>
      <trkpt lat="52.12392610497772693634033203125" lon="1.4778742007911205291748046875">
        <ele>36.40000152587890625</ele>
        <time>2025-09-06T09:21:31.000Z</time>
        <extensions>
          <ns3:TrackPointExtension>
            <ns3:hr>117</ns3:hr>
            <ns3:cad>81</ns3:cad>
          </ns3:TrackPointExtension>
        </extensions>
      </trkpt>
      <trkpt lat="52.1239409409463405609130859375" lon="1.47786037065088748931884765625">
        <ele>36.40000152587890625</ele>
        <time>2025-09-06T09:21:32.000Z</time>
        <extensions>
          <ns3:TrackPointExtension>
            <ns3:hr>120</ns3:hr>
            <ns3:cad>81</ns3:cad>
          </ns3:TrackPointExtension>
        </extensions>
      </trkpt>
      <trkpt lat="52.1239592134952545166015625" lon="1.477847881615161895751953125">
        <ele>36.40000152587890625</ele>
        <time>2025-09-06T09:21:33.000Z</time>
        <extensions>
          <ns3:TrackPointExtension>
            <ns3:hr>123</ns3:hr>
            <ns3:cad>80</ns3:cad>
          </ns3:TrackPointExtension>
        </extensions>
      </trkpt>
      <trkpt lat="52.1239779889583587646484375" lon="1.47783824242651462554931640625">
        <ele>36.59999847412109375</ele>
        <time>2025-09-06T09:21:34.000Z</time>
        <extensions>
          <ns3:TrackPointExtension>
            <ns3:hr>127</ns3:hr>
            <ns3:cad>80</ns3:cad>
          </ns3:TrackPointExtension>
        </extensions>
      </trkpt>
      <trkpt lat="52.123995088040828704833984375" lon="1.47782701067626476287841796875">
        <ele>36.59999847412109375</ele>
        <time>2025-09-06T09:21:35.000Z</time>
        <extensions>
          <ns3:TrackPointExtension>
            <ns3:hr>130</ns3:hr>
            <ns3:cad>80</ns3:cad>
          </ns3:TrackPointExtension>
        </extensions>
      </trkpt>
      <trkpt lat="52.1240128576755523681640625" lon="1.47782064042985439300537109375">
        <ele>36.59999847412109375</ele>
        <time>2025-09-06T09:21:36.000Z</time>
        <extensions>
          <ns3:TrackPointExtension>
            <ns3:hr>131</ns3:hr>
            <ns3:cad>81</ns3:cad>
          </ns3:TrackPointExtension>
        </extensions>
      </trkpt>
      <trkpt lat="52.124033980071544647216796875" lon="1.47781468927860260009765625">
        <ele>36.59999847412109375</ele>
        <time>2025-09-06T09:21:37.000Z</time>
        <extensions>
          <ns3:TrackPointExtension>
            <ns3:hr>134</ns3:hr>
            <ns3:cad>81</ns3:cad>
          </ns3:TrackPointExtension>
        </extensions>
      </trkpt>
      <trkpt lat="52.12407630868256092071533203125" lon="1.47781066596508026123046875">
        <ele>36.799999237060546875</ele>
        <time>2025-09-06T09:21:39.000Z</time>
        <extensions>
          <ns3:TrackPointExtension>
            <ns3:hr>138</ns3:hr>
            <ns3:cad>80</ns3:cad>
          </ns3:TrackPointExtension>
        </extensions>
      </trkpt>
      <trkpt lat="52.12413598783314228057861328125" lon="1.47778107784688472747802734375">
        <ele>36.799999237060546875</ele>
        <time>2025-09-06T09:21:42.000Z</time>
        <extensions>
          <ns3:TrackPointExtension>
            <ns3:hr>141</ns3:hr>
            <ns3:cad>81</ns3:cad>
          </ns3:TrackPointExtension>
        </extensions>
      </trkpt>
      <trkpt lat="52.12417311966419219970703125" lon="1.477752663195133209228515625">
        <ele>36.799999237060546875</ele>
        <time>2025-09-06T09:21:44.000Z</time>
        <extensions>
          <ns3:TrackPointExtension>
            <ns3:hr>144</ns3:hr>
            <ns3:cad>81</ns3:cad>
          </ns3:TrackPointExtension>
        </extensions>
      </trkpt>
      <trkpt lat="52.12427345104515552520751953125" lon="1.47769868373870849609375">
        <ele>37</ele>
        <time>2025-09-06T09:21:49.000Z</time>
        <extensions>
          <ns3:TrackPointExtension>
            <ns3:hr>147</ns3:hr>
            <ns3:cad>81</ns3:cad>
          </ns3:TrackPointExtension>
        </extensions>
      </trkpt>
      <trkpt lat="52.12434746325016021728515625" lon="1.47766825743019580841064453125">
        <ele>37.200000762939453125</ele>
        <time>2025-09-06T09:21:52.000Z</time>
        <extensions>
          <ns3:TrackPointExtension>
            <ns3:hr>148</ns3:hr>
            <ns3:cad>82</ns3:cad>
          </ns3:TrackPointExtension>
        </extensions>
      </trkpt>
      <trkpt lat="52.12451082654297351837158203125" lon="1.4775074087083339691162109375">
        <ele>37.59999847412109375</ele>
        <time>2025-09-06T09:22:00.000Z</time>
        <extensions>
          <ns3:TrackPointExtension>
            <ns3:hr>148</ns3:hr>
            <ns3:cad>80</ns3:cad>
          </ns3:TrackPointExtension>
        </extensions>
      </trkpt>
      <trkpt lat="52.124642170965671539306640625" lon="1.4773880504071712493896484375">
        <ele>37.799999237060546875</ele>
        <time>2025-09-06T09:22:07.000Z</time>
        <extensions>
          <ns3:TrackPointExtension>
            <ns3:hr>149</ns3:hr>
            <ns3:cad>78</ns3:cad>
          </ns3:TrackPointExtension>
        </extensions>
      </trkpt>
      <trkpt lat="52.12470662780106067657470703125" lon="1.4773240126669406890869140625">
        <ele>38</ele>
        <time>2025-09-06T09:22:11.000Z</time>
        <extensions>
          <ns3:TrackPointExtension>
            <ns3:hr>148</ns3:hr>
            <ns3:cad>78</ns3:cad>
          </ns3:TrackPointExtension>
        </extensions>
      </trkpt>
      <trkpt lat="52.12480486370623111724853515625" lon="1.4771997928619384765625">
        <ele>38.40000152587890625</ele>
        <time>2025-09-06T09:22:17.000Z</time>
        <extensions>
          <ns3:TrackPointExtension>
            <ns3:hr>150</ns3:hr>
            <ns3:cad>79</ns3:cad>
          </ns3:TrackPointExtension>
        </extensions>
      </trkpt>
      <trkpt lat="52.12495925836265087127685546875" lon="1.47703953087329864501953125">
        <ele>38.799999237060546875</ele>
        <time>2025-09-06T09:22:25.000Z</time>
        <extensions>
          <ns3:TrackPointExtension>
            <ns3:hr>151</ns3:hr>
            <ns3:cad>81</ns3:cad>
          </ns3:TrackPointExtension>
        </extensions>
      </trkpt>
      <trkpt lat="52.124982811510562896728515625" lon="1.4770242758095264434814453125">
        <ele>38.799999237060546875</ele>
        <time>2025-09-06T09:22:26.000Z</time>
        <extensions>
          <ns3:TrackPointExtension>
            <ns3:hr>152</ns3:hr>
            <ns3:cad>81</ns3:cad>
          </ns3:TrackPointExtension>
        </extensions>
      </trkpt>
      <trkpt lat="52.1251489408314228057861328125" lon="1.476879604160785675048828125">
        <ele>39</ele>
        <time>2025-09-06T09:22:35.000Z</time>
        <extensions>
          <ns3:TrackPointExtension>
            <ns3:hr>151</ns3:hr>
            <ns3:cad>80</ns3:cad>
          </ns3:TrackPointExtension>
        </extensions>
      </trkpt>
      <trkpt lat="52.1253125555813312530517578125" lon="1.4767692983150482177734375">
        <ele>39.40000152587890625</ele>
        <time>2025-09-06T09:22:43.000Z</time>
        <extensions>
          <ns3:TrackPointExtension>
            <ns3:hr>150</ns3:hr>
            <ns3:cad>80</ns3:cad>
          </ns3:TrackPointExtension>
        </extensions>
      </trkpt>
      <trkpt lat="52.125492431223392486572265625" lon="1.47670115344226360321044921875">
        <ele>40</ele>
        <time>2025-09-06T09:22:51.000Z</time>
        <extensions>
          <ns3:TrackPointExtension>
            <ns3:hr>149</ns3:hr>
            <ns3:cad>79</ns3:cad>
          </ns3:TrackPointExtension>
        </extensions>
      </trkpt>
      <trkpt lat="52.1255133859813213348388671875" lon="1.47669486701488494873046875">
        <ele>40.200000762939453125</ele>
        <time>2025-09-06T09:22:52.000Z</time>
        <extensions>
          <ns3:TrackPointExtension>
            <ns3:hr>149</ns3:hr>
            <ns3:cad>80</ns3:cad>
          </ns3:TrackPointExtension>
        </extensions>
      </trkpt>
      <trkpt lat="52.12565864436328411102294921875" lon="1.47660543210804462432861328125">
        <ele>41.200000762939453125</ele>
        <time>2025-09-06T09:23:00.000Z</time>
        <extensions>
          <ns3:TrackPointExtension>
            <ns3:hr>150</ns3:hr>
            <ns3:cad>80</ns3:cad>
          </ns3:TrackPointExtension>
        </extensions>
      </trkpt>
      <trkpt lat="52.12567490525543689727783203125" lon="1.47658632136881351470947265625">
        <ele>41.40000152587890625</ele>
        <time>2025-09-06T09:23:01.000Z</time>
        <extensions>
          <ns3:TrackPointExtension>
            <ns3:hr>151</ns3:hr>
            <ns3:cad>80</ns3:cad>
          </ns3:TrackPointExtension>
        </extensions>
      </trkpt>
      <trkpt lat="52.1257755719125270843505859375" lon="1.47642798721790313720703125">
        <ele>42.200000762939453125</ele>
        <time>2025-09-06T09:23:07.000Z</time>
        <extensions>
          <ns3:TrackPointExtension>
            <ns3:hr>149</ns3:hr>
            <ns3:cad>79</ns3:cad>
          </ns3:TrackPointExtension>
        </extensions>
      </trkpt>
      <trkpt lat="52.1258153021335601806640625" lon="1.47641122341156005859375">
        <ele>42.59999847412109375</ele>
        <time>2025-09-06T09:23:09.000Z</time>
        <extensions>
          <ns3:TrackPointExtension>
            <ns3:hr>148</ns3:hr>
            <ns3:cad>79</ns3:cad>
          </ns3:TrackPointExtension>
        </extensions>
      </trkpt>
      <trkpt lat="52.12591345421969890594482421875" lon="1.47634081542491912841796875">
        <ele>43.40000152587890625</ele>
        <time>2025-09-06T09:23:14.000Z</time>
        <extensions>
          <ns3:TrackPointExtension>
            <ns3:hr>148</ns3:hr>
            <ns3:cad>79</ns3:cad>
          </ns3:TrackPointExtension>
        </extensions>
      </trkpt>
      <trkpt lat="52.12594262324273586273193359375" lon="1.47630552761256694793701171875">
        <ele>43.799999237060546875</ele>
        <time>2025-09-06T09:23:16.000Z</time>
        <extensions>
          <ns3:TrackPointExtension>
            <ns3:hr>147</ns3:hr>
            <ns3:cad>80</ns3:cad>
          </ns3:TrackPointExtension>
        </extensions>
      </trkpt>
      <trkpt lat="52.12600146420300006866455078125" lon="1.476271413266658782958984375">
        <ele>44.40000152587890625</ele>
        <time>2025-09-06T09:23:19.000Z</time>
        <extensions>
          <ns3:TrackPointExtension>
            <ns3:hr>148</ns3:hr>
            <ns3:cad>80</ns3:cad>
          </ns3:TrackPointExtension>
        </extensions>
      </trkpt>
      <trkpt lat="52.12607908062636852264404296875" lon="1.47620326839387416839599609375">
        <ele>45.59999847412109375</ele>
        <time>2025-09-06T09:23:24.000Z</time>
        <extensions>
          <ns3:TrackPointExtension>
            <ns3:hr>148</ns3:hr>
            <ns3:cad>79</ns3:cad>
          </ns3:TrackPointExtension>
        </extensions>
      </trkpt>
      <trkpt lat="52.12614362128078937530517578125" lon="1.476074270904064178466796875">
        <ele>46.799999237060546875</ele>
        <time>2025-09-06T09:23:29.000Z</time>
        <extensions>
          <ns3:TrackPointExtension>
            <ns3:hr>150</ns3:hr>
            <ns3:cad>80</ns3:cad>
          </ns3:TrackPointExtension>
        </extensions>
      </trkpt>
      <trkpt lat="52.1262134425342082977294921875" lon="1.47595650516450405120849609375">
        <ele>47.799999237060546875</ele>
        <time>2025-09-06T09:23:33.000Z</time>
        <extensions>
          <ns3:TrackPointExtension>
            <ns3:hr>150</ns3:hr>
            <ns3:cad>81</ns3:cad>
          </ns3:TrackPointExtension>
        </extensions>
      </trkpt>
      <trkpt lat="52.126276977360248565673828125" lon="1.47586212493479251861572265625">
        <ele>49</ele>
        <time>2025-09-06T09:23:38.000Z</time>
        <extensions>
          <ns3:TrackPointExtension>
            <ns3:hr>150</ns3:hr>
            <ns3:cad>80</ns3:cad>
          </ns3:TrackPointExtension>
        </extensions>
      </trkpt>
      <trkpt lat="52.12630941532552242279052734375" lon="1.47581837140023708343505859375">
        <ele>49.59999847412109375</ele>
        <time>2025-09-06T09:23:41.000Z</time>
        <extensions>
          <ns3:TrackPointExtension>
            <ns3:hr>150</ns3:hr>
            <ns3:cad>80</ns3:cad>
          </ns3:TrackPointExtension>
        </extensions>
      </trkpt>
      <trkpt lat="52.12633229792118072509765625" lon="1.47578869946300983428955078125">
        <ele>50.200000762939453125</ele>
        <time>2025-09-06T09:23:43.000Z</time>
        <extensions>
          <ns3:TrackPointExtension>
            <ns3:hr>149</ns3:hr>
            <ns3:cad>80</ns3:cad>
          </ns3:TrackPointExtension>
        </extensions>
      </trkpt>
      <trkpt lat="52.12640731595456600189208984375" lon="1.47571644745767116546630859375">
        <ele>51.200000762939453125</ele>
        <time>2025-09-06T09:23:48.000Z</time>
        <extensions>
          <ns3:TrackPointExtension>
            <ns3:hr>146</ns3:hr>
            <ns3:cad>80</ns3:cad>
          </ns3:TrackPointExtension>
        </extensions>
      </trkpt>
      <trkpt lat="52.12644788436591625213623046875" lon="1.475698761641979217529296875">
        <ele>51.59999847412109375</ele>
        <time>2025-09-06T09:23:50.000Z</time>
        <extensions>
          <ns3:TrackPointExtension>
            <ns3:hr>146</ns3:hr>
            <ns3:cad>80</ns3:cad>
          </ns3:TrackPointExtension>
        </extensions>
      </trkpt>
      <trkpt lat="52.12648895569145679473876953125" lon="1.47567973472177982330322265625">
        <ele>52</ele>
        <time>2025-09-06T09:23:52.000Z</time>
        <extensions>
          <ns3:TrackPointExtension>
            <ns3:hr>149</ns3:hr>
            <ns3:cad>80</ns3:cad>
          </ns3:TrackPointExtension>
        </extensions>
      </trkpt>
      <trkpt lat="52.12652214802801609039306640625" lon="1.475659869611263275146484375">
        <ele>52.40000152587890625</ele>
        <time>2025-09-06T09:23:54.000Z</time>
        <extensions>
          <ns3:TrackPointExtension>
            <ns3:hr>149</ns3:hr>
            <ns3:cad>80</ns3:cad>
          </ns3:TrackPointExtension>
        </extensions>
      </trkpt>
      <trkpt lat="52.1266285143792629241943359375" lon="1.4755970053374767303466796875">
        <ele>53.59999847412109375</ele>
        <time>2025-09-06T09:24:00.000Z</time>
        <extensions>
          <ns3:TrackPointExtension>
            <ns3:hr>149</ns3:hr>
            <ns3:cad>80</ns3:cad>
          </ns3:TrackPointExtension>
        </extensions>
      </trkpt>
      <trkpt lat="52.1266499720513820648193359375" lon="1.47558434866368770599365234375">
        <ele>53.799999237060546875</ele>
        <time>2025-09-06T09:24:01.000Z</time>
        <extensions>
          <ns3:TrackPointExtension>
            <ns3:hr>149</ns3:hr>
            <ns3:cad>81</ns3:cad>
          </ns3:TrackPointExtension>
        </extensions>
      </trkpt>
      <trkpt lat="52.1267425082623958587646484375" lon="1.4755111746490001678466796875">
        <ele>54.59999847412109375</ele>
        <time>2025-09-06T09:24:05.000Z</time>
        <extensions>
          <ns3:TrackPointExtension>
            <ns3:hr>148</ns3:hr>
            <ns3:cad>80</ns3:cad>
          </ns3:TrackPointExtension>
        </extensions>
      </trkpt>
      <trkpt lat="52.1268229745328426361083984375" lon="1.4754923991858959197998046875">
        <ele>55.799999237060546875</ele>
        <time>2025-09-06T09:24:10.000Z</time>
        <extensions>
          <ns3:TrackPointExtension>
            <ns3:hr>147</ns3:hr>
            <ns3:cad>80</ns3:cad>
          </ns3:TrackPointExtension>
        </extensions>
      </trkpt>
      <trkpt lat="52.1268387325108051300048828125" lon="1.4754845201969146728515625">
        <ele>56</ele>
        <time>2025-09-06T09:24:11.000Z</time>
        <extensions>
          <ns3:TrackPointExtension>
            <ns3:hr>147</ns3:hr>
            <ns3:cad>79</ns3:cad>
          </ns3:TrackPointExtension>
        </extensions>
      </trkpt>
      <trkpt lat="52.12690318934619426727294921875" lon="1.4754853583872318267822265625">
        <ele>56.799999237060546875</ele>
        <time>2025-09-06T09:24:14.000Z</time>
        <extensions>
          <ns3:TrackPointExtension>
            <ns3:hr>147</ns3:hr>
            <ns3:cad>78</ns3:cad>
          </ns3:TrackPointExtension>
        </extensions>
      </trkpt>
      <trkpt lat="52.12697728537023067474365234375" lon="1.47546197287738323211669921875">
        <ele>57.799999237060546875</ele>
        <time>2025-09-06T09:24:18.000Z</time>
        <extensions>
          <ns3:TrackPointExtension>
            <ns3:hr>148</ns3:hr>
            <ns3:cad>80</ns3:cad>
          </ns3:TrackPointExtension>
        </extensions>
      </trkpt>
      <trkpt lat="52.12701902724802494049072265625" lon="1.47544671781361103057861328125">
        <ele>58.40000152587890625</ele>
        <time>2025-09-06T09:24:20.000Z</time>
        <extensions>
          <ns3:TrackPointExtension>
            <ns3:hr>146</ns3:hr>
            <ns3:cad>78</ns3:cad>
          </ns3:TrackPointExtension>
        </extensions>
      </trkpt>
      <trkpt lat="52.12705423124134540557861328125" lon="1.47543816827237606048583984375">
        <ele>59.200000762939453125</ele>
        <time>2025-09-06T09:24:22.000Z</time>
        <extensions>
          <ns3:TrackPointExtension>
            <ns3:hr>146</ns3:hr>
            <ns3:cad>78</ns3:cad>
          </ns3:TrackPointExtension>
        </extensions>
      </trkpt>
      <trkpt lat="52.12710385210812091827392578125" lon="1.47540799342095851898193359375">
        <ele>60</ele>
        <time>2025-09-06T09:24:25.000Z</time>
        <extensions>
          <ns3:TrackPointExtension>
            <ns3:hr>149</ns3:hr>
            <ns3:cad>80</ns3:cad>
          </ns3:TrackPointExtension>
        </extensions>
      </trkpt>
      <trkpt lat="52.127116508781909942626953125" lon="1.47539005614817142486572265625">
        <ele>60.40000152587890625</ele>
        <time>2025-09-06T09:24:26.000Z</time>
        <extensions>
          <ns3:TrackPointExtension>
            <ns3:hr>147</ns3:hr>
            <ns3:cad>80</ns3:cad>
          </ns3:TrackPointExtension>
        </extensions>
      </trkpt>
      <trkpt lat="52.12715263478457927703857421875" lon="1.475351415574550628662109375">
        <ele>61.40000152587890625</ele>
        <time>2025-09-06T09:24:29.000Z</time>
        <extensions>
          <ns3:TrackPointExtension>
            <ns3:hr>146</ns3:hr>
            <ns3:cad>76</ns3:cad>
          </ns3:TrackPointExtension>
        </extensions>
      </trkpt>
      <trkpt lat="52.1271656267344951629638671875" lon="1.47534697316586971282958984375">
        <ele>61.799999237060546875</ele>
        <time>2025-09-06T09:24:30.000Z</time>
        <extensions>
          <ns3:TrackPointExtension>
            <ns3:hr>144</ns3:hr>
            <ns3:cad>76</ns3:cad>
          </ns3:TrackPointExtension>
        </extensions>
      </trkpt>
      <trkpt lat="52.12724533863365650177001953125" lon="1.47533364593982696533203125">
        <ele>62.799999237060546875</ele>
        <time>2025-09-06T09:24:33.000Z</time>
        <extensions>
          <ns3:TrackPointExtension>
            <ns3:hr>146</ns3:hr>
            <ns3:cad>77</ns3:cad>
          </ns3:TrackPointExtension>
        </extensions>
      </trkpt>
      <trkpt lat="52.12735430337488651275634765625" lon="1.47527690045535564422607421875">
        <ele>64</ele>
        <time>2025-09-06T09:24:37.000Z</time>
        <extensions>
          <ns3:TrackPointExtension>
            <ns3:hr>145</ns3:hr>
            <ns3:cad>78</ns3:cad>
          </ns3:TrackPointExtension>
        </extensions>
      </trkpt>
      <trkpt lat="52.12739151902496814727783203125" lon="1.47526650689542293548583984375">
        <ele>64.40000152587890625</ele>
        <time>2025-09-06T09:24:38.000Z</time>
        <extensions>
          <ns3:TrackPointExtension>
            <ns3:hr>146</ns3:hr>
            <ns3:cad>77</ns3:cad>
          </ns3:TrackPointExtension>
        </extensions>
      </trkpt>
      <trkpt lat="52.1274469234049320220947265625" lon="1.4752409420907497406005859375">
        <ele>65.1999969482421875</ele>
        <time>2025-09-06T09:24:40.000Z</time>
        <extensions>
          <ns3:TrackPointExtension>
            <ns3:hr>145</ns3:hr>
            <ns3:cad>77</ns3:cad>
          </ns3:TrackPointExtension>
        </extensions>
      </trkpt>
      <trkpt lat="52.12751473300158977508544921875" lon="1.47519014775753021240234375">
        <ele>66.1999969482421875</ele>
        <time>2025-09-06T09:24:43.000Z</time>
        <extensions>
          <ns3:TrackPointExtension>
            <ns3:hr>146</ns3:hr>
            <ns3:cad>79</ns3:cad>
          </ns3:TrackPointExtension>
        </extensions>
      </trkpt>
      <trkpt lat="52.12756200693547725677490234375" lon="1.47515452466905117034912109375">
        <ele>67.1999969482421875</ele>
        <time>2025-09-06T09:24:46.000Z</time>
        <extensions>
          <ns3:TrackPointExtension>
            <ns3:hr>149</ns3:hr>
            <ns3:cad>79</ns3:cad>
          </ns3:TrackPointExtension>
        </extensions>
      </trkpt>
      <trkpt lat="52.127619087696075439453125" lon="1.47514061070978641510009765625">
        <ele>68.1999969482421875</ele>
        <time>2025-09-06T09:24:49.000Z</time>
        <extensions>
          <ns3:TrackPointExtension>
            <ns3:hr>151</ns3:hr>
            <ns3:cad>79</ns3:cad>
          </ns3:TrackPointExtension>
        </extensions>
      </trkpt>
      <trkpt lat="52.12768320925533771514892578125" lon="1.4751373417675495147705078125">
        <ele>69.59999847412109375</ele>
        <time>2025-09-06T09:24:53.000Z</time>
        <extensions>
          <ns3:TrackPointExtension>
            <ns3:hr>148</ns3:hr>
            <ns3:cad>79</ns3:cad>
          </ns3:TrackPointExtension>
        </extensions>
      </trkpt>
      <trkpt lat="52.12775428779423236846923828125" lon="1.475131809711456298828125">
        <ele>70.59999847412109375</ele>
        <time>2025-09-06T09:24:56.000Z</time>
        <extensions>
          <ns3:TrackPointExtension>
            <ns3:hr>150</ns3:hr>
            <ns3:cad>79</ns3:cad>
          </ns3:TrackPointExtension>
        </extensions>
      </trkpt>
      <trkpt lat="52.1277721412479877471923828125" lon="1.47511781193315982818603515625">
        <ele>70.8000030517578125</ele>
        <time>2025-09-06T09:24:57.000Z</time>
        <extensions>
          <ns3:TrackPointExtension>
            <ns3:hr>150</ns3:hr>
            <ns3:cad>79</ns3:cad>
          </ns3:TrackPointExtension>
        </extensions>
      </trkpt>
      <trkpt lat="52.12784397415816783905029296875" lon="1.4750689454376697540283203125">
        <ele>72</ele>
        <time>2025-09-06T09:25:01.000Z</time>
        <extensions>
          <ns3:TrackPointExtension>
            <ns3:hr>152</ns3:hr>
            <ns3:cad>79</ns3:cad>
          </ns3:TrackPointExtension>
        </extensions>
      </trkpt>
      <trkpt lat="52.1279060840606689453125" lon="1.4750545285642147064208984375">
        <ele>73.1999969482421875</ele>
        <time>2025-09-06T09:25:05.000Z</time>
        <extensions>
          <ns3:TrackPointExtension>
            <ns3:hr>151</ns3:hr>
            <ns3:cad>80</ns3:cad>
          </ns3:TrackPointExtension>
        </extensions>
      </trkpt>
      <trkpt lat="52.1279186569154262542724609375" lon="1.47504287771880626678466796875">
        <ele>73.40000152587890625</ele>
        <time>2025-09-06T09:25:06.000Z</time>
        <extensions>
          <ns3:TrackPointExtension>
            <ns3:hr>150</ns3:hr>
            <ns3:cad>80</ns3:cad>
          </ns3:TrackPointExtension>
        </extensions>
      </trkpt>
      <trkpt lat="52.12792821228504180908203125" lon="1.47503466345369815826416015625">
        <ele>73.59999847412109375</ele>
        <time>2025-09-06T09:25:07.000Z</time>
        <extensions>
          <ns3:TrackPointExtension>
            <ns3:hr>153</ns3:hr>
            <ns3:cad>81</ns3:cad>
          </ns3:TrackPointExtension>
        </extensions>
      </trkpt>
      <trkpt lat="52.1279583871364593505859375" lon="1.47501538507640361785888671875">
        <ele>74.1999969482421875</ele>
        <time>2025-09-06T09:25:09.000Z</time>
        <extensions>
          <ns3:TrackPointExtension>
            <ns3:hr>153</ns3:hr>
            <ns3:cad>81</ns3:cad>
          </ns3:TrackPointExtension>
        </extensions>
      </trkpt>
      <trkpt lat="52.1280252747237682342529296875" lon="1.474962495267391204833984375">
        <ele>75.1999969482421875</ele>
        <time>2025-09-06T09:25:13.000Z</time>
        <extensions>
          <ns3:TrackPointExtension>
            <ns3:hr>154</ns3:hr>
            <ns3:cad>79</ns3:cad>
          </ns3:TrackPointExtension>
        </extensions>
      </trkpt>
      <trkpt lat="52.12806559167802333831787109375" lon="1.47494128905236721038818359375">
        <ele>75.8000030517578125</ele>
        <time>2025-09-06T09:25:15.000Z</time>
        <extensions>
          <ns3:TrackPointExtension>
            <ns3:hr>151</ns3:hr>
            <ns3:cad>80</ns3:cad>
          </ns3:TrackPointExtension>
        </extensions>
      </trkpt>
      <trkpt lat="52.12811487726867198944091796875" lon="1.47492217831313610076904296875">
        <ele>76.40000152587890625</ele>
        <time>2025-09-06T09:25:17.000Z</time>
        <extensions>
          <ns3:TrackPointExtension>
            <ns3:hr>151</ns3:hr>
            <ns3:cad>80</ns3:cad>
          </ns3:TrackPointExtension>
        </extensions>
      </trkpt>
      <trkpt lat="52.128140442073345184326171875" lon="1.47491480223834514617919921875">
        <ele>76.59999847412109375</ele>
        <time>2025-09-06T09:25:18.000Z</time>
        <extensions>
          <ns3:TrackPointExtension>
            <ns3:hr>150</ns3:hr>
            <ns3:cad>80</ns3:cad>
          </ns3:TrackPointExtension>
        </extensions>
      </trkpt>
      <trkpt lat="52.12821646593511104583740234375" lon="1.47487775422632694244384765625">
        <ele>77.59999847412109375</ele>
        <time>2025-09-06T09:25:21.000Z</time>
        <extensions>
          <ns3:TrackPointExtension>
            <ns3:hr>150</ns3:hr>
            <ns3:cad>80</ns3:cad>
          </ns3:TrackPointExtension>
        </extensions>
      </trkpt>
      <trkpt lat="52.12828167714178562164306640625" lon="1.4748533628880977630615234375">
        <ele>78.8000030517578125</ele>
        <time>2025-09-06T09:25:25.000Z</time>
        <extensions>
          <ns3:TrackPointExtension>
            <ns3:hr>149</ns3:hr>
            <ns3:cad>80</ns3:cad>
          </ns3:TrackPointExtension>
        </extensions>
      </trkpt>
      <trkpt lat="52.12831269018352031707763671875" lon="1.4748184941709041595458984375">
        <ele>79.40000152587890625</ele>
        <time>2025-09-06T09:25:27.000Z</time>
        <extensions>
          <ns3:TrackPointExtension>
            <ns3:hr>148</ns3:hr>
            <ns3:cad>77</ns3:cad>
          </ns3:TrackPointExtension>
        </extensions>
      </trkpt>
      <trkpt lat="52.1283424459397792816162109375" lon="1.47476979531347751617431640625">
        <ele>80</ele>
        <time>2025-09-06T09:25:29.000Z</time>
        <extensions>
          <ns3:TrackPointExtension>
            <ns3:hr>147</ns3:hr>
            <ns3:cad>79</ns3:cad>
          </ns3:TrackPointExtension>
        </extensions>
      </trkpt>
      <trkpt lat="52.12838812731206417083740234375" lon="1.474739871919155120849609375">
        <ele>81.40000152587890625</ele>
        <time>2025-09-06T09:25:33.000Z</time>
        <extensions>
          <ns3:TrackPointExtension>
            <ns3:hr>148</ns3:hr>
            <ns3:cad>76</ns3:cad>
          </ns3:TrackPointExtension>
        </extensions>
      </trkpt>
      <trkpt lat="52.12839298881590366363525390625" lon="1.47474498488008975982666015625">
        <ele>82</ele>
        <time>2025-09-06T09:25:35.000Z</time>
        <extensions>
          <ns3:TrackPointExtension>
            <ns3:hr>150</ns3:hr>
            <ns3:cad>0</ns3:cad>
          </ns3:TrackPointExtension>
        </extensions>
      </trkpt>
      <trkpt lat="52.12842366658151149749755859375" lon="1.4747554622590541839599609375">
        <ele>82.59999847412109375</ele>
        <time>2025-09-06T09:25:37.000Z</time>
        <extensions>
          <ns3:TrackPointExtension>
            <ns3:hr>148</ns3:hr>
            <ns3:cad>0</ns3:cad>
          </ns3:TrackPointExtension>
        </extensions>
      </trkpt>
      <trkpt lat="52.128485776484012603759765625" lon="1.47474490106105804443359375">
        <ele>83.8000030517578125</ele>
        <time>2025-09-06T09:25:41.000Z</time>
        <extensions>
          <ns3:TrackPointExtension>
            <ns3:hr>150</ns3:hr>
            <ns3:cad>0</ns3:cad>
          </ns3:TrackPointExtension>
        </extensions>
      </trkpt>
      <trkpt lat="52.128512598574161529541015625" lon="1.4747443981468677520751953125">
        <ele>84.40000152587890625</ele>
        <time>2025-09-06T09:25:43.000Z</time>
        <extensions>
          <ns3:TrackPointExtension>
            <ns3:hr>150</ns3:hr>
            <ns3:cad>0</ns3:cad>
          </ns3:TrackPointExtension>
        </extensions>
      </trkpt>
      <trkpt lat="52.12852223776280879974365234375" lon="1.47473626770079135894775390625">
        <ele>84.8000030517578125</ele>
        <time>2025-09-06T09:25:45.000Z</time>
        <extensions>
          <ns3:TrackPointExtension>
            <ns3:hr>149</ns3:hr>
            <ns3:cad>0</ns3:cad>
          </ns3:TrackPointExtension>
        </extensions>
      </trkpt>
      <trkpt lat="52.12857118807733058929443359375" lon="1.4746890775859355926513671875">
        <ele>86</ele>
        <time>2025-09-06T09:25:49.000Z</time>
        <extensions>
          <ns3:TrackPointExtension>
            <ns3:hr>147</ns3:hr>
            <ns3:cad>0</ns3:cad>
          </ns3:TrackPointExtension>
        </extensions>
      </trkpt>
      <trkpt lat="52.1286155283451080322265625" lon="1.4746396243572235107421875">
        <ele>87.40000152587890625</ele>
        <time>2025-09-06T09:25:52.000Z</time>
        <extensions>
          <ns3:TrackPointExtension>
            <ns3:hr>146</ns3:hr>
            <ns3:cad>0</ns3:cad>
          </ns3:TrackPointExtension>
        </extensions>
      </trkpt>
      <trkpt lat="52.12862960994243621826171875" lon="1.4746223576366901397705078125">
        <ele>87.8000030517578125</ele>
        <time>2025-09-06T09:25:53.000Z</time>
        <extensions>
          <ns3:TrackPointExtension>
            <ns3:hr>146</ns3:hr>
            <ns3:cad>0</ns3:cad>
          </ns3:TrackPointExtension>
        </extensions>
      </trkpt>
      <trkpt lat="52.12865014560520648956298828125" lon="1.474599055945873260498046875">
        <ele>88.40000152587890625</ele>
        <time>2025-09-06T09:25:54.000Z</time>
        <extensions>
          <ns3:TrackPointExtension>
            <ns3:hr>147</ns3:hr>
            <ns3:cad>77</ns3:cad>
          </ns3:TrackPointExtension>
        </extensions>
      </trkpt>
      <trkpt lat="52.12869071401655673980712890625" lon="1.47455086000263690948486328125">
        <ele>89.59999847412109375</ele>
        <time>2025-09-06T09:25:56.000Z</time>
        <extensions>
          <ns3:TrackPointExtension>
            <ns3:hr>150</ns3:hr>
            <ns3:cad>79</ns3:cad>
          </ns3:TrackPointExtension>
        </extensions>
      </trkpt>
      <trkpt lat="52.128719128668308258056640625" lon="1.4745175838470458984375">
        <ele>90.1999969482421875</ele>
        <time>2025-09-06T09:25:57.000Z</time>
        <extensions>
          <ns3:TrackPointExtension>
            <ns3:hr>152</ns3:hr>
            <ns3:cad>80</ns3:cad>
          </ns3:TrackPointExtension>
        </extensions>
      </trkpt>
      <trkpt lat="52.128740586340427398681640625" lon="1.47449369542300701141357421875">
        <ele>90.8000030517578125</ele>
        <time>2025-09-06T09:25:58.000Z</time>
        <extensions>
          <ns3:TrackPointExtension>
            <ns3:hr>152</ns3:hr>
            <ns3:cad>81</ns3:cad>
          </ns3:TrackPointExtension>
        </extensions>
      </trkpt>
      <trkpt lat="52.12878056801855564117431640625" lon="1.47444055415689945220947265625">
        <ele>92</ele>
        <time>2025-09-06T09:26:00.000Z</time>
        <extensions>
          <ns3:TrackPointExtension>
            <ns3:hr>155</ns3:hr>
            <ns3:cad>81</ns3:cad>
          </ns3:TrackPointExtension>
        </extensions>
      </trkpt>
      <trkpt lat="52.12880101986229419708251953125" lon="1.47441289387643337249755859375">
        <ele>92.40000152587890625</ele>
        <time>2025-09-06T09:26:01.000Z</time>
        <extensions>
          <ns3:TrackPointExtension>
            <ns3:hr>151</ns3:hr>
            <ns3:cad>82</ns3:cad>
          </ns3:TrackPointExtension>
        </extensions>
      </trkpt>
      <trkpt lat="52.12882298044860363006591796875" lon="1.47438137792050838470458984375">
        <ele>93</ele>
        <time>2025-09-06T09:26:02.000Z</time>
        <extensions>
          <ns3:TrackPointExtension>
            <ns3:hr>151</ns3:hr>
            <ns3:cad>82</ns3:cad>
          </ns3:TrackPointExtension>
        </extensions>
      </trkpt>
      <trkpt lat="52.12885499931871891021728515625" lon="1.47433158941566944122314453125">
        <ele>94.1999969482421875</ele>
        <time>2025-09-06T09:26:04.000Z</time>
        <extensions>
          <ns3:TrackPointExtension>
            <ns3:hr>152</ns3:hr>
            <ns3:cad>82</ns3:cad>
          </ns3:TrackPointExtension>
        </extensions>
      </trkpt>
      <trkpt lat="52.1288832463324069976806640625" lon="1.4742877520620822906494140625">
        <ele>95.1999969482421875</ele>
        <time>2025-09-06T09:26:06.000Z</time>
        <extensions>
          <ns3:TrackPointExtension>
            <ns3:hr>152</ns3:hr>
            <ns3:cad>81</ns3:cad>
          </ns3:TrackPointExtension>
        </extensions>
      </trkpt>
      <trkpt lat="52.1289164386689662933349609375" lon="1.47425279952585697174072265625">
        <ele>96.1999969482421875</ele>
        <time>2025-09-06T09:26:08.000Z</time>
        <extensions>
          <ns3:TrackPointExtension>
            <ns3:hr>152</ns3:hr>
            <ns3:cad>81</ns3:cad>
          </ns3:TrackPointExtension>
        </extensions>
      </trkpt>
      <trkpt lat="52.12893077172338962554931640625" lon="1.47423335351049900054931640625">
        <ele>96.8000030517578125</ele>
        <time>2025-09-06T09:26:09.000Z</time>
        <extensions>
          <ns3:TrackPointExtension>
            <ns3:hr>155</ns3:hr>
            <ns3:cad>81</ns3:cad>
          </ns3:TrackPointExtension>
        </extensions>
      </trkpt>
      <trkpt lat="52.1289546601474285125732421875" lon="1.47420049645006656646728515625">
        <ele>97.59999847412109375</ele>
        <time>2025-09-06T09:26:11.000Z</time>
        <extensions>
          <ns3:TrackPointExtension>
            <ns3:hr>155</ns3:hr>
            <ns3:cad>81</ns3:cad>
          </ns3:TrackPointExtension>
        </extensions>
      </trkpt>
      <trkpt lat="52.12897888384759426116943359375" lon="1.4741487801074981689453125">
        <ele>99</ele>
        <time>2025-09-06T09:26:14.000Z</time>
        <extensions>
          <ns3:TrackPointExtension>
            <ns3:hr>156</ns3:hr>
            <ns3:cad>81</ns3:cad>
          </ns3:TrackPointExtension>
        </extensions>
      </trkpt>
      <trkpt lat="52.1290381439030170440673828125" lon="1.47410309873521327972412109375">
        <ele>100.1999969482421875</ele>
        <time>2025-09-06T09:26:17.000Z</time>
        <extensions>
          <ns3:TrackPointExtension>
            <ns3:hr>155</ns3:hr>
            <ns3:cad>81</ns3:cad>
          </ns3:TrackPointExtension>
        </extensions>
      </trkpt>
      <trkpt lat="52.12905297987163066864013671875" lon="1.47408097051084041595458984375">
        <ele>100.59999847412109375</ele>
        <time>2025-09-06T09:26:18.000Z</time>
        <extensions>
          <ns3:TrackPointExtension>
            <ns3:hr>154</ns3:hr>
            <ns3:cad>80</ns3:cad>
          </ns3:TrackPointExtension>
        </extensions>
      </trkpt>
      <trkpt lat="52.1290877647697925567626953125" lon="1.474029757082462310791015625">
        <ele>101.1999969482421875</ele>
        <time>2025-09-06T09:26:20.000Z</time>
        <extensions>
          <ns3:TrackPointExtension>
            <ns3:hr>152</ns3:hr>
            <ns3:cad>80</ns3:cad>
          </ns3:TrackPointExtension>
        </extensions>
      </trkpt>
      <trkpt lat="52.12913520634174346923828125" lon="1.47396245039999485015869140625">
        <ele>102.40000152587890625</ele>
        <time>2025-09-06T09:26:23.000Z</time>
        <extensions>
          <ns3:TrackPointExtension>
            <ns3:hr>153</ns3:hr>
            <ns3:cad>80</ns3:cad>
          </ns3:TrackPointExtension>
        </extensions>
      </trkpt>
      <trkpt lat="52.12918356992304325103759765625" lon="1.47390377707779407501220703125">
        <ele>103.59999847412109375</ele>
        <time>2025-09-06T09:26:26.000Z</time>
        <extensions>
          <ns3:TrackPointExtension>
            <ns3:hr>153</ns3:hr>
            <ns3:cad>80</ns3:cad>
          </ns3:TrackPointExtension>
        </extensions>
      </trkpt>
      <trkpt lat="52.12923738174140453338623046875" lon="1.473851390182971954345703125">
        <ele>104.59999847412109375</ele>
        <time>2025-09-06T09:26:29.000Z</time>
        <extensions>
          <ns3:TrackPointExtension>
            <ns3:hr>151</ns3:hr>
            <ns3:cad>79</ns3:cad>
          </ns3:TrackPointExtension>
        </extensions>
      </trkpt>
      <trkpt lat="52.12930091656744480133056640625" lon="1.47381492890417575836181640625">
        <ele>105.59999847412109375</ele>
        <time>2025-09-06T09:26:32.000Z</time>
        <extensions>
          <ns3:TrackPointExtension>
            <ns3:hr>152</ns3:hr>
            <ns3:cad>79</ns3:cad>
          </ns3:TrackPointExtension>
        </extensions>
      </trkpt>
      <trkpt lat="52.12932161986827850341796875" lon="1.4738002605736255645751953125">
        <ele>106</ele>
        <time>2025-09-06T09:26:33.000Z</time>
        <extensions>
          <ns3:TrackPointExtension>
            <ns3:hr>151</ns3:hr>
            <ns3:cad>80</ns3:cad>
          </ns3:TrackPointExtension>
        </extensions>
      </trkpt>
      <trkpt lat="52.12936679832637310028076171875" lon="1.47377637214958667755126953125">
        <ele>106.8000030517578125</ele>
        <time>2025-09-06T09:26:35.000Z</time>
        <extensions>
          <ns3:TrackPointExtension>
            <ns3:hr>151</ns3:hr>
            <ns3:cad>80</ns3:cad>
          </ns3:TrackPointExtension>
        </extensions>
      </trkpt>
      <trkpt lat="52.12941952049732208251953125" lon="1.473750807344913482666015625">
        <ele>107.8000030517578125</ele>
        <time>2025-09-06T09:26:38.000Z</time>
        <extensions>
          <ns3:TrackPointExtension>
            <ns3:hr>148</ns3:hr>
            <ns3:cad>81</ns3:cad>
          </ns3:TrackPointExtension>
        </extensions>
      </trkpt>
      <trkpt lat="52.1294371224939823150634765625" lon="1.4737410843372344970703125">
        <ele>108</ele>
        <time>2025-09-06T09:26:39.000Z</time>
        <extensions>
          <ns3:TrackPointExtension>
            <ns3:hr>148</ns3:hr>
            <ns3:cad>81</ns3:cad>
          </ns3:TrackPointExtension>
        </extensions>
      </trkpt>
      <trkpt lat="52.12946570478379726409912109375" lon="1.47372457198798656463623046875">
        <ele>108.8000030517578125</ele>
        <time>2025-09-06T09:26:41.000Z</time>
        <extensions>
          <ns3:TrackPointExtension>
            <ns3:hr>147</ns3:hr>
            <ns3:cad>80</ns3:cad>
          </ns3:TrackPointExtension>
        </extensions>
      </trkpt>
      <trkpt lat="52.12948062457144260406494140625" lon="1.473716609179973602294921875">
        <ele>109</ele>
        <time>2025-09-06T09:26:42.000Z</time>
        <extensions>
          <ns3:TrackPointExtension>
            <ns3:hr>146</ns3:hr>
            <ns3:cad>80</ns3:cad>
          </ns3:TrackPointExtension>
        </extensions>
      </trkpt>
      <trkpt lat="52.12952991016209125518798828125" lon="1.47368232719600200653076171875">
        <ele>110</ele>
        <time>2025-09-06T09:26:45.000Z</time>
        <extensions>
          <ns3:TrackPointExtension>
            <ns3:hr>147</ns3:hr>
            <ns3:cad>79</ns3:cad>
          </ns3:TrackPointExtension>
        </extensions>
      </trkpt>
      <trkpt lat="52.129590511322021484375" lon="1.47362968884408473968505859375">
        <ele>111.1999969482421875</ele>
        <time>2025-09-06T09:26:48.000Z</time>
        <extensions>
          <ns3:TrackPointExtension>
            <ns3:hr>145</ns3:hr>
            <ns3:cad>80</ns3:cad>
          </ns3:TrackPointExtension>
        </extensions>
      </trkpt>
      <trkpt lat="52.1296258829534053802490234375" lon="1.47359850816428661346435546875">
        <ele>111.8000030517578125</ele>
        <time>2025-09-06T09:26:50.000Z</time>
        <extensions>
          <ns3:TrackPointExtension>
            <ns3:hr>145</ns3:hr>
            <ns3:cad>79</ns3:cad>
          </ns3:TrackPointExtension>
        </extensions>
      </trkpt>
      <trkpt lat="52.12964390404522418975830078125" lon="1.4735876955091953277587890625">
        <ele>112.1999969482421875</ele>
        <time>2025-09-06T09:26:51.000Z</time>
        <extensions>
          <ns3:TrackPointExtension>
            <ns3:hr>144</ns3:hr>
            <ns3:cad>79</ns3:cad>
          </ns3:TrackPointExtension>
        </extensions>
      </trkpt>
      <trkpt lat="52.12968505918979644775390625" lon="1.47355190478265285491943359375">
        <ele>113</ele>
        <time>2025-09-06T09:26:53.000Z</time>
        <extensions>
          <ns3:TrackPointExtension>
            <ns3:hr>147</ns3:hr>
            <ns3:cad>79</ns3:cad>
          </ns3:TrackPointExtension>
        </extensions>
      </trkpt>
      <trkpt lat="52.12970274500548839569091796875" lon="1.473542265594005584716796875">
        <ele>113.40000152587890625</ele>
        <time>2025-09-06T09:26:54.000Z</time>
        <extensions>
          <ns3:TrackPointExtension>
            <ns3:hr>146</ns3:hr>
            <ns3:cad>79</ns3:cad>
          </ns3:TrackPointExtension>
        </extensions>
      </trkpt>
      <trkpt lat="52.12976560927927494049072265625" lon="1.47350303828716278076171875">
        <ele>114.59999847412109375</ele>
        <time>2025-09-06T09:26:57.000Z</time>
        <extensions>
          <ns3:TrackPointExtension>
            <ns3:hr>146</ns3:hr>
            <ns3:cad>79</ns3:cad>
          </ns3:TrackPointExtension>
        </extensions>
      </trkpt>
      <trkpt lat="52.12979905307292938232421875" lon="1.473477222025394439697265625">
        <ele>115.1999969482421875</ele>
        <time>2025-09-06T09:26:59.000Z</time>
        <extensions>
          <ns3:TrackPointExtension>
            <ns3:hr>145</ns3:hr>
            <ns3:cad>79</ns3:cad>
          </ns3:TrackPointExtension>
        </extensions>
      </trkpt>
      <trkpt lat="52.12982377968728542327880859375" lon="1.47346959449350833892822265625">
        <ele>115.59999847412109375</ele>
        <time>2025-09-06T09:27:00.000Z</time>
        <extensions>
          <ns3:TrackPointExtension>
            <ns3:hr>145</ns3:hr>
            <ns3:cad>79</ns3:cad>
          </ns3:TrackPointExtension>
        </extensions>
      </trkpt>
      <trkpt lat="52.12988111190497875213623046875" lon="1.47345702163875102996826171875">
        <ele>116.8000030517578125</ele>
        <time>2025-09-06T09:27:03.000Z</time>
        <extensions>
          <ns3:TrackPointExtension>
            <ns3:hr>144</ns3:hr>
            <ns3:cad>78</ns3:cad>
          </ns3:TrackPointExtension>
        </extensions>
      </trkpt>
      <trkpt lat="52.1299279667437076568603515625" lon="1.47339214570820331573486328125">
        <ele>118</ele>
        <time>2025-09-06T09:27:06.000Z</time>
        <extensions>
          <ns3:TrackPointExtension>
            <ns3:hr>144</ns3:hr>
            <ns3:cad>78</ns3:cad>
          </ns3:TrackPointExtension>
        </extensions>
      </trkpt>
      <trkpt lat="52.12994464673101902008056640625" lon="1.47336130030453205108642578125">
        <ele>118.40000152587890625</ele>
        <time>2025-09-06T09:27:07.000Z</time>
        <extensions>
          <ns3:TrackPointExtension>
            <ns3:hr>147</ns3:hr>
            <ns3:cad>78</ns3:cad>
          </ns3:TrackPointExtension>
        </extensions>
      </trkpt>
      <trkpt lat="52.1299819462001323699951171875" lon="1.4733194746077060699462890625">
        <ele>119.1999969482421875</ele>
        <time>2025-09-06T09:27:09.000Z</time>
        <extensions>
          <ns3:TrackPointExtension>
            <ns3:hr>148</ns3:hr>
            <ns3:cad>80</ns3:cad>
          </ns3:TrackPointExtension>
        </extensions>
      </trkpt>
      <trkpt lat="52.13002813048660755157470703125" lon="1.47324462421238422393798828125">
        <ele>120.1999969482421875</ele>
        <time>2025-09-06T09:27:12.000Z</time>
        <extensions>
          <ns3:TrackPointExtension>
            <ns3:hr>149</ns3:hr>
            <ns3:cad>80</ns3:cad>
          </ns3:TrackPointExtension>
        </extensions>
      </trkpt>
      <trkpt lat="52.13006459176540374755859375" lon="1.47320372052490711212158203125">
        <ele>121</ele>
        <time>2025-09-06T09:27:14.000Z</time>
        <extensions>
          <ns3:TrackPointExtension>
            <ns3:hr>149</ns3:hr>
            <ns3:cad>80</ns3:cad>
          </ns3:TrackPointExtension>
        </extensions>
      </trkpt>
      <trkpt lat="52.13008412159979343414306640625" lon="1.47319114767014980316162109375">
        <ele>121.1999969482421875</ele>
        <time>2025-09-06T09:27:15.000Z</time>
        <extensions>
          <ns3:TrackPointExtension>
            <ns3:hr>150</ns3:hr>
            <ns3:cad>80</ns3:cad>
          </ns3:TrackPointExtension>
        </extensions>
      </trkpt>
      <trkpt lat="52.13015419431030750274658203125" lon="1.473156698048114776611328125">
        <ele>122.59999847412109375</ele>
        <time>2025-09-06T09:27:19.000Z</time>
        <extensions>
          <ns3:TrackPointExtension>
            <ns3:hr>150</ns3:hr>
            <ns3:cad>81</ns3:cad>
          </ns3:TrackPointExtension>
        </extensions>
      </trkpt>
      <trkpt lat="52.130190990865230560302734375" lon="1.47313180379569530487060546875">
        <ele>123.1999969482421875</ele>
        <time>2025-09-06T09:27:21.000Z</time>
        <extensions>
          <ns3:TrackPointExtension>
            <ns3:hr>149</ns3:hr>
            <ns3:cad>79</ns3:cad>
          </ns3:TrackPointExtension>
        </extensions>
      </trkpt>
      <trkpt lat="52.130217142403125762939453125" lon="1.4731105975806713104248046875">
        <ele>123.8000030517578125</ele>
        <time>2025-09-06T09:27:23.000Z</time>
        <extensions>
          <ns3:TrackPointExtension>
            <ns3:hr>148</ns3:hr>
            <ns3:cad>78</ns3:cad>
          </ns3:TrackPointExtension>
        </extensions>
      </trkpt>
      <trkpt lat="52.130280844867229461669921875" lon="1.473062150180339813232421875">
        <ele>125</ele>
        <time>2025-09-06T09:27:27.000Z</time>
        <extensions>
          <ns3:TrackPointExtension>
            <ns3:hr>148</ns3:hr>
            <ns3:cad>79</ns3:cad>
          </ns3:TrackPointExtension>
        </extensions>
      </trkpt>
      <trkpt lat="52.1302997879683971405029296875" lon="1.47305586375296115875244140625">
        <ele>125.1999969482421875</ele>
        <time>2025-09-06T09:27:28.000Z</time>
        <extensions>
          <ns3:TrackPointExtension>
            <ns3:hr>148</ns3:hr>
            <ns3:cad>79</ns3:cad>
          </ns3:TrackPointExtension>
        </extensions>
      </trkpt>
      <trkpt lat="52.13033205829560756683349609375" lon="1.47303021512925624847412109375">
        <ele>126</ele>
        <time>2025-09-06T09:27:30.000Z</time>
        <extensions>
          <ns3:TrackPointExtension>
            <ns3:hr>148</ns3:hr>
            <ns3:cad>79</ns3:cad>
          </ns3:TrackPointExtension>
        </extensions>
      </trkpt>
      <trkpt lat="52.13038302026689052581787109375" lon="1.47299417294561862945556640625">
        <ele>127.1999969482421875</ele>
        <time>2025-09-06T09:27:33.000Z</time>
        <extensions>
          <ns3:TrackPointExtension>
            <ns3:hr>148</ns3:hr>
            <ns3:cad>80</ns3:cad>
          </ns3:TrackPointExtension>
        </extensions>
      </trkpt>
      <trkpt lat="52.13040833361446857452392578125" lon="1.47290985099971294403076171875">
        <ele>128.600006103515625</ele>
        <time>2025-09-06T09:27:36.000Z</time>
        <extensions>
          <ns3:TrackPointExtension>
            <ns3:hr>148</ns3:hr>
            <ns3:cad>79</ns3:cad>
          </ns3:TrackPointExtension>
        </extensions>
      </trkpt>
      <trkpt lat="52.1304332278668880462646484375" lon="1.472881771624088287353515625">
        <ele>129.399993896484375</ele>
        <time>2025-09-06T09:27:38.000Z</time>
        <extensions>
          <ns3:TrackPointExtension>
            <ns3:hr>147</ns3:hr>
            <ns3:cad>79</ns3:cad>
          </ns3:TrackPointExtension>
        </extensions>
      </trkpt>
      <trkpt lat="52.13044286705553531646728515625" lon="1.47286601364612579345703125">
        <ele>129.8000030517578125</ele>
        <time>2025-09-06T09:27:39.000Z</time>
        <extensions>
          <ns3:TrackPointExtension>
            <ns3:hr>148</ns3:hr>
            <ns3:cad>80</ns3:cad>
          </ns3:TrackPointExtension>
        </extensions>
      </trkpt>
      <trkpt lat="52.13050958700478076934814453125" lon="1.47281480021774768829345703125">
        <ele>131.1999969482421875</ele>
        <time>2025-09-06T09:27:42.000Z</time>
        <extensions>
          <ns3:TrackPointExtension>
            <ns3:hr>146</ns3:hr>
            <ns3:cad>79</ns3:cad>
          </ns3:TrackPointExtension>
        </extensions>
      </trkpt>
      <trkpt lat="52.13056507520377635955810546875" lon="1.4727736450731754302978515625">
        <ele>132.399993896484375</ele>
        <time>2025-09-06T09:27:45.000Z</time>
        <extensions>
          <ns3:TrackPointExtension>
            <ns3:hr>149</ns3:hr>
            <ns3:cad>79</ns3:cad>
          </ns3:TrackPointExtension>
        </extensions>
      </trkpt>
      <trkpt lat="52.1305797435343265533447265625" lon="1.47275797091424465179443359375">
        <ele>132.8000030517578125</ele>
        <time>2025-09-06T09:27:46.000Z</time>
        <extensions>
          <ns3:TrackPointExtension>
            <ns3:hr>151</ns3:hr>
            <ns3:cad>79</ns3:cad>
          </ns3:TrackPointExtension>
        </extensions>
      </trkpt>
      <trkpt lat="52.130614109337329864501953125" lon="1.4727293886244297027587890625">
        <ele>133.600006103515625</ele>
        <time>2025-09-06T09:27:48.000Z</time>
        <extensions>
          <ns3:TrackPointExtension>
            <ns3:hr>154</ns3:hr>
            <ns3:cad>80</ns3:cad>
          </ns3:TrackPointExtension>
        </extensions>
      </trkpt>
      <trkpt lat="52.13065576739609241485595703125" lon="1.47268303669989109039306640625">
        <ele>134.8000030517578125</ele>
        <time>2025-09-06T09:27:51.000Z</time>
        <extensions>
          <ns3:TrackPointExtension>
            <ns3:hr>155</ns3:hr>
            <ns3:cad>80</ns3:cad>
          </ns3:TrackPointExtension>
        </extensions>
      </trkpt>
      <trkpt lat="52.130695246160030364990234375" lon="1.4726469106972217559814453125">
        <ele>136</ele>
        <time>2025-09-06T09:27:54.000Z</time>
        <extensions>
          <ns3:TrackPointExtension>
            <ns3:hr>154</ns3:hr>
            <ns3:cad>80</ns3:cad>
          </ns3:TrackPointExtension>
        </extensions>
      </trkpt>
      <trkpt lat="52.13074830360710620880126953125" lon="1.4726214297115802764892578125">
        <ele>137.1999969482421875</ele>
        <time>2025-09-06T09:27:57.000Z</time>
        <extensions>
          <ns3:TrackPointExtension>
            <ns3:hr>155</ns3:hr>
            <ns3:cad>79</ns3:cad>
          </ns3:TrackPointExtension>
        </extensions>
      </trkpt>
      <trkpt lat="52.1307631395757198333740234375" lon="1.47260659374296665191650390625">
        <ele>137.399993896484375</ele>
        <time>2025-09-06T09:27:58.000Z</time>
        <extensions>
          <ns3:TrackPointExtension>
            <ns3:hr>152</ns3:hr>
            <ns3:cad>79</ns3:cad>
          </ns3:TrackPointExtension>
        </extensions>
      </trkpt>
      <trkpt lat="52.13081954978406429290771484375" lon="1.4725701324641704559326171875">
        <ele>138.1999969482421875</ele>
        <time>2025-09-06T09:28:01.000Z</time>
        <extensions>
          <ns3:TrackPointExtension>
            <ns3:hr>152</ns3:hr>
            <ns3:cad>79</ns3:cad>
          </ns3:TrackPointExtension>
        </extensions>
      </trkpt>
      <trkpt lat="52.13085123337805271148681640625" lon="1.472545154392719268798828125">
        <ele>138.399993896484375</ele>
        <time>2025-09-06T09:28:03.000Z</time>
        <extensions>
          <ns3:TrackPointExtension>
            <ns3:hr>151</ns3:hr>
            <ns3:cad>79</ns3:cad>
          </ns3:TrackPointExtension>
        </extensions>
      </trkpt>
      <trkpt lat="52.13102675043046474456787109375" lon="1.4724269695580005645751953125">
        <ele>139</ele>
        <time>2025-09-06T09:28:12.000Z</time>
        <extensions>
          <ns3:TrackPointExtension>
            <ns3:hr>155</ns3:hr>
            <ns3:cad>80</ns3:cad>
          </ns3:TrackPointExtension>
        </extensions>
      </trkpt>
      <trkpt lat="52.13103630580008029937744140625" lon="1.472405008971691131591796875">
        <ele>139</ele>
        <time>2025-09-06T09:28:13.000Z</time>
        <extensions>
          <ns3:TrackPointExtension>
            <ns3:hr>154</ns3:hr>
            <ns3:cad>80</ns3:cad>
          </ns3:TrackPointExtension>
        </extensions>
      </trkpt>
      <trkpt lat="52.131227664649486541748046875" lon="1.4722764305770397186279296875">
        <ele>137.1999969482421875</ele>
        <time>2025-09-06T09:28:21.000Z</time>
        <extensions>
          <ns3:TrackPointExtension>
            <ns3:hr>153</ns3:hr>
            <ns3:cad>79</ns3:cad>
          </ns3:TrackPointExtension>
        </extensions>
      </trkpt>
      <trkpt lat="52.1312482841312885284423828125" lon="1.47225857712328433990478515625">
        <ele>137</ele>
        <time>2025-09-06T09:28:22.000Z</time>
        <extensions>
          <ns3:TrackPointExtension>
            <ns3:hr>152</ns3:hr>
            <ns3:cad>79</ns3:cad>
          </ns3:TrackPointExtension>
        </extensions>
      </trkpt>
      <trkpt lat="52.13133067823946475982666015625" lon="1.47221197374165058135986328125">
        <ele>135.8000030517578125</ele>
        <time>2025-09-06T09:28:26.000Z</time>
        <extensions>
          <ns3:TrackPointExtension>
            <ns3:hr>153</ns3:hr>
            <ns3:cad>79</ns3:cad>
          </ns3:TrackPointExtension>
        </extensions>
      </trkpt>
      <trkpt lat="52.1314031817018985748291015625" lon="1.47215212695300579071044921875">
        <ele>134.600006103515625</ele>
        <time>2025-09-06T09:28:30.000Z</time>
        <extensions>
          <ns3:TrackPointExtension>
            <ns3:hr>154</ns3:hr>
            <ns3:cad>81</ns3:cad>
          </ns3:TrackPointExtension>
        </extensions>
      </trkpt>
      <trkpt lat="52.13148524053394794464111328125" lon="1.47208825685083866119384765625">
        <ele>133.600006103515625</ele>
        <time>2025-09-06T09:28:34.000Z</time>
        <extensions>
          <ns3:TrackPointExtension>
            <ns3:hr>155</ns3:hr>
            <ns3:cad>80</ns3:cad>
          </ns3:TrackPointExtension>
        </extensions>
      </trkpt>
      <trkpt lat="52.13153402321040630340576171875" lon="1.47204785607755184173583984375">
        <ele>132.399993896484375</ele>
        <time>2025-09-06T09:28:38.000Z</time>
        <extensions>
          <ns3:TrackPointExtension>
            <ns3:hr>153</ns3:hr>
            <ns3:cad>79</ns3:cad>
          </ns3:TrackPointExtension>
        </extensions>
      </trkpt>
      <trkpt lat="52.13156051002442836761474609375" lon="1.47201709449291229248046875">
        <ele>132</ele>
        <time>2025-09-06T09:28:40.000Z</time>
        <extensions>
          <ns3:TrackPointExtension>
            <ns3:hr>152</ns3:hr>
            <ns3:cad>79</ns3:cad>
          </ns3:TrackPointExtension>
        </extensions>
      </trkpt>
      <trkpt lat="52.1315865777432918548583984375" lon="1.471993289887905120849609375">
        <ele>131.399993896484375</ele>
        <time>2025-09-06T09:28:42.000Z</time>
        <extensions>
          <ns3:TrackPointExtension>
            <ns3:hr>154</ns3:hr>
            <ns3:cad>79</ns3:cad>
          </ns3:TrackPointExtension>
        </extensions>
      </trkpt>
      <trkpt lat="52.1316464245319366455078125" lon="1.4719331078231334686279296875">
        <ele>130.399993896484375</ele>
        <time>2025-09-06T09:28:47.000Z</time>
        <extensions>
          <ns3:TrackPointExtension>
            <ns3:hr>154</ns3:hr>
            <ns3:cad>0</ns3:cad>
          </ns3:TrackPointExtension>
        </extensions>
      </trkpt>
      <trkpt lat="52.13165338151156902313232421875" lon="1.47192145697772502899169921875">
        <ele>130</ele>
        <time>2025-09-06T09:28:49.000Z</time>
        <extensions>
          <ns3:TrackPointExtension>
            <ns3:hr>152</ns3:hr>
            <ns3:cad>0</ns3:cad>
          </ns3:TrackPointExtension>
        </extensions>
      </trkpt>
      <trkpt lat="52.13165874592959880828857421875" lon="1.47192397154867649078369140625">
        <ele>129.399993896484375</ele>
        <time>2025-09-06T09:28:53.000Z</time>
        <extensions>
          <ns3:TrackPointExtension>
            <ns3:hr>149</ns3:hr>
            <ns3:cad>0</ns3:cad>
          </ns3:TrackPointExtension>
        </extensions>
      </trkpt>
      <trkpt lat="52.131685316562652587890625" lon="1.47196881473064422607421875">
        <ele>128.399993896484375</ele>
        <time>2025-09-06T09:28:57.000Z</time>
        <extensions>
          <ns3:TrackPointExtension>
            <ns3:hr>149</ns3:hr>
            <ns3:cad>0</ns3:cad>
          </ns3:TrackPointExtension>
        </extensions>
      </trkpt>
      <trkpt lat="52.13168196380138397216796875" lon="1.4719815552234649658203125">
        <ele>128.1999969482421875</ele>
        <time>2025-09-06T09:28:58.000Z</time>
        <extensions>
          <ns3:TrackPointExtension>
            <ns3:hr>149</ns3:hr>
            <ns3:cad>0</ns3:cad>
          </ns3:TrackPointExtension>
        </extensions>
      </trkpt>
      <trkpt lat="52.13169897906482219696044921875" lon="1.47195967845618724822998046875">
        <ele>127.1999969482421875</ele>
        <time>2025-09-06T09:29:03.000Z</time>
        <extensions>
          <ns3:TrackPointExtension>
            <ns3:hr>147</ns3:hr>
            <ns3:cad>0</ns3:cad>
          </ns3:TrackPointExtension>
        </extensions>
      </trkpt>
      <trkpt lat="52.13170342147350311279296875" lon="1.4719525538384914398193359375">
        <ele>127</ele>
        <time>2025-09-06T09:29:04.000Z</time>
        <extensions>
          <ns3:TrackPointExtension>
            <ns3:hr>146</ns3:hr>
            <ns3:cad>0</ns3:cad>
          </ns3:TrackPointExtension>
        </extensions>
      </trkpt>
      <trkpt lat="52.13171205483376979827880859375" lon="1.471937634050846099853515625">
        <ele>126.1999969482421875</ele>
        <time>2025-09-06T09:29:09.000Z</time>
        <extensions>
          <ns3:TrackPointExtension>
            <ns3:hr>144</ns3:hr>
            <ns3:cad>0</ns3:cad>
          </ns3:TrackPointExtension>
        </extensions>
      </trkpt>
      <trkpt lat="52.1317079477012157440185546875" lon="1.47190536372363567352294921875">
        <ele>125.8000030517578125</ele>
        <time>2025-09-06T09:29:14.000Z</time>
        <extensions>
          <ns3:TrackPointExtension>
            <ns3:hr>142</ns3:hr>
            <ns3:cad>0</ns3:cad>
          </ns3:TrackPointExtension>
        </extensions>
      </trkpt>
      <trkpt lat="52.13171943090856075286865234375" lon="1.4718834869563579559326171875">
        <ele>125.40000152587890625</ele>
        <time>2025-09-06T09:29:22.000Z</time>
        <extensions>
          <ns3:TrackPointExtension>
            <ns3:hr>141</ns3:hr>
            <ns3:cad>0</ns3:cad>
          </ns3:TrackPointExtension>
        </extensions>
      </trkpt>
      <trkpt lat="52.13172487914562225341796875" lon="1.47196554578840732574462890625">
        <ele>125.1999969482421875</ele>
        <time>2025-09-06T09:29:29.000Z</time>
        <extensions>
          <ns3:TrackPointExtension>
            <ns3:hr>140</ns3:hr>
            <ns3:cad>0</ns3:cad>
          </ns3:TrackPointExtension>
        </extensions>
      </trkpt>
      <trkpt lat="52.131724543869495391845703125" lon="1.471975184977054595947265625">
        <ele>125</ele>
        <time>2025-09-06T09:29:30.000Z</time>
        <extensions>
          <ns3:TrackPointExtension>
            <ns3:hr>139</ns3:hr>
            <ns3:cad>0</ns3:cad>
          </ns3:TrackPointExtension>
        </extensions>
      </trkpt>
      <trkpt lat="52.13173334486782550811767578125" lon="1.471968479454517364501953125">
        <ele>124.40000152587890625</ele>
        <time>2025-09-06T09:29:36.000Z</time>
        <extensions>
          <ns3:TrackPointExtension>
            <ns3:hr>139</ns3:hr>
            <ns3:cad>0</ns3:cad>
          </ns3:TrackPointExtension>
        </extensions>
      </trkpt>
      <trkpt lat="52.1317391283810138702392578125" lon="1.47195515222847461700439453125">
        <ele>124</ele>
        <time>2025-09-06T09:29:39.000Z</time>
        <extensions>
          <ns3:TrackPointExtension>
            <ns3:hr>136</ns3:hr>
            <ns3:cad>63</ns3:cad>
          </ns3:TrackPointExtension>
        </extensions>
      </trkpt>
      <trkpt lat="52.13175999931991100311279296875" lon="1.4719233848154544830322265625">
        <ele>123</ele>
        <time>2025-09-06T09:29:44.000Z</time>
        <extensions>
          <ns3:TrackPointExtension>
            <ns3:hr>136</ns3:hr>
            <ns3:cad>53</ns3:cad>
          </ns3:TrackPointExtension>
        </extensions>
      </trkpt>
      <trkpt lat="52.1317696385085582733154296875" lon="1.4719144999980926513671875">
        <ele>122.8000030517578125</ele>
        <time>2025-09-06T09:29:45.000Z</time>
        <extensions>
          <ns3:TrackPointExtension>
            <ns3:hr>136</ns3:hr>
            <ns3:cad>53</ns3:cad>
          </ns3:TrackPointExtension>
        </extensions>
      </trkpt>
      <trkpt lat="52.13179855607450008392333984375" lon="1.47187627851963043212890625">
        <ele>121.8000030517578125</ele>
        <time>2025-09-06T09:29:49.000Z</time>
        <extensions>
          <ns3:TrackPointExtension>
            <ns3:hr>137</ns3:hr>
            <ns3:cad>53</ns3:cad>
          </ns3:TrackPointExtension>
        </extensions>
      </trkpt>
      <trkpt lat="52.131827808916568756103515625" lon="1.47185306064784526824951171875">
        <ele>120.8000030517578125</ele>
        <time>2025-09-06T09:29:52.000Z</time>
        <extensions>
          <ns3:TrackPointExtension>
            <ns3:hr>134</ns3:hr>
            <ns3:cad>53</ns3:cad>
          </ns3:TrackPointExtension>
        </extensions>
      </trkpt>
      <trkpt lat="52.1318475902080535888671875" lon="1.47184182889759540557861328125">
        <ele>120.40000152587890625</ele>
        <time>2025-09-06T09:29:53.000Z</time>
        <extensions>
          <ns3:TrackPointExtension>
            <ns3:hr>136</ns3:hr>
            <ns3:cad>53</ns3:cad>
          </ns3:TrackPointExtension>
        </extensions>
      </trkpt>
      <trkpt lat="52.13186301290988922119140625" lon="1.4718385599553585052490234375">
        <ele>120</ele>
        <time>2025-09-06T09:29:54.000Z</time>
        <extensions>
          <ns3:TrackPointExtension>
            <ns3:hr>137</ns3:hr>
            <ns3:cad>53</ns3:cad>
          </ns3:TrackPointExtension>
        </extensions>
      </trkpt>
      <trkpt lat="52.131877429783344268798828125" lon="1.47183679975569248199462890625">
        <ele>119.8000030517578125</ele>
        <time>2025-09-06T09:29:55.000Z</time>
        <extensions>
          <ns3:TrackPointExtension>
            <ns3:hr>132</ns3:hr>
            <ns3:cad>53</ns3:cad>
          </ns3:TrackPointExtension>
        </extensions>
      </trkpt>
      <trkpt lat="52.13189410977065563201904296875" lon="1.47183696739375591278076171875">
        <ele>119.40000152587890625</ele>
        <time>2025-09-06T09:29:56.000Z</time>
        <extensions>
          <ns3:TrackPointExtension>
            <ns3:hr>134</ns3:hr>
            <ns3:cad>53</ns3:cad>
          </ns3:TrackPointExtension>
        </extensions>
      </trkpt>
      <trkpt lat="52.13192403316497802734375" lon="1.47181483916938304901123046875">
        <ele>118.1999969482421875</ele>
        <time>2025-09-06T09:29:59.000Z</time>
        <extensions>
          <ns3:TrackPointExtension>
            <ns3:hr>136</ns3:hr>
            <ns3:cad>53</ns3:cad>
          </ns3:TrackPointExtension>
        </extensions>
      </trkpt>
      <trkpt lat="52.1319597400724887847900390625" lon="1.4717882685363292694091796875">
        <ele>117</ele>
        <time>2025-09-06T09:30:02.000Z</time>
        <extensions>
          <ns3:TrackPointExtension>
            <ns3:hr>136</ns3:hr>
            <ns3:cad>52</ns3:cad>
          </ns3:TrackPointExtension>
        </extensions>
      </trkpt>
      <trkpt lat="52.131972648203372955322265625" lon="1.471780054271221160888671875">
        <ele>116.59999847412109375</ele>
        <time>2025-09-06T09:30:03.000Z</time>
        <extensions>
          <ns3:TrackPointExtension>
            <ns3:hr>135</ns3:hr>
            <ns3:cad>0</ns3:cad>
          </ns3:TrackPointExtension>
        </extensions>
      </trkpt>
      <trkpt lat="52.1319942735135555267333984375" lon="1.4717691577970981597900390625">
        <ele>115.8000030517578125</ele>
        <time>2025-09-06T09:30:05.000Z</time>
        <extensions>
          <ns3:TrackPointExtension>
            <ns3:hr>134</ns3:hr>
            <ns3:cad>0</ns3:cad>
          </ns3:TrackPointExtension>
        </extensions>
      </trkpt>
      <trkpt lat="52.132015563547611236572265625" lon="1.47176370956003665924072265625">
        <ele>114.1999969482421875</ele>
        <time>2025-09-06T09:30:08.000Z</time>
        <extensions>
          <ns3:TrackPointExtension>
            <ns3:hr>132</ns3:hr>
            <ns3:cad>0</ns3:cad>
          </ns3:TrackPointExtension>
        </extensions>
      </trkpt>
      <trkpt lat="52.132033668458461761474609375" lon="1.4717463590204715728759765625">
        <ele>113</ele>
        <time>2025-09-06T09:30:10.000Z</time>
        <extensions>
          <ns3:TrackPointExtension>
            <ns3:hr>131</ns3:hr>
            <ns3:cad>51</ns3:cad>
          </ns3:TrackPointExtension>
        </extensions>
      </trkpt>
      <trkpt lat="52.1320541203022003173828125" lon="1.47172263823449611663818359375">
        <ele>111.59999847412109375</ele>
        <time>2025-09-06T09:30:12.000Z</time>
        <extensions>
          <ns3:TrackPointExtension>
            <ns3:hr>132</ns3:hr>
            <ns3:cad>51</ns3:cad>
          </ns3:TrackPointExtension>
        </extensions>
      </trkpt>
      <trkpt lat="52.132076583802700042724609375" lon="1.47170570679008960723876953125">
        <ele>110</ele>
        <time>2025-09-06T09:30:14.000Z</time>
        <extensions>
          <ns3:TrackPointExtension>
            <ns3:hr>132</ns3:hr>
            <ns3:cad>0</ns3:cad>
          </ns3:TrackPointExtension>
        </extensions>
      </trkpt>
      <trkpt lat="52.1321069262921810150146484375" lon="1.4716863445937633514404296875">
        <ele>108.40000152587890625</ele>
        <time>2025-09-06T09:30:16.000Z</time>
        <extensions>
          <ns3:TrackPointExtension>
            <ns3:hr>131</ns3:hr>
            <ns3:cad>0</ns3:cad>
          </ns3:TrackPointExtension>
        </extensions>
      </trkpt>
      <trkpt lat="52.13213366456329822540283203125" lon="1.4716702513396739959716796875">
        <ele>107</ele>
        <time>2025-09-06T09:30:18.000Z</time>
        <extensions>
          <ns3:TrackPointExtension>
            <ns3:hr>129</ns3:hr>
            <ns3:cad>0</ns3:cad>
          </ns3:TrackPointExtension>
        </extensions>
      </trkpt>
      <trkpt lat="52.132162414491176605224609375" lon="1.47165440954267978668212890625">
        <ele>105.1999969482421875</ele>
        <time>2025-09-06T09:30:20.000Z</time>
        <extensions>
          <ns3:TrackPointExtension>
            <ns3:hr>129</ns3:hr>
            <ns3:cad>0</ns3:cad>
          </ns3:TrackPointExtension>
        </extensions>
      </trkpt>
      <trkpt lat="52.1321840398013591766357421875" lon="1.4716357178986072540283203125">
        <ele>103.59999847412109375</ele>
        <time>2025-09-06T09:30:22.000Z</time>
        <extensions>
          <ns3:TrackPointExtension>
            <ns3:hr>129</ns3:hr>
            <ns3:cad>0</ns3:cad>
          </ns3:TrackPointExtension>
        </extensions>
      </trkpt>
      <trkpt lat="52.1322138793766498565673828125" lon="1.47161484695971012115478515625">
        <ele>102</ele>
        <time>2025-09-06T09:30:24.000Z</time>
        <extensions>
          <ns3:TrackPointExtension>
            <ns3:hr>128</ns3:hr>
            <ns3:cad>0</ns3:cad>
          </ns3:TrackPointExtension>
        </extensions>
      </trkpt>
      <trkpt lat="52.1322427131235599517822265625" lon="1.47159389220178127288818359375">
        <ele>100.59999847412109375</ele>
        <time>2025-09-06T09:30:26.000Z</time>
        <extensions>
          <ns3:TrackPointExtension>
            <ns3:hr>130</ns3:hr>
            <ns3:cad>78</ns3:cad>
          </ns3:TrackPointExtension>
        </extensions>
      </trkpt>
      <trkpt lat="52.13226458989083766937255859375" lon="1.4715867675840854644775390625">
        <ele>99.8000030517578125</ele>
        <time>2025-09-06T09:30:27.000Z</time>
        <extensions>
          <ns3:TrackPointExtension>
            <ns3:hr>128</ns3:hr>
            <ns3:cad>79</ns3:cad>
          </ns3:TrackPointExtension>
        </extensions>
      </trkpt>
      <trkpt lat="52.13228755630552768707275390625" lon="1.47157344035804271697998046875">
        <ele>99</ele>
        <time>2025-09-06T09:30:28.000Z</time>
        <extensions>
          <ns3:TrackPointExtension>
            <ns3:hr>128</ns3:hr>
            <ns3:cad>79</ns3:cad>
          </ns3:TrackPointExtension>
        </extensions>
      </trkpt>
      <trkpt lat="52.13232728652656078338623046875" lon="1.47155583836138248443603515625">
        <ele>97.40000152587890625</ele>
        <time>2025-09-06T09:30:30.000Z</time>
        <extensions>
          <ns3:TrackPointExtension>
            <ns3:hr>127</ns3:hr>
            <ns3:cad>78</ns3:cad>
          </ns3:TrackPointExtension>
        </extensions>
      </trkpt>
      <trkpt lat="52.13236936368048191070556640625" lon="1.47154091857373714447021484375">
        <ele>96</ele>
        <time>2025-09-06T09:30:32.000Z</time>
        <extensions>
          <ns3:TrackPointExtension>
            <ns3:hr>127</ns3:hr>
            <ns3:cad>79</ns3:cad>
          </ns3:TrackPointExtension>
        </extensions>
      </trkpt>
      <trkpt lat="52.1324100159108638763427734375" lon="1.47151694633066654205322265625">
        <ele>94.40000152587890625</ele>
        <time>2025-09-06T09:30:34.000Z</time>
        <extensions>
          <ns3:TrackPointExtension>
            <ns3:hr>129</ns3:hr>
            <ns3:cad>79</ns3:cad>
          </ns3:TrackPointExtension>
        </extensions>
      </trkpt>
      <trkpt lat="52.13243164122104644775390625" lon="1.471496410667896270751953125">
        <ele>93.59999847412109375</ele>
        <time>2025-09-06T09:30:35.000Z</time>
        <extensions>
          <ns3:TrackPointExtension>
            <ns3:hr>132</ns3:hr>
            <ns3:cad>79</ns3:cad>
          </ns3:TrackPointExtension>
        </extensions>
      </trkpt>
      <trkpt lat="52.13244798593223094940185546875" lon="1.47148207761347293853759765625">
        <ele>93</ele>
        <time>2025-09-06T09:30:36.000Z</time>
        <extensions>
          <ns3:TrackPointExtension>
            <ns3:hr>136</ns3:hr>
            <ns3:cad>79</ns3:cad>
          </ns3:TrackPointExtension>
        </extensions>
      </trkpt>
      <trkpt lat="52.132472880184650421142578125" lon="1.47147671319544315338134765625">
        <ele>92.1999969482421875</ele>
        <time>2025-09-06T09:30:37.000Z</time>
        <extensions>
          <ns3:TrackPointExtension>
            <ns3:hr>139</ns3:hr>
            <ns3:cad>80</ns3:cad>
          </ns3:TrackPointExtension>
        </extensions>
      </trkpt>
      <trkpt lat="52.132492326200008392333984375" lon="1.4714680798351764678955078125">
        <ele>91.59999847412109375</ele>
        <time>2025-09-06T09:30:38.000Z</time>
        <extensions>
          <ns3:TrackPointExtension>
            <ns3:hr>141</ns3:hr>
            <ns3:cad>80</ns3:cad>
          </ns3:TrackPointExtension>
        </extensions>
      </trkpt>
      <trkpt lat="52.13251302950084209442138671875" lon="1.4714553393423557281494140625">
        <ele>90.8000030517578125</ele>
        <time>2025-09-06T09:30:39.000Z</time>
        <extensions>
          <ns3:TrackPointExtension>
            <ns3:hr>145</ns3:hr>
            <ns3:cad>80</ns3:cad>
          </ns3:TrackPointExtension>
        </extensions>
      </trkpt>
      <trkpt lat="52.1325384266674518585205078125" lon="1.4714424312114715576171875">
        <ele>90.1999969482421875</ele>
        <time>2025-09-06T09:30:40.000Z</time>
        <extensions>
          <ns3:TrackPointExtension>
            <ns3:hr>146</ns3:hr>
            <ns3:cad>80</ns3:cad>
          </ns3:TrackPointExtension>
        </extensions>
      </trkpt>
      <trkpt lat="52.13259031064808368682861328125" lon="1.47142072208225727081298828125">
        <ele>88.8000030517578125</ele>
        <time>2025-09-06T09:30:42.000Z</time>
        <extensions>
          <ns3:TrackPointExtension>
            <ns3:hr>147</ns3:hr>
            <ns3:cad>81</ns3:cad>
          </ns3:TrackPointExtension>
        </extensions>
      </trkpt>
      <trkpt lat="52.1326390095055103302001953125" lon="1.4714067243039608001708984375">
        <ele>87.40000152587890625</ele>
        <time>2025-09-06T09:30:44.000Z</time>
        <extensions>
          <ns3:TrackPointExtension>
            <ns3:hr>149</ns3:hr>
            <ns3:cad>81</ns3:cad>
          </ns3:TrackPointExtension>
        </extensions>
      </trkpt>
      <trkpt lat="52.13267278857529163360595703125" lon="1.4713986776769161224365234375">
        <ele>85.8000030517578125</ele>
        <time>2025-09-06T09:30:46.000Z</time>
        <extensions>
          <ns3:TrackPointExtension>
            <ns3:hr>153</ns3:hr>
            <ns3:cad>81</ns3:cad>
          </ns3:TrackPointExtension>
        </extensions>
      </trkpt>
      <trkpt lat="52.13270547799766063690185546875" lon="1.4713856019079685211181640625">
        <ele>84.40000152587890625</ele>
        <time>2025-09-06T09:30:48.000Z</time>
        <extensions>
          <ns3:TrackPointExtension>
            <ns3:hr>155</ns3:hr>
            <ns3:cad>81</ns3:cad>
          </ns3:TrackPointExtension>
        </extensions>
      </trkpt>
      <trkpt lat="52.1327372454106807708740234375" lon="1.47137378342449665069580078125">
        <ele>82.8000030517578125</ele>
        <time>2025-09-06T09:30:50.000Z</time>
        <extensions>
          <ns3:TrackPointExtension>
            <ns3:hr>154</ns3:hr>
            <ns3:cad>81</ns3:cad>
          </ns3:TrackPointExtension>
        </extensions>
      </trkpt>
      <trkpt lat="52.1327640675008296966552734375" lon="1.47136255167424678802490234375">
        <ele>81.40000152587890625</ele>
        <time>2025-09-06T09:30:52.000Z</time>
        <extensions>
          <ns3:TrackPointExtension>
            <ns3:hr>155</ns3:hr>
            <ns3:cad>81</ns3:cad>
          </ns3:TrackPointExtension>
        </extensions>
      </trkpt>
      <trkpt lat="52.1327821724116802215576171875" lon="1.47135467268526554107666015625">
        <ele>80.8000030517578125</ele>
        <time>2025-09-06T09:30:53.000Z</time>
        <extensions>
          <ns3:TrackPointExtension>
            <ns3:hr>155</ns3:hr>
            <ns3:cad>81</ns3:cad>
          </ns3:TrackPointExtension>
        </extensions>
      </trkpt>
      <trkpt lat="52.13280254043638706207275390625" lon="1.47134394384920597076416015625">
        <ele>80</ele>
        <time>2025-09-06T09:30:54.000Z</time>
        <extensions>
          <ns3:TrackPointExtension>
            <ns3:hr>156</ns3:hr>
            <ns3:cad>81</ns3:cad>
          </ns3:TrackPointExtension>
        </extensions>
      </trkpt>
      <trkpt lat="52.13284042663872241973876953125" lon="1.47132785059511661529541015625">
        <ele>78.59999847412109375</ele>
        <time>2025-09-06T09:30:56.000Z</time>
        <extensions>
          <ns3:TrackPointExtension>
            <ns3:hr>153</ns3:hr>
            <ns3:cad>82</ns3:cad>
          </ns3:TrackPointExtension>
        </extensions>
      </trkpt>
      <trkpt lat="52.13288837112486362457275390625" lon="1.4713161997497081756591796875">
        <ele>77.1999969482421875</ele>
        <time>2025-09-06T09:30:58.000Z</time>
        <extensions>
          <ns3:TrackPointExtension>
            <ns3:hr>155</ns3:hr>
            <ns3:cad>82</ns3:cad>
          </ns3:TrackPointExtension>
        </extensions>
      </trkpt>
      <trkpt lat="52.13293589651584625244140625" lon="1.47129968740046024322509765625">
        <ele>75.8000030517578125</ele>
        <time>2025-09-06T09:31:00.000Z</time>
        <extensions>
          <ns3:TrackPointExtension>
            <ns3:hr>155</ns3:hr>
            <ns3:cad>81</ns3:cad>
          </ns3:TrackPointExtension>
        </extensions>
      </trkpt>
      <trkpt lat="52.13297612965106964111328125" lon="1.47128887474536895751953125">
        <ele>74.40000152587890625</ele>
        <time>2025-09-06T09:31:02.000Z</time>
        <extensions>
          <ns3:TrackPointExtension>
            <ns3:hr>155</ns3:hr>
            <ns3:cad>81</ns3:cad>
          </ns3:TrackPointExtension>
        </extensions>
      </trkpt>
      <trkpt lat="52.1329980902373790740966796875" lon="1.47128040902316570281982421875">
        <ele>73.59999847412109375</ele>
        <time>2025-09-06T09:31:03.000Z</time>
        <extensions>
          <ns3:TrackPointExtension>
            <ns3:hr>156</ns3:hr>
            <ns3:cad>81</ns3:cad>
          </ns3:TrackPointExtension>
        </extensions>
      </trkpt>
      <trkpt lat="52.13302214629948139190673828125" lon="1.47127035073935985565185546875">
        <ele>73</ele>
        <time>2025-09-06T09:31:04.000Z</time>
        <extensions>
          <ns3:TrackPointExtension>
            <ns3:hr>156</ns3:hr>
            <ns3:cad>81</ns3:cad>
          </ns3:TrackPointExtension>
        </extensions>
      </trkpt>
      <trkpt lat="52.13306874968111515045166015625" lon="1.4712493121623992919921875">
        <ele>71.59999847412109375</ele>
        <time>2025-09-06T09:31:06.000Z</time>
        <extensions>
          <ns3:TrackPointExtension>
            <ns3:hr>153</ns3:hr>
            <ns3:cad>81</ns3:cad>
          </ns3:TrackPointExtension>
        </extensions>
      </trkpt>
      <trkpt lat="52.13311585597693920135498046875" lon="1.47122425027191638946533203125">
        <ele>70.1999969482421875</ele>
        <time>2025-09-06T09:31:08.000Z</time>
        <extensions>
          <ns3:TrackPointExtension>
            <ns3:hr>154</ns3:hr>
            <ns3:cad>81</ns3:cad>
          </ns3:TrackPointExtension>
        </extensions>
      </trkpt>
      <trkpt lat="52.1331677399575710296630859375" lon="1.47119206376373767852783203125">
        <ele>69</ele>
        <time>2025-09-06T09:31:10.000Z</time>
        <extensions>
          <ns3:TrackPointExtension>
            <ns3:hr>155</ns3:hr>
            <ns3:cad>81</ns3:cad>
          </ns3:TrackPointExtension>
        </extensions>
      </trkpt>
      <trkpt lat="52.1332136727869510650634765625" lon="1.47116809152066707611083984375">
        <ele>67.8000030517578125</ele>
        <time>2025-09-06T09:31:12.000Z</time>
        <extensions>
          <ns3:TrackPointExtension>
            <ns3:hr>155</ns3:hr>
            <ns3:cad>81</ns3:cad>
          </ns3:TrackPointExtension>
        </extensions>
      </trkpt>
      <trkpt lat="52.13326136581599712371826171875" lon="1.4711478911340236663818359375">
        <ele>66.59999847412109375</ele>
        <time>2025-09-06T09:31:14.000Z</time>
        <extensions>
          <ns3:TrackPointExtension>
            <ns3:hr>157</ns3:hr>
            <ns3:cad>81</ns3:cad>
          </ns3:TrackPointExtension>
        </extensions>
      </trkpt>
      <trkpt lat="52.1333045326173305511474609375" lon="1.47113607265055179595947265625">
        <ele>65.40000152587890625</ele>
        <time>2025-09-06T09:31:16.000Z</time>
        <extensions>
          <ns3:TrackPointExtension>
            <ns3:hr>159</ns3:hr>
            <ns3:cad>82</ns3:cad>
          </ns3:TrackPointExtension>
        </extensions>
      </trkpt>
      <trkpt lat="52.1333484537899494171142578125" lon="1.47112785838544368743896484375">
        <ele>64.1999969482421875</ele>
        <time>2025-09-06T09:31:18.000Z</time>
        <extensions>
          <ns3:TrackPointExtension>
            <ns3:hr>158</ns3:hr>
            <ns3:cad>81</ns3:cad>
          </ns3:TrackPointExtension>
        </extensions>
      </trkpt>
      <trkpt lat="52.13339245878159999847412109375" lon="1.47112064994871616363525390625">
        <ele>63</ele>
        <time>2025-09-06T09:31:20.000Z</time>
        <extensions>
          <ns3:TrackPointExtension>
            <ns3:hr>158</ns3:hr>
            <ns3:cad>81</ns3:cad>
          </ns3:TrackPointExtension>
        </extensions>
      </trkpt>
      <trkpt lat="52.13341257534921169281005859375" lon="1.4711160399019718170166015625">
        <ele>62.59999847412109375</ele>
        <time>2025-09-06T09:31:21.000Z</time>
        <extensions>
          <ns3:TrackPointExtension>
            <ns3:hr>157</ns3:hr>
            <ns3:cad>81</ns3:cad>
          </ns3:TrackPointExtension>
        </extensions>
      </trkpt>
      <trkpt lat="52.1334319375455379486083984375" lon="1.47111042402684688568115234375">
        <ele>62</ele>
        <time>2025-09-06T09:31:22.000Z</time>
        <extensions>
          <ns3:TrackPointExtension>
            <ns3:hr>157</ns3:hr>
            <ns3:cad>80</ns3:cad>
          </ns3:TrackPointExtension>
        </extensions>
      </trkpt>
      <trkpt lat="52.1334741823375225067138671875" lon="1.47109868936240673065185546875">
        <ele>61</ele>
        <time>2025-09-06T09:31:24.000Z</time>
        <extensions>
          <ns3:TrackPointExtension>
            <ns3:hr>157</ns3:hr>
            <ns3:cad>80</ns3:cad>
          </ns3:TrackPointExtension>
        </extensions>
      </trkpt>
      <trkpt lat="52.1335105597972869873046875" lon="1.4710902236402034759521484375">
        <ele>60</ele>
        <time>2025-09-06T09:31:26.000Z</time>
        <extensions>
          <ns3:TrackPointExtension>
            <ns3:hr>155</ns3:hr>
            <ns3:cad>80</ns3:cad>
          </ns3:TrackPointExtension>
        </extensions>
      </trkpt>
      <trkpt lat="52.133560515940189361572265625" lon="1.47108796052634716033935546875">
        <ele>58.59999847412109375</ele>
        <time>2025-09-06T09:31:29.000Z</time>
        <extensions>
          <ns3:TrackPointExtension>
            <ns3:hr>154</ns3:hr>
            <ns3:cad>79</ns3:cad>
          </ns3:TrackPointExtension>
        </extensions>
      </trkpt>
      <trkpt lat="52.13361181318759918212890625" lon="1.47108410485088825225830078125">
        <ele>57.200000762939453125</ele>
        <time>2025-09-06T09:31:32.000Z</time>
        <extensions>
          <ns3:TrackPointExtension>
            <ns3:hr>153</ns3:hr>
            <ns3:cad>78</ns3:cad>
          </ns3:TrackPointExtension>
        </extensions>
      </trkpt>
      <trkpt lat="52.133669145405292510986328125" lon="1.47107186727225780487060546875">
        <ele>56</ele>
        <time>2025-09-06T09:31:35.000Z</time>
        <extensions>
          <ns3:TrackPointExtension>
            <ns3:hr>154</ns3:hr>
            <ns3:cad>79</ns3:cad>
          </ns3:TrackPointExtension>
        </extensions>
      </trkpt>
      <trkpt lat="52.1337331831455230712890625" lon="1.47106013260781764984130859375">
        <ele>55</ele>
        <time>2025-09-06T09:31:38.000Z</time>
        <extensions>
          <ns3:TrackPointExtension>
            <ns3:hr>154</ns3:hr>
            <ns3:cad>80</ns3:cad>
          </ns3:TrackPointExtension>
        </extensions>
      </trkpt>
      <trkpt lat="52.13378841988742351531982421875" lon="1.4710580371320247650146484375">
        <ele>54</ele>
        <time>2025-09-06T09:31:41.000Z</time>
        <extensions>
          <ns3:TrackPointExtension>
            <ns3:hr>157</ns3:hr>
            <ns3:cad>79</ns3:cad>
          </ns3:TrackPointExtension>
        </extensions>
      </trkpt>
      <trkpt lat="52.13381825946271419525146484375" lon="1.47104747593402862548828125">
        <ele>53.799999237060546875</ele>
        <time>2025-09-06T09:31:42.000Z</time>
        <extensions>
          <ns3:TrackPointExtension>
            <ns3:hr>157</ns3:hr>
            <ns3:cad>79</ns3:cad>
          </ns3:TrackPointExtension>
        </extensions>
      </trkpt>
      <trkpt lat="52.1338594146072864532470703125" lon="1.4710412733256816864013671875">
        <ele>53.40000152587890625</ele>
        <time>2025-09-06T09:31:44.000Z</time>
        <extensions>
          <ns3:TrackPointExtension>
            <ns3:hr>165</ns3:hr>
            <ns3:cad>79</ns3:cad>
          </ns3:TrackPointExtension>
        </extensions>
      </trkpt>
      <trkpt lat="52.13387995027005672454833984375" lon="1.47104202769696712493896484375">
        <ele>53</ele>
        <time>2025-09-06T09:31:45.000Z</time>
        <extensions>
          <ns3:TrackPointExtension>
            <ns3:hr>166</ns3:hr>
            <ns3:cad>79</ns3:cad>
          </ns3:TrackPointExtension>
        </extensions>
      </trkpt>
      <trkpt lat="52.13394130580127239227294921875" lon="1.4710439555346965789794921875">
        <ele>52.59999847412109375</ele>
        <time>2025-09-06T09:31:47.000Z</time>
        <extensions>
          <ns3:TrackPointExtension>
            <ns3:hr>168</ns3:hr>
            <ns3:cad>79</ns3:cad>
          </ns3:TrackPointExtension>
        </extensions>
      </trkpt>
      <trkpt lat="52.13407407514750957489013671875" lon="1.4710483141243457794189453125">
        <ele>51.799999237060546875</ele>
        <time>2025-09-06T09:31:52.000Z</time>
        <extensions>
          <ns3:TrackPointExtension>
            <ns3:hr>171</ns3:hr>
            <ns3:cad>79</ns3:cad>
          </ns3:TrackPointExtension>
        </extensions>
      </trkpt>
      <trkpt lat="52.134093940258026123046875" lon="1.47103498689830303192138671875">
        <ele>51.59999847412109375</ele>
        <time>2025-09-06T09:31:53.000Z</time>
        <extensions>
          <ns3:TrackPointExtension>
            <ns3:hr>171</ns3:hr>
            <ns3:cad>79</ns3:cad>
          </ns3:TrackPointExtension>
        </extensions>
      </trkpt>
      <trkpt lat="52.134121097624301910400390625" lon="1.471019648015499114990234375">
        <ele>51.59999847412109375</ele>
        <time>2025-09-06T09:31:54.000Z</time>
        <extensions>
          <ns3:TrackPointExtension>
            <ns3:hr>173</ns3:hr>
            <ns3:cad>79</ns3:cad>
          </ns3:TrackPointExtension>
        </extensions>
      </trkpt>
      <trkpt lat="52.134319245815277099609375" lon="1.4709899760782718658447265625">
        <ele>51</ele>
        <time>2025-09-06T09:32:03.000Z</time>
        <extensions>
          <ns3:TrackPointExtension>
            <ns3:hr>175</ns3:hr>
            <ns3:cad>79</ns3:cad>
          </ns3:TrackPointExtension>
        </extensions>
      </trkpt>
      <trkpt lat="52.13434011675417423248291015625" lon="1.4709815941751003265380859375">
        <ele>51</ele>
        <time>2025-09-06T09:32:04.000Z</time>
        <extensions>
          <ns3:TrackPointExtension>
            <ns3:hr>173</ns3:hr>
            <ns3:cad>80</ns3:cad>
          </ns3:TrackPointExtension>
        </extensions>
      </trkpt>
      <trkpt lat="52.13443835265934467315673828125" lon="1.47095317952334880828857421875">
        <ele>50.799999237060546875</ele>
        <time>2025-09-06T09:32:09.000Z</time>
        <extensions>
          <ns3:TrackPointExtension>
            <ns3:hr>176</ns3:hr>
            <ns3:cad>79</ns3:cad>
          </ns3:TrackPointExtension>
        </extensions>
      </trkpt>
      <trkpt lat="52.13449987582862377166748046875" lon="1.470974050462245941162109375">
        <ele>50.799999237060546875</ele>
        <time>2025-09-06T09:32:11.000Z</time>
        <extensions>
          <ns3:TrackPointExtension>
            <ns3:hr>177</ns3:hr>
            <ns3:cad>80</ns3:cad>
          </ns3:TrackPointExtension>
        </extensions>
      </trkpt>
      <trkpt lat="52.1346939168870449066162109375" lon="1.47096977569162845611572265625">
        <ele>50.799999237060546875</ele>
        <time>2025-09-06T09:32:19.000Z</time>
        <extensions>
          <ns3:TrackPointExtension>
            <ns3:hr>175</ns3:hr>
            <ns3:cad>80</ns3:cad>
          </ns3:TrackPointExtension>
        </extensions>
      </trkpt>
      <trkpt lat="52.13478620164096355438232421875" lon="1.470967344939708709716796875">
        <ele>51</ele>
        <time>2025-09-06T09:32:22.000Z</time>
        <extensions>
          <ns3:TrackPointExtension>
            <ns3:hr>174</ns3:hr>
            <ns3:cad>80</ns3:cad>
          </ns3:TrackPointExtension>
        </extensions>
      </trkpt>
      <trkpt lat="52.13498233817517757415771484375" lon="1.47094328887760639190673828125">
        <ele>51.200000762939453125</ele>
        <time>2025-09-06T09:32:28.000Z</time>
        <extensions>
          <ns3:TrackPointExtension>
            <ns3:hr>175</ns3:hr>
            <ns3:cad>81</ns3:cad>
          </ns3:TrackPointExtension>
        </extensions>
      </trkpt>
      <trkpt lat="52.135096080601215362548828125" lon="1.470935158431529998779296875">
        <ele>51.40000152587890625</ele>
        <time>2025-09-06T09:32:31.000Z</time>
        <extensions>
          <ns3:TrackPointExtension>
            <ns3:hr>174</ns3:hr>
            <ns3:cad>80</ns3:cad>
          </ns3:TrackPointExtension>
        </extensions>
      </trkpt>
      <trkpt lat="52.13528576306998729705810546875" lon="1.4709323085844516754150390625">
        <ele>52</ele>
        <time>2025-09-06T09:32:37.000Z</time>
        <extensions>
          <ns3:TrackPointExtension>
            <ns3:hr>171</ns3:hr>
            <ns3:cad>80</ns3:cad>
          </ns3:TrackPointExtension>
        </extensions>
      </trkpt>
      <trkpt lat="52.1353775449097156524658203125" lon="1.4709341526031494140625">
        <ele>52.200000762939453125</ele>
        <time>2025-09-06T09:32:42.000Z</time>
        <extensions>
          <ns3:TrackPointExtension>
            <ns3:hr>168</ns3:hr>
            <ns3:cad>79</ns3:cad>
          </ns3:TrackPointExtension>
        </extensions>
      </trkpt>
      <trkpt lat="52.135432027280330657958984375" lon="1.4709262736141681671142578125">
        <ele>52.40000152587890625</ele>
        <time>2025-09-06T09:32:44.000Z</time>
        <extensions>
          <ns3:TrackPointExtension>
            <ns3:hr>167</ns3:hr>
            <ns3:cad>78</ns3:cad>
          </ns3:TrackPointExtension>
        </extensions>
      </trkpt>
      <trkpt lat="52.1355673111975193023681640625" lon="1.4708541892468929290771484375">
        <ele>52.59999847412109375</ele>
        <time>2025-09-06T09:32:51.000Z</time>
        <extensions>
          <ns3:TrackPointExtension>
            <ns3:hr>171</ns3:hr>
            <ns3:cad>79</ns3:cad>
          </ns3:TrackPointExtension>
        </extensions>
      </trkpt>
      <trkpt lat="52.135585583746433258056640625" lon="1.470848657190799713134765625">
        <ele>52.59999847412109375</ele>
        <time>2025-09-06T09:32:52.000Z</time>
        <extensions>
          <ns3:TrackPointExtension>
            <ns3:hr>171</ns3:hr>
            <ns3:cad>79</ns3:cad>
          </ns3:TrackPointExtension>
        </extensions>
      </trkpt>
      <trkpt lat="52.1356129087507724761962890625" lon="1.47084672935307025909423828125">
        <ele>52.59999847412109375</ele>
        <time>2025-09-06T09:32:54.000Z</time>
        <extensions>
          <ns3:TrackPointExtension>
            <ns3:hr>170</ns3:hr>
            <ns3:cad>79</ns3:cad>
          </ns3:TrackPointExtension>
        </extensions>
      </trkpt>
      <trkpt lat="52.13570904918015003204345703125" lon="1.47084538824856281280517578125">
        <ele>53</ele>
        <time>2025-09-06T09:32:59.000Z</time>
        <extensions>
          <ns3:TrackPointExtension>
            <ns3:hr>170</ns3:hr>
            <ns3:cad>80</ns3:cad>
          </ns3:TrackPointExtension>
        </extensions>
      </trkpt>
      <trkpt lat="52.135855816304683685302734375" lon="1.47083424031734466552734375">
        <ele>53.59999847412109375</ele>
        <time>2025-09-06T09:33:07.000Z</time>
        <extensions>
          <ns3:TrackPointExtension>
            <ns3:hr>171</ns3:hr>
            <ns3:cad>79</ns3:cad>
          </ns3:TrackPointExtension>
        </extensions>
      </trkpt>
      <trkpt lat="52.1358787827193737030029296875" lon="1.47082024253904819488525390625">
        <ele>53.59999847412109375</ele>
        <time>2025-09-06T09:33:10.000Z</time>
        <extensions>
          <ns3:TrackPointExtension>
            <ns3:hr>172</ns3:hr>
            <ns3:cad>0</ns3:cad>
          </ns3:TrackPointExtension>
        </extensions>
      </trkpt>
      <trkpt lat="52.13587903417646884918212890625" lon="1.47082912735641002655029296875">
        <ele>53.799999237060546875</ele>
        <time>2025-09-06T09:33:13.000Z</time>
        <extensions>
          <ns3:TrackPointExtension>
            <ns3:hr>171</ns3:hr>
            <ns3:cad>0</ns3:cad>
          </ns3:TrackPointExtension>
        </extensions>
      </trkpt>
      <trkpt lat="52.13588942773640155792236328125" lon="1.47082828916609287261962890625">
        <ele>53.799999237060546875</ele>
        <time>2025-09-06T09:33:16.000Z</time>
        <extensions>
          <ns3:TrackPointExtension>
            <ns3:hr>167</ns3:hr>
            <ns3:cad>0</ns3:cad>
          </ns3:TrackPointExtension>
        </extensions>
      </trkpt>
      <trkpt lat="52.13591272942721843719482421875" lon="1.47080817259848117828369140625">
        <ele>54</ele>
        <time>2025-09-06T09:33:19.000Z</time>
        <extensions>
          <ns3:TrackPointExtension>
            <ns3:hr>163</ns3:hr>
            <ns3:cad>0</ns3:cad>
          </ns3:TrackPointExtension>
        </extensions>
      </trkpt>
      <trkpt lat="52.1359310857951641082763671875" lon="1.47079962305724620819091796875">
        <ele>54</ele>
        <time>2025-09-06T09:33:20.000Z</time>
        <extensions>
          <ns3:TrackPointExtension>
            <ns3:hr>162</ns3:hr>
            <ns3:cad>0</ns3:cad>
          </ns3:TrackPointExtension>
        </extensions>
      </trkpt>
      <trkpt lat="52.1360732428729534149169921875" lon="1.47078503854572772979736328125">
        <ele>53.799999237060546875</ele>
        <time>2025-09-06T09:33:27.000Z</time>
        <extensions>
          <ns3:TrackPointExtension>
            <ns3:hr>162</ns3:hr>
            <ns3:cad>78</ns3:cad>
          </ns3:TrackPointExtension>
        </extensions>
      </trkpt>
      <trkpt lat="52.1361815370619297027587890625" lon="1.47079241462051868438720703125">
        <ele>53.40000152587890625</ele>
        <time>2025-09-06T09:33:32.000Z</time>
        <extensions>
          <ns3:TrackPointExtension>
            <ns3:hr>166</ns3:hr>
            <ns3:cad>78</ns3:cad>
          </ns3:TrackPointExtension>
        </extensions>
      </trkpt>
      <trkpt lat="52.13626988232135772705078125" lon="1.470808088779449462890625">
        <ele>52.59999847412109375</ele>
        <time>2025-09-06T09:33:36.000Z</time>
        <extensions>
          <ns3:TrackPointExtension>
            <ns3:hr>169</ns3:hr>
            <ns3:cad>79</ns3:cad>
          </ns3:TrackPointExtension>
        </extensions>
      </trkpt>
      <trkpt lat="52.1363535337150096893310546875" lon="1.47079559974372386932373046875">
        <ele>51.59999847412109375</ele>
        <time>2025-09-06T09:33:40.000Z</time>
        <extensions>
          <ns3:TrackPointExtension>
            <ns3:hr>169</ns3:hr>
            <ns3:cad>79</ns3:cad>
          </ns3:TrackPointExtension>
        </extensions>
      </trkpt>
      <trkpt lat="52.1364353410899639129638671875" lon="1.4708079211413860321044921875">
        <ele>50.200000762939453125</ele>
        <time>2025-09-06T09:33:44.000Z</time>
        <extensions>
          <ns3:TrackPointExtension>
            <ns3:hr>168</ns3:hr>
            <ns3:cad>79</ns3:cad>
          </ns3:TrackPointExtension>
        </extensions>
      </trkpt>
      <trkpt lat="52.136503569781780242919921875" lon="1.4708142913877964019775390625">
        <ele>49</ele>
        <time>2025-09-06T09:33:47.000Z</time>
        <extensions>
          <ns3:TrackPointExtension>
            <ns3:hr>169</ns3:hr>
            <ns3:cad>79</ns3:cad>
          </ns3:TrackPointExtension>
        </extensions>
      </trkpt>
      <trkpt lat="52.136575989425182342529296875" lon="1.47081638686358928680419921875">
        <ele>47.799999237060546875</ele>
        <time>2025-09-06T09:33:50.000Z</time>
        <extensions>
          <ns3:TrackPointExtension>
            <ns3:hr>168</ns3:hr>
            <ns3:cad>79</ns3:cad>
          </ns3:TrackPointExtension>
        </extensions>
      </trkpt>
      <trkpt lat="52.13660180568695068359375" lon="1.470813117921352386474609375">
        <ele>47.40000152587890625</ele>
        <time>2025-09-06T09:33:51.000Z</time>
        <extensions>
          <ns3:TrackPointExtension>
            <ns3:hr>169</ns3:hr>
            <ns3:cad>79</ns3:cad>
          </ns3:TrackPointExtension>
        </extensions>
      </trkpt>
      <trkpt lat="52.13664966635406017303466796875" lon="1.47081739269196987152099609375">
        <ele>46.59999847412109375</ele>
        <time>2025-09-06T09:33:53.000Z</time>
        <extensions>
          <ns3:TrackPointExtension>
            <ns3:hr>171</ns3:hr>
            <ns3:cad>81</ns3:cad>
          </ns3:TrackPointExtension>
        </extensions>
      </trkpt>
      <trkpt lat="52.136717140674591064453125" lon="1.47081814706325531005859375">
        <ele>45.40000152587890625</ele>
        <time>2025-09-06T09:33:56.000Z</time>
        <extensions>
          <ns3:TrackPointExtension>
            <ns3:hr>170</ns3:hr>
            <ns3:cad>80</ns3:cad>
          </ns3:TrackPointExtension>
        </extensions>
      </trkpt>
      <trkpt lat="52.1367850340902805328369140625" lon="1.4708166383206844329833984375">
        <ele>44.200000762939453125</ele>
        <time>2025-09-06T09:33:59.000Z</time>
        <extensions>
          <ns3:TrackPointExtension>
            <ns3:hr>170</ns3:hr>
            <ns3:cad>80</ns3:cad>
          </ns3:TrackPointExtension>
        </extensions>
      </trkpt>
      <trkpt lat="52.13685418479144573211669921875" lon="1.47081420756876468658447265625">
        <ele>43.200000762939453125</ele>
        <time>2025-09-06T09:34:02.000Z</time>
        <extensions>
          <ns3:TrackPointExtension>
            <ns3:hr>169</ns3:hr>
            <ns3:cad>79</ns3:cad>
          </ns3:TrackPointExtension>
        </extensions>
      </trkpt>
      <trkpt lat="52.1369275264441967010498046875" lon="1.47081152535974979400634765625">
        <ele>42</ele>
        <time>2025-09-06T09:34:05.000Z</time>
        <extensions>
          <ns3:TrackPointExtension>
            <ns3:hr>169</ns3:hr>
            <ns3:cad>80</ns3:cad>
          </ns3:TrackPointExtension>
        </extensions>
      </trkpt>
      <trkpt lat="52.13697656057775020599365234375" lon="1.47081756033003330230712890625">
        <ele>41.200000762939453125</ele>
        <time>2025-09-06T09:34:07.000Z</time>
        <extensions>
          <ns3:TrackPointExtension>
            <ns3:hr>169</ns3:hr>
            <ns3:cad>80</ns3:cad>
          </ns3:TrackPointExtension>
        </extensions>
      </trkpt>
      <trkpt lat="52.13699810206890106201171875" lon="1.4708223380148410797119140625">
        <ele>40.799999237060546875</ele>
        <time>2025-09-06T09:34:08.000Z</time>
        <extensions>
          <ns3:TrackPointExtension>
            <ns3:hr>170</ns3:hr>
            <ns3:cad>81</ns3:cad>
          </ns3:TrackPointExtension>
        </extensions>
      </trkpt>
      <trkpt lat="52.13706440292298793792724609375" lon="1.47083734162151813507080078125">
        <ele>39.59999847412109375</ele>
        <time>2025-09-06T09:34:11.000Z</time>
        <extensions>
          <ns3:TrackPointExtension>
            <ns3:hr>170</ns3:hr>
            <ns3:cad>81</ns3:cad>
          </ns3:TrackPointExtension>
        </extensions>
      </trkpt>
      <trkpt lat="52.13710782118141651153564453125" lon="1.4708139561116695404052734375">
        <ele>38.799999237060546875</ele>
        <time>2025-09-06T09:34:13.000Z</time>
        <extensions>
          <ns3:TrackPointExtension>
            <ns3:hr>169</ns3:hr>
            <ns3:cad>80</ns3:cad>
          </ns3:TrackPointExtension>
        </extensions>
      </trkpt>
      <trkpt lat="52.13713112287223339080810546875" lon="1.47081722505390644073486328125">
        <ele>38.40000152587890625</ele>
        <time>2025-09-06T09:34:14.000Z</time>
        <extensions>
          <ns3:TrackPointExtension>
            <ns3:hr>169</ns3:hr>
            <ns3:cad>79</ns3:cad>
          </ns3:TrackPointExtension>
        </extensions>
      </trkpt>
      <trkpt lat="52.13718258775770664215087890625" lon="1.47076986730098724365234375">
        <ele>37.200000762939453125</ele>
        <time>2025-09-06T09:34:17.000Z</time>
        <extensions>
          <ns3:TrackPointExtension>
            <ns3:hr>168</ns3:hr>
            <ns3:cad>80</ns3:cad>
          </ns3:TrackPointExtension>
        </extensions>
      </trkpt>
      <trkpt lat="52.13724444620311260223388671875" lon="1.470750086009502410888671875">
        <ele>36</ele>
        <time>2025-09-06T09:34:20.000Z</time>
        <extensions>
          <ns3:TrackPointExtension>
            <ns3:hr>170</ns3:hr>
            <ns3:cad>80</ns3:cad>
          </ns3:TrackPointExtension>
        </extensions>
      </trkpt>
      <trkpt lat="52.1372817456722259521484375" lon="1.47073022089898586273193359375">
        <ele>35</ele>
        <time>2025-09-06T09:34:22.000Z</time>
        <extensions>
          <ns3:TrackPointExtension>
            <ns3:hr>168</ns3:hr>
            <ns3:cad>80</ns3:cad>
          </ns3:TrackPointExtension>
        </extensions>
      </trkpt>
      <trkpt lat="52.1373016946017742156982421875" lon="1.4707235991954803466796875">
        <ele>34.59999847412109375</ele>
        <time>2025-09-06T09:34:23.000Z</time>
        <extensions>
          <ns3:TrackPointExtension>
            <ns3:hr>168</ns3:hr>
            <ns3:cad>80</ns3:cad>
          </ns3:TrackPointExtension>
        </extensions>
      </trkpt>
      <trkpt lat="52.13736288249492645263671875" lon="1.47070373408496379852294921875">
        <ele>33.40000152587890625</ele>
        <time>2025-09-06T09:34:26.000Z</time>
        <extensions>
          <ns3:TrackPointExtension>
            <ns3:hr>167</ns3:hr>
            <ns3:cad>81</ns3:cad>
          </ns3:TrackPointExtension>
        </extensions>
      </trkpt>
      <trkpt lat="52.13742147199809551239013671875" lon="1.4706878922879695892333984375">
        <ele>32.200000762939453125</ele>
        <time>2025-09-06T09:34:29.000Z</time>
        <extensions>
          <ns3:TrackPointExtension>
            <ns3:hr>167</ns3:hr>
            <ns3:cad>80</ns3:cad>
          </ns3:TrackPointExtension>
        </extensions>
      </trkpt>
      <trkpt lat="52.13746774010360240936279296875" lon="1.47067842073738574981689453125">
        <ele>31.3999996185302734375</ele>
        <time>2025-09-06T09:34:31.000Z</time>
        <extensions>
          <ns3:TrackPointExtension>
            <ns3:hr>167</ns3:hr>
            <ns3:cad>80</ns3:cad>
          </ns3:TrackPointExtension>
        </extensions>
      </trkpt>
      <trkpt lat="52.1374914608895778656005859375" lon="1.47067456506192684173583984375">
        <ele>31</ele>
        <time>2025-09-06T09:34:32.000Z</time>
        <extensions>
          <ns3:TrackPointExtension>
            <ns3:hr>168</ns3:hr>
            <ns3:cad>80</ns3:cad>
          </ns3:TrackPointExtension>
        </extensions>
      </trkpt>
      <trkpt lat="52.13754259049892425537109375" lon="1.47066526114940643310546875">
        <ele>29.799999237060546875</ele>
        <time>2025-09-06T09:34:35.000Z</time>
        <extensions>
          <ns3:TrackPointExtension>
            <ns3:hr>169</ns3:hr>
            <ns3:cad>79</ns3:cad>
          </ns3:TrackPointExtension>
        </extensions>
      </trkpt>
      <trkpt lat="52.13759698905050754547119140625" lon="1.470675654709339141845703125">
        <ele>28.6000003814697265625</ele>
        <time>2025-09-06T09:34:38.000Z</time>
        <extensions>
          <ns3:TrackPointExtension>
            <ns3:hr>168</ns3:hr>
            <ns3:cad>80</ns3:cad>
          </ns3:TrackPointExtension>
        </extensions>
      </trkpt>
      <trkpt lat="52.13761769235134124755859375" lon="1.47067724727094173431396484375">
        <ele>28.3999996185302734375</ele>
        <time>2025-09-06T09:34:39.000Z</time>
        <extensions>
          <ns3:TrackPointExtension>
            <ns3:hr>167</ns3:hr>
            <ns3:cad>80</ns3:cad>
          </ns3:TrackPointExtension>
        </extensions>
      </trkpt>
      <trkpt lat="52.137650549411773681640625" lon="1.47069317288696765899658203125">
        <ele>27.6000003814697265625</ele>
        <time>2025-09-06T09:34:41.000Z</time>
        <extensions>
          <ns3:TrackPointExtension>
            <ns3:hr>168</ns3:hr>
            <ns3:cad>80</ns3:cad>
          </ns3:TrackPointExtension>
        </extensions>
      </trkpt>
      <trkpt lat="52.13769857771694660186767578125" lon="1.47069367580115795135498046875">
        <ele>26.3999996185302734375</ele>
        <time>2025-09-06T09:34:44.000Z</time>
        <extensions>
          <ns3:TrackPointExtension>
            <ns3:hr>170</ns3:hr>
            <ns3:cad>81</ns3:cad>
          </ns3:TrackPointExtension>
        </extensions>
      </trkpt>
      <trkpt lat="52.13771953247487545013427734375" lon="1.47069166414439678192138671875">
        <ele>26.200000762939453125</ele>
        <time>2025-09-06T09:34:45.000Z</time>
        <extensions>
          <ns3:TrackPointExtension>
            <ns3:hr>170</ns3:hr>
            <ns3:cad>81</ns3:cad>
          </ns3:TrackPointExtension>
        </extensions>
      </trkpt>
      <trkpt lat="52.13776429183781147003173828125" lon="1.47069317288696765899658203125">
        <ele>25.3999996185302734375</ele>
        <time>2025-09-06T09:34:47.000Z</time>
        <extensions>
          <ns3:TrackPointExtension>
            <ns3:hr>168</ns3:hr>
            <ns3:cad>80</ns3:cad>
          </ns3:TrackPointExtension>
        </extensions>
      </trkpt>
      <trkpt lat="52.13784425519406795501708984375" lon="1.47070951759815216064453125">
        <ele>24.200000762939453125</ele>
        <time>2025-09-06T09:34:51.000Z</time>
        <extensions>
          <ns3:TrackPointExtension>
            <ns3:hr>166</ns3:hr>
            <ns3:cad>80</ns3:cad>
          </ns3:TrackPointExtension>
        </extensions>
      </trkpt>
      <trkpt lat="52.137907035648822784423828125" lon="1.470716893672943115234375">
        <ele>23.200000762939453125</ele>
        <time>2025-09-06T09:34:54.000Z</time>
        <extensions>
          <ns3:TrackPointExtension>
            <ns3:hr>167</ns3:hr>
            <ns3:cad>80</ns3:cad>
          </ns3:TrackPointExtension>
        </extensions>
      </trkpt>
      <trkpt lat="52.13792606256902217864990234375" lon="1.47071898914873600006103515625">
        <ele>22.799999237060546875</ele>
        <time>2025-09-06T09:34:55.000Z</time>
        <extensions>
          <ns3:TrackPointExtension>
            <ns3:hr>166</ns3:hr>
            <ns3:cad>80</ns3:cad>
          </ns3:TrackPointExtension>
        </extensions>
      </trkpt>
      <trkpt lat="52.1380185149610042572021484375" lon="1.4707170613110065460205078125">
        <ele>21.6000003814697265625</ele>
        <time>2025-09-06T09:34:59.000Z</time>
        <extensions>
          <ns3:TrackPointExtension>
            <ns3:hr>166</ns3:hr>
            <ns3:cad>79</ns3:cad>
          </ns3:TrackPointExtension>
        </extensions>
      </trkpt>
      <trkpt lat="52.138042487204074859619140625" lon="1.4707106910645961761474609375">
        <ele>21.3999996185302734375</ele>
        <time>2025-09-06T09:35:00.000Z</time>
        <extensions>
          <ns3:TrackPointExtension>
            <ns3:hr>165</ns3:hr>
            <ns3:cad>79</ns3:cad>
          </ns3:TrackPointExtension>
        </extensions>
      </trkpt>
      <trkpt lat="52.1381167508661746978759765625" lon="1.47069937549531459808349609375">
        <ele>20.200000762939453125</ele>
        <time>2025-09-06T09:35:03.000Z</time>
        <extensions>
          <ns3:TrackPointExtension>
            <ns3:hr>164</ns3:hr>
            <ns3:cad>80</ns3:cad>
          </ns3:TrackPointExtension>
        </extensions>
      </trkpt>
      <trkpt lat="52.13817869313061237335205078125" lon="1.47070205770432949066162109375">
        <ele>19.200000762939453125</ele>
        <time>2025-09-06T09:35:06.000Z</time>
        <extensions>
          <ns3:TrackPointExtension>
            <ns3:hr>166</ns3:hr>
            <ns3:cad>81</ns3:cad>
          </ns3:TrackPointExtension>
        </extensions>
      </trkpt>
      <trkpt lat="52.13823468424379825592041015625" lon="1.47070876322686672210693359375">
        <ele>18</ele>
        <time>2025-09-06T09:35:09.000Z</time>
        <extensions>
          <ns3:TrackPointExtension>
            <ns3:hr>164</ns3:hr>
            <ns3:cad>80</ns3:cad>
          </ns3:TrackPointExtension>
        </extensions>
      </trkpt>
      <trkpt lat="52.13830525986850261688232421875" lon="1.4707160554826259613037109375">
        <ele>16.799999237060546875</ele>
        <time>2025-09-06T09:35:12.000Z</time>
        <extensions>
          <ns3:TrackPointExtension>
            <ns3:hr>165</ns3:hr>
            <ns3:cad>79</ns3:cad>
          </ns3:TrackPointExtension>
        </extensions>
      </trkpt>
      <trkpt lat="52.138349600136280059814453125" lon="1.470703817903995513916015625">
        <ele>16</ele>
        <time>2025-09-06T09:35:14.000Z</time>
        <extensions>
          <ns3:TrackPointExtension>
            <ns3:hr>165</ns3:hr>
            <ns3:cad>79</ns3:cad>
          </ns3:TrackPointExtension>
        </extensions>
      </trkpt>
      <trkpt lat="52.1383729018270969390869140625" lon="1.4706976152956485748291015625">
        <ele>15.6000003814697265625</ele>
        <time>2025-09-06T09:35:15.000Z</time>
        <extensions>
          <ns3:TrackPointExtension>
            <ns3:hr>166</ns3:hr>
            <ns3:cad>80</ns3:cad>
          </ns3:TrackPointExtension>
        </extensions>
      </trkpt>
      <trkpt lat="52.13843685574829578399658203125" lon="1.47067473269999027252197265625">
        <ele>14.6000003814697265625</ele>
        <time>2025-09-06T09:35:18.000Z</time>
        <extensions>
          <ns3:TrackPointExtension>
            <ns3:hr>165</ns3:hr>
            <ns3:cad>80</ns3:cad>
          </ns3:TrackPointExtension>
        </extensions>
      </trkpt>
      <trkpt lat="52.1384914219379425048828125" lon="1.47065293975174427032470703125">
        <ele>13.3999996185302734375</ele>
        <time>2025-09-06T09:35:21.000Z</time>
        <extensions>
          <ns3:TrackPointExtension>
            <ns3:hr>167</ns3:hr>
            <ns3:cad>80</ns3:cad>
          </ns3:TrackPointExtension>
        </extensions>
      </trkpt>
      <trkpt lat="52.13850977830588817596435546875" lon="1.47065277211368083953857421875">
        <ele>13</ele>
        <time>2025-09-06T09:35:22.000Z</time>
        <extensions>
          <ns3:TrackPointExtension>
            <ns3:hr>167</ns3:hr>
            <ns3:cad>80</ns3:cad>
          </ns3:TrackPointExtension>
        </extensions>
      </trkpt>
      <trkpt lat="52.13855621404945850372314453125" lon="1.47065008990466594696044921875">
        <ele>12.3999996185302734375</ele>
        <time>2025-09-06T09:35:24.000Z</time>
        <extensions>
          <ns3:TrackPointExtension>
            <ns3:hr>167</ns3:hr>
            <ns3:cad>80</ns3:cad>
          </ns3:TrackPointExtension>
        </extensions>
      </trkpt>
      <trkpt lat="52.13861949741840362548828125" lon="1.470636427402496337890625">
        <ele>11.19999980926513671875</ele>
        <time>2025-09-06T09:35:27.000Z</time>
        <extensions>
          <ns3:TrackPointExtension>
            <ns3:hr>165</ns3:hr>
            <ns3:cad>80</ns3:cad>
          </ns3:TrackPointExtension>
        </extensions>
      </trkpt>
      <trkpt lat="52.13864388875663280487060546875" lon="1.47063852287828922271728515625">
        <ele>10.80000019073486328125</ele>
        <time>2025-09-06T09:35:28.000Z</time>
        <extensions>
          <ns3:TrackPointExtension>
            <ns3:hr>165</ns3:hr>
            <ns3:cad>80</ns3:cad>
          </ns3:TrackPointExtension>
        </extensions>
      </trkpt>
      <trkpt lat="52.138691246509552001953125" lon="1.47063843905925750732421875">
        <ele>10.19999980926513671875</ele>
        <time>2025-09-06T09:35:30.000Z</time>
        <extensions>
          <ns3:TrackPointExtension>
            <ns3:hr>164</ns3:hr>
            <ns3:cad>80</ns3:cad>
          </ns3:TrackPointExtension>
        </extensions>
      </trkpt>
      <trkpt lat="52.1387504227459430694580078125" lon="1.47064891643822193145751953125">
        <ele>9.19999980926513671875</ele>
        <time>2025-09-06T09:35:33.000Z</time>
        <extensions>
          <ns3:TrackPointExtension>
            <ns3:hr>164</ns3:hr>
            <ns3:cad>80</ns3:cad>
          </ns3:TrackPointExtension>
        </extensions>
      </trkpt>
      <trkpt lat="52.13879241608083248138427734375" lon="1.47063818760216236114501953125">
        <ele>8.3999996185302734375</ele>
        <time>2025-09-06T09:35:35.000Z</time>
        <extensions>
          <ns3:TrackPointExtension>
            <ns3:hr>163</ns3:hr>
            <ns3:cad>79</ns3:cad>
          </ns3:TrackPointExtension>
        </extensions>
      </trkpt>
      <trkpt lat="52.13883432559669017791748046875" lon="1.470627374947071075439453125">
        <ele>7.80000019073486328125</ele>
        <time>2025-09-06T09:35:37.000Z</time>
        <extensions>
          <ns3:TrackPointExtension>
            <ns3:hr>163</ns3:hr>
            <ns3:cad>78</ns3:cad>
          </ns3:TrackPointExtension>
        </extensions>
      </trkpt>
      <trkpt lat="52.13892468251287937164306640625" lon="1.47058219648897647857666015625">
        <ele>6.599999904632568359375</ele>
        <time>2025-09-06T09:35:41.000Z</time>
        <extensions>
          <ns3:TrackPointExtension>
            <ns3:hr>163</ns3:hr>
            <ns3:cad>80</ns3:cad>
          </ns3:TrackPointExtension>
        </extensions>
      </trkpt>
      <trkpt lat="52.138946391642093658447265625" lon="1.470575742423534393310546875">
        <ele>6.19999980926513671875</ele>
        <time>2025-09-06T09:35:42.000Z</time>
        <extensions>
          <ns3:TrackPointExtension>
            <ns3:hr>163</ns3:hr>
            <ns3:cad>80</ns3:cad>
          </ns3:TrackPointExtension>
        </extensions>
      </trkpt>
      <trkpt lat="52.13899626396596431732177734375" lon="1.47056694142520427703857421875">
        <ele>5.400000095367431640625</ele>
        <time>2025-09-06T09:35:45.000Z</time>
        <extensions>
          <ns3:TrackPointExtension>
            <ns3:hr>165</ns3:hr>
            <ns3:cad>81</ns3:cad>
          </ns3:TrackPointExtension>
        </extensions>
      </trkpt>
      <trkpt lat="52.13908016681671142578125" lon="1.47057163529098033905029296875">
        <ele>4</ele>
        <time>2025-09-06T09:35:49.000Z</time>
        <extensions>
          <ns3:TrackPointExtension>
            <ns3:hr>164</ns3:hr>
            <ns3:cad>80</ns3:cad>
          </ns3:TrackPointExtension>
        </extensions>
      </trkpt>
      <trkpt lat="52.13917245157063007354736328125" lon="1.47055503912270069122314453125">
        <ele>2.7999999523162841796875</ele>
        <time>2025-09-06T09:35:53.000Z</time>
        <extensions>
          <ns3:TrackPointExtension>
            <ns3:hr>164</ns3:hr>
            <ns3:cad>80</ns3:cad>
          </ns3:TrackPointExtension>
        </extensions>
      </trkpt>
      <trkpt lat="52.139249481260776519775390625" lon="1.470550261437892913818359375">
        <ele>1.60000002384185791015625</ele>
        <time>2025-09-06T09:35:57.000Z</time>
        <extensions>
          <ns3:TrackPointExtension>
            <ns3:hr>165</ns3:hr>
            <ns3:cad>81</ns3:cad>
          </ns3:TrackPointExtension>
        </extensions>
      </trkpt>
      <trkpt lat="52.139350064098834991455078125" lon="1.470537520945072174072265625">
        <ele>0.60000002384185791015625</ele>
        <time>2025-09-06T09:36:01.000Z</time>
        <extensions>
          <ns3:TrackPointExtension>
            <ns3:hr>165</ns3:hr>
            <ns3:cad>81</ns3:cad>
          </ns3:TrackPointExtension>
        </extensions>
      </trkpt>
      <trkpt lat="52.13938954286277294158935546875" lon="1.4705363474786281585693359375">
        <ele>0</ele>
        <time>2025-09-06T09:36:03.000Z</time>
        <extensions>
          <ns3:TrackPointExtension>
            <ns3:hr>164</ns3:hr>
            <ns3:cad>81</ns3:cad>
          </ns3:TrackPointExtension>
        </extensions>
      </trkpt>
      <trkpt lat="52.139440588653087615966796875" lon="1.4705453999340534210205078125">
        <ele>-0.60000002384185791015625</ele>
        <time>2025-09-06T09:36:05.000Z</time>
        <extensions>
          <ns3:TrackPointExtension>
            <ns3:hr>163</ns3:hr>
            <ns3:cad>81</ns3:cad>
          </ns3:TrackPointExtension>
        </extensions>
      </trkpt>
      <trkpt lat="52.13948828168213367462158203125" lon="1.47055738605558872222900390625">
        <ele>-1</ele>
        <time>2025-09-06T09:36:07.000Z</time>
        <extensions>
          <ns3:TrackPointExtension>
            <ns3:hr>160</ns3:hr>
            <ns3:cad>81</ns3:cad>
          </ns3:TrackPointExtension>
        </extensions>
      </trkpt>
      <trkpt lat="52.139537148177623748779296875" lon="1.47055302746593952178955078125">
        <ele>-1.39999997615814208984375</ele>
        <time>2025-09-06T09:36:09.000Z</time>
        <extensions>
          <ns3:TrackPointExtension>
            <ns3:hr>157</ns3:hr>
            <ns3:cad>81</ns3:cad>
          </ns3:TrackPointExtension>
        </extensions>
      </trkpt>
      <trkpt lat="52.13956296443939208984375" lon="1.47054548375308513641357421875">
        <ele>-1.60000002384185791015625</ele>
        <time>2025-09-06T09:36:10.000Z</time>
        <extensions>
          <ns3:TrackPointExtension>
            <ns3:hr>157</ns3:hr>
            <ns3:cad>81</ns3:cad>
          </ns3:TrackPointExtension>
        </extensions>
      </trkpt>
      <trkpt lat="52.139608561992645263671875" lon="1.4705266244709491729736328125">
        <ele>-2</ele>
        <time>2025-09-06T09:36:12.000Z</time>
        <extensions>
          <ns3:TrackPointExtension>
            <ns3:hr>158</ns3:hr>
            <ns3:cad>81</ns3:cad>
          </ns3:TrackPointExtension>
        </extensions>
      </trkpt>
      <trkpt lat="52.13969950564205646514892578125" lon="1.47051078267395496368408203125">
        <ele>-2.7999999523162841796875</ele>
        <time>2025-09-06T09:36:16.000Z</time>
        <extensions>
          <ns3:TrackPointExtension>
            <ns3:hr>157</ns3:hr>
            <ns3:cad>82</ns3:cad>
          </ns3:TrackPointExtension>
        </extensions>
      </trkpt>
      <trkpt lat="52.13982121087610721588134765625" lon="1.4704833738505840301513671875">
        <ele>-3.7999999523162841796875</ele>
        <time>2025-09-06T09:36:21.000Z</time>
        <extensions>
          <ns3:TrackPointExtension>
            <ns3:hr>157</ns3:hr>
            <ns3:cad>81</ns3:cad>
          </ns3:TrackPointExtension>
        </extensions>
      </trkpt>
      <trkpt lat="52.13996605016291141510009765625" lon="1.4704714715480804443359375">
        <ele>-4.80000019073486328125</ele>
        <time>2025-09-06T09:36:27.000Z</time>
        <extensions>
          <ns3:TrackPointExtension>
            <ns3:hr>156</ns3:hr>
            <ns3:cad>81</ns3:cad>
          </ns3:TrackPointExtension>
        </extensions>
      </trkpt>
      <trkpt lat="52.14003997854888439178466796875" lon="1.47047725506126880645751953125">
        <ele>-5.400000095367431640625</ele>
        <time>2025-09-06T09:36:30.000Z</time>
        <extensions>
          <ns3:TrackPointExtension>
            <ns3:hr>157</ns3:hr>
            <ns3:cad>81</ns3:cad>
          </ns3:TrackPointExtension>
        </extensions>
      </trkpt>
      <trkpt lat="52.14010736905038356781005859375" lon="1.47048345766961574554443359375">
        <ele>-6</ele>
        <time>2025-09-06T09:36:33.000Z</time>
        <extensions>
          <ns3:TrackPointExtension>
            <ns3:hr>156</ns3:hr>
            <ns3:cad>81</ns3:cad>
          </ns3:TrackPointExtension>
        </extensions>
      </trkpt>
      <trkpt lat="52.14021733961999416351318359375" lon="1.47049133665859699249267578125">
        <ele>-7.19999980926513671875</ele>
        <time>2025-09-06T09:36:38.000Z</time>
        <extensions>
          <ns3:TrackPointExtension>
            <ns3:hr>157</ns3:hr>
            <ns3:cad>81</ns3:cad>
          </ns3:TrackPointExtension>
        </extensions>
      </trkpt>
      <trkpt lat="52.14030534960329532623291015625" lon="1.4704954437911510467529296875">
        <ele>-8.3999996185302734375</ele>
        <time>2025-09-06T09:36:43.000Z</time>
        <extensions>
          <ns3:TrackPointExtension>
            <ns3:hr>159</ns3:hr>
            <ns3:cad>78</ns3:cad>
          </ns3:TrackPointExtension>
        </extensions>
      </trkpt>
      <trkpt lat="52.140326388180255889892578125" lon="1.4704947732388973236083984375">
        <ele>-8.6000003814697265625</ele>
        <time>2025-09-06T09:36:44.000Z</time>
        <extensions>
          <ns3:TrackPointExtension>
            <ns3:hr>159</ns3:hr>
            <ns3:cad>80</ns3:cad>
          </ns3:TrackPointExtension>
        </extensions>
      </trkpt>
      <trkpt lat="52.14038908481597900390625" lon="1.470493264496326446533203125">
        <ele>-9.3999996185302734375</ele>
        <time>2025-09-06T09:36:47.000Z</time>
        <extensions>
          <ns3:TrackPointExtension>
            <ns3:hr>158</ns3:hr>
            <ns3:cad>79</ns3:cad>
          </ns3:TrackPointExtension>
        </extensions>
      </trkpt>
      <trkpt lat="52.14047147892415523529052734375" lon="1.47048764862120151519775390625">
        <ele>-10.6000003814697265625</ele>
        <time>2025-09-06T09:36:51.000Z</time>
        <extensions>
          <ns3:TrackPointExtension>
            <ns3:hr>156</ns3:hr>
            <ns3:cad>79</ns3:cad>
          </ns3:TrackPointExtension>
        </extensions>
      </trkpt>
      <trkpt lat="52.1405304037034511566162109375" lon="1.47048630751669406890869140625">
        <ele>-11.6000003814697265625</ele>
        <time>2025-09-06T09:36:54.000Z</time>
        <extensions>
          <ns3:TrackPointExtension>
            <ns3:hr>157</ns3:hr>
            <ns3:cad>78</ns3:cad>
          </ns3:TrackPointExtension>
        </extensions>
      </trkpt>
      <trkpt lat="52.14056074619293212890625" lon="1.470486558973789215087890625">
        <ele>-12.80000019073486328125</ele>
        <time>2025-09-06T09:36:57.000Z</time>
        <extensions>
          <ns3:TrackPointExtension>
            <ns3:hr>155</ns3:hr>
            <ns3:cad>77</ns3:cad>
          </ns3:TrackPointExtension>
        </extensions>
      </trkpt>
      <trkpt lat="52.1405659429728984832763671875" lon="1.47048697806894779205322265625">
        <ele>-13.19999980926513671875</ele>
        <time>2025-09-06T09:36:58.000Z</time>
        <extensions>
          <ns3:TrackPointExtension>
            <ns3:hr>155</ns3:hr>
            <ns3:cad>0</ns3:cad>
          </ns3:TrackPointExtension>
        </extensions>
      </trkpt>
      <trkpt lat="52.1405749954283237457275390625" lon="1.47049359977245330810546875">
        <ele>-14</ele>
        <time>2025-09-06T09:37:00.000Z</time>
        <extensions>
          <ns3:TrackPointExtension>
            <ns3:hr>154</ns3:hr>
            <ns3:cad>0</ns3:cad>
          </ns3:TrackPointExtension>
        </extensions>
      </trkpt>
      <trkpt lat="52.1405862271785736083984375" lon="1.47050038911402225494384765625">
        <ele>-14.3999996185302734375</ele>
        <time>2025-09-06T09:37:01.000Z</time>
        <extensions>
          <ns3:TrackPointExtension>
            <ns3:hr>159</ns3:hr>
            <ns3:cad>0</ns3:cad>
          </ns3:TrackPointExtension>
        </extensions>
      </trkpt>
      <trkpt lat="52.14059720747172832489013671875" lon="1.470502316951751708984375">
        <ele>-14.80000019073486328125</ele>
        <time>2025-09-06T09:37:02.000Z</time>
        <extensions>
          <ns3:TrackPointExtension>
            <ns3:hr>159</ns3:hr>
            <ns3:cad>0</ns3:cad>
          </ns3:TrackPointExtension>
        </extensions>
      </trkpt>
      <trkpt lat="52.140608690679073333740234375" lon="1.47050307132303714752197265625">
        <ele>-15.19999980926513671875</ele>
        <time>2025-09-06T09:37:03.000Z</time>
        <extensions>
          <ns3:TrackPointExtension>
            <ns3:hr>158</ns3:hr>
            <ns3:cad>0</ns3:cad>
          </ns3:TrackPointExtension>
        </extensions>
      </trkpt>
      <trkpt lat="52.14063073508441448211669921875" lon="1.4705162309110164642333984375">
        <ele>-16.3999996185302734375</ele>
        <time>2025-09-06T09:37:06.000Z</time>
        <extensions>
          <ns3:TrackPointExtension>
            <ns3:hr>156</ns3:hr>
            <ns3:cad>0</ns3:cad>
          </ns3:TrackPointExtension>
        </extensions>
      </trkpt>
      <trkpt lat="52.140636183321475982666015625" lon="1.4705195836722850799560546875">
        <ele>-16.799999237060546875</ele>
        <time>2025-09-06T09:37:07.000Z</time>
        <extensions>
          <ns3:TrackPointExtension>
            <ns3:hr>157</ns3:hr>
            <ns3:cad>0</ns3:cad>
          </ns3:TrackPointExtension>
        </extensions>
      </trkpt>
      <trkpt lat="52.14065252803266048431396484375" lon="1.4705286361277103424072265625">
        <ele>-17.6000003814697265625</ele>
        <time>2025-09-06T09:37:09.000Z</time>
        <extensions>
          <ns3:TrackPointExtension>
            <ns3:hr>156</ns3:hr>
            <ns3:cad>0</ns3:cad>
          </ns3:TrackPointExtension>
        </extensions>
      </trkpt>
      <trkpt lat="52.1406747400760650634765625" lon="1.470534168183803558349609375">
        <ele>-18.6000003814697265625</ele>
        <time>2025-09-06T09:37:11.000Z</time>
        <extensions>
          <ns3:TrackPointExtension>
            <ns3:hr>159</ns3:hr>
            <ns3:cad>0</ns3:cad>
          </ns3:TrackPointExtension>
        </extensions>
      </trkpt>
      <trkpt lat="52.14068605564534664154052734375" lon="1.4705376885831356048583984375">
        <ele>-19</ele>
        <time>2025-09-06T09:37:12.000Z</time>
        <extensions>
          <ns3:TrackPointExtension>
            <ns3:hr>158</ns3:hr>
            <ns3:cad>0</ns3:cad>
          </ns3:TrackPointExtension>
        </extensions>
      </trkpt>
      <trkpt lat="52.14072042144834995269775390625" lon="1.47054498083889484405517578125">
        <ele>-20.200000762939453125</ele>
        <time>2025-09-06T09:37:15.000Z</time>
        <extensions>
          <ns3:TrackPointExtension>
            <ns3:hr>155</ns3:hr>
            <ns3:cad>55</ns3:cad>
          </ns3:TrackPointExtension>
        </extensions>
      </trkpt>
      <trkpt lat="52.14073601178824901580810546875" lon="1.4705494232475757598876953125">
        <ele>-21</ele>
        <time>2025-09-06T09:37:17.000Z</time>
        <extensions>
          <ns3:TrackPointExtension>
            <ns3:hr>154</ns3:hr>
            <ns3:cad>0</ns3:cad>
          </ns3:TrackPointExtension>
        </extensions>
      </trkpt>
      <trkpt lat="52.1407406218349933624267578125" lon="1.47055034525692462921142578125">
        <ele>-21.3999996185302734375</ele>
        <time>2025-09-06T09:37:18.000Z</time>
        <extensions>
          <ns3:TrackPointExtension>
            <ns3:hr>149</ns3:hr>
            <ns3:cad>0</ns3:cad>
          </ns3:TrackPointExtension>
        </extensions>
      </trkpt>
      <trkpt lat="52.1407426334917545318603515625" lon="1.47055151872336864471435546875">
        <ele>-21.799999237060546875</ele>
        <time>2025-09-06T09:37:19.000Z</time>
        <extensions>
          <ns3:TrackPointExtension>
            <ns3:hr>149</ns3:hr>
            <ns3:cad>0</ns3:cad>
          </ns3:TrackPointExtension>
        </extensions>
      </trkpt>
      <trkpt lat="52.14074648916721343994140625" lon="1.47055805660784244537353515625">
        <ele>-22.799999237060546875</ele>
        <time>2025-09-06T09:37:21.000Z</time>
        <extensions>
          <ns3:TrackPointExtension>
            <ns3:hr>147</ns3:hr>
            <ns3:cad>0</ns3:cad>
          </ns3:TrackPointExtension>
        </extensions>
      </trkpt>
      <trkpt lat="52.14075361378490924835205078125" lon="1.47057004272937774658203125">
        <ele>-24</ele>
        <time>2025-09-06T09:37:24.000Z</time>
        <extensions>
          <ns3:TrackPointExtension>
            <ns3:hr>146</ns3:hr>
            <ns3:cad>0</ns3:cad>
          </ns3:TrackPointExtension>
        </extensions>
      </trkpt>
      <trkpt lat="52.1407671086490154266357421875" lon="1.47058990783989429473876953125">
        <ele>-25.3999996185302734375</ele>
        <time>2025-09-06T09:37:27.000Z</time>
        <extensions>
          <ns3:TrackPointExtension>
            <ns3:hr>148</ns3:hr>
            <ns3:cad>45</ns3:cad>
          </ns3:TrackPointExtension>
        </extensions>
      </trkpt>
      <trkpt lat="52.1407801844179630279541015625" lon="1.4706050790846347808837890625">
        <ele>-26.799999237060546875</ele>
        <time>2025-09-06T09:37:30.000Z</time>
        <extensions>
          <ns3:TrackPointExtension>
            <ns3:hr>148</ns3:hr>
            <ns3:cad>0</ns3:cad>
          </ns3:TrackPointExtension>
        </extensions>
      </trkpt>
      <trkpt lat="52.140791751444339752197265625" lon="1.47062092088162899017333984375">
        <ele>-28.200000762939453125</ele>
        <time>2025-09-06T09:37:33.000Z</time>
        <extensions>
          <ns3:TrackPointExtension>
            <ns3:hr>149</ns3:hr>
            <ns3:cad>50</ns3:cad>
          </ns3:TrackPointExtension>
        </extensions>
      </trkpt>
      <trkpt lat="52.1408021450042724609375" lon="1.470637433230876922607421875">
        <ele>-29.200000762939453125</ele>
        <time>2025-09-06T09:37:35.000Z</time>
        <extensions>
          <ns3:TrackPointExtension>
            <ns3:hr>152</ns3:hr>
            <ns3:cad>50</ns3:cad>
          </ns3:TrackPointExtension>
        </extensions>
      </trkpt>
      <trkpt lat="52.14080792851746082305908203125" lon="1.47064589895308017730712890625">
        <ele>-29.6000003814697265625</ele>
        <time>2025-09-06T09:37:36.000Z</time>
        <extensions>
          <ns3:TrackPointExtension>
            <ns3:hr>153</ns3:hr>
            <ns3:cad>49</ns3:cad>
          </ns3:TrackPointExtension>
        </extensions>
      </trkpt>
      <trkpt lat="52.1408234350383281707763671875" lon="1.47067171521484851837158203125">
        <ele>-30.799999237060546875</ele>
        <time>2025-09-06T09:37:39.000Z</time>
        <extensions>
          <ns3:TrackPointExtension>
            <ns3:hr>154</ns3:hr>
            <ns3:cad>0</ns3:cad>
          </ns3:TrackPointExtension>
        </extensions>
      </trkpt>
      <trkpt lat="52.1408415399491786956787109375" lon="1.47069501690566539764404296875">
        <ele>-32.200000762939453125</ele>
        <time>2025-09-06T09:37:42.000Z</time>
        <extensions>
          <ns3:TrackPointExtension>
            <ns3:hr>152</ns3:hr>
            <ns3:cad>0</ns3:cad>
          </ns3:TrackPointExtension>
        </extensions>
      </trkpt>
      <trkpt lat="52.1408603154122829437255859375" lon="1.470706500113010406494140625">
        <ele>-33.200000762939453125</ele>
        <time>2025-09-06T09:37:45.000Z</time>
        <extensions>
          <ns3:TrackPointExtension>
            <ns3:hr>154</ns3:hr>
            <ns3:cad>0</ns3:cad>
          </ns3:TrackPointExtension>
        </extensions>
      </trkpt>
      <trkpt lat="52.1408676914870738983154296875" lon="1.470711529254913330078125">
        <ele>-33.59999847412109375</ele>
        <time>2025-09-06T09:37:46.000Z</time>
        <extensions>
          <ns3:TrackPointExtension>
            <ns3:hr>151</ns3:hr>
            <ns3:cad>0</ns3:cad>
          </ns3:TrackPointExtension>
        </extensions>
      </trkpt>
      <trkpt lat="52.14088906534016132354736328125" lon="1.470731310546398162841796875">
        <ele>-34.59999847412109375</ele>
        <time>2025-09-06T09:37:49.000Z</time>
        <extensions>
          <ns3:TrackPointExtension>
            <ns3:hr>152</ns3:hr>
            <ns3:cad>0</ns3:cad>
          </ns3:TrackPointExtension>
        </extensions>
      </trkpt>
      <trkpt lat="52.1409139595925807952880859375" lon="1.4707603119313716888427734375">
        <ele>-35.799999237060546875</ele>
        <time>2025-09-06T09:37:53.000Z</time>
        <extensions>
          <ns3:TrackPointExtension>
            <ns3:hr>152</ns3:hr>
            <ns3:cad>0</ns3:cad>
          </ns3:TrackPointExtension>
        </extensions>
      </trkpt>
      <trkpt lat="52.140939943492412567138671875" lon="1.470789648592472076416015625">
        <ele>-37</ele>
        <time>2025-09-06T09:37:57.000Z</time>
        <extensions>
          <ns3:TrackPointExtension>
            <ns3:hr>149</ns3:hr>
            <ns3:cad>0</ns3:cad>
          </ns3:TrackPointExtension>
        </extensions>
      </trkpt>
      <trkpt lat="52.1409491635859012603759765625" lon="1.47080314345657825469970703125">
        <ele>-37.799999237060546875</ele>
        <time>2025-09-06T09:37:59.000Z</time>
        <extensions>
          <ns3:TrackPointExtension>
            <ns3:hr>149</ns3:hr>
            <ns3:cad>0</ns3:cad>
          </ns3:TrackPointExtension>
        </extensions>
      </trkpt>
      <trkpt lat="52.1409551985561847686767578125" lon="1.47081010043621063232421875">
        <ele>-38.200000762939453125</ele>
        <time>2025-09-06T09:38:00.000Z</time>
        <extensions>
          <ns3:TrackPointExtension>
            <ns3:hr>148</ns3:hr>
            <ns3:cad>0</ns3:cad>
          </ns3:TrackPointExtension>
        </extensions>
      </trkpt>
      <trkpt lat="52.14097984135150909423828125" lon="1.47083097137510776519775390625">
        <ele>-39.40000152587890625</ele>
        <time>2025-09-06T09:38:03.000Z</time>
        <extensions>
          <ns3:TrackPointExtension>
            <ns3:hr>148</ns3:hr>
            <ns3:cad>0</ns3:cad>
          </ns3:TrackPointExtension>
        </extensions>
      </trkpt>
      <trkpt lat="52.14099191129207611083984375" lon="1.47083700634539127349853515625">
        <ele>-40.200000762939453125</ele>
        <time>2025-09-06T09:38:05.000Z</time>
        <extensions>
          <ns3:TrackPointExtension>
            <ns3:hr>145</ns3:hr>
            <ns3:cad>0</ns3:cad>
          </ns3:TrackPointExtension>
        </extensions>
      </trkpt>
      <trkpt lat="52.1409961022436618804931640625" lon="1.47084320895373821258544921875">
        <ele>-40.59999847412109375</ele>
        <time>2025-09-06T09:38:06.000Z</time>
        <extensions>
          <ns3:TrackPointExtension>
            <ns3:hr>144</ns3:hr>
            <ns3:cad>0</ns3:cad>
          </ns3:TrackPointExtension>
        </extensions>
      </trkpt>
      <trkpt lat="52.141015715897083282470703125" lon="1.47085896693170070648193359375">
        <ele>-41.799999237060546875</ele>
        <time>2025-09-06T09:38:09.000Z</time>
        <extensions>
          <ns3:TrackPointExtension>
            <ns3:hr>138</ns3:hr>
            <ns3:cad>0</ns3:cad>
          </ns3:TrackPointExtension>
        </extensions>
      </trkpt>
      <trkpt lat="52.14102351106703281402587890625" lon="1.470867097377777099609375">
        <ele>-42.200000762939453125</ele>
        <time>2025-09-06T09:38:10.000Z</time>
        <extensions>
          <ns3:TrackPointExtension>
            <ns3:hr>138</ns3:hr>
            <ns3:cad>0</ns3:cad>
          </ns3:TrackPointExtension>
        </extensions>
      </trkpt>
      <trkpt lat="52.14104019105434417724609375" lon="1.4708791673183441162109375">
        <ele>-43</ele>
        <time>2025-09-06T09:38:12.000Z</time>
        <extensions>
          <ns3:TrackPointExtension>
            <ns3:hr>135</ns3:hr>
            <ns3:cad>0</ns3:cad>
          </ns3:TrackPointExtension>
        </extensions>
      </trkpt>
      <trkpt lat="52.14105335064232349395751953125" lon="1.4708873815834522247314453125">
        <ele>-43.799999237060546875</ele>
        <time>2025-09-06T09:38:14.000Z</time>
        <extensions>
          <ns3:TrackPointExtension>
            <ns3:hr>134</ns3:hr>
            <ns3:cad>0</ns3:cad>
          </ns3:TrackPointExtension>
        </extensions>
      </trkpt>
      <trkpt lat="52.1410581283271312713623046875" lon="1.4708897285163402557373046875">
        <ele>-44.200000762939453125</ele>
        <time>2025-09-06T09:38:15.000Z</time>
        <extensions>
          <ns3:TrackPointExtension>
            <ns3:hr>134</ns3:hr>
            <ns3:cad>0</ns3:cad>
          </ns3:TrackPointExtension>
        </extensions>
      </trkpt>
      <trkpt lat="52.14107313193380832672119140625" lon="1.4708937518298625946044921875">
        <ele>-45.40000152587890625</ele>
        <time>2025-09-06T09:38:18.000Z</time>
        <extensions>
          <ns3:TrackPointExtension>
            <ns3:hr>134</ns3:hr>
            <ns3:cad>0</ns3:cad>
          </ns3:TrackPointExtension>
        </extensions>
      </trkpt>
      <trkpt lat="52.14108067564666271209716796875" lon="1.47088788449764251708984375">
        <ele>-46.59999847412109375</ele>
        <time>2025-09-06T09:38:21.000Z</time>
        <extensions>
          <ns3:TrackPointExtension>
            <ns3:hr>134</ns3:hr>
            <ns3:cad>0</ns3:cad>
          </ns3:TrackPointExtension>
        </extensions>
      </trkpt>
      <trkpt lat="52.14108151383697986602783203125" lon="1.47087690420448780059814453125">
        <ele>-47.59999847412109375</ele>
        <time>2025-09-06T09:38:24.000Z</time>
        <extensions>
          <ns3:TrackPointExtension>
            <ns3:hr>133</ns3:hr>
            <ns3:cad>0</ns3:cad>
          </ns3:TrackPointExtension>
        </extensions>
      </trkpt>
      <trkpt lat="52.1410829387605190277099609375" lon="1.4708709530532360076904296875">
        <ele>-48</ele>
        <time>2025-09-06T09:38:25.000Z</time>
        <extensions>
          <ns3:TrackPointExtension>
            <ns3:hr>133</ns3:hr>
            <ns3:cad>0</ns3:cad>
          </ns3:TrackPointExtension>
        </extensions>
      </trkpt>
      <trkpt lat="52.14107916690409183502197265625" lon="1.4708684384822845458984375">
        <ele>-48.59999847412109375</ele>
        <time>2025-09-06T09:38:27.000Z</time>
        <extensions>
          <ns3:TrackPointExtension>
            <ns3:hr>132</ns3:hr>
            <ns3:cad>0</ns3:cad>
          </ns3:TrackPointExtension>
        </extensions>
      </trkpt>
      <trkpt lat="52.141098864376544952392578125" lon="1.47087153978645801544189453125">
        <ele>-49.59999847412109375</ele>
        <time>2025-09-06T09:38:30.000Z</time>
        <extensions>
          <ns3:TrackPointExtension>
            <ns3:hr>135</ns3:hr>
            <ns3:cad>0</ns3:cad>
          </ns3:TrackPointExtension>
        </extensions>
      </trkpt>
      <trkpt lat="52.141106911003589630126953125" lon="1.47087623365223407745361328125">
        <ele>-50</ele>
        <time>2025-09-06T09:38:31.000Z</time>
        <extensions>
          <ns3:TrackPointExtension>
            <ns3:hr>132</ns3:hr>
            <ns3:cad>0</ns3:cad>
          </ns3:TrackPointExtension>
        </extensions>
      </trkpt>
      <trkpt lat="52.14114085771143436431884765625" lon="1.4709007926285266876220703125">
        <ele>-51.200000762939453125</ele>
        <time>2025-09-06T09:38:35.000Z</time>
        <extensions>
          <ns3:TrackPointExtension>
            <ns3:hr>132</ns3:hr>
            <ns3:cad>0</ns3:cad>
          </ns3:TrackPointExtension>
        </extensions>
      </trkpt>
      <trkpt lat="52.14114991016685962677001953125" lon="1.470913700759410858154296875">
        <ele>-52.40000152587890625</ele>
        <time>2025-09-06T09:38:38.000Z</time>
        <extensions>
          <ns3:TrackPointExtension>
            <ns3:hr>133</ns3:hr>
            <ns3:cad>0</ns3:cad>
          </ns3:TrackPointExtension>
        </extensions>
      </trkpt>
      <trkpt lat="52.1411550231277942657470703125" lon="1.470930464565753936767578125">
        <ele>-53.40000152587890625</ele>
        <time>2025-09-06T09:38:41.000Z</time>
        <extensions>
          <ns3:TrackPointExtension>
            <ns3:hr>131</ns3:hr>
            <ns3:cad>0</ns3:cad>
          </ns3:TrackPointExtension>
        </extensions>
      </trkpt>
      <trkpt lat="52.1411634050309658050537109375" lon="1.47095871157944202423095703125">
        <ele>-54.59999847412109375</ele>
        <time>2025-09-06T09:38:44.000Z</time>
        <extensions>
          <ns3:TrackPointExtension>
            <ns3:hr>131</ns3:hr>
            <ns3:cad>0</ns3:cad>
          </ns3:TrackPointExtension>
        </extensions>
      </trkpt>
      <trkpt lat="52.1411680988967418670654296875" lon="1.470966003835201263427734375">
        <ele>-55.200000762939453125</ele>
        <time>2025-09-06T09:38:45.000Z</time>
        <extensions>
          <ns3:TrackPointExtension>
            <ns3:hr>130</ns3:hr>
            <ns3:cad>0</ns3:cad>
          </ns3:TrackPointExtension>
        </extensions>
      </trkpt>
      <trkpt lat="52.14117304421961307525634765625" lon="1.4709882996976375579833984375">
        <ele>-56</ele>
        <time>2025-09-06T09:38:47.000Z</time>
        <extensions>
          <ns3:TrackPointExtension>
            <ns3:hr>130</ns3:hr>
            <ns3:cad>0</ns3:cad>
          </ns3:TrackPointExtension>
        </extensions>
      </trkpt>
      <trkpt lat="52.14117656461894512176513671875" lon="1.47103129886090755462646484375">
        <ele>-57.200000762939453125</ele>
        <time>2025-09-06T09:38:50.000Z</time>
        <extensions>
          <ns3:TrackPointExtension>
            <ns3:hr>130</ns3:hr>
            <ns3:cad>0</ns3:cad>
          </ns3:TrackPointExtension>
        </extensions>
      </trkpt>
      <trkpt lat="52.14119852520525455474853515625" lon="1.47106767632067203521728515625">
        <ele>-58.40000152587890625</ele>
        <time>2025-09-06T09:38:53.000Z</time>
        <extensions>
          <ns3:TrackPointExtension>
            <ns3:hr>129</ns3:hr>
            <ns3:cad>43</ns3:cad>
          </ns3:TrackPointExtension>
        </extensions>
      </trkpt>
      <trkpt lat="52.14120523072779178619384765625" lon="1.4710749685764312744140625">
        <ele>-58.799999237060546875</ele>
        <time>2025-09-06T09:38:54.000Z</time>
        <extensions>
          <ns3:TrackPointExtension>
            <ns3:hr>132</ns3:hr>
            <ns3:cad>42</ns3:cad>
          </ns3:TrackPointExtension>
        </extensions>
      </trkpt>
      <trkpt lat="52.14122149161994457244873046875" lon="1.47110103629529476165771484375">
        <ele>-59.59999847412109375</ele>
        <time>2025-09-06T09:38:56.000Z</time>
        <extensions>
          <ns3:TrackPointExtension>
            <ns3:hr>129</ns3:hr>
            <ns3:cad>47</ns3:cad>
          </ns3:TrackPointExtension>
        </extensions>
      </trkpt>
      <trkpt lat="52.14124663732945919036865234375" lon="1.47114411927759647369384765625">
        <ele>-60.799999237060546875</ele>
        <time>2025-09-06T09:38:59.000Z</time>
        <extensions>
          <ns3:TrackPointExtension>
            <ns3:hr>129</ns3:hr>
            <ns3:cad>0</ns3:cad>
          </ns3:TrackPointExtension>
        </extensions>
      </trkpt>
      <trkpt lat="52.14126893319189548492431640625" lon="1.47117345593869686126708984375">
        <ele>-62.200000762939453125</ele>
        <time>2025-09-06T09:39:02.000Z</time>
        <extensions>
          <ns3:TrackPointExtension>
            <ns3:hr>127</ns3:hr>
            <ns3:cad>44</ns3:cad>
          </ns3:TrackPointExtension>
        </extensions>
      </trkpt>
      <trkpt lat="52.14129072614014148712158203125" lon="1.47119943983852863311767578125">
        <ele>-63.799999237060546875</ele>
        <time>2025-09-06T09:39:05.000Z</time>
        <extensions>
          <ns3:TrackPointExtension>
            <ns3:hr>127</ns3:hr>
            <ns3:cad>46</ns3:cad>
          </ns3:TrackPointExtension>
        </extensions>
      </trkpt>
      <trkpt lat="52.14131302200257778167724609375" lon="1.4712159521877765655517578125">
        <ele>-65.1999969482421875</ele>
        <time>2025-09-06T09:39:08.000Z</time>
        <extensions>
          <ns3:TrackPointExtension>
            <ns3:hr>128</ns3:hr>
            <ns3:cad>0</ns3:cad>
          </ns3:TrackPointExtension>
        </extensions>
      </trkpt>
      <trkpt lat="52.14132584631443023681640625" lon="1.4712253399193286895751953125">
        <ele>-66.59999847412109375</ele>
        <time>2025-09-06T09:39:11.000Z</time>
        <extensions>
          <ns3:TrackPointExtension>
            <ns3:hr>127</ns3:hr>
            <ns3:cad>0</ns3:cad>
          </ns3:TrackPointExtension>
        </extensions>
      </trkpt>
      <trkpt lat="52.1413270197808742523193359375" lon="1.47122525610029697418212890625">
        <ele>-67</ele>
        <time>2025-09-06T09:39:12.000Z</time>
        <extensions>
          <ns3:TrackPointExtension>
            <ns3:hr>126</ns3:hr>
            <ns3:cad>0</ns3:cad>
          </ns3:TrackPointExtension>
        </extensions>
      </trkpt>
      <trkpt lat="52.14132861234247684478759765625" lon="1.47122609429061412811279296875">
        <ele>-67.8000030517578125</ele>
        <time>2025-09-06T09:39:14.000Z</time>
        <extensions>
          <ns3:TrackPointExtension>
            <ns3:hr>125</ns3:hr>
            <ns3:cad>0</ns3:cad>
          </ns3:TrackPointExtension>
        </extensions>
      </trkpt>
      <trkpt lat="52.14132341556251049041748046875" lon="1.47122441790997982025146484375">
        <ele>-69.1999969482421875</ele>
        <time>2025-09-06T09:39:17.000Z</time>
        <extensions>
          <ns3:TrackPointExtension>
            <ns3:hr>125</ns3:hr>
            <ns3:cad>0</ns3:cad>
          </ns3:TrackPointExtension>
        </extensions>
      </trkpt>
      <trkpt lat="52.14131704531610012054443359375" lon="1.47121972404420375823974609375">
        <ele>-70.59999847412109375</ele>
        <time>2025-09-06T09:39:20.000Z</time>
        <extensions>
          <ns3:TrackPointExtension>
            <ns3:hr>126</ns3:hr>
            <ns3:cad>0</ns3:cad>
          </ns3:TrackPointExtension>
        </extensions>
      </trkpt>
      <trkpt lat="52.1413146145641803741455078125" lon="1.47122492082417011260986328125">
        <ele>-72</ele>
        <time>2025-09-06T09:39:23.000Z</time>
        <extensions>
          <ns3:TrackPointExtension>
            <ns3:hr>126</ns3:hr>
            <ns3:cad>0</ns3:cad>
          </ns3:TrackPointExtension>
        </extensions>
      </trkpt>
      <trkpt lat="52.1413149498403072357177734375" lon="1.47122458554804325103759765625">
        <ele>-72.8000030517578125</ele>
        <time>2025-09-06T09:39:25.000Z</time>
        <extensions>
          <ns3:TrackPointExtension>
            <ns3:hr>123</ns3:hr>
            <ns3:cad>0</ns3:cad>
          </ns3:TrackPointExtension>
        </extensions>
      </trkpt>
      <trkpt lat="52.14131469838321208953857421875" lon="1.471224837005138397216796875">
        <ele>-73.1999969482421875</ele>
        <time>2025-09-06T09:39:26.000Z</time>
        <extensions>
          <ns3:TrackPointExtension>
            <ns3:hr>123</ns3:hr>
            <ns3:cad>0</ns3:cad>
          </ns3:TrackPointExtension>
        </extensions>
      </trkpt>
      <trkpt lat="52.141314111649990081787109375" lon="1.471223495900630950927734375">
        <ele>-74.59999847412109375</ele>
        <time>2025-09-06T09:39:29.000Z</time>
        <extensions>
          <ns3:TrackPointExtension>
            <ns3:hr>124</ns3:hr>
            <ns3:cad>0</ns3:cad>
          </ns3:TrackPointExtension>
        </extensions>
      </trkpt>
      <trkpt lat="52.1413132734596729278564453125" lon="1.471223495900630950927734375">
        <ele>-75.8000030517578125</ele>
        <time>2025-09-06T09:39:31.000Z</time>
        <extensions>
          <ns3:TrackPointExtension>
            <ns3:hr>124</ns3:hr>
            <ns3:cad>0</ns3:cad>
          </ns3:TrackPointExtension>
        </extensions>
      </trkpt>
      <trkpt lat="52.1413092501461505889892578125" lon="1.47121804766356945037841796875">
        <ele>-76.8000030517578125</ele>
        <time>2025-09-06T09:39:33.000Z</time>
        <extensions>
          <ns3:TrackPointExtension>
            <ns3:hr>124</ns3:hr>
            <ns3:cad>0</ns3:cad>
          </ns3:TrackPointExtension>
        </extensions>
      </trkpt>
      <trkpt lat="52.14131419546902179718017578125" lon="1.471212767064571380615234375">
        <ele>-78</ele>
        <time>2025-09-06T09:39:35.000Z</time>
        <extensions>
          <ns3:TrackPointExtension>
            <ns3:hr>123</ns3:hr>
            <ns3:cad>0</ns3:cad>
          </ns3:TrackPointExtension>
        </extensions>
      </trkpt>
      <trkpt lat="52.14131369255483150482177734375" lon="1.47121243178844451904296875">
        <ele>-79.1999969482421875</ele>
        <time>2025-09-06T09:39:37.000Z</time>
        <extensions>
          <ns3:TrackPointExtension>
            <ns3:hr>124</ns3:hr>
            <ns3:cad>0</ns3:cad>
          </ns3:TrackPointExtension>
        </extensions>
      </trkpt>
      <trkpt lat="52.1413149498403072357177734375" lon="1.471210420131683349609375">
        <ele>-80.1999969482421875</ele>
        <time>2025-09-06T09:39:39.000Z</time>
        <extensions>
          <ns3:TrackPointExtension>
            <ns3:hr>123</ns3:hr>
            <ns3:cad>0</ns3:cad>
          </ns3:TrackPointExtension>
        </extensions>
      </trkpt>
      <trkpt lat="52.14131603948771953582763671875" lon="1.4712063968181610107421875">
        <ele>-81.40000152587890625</ele>
        <time>2025-09-06T09:39:41.000Z</time>
        <extensions>
          <ns3:TrackPointExtension>
            <ns3:hr>124</ns3:hr>
            <ns3:cad>0</ns3:cad>
          </ns3:TrackPointExtension>
        </extensions>
      </trkpt>
      <trkpt lat="52.14131285436451435089111328125" lon="1.4712037146091461181640625">
        <ele>-82.40000152587890625</ele>
        <time>2025-09-06T09:39:43.000Z</time>
        <extensions>
          <ns3:TrackPointExtension>
            <ns3:hr>123</ns3:hr>
            <ns3:cad>0</ns3:cad>
          </ns3:TrackPointExtension>
        </extensions>
      </trkpt>
      <trkpt lat="52.14131369255483150482177734375" lon="1.4711998589336872100830078125">
        <ele>-83.40000152587890625</ele>
        <time>2025-09-06T09:39:45.000Z</time>
        <extensions>
          <ns3:TrackPointExtension>
            <ns3:hr>124</ns3:hr>
            <ns3:cad>0</ns3:cad>
          </ns3:TrackPointExtension>
        </extensions>
      </trkpt>
      <trkpt lat="52.14131704531610012054443359375" lon="1.47119960747659206390380859375">
        <ele>-84.59999847412109375</ele>
        <time>2025-09-06T09:39:47.000Z</time>
        <extensions>
          <ns3:TrackPointExtension>
            <ns3:hr>121</ns3:hr>
            <ns3:cad>0</ns3:cad>
          </ns3:TrackPointExtension>
        </extensions>
      </trkpt>
      <trkpt lat="52.14132023043930530548095703125" lon="1.47120262496173381805419921875">
        <ele>-85.59999847412109375</ele>
        <time>2025-09-06T09:39:49.000Z</time>
        <extensions>
          <ns3:TrackPointExtension>
            <ns3:hr>119</ns3:hr>
            <ns3:cad>0</ns3:cad>
          </ns3:TrackPointExtension>
        </extensions>
      </trkpt>
      <trkpt lat="52.1413216553628444671630859375" lon="1.4712010324001312255859375">
        <ele>-86.1999969482421875</ele>
        <time>2025-09-06T09:39:50.000Z</time>
        <extensions>
          <ns3:TrackPointExtension>
            <ns3:hr>119</ns3:hr>
            <ns3:cad>0</ns3:cad>
          </ns3:TrackPointExtension>
        </extensions>
      </trkpt>
      <trkpt lat="52.141321487724781036376953125" lon="1.47120161913335323333740234375">
        <ele>-86.59999847412109375</ele>
        <time>2025-09-06T09:39:51.000Z</time>
        <extensions>
          <ns3:TrackPointExtension>
            <ns3:hr>117</ns3:hr>
            <ns3:cad>0</ns3:cad>
          </ns3:TrackPointExtension>
        </extensions>
      </trkpt>
      <trkpt lat="52.14132190681993961334228515625" lon="1.471202038228511810302734375">
        <ele>-88</ele>
        <time>2025-09-06T09:39:54.000Z</time>
        <extensions>
          <ns3:TrackPointExtension>
            <ns3:hr>116</ns3:hr>
            <ns3:cad>0</ns3:cad>
          </ns3:TrackPointExtension>
        </extensions>
      </trkpt>
      <trkpt lat="52.1413209848105907440185546875" lon="1.4711983501911163330078125">
        <ele>-89.40000152587890625</ele>
        <time>2025-09-06T09:39:57.000Z</time>
        <extensions>
          <ns3:TrackPointExtension>
            <ns3:hr>116</ns3:hr>
            <ns3:cad>0</ns3:cad>
          </ns3:TrackPointExtension>
        </extensions>
      </trkpt>
      <trkpt lat="52.14131176471710205078125" lon="1.4711938239634037017822265625">
        <ele>-90.8000030517578125</ele>
        <time>2025-09-06T09:40:00.000Z</time>
        <extensions>
          <ns3:TrackPointExtension>
            <ns3:hr>113</ns3:hr>
            <ns3:cad>0</ns3:cad>
          </ns3:TrackPointExtension>
        </extensions>
      </trkpt>
      <trkpt lat="52.1413115970790386199951171875" lon="1.47120094858109951019287109375">
        <ele>-92.1999969482421875</ele>
        <time>2025-09-06T09:40:03.000Z</time>
        <extensions>
          <ns3:TrackPointExtension>
            <ns3:hr>115</ns3:hr>
            <ns3:cad>0</ns3:cad>
          </ns3:TrackPointExtension>
        </extensions>
      </trkpt>
      <trkpt lat="52.1413058973848819732666015625" lon="1.47121318615972995758056640625">
        <ele>-93.59999847412109375</ele>
        <time>2025-09-06T09:40:06.000Z</time>
        <extensions>
          <ns3:TrackPointExtension>
            <ns3:hr>117</ns3:hr>
            <ns3:cad>0</ns3:cad>
          </ns3:TrackPointExtension>
        </extensions>
      </trkpt>
      <trkpt lat="52.1413035504519939422607421875" lon="1.47122106514871120452880859375">
        <ele>-94.8000030517578125</ele>
        <time>2025-09-06T09:40:09.000Z</time>
        <extensions>
          <ns3:TrackPointExtension>
            <ns3:hr>116</ns3:hr>
            <ns3:cad>0</ns3:cad>
          </ns3:TrackPointExtension>
        </extensions>
      </trkpt>
      <trkpt lat="52.1413079090416431427001953125" lon="1.47122290916740894317626953125">
        <ele>-96.1999969482421875</ele>
        <time>2025-09-06T09:40:12.000Z</time>
        <extensions>
          <ns3:TrackPointExtension>
            <ns3:hr>115</ns3:hr>
            <ns3:cad>0</ns3:cad>
          </ns3:TrackPointExtension>
        </extensions>
      </trkpt>
      <trkpt lat="52.14130765758454799652099609375" lon="1.47121972404420375823974609375">
        <ele>-97</ele>
        <time>2025-09-06T09:40:14.000Z</time>
        <extensions>
          <ns3:TrackPointExtension>
            <ns3:hr>115</ns3:hr>
            <ns3:cad>0</ns3:cad>
          </ns3:TrackPointExtension>
        </extensions>
      </trkpt>
      <trkpt lat="52.1413075737655162811279296875" lon="1.4712186343967914581298828125">
        <ele>-97.40000152587890625</ele>
        <time>2025-09-06T09:40:15.000Z</time>
        <extensions>
          <ns3:TrackPointExtension>
            <ns3:hr>117</ns3:hr>
            <ns3:cad>0</ns3:cad>
          </ns3:TrackPointExtension>
        </extensions>
      </trkpt>
      <trkpt lat="52.14131511747837066650390625" lon="1.4712283574044704437255859375">
        <ele>-98</ele>
        <time>2025-09-06T09:40:17.000Z</time>
        <extensions>
          <ns3:TrackPointExtension>
            <ns3:hr>114</ns3:hr>
            <ns3:cad>0</ns3:cad>
          </ns3:TrackPointExtension>
        </extensions>
      </trkpt>
      <trkpt lat="52.1413216553628444671630859375" lon="1.47123992443084716796875">
        <ele>-98.40000152587890625</ele>
        <time>2025-09-06T09:40:18.000Z</time>
        <extensions>
          <ns3:TrackPointExtension>
            <ns3:hr>115</ns3:hr>
            <ns3:cad>0</ns3:cad>
          </ns3:TrackPointExtension>
        </extensions>
      </trkpt>
      <trkpt lat="52.14133833535015583038330078125" lon="1.47126875817775726318359375">
        <ele>-99.40000152587890625</ele>
        <time>2025-09-06T09:40:21.000Z</time>
        <extensions>
          <ns3:TrackPointExtension>
            <ns3:hr>114</ns3:hr>
            <ns3:cad>0</ns3:cad>
          </ns3:TrackPointExtension>
        </extensions>
      </trkpt>
      <trkpt lat="52.14134336449205875396728515625" lon="1.47128342650830745697021484375">
        <ele>-99.59999847412109375</ele>
        <time>2025-09-06T09:40:22.000Z</time>
        <extensions>
          <ns3:TrackPointExtension>
            <ns3:hr>115</ns3:hr>
            <ns3:cad>47</ns3:cad>
          </ns3:TrackPointExtension>
        </extensions>
      </trkpt>
      <trkpt lat="52.14136113412678241729736328125" lon="1.471342183649539947509765625">
        <ele>-100.8000030517578125</ele>
        <time>2025-09-06T09:40:26.000Z</time>
        <extensions>
          <ns3:TrackPointExtension>
            <ns3:hr>119</ns3:hr>
            <ns3:cad>52</ns3:cad>
          </ns3:TrackPointExtension>
        </extensions>
      </trkpt>
      <trkpt lat="52.1413739584386348724365234375" lon="1.47136305458843708038330078125">
        <ele>-101.1999969482421875</ele>
        <time>2025-09-06T09:40:28.000Z</time>
        <extensions>
          <ns3:TrackPointExtension>
            <ns3:hr>120</ns3:hr>
            <ns3:cad>52</ns3:cad>
          </ns3:TrackPointExtension>
        </extensions>
      </trkpt>
      <trkpt lat="52.141395248472690582275390625" lon="1.47140446119010448455810546875">
        <ele>-102</ele>
        <time>2025-09-06T09:40:31.000Z</time>
        <extensions>
          <ns3:TrackPointExtension>
            <ns3:hr>119</ns3:hr>
            <ns3:cad>56</ns3:cad>
          </ns3:TrackPointExtension>
        </extensions>
      </trkpt>
      <trkpt lat="52.1414316259324550628662109375" lon="1.47149414755403995513916015625">
        <ele>-103</ele>
        <time>2025-09-06T09:40:36.000Z</time>
        <extensions>
          <ns3:TrackPointExtension>
            <ns3:hr>120</ns3:hr>
            <ns3:cad>61</ns3:cad>
          </ns3:TrackPointExtension>
        </extensions>
      </trkpt>
      <trkpt lat="52.1414396725594997406005859375" lon="1.4715213887393474578857421875">
        <ele>-103.40000152587890625</ele>
        <time>2025-09-06T09:40:37.000Z</time>
        <extensions>
          <ns3:TrackPointExtension>
            <ns3:hr>121</ns3:hr>
            <ns3:cad>78</ns3:cad>
          </ns3:TrackPointExtension>
        </extensions>
      </trkpt>
      <trkpt lat="52.14151703752577304840087890625" lon="1.471594311296939849853515625">
        <ele>-104.1999969482421875</ele>
        <time>2025-09-06T09:40:41.000Z</time>
        <extensions>
          <ns3:TrackPointExtension>
            <ns3:hr>119</ns3:hr>
            <ns3:cad>78</ns3:cad>
          </ns3:TrackPointExtension>
        </extensions>
      </trkpt>
      <trkpt lat="52.14153966866433620452880859375" lon="1.47160965017974376678466796875">
        <ele>-104.40000152587890625</ele>
        <time>2025-09-06T09:40:42.000Z</time>
        <extensions>
          <ns3:TrackPointExtension>
            <ns3:hr>122</ns3:hr>
            <ns3:cad>78</ns3:cad>
          </ns3:TrackPointExtension>
        </extensions>
      </trkpt>
      <trkpt lat="52.1415576897561550140380859375" lon="1.4716286770999431610107421875">
        <ele>-104.59999847412109375</ele>
        <time>2025-09-06T09:40:43.000Z</time>
        <extensions>
          <ns3:TrackPointExtension>
            <ns3:hr>125</ns3:hr>
            <ns3:cad>79</ns3:cad>
          </ns3:TrackPointExtension>
        </extensions>
      </trkpt>
      <trkpt lat="52.1415717713534832000732421875" lon="1.4716447703540325164794921875">
        <ele>-104.8000030517578125</ele>
        <time>2025-09-06T09:40:44.000Z</time>
        <extensions>
          <ns3:TrackPointExtension>
            <ns3:hr>128</ns3:hr>
            <ns3:cad>79</ns3:cad>
          </ns3:TrackPointExtension>
        </extensions>
      </trkpt>
      <trkpt lat="52.1415885351598262786865234375" lon="1.47167586721479892730712890625">
        <ele>-105.1999969482421875</ele>
        <time>2025-09-06T09:40:46.000Z</time>
        <extensions>
          <ns3:TrackPointExtension>
            <ns3:hr>135</ns3:hr>
            <ns3:cad>78</ns3:cad>
          </ns3:TrackPointExtension>
        </extensions>
      </trkpt>
      <trkpt lat="52.14159616269171237945556640625" lon="1.471684165298938751220703125">
        <ele>-105.40000152587890625</ele>
        <time>2025-09-06T09:40:47.000Z</time>
        <extensions>
          <ns3:TrackPointExtension>
            <ns3:hr>133</ns3:hr>
            <ns3:cad>0</ns3:cad>
          </ns3:TrackPointExtension>
        </extensions>
      </trkpt>
      <trkpt lat="52.14160068891942501068115234375" lon="1.47168894298374652862548828125">
        <ele>-105.59999847412109375</ele>
        <time>2025-09-06T09:40:48.000Z</time>
        <extensions>
          <ns3:TrackPointExtension>
            <ns3:hr>136</ns3:hr>
            <ns3:cad>0</ns3:cad>
          </ns3:TrackPointExtension>
        </extensions>
      </trkpt>
      <trkpt lat="52.14160211384296417236328125" lon="1.4716974087059497833251953125">
        <ele>-105.8000030517578125</ele>
        <time>2025-09-06T09:40:49.000Z</time>
        <extensions>
          <ns3:TrackPointExtension>
            <ns3:hr>139</ns3:hr>
            <ns3:cad>0</ns3:cad>
          </ns3:TrackPointExtension>
        </extensions>
      </trkpt>
      <trkpt lat="52.1416002698242664337158203125" lon="1.47171006537973880767822265625">
        <ele>-106</ele>
        <time>2025-09-06T09:40:50.000Z</time>
        <extensions>
          <ns3:TrackPointExtension>
            <ns3:hr>141</ns3:hr>
            <ns3:cad>0</ns3:cad>
          </ns3:TrackPointExtension>
        </extensions>
      </trkpt>
      <trkpt lat="52.14159515686333179473876953125" lon="1.47172330878674983978271484375">
        <ele>-106.1999969482421875</ele>
        <time>2025-09-06T09:40:51.000Z</time>
        <extensions>
          <ns3:TrackPointExtension>
            <ns3:hr>142</ns3:hr>
            <ns3:cad>0</ns3:cad>
          </ns3:TrackPointExtension>
        </extensions>
      </trkpt>
      <trkpt lat="52.14161418378353118896484375" lon="1.47173487581312656402587890625">
        <ele>-107.40000152587890625</ele>
        <time>2025-09-06T09:40:56.000Z</time>
        <extensions>
          <ns3:TrackPointExtension>
            <ns3:hr>143</ns3:hr>
            <ns3:cad>0</ns3:cad>
          </ns3:TrackPointExtension>
        </extensions>
      </trkpt>
      <trkpt lat="52.14161493815481662750244140625" lon="1.471738480031490325927734375">
        <ele>-107.8000030517578125</ele>
        <time>2025-09-06T09:40:57.000Z</time>
        <extensions>
          <ns3:TrackPointExtension>
            <ns3:hr>141</ns3:hr>
            <ns3:cad>0</ns3:cad>
          </ns3:TrackPointExtension>
        </extensions>
      </trkpt>
      <trkpt lat="52.14161527343094348907470703125" lon="1.4716990850865840911865234375">
        <ele>-108.59999847412109375</ele>
        <time>2025-09-06T09:41:01.000Z</time>
        <extensions>
          <ns3:TrackPointExtension>
            <ns3:hr>142</ns3:hr>
            <ns3:cad>0</ns3:cad>
          </ns3:TrackPointExtension>
        </extensions>
      </trkpt>
      <trkpt lat="52.14162466116249561309814453125" lon="1.4716471172869205474853515625">
        <ele>-109</ele>
        <time>2025-09-06T09:41:03.000Z</time>
        <extensions>
          <ns3:TrackPointExtension>
            <ns3:hr>140</ns3:hr>
            <ns3:cad>75</ns3:cad>
          </ns3:TrackPointExtension>
        </extensions>
      </trkpt>
      <trkpt lat="52.14164435863494873046875" lon="1.471533961594104766845703125">
        <ele>-109.59999847412109375</ele>
        <time>2025-09-06T09:41:06.000Z</time>
        <extensions>
          <ns3:TrackPointExtension>
            <ns3:hr>143</ns3:hr>
            <ns3:cad>77</ns3:cad>
          </ns3:TrackPointExtension>
        </extensions>
      </trkpt>
      <trkpt lat="52.1416482143104076385498046875" lon="1.47149800322949886322021484375">
        <ele>-109.8000030517578125</ele>
        <time>2025-09-06T09:41:07.000Z</time>
        <extensions>
          <ns3:TrackPointExtension>
            <ns3:hr>145</ns3:hr>
            <ns3:cad>77</ns3:cad>
          </ns3:TrackPointExtension>
        </extensions>
      </trkpt>
      <trkpt lat="52.14164729230105876922607421875" lon="1.47146321833133697509765625">
        <ele>-110</ele>
        <time>2025-09-06T09:41:08.000Z</time>
        <extensions>
          <ns3:TrackPointExtension>
            <ns3:hr>148</ns3:hr>
            <ns3:cad>77</ns3:cad>
          </ns3:TrackPointExtension>
        </extensions>
      </trkpt>
      <trkpt lat="52.14164963923394680023193359375" lon="1.4714301936328411102294921875">
        <ele>-110.1999969482421875</ele>
        <time>2025-09-06T09:41:09.000Z</time>
        <extensions>
          <ns3:TrackPointExtension>
            <ns3:hr>148</ns3:hr>
            <ns3:cad>78</ns3:cad>
          </ns3:TrackPointExtension>
        </extensions>
      </trkpt>
      <trkpt lat="52.14166305027902126312255859375" lon="1.47134310565888881683349609375">
        <ele>-110.8000030517578125</ele>
        <time>2025-09-06T09:41:13.000Z</time>
        <extensions>
          <ns3:TrackPointExtension>
            <ns3:hr>152</ns3:hr>
            <ns3:cad>60</ns3:cad>
          </ns3:TrackPointExtension>
        </extensions>
      </trkpt>
      <trkpt lat="52.14167763479053974151611328125" lon="1.4712846837937831878662109375">
        <ele>-111.1999969482421875</ele>
        <time>2025-09-06T09:41:16.000Z</time>
        <extensions>
          <ns3:TrackPointExtension>
            <ns3:hr>154</ns3:hr>
            <ns3:cad>53</ns3:cad>
          </ns3:TrackPointExtension>
        </extensions>
      </trkpt>
      <trkpt lat="52.14169188402593135833740234375" lon="1.47110640071332454681396484375">
        <ele>-111.8000030517578125</ele>
        <time>2025-09-06T09:41:24.000Z</time>
        <extensions>
          <ns3:TrackPointExtension>
            <ns3:hr>155</ns3:hr>
            <ns3:cad>60</ns3:cad>
          </ns3:TrackPointExtension>
        </extensions>
      </trkpt>
      <trkpt lat="52.14169490151107311248779296875" lon="1.4710466377437114715576171875">
        <ele>-111.8000030517578125</ele>
        <time>2025-09-06T09:41:27.000Z</time>
        <extensions>
          <ns3:TrackPointExtension>
            <ns3:hr>155</ns3:hr>
            <ns3:cad>61</ns3:cad>
          </ns3:TrackPointExtension>
        </extensions>
      </trkpt>
      <trkpt lat="52.14170596562325954437255859375" lon="1.47095368243753910064697265625">
        <ele>-112</ele>
        <time>2025-09-06T09:41:31.000Z</time>
        <extensions>
          <ns3:TrackPointExtension>
            <ns3:hr>152</ns3:hr>
            <ns3:cad>59</ns3:cad>
          </ns3:TrackPointExtension>
        </extensions>
      </trkpt>
      <trkpt lat="52.141717113554477691650390625" lon="1.4709215797483921051025390625">
        <ele>-112</ele>
        <time>2025-09-06T09:41:33.000Z</time>
        <extensions>
          <ns3:TrackPointExtension>
            <ns3:hr>150</ns3:hr>
            <ns3:cad>59</ns3:cad>
          </ns3:TrackPointExtension>
        </extensions>
      </trkpt>
      <trkpt lat="52.1417363919317722320556640625" lon="1.4708759821951389312744140625">
        <ele>-112</ele>
        <time>2025-09-06T09:41:36.000Z</time>
        <extensions>
          <ns3:TrackPointExtension>
            <ns3:hr>148</ns3:hr>
            <ns3:cad>56</ns3:cad>
          </ns3:TrackPointExtension>
        </extensions>
      </trkpt>
      <trkpt lat="52.1417434327304363250732421875" lon="1.4708483219146728515625">
        <ele>-112.1999969482421875</ele>
        <time>2025-09-06T09:41:38.000Z</time>
        <extensions>
          <ns3:TrackPointExtension>
            <ns3:hr>143</ns3:hr>
            <ns3:cad>0</ns3:cad>
          </ns3:TrackPointExtension>
        </extensions>
      </trkpt>
      <trkpt lat="52.14173161424696445465087890625" lon="1.47082887589931488037109375">
        <ele>-112.1999969482421875</ele>
        <time>2025-09-06T09:41:40.000Z</time>
        <extensions>
          <ns3:TrackPointExtension>
            <ns3:hr>142</ns3:hr>
            <ns3:cad>0</ns3:cad>
          </ns3:TrackPointExtension>
        </extensions>
      </trkpt>
      <trkpt lat="52.1417159400880336761474609375" lon="1.47079492919147014617919921875">
        <ele>-112.40000152587890625</ele>
        <time>2025-09-06T09:41:49.000Z</time>
        <extensions>
          <ns3:TrackPointExtension>
            <ns3:hr>141</ns3:hr>
            <ns3:cad>0</ns3:cad>
          </ns3:TrackPointExtension>
        </extensions>
      </trkpt>
      <trkpt lat="52.1417162753641605377197265625" lon="1.4707888104021549224853515625">
        <ele>-112.59999847412109375</ele>
        <time>2025-09-06T09:41:51.000Z</time>
        <extensions>
          <ns3:TrackPointExtension>
            <ns3:hr>138</ns3:hr>
            <ns3:cad>0</ns3:cad>
          </ns3:TrackPointExtension>
        </extensions>
      </trkpt>
      <trkpt lat="52.14171719737350940704345703125" lon="1.470780260860919952392578125">
        <ele>-112.59999847412109375</ele>
        <time>2025-09-06T09:41:52.000Z</time>
        <extensions>
          <ns3:TrackPointExtension>
            <ns3:hr>140</ns3:hr>
            <ns3:cad>0</ns3:cad>
          </ns3:TrackPointExtension>
        </extensions>
      </trkpt>
      <trkpt lat="52.14171468280255794525146484375" lon="1.47071731276810169219970703125">
        <ele>-113</ele>
        <time>2025-09-06T09:41:56.000Z</time>
        <extensions>
          <ns3:TrackPointExtension>
            <ns3:hr>138</ns3:hr>
            <ns3:cad>0</ns3:cad>
          </ns3:TrackPointExtension>
        </extensions>
      </trkpt>
      <trkpt lat="52.141712419688701629638671875" lon="1.47070172242820262908935546875">
        <ele>-113</ele>
        <time>2025-09-06T09:41:58.000Z</time>
        <extensions>
          <ns3:TrackPointExtension>
            <ns3:hr>137</ns3:hr>
            <ns3:cad>52</ns3:cad>
          </ns3:TrackPointExtension>
        </extensions>
      </trkpt>
      <trkpt lat="52.1417253278195858001708984375" lon="1.47068948484957218170166015625">
        <ele>-113.1999969482421875</ele>
        <time>2025-09-06T09:42:00.000Z</time>
        <extensions>
          <ns3:TrackPointExtension>
            <ns3:hr>137</ns3:hr>
            <ns3:cad>55</ns3:cad>
          </ns3:TrackPointExtension>
        </extensions>
      </trkpt>
      <trkpt lat="52.141745276749134063720703125" lon="1.470689736306667327880859375">
        <ele>-113.59999847412109375</ele>
        <time>2025-09-06T09:42:04.000Z</time>
        <extensions>
          <ns3:TrackPointExtension>
            <ns3:hr>136</ns3:hr>
            <ns3:cad>0</ns3:cad>
          </ns3:TrackPointExtension>
        </extensions>
      </trkpt>
      <trkpt lat="52.14176028035581111907958984375" lon="1.47069166414439678192138671875">
        <ele>-114</ele>
        <time>2025-09-06T09:42:07.000Z</time>
        <extensions>
          <ns3:TrackPointExtension>
            <ns3:hr>136</ns3:hr>
            <ns3:cad>58</ns3:cad>
          </ns3:TrackPointExtension>
        </extensions>
      </trkpt>
      <trkpt lat="52.14177377521991729736328125" lon="1.47072837688028812408447265625">
        <ele>-114.40000152587890625</ele>
        <time>2025-09-06T09:42:10.000Z</time>
        <extensions>
          <ns3:TrackPointExtension>
            <ns3:hr>131</ns3:hr>
            <ns3:cad>60</ns3:cad>
          </ns3:TrackPointExtension>
        </extensions>
      </trkpt>
      <trkpt lat="52.1417799778282642364501953125" lon="1.470740027725696563720703125">
        <ele>-114.40000152587890625</ele>
        <time>2025-09-06T09:42:11.000Z</time>
        <extensions>
          <ns3:TrackPointExtension>
            <ns3:hr>133</ns3:hr>
            <ns3:cad>60</ns3:cad>
          </ns3:TrackPointExtension>
        </extensions>
      </trkpt>
      <trkpt lat="52.14179246686398983001708984375" lon="1.4707666821777820587158203125">
        <ele>-114.59999847412109375</ele>
        <time>2025-09-06T09:42:13.000Z</time>
        <extensions>
          <ns3:TrackPointExtension>
            <ns3:hr>131</ns3:hr>
            <ns3:cad>60</ns3:cad>
          </ns3:TrackPointExtension>
        </extensions>
      </trkpt>
      <trkpt lat="52.14180017821490764617919921875" lon="1.470833234488964080810546875">
        <ele>-115</ele>
        <time>2025-09-06T09:42:16.000Z</time>
        <extensions>
          <ns3:TrackPointExtension>
            <ns3:hr>132</ns3:hr>
            <ns3:cad>122</ns3:cad>
          </ns3:TrackPointExtension>
        </extensions>
      </trkpt>
      <trkpt lat="52.1418295986950397491455078125" lon="1.4710335619747638702392578125">
        <ele>-115.8000030517578125</ele>
        <time>2025-09-06T09:42:22.000Z</time>
        <extensions>
          <ns3:TrackPointExtension>
            <ns3:hr>131</ns3:hr>
            <ns3:cad>78</ns3:cad>
          </ns3:TrackPointExtension>
        </extensions>
      </trkpt>
      <trkpt lat="52.14184326119720935821533203125" lon="1.4711006172001361846923828125">
        <ele>-116</ele>
        <time>2025-09-06T09:42:24.000Z</time>
        <extensions>
          <ns3:TrackPointExtension>
            <ns3:hr>133</ns3:hr>
            <ns3:cad>79</ns3:cad>
          </ns3:TrackPointExtension>
        </extensions>
      </trkpt>
      <trkpt lat="52.14186170138418674468994140625" lon="1.4711849391460418701171875">
        <ele>-116.59999847412109375</ele>
        <time>2025-09-06T09:42:27.000Z</time>
        <extensions>
          <ns3:TrackPointExtension>
            <ns3:hr>136</ns3:hr>
            <ns3:cad>78</ns3:cad>
          </ns3:TrackPointExtension>
        </extensions>
      </trkpt>
      <trkpt lat="52.14188374578952789306640625" lon="1.47123062051832675933837890625">
        <ele>-117.1999969482421875</ele>
        <time>2025-09-06T09:42:29.000Z</time>
        <extensions>
          <ns3:TrackPointExtension>
            <ns3:hr>136</ns3:hr>
            <ns3:cad>78</ns3:cad>
          </ns3:TrackPointExtension>
        </extensions>
      </trkpt>
      <trkpt lat="52.141889445483684539794921875" lon="1.4712571911513805389404296875">
        <ele>-117.40000152587890625</ele>
        <time>2025-09-06T09:42:30.000Z</time>
        <extensions>
          <ns3:TrackPointExtension>
            <ns3:hr>139</ns3:hr>
            <ns3:cad>78</ns3:cad>
          </ns3:TrackPointExtension>
        </extensions>
      </trkpt>
      <trkpt lat="52.1419412456452846527099609375" lon="1.47138367407023906707763671875">
        <ele>-118.1999969482421875</ele>
        <time>2025-09-06T09:42:34.000Z</time>
        <extensions>
          <ns3:TrackPointExtension>
            <ns3:hr>138</ns3:hr>
            <ns3:cad>77</ns3:cad>
          </ns3:TrackPointExtension>
        </extensions>
      </trkpt>
      <trkpt lat="52.141958512365818023681640625" lon="1.47140412591397762298583984375">
        <ele>-118.40000152587890625</ele>
        <time>2025-09-06T09:42:35.000Z</time>
        <extensions>
          <ns3:TrackPointExtension>
            <ns3:hr>139</ns3:hr>
            <ns3:cad>76</ns3:cad>
          </ns3:TrackPointExtension>
        </extensions>
      </trkpt>
      <trkpt lat="52.1419751085340976715087890625" lon="1.47142290137708187103271484375">
        <ele>-119.40000152587890625</ele>
        <time>2025-09-06T09:42:39.000Z</time>
        <extensions>
          <ns3:TrackPointExtension>
            <ns3:hr>139</ns3:hr>
            <ns3:cad>0</ns3:cad>
          </ns3:TrackPointExtension>
        </extensions>
      </trkpt>
      <trkpt lat="52.14197955094277858734130859375" lon="1.47142172791063785552978515625">
        <ele>-119.59999847412109375</ele>
        <time>2025-09-06T09:42:40.000Z</time>
        <extensions>
          <ns3:TrackPointExtension>
            <ns3:hr>140</ns3:hr>
            <ns3:cad>0</ns3:cad>
          </ns3:TrackPointExtension>
        </extensions>
      </trkpt>
      <trkpt lat="52.14198692701756954193115234375" lon="1.47142122499644756317138671875">
        <ele>-120.40000152587890625</ele>
        <time>2025-09-06T09:42:43.000Z</time>
        <extensions>
          <ns3:TrackPointExtension>
            <ns3:hr>141</ns3:hr>
            <ns3:cad>0</ns3:cad>
          </ns3:TrackPointExtension>
        </extensions>
      </trkpt>
      <trkpt lat="52.1419928781688213348388671875" lon="1.4714261703193187713623046875">
        <ele>-121.1999969482421875</ele>
        <time>2025-09-06T09:42:46.000Z</time>
        <extensions>
          <ns3:TrackPointExtension>
            <ns3:hr>138</ns3:hr>
            <ns3:cad>0</ns3:cad>
          </ns3:TrackPointExtension>
        </extensions>
      </trkpt>
      <trkpt lat="52.1419935487210750579833984375" lon="1.4714295230805873870849609375">
        <ele>-121.59999847412109375</ele>
        <time>2025-09-06T09:42:47.000Z</time>
        <extensions>
          <ns3:TrackPointExtension>
            <ns3:hr>138</ns3:hr>
            <ns3:cad>0</ns3:cad>
          </ns3:TrackPointExtension>
        </extensions>
      </trkpt>
      <trkpt lat="52.14199380017817020416259765625" lon="1.47143530659377574920654296875">
        <ele>-122.59999847412109375</ele>
        <time>2025-09-06T09:42:50.000Z</time>
        <extensions>
          <ns3:TrackPointExtension>
            <ns3:hr>135</ns3:hr>
            <ns3:cad>0</ns3:cad>
          </ns3:TrackPointExtension>
        </extensions>
      </trkpt>
      <trkpt lat="52.14199447073042392730712890625" lon="1.47143631242215633392333984375">
        <ele>-123</ele>
        <time>2025-09-06T09:42:51.000Z</time>
        <extensions>
          <ns3:TrackPointExtension>
            <ns3:hr>136</ns3:hr>
            <ns3:cad>0</ns3:cad>
          </ns3:TrackPointExtension>
        </extensions>
      </trkpt>
      <trkpt lat="52.141999416053295135498046875" lon="1.4714322052896022796630859375">
        <ele>-123.8000030517578125</ele>
        <time>2025-09-06T09:42:53.000Z</time>
        <extensions>
          <ns3:TrackPointExtension>
            <ns3:hr>135</ns3:hr>
            <ns3:cad>0</ns3:cad>
          </ns3:TrackPointExtension>
        </extensions>
      </trkpt>
      <trkpt lat="52.14200888760387897491455078125" lon="1.47146296687424182891845703125">
        <ele>-125</ele>
        <time>2025-09-06T09:42:56.000Z</time>
        <extensions>
          <ns3:TrackPointExtension>
            <ns3:hr>133</ns3:hr>
            <ns3:cad>0</ns3:cad>
          </ns3:TrackPointExtension>
        </extensions>
      </trkpt>
      <trkpt lat="52.1420089714229106903076171875" lon="1.47147486917674541473388671875">
        <ele>-125.40000152587890625</ele>
        <time>2025-09-06T09:42:57.000Z</time>
        <extensions>
          <ns3:TrackPointExtension>
            <ns3:hr>136</ns3:hr>
            <ns3:cad>0</ns3:cad>
          </ns3:TrackPointExtension>
        </extensions>
      </trkpt>
      <trkpt lat="52.142020873725414276123046875" lon="1.4715019427239894866943359375">
        <ele>-126.1999969482421875</ele>
        <time>2025-09-06T09:42:59.000Z</time>
        <extensions>
          <ns3:TrackPointExtension>
            <ns3:hr>134</ns3:hr>
            <ns3:cad>0</ns3:cad>
          </ns3:TrackPointExtension>
        </extensions>
      </trkpt>
      <trkpt lat="52.14203855954110622406005859375" lon="1.47154946811497211456298828125">
        <ele>-127.1999969482421875</ele>
        <time>2025-09-06T09:43:02.000Z</time>
        <extensions>
          <ns3:TrackPointExtension>
            <ns3:hr>132</ns3:hr>
            <ns3:cad>49</ns3:cad>
          </ns3:TrackPointExtension>
        </extensions>
      </trkpt>
      <trkpt lat="52.14204995892941951751708984375" lon="1.47163496352732181549072265625">
        <ele>-128.399993896484375</ele>
        <time>2025-09-06T09:43:05.000Z</time>
        <extensions>
          <ns3:TrackPointExtension>
            <ns3:hr>133</ns3:hr>
            <ns3:cad>74</ns3:cad>
          </ns3:TrackPointExtension>
        </extensions>
      </trkpt>
      <trkpt lat="52.14206186123192310333251953125" lon="1.471715010702610015869140625">
        <ele>-129.399993896484375</ele>
        <time>2025-09-06T09:43:08.000Z</time>
        <extensions>
          <ns3:TrackPointExtension>
            <ns3:hr>135</ns3:hr>
            <ns3:cad>78</ns3:cad>
          </ns3:TrackPointExtension>
        </extensions>
      </trkpt>
      <trkpt lat="52.14207409881055355072021484375" lon="1.471795476973056793212890625">
        <ele>-130.399993896484375</ele>
        <time>2025-09-06T09:43:11.000Z</time>
        <extensions>
          <ns3:TrackPointExtension>
            <ns3:hr>137</ns3:hr>
            <ns3:cad>79</ns3:cad>
          </ns3:TrackPointExtension>
        </extensions>
      </trkpt>
      <trkpt lat="52.14208197779953479766845703125" lon="1.471832357347011566162109375">
        <ele>-130.8000030517578125</ele>
        <time>2025-09-06T09:43:12.000Z</time>
        <extensions>
          <ns3:TrackPointExtension>
            <ns3:hr>139</ns3:hr>
            <ns3:cad>79</ns3:cad>
          </ns3:TrackPointExtension>
        </extensions>
      </trkpt>
      <trkpt lat="52.1421098895370960235595703125" lon="1.4719119854271411895751953125">
        <ele>-131.600006103515625</ele>
        <time>2025-09-06T09:43:15.000Z</time>
        <extensions>
          <ns3:TrackPointExtension>
            <ns3:hr>142</ns3:hr>
            <ns3:cad>78</ns3:cad>
          </ns3:TrackPointExtension>
        </extensions>
      </trkpt>
      <trkpt lat="52.142119444906711578369140625" lon="1.471936963498592376708984375">
        <ele>-131.8000030517578125</ele>
        <time>2025-09-06T09:43:16.000Z</time>
        <extensions>
          <ns3:TrackPointExtension>
            <ns3:hr>143</ns3:hr>
            <ns3:cad>78</ns3:cad>
          </ns3:TrackPointExtension>
        </extensions>
      </trkpt>
      <trkpt lat="52.14212874881923198699951171875" lon="1.47196537815034389495849609375">
        <ele>-132</ele>
        <time>2025-09-06T09:43:17.000Z</time>
        <extensions>
          <ns3:TrackPointExtension>
            <ns3:hr>143</ns3:hr>
            <ns3:cad>78</ns3:cad>
          </ns3:TrackPointExtension>
        </extensions>
      </trkpt>
      <trkpt lat="52.1421504579484462738037109375" lon="1.47209948860108852386474609375">
        <ele>-133</ele>
        <time>2025-09-06T09:43:21.000Z</time>
        <extensions>
          <ns3:TrackPointExtension>
            <ns3:hr>144</ns3:hr>
            <ns3:cad>78</ns3:cad>
          </ns3:TrackPointExtension>
        </extensions>
      </trkpt>
      <trkpt lat="52.14216764084994792938232421875" lon="1.47223209030926227569580078125">
        <ele>-133.8000030517578125</ele>
        <time>2025-09-06T09:43:25.000Z</time>
        <extensions>
          <ns3:TrackPointExtension>
            <ns3:hr>147</ns3:hr>
            <ns3:cad>77</ns3:cad>
          </ns3:TrackPointExtension>
        </extensions>
      </trkpt>
      <trkpt lat="52.142170406877994537353515625" lon="1.47225874476134777069091796875">
        <ele>-134</ele>
        <time>2025-09-06T09:43:26.000Z</time>
        <extensions>
          <ns3:TrackPointExtension>
            <ns3:hr>148</ns3:hr>
            <ns3:cad>78</ns3:cad>
          </ns3:TrackPointExtension>
        </extensions>
      </trkpt>
      <trkpt lat="52.14217702858150005340576171875" lon="1.4723716489970684051513671875">
        <ele>-135</ele>
        <time>2025-09-06T09:43:31.000Z</time>
        <extensions>
          <ns3:TrackPointExtension>
            <ns3:hr>149</ns3:hr>
            <ns3:cad>79</ns3:cad>
          </ns3:TrackPointExtension>
        </extensions>
      </trkpt>
      <trkpt lat="52.14219379238784313201904296875" lon="1.472417749464511871337890625">
        <ele>-135.399993896484375</ele>
        <time>2025-09-06T09:43:33.000Z</time>
        <extensions>
          <ns3:TrackPointExtension>
            <ns3:hr>148</ns3:hr>
            <ns3:cad>79</ns3:cad>
          </ns3:TrackPointExtension>
        </extensions>
      </trkpt>
      <trkpt lat="52.142199575901031494140625" lon="1.47249142639338970184326171875">
        <ele>-135.8000030517578125</ele>
        <time>2025-09-06T09:43:35.000Z</time>
        <extensions>
          <ns3:TrackPointExtension>
            <ns3:hr>151</ns3:hr>
            <ns3:cad>77</ns3:cad>
          </ns3:TrackPointExtension>
        </extensions>
      </trkpt>
      <trkpt lat="52.14220686815679073333740234375" lon="1.47252495400607585906982421875">
        <ele>-136</ele>
        <time>2025-09-06T09:43:36.000Z</time>
        <extensions>
          <ns3:TrackPointExtension>
            <ns3:hr>151</ns3:hr>
            <ns3:cad>77</ns3:cad>
          </ns3:TrackPointExtension>
        </extensions>
      </trkpt>
      <trkpt lat="52.14224576018750667572021484375" lon="1.47264045663177967071533203125">
        <ele>-136.600006103515625</ele>
        <time>2025-09-06T09:43:39.000Z</time>
        <extensions>
          <ns3:TrackPointExtension>
            <ns3:hr>150</ns3:hr>
            <ns3:cad>78</ns3:cad>
          </ns3:TrackPointExtension>
        </extensions>
      </trkpt>
      <trkpt lat="52.14227761141955852508544921875" lon="1.4727213419973850250244140625">
        <ele>-137.1999969482421875</ele>
        <time>2025-09-06T09:43:42.000Z</time>
        <extensions>
          <ns3:TrackPointExtension>
            <ns3:hr>149</ns3:hr>
            <ns3:cad>76</ns3:cad>
          </ns3:TrackPointExtension>
        </extensions>
      </trkpt>
      <trkpt lat="52.1423509530723094940185546875" lon="1.4728336594998836517333984375">
        <ele>-138</ele>
        <time>2025-09-06T09:43:47.000Z</time>
        <extensions>
          <ns3:TrackPointExtension>
            <ns3:hr>146</ns3:hr>
            <ns3:cad>77</ns3:cad>
          </ns3:TrackPointExtension>
        </extensions>
      </trkpt>
      <trkpt lat="52.1423640288412570953369140625" lon="1.47285754792392253875732421875">
        <ele>-138.1999969482421875</ele>
        <time>2025-09-06T09:43:48.000Z</time>
        <extensions>
          <ns3:TrackPointExtension>
            <ns3:hr>149</ns3:hr>
            <ns3:cad>77</ns3:cad>
          </ns3:TrackPointExtension>
        </extensions>
      </trkpt>
      <trkpt lat="52.14244809933006763458251953125" lon="1.47300054319202899932861328125">
        <ele>-139</ele>
        <time>2025-09-06T09:43:53.000Z</time>
        <extensions>
          <ns3:TrackPointExtension>
            <ns3:hr>149</ns3:hr>
            <ns3:cad>76</ns3:cad>
          </ns3:TrackPointExtension>
        </extensions>
      </trkpt>
      <trkpt lat="52.14246754534542560577392578125" lon="1.47302954457700252532958984375">
        <ele>-139.1999969482421875</ele>
        <time>2025-09-06T09:43:54.000Z</time>
        <extensions>
          <ns3:TrackPointExtension>
            <ns3:hr>149</ns3:hr>
            <ns3:cad>79</ns3:cad>
          </ns3:TrackPointExtension>
        </extensions>
      </trkpt>
      <trkpt lat="52.14253795333206653594970703125" lon="1.473158709704875946044921875">
        <ele>-139.8000030517578125</ele>
        <time>2025-09-06T09:43:58.000Z</time>
        <extensions>
          <ns3:TrackPointExtension>
            <ns3:hr>152</ns3:hr>
            <ns3:cad>80</ns3:cad>
          </ns3:TrackPointExtension>
        </extensions>
      </trkpt>
      <trkpt lat="52.14257382787764072418212890625" lon="1.47320958785712718963623046875">
        <ele>-140.1999969482421875</ele>
        <time>2025-09-06T09:44:00.000Z</time>
        <extensions>
          <ns3:TrackPointExtension>
            <ns3:hr>154</ns3:hr>
            <ns3:cad>79</ns3:cad>
          </ns3:TrackPointExtension>
        </extensions>
      </trkpt>
      <trkpt lat="52.142586819827556610107421875" lon="1.47323615849018096923828125">
        <ele>-140.399993896484375</ele>
        <time>2025-09-06T09:44:01.000Z</time>
        <extensions>
          <ns3:TrackPointExtension>
            <ns3:hr>154</ns3:hr>
            <ns3:cad>79</ns3:cad>
          </ns3:TrackPointExtension>
        </extensions>
      </trkpt>
      <trkpt lat="52.1426768414676189422607421875" lon="1.47336549125611782073974609375">
        <ele>-141.399993896484375</ele>
        <time>2025-09-06T09:44:07.000Z</time>
        <extensions>
          <ns3:TrackPointExtension>
            <ns3:hr>150</ns3:hr>
            <ns3:cad>79</ns3:cad>
          </ns3:TrackPointExtension>
        </extensions>
      </trkpt>
      <trkpt lat="52.1426895819604396820068359375" lon="1.47338845767080783843994140625">
        <ele>-141.600006103515625</ele>
        <time>2025-09-06T09:44:08.000Z</time>
        <extensions>
          <ns3:TrackPointExtension>
            <ns3:hr>150</ns3:hr>
            <ns3:cad>79</ns3:cad>
          </ns3:TrackPointExtension>
        </extensions>
      </trkpt>
      <trkpt lat="52.14276040904223918914794921875" lon="1.4735622145235538482666015625">
        <ele>-142.399993896484375</ele>
        <time>2025-09-06T09:44:14.000Z</time>
        <extensions>
          <ns3:TrackPointExtension>
            <ns3:hr>150</ns3:hr>
            <ns3:cad>78</ns3:cad>
          </ns3:TrackPointExtension>
        </extensions>
      </trkpt>
      <trkpt lat="52.14277130551636219024658203125" lon="1.4735950715839862823486328125">
        <ele>-142.600006103515625</ele>
        <time>2025-09-06T09:44:15.000Z</time>
        <extensions>
          <ns3:TrackPointExtension>
            <ns3:hr>150</ns3:hr>
            <ns3:cad>79</ns3:cad>
          </ns3:TrackPointExtension>
        </extensions>
      </trkpt>
      <trkpt lat="52.14284691028296947479248046875" lon="1.47377737797796726226806640625">
        <ele>-143.600006103515625</ele>
        <time>2025-09-06T09:44:21.000Z</time>
        <extensions>
          <ns3:TrackPointExtension>
            <ns3:hr>150</ns3:hr>
            <ns3:cad>79</ns3:cad>
          </ns3:TrackPointExtension>
        </extensions>
      </trkpt>
      <trkpt lat="52.14285763911902904510498046875" lon="1.4738012664020061492919921875">
        <ele>-143.8000030517578125</ele>
        <time>2025-09-06T09:44:22.000Z</time>
        <extensions>
          <ns3:TrackPointExtension>
            <ns3:hr>151</ns3:hr>
            <ns3:cad>79</ns3:cad>
          </ns3:TrackPointExtension>
        </extensions>
      </trkpt>
      <trkpt lat="52.14289351366460323333740234375" lon="1.4738596044480800628662109375">
        <ele>-144.1999969482421875</ele>
        <time>2025-09-06T09:44:25.000Z</time>
        <extensions>
          <ns3:TrackPointExtension>
            <ns3:hr>148</ns3:hr>
            <ns3:cad>76</ns3:cad>
          </ns3:TrackPointExtension>
        </extensions>
      </trkpt>
      <trkpt lat="52.14291614480316638946533203125" lon="1.4739182777702808380126953125">
        <ele>-144.600006103515625</ele>
        <time>2025-09-06T09:44:28.000Z</time>
        <extensions>
          <ns3:TrackPointExtension>
            <ns3:hr>148</ns3:hr>
            <ns3:cad>75</ns3:cad>
          </ns3:TrackPointExtension>
        </extensions>
      </trkpt>
      <trkpt lat="52.14292435906827449798583984375" lon="1.4739382266998291015625">
        <ele>-144.8000030517578125</ele>
        <time>2025-09-06T09:44:29.000Z</time>
        <extensions>
          <ns3:TrackPointExtension>
            <ns3:hr>147</ns3:hr>
            <ns3:cad>75</ns3:cad>
          </ns3:TrackPointExtension>
        </extensions>
      </trkpt>
      <trkpt lat="52.14298604987561702728271484375" lon="1.47411860525608062744140625">
        <ele>-145.8000030517578125</ele>
        <time>2025-09-06T09:44:36.000Z</time>
        <extensions>
          <ns3:TrackPointExtension>
            <ns3:hr>151</ns3:hr>
            <ns3:cad>79</ns3:cad>
          </ns3:TrackPointExtension>
        </extensions>
      </trkpt>
      <trkpt lat="52.1430590562522411346435546875" lon="1.47423838265240192413330078125">
        <ele>-146.399993896484375</ele>
        <time>2025-09-06T09:44:42.000Z</time>
        <extensions>
          <ns3:TrackPointExtension>
            <ns3:hr>151</ns3:hr>
            <ns3:cad>0</ns3:cad>
          </ns3:TrackPointExtension>
        </extensions>
      </trkpt>
      <trkpt lat="52.14306584559381008148193359375" lon="1.47425950504839420318603515625">
        <ele>-146.8000030517578125</ele>
        <time>2025-09-06T09:44:45.000Z</time>
        <extensions>
          <ns3:TrackPointExtension>
            <ns3:hr>152</ns3:hr>
            <ns3:cad>0</ns3:cad>
          </ns3:TrackPointExtension>
        </extensions>
      </trkpt>
      <trkpt lat="52.1430815197527408599853515625" lon="1.4743112213909626007080078125">
        <ele>-147</ele>
        <time>2025-09-06T09:44:48.000Z</time>
        <extensions>
          <ns3:TrackPointExtension>
            <ns3:hr>152</ns3:hr>
            <ns3:cad>54</ns3:cad>
          </ns3:TrackPointExtension>
        </extensions>
      </trkpt>
      <trkpt lat="52.14316810481250286102294921875" lon="1.47446083836257457733154296875">
        <ele>-147.600006103515625</ele>
        <time>2025-09-06T09:44:55.000Z</time>
        <extensions>
          <ns3:TrackPointExtension>
            <ns3:hr>151</ns3:hr>
            <ns3:cad>76</ns3:cad>
          </ns3:TrackPointExtension>
        </extensions>
      </trkpt>
      <trkpt lat="52.14319325052201747894287109375" lon="1.4745160751044750213623046875">
        <ele>-147.8000030517578125</ele>
        <time>2025-09-06T09:44:57.000Z</time>
        <extensions>
          <ns3:TrackPointExtension>
            <ns3:hr>152</ns3:hr>
            <ns3:cad>76</ns3:cad>
          </ns3:TrackPointExtension>
        </extensions>
      </trkpt>
      <trkpt lat="52.1432578749954700469970703125" lon="1.47466443479061126708984375">
        <ele>-148.1999969482421875</ele>
        <time>2025-09-06T09:45:02.000Z</time>
        <extensions>
          <ns3:TrackPointExtension>
            <ns3:hr>153</ns3:hr>
            <ns3:cad>78</ns3:cad>
          </ns3:TrackPointExtension>
        </extensions>
      </trkpt>
      <trkpt lat="52.14331847615540027618408203125" lon="1.47477096877992153167724609375">
        <ele>-148.399993896484375</ele>
        <time>2025-09-06T09:45:06.000Z</time>
        <extensions>
          <ns3:TrackPointExtension>
            <ns3:hr>156</ns3:hr>
            <ns3:cad>79</ns3:cad>
          </ns3:TrackPointExtension>
        </extensions>
      </trkpt>
      <trkpt lat="52.14335217140614986419677734375" lon="1.4748443104326725006103515625">
        <ele>-148.399993896484375</ele>
        <time>2025-09-06T09:45:09.000Z</time>
        <extensions>
          <ns3:TrackPointExtension>
            <ns3:hr>156</ns3:hr>
            <ns3:cad>79</ns3:cad>
          </ns3:TrackPointExtension>
        </extensions>
      </trkpt>
      <trkpt lat="52.14343297295272350311279296875" lon="1.47499761544167995452880859375">
        <ele>-148.8000030517578125</ele>
        <time>2025-09-06T09:45:15.000Z</time>
        <extensions>
          <ns3:TrackPointExtension>
            <ns3:hr>156</ns3:hr>
            <ns3:cad>79</ns3:cad>
          </ns3:TrackPointExtension>
        </extensions>
      </trkpt>
      <trkpt lat="52.143445797264575958251953125" lon="1.475024186074733734130859375">
        <ele>-148.8000030517578125</ele>
        <time>2025-09-06T09:45:16.000Z</time>
        <extensions>
          <ns3:TrackPointExtension>
            <ns3:hr>157</ns3:hr>
            <ns3:cad>79</ns3:cad>
          </ns3:TrackPointExtension>
        </extensions>
      </trkpt>
      <trkpt lat="52.14351109229028224945068359375" lon="1.47513977251946926116943359375">
        <ele>-149.1999969482421875</ele>
        <time>2025-09-06T09:45:21.000Z</time>
        <extensions>
          <ns3:TrackPointExtension>
            <ns3:hr>157</ns3:hr>
            <ns3:cad>81</ns3:cad>
          </ns3:TrackPointExtension>
        </extensions>
      </trkpt>
      <trkpt lat="52.14361435733735561370849609375" lon="1.47520892322063446044921875">
        <ele>-149.600006103515625</ele>
        <time>2025-09-06T09:45:27.000Z</time>
        <extensions>
          <ns3:TrackPointExtension>
            <ns3:hr>155</ns3:hr>
            <ns3:cad>79</ns3:cad>
          </ns3:TrackPointExtension>
        </extensions>
      </trkpt>
      <trkpt lat="52.143673785030841827392578125" lon="1.4752667583525180816650390625">
        <ele>-150</ele>
        <time>2025-09-06T09:45:31.000Z</time>
        <extensions>
          <ns3:TrackPointExtension>
            <ns3:hr>152</ns3:hr>
            <ns3:cad>78</ns3:cad>
          </ns3:TrackPointExtension>
        </extensions>
      </trkpt>
      <trkpt lat="52.14373044669628143310546875" lon="1.47533096373081207275390625">
        <ele>-150.1999969482421875</ele>
        <time>2025-09-06T09:45:35.000Z</time>
        <extensions>
          <ns3:TrackPointExtension>
            <ns3:hr>154</ns3:hr>
            <ns3:cad>77</ns3:cad>
          </ns3:TrackPointExtension>
        </extensions>
      </trkpt>
      <trkpt lat="52.1438209712505340576171875" lon="1.47549851797521114349365234375">
        <ele>-150.600006103515625</ele>
        <time>2025-09-06T09:45:43.000Z</time>
        <extensions>
          <ns3:TrackPointExtension>
            <ns3:hr>156</ns3:hr>
            <ns3:cad>79</ns3:cad>
          </ns3:TrackPointExtension>
        </extensions>
      </trkpt>
      <trkpt lat="52.14384754188358783721923828125" lon="1.47560765035450458526611328125">
        <ele>-150.8000030517578125</ele>
        <time>2025-09-06T09:45:47.000Z</time>
        <extensions>
          <ns3:TrackPointExtension>
            <ns3:hr>155</ns3:hr>
            <ns3:cad>76</ns3:cad>
          </ns3:TrackPointExtension>
        </extensions>
      </trkpt>
      <trkpt lat="52.1438704244792461395263671875" lon="1.47564520128071308135986328125">
        <ele>-151</ele>
        <time>2025-09-06T09:45:49.000Z</time>
        <extensions>
          <ns3:TrackPointExtension>
            <ns3:hr>155</ns3:hr>
            <ns3:cad>77</ns3:cad>
          </ns3:TrackPointExtension>
        </extensions>
      </trkpt>
      <trkpt lat="52.1438845060765743255615234375" lon="1.475670598447322845458984375">
        <ele>-151</ele>
        <time>2025-09-06T09:45:50.000Z</time>
        <extensions>
          <ns3:TrackPointExtension>
            <ns3:hr>155</ns3:hr>
            <ns3:cad>77</ns3:cad>
          </ns3:TrackPointExtension>
        </extensions>
      </trkpt>
      <trkpt lat="52.143975198268890380859375" lon="1.4757921360433101654052734375">
        <ele>-151.1999969482421875</ele>
        <time>2025-09-06T09:45:56.000Z</time>
        <extensions>
          <ns3:TrackPointExtension>
            <ns3:hr>153</ns3:hr>
            <ns3:cad>78</ns3:cad>
          </ns3:TrackPointExtension>
        </extensions>
      </trkpt>
      <trkpt lat="52.144060023128986358642578125" lon="1.47590755484998226165771484375">
        <ele>-151.399993896484375</ele>
        <time>2025-09-06T09:46:01.000Z</time>
        <extensions>
          <ns3:TrackPointExtension>
            <ns3:hr>156</ns3:hr>
            <ns3:cad>79</ns3:cad>
          </ns3:TrackPointExtension>
        </extensions>
      </trkpt>
      <trkpt lat="52.14409849606454372406005859375" lon="1.47595784626901149749755859375">
        <ele>-151.399993896484375</ele>
        <time>2025-09-06T09:46:03.000Z</time>
        <extensions>
          <ns3:TrackPointExtension>
            <ns3:hr>155</ns3:hr>
            <ns3:cad>79</ns3:cad>
          </ns3:TrackPointExtension>
        </extensions>
      </trkpt>
      <trkpt lat="52.14415884576737880706787109375" lon="1.47608659230172634124755859375">
        <ele>-151.600006103515625</ele>
        <time>2025-09-06T09:46:08.000Z</time>
        <extensions>
          <ns3:TrackPointExtension>
            <ns3:hr>152</ns3:hr>
            <ns3:cad>75</ns3:cad>
          </ns3:TrackPointExtension>
        </extensions>
      </trkpt>
      <trkpt lat="52.14416806586086750030517578125" lon="1.47612498141825199127197265625">
        <ele>-151.600006103515625</ele>
        <time>2025-09-06T09:46:10.000Z</time>
        <extensions>
          <ns3:TrackPointExtension>
            <ns3:hr>152</ns3:hr>
            <ns3:cad>76</ns3:cad>
          </ns3:TrackPointExtension>
        </extensions>
      </trkpt>
      <trkpt lat="52.14420787990093231201171875" lon="1.47617694921791553497314453125">
        <ele>-151.8000030517578125</ele>
        <time>2025-09-06T09:46:13.000Z</time>
        <extensions>
          <ns3:TrackPointExtension>
            <ns3:hr>155</ns3:hr>
            <ns3:cad>78</ns3:cad>
          </ns3:TrackPointExtension>
        </extensions>
      </trkpt>
      <trkpt lat="52.14422724209725856781005859375" lon="1.4761870913207530975341796875">
        <ele>-151.8000030517578125</ele>
        <time>2025-09-06T09:46:14.000Z</time>
        <extensions>
          <ns3:TrackPointExtension>
            <ns3:hr>158</ns3:hr>
            <ns3:cad>78</ns3:cad>
          </ns3:TrackPointExtension>
        </extensions>
      </trkpt>
      <trkpt lat="52.1442811377346515655517578125" lon="1.47622941993176937103271484375">
        <ele>-151.8000030517578125</ele>
        <time>2025-09-06T09:46:17.000Z</time>
        <extensions>
          <ns3:TrackPointExtension>
            <ns3:hr>160</ns3:hr>
            <ns3:cad>77</ns3:cad>
          </ns3:TrackPointExtension>
        </extensions>
      </trkpt>
      <trkpt lat="52.14436520822346210479736328125" lon="1.47630133666098117828369140625">
        <ele>-152</ele>
        <time>2025-09-06T09:46:22.000Z</time>
        <extensions>
          <ns3:TrackPointExtension>
            <ns3:hr>163</ns3:hr>
            <ns3:cad>79</ns3:cad>
          </ns3:TrackPointExtension>
        </extensions>
      </trkpt>
      <trkpt lat="52.14441114105284214019775390625" lon="1.4763423241674900054931640625">
        <ele>-152</ele>
        <time>2025-09-06T09:46:25.000Z</time>
        <extensions>
          <ns3:TrackPointExtension>
            <ns3:hr>161</ns3:hr>
            <ns3:cad>78</ns3:cad>
          </ns3:TrackPointExtension>
        </extensions>
      </trkpt>
      <trkpt lat="52.14442321099340915679931640625" lon="1.4763577468693256378173828125">
        <ele>-152</ele>
        <time>2025-09-06T09:46:26.000Z</time>
        <extensions>
          <ns3:TrackPointExtension>
            <ns3:hr>160</ns3:hr>
            <ns3:cad>76</ns3:cad>
          </ns3:TrackPointExtension>
        </extensions>
      </trkpt>
      <trkpt lat="52.14450350962579250335693359375" lon="1.4765729941427707672119140625">
        <ele>-152.1999969482421875</ele>
        <time>2025-09-06T09:46:33.000Z</time>
        <extensions>
          <ns3:TrackPointExtension>
            <ns3:hr>161</ns3:hr>
            <ns3:cad>78</ns3:cad>
          </ns3:TrackPointExtension>
        </extensions>
      </trkpt>
      <trkpt lat="52.14458514936268329620361328125" lon="1.4768041670322418212890625">
        <ele>-152.1999969482421875</ele>
        <time>2025-09-06T09:46:40.000Z</time>
        <extensions>
          <ns3:TrackPointExtension>
            <ns3:hr>159</ns3:hr>
            <ns3:cad>78</ns3:cad>
          </ns3:TrackPointExtension>
        </extensions>
      </trkpt>
      <trkpt lat="52.14464642107486724853515625" lon="1.47703642956912517547607421875">
        <ele>-152.399993896484375</ele>
        <time>2025-09-06T09:46:49.000Z</time>
        <extensions>
          <ns3:TrackPointExtension>
            <ns3:hr>159</ns3:hr>
            <ns3:cad>77</ns3:cad>
          </ns3:TrackPointExtension>
        </extensions>
      </trkpt>
      <trkpt lat="52.1446670405566692352294921875" lon="1.47707968018949031829833984375">
        <ele>-152.399993896484375</ele>
        <time>2025-09-06T09:46:51.000Z</time>
        <extensions>
          <ns3:TrackPointExtension>
            <ns3:hr>156</ns3:hr>
            <ns3:cad>76</ns3:cad>
          </ns3:TrackPointExtension>
        </extensions>
      </trkpt>
      <trkpt lat="52.1447275578975677490234375" lon="1.47716249339282512664794921875">
        <ele>-152.600006103515625</ele>
        <time>2025-09-06T09:46:56.000Z</time>
        <extensions>
          <ns3:TrackPointExtension>
            <ns3:hr>159</ns3:hr>
            <ns3:cad>78</ns3:cad>
          </ns3:TrackPointExtension>
        </extensions>
      </trkpt>
      <trkpt lat="52.14474021457135677337646484375" lon="1.47721077315509319305419921875">
        <ele>-152.600006103515625</ele>
        <time>2025-09-06T09:46:58.000Z</time>
        <extensions>
          <ns3:TrackPointExtension>
            <ns3:hr>159</ns3:hr>
            <ns3:cad>77</ns3:cad>
          </ns3:TrackPointExtension>
        </extensions>
      </trkpt>
      <trkpt lat="52.1448531188070774078369140625" lon="1.4774540998041629791259765625">
        <ele>-152.600006103515625</ele>
        <time>2025-09-06T09:47:07.000Z</time>
        <extensions>
          <ns3:TrackPointExtension>
            <ns3:hr>161</ns3:hr>
            <ns3:cad>77</ns3:cad>
          </ns3:TrackPointExtension>
        </extensions>
      </trkpt>
      <trkpt lat="52.14496250264346599578857421875" lon="1.47763607092201709747314453125">
        <ele>-152.600006103515625</ele>
        <time>2025-09-06T09:47:15.000Z</time>
        <extensions>
          <ns3:TrackPointExtension>
            <ns3:hr>160</ns3:hr>
            <ns3:cad>77</ns3:cad>
          </ns3:TrackPointExtension>
        </extensions>
      </trkpt>
      <trkpt lat="52.1450489200651645660400390625" lon="1.4778661541640758514404296875">
        <ele>-152.600006103515625</ele>
        <time>2025-09-06T09:47:24.000Z</time>
        <extensions>
          <ns3:TrackPointExtension>
            <ns3:hr>159</ns3:hr>
            <ns3:cad>77</ns3:cad>
          </ns3:TrackPointExtension>
        </extensions>
      </trkpt>
      <trkpt lat="52.1450995467603206634521484375" lon="1.47795810364186763763427734375">
        <ele>-152.600006103515625</ele>
        <time>2025-09-06T09:47:28.000Z</time>
        <extensions>
          <ns3:TrackPointExtension>
            <ns3:hr>162</ns3:hr>
            <ns3:cad>78</ns3:cad>
          </ns3:TrackPointExtension>
        </extensions>
      </trkpt>
      <trkpt lat="52.14514858089387416839599609375" lon="1.47809372283518314361572265625">
        <ele>-152.600006103515625</ele>
        <time>2025-09-06T09:47:33.000Z</time>
        <extensions>
          <ns3:TrackPointExtension>
            <ns3:hr>164</ns3:hr>
            <ns3:cad>79</ns3:cad>
          </ns3:TrackPointExtension>
        </extensions>
      </trkpt>
      <trkpt lat="52.145245559513568878173828125" lon="1.4782966487109661102294921875">
        <ele>-152.600006103515625</ele>
        <time>2025-09-06T09:47:39.000Z</time>
        <extensions>
          <ns3:TrackPointExtension>
            <ns3:hr>164</ns3:hr>
            <ns3:cad>80</ns3:cad>
          </ns3:TrackPointExtension>
        </extensions>
      </trkpt>
      <trkpt lat="52.145364917814731597900390625" lon="1.47847275249660015106201171875">
        <ele>-152.600006103515625</ele>
        <time>2025-09-06T09:47:47.000Z</time>
        <extensions>
          <ns3:TrackPointExtension>
            <ns3:hr>163</ns3:hr>
            <ns3:cad>79</ns3:cad>
          </ns3:TrackPointExtension>
        </extensions>
      </trkpt>
      <trkpt lat="52.14548318646848201751708984375" lon="1.47871834225952625274658203125">
        <ele>-152.8000030517578125</ele>
        <time>2025-09-06T09:47:56.000Z</time>
        <extensions>
          <ns3:TrackPointExtension>
            <ns3:hr>164</ns3:hr>
            <ns3:cad>77</ns3:cad>
          </ns3:TrackPointExtension>
        </extensions>
      </trkpt>
      <trkpt lat="52.1455300413072109222412109375" lon="1.47884759120643138885498046875">
        <ele>-152.8000030517578125</ele>
        <time>2025-09-06T09:48:00.000Z</time>
        <extensions>
          <ns3:TrackPointExtension>
            <ns3:hr>161</ns3:hr>
            <ns3:cad>77</ns3:cad>
          </ns3:TrackPointExtension>
        </extensions>
      </trkpt>
      <trkpt lat="52.1455778181552886962890625" lon="1.47891104221343994140625">
        <ele>-152.8000030517578125</ele>
        <time>2025-09-06T09:48:02.000Z</time>
        <extensions>
          <ns3:TrackPointExtension>
            <ns3:hr>161</ns3:hr>
            <ns3:cad>75</ns3:cad>
          </ns3:TrackPointExtension>
        </extensions>
      </trkpt>
      <trkpt lat="52.145621068775653839111328125" lon="1.478972397744655609130859375">
        <ele>-153</ele>
        <time>2025-09-06T09:48:05.000Z</time>
        <extensions>
          <ns3:TrackPointExtension>
            <ns3:hr>161</ns3:hr>
            <ns3:cad>75</ns3:cad>
          </ns3:TrackPointExtension>
        </extensions>
      </trkpt>
      <trkpt lat="52.14564286172389984130859375" lon="1.47899662144482135772705078125">
        <ele>-153.1999969482421875</ele>
        <time>2025-09-06T09:48:08.000Z</time>
        <extensions>
          <ns3:TrackPointExtension>
            <ns3:hr>160</ns3:hr>
            <ns3:cad>55</ns3:cad>
          </ns3:TrackPointExtension>
        </extensions>
      </trkpt>
      <trkpt lat="52.14565518312156200408935546875" lon="1.47906593978404998779296875">
        <ele>-153.600006103515625</ele>
        <time>2025-09-06T09:48:15.000Z</time>
        <extensions>
          <ns3:TrackPointExtension>
            <ns3:hr>161</ns3:hr>
            <ns3:cad>0</ns3:cad>
          </ns3:TrackPointExtension>
        </extensions>
      </trkpt>
      <trkpt lat="52.145660631358623504638671875" lon="1.47907407023012638092041015625">
        <ele>-154.1999969482421875</ele>
        <time>2025-09-06T09:48:19.000Z</time>
        <extensions>
          <ns3:TrackPointExtension>
            <ns3:hr>162</ns3:hr>
            <ns3:cad>0</ns3:cad>
          </ns3:TrackPointExtension>
        </extensions>
      </trkpt>
      <trkpt lat="52.1456601284444332122802734375" lon="1.47907130420207977294921875">
        <ele>-154.399993896484375</ele>
        <time>2025-09-06T09:48:21.000Z</time>
        <extensions>
          <ns3:TrackPointExtension>
            <ns3:hr>159</ns3:hr>
            <ns3:cad>0</ns3:cad>
          </ns3:TrackPointExtension>
        </extensions>
      </trkpt>
      <trkpt lat="52.14566054753959178924560546875" lon="1.47906987927854061126708984375">
        <ele>-154.399993896484375</ele>
        <time>2025-09-06T09:48:22.000Z</time>
        <extensions>
          <ns3:TrackPointExtension>
            <ns3:hr>157</ns3:hr>
            <ns3:cad>0</ns3:cad>
          </ns3:TrackPointExtension>
        </extensions>
      </trkpt>
      <trkpt lat="52.14569189585745334625244140625" lon="1.4790798537433147430419921875">
        <ele>-155.1999969482421875</ele>
        <time>2025-09-06T09:48:27.000Z</time>
        <extensions>
          <ns3:TrackPointExtension>
            <ns3:hr>156</ns3:hr>
            <ns3:cad>0</ns3:cad>
          </ns3:TrackPointExtension>
        </extensions>
      </trkpt>
      <trkpt lat="52.14570396579802036285400390625" lon="1.479097791016101837158203125">
        <ele>-155.399993896484375</ele>
        <time>2025-09-06T09:48:29.000Z</time>
        <extensions>
          <ns3:TrackPointExtension>
            <ns3:hr>154</ns3:hr>
            <ns3:cad>0</ns3:cad>
          </ns3:TrackPointExtension>
        </extensions>
      </trkpt>
      <trkpt lat="52.1457248367369174957275390625" lon="1.47922276519238948822021484375">
        <ele>-156.1999969482421875</ele>
        <time>2025-09-06T09:48:34.000Z</time>
        <extensions>
          <ns3:TrackPointExtension>
            <ns3:hr>155</ns3:hr>
            <ns3:cad>57</ns3:cad>
          </ns3:TrackPointExtension>
        </extensions>
      </trkpt>
      <trkpt lat="52.14572743512690067291259765625" lon="1.47925662808120250701904296875">
        <ele>-156.399993896484375</ele>
        <time>2025-09-06T09:48:35.000Z</time>
        <extensions>
          <ns3:TrackPointExtension>
            <ns3:hr>157</ns3:hr>
            <ns3:cad>78</ns3:cad>
          </ns3:TrackPointExtension>
        </extensions>
      </trkpt>
      <trkpt lat="52.14572592638432979583740234375" lon="1.4792964421212673187255859375">
        <ele>-156.399993896484375</ele>
        <time>2025-09-06T09:48:36.000Z</time>
        <extensions>
          <ns3:TrackPointExtension>
            <ns3:hr>154</ns3:hr>
            <ns3:cad>78</ns3:cad>
          </ns3:TrackPointExtension>
        </extensions>
      </trkpt>
      <trkpt lat="52.14571972377598285675048828125" lon="1.4794952608644962310791015625">
        <ele>-157</ele>
        <time>2025-09-06T09:48:41.000Z</time>
        <extensions>
          <ns3:TrackPointExtension>
            <ns3:hr>156</ns3:hr>
            <ns3:cad>78</ns3:cad>
          </ns3:TrackPointExtension>
        </extensions>
      </trkpt>
      <trkpt lat="52.1457151137292385101318359375" lon="1.4795951731503009796142578125">
        <ele>-157.1999969482421875</ele>
        <time>2025-09-06T09:48:44.000Z</time>
        <extensions>
          <ns3:TrackPointExtension>
            <ns3:hr>159</ns3:hr>
            <ns3:cad>79</ns3:cad>
          </ns3:TrackPointExtension>
        </extensions>
      </trkpt>
      <trkpt lat="52.1457167901098728179931640625" lon="1.4796491526067256927490234375">
        <ele>-157.1999969482421875</ele>
        <time>2025-09-06T09:48:46.000Z</time>
        <extensions>
          <ns3:TrackPointExtension>
            <ns3:hr>161</ns3:hr>
            <ns3:cad>79</ns3:cad>
          </ns3:TrackPointExtension>
        </extensions>
      </trkpt>
      <trkpt lat="52.14570027776062488555908203125" lon="1.479736827313899993896484375">
        <ele>-157.1999969482421875</ele>
        <time>2025-09-06T09:48:49.000Z</time>
        <extensions>
          <ns3:TrackPointExtension>
            <ns3:hr>163</ns3:hr>
            <ns3:cad>79</ns3:cad>
          </ns3:TrackPointExtension>
        </extensions>
      </trkpt>
      <trkpt lat="52.14566842652857303619384765625" lon="1.47997613064944744110107421875">
        <ele>-157.1999969482421875</ele>
        <time>2025-09-06T09:48:56.000Z</time>
        <extensions>
          <ns3:TrackPointExtension>
            <ns3:hr>164</ns3:hr>
            <ns3:cad>79</ns3:cad>
          </ns3:TrackPointExtension>
        </extensions>
      </trkpt>
      <trkpt lat="52.1456141956150531768798828125" lon="1.48022658191621303558349609375">
        <ele>-157.1999969482421875</ele>
        <time>2025-09-06T09:49:02.000Z</time>
        <extensions>
          <ns3:TrackPointExtension>
            <ns3:hr>165</ns3:hr>
            <ns3:cad>79</ns3:cad>
          </ns3:TrackPointExtension>
        </extensions>
      </trkpt>
      <trkpt lat="52.14560338295996189117431640625" lon="1.480438895523548126220703125">
        <ele>-157.1999969482421875</ele>
        <time>2025-09-06T09:49:08.000Z</time>
        <extensions>
          <ns3:TrackPointExtension>
            <ns3:hr>165</ns3:hr>
            <ns3:cad>79</ns3:cad>
          </ns3:TrackPointExtension>
        </extensions>
      </trkpt>
      <trkpt lat="52.14560137130320072174072265625" lon="1.48067124187946319580078125">
        <ele>-157</ele>
        <time>2025-09-06T09:49:16.000Z</time>
        <extensions>
          <ns3:TrackPointExtension>
            <ns3:hr>163</ns3:hr>
            <ns3:cad>80</ns3:cad>
          </ns3:TrackPointExtension>
        </extensions>
      </trkpt>
      <trkpt lat="52.1456074900925159454345703125" lon="1.4808745868504047393798828125">
        <ele>-156.8000030517578125</ele>
        <time>2025-09-06T09:49:22.000Z</time>
        <extensions>
          <ns3:TrackPointExtension>
            <ns3:hr>163</ns3:hr>
            <ns3:cad>78</ns3:cad>
          </ns3:TrackPointExtension>
        </extensions>
      </trkpt>
      <trkpt lat="52.1456333063542842864990234375" lon="1.48110467009246349334716796875">
        <ele>-156.399993896484375</ele>
        <time>2025-09-06T09:49:29.000Z</time>
        <extensions>
          <ns3:TrackPointExtension>
            <ns3:hr>161</ns3:hr>
            <ns3:cad>79</ns3:cad>
          </ns3:TrackPointExtension>
        </extensions>
      </trkpt>
      <trkpt lat="52.14564814232289791107177734375" lon="1.4812625013291835784912109375">
        <ele>-156.1999969482421875</ele>
        <time>2025-09-06T09:49:34.000Z</time>
        <extensions>
          <ns3:TrackPointExtension>
            <ns3:hr>163</ns3:hr>
            <ns3:cad>79</ns3:cad>
          </ns3:TrackPointExtension>
        </extensions>
      </trkpt>
      <trkpt lat="52.145651243627071380615234375" lon="1.4813835360109806060791015625">
        <ele>-156.1999969482421875</ele>
        <time>2025-09-06T09:49:38.000Z</time>
        <extensions>
          <ns3:TrackPointExtension>
            <ns3:hr>165</ns3:hr>
            <ns3:cad>79</ns3:cad>
          </ns3:TrackPointExtension>
        </extensions>
      </trkpt>
      <trkpt lat="52.1456363238394260406494140625" lon="1.48157179355621337890625">
        <ele>-156</ele>
        <time>2025-09-06T09:49:44.000Z</time>
        <extensions>
          <ns3:TrackPointExtension>
            <ns3:hr>166</ns3:hr>
            <ns3:cad>80</ns3:cad>
          </ns3:TrackPointExtension>
        </extensions>
      </trkpt>
      <trkpt lat="52.145653255283832550048828125" lon="1.48169911466538906097412109375">
        <ele>-155.8000030517578125</ele>
        <time>2025-09-06T09:49:50.000Z</time>
        <extensions>
          <ns3:TrackPointExtension>
            <ns3:hr>163</ns3:hr>
            <ns3:cad>73</ns3:cad>
          </ns3:TrackPointExtension>
        </extensions>
      </trkpt>
      <trkpt lat="52.14565769769251346588134765625" lon="1.48170783184468746185302734375">
        <ele>-155.8000030517578125</ele>
        <time>2025-09-06T09:49:51.000Z</time>
        <extensions>
          <ns3:TrackPointExtension>
            <ns3:hr>165</ns3:hr>
            <ns3:cad>73</ns3:cad>
          </ns3:TrackPointExtension>
        </extensions>
      </trkpt>
      <trkpt lat="52.14566029608249664306640625" lon="1.4817919023334980010986328125">
        <ele>-156</ele>
        <time>2025-09-06T09:49:56.000Z</time>
        <extensions>
          <ns3:TrackPointExtension>
            <ns3:hr>164</ns3:hr>
            <ns3:cad>0</ns3:cad>
          </ns3:TrackPointExtension>
        </extensions>
      </trkpt>
      <trkpt lat="52.14563624002039432525634765625" lon="1.48205433972179889678955078125">
        <ele>-156.1999969482421875</ele>
        <time>2025-09-06T09:50:04.000Z</time>
        <extensions>
          <ns3:TrackPointExtension>
            <ns3:hr>163</ns3:hr>
            <ns3:cad>79</ns3:cad>
          </ns3:TrackPointExtension>
        </extensions>
      </trkpt>
      <trkpt lat="52.1455860324203968048095703125" lon="1.48236094973981380462646484375">
        <ele>-156.1999969482421875</ele>
        <time>2025-09-06T09:50:12.000Z</time>
        <extensions>
          <ns3:TrackPointExtension>
            <ns3:hr>164</ns3:hr>
            <ns3:cad>79</ns3:cad>
          </ns3:TrackPointExtension>
        </extensions>
      </trkpt>
      <trkpt lat="52.14555971324443817138671875" lon="1.482543088495731353759765625">
        <ele>-156.399993896484375</ele>
        <time>2025-09-06T09:50:18.000Z</time>
        <extensions>
          <ns3:TrackPointExtension>
            <ns3:hr>163</ns3:hr>
            <ns3:cad>78</ns3:cad>
          </ns3:TrackPointExtension>
        </extensions>
      </trkpt>
      <trkpt lat="52.14554571546614170074462890625" lon="1.48282371461391448974609375">
        <ele>-156.600006103515625</ele>
        <time>2025-09-06T09:50:27.000Z</time>
        <extensions>
          <ns3:TrackPointExtension>
            <ns3:hr>162</ns3:hr>
            <ns3:cad>77</ns3:cad>
          </ns3:TrackPointExtension>
        </extensions>
      </trkpt>
      <trkpt lat="52.1455134451389312744140625" lon="1.48301708512008190155029296875">
        <ele>-156.600006103515625</ele>
        <time>2025-09-06T09:50:34.000Z</time>
        <extensions>
          <ns3:TrackPointExtension>
            <ns3:hr>163</ns3:hr>
            <ns3:cad>77</ns3:cad>
          </ns3:TrackPointExtension>
        </extensions>
      </trkpt>
      <trkpt lat="52.1455012075603008270263671875" lon="1.48305036127567291259765625">
        <ele>-156.600006103515625</ele>
        <time>2025-09-06T09:50:35.000Z</time>
        <extensions>
          <ns3:TrackPointExtension>
            <ns3:hr>160</ns3:hr>
            <ns3:cad>77</ns3:cad>
          </ns3:TrackPointExtension>
        </extensions>
      </trkpt>
      <trkpt lat="52.145477235317230224609375" lon="1.48321875371038913726806640625">
        <ele>-156.8000030517578125</ele>
        <time>2025-09-06T09:50:40.000Z</time>
        <extensions>
          <ns3:TrackPointExtension>
            <ns3:hr>160</ns3:hr>
            <ns3:cad>77</ns3:cad>
          </ns3:TrackPointExtension>
        </extensions>
      </trkpt>
      <trkpt lat="52.1454968489706516265869140625" lon="1.483475156128406524658203125">
        <ele>-157</ele>
        <time>2025-09-06T09:50:47.000Z</time>
        <extensions>
          <ns3:TrackPointExtension>
            <ns3:hr>160</ns3:hr>
            <ns3:cad>78</ns3:cad>
          </ns3:TrackPointExtension>
        </extensions>
      </trkpt>
      <trkpt lat="52.1454804204404354095458984375" lon="1.48362158797681331634521484375">
        <ele>-157.1999969482421875</ele>
        <time>2025-09-06T09:50:51.000Z</time>
        <extensions>
          <ns3:TrackPointExtension>
            <ns3:hr>164</ns3:hr>
            <ns3:cad>79</ns3:cad>
          </ns3:TrackPointExtension>
        </extensions>
      </trkpt>
      <trkpt lat="52.14546876959502696990966796875" lon="1.483689732849597930908203125">
        <ele>-157.1999969482421875</ele>
        <time>2025-09-06T09:50:53.000Z</time>
        <extensions>
          <ns3:TrackPointExtension>
            <ns3:hr>162</ns3:hr>
            <ns3:cad>79</ns3:cad>
          </ns3:TrackPointExtension>
        </extensions>
      </trkpt>
      <trkpt lat="52.1454666741192340850830078125" lon="1.48372066207230091094970703125">
        <ele>-157.1999969482421875</ele>
        <time>2025-09-06T09:50:54.000Z</time>
        <extensions>
          <ns3:TrackPointExtension>
            <ns3:hr>161</ns3:hr>
            <ns3:cad>79</ns3:cad>
          </ns3:TrackPointExtension>
        </extensions>
      </trkpt>
      <trkpt lat="52.1454737149178981781005859375" lon="1.48393976502120494842529296875">
        <ele>-157.399993896484375</ele>
        <time>2025-09-06T09:51:01.000Z</time>
        <extensions>
          <ns3:TrackPointExtension>
            <ns3:hr>161</ns3:hr>
            <ns3:cad>78</ns3:cad>
          </ns3:TrackPointExtension>
        </extensions>
      </trkpt>
      <trkpt lat="52.14552107267081737518310546875" lon="1.48415601812303066253662109375">
        <ele>-157.399993896484375</ele>
        <time>2025-09-06T09:51:07.000Z</time>
        <extensions>
          <ns3:TrackPointExtension>
            <ns3:hr>166</ns3:hr>
            <ns3:cad>80</ns3:cad>
          </ns3:TrackPointExtension>
        </extensions>
      </trkpt>
      <trkpt lat="52.14551436714828014373779296875" lon="1.48419340141117572784423828125">
        <ele>-157.399993896484375</ele>
        <time>2025-09-06T09:51:08.000Z</time>
        <extensions>
          <ns3:TrackPointExtension>
            <ns3:hr>166</ns3:hr>
            <ns3:cad>79</ns3:cad>
          </ns3:TrackPointExtension>
        </extensions>
      </trkpt>
      <trkpt lat="52.14551185257732868194580078125" lon="1.4842410944402217864990234375">
        <ele>-157.399993896484375</ele>
        <time>2025-09-06T09:51:10.000Z</time>
        <extensions>
          <ns3:TrackPointExtension>
            <ns3:hr>169</ns3:hr>
            <ns3:cad>79</ns3:cad>
          </ns3:TrackPointExtension>
        </extensions>
      </trkpt>
      <trkpt lat="52.145508415997028350830078125" lon="1.48432265035808086395263671875">
        <ele>-157.399993896484375</ele>
        <time>2025-09-06T09:51:13.000Z</time>
        <extensions>
          <ns3:TrackPointExtension>
            <ns3:hr>172</ns3:hr>
            <ns3:cad>78</ns3:cad>
          </ns3:TrackPointExtension>
        </extensions>
      </trkpt>
      <trkpt lat="52.1454946696758270263671875" lon="1.4844057150185108184814453125">
        <ele>-157.399993896484375</ele>
        <time>2025-09-06T09:51:15.000Z</time>
        <extensions>
          <ns3:TrackPointExtension>
            <ns3:hr>174</ns3:hr>
            <ns3:cad>78</ns3:cad>
          </ns3:TrackPointExtension>
        </extensions>
      </trkpt>
      <trkpt lat="52.1454973518848419189453125" lon="1.48465893231332302093505859375">
        <ele>-157.1999969482421875</ele>
        <time>2025-09-06T09:51:22.000Z</time>
        <extensions>
          <ns3:TrackPointExtension>
            <ns3:hr>175</ns3:hr>
            <ns3:cad>78</ns3:cad>
          </ns3:TrackPointExtension>
        </extensions>
      </trkpt>
      <trkpt lat="52.145546972751617431640625" lon="1.4850219525396823883056640625">
        <ele>-157.1999969482421875</ele>
        <time>2025-09-06T09:51:31.000Z</time>
        <extensions>
          <ns3:TrackPointExtension>
            <ns3:hr>176</ns3:hr>
            <ns3:cad>80</ns3:cad>
          </ns3:TrackPointExtension>
        </extensions>
      </trkpt>
      <trkpt lat="52.1455253474414348602294921875" lon="1.48520040325820446014404296875">
        <ele>-157.399993896484375</ele>
        <time>2025-09-06T09:51:36.000Z</time>
        <extensions>
          <ns3:TrackPointExtension>
            <ns3:hr>173</ns3:hr>
            <ns3:cad>76</ns3:cad>
          </ns3:TrackPointExtension>
        </extensions>
      </trkpt>
      <trkpt lat="52.1455082483589649200439453125" lon="1.4852583222091197967529296875">
        <ele>-157.399993896484375</ele>
        <time>2025-09-06T09:51:38.000Z</time>
        <extensions>
          <ns3:TrackPointExtension>
            <ns3:hr>172</ns3:hr>
            <ns3:cad>77</ns3:cad>
          </ns3:TrackPointExtension>
        </extensions>
      </trkpt>
      <trkpt lat="52.1454839408397674560546875" lon="1.48537022061645984649658203125">
        <ele>-157.600006103515625</ele>
        <time>2025-09-06T09:51:42.000Z</time>
        <extensions>
          <ns3:TrackPointExtension>
            <ns3:hr>175</ns3:hr>
            <ns3:cad>79</ns3:cad>
          </ns3:TrackPointExtension>
        </extensions>
      </trkpt>
      <trkpt lat="52.14546457864344120025634765625" lon="1.48549712263047695159912109375">
        <ele>-157.8000030517578125</ele>
        <time>2025-09-06T09:51:46.000Z</time>
        <extensions>
          <ns3:TrackPointExtension>
            <ns3:hr>175</ns3:hr>
            <ns3:cad>80</ns3:cad>
          </ns3:TrackPointExtension>
        </extensions>
      </trkpt>
      <trkpt lat="52.1454261057078838348388671875" lon="1.48578076623380184173583984375">
        <ele>-158</ele>
        <time>2025-09-06T09:51:54.000Z</time>
        <extensions>
          <ns3:TrackPointExtension>
            <ns3:hr>175</ns3:hr>
            <ns3:cad>79</ns3:cad>
          </ns3:TrackPointExtension>
        </extensions>
      </trkpt>
      <trkpt lat="52.14538134634494781494140625" lon="1.48594714701175689697265625">
        <ele>-158.1999969482421875</ele>
        <time>2025-09-06T09:51:58.000Z</time>
        <extensions>
          <ns3:TrackPointExtension>
            <ns3:hr>171</ns3:hr>
            <ns3:cad>79</ns3:cad>
          </ns3:TrackPointExtension>
        </extensions>
      </trkpt>
      <trkpt lat="52.14538796804845333099365234375" lon="1.48605636321008205413818359375">
        <ele>-158.1999969482421875</ele>
        <time>2025-09-06T09:52:01.000Z</time>
        <extensions>
          <ns3:TrackPointExtension>
            <ns3:hr>169</ns3:hr>
            <ns3:cad>79</ns3:cad>
          </ns3:TrackPointExtension>
        </extensions>
      </trkpt>
      <trkpt lat="52.145401127636432647705078125" lon="1.4861704409122467041015625">
        <ele>-158.399993896484375</ele>
        <time>2025-09-06T09:52:04.000Z</time>
        <extensions>
          <ns3:TrackPointExtension>
            <ns3:hr>167</ns3:hr>
            <ns3:cad>79</ns3:cad>
          </ns3:TrackPointExtension>
        </extensions>
      </trkpt>
      <trkpt lat="52.145435325801372528076171875" lon="1.48640488274395465850830078125">
        <ele>-158.600006103515625</ele>
        <time>2025-09-06T09:52:10.000Z</time>
        <extensions>
          <ns3:TrackPointExtension>
            <ns3:hr>169</ns3:hr>
            <ns3:cad>79</ns3:cad>
          </ns3:TrackPointExtension>
        </extensions>
      </trkpt>
      <trkpt lat="52.1454356610774993896484375" lon="1.486590206623077392578125">
        <ele>-159</ele>
        <time>2025-09-06T09:52:16.000Z</time>
        <extensions>
          <ns3:TrackPointExtension>
            <ns3:hr>169</ns3:hr>
            <ns3:cad>80</ns3:cad>
          </ns3:TrackPointExtension>
        </extensions>
      </trkpt>
      <trkpt lat="52.1454130299389362335205078125" lon="1.4867305196821689605712890625">
        <ele>-159.1999969482421875</ele>
        <time>2025-09-06T09:52:20.000Z</time>
        <extensions>
          <ns3:TrackPointExtension>
            <ns3:hr>167</ns3:hr>
            <ns3:cad>79</ns3:cad>
          </ns3:TrackPointExtension>
        </extensions>
      </trkpt>
      <trkpt lat="52.14540372602641582489013671875" lon="1.4867844991385936737060546875">
        <ele>-159.399993896484375</ele>
        <time>2025-09-06T09:52:22.000Z</time>
        <extensions>
          <ns3:TrackPointExtension>
            <ns3:hr>165</ns3:hr>
            <ns3:cad>79</ns3:cad>
          </ns3:TrackPointExtension>
        </extensions>
      </trkpt>
      <trkpt lat="52.1453647501766681671142578125" lon="1.48705464787781238555908203125">
        <ele>-159.8000030517578125</ele>
        <time>2025-09-06T09:52:31.000Z</time>
        <extensions>
          <ns3:TrackPointExtension>
            <ns3:hr>165</ns3:hr>
            <ns3:cad>78</ns3:cad>
          </ns3:TrackPointExtension>
        </extensions>
      </trkpt>
      <trkpt lat="52.145356200635433197021484375" lon="1.48725916631519794464111328125">
        <ele>-160</ele>
        <time>2025-09-06T09:52:38.000Z</time>
        <extensions>
          <ns3:TrackPointExtension>
            <ns3:hr>166</ns3:hr>
            <ns3:cad>79</ns3:cad>
          </ns3:TrackPointExtension>
        </extensions>
      </trkpt>
      <trkpt lat="52.1453835256397724151611328125" lon="1.48735606111586093902587890625">
        <ele>-160.399993896484375</ele>
        <time>2025-09-06T09:52:42.000Z</time>
        <extensions>
          <ns3:TrackPointExtension>
            <ns3:hr>166</ns3:hr>
            <ns3:cad>78</ns3:cad>
          </ns3:TrackPointExtension>
        </extensions>
      </trkpt>
      <trkpt lat="52.145407833158969879150390625" lon="1.48738087154924869537353515625">
        <ele>-160.600006103515625</ele>
        <time>2025-09-06T09:52:45.000Z</time>
        <extensions>
          <ns3:TrackPointExtension>
            <ns3:hr>163</ns3:hr>
            <ns3:cad>0</ns3:cad>
          </ns3:TrackPointExtension>
        </extensions>
      </trkpt>
      <trkpt lat="52.145423591136932373046875" lon="1.48741490207612514495849609375">
        <ele>-160.8000030517578125</ele>
        <time>2025-09-06T09:52:48.000Z</time>
        <extensions>
          <ns3:TrackPointExtension>
            <ns3:hr>166</ns3:hr>
            <ns3:cad>57</ns3:cad>
          </ns3:TrackPointExtension>
        </extensions>
      </trkpt>
      <trkpt lat="52.145461142063140869140625" lon="1.487504504621028900146484375">
        <ele>-161.1999969482421875</ele>
        <time>2025-09-06T09:52:52.000Z</time>
        <extensions>
          <ns3:TrackPointExtension>
            <ns3:hr>166</ns3:hr>
            <ns3:cad>77</ns3:cad>
          </ns3:TrackPointExtension>
        </extensions>
      </trkpt>
      <trkpt lat="52.1454651653766632080078125" lon="1.4875294826924800872802734375">
        <ele>-161.399993896484375</ele>
        <time>2025-09-06T09:52:53.000Z</time>
        <extensions>
          <ns3:TrackPointExtension>
            <ns3:hr>165</ns3:hr>
            <ns3:cad>78</ns3:cad>
          </ns3:TrackPointExtension>
        </extensions>
      </trkpt>
      <trkpt lat="52.14547094888985157012939453125" lon="1.487742550671100616455078125">
        <ele>-161.8000030517578125</ele>
        <time>2025-09-06T09:53:00.000Z</time>
        <extensions>
          <ns3:TrackPointExtension>
            <ns3:hr>162</ns3:hr>
            <ns3:cad>79</ns3:cad>
          </ns3:TrackPointExtension>
        </extensions>
      </trkpt>
      <trkpt lat="52.14550632052123546600341796875" lon="1.4878077618777751922607421875">
        <ele>-161.8000030517578125</ele>
        <time>2025-09-06T09:53:06.000Z</time>
        <extensions>
          <ns3:TrackPointExtension>
            <ns3:hr>163</ns3:hr>
            <ns3:cad>0</ns3:cad>
          </ns3:TrackPointExtension>
        </extensions>
      </trkpt>
      <trkpt lat="52.1455236710608005523681640625" lon="1.48781932890415191650390625">
        <ele>-161.8000030517578125</ele>
        <time>2025-09-06T09:53:11.000Z</time>
        <extensions>
          <ns3:TrackPointExtension>
            <ns3:hr>166</ns3:hr>
            <ns3:cad>0</ns3:cad>
          </ns3:TrackPointExtension>
        </extensions>
      </trkpt>
      <trkpt lat="52.14553783647716045379638671875" lon="1.48781086318194866180419921875">
        <ele>-161.600006103515625</ele>
        <time>2025-09-06T09:53:16.000Z</time>
        <extensions>
          <ns3:TrackPointExtension>
            <ns3:hr>164</ns3:hr>
            <ns3:cad>0</ns3:cad>
          </ns3:TrackPointExtension>
        </extensions>
      </trkpt>
      <trkpt lat="52.14556700550019741058349609375" lon="1.4878064207732677459716796875">
        <ele>-161</ele>
        <time>2025-09-06T09:53:23.000Z</time>
        <extensions>
          <ns3:TrackPointExtension>
            <ns3:hr>160</ns3:hr>
            <ns3:cad>0</ns3:cad>
          </ns3:TrackPointExtension>
        </extensions>
      </trkpt>
      <trkpt lat="52.14559081010520458221435546875" lon="1.4878161437809467315673828125">
        <ele>-160.600006103515625</ele>
        <time>2025-09-06T09:53:27.000Z</time>
        <extensions>
          <ns3:TrackPointExtension>
            <ns3:hr>158</ns3:hr>
            <ns3:cad>77</ns3:cad>
          </ns3:TrackPointExtension>
        </extensions>
      </trkpt>
      <trkpt lat="52.1456128545105457305908203125" lon="1.48781354539096355438232421875">
        <ele>-160.399993896484375</ele>
        <time>2025-09-06T09:53:29.000Z</time>
        <extensions>
          <ns3:TrackPointExtension>
            <ns3:hr>158</ns3:hr>
            <ns3:cad>77</ns3:cad>
          </ns3:TrackPointExtension>
        </extensions>
      </trkpt>
      <trkpt lat="52.14568820782005786895751953125" lon="1.48785151541233062744140625">
        <ele>-159.8000030517578125</ele>
        <time>2025-09-06T09:53:33.000Z</time>
        <extensions>
          <ns3:TrackPointExtension>
            <ns3:hr>160</ns3:hr>
            <ns3:cad>79</ns3:cad>
          </ns3:TrackPointExtension>
        </extensions>
      </trkpt>
      <trkpt lat="52.1457426063716411590576171875" lon="1.4878838695585727691650390625">
        <ele>-159.600006103515625</ele>
        <time>2025-09-06T09:53:36.000Z</time>
        <extensions>
          <ns3:TrackPointExtension>
            <ns3:hr>161</ns3:hr>
            <ns3:cad>79</ns3:cad>
          </ns3:TrackPointExtension>
        </extensions>
      </trkpt>
      <trkpt lat="52.14582047425210475921630859375" lon="1.4879224263131618499755859375">
        <ele>-159.399993896484375</ele>
        <time>2025-09-06T09:53:43.000Z</time>
        <extensions>
          <ns3:TrackPointExtension>
            <ns3:hr>164</ns3:hr>
            <ns3:cad>78</ns3:cad>
          </ns3:TrackPointExtension>
        </extensions>
      </trkpt>
      <trkpt lat="52.14586674235761165618896484375" lon="1.487910188734531402587890625">
        <ele>-159.399993896484375</ele>
        <time>2025-09-06T09:53:45.000Z</time>
        <extensions>
          <ns3:TrackPointExtension>
            <ns3:hr>164</ns3:hr>
            <ns3:cad>79</ns3:cad>
          </ns3:TrackPointExtension>
        </extensions>
      </trkpt>
      <trkpt lat="52.14604829438030719757080078125" lon="1.48786752484738826751708984375">
        <ele>-160</ele>
        <time>2025-09-06T09:53:53.000Z</time>
        <extensions>
          <ns3:TrackPointExtension>
            <ns3:hr>166</ns3:hr>
            <ns3:cad>79</ns3:cad>
          </ns3:TrackPointExtension>
        </extensions>
      </trkpt>
      <trkpt lat="52.1461974084377288818359375" lon="1.48773307912051677703857421875">
        <ele>-161.1999969482421875</ele>
        <time>2025-09-06T09:54:00.000Z</time>
        <extensions>
          <ns3:TrackPointExtension>
            <ns3:hr>163</ns3:hr>
            <ns3:cad>80</ns3:cad>
          </ns3:TrackPointExtension>
        </extensions>
      </trkpt>
      <trkpt lat="52.14621844701468944549560546875" lon="1.487716399133205413818359375">
        <ele>-161.399993896484375</ele>
        <time>2025-09-06T09:54:01.000Z</time>
        <extensions>
          <ns3:TrackPointExtension>
            <ns3:hr>163</ns3:hr>
            <ns3:cad>80</ns3:cad>
          </ns3:TrackPointExtension>
        </extensions>
      </trkpt>
      <trkpt lat="52.14624795131385326385498046875" lon="1.48769862949848175048828125">
        <ele>-161.399993896484375</ele>
        <time>2025-09-06T09:54:02.000Z</time>
        <extensions>
          <ns3:TrackPointExtension>
            <ns3:hr>163</ns3:hr>
            <ns3:cad>80</ns3:cad>
          </ns3:TrackPointExtension>
        </extensions>
      </trkpt>
      <trkpt lat="52.1463893540203571319580078125" lon="1.48761556483805179595947265625">
        <ele>-162.399993896484375</ele>
        <time>2025-09-06T09:54:07.000Z</time>
        <extensions>
          <ns3:TrackPointExtension>
            <ns3:hr>162</ns3:hr>
            <ns3:cad>80</ns3:cad>
          </ns3:TrackPointExtension>
        </extensions>
      </trkpt>
      <trkpt lat="52.1464225463569164276123046875" lon="1.48759645409882068634033203125">
        <ele>-162.600006103515625</ele>
        <time>2025-09-06T09:54:08.000Z</time>
        <extensions>
          <ns3:TrackPointExtension>
            <ns3:hr>163</ns3:hr>
            <ns3:cad>80</ns3:cad>
          </ns3:TrackPointExtension>
        </extensions>
      </trkpt>
      <trkpt lat="52.14656554162502288818359375" lon="1.487456895411014556884765625">
        <ele>-163.8000030517578125</ele>
        <time>2025-09-06T09:54:14.000Z</time>
        <extensions>
          <ns3:TrackPointExtension>
            <ns3:hr>163</ns3:hr>
            <ns3:cad>81</ns3:cad>
          </ns3:TrackPointExtension>
        </extensions>
      </trkpt>
      <trkpt lat="52.14660108089447021484375" lon="1.48743602447211742401123046875">
        <ele>-164.1999969482421875</ele>
        <time>2025-09-06T09:54:16.000Z</time>
        <extensions>
          <ns3:TrackPointExtension>
            <ns3:hr>164</ns3:hr>
            <ns3:cad>81</ns3:cad>
          </ns3:TrackPointExtension>
        </extensions>
      </trkpt>
      <trkpt lat="52.14665497653186321258544921875" lon="1.487387828528881072998046875">
        <ele>-164.8000030517578125</ele>
        <time>2025-09-06T09:54:19.000Z</time>
        <extensions>
          <ns3:TrackPointExtension>
            <ns3:hr>165</ns3:hr>
            <ns3:cad>81</ns3:cad>
          </ns3:TrackPointExtension>
        </extensions>
      </trkpt>
      <trkpt lat="52.14675907976925373077392578125" lon="1.48733443580567836761474609375">
        <ele>-165.600006103515625</ele>
        <time>2025-09-06T09:54:23.000Z</time>
        <extensions>
          <ns3:TrackPointExtension>
            <ns3:hr>165</ns3:hr>
            <ns3:cad>81</ns3:cad>
          </ns3:TrackPointExtension>
        </extensions>
      </trkpt>
      <trkpt lat="52.14678011834621429443359375" lon="1.487330831587314605712890625">
        <ele>-165.8000030517578125</ele>
        <time>2025-09-06T09:54:24.000Z</time>
        <extensions>
          <ns3:TrackPointExtension>
            <ns3:hr>165</ns3:hr>
            <ns3:cad>81</ns3:cad>
          </ns3:TrackPointExtension>
        </extensions>
      </trkpt>
      <trkpt lat="52.14687759988009929656982421875" lon="1.48727224208414554595947265625">
        <ele>-167</ele>
        <time>2025-09-06T09:54:30.000Z</time>
        <extensions>
          <ns3:TrackPointExtension>
            <ns3:hr>162</ns3:hr>
            <ns3:cad>80</ns3:cad>
          </ns3:TrackPointExtension>
        </extensions>
      </trkpt>
      <trkpt lat="52.14688983745872974395751953125" lon="1.48726084269583225250244140625">
        <ele>-167.1999969482421875</ele>
        <time>2025-09-06T09:54:31.000Z</time>
        <extensions>
          <ns3:TrackPointExtension>
            <ns3:hr>162</ns3:hr>
            <ns3:cad>79</ns3:cad>
          </ns3:TrackPointExtension>
        </extensions>
      </trkpt>
      <trkpt lat="52.1469814516603946685791015625" lon="1.487232260406017303466796875">
        <ele>-168</ele>
        <time>2025-09-06T09:54:36.000Z</time>
        <extensions>
          <ns3:TrackPointExtension>
            <ns3:hr>162</ns3:hr>
            <ns3:cad>79</ns3:cad>
          </ns3:TrackPointExtension>
        </extensions>
      </trkpt>
      <trkpt lat="52.14701824821531772613525390625" lon="1.48719663731753826141357421875">
        <ele>-168.1999969482421875</ele>
        <time>2025-09-06T09:54:38.000Z</time>
        <extensions>
          <ns3:TrackPointExtension>
            <ns3:hr>162</ns3:hr>
            <ns3:cad>80</ns3:cad>
          </ns3:TrackPointExtension>
        </extensions>
      </trkpt>
      <trkpt lat="52.147085554897785186767578125" lon="1.487145088613033294677734375">
        <ele>-168.8000030517578125</ele>
        <time>2025-09-06T09:54:42.000Z</time>
        <extensions>
          <ns3:TrackPointExtension>
            <ns3:hr>165</ns3:hr>
            <ns3:cad>81</ns3:cad>
          </ns3:TrackPointExtension>
        </extensions>
      </trkpt>
      <trkpt lat="52.14710642583668231964111328125" lon="1.48713125847280025482177734375">
        <ele>-169</ele>
        <time>2025-09-06T09:54:43.000Z</time>
        <extensions>
          <ns3:TrackPointExtension>
            <ns3:hr>164</ns3:hr>
            <ns3:cad>81</ns3:cad>
          </ns3:TrackPointExtension>
        </extensions>
      </trkpt>
      <trkpt lat="52.1471309848129749298095703125" lon="1.48711784742772579193115234375">
        <ele>-169.1999969482421875</ele>
        <time>2025-09-06T09:54:44.000Z</time>
        <extensions>
          <ns3:TrackPointExtension>
            <ns3:hr>162</ns3:hr>
            <ns3:cad>81</ns3:cad>
          </ns3:TrackPointExtension>
        </extensions>
      </trkpt>
      <trkpt lat="52.1472878940403461456298828125" lon="1.4870624430477619171142578125">
        <ele>-170</ele>
        <time>2025-09-06T09:54:51.000Z</time>
        <extensions>
          <ns3:TrackPointExtension>
            <ns3:hr>160</ns3:hr>
            <ns3:cad>80</ns3:cad>
          </ns3:TrackPointExtension>
        </extensions>
      </trkpt>
      <trkpt lat="52.14738973416388034820556640625" lon="1.48696932010352611541748046875">
        <ele>-170.8000030517578125</ele>
        <time>2025-09-06T09:54:58.000Z</time>
        <extensions>
          <ns3:TrackPointExtension>
            <ns3:hr>161</ns3:hr>
            <ns3:cad>81</ns3:cad>
          </ns3:TrackPointExtension>
        </extensions>
      </trkpt>
      <trkpt lat="52.14741672389209270477294921875" lon="1.486943922936916351318359375">
        <ele>-171</ele>
        <time>2025-09-06T09:55:00.000Z</time>
        <extensions>
          <ns3:TrackPointExtension>
            <ns3:hr>162</ns3:hr>
            <ns3:cad>80</ns3:cad>
          </ns3:TrackPointExtension>
        </extensions>
      </trkpt>
      <trkpt lat="52.14758888818323612213134765625" lon="1.48688902147114276885986328125">
        <ele>-172.1999969482421875</ele>
        <time>2025-09-06T09:55:08.000Z</time>
        <extensions>
          <ns3:TrackPointExtension>
            <ns3:hr>162</ns3:hr>
            <ns3:cad>81</ns3:cad>
          </ns3:TrackPointExtension>
        </extensions>
      </trkpt>
      <trkpt lat="52.14774747379124164581298828125" lon="1.4867791347205638885498046875">
        <ele>-173.1999969482421875</ele>
        <time>2025-09-06T09:55:16.000Z</time>
        <extensions>
          <ns3:TrackPointExtension>
            <ns3:hr>163</ns3:hr>
            <ns3:cad>81</ns3:cad>
          </ns3:TrackPointExtension>
        </extensions>
      </trkpt>
      <trkpt lat="52.1477799117565155029296875" lon="1.48674669675529003143310546875">
        <ele>-173.399993896484375</ele>
        <time>2025-09-06T09:55:18.000Z</time>
        <extensions>
          <ns3:TrackPointExtension>
            <ns3:hr>163</ns3:hr>
            <ns3:cad>81</ns3:cad>
          </ns3:TrackPointExtension>
        </extensions>
      </trkpt>
      <trkpt lat="52.14791444130241870880126953125" lon="1.48663471452891826629638671875">
        <ele>-174.1999969482421875</ele>
        <time>2025-09-06T09:55:24.000Z</time>
        <extensions>
          <ns3:TrackPointExtension>
            <ns3:hr>165</ns3:hr>
            <ns3:cad>81</ns3:cad>
          </ns3:TrackPointExtension>
        </extensions>
      </trkpt>
      <trkpt lat="52.14795383624732494354248046875" lon="1.486614011228084564208984375">
        <ele>-174.399993896484375</ele>
        <time>2025-09-06T09:55:25.000Z</time>
        <extensions>
          <ns3:TrackPointExtension>
            <ns3:hr>164</ns3:hr>
            <ns3:cad>81</ns3:cad>
          </ns3:TrackPointExtension>
        </extensions>
      </trkpt>
      <trkpt lat="52.14803882874548435211181640625" lon="1.48656514473259449005126953125">
        <ele>-175</ele>
        <time>2025-09-06T09:55:30.000Z</time>
        <extensions>
          <ns3:TrackPointExtension>
            <ns3:hr>162</ns3:hr>
            <ns3:cad>81</ns3:cad>
          </ns3:TrackPointExtension>
        </extensions>
      </trkpt>
      <trkpt lat="52.148153074085712432861328125" lon="1.4865003526210784912109375">
        <ele>-175.399993896484375</ele>
        <time>2025-09-06T09:55:34.000Z</time>
        <extensions>
          <ns3:TrackPointExtension>
            <ns3:hr>162</ns3:hr>
            <ns3:cad>81</ns3:cad>
          </ns3:TrackPointExtension>
        </extensions>
      </trkpt>
      <trkpt lat="52.14819758199155330657958984375" lon="1.4864854328334331512451171875">
        <ele>-175.600006103515625</ele>
        <time>2025-09-06T09:55:36.000Z</time>
        <extensions>
          <ns3:TrackPointExtension>
            <ns3:hr>162</ns3:hr>
            <ns3:cad>81</ns3:cad>
          </ns3:TrackPointExtension>
        </extensions>
      </trkpt>
      <trkpt lat="52.1483339555561542510986328125" lon="1.48641963489353656768798828125">
        <ele>-175.600006103515625</ele>
        <time>2025-09-06T09:55:43.000Z</time>
        <extensions>
          <ns3:TrackPointExtension>
            <ns3:hr>161</ns3:hr>
            <ns3:cad>80</ns3:cad>
          </ns3:TrackPointExtension>
        </extensions>
      </trkpt>
      <trkpt lat="52.14845490641891956329345703125" lon="1.4863643981516361236572265625">
        <ele>-175.600006103515625</ele>
        <time>2025-09-06T09:55:50.000Z</time>
        <extensions>
          <ns3:TrackPointExtension>
            <ns3:hr>164</ns3:hr>
            <ns3:cad>81</ns3:cad>
          </ns3:TrackPointExtension>
        </extensions>
      </trkpt>
      <trkpt lat="52.14847317896783351898193359375" lon="1.486357189714908599853515625">
        <ele>-175.600006103515625</ele>
        <time>2025-09-06T09:55:51.000Z</time>
        <extensions>
          <ns3:TrackPointExtension>
            <ns3:hr>167</ns3:hr>
            <ns3:cad>81</ns3:cad>
          </ns3:TrackPointExtension>
        </extensions>
      </trkpt>
      <trkpt lat="52.14853562414646148681640625" lon="1.48632089607417583465576171875">
        <ele>-175.8000030517578125</ele>
        <time>2025-09-06T09:55:54.000Z</time>
        <extensions>
          <ns3:TrackPointExtension>
            <ns3:hr>170</ns3:hr>
            <ns3:cad>80</ns3:cad>
          </ns3:TrackPointExtension>
        </extensions>
      </trkpt>
      <trkpt lat="52.14860913343727588653564453125" lon="1.48628569208085536956787109375">
        <ele>-176</ele>
        <time>2025-09-06T09:55:59.000Z</time>
        <extensions>
          <ns3:TrackPointExtension>
            <ns3:hr>172</ns3:hr>
            <ns3:cad>80</ns3:cad>
          </ns3:TrackPointExtension>
        </extensions>
      </trkpt>
      <trkpt lat="52.14869496412575244903564453125" lon="1.48625585250556468963623046875">
        <ele>-176.399993896484375</ele>
        <time>2025-09-06T09:56:03.000Z</time>
        <extensions>
          <ns3:TrackPointExtension>
            <ns3:hr>170</ns3:hr>
            <ns3:cad>80</ns3:cad>
          </ns3:TrackPointExtension>
        </extensions>
      </trkpt>
      <trkpt lat="52.14873947203159332275390625" lon="1.486235819756984710693359375">
        <ele>-176.8000030517578125</ele>
        <time>2025-09-06T09:56:05.000Z</time>
        <extensions>
          <ns3:TrackPointExtension>
            <ns3:hr>171</ns3:hr>
            <ns3:cad>80</ns3:cad>
          </ns3:TrackPointExtension>
        </extensions>
      </trkpt>
      <trkpt lat="52.1488734148442745208740234375" lon="1.4862369932234287261962890625">
        <ele>-177.600006103515625</ele>
        <time>2025-09-06T09:56:11.000Z</time>
        <extensions>
          <ns3:TrackPointExtension>
            <ns3:hr>171</ns3:hr>
            <ns3:cad>81</ns3:cad>
          </ns3:TrackPointExtension>
        </extensions>
      </trkpt>
      <trkpt lat="52.1488903462886810302734375" lon="1.48623757995665073394775390625">
        <ele>-177.8000030517578125</ele>
        <time>2025-09-06T09:56:12.000Z</time>
        <extensions>
          <ns3:TrackPointExtension>
            <ns3:hr>171</ns3:hr>
            <ns3:cad>81</ns3:cad>
          </ns3:TrackPointExtension>
        </extensions>
      </trkpt>
      <trkpt lat="52.1490430645644664764404296875" lon="1.48621494881808757781982421875">
        <ele>-178.8000030517578125</ele>
        <time>2025-09-06T09:56:18.000Z</time>
        <extensions>
          <ns3:TrackPointExtension>
            <ns3:hr>170</ns3:hr>
            <ns3:cad>78</ns3:cad>
          </ns3:TrackPointExtension>
        </extensions>
      </trkpt>
      <trkpt lat="52.1490772627294063568115234375" lon="1.48620329797267913818359375">
        <ele>-179</ele>
        <time>2025-09-06T09:56:19.000Z</time>
        <extensions>
          <ns3:TrackPointExtension>
            <ns3:hr>169</ns3:hr>
            <ns3:cad>77</ns3:cad>
          </ns3:TrackPointExtension>
        </extensions>
      </trkpt>
      <trkpt lat="52.14914205484092235565185546875" lon="1.48621042259037494659423828125">
        <ele>-179.399993896484375</ele>
        <time>2025-09-06T09:56:22.000Z</time>
        <extensions>
          <ns3:TrackPointExtension>
            <ns3:hr>166</ns3:hr>
            <ns3:cad>77</ns3:cad>
          </ns3:TrackPointExtension>
        </extensions>
      </trkpt>
      <trkpt lat="52.1491855569183826446533203125" lon="1.48620807565748691558837890625">
        <ele>-179.8000030517578125</ele>
        <time>2025-09-06T09:56:24.000Z</time>
        <extensions>
          <ns3:TrackPointExtension>
            <ns3:hr>167</ns3:hr>
            <ns3:cad>79</ns3:cad>
          </ns3:TrackPointExtension>
        </extensions>
      </trkpt>
      <trkpt lat="52.1492479182779788970947265625" lon="1.48620187304913997650146484375">
        <ele>-180</ele>
        <time>2025-09-06T09:56:26.000Z</time>
        <extensions>
          <ns3:TrackPointExtension>
            <ns3:hr>167</ns3:hr>
            <ns3:cad>79</ns3:cad>
          </ns3:TrackPointExtension>
        </extensions>
      </trkpt>
      <trkpt lat="52.14933752082288265228271484375" lon="1.486196257174015045166015625">
        <ele>-180.8000030517578125</ele>
        <time>2025-09-06T09:56:30.000Z</time>
        <extensions>
          <ns3:TrackPointExtension>
            <ns3:hr>166</ns3:hr>
            <ns3:cad>78</ns3:cad>
          </ns3:TrackPointExtension>
        </extensions>
      </trkpt>
      <trkpt lat="52.14946425519883632659912109375" lon="1.48619525134563446044921875">
        <ele>-181.600006103515625</ele>
        <time>2025-09-06T09:56:35.000Z</time>
        <extensions>
          <ns3:TrackPointExtension>
            <ns3:hr>167</ns3:hr>
            <ns3:cad>81</ns3:cad>
          </ns3:TrackPointExtension>
        </extensions>
      </trkpt>
      <trkpt lat="52.1494862996041774749755859375" lon="1.4861945807933807373046875">
        <ele>-181.8000030517578125</ele>
        <time>2025-09-06T09:56:36.000Z</time>
        <extensions>
          <ns3:TrackPointExtension>
            <ns3:hr>167</ns3:hr>
            <ns3:cad>81</ns3:cad>
          </ns3:TrackPointExtension>
        </extensions>
      </trkpt>
      <trkpt lat="52.1495992876589298248291015625" lon="1.48616968654096126556396484375">
        <ele>-182.8000030517578125</ele>
        <time>2025-09-06T09:56:42.000Z</time>
        <extensions>
          <ns3:TrackPointExtension>
            <ns3:hr>168</ns3:hr>
            <ns3:cad>80</ns3:cad>
          </ns3:TrackPointExtension>
        </extensions>
      </trkpt>
      <trkpt lat="52.1496143750846385955810546875" lon="1.48616616614162921905517578125">
        <ele>-182.8000030517578125</ele>
        <time>2025-09-06T09:56:43.000Z</time>
        <extensions>
          <ns3:TrackPointExtension>
            <ns3:hr>167</ns3:hr>
            <ns3:cad>80</ns3:cad>
          </ns3:TrackPointExtension>
        </extensions>
      </trkpt>
      <trkpt lat="52.1497726254165172576904296875" lon="1.48613356053829193115234375">
        <ele>-183.8000030517578125</ele>
        <time>2025-09-06T09:56:49.000Z</time>
        <extensions>
          <ns3:TrackPointExtension>
            <ns3:hr>167</ns3:hr>
            <ns3:cad>80</ns3:cad>
          </ns3:TrackPointExtension>
        </extensions>
      </trkpt>
      <trkpt lat="52.14982098899781703948974609375" lon="1.4861320517957210540771484375">
        <ele>-184</ele>
        <time>2025-09-06T09:56:51.000Z</time>
        <extensions>
          <ns3:TrackPointExtension>
            <ns3:hr>168</ns3:hr>
            <ns3:cad>81</ns3:cad>
          </ns3:TrackPointExtension>
        </extensions>
      </trkpt>
      <trkpt lat="52.15000681579113006591796875" lon="1.48609156720340251922607421875">
        <ele>-184.8000030517578125</ele>
        <time>2025-09-06T09:56:57.000Z</time>
        <extensions>
          <ns3:TrackPointExtension>
            <ns3:hr>168</ns3:hr>
            <ns3:cad>81</ns3:cad>
          </ns3:TrackPointExtension>
        </extensions>
      </trkpt>
      <trkpt lat="52.15005484409630298614501953125" lon="1.4860790781676769256591796875">
        <ele>-185</ele>
        <time>2025-09-06T09:56:59.000Z</time>
        <extensions>
          <ns3:TrackPointExtension>
            <ns3:hr>168</ns3:hr>
            <ns3:cad>81</ns3:cad>
          </ns3:TrackPointExtension>
        </extensions>
      </trkpt>
      <trkpt lat="52.150164730846881866455078125" lon="1.48605711758136749267578125">
        <ele>-185.600006103515625</ele>
        <time>2025-09-06T09:57:03.000Z</time>
        <extensions>
          <ns3:TrackPointExtension>
            <ns3:hr>171</ns3:hr>
            <ns3:cad>81</ns3:cad>
          </ns3:TrackPointExtension>
        </extensions>
      </trkpt>
      <trkpt lat="52.150181494653224945068359375" lon="1.48605233989655971527099609375">
        <ele>-185.600006103515625</ele>
        <time>2025-09-06T09:57:04.000Z</time>
        <extensions>
          <ns3:TrackPointExtension>
            <ns3:hr>172</ns3:hr>
            <ns3:cad>81</ns3:cad>
          </ns3:TrackPointExtension>
        </extensions>
      </trkpt>
      <trkpt lat="52.15020437724888324737548828125" lon="1.48605133406817913055419921875">
        <ele>-185.8000030517578125</ele>
        <time>2025-09-06T09:57:05.000Z</time>
        <extensions>
          <ns3:TrackPointExtension>
            <ns3:hr>169</ns3:hr>
            <ns3:cad>81</ns3:cad>
          </ns3:TrackPointExtension>
        </extensions>
      </trkpt>
      <trkpt lat="52.1502597816288471221923828125" lon="1.48603725247085094451904296875">
        <ele>-186.1999969482421875</ele>
        <time>2025-09-06T09:57:07.000Z</time>
        <extensions>
          <ns3:TrackPointExtension>
            <ns3:hr>169</ns3:hr>
            <ns3:cad>81</ns3:cad>
          </ns3:TrackPointExtension>
        </extensions>
      </trkpt>
      <trkpt lat="52.15038391761481761932373046875" lon="1.486021578311920166015625">
        <ele>-186.8000030517578125</ele>
        <time>2025-09-06T09:57:12.000Z</time>
        <extensions>
          <ns3:TrackPointExtension>
            <ns3:hr>166</ns3:hr>
            <ns3:cad>80</ns3:cad>
          </ns3:TrackPointExtension>
        </extensions>
      </trkpt>
      <trkpt lat="52.1504317782819271087646484375" lon="1.4860202372074127197265625">
        <ele>-187.1999969482421875</ele>
        <time>2025-09-06T09:57:14.000Z</time>
        <extensions>
          <ns3:TrackPointExtension>
            <ns3:hr>167</ns3:hr>
            <ns3:cad>79</ns3:cad>
          </ns3:TrackPointExtension>
        </extensions>
      </trkpt>
      <trkpt lat="52.1505615301430225372314453125" lon="1.4860059879720211029052734375">
        <ele>-188.1999969482421875</ele>
        <time>2025-09-06T09:57:20.000Z</time>
        <extensions>
          <ns3:TrackPointExtension>
            <ns3:hr>164</ns3:hr>
            <ns3:cad>79</ns3:cad>
          </ns3:TrackPointExtension>
        </extensions>
      </trkpt>
      <trkpt lat="52.15064090676605701446533203125" lon="1.4860106818377971649169921875">
        <ele>-189.399993896484375</ele>
        <time>2025-09-06T09:57:26.000Z</time>
        <extensions>
          <ns3:TrackPointExtension>
            <ns3:hr>162</ns3:hr>
            <ns3:cad>78</ns3:cad>
          </ns3:TrackPointExtension>
        </extensions>
      </trkpt>
      <trkpt lat="52.15066169388592243194580078125" lon="1.4860093407332897186279296875">
        <ele>-189.600006103515625</ele>
        <time>2025-09-06T09:57:27.000Z</time>
        <extensions>
          <ns3:TrackPointExtension>
            <ns3:hr>162</ns3:hr>
            <ns3:cad>78</ns3:cad>
          </ns3:TrackPointExtension>
        </extensions>
      </trkpt>
      <trkpt lat="52.150672338902950286865234375" lon="1.4860140345990657806396484375">
        <ele>-189.8000030517578125</ele>
        <time>2025-09-06T09:57:28.000Z</time>
        <extensions>
          <ns3:TrackPointExtension>
            <ns3:hr>168</ns3:hr>
            <ns3:cad>78</ns3:cad>
          </ns3:TrackPointExtension>
        </extensions>
      </trkpt>
      <trkpt lat="52.15068533085286617279052734375" lon="1.48600975982844829559326171875">
        <ele>-189.8000030517578125</ele>
        <time>2025-09-06T09:57:29.000Z</time>
        <extensions>
          <ns3:TrackPointExtension>
            <ns3:hr>168</ns3:hr>
            <ns3:cad>78</ns3:cad>
          </ns3:TrackPointExtension>
        </extensions>
      </trkpt>
      <trkpt lat="52.15067929588258266448974609375" lon="1.48602903820574283599853515625">
        <ele>-190.399993896484375</ele>
        <time>2025-09-06T09:57:32.000Z</time>
        <extensions>
          <ns3:TrackPointExtension>
            <ns3:hr>168</ns3:hr>
            <ns3:cad>0</ns3:cad>
          </ns3:TrackPointExtension>
        </extensions>
      </trkpt>
      <trkpt lat="52.15067896060645580291748046875" lon="1.48603473789989948272705078125">
        <ele>-190.600006103515625</ele>
        <time>2025-09-06T09:57:33.000Z</time>
        <extensions>
          <ns3:TrackPointExtension>
            <ns3:hr>168</ns3:hr>
            <ns3:cad>0</ns3:cad>
          </ns3:TrackPointExtension>
        </extensions>
      </trkpt>
      <trkpt lat="52.15074702166020870208740234375" lon="1.48603322915732860565185546875">
        <ele>-191.399993896484375</ele>
        <time>2025-09-06T09:57:38.000Z</time>
        <extensions>
          <ns3:TrackPointExtension>
            <ns3:hr>166</ns3:hr>
            <ns3:cad>0</ns3:cad>
          </ns3:TrackPointExtension>
        </extensions>
      </trkpt>
      <trkpt lat="52.1507794596254825592041015625" lon="1.48603104986250400543212890625">
        <ele>-192</ele>
        <time>2025-09-06T09:57:41.000Z</time>
        <extensions>
          <ns3:TrackPointExtension>
            <ns3:hr>163</ns3:hr>
            <ns3:cad>52</ns3:cad>
          </ns3:TrackPointExtension>
        </extensions>
      </trkpt>
      <trkpt lat="52.15080955065786838531494140625" lon="1.486017890274524688720703125">
        <ele>-192.600006103515625</ele>
        <time>2025-09-06T09:57:44.000Z</time>
        <extensions>
          <ns3:TrackPointExtension>
            <ns3:hr>162</ns3:hr>
            <ns3:cad>53</ns3:cad>
          </ns3:TrackPointExtension>
        </extensions>
      </trkpt>
      <trkpt lat="52.15082111768424510955810546875" lon="1.48601361550390720367431640625">
        <ele>-192.8000030517578125</ele>
        <time>2025-09-06T09:57:45.000Z</time>
        <extensions>
          <ns3:TrackPointExtension>
            <ns3:hr>161</ns3:hr>
            <ns3:cad>53</ns3:cad>
          </ns3:TrackPointExtension>
        </extensions>
      </trkpt>
      <trkpt lat="52.15085129253566265106201171875" lon="1.4859989471733570098876953125">
        <ele>-193.600006103515625</ele>
        <time>2025-09-06T09:57:49.000Z</time>
        <extensions>
          <ns3:TrackPointExtension>
            <ns3:hr>159</ns3:hr>
            <ns3:cad>0</ns3:cad>
          </ns3:TrackPointExtension>
        </extensions>
      </trkpt>
      <trkpt lat="52.15086906217038631439208984375" lon="1.4859831891953945159912109375">
        <ele>-194.399993896484375</ele>
        <time>2025-09-06T09:57:52.000Z</time>
        <extensions>
          <ns3:TrackPointExtension>
            <ns3:hr>158</ns3:hr>
            <ns3:cad>0</ns3:cad>
          </ns3:TrackPointExtension>
        </extensions>
      </trkpt>
      <trkpt lat="52.15089865028858184814453125" lon="1.485984362661838531494140625">
        <ele>-194.8000030517578125</ele>
        <time>2025-09-06T09:57:54.000Z</time>
        <extensions>
          <ns3:TrackPointExtension>
            <ns3:hr>156</ns3:hr>
            <ns3:cad>68</ns3:cad>
          </ns3:TrackPointExtension>
        </extensions>
      </trkpt>
      <trkpt lat="52.1509838104248046875" lon="1.485993079841136932373046875">
        <ele>-195.8000030517578125</ele>
        <time>2025-09-06T09:57:59.000Z</time>
        <extensions>
          <ns3:TrackPointExtension>
            <ns3:hr>154</ns3:hr>
            <ns3:cad>77</ns3:cad>
          </ns3:TrackPointExtension>
        </extensions>
      </trkpt>
      <trkpt lat="52.15102764777839183807373046875" lon="1.48599601350724697113037109375">
        <ele>-196.1999969482421875</ele>
        <time>2025-09-06T09:58:01.000Z</time>
        <extensions>
          <ns3:TrackPointExtension>
            <ns3:hr>156</ns3:hr>
            <ns3:cad>78</ns3:cad>
          </ns3:TrackPointExtension>
        </extensions>
      </trkpt>
      <trkpt lat="52.15109847486019134521484375" lon="1.48599534295499324798583984375">
        <ele>-197</ele>
        <time>2025-09-06T09:58:05.000Z</time>
        <extensions>
          <ns3:TrackPointExtension>
            <ns3:hr>156</ns3:hr>
            <ns3:cad>79</ns3:cad>
          </ns3:TrackPointExtension>
        </extensions>
      </trkpt>
      <trkpt lat="52.15112169273197650909423828125" lon="1.48599810898303985595703125">
        <ele>-197.1999969482421875</ele>
        <time>2025-09-06T09:58:07.000Z</time>
        <extensions>
          <ns3:TrackPointExtension>
            <ns3:hr>160</ns3:hr>
            <ns3:cad>79</ns3:cad>
          </ns3:TrackPointExtension>
        </extensions>
      </trkpt>
      <trkpt lat="52.15113879181444644927978515625" lon="1.485999114811420440673828125">
        <ele>-197.399993896484375</ele>
        <time>2025-09-06T09:58:08.000Z</time>
        <extensions>
          <ns3:TrackPointExtension>
            <ns3:hr>160</ns3:hr>
            <ns3:cad>79</ns3:cad>
          </ns3:TrackPointExtension>
        </extensions>
      </trkpt>
      <trkpt lat="52.15117131359875202178955078125" lon="1.48599945008754730224609375">
        <ele>-197.8000030517578125</ele>
        <time>2025-09-06T09:58:10.000Z</time>
        <extensions>
          <ns3:TrackPointExtension>
            <ns3:hr>163</ns3:hr>
            <ns3:cad>79</ns3:cad>
          </ns3:TrackPointExtension>
        </extensions>
      </trkpt>
      <trkpt lat="52.15120433829724788665771484375" lon="1.48599945008754730224609375">
        <ele>-198</ele>
        <time>2025-09-06T09:58:12.000Z</time>
        <extensions>
          <ns3:TrackPointExtension>
            <ns3:hr>165</ns3:hr>
            <ns3:cad>79</ns3:cad>
          </ns3:TrackPointExtension>
        </extensions>
      </trkpt>
      <trkpt lat="52.15124675072729587554931640625" lon="1.48601680062711238861083984375">
        <ele>-198.399993896484375</ele>
        <time>2025-09-06T09:58:15.000Z</time>
        <extensions>
          <ns3:TrackPointExtension>
            <ns3:hr>168</ns3:hr>
            <ns3:cad>79</ns3:cad>
          </ns3:TrackPointExtension>
        </extensions>
      </trkpt>
      <trkpt lat="52.15133509598672389984130859375" lon="1.48601545952260494232177734375">
        <ele>-199</ele>
        <time>2025-09-06T09:58:19.000Z</time>
        <extensions>
          <ns3:TrackPointExtension>
            <ns3:hr>170</ns3:hr>
            <ns3:cad>79</ns3:cad>
          </ns3:TrackPointExtension>
        </extensions>
      </trkpt>
      <trkpt lat="52.1513579785823822021484375" lon="1.4860093407332897186279296875">
        <ele>-199.1999969482421875</ele>
        <time>2025-09-06T09:58:20.000Z</time>
        <extensions>
          <ns3:TrackPointExtension>
            <ns3:hr>170</ns3:hr>
            <ns3:cad>79</ns3:cad>
          </ns3:TrackPointExtension>
        </extensions>
      </trkpt>
      <trkpt lat="52.15146216563880443572998046875" lon="1.48601294495165348052978515625">
        <ele>-199.8000030517578125</ele>
        <time>2025-09-06T09:58:24.000Z</time>
        <extensions>
          <ns3:TrackPointExtension>
            <ns3:hr>173</ns3:hr>
            <ns3:cad>80</ns3:cad>
          </ns3:TrackPointExtension>
        </extensions>
      </trkpt>
      <trkpt lat="52.1514947712421417236328125" lon="1.4860418625175952911376953125">
        <ele>-200.1999969482421875</ele>
        <time>2025-09-06T09:58:27.000Z</time>
        <extensions>
          <ns3:TrackPointExtension>
            <ns3:hr>174</ns3:hr>
            <ns3:cad>80</ns3:cad>
          </ns3:TrackPointExtension>
        </extensions>
      </trkpt>
      <trkpt lat="52.15163315646350383758544921875" lon="1.48608528077602386474609375">
        <ele>-201.1999969482421875</ele>
        <time>2025-09-06T09:58:35.000Z</time>
        <extensions>
          <ns3:TrackPointExtension>
            <ns3:hr>175</ns3:hr>
            <ns3:cad>80</ns3:cad>
          </ns3:TrackPointExtension>
        </extensions>
      </trkpt>
      <trkpt lat="52.15165637433528900146484375" lon="1.486077569425106048583984375">
        <ele>-201.1999969482421875</ele>
        <time>2025-09-06T09:58:36.000Z</time>
        <extensions>
          <ns3:TrackPointExtension>
            <ns3:hr>175</ns3:hr>
            <ns3:cad>80</ns3:cad>
          </ns3:TrackPointExtension>
        </extensions>
      </trkpt>
      <trkpt lat="52.151810266077518463134765625" lon="1.486042700707912445068359375">
        <ele>-202</ele>
        <time>2025-09-06T09:58:44.000Z</time>
        <extensions>
          <ns3:TrackPointExtension>
            <ns3:hr>175</ns3:hr>
            <ns3:cad>80</ns3:cad>
          </ns3:TrackPointExtension>
        </extensions>
      </trkpt>
      <trkpt lat="52.15187438763678073883056640625" lon="1.4860297925770282745361328125">
        <ele>-202.399993896484375</ele>
        <time>2025-09-06T09:58:47.000Z</time>
        <extensions>
          <ns3:TrackPointExtension>
            <ns3:hr>175</ns3:hr>
            <ns3:cad>80</ns3:cad>
          </ns3:TrackPointExtension>
        </extensions>
      </trkpt>
      <trkpt lat="52.15197396464645862579345703125" lon="1.4859989471733570098876953125">
        <ele>-202.600006103515625</ele>
        <time>2025-09-06T09:58:50.000Z</time>
        <extensions>
          <ns3:TrackPointExtension>
            <ns3:hr>173</ns3:hr>
            <ns3:cad>79</ns3:cad>
          </ns3:TrackPointExtension>
        </extensions>
      </trkpt>
      <trkpt lat="52.152178399264812469482421875" lon="1.48598209954798221588134765625">
        <ele>-203</ele>
        <time>2025-09-06T09:58:57.000Z</time>
        <extensions>
          <ns3:TrackPointExtension>
            <ns3:hr>175</ns3:hr>
            <ns3:cad>81</ns3:cad>
          </ns3:TrackPointExtension>
        </extensions>
      </trkpt>
      <trkpt lat="52.1522047184407711029052734375" lon="1.48597606457769870758056640625">
        <ele>-203</ele>
        <time>2025-09-06T09:58:58.000Z</time>
        <extensions>
          <ns3:TrackPointExtension>
            <ns3:hr>173</ns3:hr>
            <ns3:cad>81</ns3:cad>
          </ns3:TrackPointExtension>
        </extensions>
      </trkpt>
      <trkpt lat="52.15233899652957916259765625" lon="1.4859493263065814971923828125">
        <ele>-203.399993896484375</ele>
        <time>2025-09-06T09:59:03.000Z</time>
        <extensions>
          <ns3:TrackPointExtension>
            <ns3:hr>174</ns3:hr>
            <ns3:cad>81</ns3:cad>
          </ns3:TrackPointExtension>
        </extensions>
      </trkpt>
      <trkpt lat="52.15239490382373332977294921875" lon="1.4859271980822086334228515625">
        <ele>-203.399993896484375</ele>
        <time>2025-09-06T09:59:05.000Z</time>
        <extensions>
          <ns3:TrackPointExtension>
            <ns3:hr>176</ns3:hr>
            <ns3:cad>81</ns3:cad>
          </ns3:TrackPointExtension>
        </extensions>
      </trkpt>
      <trkpt lat="52.1525762043893337249755859375" lon="1.48587631992995738983154296875">
        <ele>-203.8000030517578125</ele>
        <time>2025-09-06T09:59:12.000Z</time>
        <extensions>
          <ns3:TrackPointExtension>
            <ns3:hr>175</ns3:hr>
            <ns3:cad>80</ns3:cad>
          </ns3:TrackPointExtension>
        </extensions>
      </trkpt>
      <trkpt lat="52.1526080556213855743408203125" lon="1.48586399853229522705078125">
        <ele>-204</ele>
        <time>2025-09-06T09:59:13.000Z</time>
        <extensions>
          <ns3:TrackPointExtension>
            <ns3:hr>174</ns3:hr>
            <ns3:cad>80</ns3:cad>
          </ns3:TrackPointExtension>
        </extensions>
      </trkpt>
      <trkpt lat="52.1527492068707942962646484375" lon="1.48580423556268215179443359375">
        <ele>-204.1999969482421875</ele>
        <time>2025-09-06T09:59:19.000Z</time>
        <extensions>
          <ns3:TrackPointExtension>
            <ns3:hr>174</ns3:hr>
            <ns3:cad>80</ns3:cad>
          </ns3:TrackPointExtension>
        </extensions>
      </trkpt>
      <trkpt lat="52.1528546512126922607421875" lon="1.4857582189142704010009765625">
        <ele>-204.399993896484375</ele>
        <time>2025-09-06T09:59:24.000Z</time>
        <extensions>
          <ns3:TrackPointExtension>
            <ns3:hr>173</ns3:hr>
            <ns3:cad>79</ns3:cad>
          </ns3:TrackPointExtension>
        </extensions>
      </trkpt>
      <trkpt lat="52.1528922021389007568359375" lon="1.48576366715133190155029296875">
        <ele>-204.399993896484375</ele>
        <time>2025-09-06T09:59:26.000Z</time>
        <extensions>
          <ns3:TrackPointExtension>
            <ns3:hr>175</ns3:hr>
            <ns3:cad>80</ns3:cad>
          </ns3:TrackPointExtension>
        </extensions>
      </trkpt>
      <trkpt lat="52.15306495316326618194580078125" lon="1.485744975507259368896484375">
        <ele>-204.8000030517578125</ele>
        <time>2025-09-06T09:59:34.000Z</time>
        <extensions>
          <ns3:TrackPointExtension>
            <ns3:hr>176</ns3:hr>
            <ns3:cad>79</ns3:cad>
          </ns3:TrackPointExtension>
        </extensions>
      </trkpt>
      <trkpt lat="52.153153717517852783203125" lon="1.4856408722698688507080078125">
        <ele>-205.1999969482421875</ele>
        <time>2025-09-06T09:59:42.000Z</time>
        <extensions>
          <ns3:TrackPointExtension>
            <ns3:hr>179</ns3:hr>
            <ns3:cad>81</ns3:cad>
          </ns3:TrackPointExtension>
        </extensions>
      </trkpt>
      <trkpt lat="52.15317576192319393157958984375" lon="1.4856140501797199249267578125">
        <ele>-205.399993896484375</ele>
        <time>2025-09-06T09:59:44.000Z</time>
        <extensions>
          <ns3:TrackPointExtension>
            <ns3:hr>177</ns3:hr>
            <ns3:cad>80</ns3:cad>
          </ns3:TrackPointExtension>
        </extensions>
      </trkpt>
      <trkpt lat="52.1532320044934749603271484375" lon="1.48554372601211071014404296875">
        <ele>-205.8000030517578125</ele>
        <time>2025-09-06T09:59:48.000Z</time>
        <extensions>
          <ns3:TrackPointExtension>
            <ns3:hr>173</ns3:hr>
            <ns3:cad>76</ns3:cad>
          </ns3:TrackPointExtension>
        </extensions>
      </trkpt>
      <trkpt lat="52.15327911078929901123046875" lon="1.4854940213263034820556640625">
        <ele>-206</ele>
        <time>2025-09-06T09:59:50.000Z</time>
        <extensions>
          <ns3:TrackPointExtension>
            <ns3:hr>172</ns3:hr>
            <ns3:cad>76</ns3:cad>
          </ns3:TrackPointExtension>
        </extensions>
      </trkpt>
      <trkpt lat="52.15334138832986354827880859375" lon="1.4854128845036029815673828125">
        <ele>-206.399993896484375</ele>
        <time>2025-09-06T09:59:54.000Z</time>
        <extensions>
          <ns3:TrackPointExtension>
            <ns3:hr>173</ns3:hr>
            <ns3:cad>78</ns3:cad>
          </ns3:TrackPointExtension>
        </extensions>
      </trkpt>
      <trkpt lat="52.1533895842730998992919921875" lon="1.48534096777439117431640625">
        <ele>-206.8000030517578125</ele>
        <time>2025-09-06T09:59:58.000Z</time>
        <extensions>
          <ns3:TrackPointExtension>
            <ns3:hr>174</ns3:hr>
            <ns3:cad>78</ns3:cad>
          </ns3:TrackPointExtension>
        </extensions>
      </trkpt>
      <trkpt lat="52.153526209294795989990234375" lon="1.485150195658206939697265625">
        <ele>-207.399993896484375</ele>
        <time>2025-09-06T10:00:06.000Z</time>
        <extensions>
          <ns3:TrackPointExtension>
            <ns3:hr>174</ns3:hr>
            <ns3:cad>80</ns3:cad>
          </ns3:TrackPointExtension>
        </extensions>
      </trkpt>
      <trkpt lat="52.1535357646644115447998046875" lon="1.4851436577737331390380859375">
        <ele>-207.399993896484375</ele>
        <time>2025-09-06T10:00:07.000Z</time>
        <extensions>
          <ns3:TrackPointExtension>
            <ns3:hr>175</ns3:hr>
            <ns3:cad>80</ns3:cad>
          </ns3:TrackPointExtension>
        </extensions>
      </trkpt>
      <trkpt lat="52.1535414643585681915283203125" lon="1.485131420195102691650390625">
        <ele>-207.600006103515625</ele>
        <time>2025-09-06T10:00:11.000Z</time>
        <extensions>
          <ns3:TrackPointExtension>
            <ns3:hr>174</ns3:hr>
            <ns3:cad>0</ns3:cad>
          </ns3:TrackPointExtension>
        </extensions>
      </trkpt>
      <trkpt lat="52.1535206772387027740478515625" lon="1.48513217456638813018798828125">
        <ele>-207.8000030517578125</ele>
        <time>2025-09-06T10:00:16.000Z</time>
        <extensions>
          <ns3:TrackPointExtension>
            <ns3:hr>171</ns3:hr>
            <ns3:cad>0</ns3:cad>
          </ns3:TrackPointExtension>
        </extensions>
      </trkpt>
      <trkpt lat="52.15353098697960376739501953125" lon="1.48508640937507152557373046875">
        <ele>-208</ele>
        <time>2025-09-06T10:00:21.000Z</time>
        <extensions>
          <ns3:TrackPointExtension>
            <ns3:hr>169</ns3:hr>
            <ns3:cad>0</ns3:cad>
          </ns3:TrackPointExtension>
        </extensions>
      </trkpt>
      <trkpt lat="52.1535679511725902557373046875" lon="1.485009379684925079345703125">
        <ele>-208</ele>
        <time>2025-09-06T10:00:25.000Z</time>
        <extensions>
          <ns3:TrackPointExtension>
            <ns3:hr>166</ns3:hr>
            <ns3:cad>75</ns3:cad>
          </ns3:TrackPointExtension>
        </extensions>
      </trkpt>
      <trkpt lat="52.15361748822033405303955078125" lon="1.48494978435337543487548828125">
        <ele>-208.1999969482421875</ele>
        <time>2025-09-06T10:00:28.000Z</time>
        <extensions>
          <ns3:TrackPointExtension>
            <ns3:hr>166</ns3:hr>
            <ns3:cad>78</ns3:cad>
          </ns3:TrackPointExtension>
        </extensions>
      </trkpt>
      <trkpt lat="52.15365235693752765655517578125" lon="1.48490888066589832305908203125">
        <ele>-208.1999969482421875</ele>
        <time>2025-09-06T10:00:30.000Z</time>
        <extensions>
          <ns3:TrackPointExtension>
            <ns3:hr>163</ns3:hr>
            <ns3:cad>79</ns3:cad>
          </ns3:TrackPointExtension>
        </extensions>
      </trkpt>
      <trkpt lat="52.153706587851047515869140625" lon="1.484861858189105987548828125">
        <ele>-208.399993896484375</ele>
        <time>2025-09-06T10:00:33.000Z</time>
        <extensions>
          <ns3:TrackPointExtension>
            <ns3:hr>161</ns3:hr>
            <ns3:cad>79</ns3:cad>
          </ns3:TrackPointExtension>
        </extensions>
      </trkpt>
      <trkpt lat="52.153766937553882598876953125" lon="1.48481885902583599090576171875">
        <ele>-208.8000030517578125</ele>
        <time>2025-09-06T10:00:36.000Z</time>
        <extensions>
          <ns3:TrackPointExtension>
            <ns3:hr>162</ns3:hr>
            <ns3:cad>78</ns3:cad>
          </ns3:TrackPointExtension>
        </extensions>
      </trkpt>
      <trkpt lat="52.15381957590579986572265625" lon="1.48480058647692203521728515625">
        <ele>-209</ele>
        <time>2025-09-06T10:00:38.000Z</time>
        <extensions>
          <ns3:TrackPointExtension>
            <ns3:hr>165</ns3:hr>
            <ns3:cad>79</ns3:cad>
          </ns3:TrackPointExtension>
        </extensions>
      </trkpt>
      <trkpt lat="52.1539156325161457061767578125" lon="1.48474685847759246826171875">
        <ele>-209.399993896484375</ele>
        <time>2025-09-06T10:00:43.000Z</time>
        <extensions>
          <ns3:TrackPointExtension>
            <ns3:hr>168</ns3:hr>
            <ns3:cad>79</ns3:cad>
          </ns3:TrackPointExtension>
        </extensions>
      </trkpt>
      <trkpt lat="52.153929211199283599853515625" lon="1.484734453260898590087890625">
        <ele>-209.600006103515625</ele>
        <time>2025-09-06T10:00:44.000Z</time>
        <extensions>
          <ns3:TrackPointExtension>
            <ns3:hr>167</ns3:hr>
            <ns3:cad>79</ns3:cad>
          </ns3:TrackPointExtension>
        </extensions>
      </trkpt>
      <trkpt lat="52.154009006917476654052734375" lon="1.48463713936507701873779296875">
        <ele>-210.1999969482421875</ele>
        <time>2025-09-06T10:00:49.000Z</time>
        <extensions>
          <ns3:TrackPointExtension>
            <ns3:hr>170</ns3:hr>
            <ns3:cad>80</ns3:cad>
          </ns3:TrackPointExtension>
        </extensions>
      </trkpt>
      <trkpt lat="52.154054604470729827880859375" lon="1.484578885138034820556640625">
        <ele>-210.600006103515625</ele>
        <time>2025-09-06T10:00:52.000Z</time>
        <extensions>
          <ns3:TrackPointExtension>
            <ns3:hr>170</ns3:hr>
            <ns3:cad>81</ns3:cad>
          </ns3:TrackPointExtension>
        </extensions>
      </trkpt>
      <trkpt lat="52.15406633913516998291015625" lon="1.48455818183720111846923828125">
        <ele>-210.8000030517578125</ele>
        <time>2025-09-06T10:00:53.000Z</time>
        <extensions>
          <ns3:TrackPointExtension>
            <ns3:hr>170</ns3:hr>
            <ns3:cad>81</ns3:cad>
          </ns3:TrackPointExtension>
        </extensions>
      </trkpt>
      <trkpt lat="52.15413934551179409027099609375" lon="1.4844073913991451263427734375">
        <ele>-211.8000030517578125</ele>
        <time>2025-09-06T10:01:01.000Z</time>
        <extensions>
          <ns3:TrackPointExtension>
            <ns3:hr>171</ns3:hr>
            <ns3:cad>80</ns3:cad>
          </ns3:TrackPointExtension>
        </extensions>
      </trkpt>
      <trkpt lat="52.15415074490010738372802734375" lon="1.48438920266926288604736328125">
        <ele>-211.8000030517578125</ele>
        <time>2025-09-06T10:01:02.000Z</time>
        <extensions>
          <ns3:TrackPointExtension>
            <ns3:hr>172</ns3:hr>
            <ns3:cad>80</ns3:cad>
          </ns3:TrackPointExtension>
        </extensions>
      </trkpt>
      <trkpt lat="52.1542864479124546051025390625" lon="1.48413707502186298370361328125">
        <ele>-212.600006103515625</ele>
        <time>2025-09-06T10:01:11.000Z</time>
        <extensions>
          <ns3:TrackPointExtension>
            <ns3:hr>172</ns3:hr>
            <ns3:cad>79</ns3:cad>
          </ns3:TrackPointExtension>
        </extensions>
      </trkpt>
      <trkpt lat="52.154314108192920684814453125" lon="1.4840905554592609405517578125">
        <ele>-212.8000030517578125</ele>
        <time>2025-09-06T10:01:13.000Z</time>
        <extensions>
          <ns3:TrackPointExtension>
            <ns3:hr>169</ns3:hr>
            <ns3:cad>78</ns3:cad>
          </ns3:TrackPointExtension>
        </extensions>
      </trkpt>
      <trkpt lat="52.15437487699091434478759765625" lon="1.4840251766145229339599609375">
        <ele>-213</ele>
        <time>2025-09-06T10:01:17.000Z</time>
        <extensions>
          <ns3:TrackPointExtension>
            <ns3:hr>165</ns3:hr>
            <ns3:cad>76</ns3:cad>
          </ns3:TrackPointExtension>
        </extensions>
      </trkpt>
      <trkpt lat="52.1544249169528484344482421875" lon="1.48398645222187042236328125">
        <ele>-213.1999969482421875</ele>
        <time>2025-09-06T10:01:19.000Z</time>
        <extensions>
          <ns3:TrackPointExtension>
            <ns3:hr>167</ns3:hr>
            <ns3:cad>79</ns3:cad>
          </ns3:TrackPointExtension>
        </extensions>
      </trkpt>
      <trkpt lat="52.15460906736552715301513671875" lon="1.4838779903948307037353515625">
        <ele>-213.600006103515625</ele>
        <time>2025-09-06T10:01:27.000Z</time>
        <extensions>
          <ns3:TrackPointExtension>
            <ns3:hr>166</ns3:hr>
            <ns3:cad>78</ns3:cad>
          </ns3:TrackPointExtension>
        </extensions>
      </trkpt>
      <trkpt lat="52.15464837849140167236328125" lon="1.4838491566479206085205078125">
        <ele>-213.8000030517578125</ele>
        <time>2025-09-06T10:01:29.000Z</time>
        <extensions>
          <ns3:TrackPointExtension>
            <ns3:hr>168</ns3:hr>
            <ns3:cad>79</ns3:cad>
          </ns3:TrackPointExtension>
        </extensions>
      </trkpt>
      <trkpt lat="52.15480201877653598785400390625" lon="1.48373994044959545135498046875">
        <ele>-214</ele>
        <time>2025-09-06T10:01:36.000Z</time>
        <extensions>
          <ns3:TrackPointExtension>
            <ns3:hr>165</ns3:hr>
            <ns3:cad>77</ns3:cad>
          </ns3:TrackPointExtension>
        </extensions>
      </trkpt>
      <trkpt lat="52.15481643564999103546142578125" lon="1.48370993323624134063720703125">
        <ele>-214</ele>
        <time>2025-09-06T10:01:37.000Z</time>
        <extensions>
          <ns3:TrackPointExtension>
            <ns3:hr>166</ns3:hr>
            <ns3:cad>76</ns3:cad>
          </ns3:TrackPointExtension>
        </extensions>
      </trkpt>
      <trkpt lat="52.15491986833512783050537109375" lon="1.4835759066045284271240234375">
        <ele>-214.399993896484375</ele>
        <time>2025-09-06T10:01:44.000Z</time>
        <extensions>
          <ns3:TrackPointExtension>
            <ns3:hr>167</ns3:hr>
            <ns3:cad>80</ns3:cad>
          </ns3:TrackPointExtension>
        </extensions>
      </trkpt>
      <trkpt lat="52.15504995547235012054443359375" lon="1.48344154469668865203857421875">
        <ele>-214.399993896484375</ele>
        <time>2025-09-06T10:01:51.000Z</time>
        <extensions>
          <ns3:TrackPointExtension>
            <ns3:hr>167</ns3:hr>
            <ns3:cad>80</ns3:cad>
          </ns3:TrackPointExtension>
        </extensions>
      </trkpt>
      <trkpt lat="52.15518054552376270294189453125" lon="1.483290083706378936767578125">
        <ele>-214.600006103515625</ele>
        <time>2025-09-06T10:01:59.000Z</time>
        <extensions>
          <ns3:TrackPointExtension>
            <ns3:hr>164</ns3:hr>
            <ns3:cad>78</ns3:cad>
          </ns3:TrackPointExtension>
        </extensions>
      </trkpt>
      <trkpt lat="52.1551920287311077117919921875" lon="1.48328161798417568206787109375">
        <ele>-214.600006103515625</ele>
        <time>2025-09-06T10:02:00.000Z</time>
        <extensions>
          <ns3:TrackPointExtension>
            <ns3:hr>163</ns3:hr>
            <ns3:cad>79</ns3:cad>
          </ns3:TrackPointExtension>
        </extensions>
      </trkpt>
      <trkpt lat="52.15521859936416149139404296875" lon="1.4832530356943607330322265625">
        <ele>-214.600006103515625</ele>
        <time>2025-09-06T10:02:02.000Z</time>
        <extensions>
          <ns3:TrackPointExtension>
            <ns3:hr>166</ns3:hr>
            <ns3:cad>79</ns3:cad>
          </ns3:TrackPointExtension>
        </extensions>
      </trkpt>
      <trkpt lat="52.1552875824272632598876953125" lon="1.48312336765229701995849609375">
        <ele>-214.399993896484375</ele>
        <time>2025-09-06T10:02:08.000Z</time>
        <extensions>
          <ns3:TrackPointExtension>
            <ns3:hr>162</ns3:hr>
            <ns3:cad>79</ns3:cad>
          </ns3:TrackPointExtension>
        </extensions>
      </trkpt>
      <trkpt lat="52.1553016640245914459228515625" lon="1.48309989832341670989990234375">
        <ele>-214.399993896484375</ele>
        <time>2025-09-06T10:02:09.000Z</time>
        <extensions>
          <ns3:TrackPointExtension>
            <ns3:hr>164</ns3:hr>
            <ns3:cad>79</ns3:cad>
          </ns3:TrackPointExtension>
        </extensions>
      </trkpt>
      <trkpt lat="52.15546754188835620880126953125" lon="1.48295204155147075653076171875">
        <ele>-214</ele>
        <time>2025-09-06T10:02:16.000Z</time>
        <extensions>
          <ns3:TrackPointExtension>
            <ns3:hr>166</ns3:hr>
            <ns3:cad>80</ns3:cad>
          </ns3:TrackPointExtension>
        </extensions>
      </trkpt>
      <trkpt lat="52.15547760017216205596923828125" lon="1.4829375408589839935302734375">
        <ele>-214</ele>
        <time>2025-09-06T10:02:17.000Z</time>
        <extensions>
          <ns3:TrackPointExtension>
            <ns3:hr>166</ns3:hr>
            <ns3:cad>80</ns3:cad>
          </ns3:TrackPointExtension>
        </extensions>
      </trkpt>
      <trkpt lat="52.155625708401203155517578125" lon="1.4827564917504787445068359375">
        <ele>-213.8000030517578125</ele>
        <time>2025-09-06T10:02:24.000Z</time>
        <extensions>
          <ns3:TrackPointExtension>
            <ns3:hr>164</ns3:hr>
            <ns3:cad>79</ns3:cad>
          </ns3:TrackPointExtension>
        </extensions>
      </trkpt>
      <trkpt lat="52.15569980442523956298828125" lon="1.48267996497452259063720703125">
        <ele>-213.8000030517578125</ele>
        <time>2025-09-06T10:02:27.000Z</time>
        <extensions>
          <ns3:TrackPointExtension>
            <ns3:hr>161</ns3:hr>
            <ns3:cad>77</ns3:cad>
          </ns3:TrackPointExtension>
        </extensions>
      </trkpt>
      <trkpt lat="52.1557522751390933990478515625" lon="1.48264400660991668701171875">
        <ele>-213.8000030517578125</ele>
        <time>2025-09-06T10:02:33.000Z</time>
        <extensions>
          <ns3:TrackPointExtension>
            <ns3:hr>161</ns3:hr>
            <ns3:cad>0</ns3:cad>
          </ns3:TrackPointExtension>
        </extensions>
      </trkpt>
      <trkpt lat="52.1558092720806598663330078125" lon="1.48256546817719936370849609375">
        <ele>-213.8000030517578125</ele>
        <time>2025-09-06T10:02:40.000Z</time>
        <extensions>
          <ns3:TrackPointExtension>
            <ns3:hr>166</ns3:hr>
            <ns3:cad>0</ns3:cad>
          </ns3:TrackPointExtension>
        </extensions>
      </trkpt>
      <trkpt lat="52.15588697232306003570556640625" lon="1.4825234748423099517822265625">
        <ele>-214.1999969482421875</ele>
        <time>2025-09-06T10:02:46.000Z</time>
        <extensions>
          <ns3:TrackPointExtension>
            <ns3:hr>164</ns3:hr>
            <ns3:cad>48</ns3:cad>
          </ns3:TrackPointExtension>
        </extensions>
      </trkpt>
      <trkpt lat="52.1559051610529422760009765625" lon="1.48251819424331188201904296875">
        <ele>-214.600006103515625</ele>
        <time>2025-09-06T10:02:48.000Z</time>
        <extensions>
          <ns3:TrackPointExtension>
            <ns3:hr>161</ns3:hr>
            <ns3:cad>0</ns3:cad>
          </ns3:TrackPointExtension>
        </extensions>
      </trkpt>
      <trkpt lat="52.155921757221221923828125" lon="1.482513584196567535400390625">
        <ele>-214.8000030517578125</ele>
        <time>2025-09-06T10:02:50.000Z</time>
        <extensions>
          <ns3:TrackPointExtension>
            <ns3:hr>161</ns3:hr>
            <ns3:cad>0</ns3:cad>
          </ns3:TrackPointExtension>
        </extensions>
      </trkpt>
      <trkpt lat="52.15596592985093593597412109375" lon="1.482478044927120208740234375">
        <ele>-215.8000030517578125</ele>
        <time>2025-09-06T10:02:55.000Z</time>
        <extensions>
          <ns3:TrackPointExtension>
            <ns3:hr>159</ns3:hr>
            <ns3:cad>47</ns3:cad>
          </ns3:TrackPointExtension>
        </extensions>
      </trkpt>
      <trkpt lat="52.1559748984873294830322265625" lon="1.48245834745466709136962890625">
        <ele>-216</ele>
        <time>2025-09-06T10:02:56.000Z</time>
        <extensions>
          <ns3:TrackPointExtension>
            <ns3:hr>159</ns3:hr>
            <ns3:cad>46</ns3:cad>
          </ns3:TrackPointExtension>
        </extensions>
      </trkpt>
      <trkpt lat="52.1559980325400829315185546875" lon="1.48235256783664226531982421875">
        <ele>-217</ele>
        <time>2025-09-06T10:03:00.000Z</time>
        <extensions>
          <ns3:TrackPointExtension>
            <ns3:hr>158</ns3:hr>
            <ns3:cad>0</ns3:cad>
          </ns3:TrackPointExtension>
        </extensions>
      </trkpt>
      <trkpt lat="52.1560124494135379791259765625" lon="1.48234250955283641815185546875">
        <ele>-218.1999969482421875</ele>
        <time>2025-09-06T10:03:04.000Z</time>
        <extensions>
          <ns3:TrackPointExtension>
            <ns3:hr>159</ns3:hr>
            <ns3:cad>0</ns3:cad>
          </ns3:TrackPointExtension>
        </extensions>
      </trkpt>
      <trkpt lat="52.15598939917981624603271484375" lon="1.4823756180703639984130859375">
        <ele>-219.399993896484375</ele>
        <time>2025-09-06T10:03:08.000Z</time>
        <extensions>
          <ns3:TrackPointExtension>
            <ns3:hr>158</ns3:hr>
            <ns3:cad>0</ns3:cad>
          </ns3:TrackPointExtension>
        </extensions>
      </trkpt>
      <trkpt lat="52.1559916622936725616455078125" lon="1.4823581837117671966552734375">
        <ele>-220.399993896484375</ele>
        <time>2025-09-06T10:03:11.000Z</time>
        <extensions>
          <ns3:TrackPointExtension>
            <ns3:hr>156</ns3:hr>
            <ns3:cad>0</ns3:cad>
          </ns3:TrackPointExtension>
        </extensions>
      </trkpt>
      <trkpt lat="52.1560057438910007476806640625" lon="1.482301019132137298583984375">
        <ele>-221.600006103515625</ele>
        <time>2025-09-06T10:03:15.000Z</time>
        <extensions>
          <ns3:TrackPointExtension>
            <ns3:hr>153</ns3:hr>
            <ns3:cad>0</ns3:cad>
          </ns3:TrackPointExtension>
        </extensions>
      </trkpt>
      <trkpt lat="52.1560064144432544708251953125" lon="1.48227646015584468841552734375">
        <ele>-222.8000030517578125</ele>
        <time>2025-09-06T10:03:19.000Z</time>
        <extensions>
          <ns3:TrackPointExtension>
            <ns3:hr>152</ns3:hr>
            <ns3:cad>0</ns3:cad>
          </ns3:TrackPointExtension>
        </extensions>
      </trkpt>
      <trkpt lat="52.15602569282054901123046875" lon="1.48224703967571258544921875">
        <ele>-223.8000030517578125</ele>
        <time>2025-09-06T10:03:23.000Z</time>
        <extensions>
          <ns3:TrackPointExtension>
            <ns3:hr>150</ns3:hr>
            <ns3:cad>0</ns3:cad>
          </ns3:TrackPointExtension>
        </extensions>
      </trkpt>
      <trkpt lat="52.15603432618081569671630859375" lon="1.482231616973876953125">
        <ele>-224.399993896484375</ele>
        <time>2025-09-06T10:03:27.000Z</time>
        <extensions>
          <ns3:TrackPointExtension>
            <ns3:hr>150</ns3:hr>
            <ns3:cad>0</ns3:cad>
          </ns3:TrackPointExtension>
        </extensions>
      </trkpt>
      <trkpt lat="52.1560329012572765350341796875" lon="1.48224611766636371612548828125">
        <ele>-224.399993896484375</ele>
        <time>2025-09-06T10:03:32.000Z</time>
        <extensions>
          <ns3:TrackPointExtension>
            <ns3:hr>147</ns3:hr>
            <ns3:cad>0</ns3:cad>
          </ns3:TrackPointExtension>
        </extensions>
      </trkpt>
      <trkpt lat="52.1560573764145374298095703125" lon="1.48226120509207248687744140625">
        <ele>-224.600006103515625</ele>
        <time>2025-09-06T10:03:38.000Z</time>
        <extensions>
          <ns3:TrackPointExtension>
            <ns3:hr>146</ns3:hr>
            <ns3:cad>47</ns3:cad>
          </ns3:TrackPointExtension>
        </extensions>
      </trkpt>
      <trkpt lat="52.156076319515705108642578125" lon="1.48224947042763233184814453125">
        <ele>-225</ele>
        <time>2025-09-06T10:03:45.000Z</time>
        <extensions>
          <ns3:TrackPointExtension>
            <ns3:hr>145</ns3:hr>
            <ns3:cad>0</ns3:cad>
          </ns3:TrackPointExtension>
        </extensions>
      </trkpt>
      <trkpt lat="52.15610791929066181182861328125" lon="1.4822267554700374603271484375">
        <ele>-225.1999969482421875</ele>
        <time>2025-09-06T10:03:52.000Z</time>
        <extensions>
          <ns3:TrackPointExtension>
            <ns3:hr>142</ns3:hr>
            <ns3:cad>0</ns3:cad>
          </ns3:TrackPointExtension>
        </extensions>
      </trkpt>
      <trkpt lat="52.1561425365507602691650390625" lon="1.482206471264362335205078125">
        <ele>-225.1999969482421875</ele>
        <time>2025-09-06T10:03:59.000Z</time>
        <extensions>
          <ns3:TrackPointExtension>
            <ns3:hr>141</ns3:hr>
            <ns3:cad>0</ns3:cad>
          </ns3:TrackPointExtension>
        </extensions>
      </trkpt>
      <trkpt lat="52.1561780758202075958251953125" lon="1.482132039964199066162109375">
        <ele>-225.399993896484375</ele>
        <time>2025-09-06T10:04:04.000Z</time>
        <extensions>
          <ns3:TrackPointExtension>
            <ns3:hr>137</ns3:hr>
            <ns3:cad>0</ns3:cad>
          </ns3:TrackPointExtension>
        </extensions>
      </trkpt>
      <trkpt lat="52.15618704445660114288330078125" lon="1.48212231695652008056640625">
        <ele>-225.600006103515625</ele>
        <time>2025-09-06T10:04:05.000Z</time>
        <extensions>
          <ns3:TrackPointExtension>
            <ns3:hr>138</ns3:hr>
            <ns3:cad>0</ns3:cad>
          </ns3:TrackPointExtension>
        </extensions>
      </trkpt>
      <trkpt lat="52.15620146133005619049072265625" lon="1.482108570635318756103515625">
        <ele>-226</ele>
        <time>2025-09-06T10:04:07.000Z</time>
        <extensions>
          <ns3:TrackPointExtension>
            <ns3:hr>139</ns3:hr>
            <ns3:cad>0</ns3:cad>
          </ns3:TrackPointExtension>
        </extensions>
      </trkpt>
      <trkpt lat="52.156217806041240692138671875" lon="1.48207546211779117584228515625">
        <ele>-227.1999969482421875</ele>
        <time>2025-09-06T10:04:12.000Z</time>
        <extensions>
          <ns3:TrackPointExtension>
            <ns3:hr>139</ns3:hr>
            <ns3:cad>0</ns3:cad>
          </ns3:TrackPointExtension>
        </extensions>
      </trkpt>
      <trkpt lat="52.1562491543591022491455078125" lon="1.48204981349408626556396484375">
        <ele>-228.399993896484375</ele>
        <time>2025-09-06T10:04:17.000Z</time>
        <extensions>
          <ns3:TrackPointExtension>
            <ns3:hr>137</ns3:hr>
            <ns3:cad>53</ns3:cad>
          </ns3:TrackPointExtension>
        </extensions>
      </trkpt>
      <trkpt lat="52.15627304278314113616943359375" lon="1.48203187622129917144775390625">
        <ele>-229</ele>
        <time>2025-09-06T10:04:20.000Z</time>
        <extensions>
          <ns3:TrackPointExtension>
            <ns3:hr>137</ns3:hr>
            <ns3:cad>0</ns3:cad>
          </ns3:TrackPointExtension>
        </extensions>
      </trkpt>
      <trkpt lat="52.15630154125392436981201171875" lon="1.48199499584734439849853515625">
        <ele>-229.600006103515625</ele>
        <time>2025-09-06T10:04:23.000Z</time>
        <extensions>
          <ns3:TrackPointExtension>
            <ns3:hr>136</ns3:hr>
            <ns3:cad>0</ns3:cad>
          </ns3:TrackPointExtension>
        </extensions>
      </trkpt>
      <trkpt lat="52.15638854540884494781494140625" lon="1.48188753984868526458740234375">
        <ele>-230.600006103515625</ele>
        <time>2025-09-06T10:04:29.000Z</time>
        <extensions>
          <ns3:TrackPointExtension>
            <ns3:hr>138</ns3:hr>
            <ns3:cad>58</ns3:cad>
          </ns3:TrackPointExtension>
        </extensions>
      </trkpt>
      <trkpt lat="52.1564848534762859344482421875" lon="1.481781341135501861572265625">
        <ele>-231.600006103515625</ele>
        <time>2025-09-06T10:04:35.000Z</time>
        <extensions>
          <ns3:TrackPointExtension>
            <ns3:hr>134</ns3:hr>
            <ns3:cad>75</ns3:cad>
          </ns3:TrackPointExtension>
        </extensions>
      </trkpt>
      <trkpt lat="52.15654310770332813262939453125" lon="1.48170749656856060028076171875">
        <ele>-232.1999969482421875</ele>
        <time>2025-09-06T10:04:39.000Z</time>
        <extensions>
          <ns3:TrackPointExtension>
            <ns3:hr>136</ns3:hr>
            <ns3:cad>78</ns3:cad>
          </ns3:TrackPointExtension>
        </extensions>
      </trkpt>
      <trkpt lat="52.15657889842987060546875" lon="1.48167581297457218170166015625">
        <ele>-232.600006103515625</ele>
        <time>2025-09-06T10:04:42.000Z</time>
        <extensions>
          <ns3:TrackPointExtension>
            <ns3:hr>139</ns3:hr>
            <ns3:cad>78</ns3:cad>
          </ns3:TrackPointExtension>
        </extensions>
      </trkpt>
      <trkpt lat="52.156596668064594268798828125" lon="1.4816638268530368804931640625">
        <ele>-232.8000030517578125</ele>
        <time>2025-09-06T10:04:43.000Z</time>
        <extensions>
          <ns3:TrackPointExtension>
            <ns3:hr>140</ns3:hr>
            <ns3:cad>79</ns3:cad>
          </ns3:TrackPointExtension>
        </extensions>
      </trkpt>
      <trkpt lat="52.15663882903754711151123046875" lon="1.4816302992403507232666015625">
        <ele>-233</ele>
        <time>2025-09-06T10:04:46.000Z</time>
        <extensions>
          <ns3:TrackPointExtension>
            <ns3:hr>143</ns3:hr>
            <ns3:cad>0</ns3:cad>
          </ns3:TrackPointExtension>
        </extensions>
      </trkpt>
      <trkpt lat="52.156644947826862335205078125" lon="1.48162635974586009979248046875">
        <ele>-233</ele>
        <time>2025-09-06T10:04:47.000Z</time>
        <extensions>
          <ns3:TrackPointExtension>
            <ns3:hr>144</ns3:hr>
            <ns3:cad>0</ns3:cad>
          </ns3:TrackPointExtension>
        </extensions>
      </trkpt>
      <trkpt lat="52.1566568501293659210205078125" lon="1.4815919101238250732421875">
        <ele>-233.1999969482421875</ele>
        <time>2025-09-06T10:04:49.000Z</time>
        <extensions>
          <ns3:TrackPointExtension>
            <ns3:hr>147</ns3:hr>
            <ns3:cad>0</ns3:cad>
          </ns3:TrackPointExtension>
        </extensions>
      </trkpt>
      <trkpt lat="52.156675793230533599853515625" lon="1.4815541915595531463623046875">
        <ele>-233.600006103515625</ele>
        <time>2025-09-06T10:04:52.000Z</time>
        <extensions>
          <ns3:TrackPointExtension>
            <ns3:hr>150</ns3:hr>
            <ns3:cad>0</ns3:cad>
          </ns3:TrackPointExtension>
        </extensions>
      </trkpt>
      <trkpt lat="52.15667537413537502288818359375" lon="1.48153466172516345977783203125">
        <ele>-233.600006103515625</ele>
        <time>2025-09-06T10:04:54.000Z</time>
        <extensions>
          <ns3:TrackPointExtension>
            <ns3:hr>153</ns3:hr>
            <ns3:cad>0</ns3:cad>
          </ns3:TrackPointExtension>
        </extensions>
      </trkpt>
      <trkpt lat="52.15666548348963260650634765625" lon="1.481532566249370574951171875">
        <ele>-233.8000030517578125</ele>
        <time>2025-09-06T10:04:55.000Z</time>
        <extensions>
          <ns3:TrackPointExtension>
            <ns3:hr>154</ns3:hr>
            <ns3:cad>0</ns3:cad>
          </ns3:TrackPointExtension>
        </extensions>
      </trkpt>
      <trkpt lat="52.15664084069430828094482421875" lon="1.48153466172516345977783203125">
        <ele>-234</ele>
        <time>2025-09-06T10:04:58.000Z</time>
        <extensions>
          <ns3:TrackPointExtension>
            <ns3:hr>157</ns3:hr>
            <ns3:cad>0</ns3:cad>
          </ns3:TrackPointExtension>
        </extensions>
      </trkpt>
      <trkpt lat="52.15664654038846492767333984375" lon="1.4815357513725757598876953125">
        <ele>-234.399993896484375</ele>
        <time>2025-09-06T10:05:03.000Z</time>
        <extensions>
          <ns3:TrackPointExtension>
            <ns3:hr>155</ns3:hr>
            <ns3:cad>0</ns3:cad>
          </ns3:TrackPointExtension>
        </extensions>
      </trkpt>
      <trkpt lat="52.156673111021518707275390625" lon="1.4815256930887699127197265625">
        <ele>-234.8000030517578125</ele>
        <time>2025-09-06T10:05:07.000Z</time>
        <extensions>
          <ns3:TrackPointExtension>
            <ns3:hr>152</ns3:hr>
            <ns3:cad>43</ns3:cad>
          </ns3:TrackPointExtension>
        </extensions>
      </trkpt>
      <trkpt lat="52.156727425754070281982421875" lon="1.4814619906246662139892578125">
        <ele>-235.1999969482421875</ele>
        <time>2025-09-06T10:05:11.000Z</time>
        <extensions>
          <ns3:TrackPointExtension>
            <ns3:hr>151</ns3:hr>
            <ns3:cad>68</ns3:cad>
          </ns3:TrackPointExtension>
        </extensions>
      </trkpt>
      <trkpt lat="52.15686212293803691864013671875" lon="1.48134707473218441009521484375">
        <ele>-235.600006103515625</ele>
        <time>2025-09-06T10:05:18.000Z</time>
        <extensions>
          <ns3:TrackPointExtension>
            <ns3:hr>154</ns3:hr>
            <ns3:cad>76</ns3:cad>
          </ns3:TrackPointExtension>
        </extensions>
      </trkpt>
      <trkpt lat="52.15692029334604740142822265625" lon="1.4813070930540561676025390625">
        <ele>-235.8000030517578125</ele>
        <time>2025-09-06T10:05:21.000Z</time>
        <extensions>
          <ns3:TrackPointExtension>
            <ns3:hr>157</ns3:hr>
            <ns3:cad>75</ns3:cad>
          </ns3:TrackPointExtension>
        </extensions>
      </trkpt>
      <trkpt lat="52.1569384820759296417236328125" lon="1.48127742111682891845703125">
        <ele>-236</ele>
        <time>2025-09-06T10:05:22.000Z</time>
        <extensions>
          <ns3:TrackPointExtension>
            <ns3:hr>158</ns3:hr>
            <ns3:cad>76</ns3:cad>
          </ns3:TrackPointExtension>
        </extensions>
      </trkpt>
      <trkpt lat="52.15699807740747928619384765625" lon="1.48120022378861904144287109375">
        <ele>-236.1999969482421875</ele>
        <time>2025-09-06T10:05:25.000Z</time>
        <extensions>
          <ns3:TrackPointExtension>
            <ns3:hr>161</ns3:hr>
            <ns3:cad>78</ns3:cad>
          </ns3:TrackPointExtension>
        </extensions>
      </trkpt>
      <trkpt lat="52.1570816449820995330810546875" lon="1.4811424724757671356201171875">
        <ele>-236.8000030517578125</ele>
        <time>2025-09-06T10:05:30.000Z</time>
        <extensions>
          <ns3:TrackPointExtension>
            <ns3:hr>163</ns3:hr>
            <ns3:cad>77</ns3:cad>
          </ns3:TrackPointExtension>
        </extensions>
      </trkpt>
      <trkpt lat="52.15709916315972805023193359375" lon="1.48112713359296321868896484375">
        <ele>-237</ele>
        <time>2025-09-06T10:05:31.000Z</time>
        <extensions>
          <ns3:TrackPointExtension>
            <ns3:hr>160</ns3:hr>
            <ns3:cad>78</ns3:cad>
          </ns3:TrackPointExtension>
        </extensions>
      </trkpt>
      <trkpt lat="52.15723059140145778656005859375" lon="1.4810328371822834014892578125">
        <ele>-237.600006103515625</ele>
        <time>2025-09-06T10:05:37.000Z</time>
        <extensions>
          <ns3:TrackPointExtension>
            <ns3:hr>160</ns3:hr>
            <ns3:cad>78</ns3:cad>
          </ns3:TrackPointExtension>
        </extensions>
      </trkpt>
      <trkpt lat="52.15731038711965084075927734375" lon="1.4808843098580837249755859375">
        <ele>-238</ele>
        <time>2025-09-06T10:05:43.000Z</time>
        <extensions>
          <ns3:TrackPointExtension>
            <ns3:hr>163</ns3:hr>
            <ns3:cad>78</ns3:cad>
          </ns3:TrackPointExtension>
        </extensions>
      </trkpt>
      <trkpt lat="52.1573217026889324188232421875" lon="1.4808544702827930450439453125">
        <ele>-238</ele>
        <time>2025-09-06T10:05:44.000Z</time>
        <extensions>
          <ns3:TrackPointExtension>
            <ns3:hr>164</ns3:hr>
            <ns3:cad>80</ns3:cad>
          </ns3:TrackPointExtension>
        </extensions>
      </trkpt>
      <trkpt lat="52.15743225999176502227783203125" lon="1.4806606806814670562744140625">
        <ele>-238.1999969482421875</ele>
        <time>2025-09-06T10:05:51.000Z</time>
        <extensions>
          <ns3:TrackPointExtension>
            <ns3:hr>161</ns3:hr>
            <ns3:cad>78</ns3:cad>
          </ns3:TrackPointExtension>
        </extensions>
      </trkpt>
      <trkpt lat="52.15743242762982845306396484375" lon="1.48065104149281978607177734375">
        <ele>-238.1999969482421875</ele>
        <time>2025-09-06T10:05:52.000Z</time>
        <extensions>
          <ns3:TrackPointExtension>
            <ns3:hr>163</ns3:hr>
            <ns3:cad>78</ns3:cad>
          </ns3:TrackPointExtension>
        </extensions>
      </trkpt>
      <trkpt lat="52.1574745886027812957763671875" lon="1.48054727353155612945556640625">
        <ele>-238.8000030517578125</ele>
        <time>2025-09-06T10:06:00.000Z</time>
        <extensions>
          <ns3:TrackPointExtension>
            <ns3:hr>163</ns3:hr>
            <ns3:cad>0</ns3:cad>
          </ns3:TrackPointExtension>
        </extensions>
      </trkpt>
      <trkpt lat="52.157496549189090728759765625" lon="1.48050972260534763336181640625">
        <ele>-239</ele>
        <time>2025-09-06T10:06:03.000Z</time>
        <extensions>
          <ns3:TrackPointExtension>
            <ns3:hr>161</ns3:hr>
            <ns3:cad>0</ns3:cad>
          </ns3:TrackPointExtension>
        </extensions>
      </trkpt>
      <trkpt lat="52.15753368102014064788818359375" lon="1.4804699085652828216552734375">
        <ele>-239.8000030517578125</ele>
        <time>2025-09-06T10:06:08.000Z</time>
        <extensions>
          <ns3:TrackPointExtension>
            <ns3:hr>159</ns3:hr>
            <ns3:cad>53</ns3:cad>
          </ns3:TrackPointExtension>
        </extensions>
      </trkpt>
      <trkpt lat="52.15756486169993877410888671875" lon="1.480446942150592803955078125">
        <ele>-240</ele>
        <time>2025-09-06T10:06:10.000Z</time>
        <extensions>
          <ns3:TrackPointExtension>
            <ns3:hr>158</ns3:hr>
            <ns3:cad>53</ns3:cad>
          </ns3:TrackPointExtension>
        </extensions>
      </trkpt>
      <trkpt lat="52.15758933685719966888427734375" lon="1.48042523302137851715087890625">
        <ele>-240.399993896484375</ele>
        <time>2025-09-06T10:06:12.000Z</time>
        <extensions>
          <ns3:TrackPointExtension>
            <ns3:hr>155</ns3:hr>
            <ns3:cad>53</ns3:cad>
          </ns3:TrackPointExtension>
        </extensions>
      </trkpt>
      <trkpt lat="52.1576194278895854949951171875" lon="1.48038650862872600555419921875">
        <ele>-241</ele>
        <time>2025-09-06T10:06:16.000Z</time>
        <extensions>
          <ns3:TrackPointExtension>
            <ns3:hr>155</ns3:hr>
            <ns3:cad>67</ns3:cad>
          </ns3:TrackPointExtension>
        </extensions>
      </trkpt>
      <trkpt lat="52.15762965381145477294921875" lon="1.4803803898394107818603515625">
        <ele>-241.1999969482421875</ele>
        <time>2025-09-06T10:06:17.000Z</time>
        <extensions>
          <ns3:TrackPointExtension>
            <ns3:hr>154</ns3:hr>
            <ns3:cad>67</ns3:cad>
          </ns3:TrackPointExtension>
        </extensions>
      </trkpt>
      <trkpt lat="52.15769612230360507965087890625" lon="1.480296738445758819580078125">
        <ele>-242.1999969482421875</ele>
        <time>2025-09-06T10:06:23.000Z</time>
        <extensions>
          <ns3:TrackPointExtension>
            <ns3:hr>152</ns3:hr>
            <ns3:cad>0</ns3:cad>
          </ns3:TrackPointExtension>
        </extensions>
      </trkpt>
      <trkpt lat="52.15771012008190155029296875" lon="1.48027963936328887939453125">
        <ele>-242.399993896484375</ele>
        <time>2025-09-06T10:06:24.000Z</time>
        <extensions>
          <ns3:TrackPointExtension>
            <ns3:hr>151</ns3:hr>
            <ns3:cad>0</ns3:cad>
          </ns3:TrackPointExtension>
        </extensions>
      </trkpt>
      <trkpt lat="52.1578006446361541748046875" lon="1.48016355000436305999755859375">
        <ele>-243.1999969482421875</ele>
        <time>2025-09-06T10:06:30.000Z</time>
        <extensions>
          <ns3:TrackPointExtension>
            <ns3:hr>148</ns3:hr>
            <ns3:cad>55</ns3:cad>
          </ns3:TrackPointExtension>
        </extensions>
      </trkpt>
      <trkpt lat="52.1578195877373218536376953125" lon="1.48014209233224391937255859375">
        <ele>-243.399993896484375</ele>
        <time>2025-09-06T10:06:31.000Z</time>
        <extensions>
          <ns3:TrackPointExtension>
            <ns3:hr>148</ns3:hr>
            <ns3:cad>55</ns3:cad>
          </ns3:TrackPointExtension>
        </extensions>
      </trkpt>
      <trkpt lat="52.157848589122295379638671875" lon="1.48010655306279659271240234375">
        <ele>-243.600006103515625</ele>
        <time>2025-09-06T10:06:33.000Z</time>
        <extensions>
          <ns3:TrackPointExtension>
            <ns3:hr>148</ns3:hr>
            <ns3:cad>57</ns3:cad>
          </ns3:TrackPointExtension>
        </extensions>
      </trkpt>
      <trkpt lat="52.157883457839488983154296875" lon="1.48004318587481975555419921875">
        <ele>-244.1999969482421875</ele>
        <time>2025-09-06T10:06:37.000Z</time>
        <extensions>
          <ns3:TrackPointExtension>
            <ns3:hr>145</ns3:hr>
            <ns3:cad>0</ns3:cad>
          </ns3:TrackPointExtension>
        </extensions>
      </trkpt>
      <trkpt lat="52.15790566988289356231689453125" lon="1.48001602850854396820068359375">
        <ele>-244.399993896484375</ele>
        <time>2025-09-06T10:06:39.000Z</time>
        <extensions>
          <ns3:TrackPointExtension>
            <ns3:hr>146</ns3:hr>
            <ns3:cad>0</ns3:cad>
          </ns3:TrackPointExtension>
        </extensions>
      </trkpt>
      <trkpt lat="52.15791488997638225555419921875" lon="1.48000345565378665924072265625">
        <ele>-244.399993896484375</ele>
        <time>2025-09-06T10:06:40.000Z</time>
        <extensions>
          <ns3:TrackPointExtension>
            <ns3:hr>145</ns3:hr>
            <ns3:cad>0</ns3:cad>
          </ns3:TrackPointExtension>
        </extensions>
      </trkpt>
      <trkpt lat="52.157928384840488433837890625" lon="1.479982919991016387939453125">
        <ele>-244.8000030517578125</ele>
        <time>2025-09-06T10:06:42.000Z</time>
        <extensions>
          <ns3:TrackPointExtension>
            <ns3:hr>142</ns3:hr>
            <ns3:cad>0</ns3:cad>
          </ns3:TrackPointExtension>
        </extensions>
      </trkpt>
      <trkpt lat="52.1579803526401519775390625" lon="1.4799270965158939361572265625">
        <ele>-245.1999969482421875</ele>
        <time>2025-09-06T10:06:46.000Z</time>
        <extensions>
          <ns3:TrackPointExtension>
            <ns3:hr>139</ns3:hr>
            <ns3:cad>0</ns3:cad>
          </ns3:TrackPointExtension>
        </extensions>
      </trkpt>
      <trkpt lat="52.15799585916101932525634765625" lon="1.4799136854708194732666015625">
        <ele>-245.399993896484375</ele>
        <time>2025-09-06T10:06:47.000Z</time>
        <extensions>
          <ns3:TrackPointExtension>
            <ns3:hr>140</ns3:hr>
            <ns3:cad>0</ns3:cad>
          </ns3:TrackPointExtension>
        </extensions>
      </trkpt>
      <trkpt lat="52.15804179199039936065673828125" lon="1.479827351868152618408203125">
        <ele>-246.1999969482421875</ele>
        <time>2025-09-06T10:06:53.000Z</time>
        <extensions>
          <ns3:TrackPointExtension>
            <ns3:hr>145</ns3:hr>
            <ns3:cad>0</ns3:cad>
          </ns3:TrackPointExtension>
        </extensions>
      </trkpt>
      <trkpt lat="52.1580593101680278778076171875" lon="1.47979952394962310791015625">
        <ele>-246.399993896484375</ele>
        <time>2025-09-06T10:06:55.000Z</time>
        <extensions>
          <ns3:TrackPointExtension>
            <ns3:hr>149</ns3:hr>
            <ns3:cad>51</ns3:cad>
          </ns3:TrackPointExtension>
        </extensions>
      </trkpt>
      <trkpt lat="52.15807012282311916351318359375" lon="1.4797879569232463836669921875">
        <ele>-246.399993896484375</ele>
        <time>2025-09-06T10:06:56.000Z</time>
        <extensions>
          <ns3:TrackPointExtension>
            <ns3:hr>149</ns3:hr>
            <ns3:cad>0</ns3:cad>
          </ns3:TrackPointExtension>
        </extensions>
      </trkpt>
      <trkpt lat="52.15811588801443576812744140625" lon="1.47974244318902492523193359375">
        <ele>-246.8000030517578125</ele>
        <time>2025-09-06T10:06:59.000Z</time>
        <extensions>
          <ns3:TrackPointExtension>
            <ns3:hr>152</ns3:hr>
            <ns3:cad>0</ns3:cad>
          </ns3:TrackPointExtension>
        </extensions>
      </trkpt>
      <trkpt lat="52.1581327356398105621337890625" lon="1.47972316481173038482666015625">
        <ele>-247</ele>
        <time>2025-09-06T10:07:00.000Z</time>
        <extensions>
          <ns3:TrackPointExtension>
            <ns3:hr>148</ns3:hr>
            <ns3:cad>0</ns3:cad>
          </ns3:TrackPointExtension>
        </extensions>
      </trkpt>
      <trkpt lat="52.15822384692728519439697265625" lon="1.47963196970522403717041015625">
        <ele>-247.600006103515625</ele>
        <time>2025-09-06T10:07:06.000Z</time>
        <extensions>
          <ns3:TrackPointExtension>
            <ns3:hr>147</ns3:hr>
            <ns3:cad>75</ns3:cad>
          </ns3:TrackPointExtension>
        </extensions>
      </trkpt>
      <trkpt lat="52.1582396887242794036865234375" lon="1.4796189777553081512451171875">
        <ele>-247.600006103515625</ele>
        <time>2025-09-06T10:07:07.000Z</time>
        <extensions>
          <ns3:TrackPointExtension>
            <ns3:hr>147</ns3:hr>
            <ns3:cad>75</ns3:cad>
          </ns3:TrackPointExtension>
        </extensions>
      </trkpt>
      <trkpt lat="52.15828050859272480010986328125" lon="1.4795780740678310394287109375">
        <ele>-248</ele>
        <time>2025-09-06T10:07:10.000Z</time>
        <extensions>
          <ns3:TrackPointExtension>
            <ns3:hr>144</ns3:hr>
            <ns3:cad>75</ns3:cad>
          </ns3:TrackPointExtension>
        </extensions>
      </trkpt>
      <trkpt lat="52.158314287662506103515625" lon="1.47954932413995265960693359375">
        <ele>-248.1999969482421875</ele>
        <time>2025-09-06T10:07:13.000Z</time>
        <extensions>
          <ns3:TrackPointExtension>
            <ns3:hr>148</ns3:hr>
            <ns3:cad>77</ns3:cad>
          </ns3:TrackPointExtension>
        </extensions>
      </trkpt>
      <trkpt lat="52.15833264403045177459716796875" lon="1.479535661637783050537109375">
        <ele>-248.399993896484375</ele>
        <time>2025-09-06T10:07:14.000Z</time>
        <extensions>
          <ns3:TrackPointExtension>
            <ns3:hr>150</ns3:hr>
            <ns3:cad>78</ns3:cad>
          </ns3:TrackPointExtension>
        </extensions>
      </trkpt>
      <trkpt lat="52.158365584909915924072265625" lon="1.479509510099887847900390625">
        <ele>-248.600006103515625</ele>
        <time>2025-09-06T10:07:16.000Z</time>
        <extensions>
          <ns3:TrackPointExtension>
            <ns3:hr>155</ns3:hr>
            <ns3:cad>77</ns3:cad>
          </ns3:TrackPointExtension>
        </extensions>
      </trkpt>
      <trkpt lat="52.15837941505014896392822265625" lon="1.47948713041841983795166015625">
        <ele>-248.600006103515625</ele>
        <time>2025-09-06T10:07:17.000Z</time>
        <extensions>
          <ns3:TrackPointExtension>
            <ns3:hr>156</ns3:hr>
            <ns3:cad>77</ns3:cad>
          </ns3:TrackPointExtension>
        </extensions>
      </trkpt>
      <trkpt lat="52.1584455482661724090576171875" lon="1.4794033952057361602783203125">
        <ele>-249</ele>
        <time>2025-09-06T10:07:21.000Z</time>
        <extensions>
          <ns3:TrackPointExtension>
            <ns3:hr>159</ns3:hr>
            <ns3:cad>76</ns3:cad>
          </ns3:TrackPointExtension>
        </extensions>
      </trkpt>
      <trkpt lat="52.15845887549221515655517578125" lon="1.4793893136084079742431640625">
        <ele>-249.1999969482421875</ele>
        <time>2025-09-06T10:07:22.000Z</time>
        <extensions>
          <ns3:TrackPointExtension>
            <ns3:hr>160</ns3:hr>
            <ns3:cad>76</ns3:cad>
          </ns3:TrackPointExtension>
        </extensions>
      </trkpt>
      <trkpt lat="52.15852685272693634033203125" lon="1.479328460991382598876953125">
        <ele>-249.600006103515625</ele>
        <time>2025-09-06T10:07:27.000Z</time>
        <extensions>
          <ns3:TrackPointExtension>
            <ns3:hr>164</ns3:hr>
            <ns3:cad>76</ns3:cad>
          </ns3:TrackPointExtension>
        </extensions>
      </trkpt>
      <trkpt lat="52.15852760709822177886962890625" lon="1.4793182350695133209228515625">
        <ele>-249.8000030517578125</ele>
        <time>2025-09-06T10:07:29.000Z</time>
        <extensions>
          <ns3:TrackPointExtension>
            <ns3:hr>163</ns3:hr>
            <ns3:cad>0</ns3:cad>
          </ns3:TrackPointExtension>
        </extensions>
      </trkpt>
      <trkpt lat="52.1585280261933803558349609375" lon="1.479309685528278350830078125">
        <ele>-249.8000030517578125</ele>
        <time>2025-09-06T10:07:30.000Z</time>
        <extensions>
          <ns3:TrackPointExtension>
            <ns3:hr>164</ns3:hr>
            <ns3:cad>0</ns3:cad>
          </ns3:TrackPointExtension>
        </extensions>
      </trkpt>
      <trkpt lat="52.15858477167785167694091796875" lon="1.4792246930301189422607421875">
        <ele>-250.399993896484375</ele>
        <time>2025-09-06T10:07:36.000Z</time>
        <extensions>
          <ns3:TrackPointExtension>
            <ns3:hr>163</ns3:hr>
            <ns3:cad>0</ns3:cad>
          </ns3:TrackPointExtension>
        </extensions>
      </trkpt>
      <trkpt lat="52.1586735360324382781982421875" lon="1.47915705107152462005615234375">
        <ele>-250.8000030517578125</ele>
        <time>2025-09-06T10:07:42.000Z</time>
        <extensions>
          <ns3:TrackPointExtension>
            <ns3:hr>165</ns3:hr>
            <ns3:cad>78</ns3:cad>
          </ns3:TrackPointExtension>
        </extensions>
      </trkpt>
      <trkpt lat="52.15869717299938201904296875" lon="1.47912897169589996337890625">
        <ele>-251</ele>
        <time>2025-09-06T10:07:44.000Z</time>
        <extensions>
          <ns3:TrackPointExtension>
            <ns3:hr>165</ns3:hr>
            <ns3:cad>79</ns3:cad>
          </ns3:TrackPointExtension>
        </extensions>
      </trkpt>
      <trkpt lat="52.1587442792952060699462890625" lon="1.47909468971192836761474609375">
        <ele>-251.1999969482421875</ele>
        <time>2025-09-06T10:07:48.000Z</time>
        <extensions>
          <ns3:TrackPointExtension>
            <ns3:hr>169</ns3:hr>
            <ns3:cad>79</ns3:cad>
          </ns3:TrackPointExtension>
        </extensions>
      </trkpt>
      <trkpt lat="52.15877235867083072662353515625" lon="1.4790758304297924041748046875">
        <ele>-251.399993896484375</ele>
        <time>2025-09-06T10:07:51.000Z</time>
        <extensions>
          <ns3:TrackPointExtension>
            <ns3:hr>167</ns3:hr>
            <ns3:cad>79</ns3:cad>
          </ns3:TrackPointExtension>
        </extensions>
      </trkpt>
      <trkpt lat="52.15883086435496807098388671875" lon="1.47901020012795925140380859375">
        <ele>-251.8000030517578125</ele>
        <time>2025-09-06T10:07:56.000Z</time>
        <extensions>
          <ns3:TrackPointExtension>
            <ns3:hr>163</ns3:hr>
            <ns3:cad>77</ns3:cad>
          </ns3:TrackPointExtension>
        </extensions>
      </trkpt>
      <trkpt lat="52.158845029771327972412109375" lon="1.478999890387058258056640625">
        <ele>-251.8000030517578125</ele>
        <time>2025-09-06T10:07:57.000Z</time>
        <extensions>
          <ns3:TrackPointExtension>
            <ns3:hr>163</ns3:hr>
            <ns3:cad>78</ns3:cad>
          </ns3:TrackPointExtension>
        </extensions>
      </trkpt>
      <trkpt lat="52.1588949859142303466796875" lon="1.47895555011928081512451171875">
        <ele>-252</ele>
        <time>2025-09-06T10:08:00.000Z</time>
        <extensions>
          <ns3:TrackPointExtension>
            <ns3:hr>163</ns3:hr>
            <ns3:cad>80</ns3:cad>
          </ns3:TrackPointExtension>
        </extensions>
      </trkpt>
      <trkpt lat="52.1589927189052104949951171875" lon="1.4788518659770488739013671875">
        <ele>-252.1999969482421875</ele>
        <time>2025-09-06T10:08:05.000Z</time>
        <extensions>
          <ns3:TrackPointExtension>
            <ns3:hr>166</ns3:hr>
            <ns3:cad>80</ns3:cad>
          </ns3:TrackPointExtension>
        </extensions>
      </trkpt>
      <trkpt lat="52.15903102420270442962646484375" lon="1.4788250438868999481201171875">
        <ele>-252.399993896484375</ele>
        <time>2025-09-06T10:08:07.000Z</time>
        <extensions>
          <ns3:TrackPointExtension>
            <ns3:hr>169</ns3:hr>
            <ns3:cad>80</ns3:cad>
          </ns3:TrackPointExtension>
        </extensions>
      </trkpt>
      <trkpt lat="52.159121297299861907958984375" lon="1.478716246783733367919921875">
        <ele>-252.399993896484375</ele>
        <time>2025-09-06T10:08:12.000Z</time>
        <extensions>
          <ns3:TrackPointExtension>
            <ns3:hr>166</ns3:hr>
            <ns3:cad>80</ns3:cad>
          </ns3:TrackPointExtension>
        </extensions>
      </trkpt>
      <trkpt lat="52.1591388992965221405029296875" lon="1.47865614853799343109130859375">
        <ele>-252.1999969482421875</ele>
        <time>2025-09-06T10:08:14.000Z</time>
        <extensions>
          <ns3:TrackPointExtension>
            <ns3:hr>166</ns3:hr>
            <ns3:cad>80</ns3:cad>
          </ns3:TrackPointExtension>
        </extensions>
      </trkpt>
      <trkpt lat="52.15926152653992176055908203125" lon="1.4784958027303218841552734375">
        <ele>-251</ele>
        <time>2025-09-06T10:08:23.000Z</time>
        <extensions>
          <ns3:TrackPointExtension>
            <ns3:hr>167</ns3:hr>
            <ns3:cad>80</ns3:cad>
          </ns3:TrackPointExtension>
        </extensions>
      </trkpt>
      <trkpt lat="52.1592812240123748779296875" lon="1.47847652435302734375">
        <ele>-250.8000030517578125</ele>
        <time>2025-09-06T10:08:24.000Z</time>
        <extensions>
          <ns3:TrackPointExtension>
            <ns3:hr>166</ns3:hr>
            <ns3:cad>80</ns3:cad>
          </ns3:TrackPointExtension>
        </extensions>
      </trkpt>
      <trkpt lat="52.159429751336574554443359375" lon="1.4783459343016147613525390625">
        <ele>-249.8000030517578125</ele>
        <time>2025-09-06T10:08:31.000Z</time>
        <extensions>
          <ns3:TrackPointExtension>
            <ns3:hr>165</ns3:hr>
            <ns3:cad>80</ns3:cad>
          </ns3:TrackPointExtension>
        </extensions>
      </trkpt>
      <trkpt lat="52.15944844298064708709716796875" lon="1.478329002857208251953125">
        <ele>-249.8000030517578125</ele>
        <time>2025-09-06T10:08:32.000Z</time>
        <extensions>
          <ns3:TrackPointExtension>
            <ns3:hr>166</ns3:hr>
            <ns3:cad>79</ns3:cad>
          </ns3:TrackPointExtension>
        </extensions>
      </trkpt>
      <trkpt lat="52.15952136553823947906494140625" lon="1.47825323045253753662109375">
        <ele>-249.1999969482421875</ele>
        <time>2025-09-06T10:08:36.000Z</time>
        <extensions>
          <ns3:TrackPointExtension>
            <ns3:hr>164</ns3:hr>
            <ns3:cad>79</ns3:cad>
          </ns3:TrackPointExtension>
        </extensions>
      </trkpt>
      <trkpt lat="52.159571908414363861083984375" lon="1.4781578443944454193115234375">
        <ele>-248.8000030517578125</ele>
        <time>2025-09-06T10:08:40.000Z</time>
        <extensions>
          <ns3:TrackPointExtension>
            <ns3:hr>165</ns3:hr>
            <ns3:cad>80</ns3:cad>
          </ns3:TrackPointExtension>
        </extensions>
      </trkpt>
      <trkpt lat="52.15959026478230953216552734375" lon="1.47812909446656703948974609375">
        <ele>-248.399993896484375</ele>
        <time>2025-09-06T10:08:42.000Z</time>
        <extensions>
          <ns3:TrackPointExtension>
            <ns3:hr>164</ns3:hr>
            <ns3:cad>79</ns3:cad>
          </ns3:TrackPointExtension>
        </extensions>
      </trkpt>
      <trkpt lat="52.1596796996891498565673828125" lon="1.4779875241219997406005859375">
        <ele>-247.600006103515625</ele>
        <time>2025-09-06T10:08:49.000Z</time>
        <extensions>
          <ns3:TrackPointExtension>
            <ns3:hr>165</ns3:hr>
            <ns3:cad>79</ns3:cad>
          </ns3:TrackPointExtension>
        </extensions>
      </trkpt>
      <trkpt lat="52.15973007492721080780029296875" lon="1.47793983109295368194580078125">
        <ele>-247.1999969482421875</ele>
        <time>2025-09-06T10:08:52.000Z</time>
        <extensions>
          <ns3:TrackPointExtension>
            <ns3:hr>165</ns3:hr>
            <ns3:cad>81</ns3:cad>
          </ns3:TrackPointExtension>
        </extensions>
      </trkpt>
      <trkpt lat="52.1598624251782894134521484375" lon="1.47783723659813404083251953125">
        <ele>-246.600006103515625</ele>
        <time>2025-09-06T10:08:58.000Z</time>
        <extensions>
          <ns3:TrackPointExtension>
            <ns3:hr>164</ns3:hr>
            <ns3:cad>78</ns3:cad>
          </ns3:TrackPointExtension>
        </extensions>
      </trkpt>
      <trkpt lat="52.159888744354248046875" lon="1.4777806587517261505126953125">
        <ele>-246.1999969482421875</ele>
        <time>2025-09-06T10:09:00.000Z</time>
        <extensions>
          <ns3:TrackPointExtension>
            <ns3:hr>164</ns3:hr>
            <ns3:cad>76</ns3:cad>
          </ns3:TrackPointExtension>
        </extensions>
      </trkpt>
      <trkpt lat="52.1600069291889667510986328125" lon="1.477629281580448150634765625">
        <ele>-245.600006103515625</ele>
        <time>2025-09-06T10:09:09.000Z</time>
        <extensions>
          <ns3:TrackPointExtension>
            <ns3:hr>164</ns3:hr>
            <ns3:cad>0</ns3:cad>
          </ns3:TrackPointExtension>
        </extensions>
      </trkpt>
      <trkpt lat="52.160037942230701446533203125" lon="1.47760237567126750946044921875">
        <ele>-245.600006103515625</ele>
        <time>2025-09-06T10:09:11.000Z</time>
        <extensions>
          <ns3:TrackPointExtension>
            <ns3:hr>164</ns3:hr>
            <ns3:cad>77</ns3:cad>
          </ns3:TrackPointExtension>
        </extensions>
      </trkpt>
      <trkpt lat="52.16012352146208286285400390625" lon="1.47749961353838443756103515625">
        <ele>-245.399993896484375</ele>
        <time>2025-09-06T10:09:16.000Z</time>
        <extensions>
          <ns3:TrackPointExtension>
            <ns3:hr>164</ns3:hr>
            <ns3:cad>78</ns3:cad>
          </ns3:TrackPointExtension>
        </extensions>
      </trkpt>
      <trkpt lat="52.1601702086627483367919921875" lon="1.4773106016218662261962890625">
        <ele>-245.399993896484375</ele>
        <time>2025-09-06T10:09:25.000Z</time>
        <extensions>
          <ns3:TrackPointExtension>
            <ns3:hr>162</ns3:hr>
            <ns3:cad>0</ns3:cad>
          </ns3:TrackPointExtension>
        </extensions>
      </trkpt>
      <trkpt lat="52.16018320061266422271728515625" lon="1.4772489108145236968994140625">
        <ele>-245.399993896484375</ele>
        <time>2025-09-06T10:09:33.000Z</time>
        <extensions>
          <ns3:TrackPointExtension>
            <ns3:hr>163</ns3:hr>
            <ns3:cad>0</ns3:cad>
          </ns3:TrackPointExtension>
        </extensions>
      </trkpt>
      <trkpt lat="52.16020482592284679412841796875" lon="1.47717774845659732818603515625">
        <ele>-245.399993896484375</ele>
        <time>2025-09-06T10:09:42.000Z</time>
        <extensions>
          <ns3:TrackPointExtension>
            <ns3:hr>161</ns3:hr>
            <ns3:cad>0</ns3:cad>
          </ns3:TrackPointExtension>
        </extensions>
      </trkpt>
      <trkpt lat="52.1602057479321956634521484375" lon="1.47712133824825286865234375">
        <ele>-245.399993896484375</ele>
        <time>2025-09-06T10:09:45.000Z</time>
        <extensions>
          <ns3:TrackPointExtension>
            <ns3:hr>160</ns3:hr>
            <ns3:cad>49</ns3:cad>
          </ns3:TrackPointExtension>
        </extensions>
      </trkpt>
      <trkpt lat="52.16020231135189533233642578125" lon="1.47704447619616985321044921875">
        <ele>-245.399993896484375</ele>
        <time>2025-09-06T10:09:48.000Z</time>
        <extensions>
          <ns3:TrackPointExtension>
            <ns3:hr>159</ns3:hr>
            <ns3:cad>52</ns3:cad>
          </ns3:TrackPointExtension>
        </extensions>
      </trkpt>
      <trkpt lat="52.16019895859062671661376953125" lon="1.4769907481968402862548828125">
        <ele>-245.1999969482421875</ele>
        <time>2025-09-06T10:09:51.000Z</time>
        <extensions>
          <ns3:TrackPointExtension>
            <ns3:hr>157</ns3:hr>
            <ns3:cad>53</ns3:cad>
          </ns3:TrackPointExtension>
        </extensions>
      </trkpt>
      <trkpt lat="52.160184793174266815185546875" lon="1.47688857279717922210693359375">
        <ele>-245.399993896484375</ele>
        <time>2025-09-06T10:09:56.000Z</time>
        <extensions>
          <ns3:TrackPointExtension>
            <ns3:hr>154</ns3:hr>
            <ns3:cad>117</ns3:cad>
          </ns3:TrackPointExtension>
        </extensions>
      </trkpt>
      <trkpt lat="52.16015403158962726593017578125" lon="1.47679955698549747467041015625">
        <ele>-245.600006103515625</ele>
        <time>2025-09-06T10:09:59.000Z</time>
        <extensions>
          <ns3:TrackPointExtension>
            <ns3:hr>152</ns3:hr>
            <ns3:cad>77</ns3:cad>
          </ns3:TrackPointExtension>
        </extensions>
      </trkpt>
      <trkpt lat="52.16014648787677288055419921875" lon="1.47661968134343624114990234375">
        <ele>-246.1999969482421875</ele>
        <time>2025-09-06T10:10:06.000Z</time>
        <extensions>
          <ns3:TrackPointExtension>
            <ns3:hr>154</ns3:hr>
            <ns3:cad>0</ns3:cad>
          </ns3:TrackPointExtension>
        </extensions>
      </trkpt>
      <trkpt lat="52.1601443924009799957275390625" lon="1.47658330388367176055908203125">
        <ele>-246.600006103515625</ele>
        <time>2025-09-06T10:10:09.000Z</time>
        <extensions>
          <ns3:TrackPointExtension>
            <ns3:hr>155</ns3:hr>
            <ns3:cad>0</ns3:cad>
          </ns3:TrackPointExtension>
        </extensions>
      </trkpt>
      <trkpt lat="52.160101644694805145263671875" lon="1.4765012450516223907470703125">
        <ele>-247.399993896484375</ele>
        <time>2025-09-06T10:10:15.000Z</time>
        <extensions>
          <ns3:TrackPointExtension>
            <ns3:hr>152</ns3:hr>
            <ns3:cad>0</ns3:cad>
          </ns3:TrackPointExtension>
        </extensions>
      </trkpt>
      <trkpt lat="52.160089910030364990234375" lon="1.47645170800387859344482421875">
        <ele>-247.8000030517578125</ele>
        <time>2025-09-06T10:10:17.000Z</time>
        <extensions>
          <ns3:TrackPointExtension>
            <ns3:hr>150</ns3:hr>
            <ns3:cad>0</ns3:cad>
          </ns3:TrackPointExtension>
        </extensions>
      </trkpt>
      <trkpt lat="52.160104997456073760986328125" lon="1.47636738605797290802001953125">
        <ele>-248.1999969482421875</ele>
        <time>2025-09-06T10:10:21.000Z</time>
        <extensions>
          <ns3:TrackPointExtension>
            <ns3:hr>150</ns3:hr>
            <ns3:cad>0</ns3:cad>
          </ns3:TrackPointExtension>
        </extensions>
      </trkpt>
      <trkpt lat="52.1601145528256893157958984375" lon="1.47631265223026275634765625">
        <ele>-248.8000030517578125</ele>
        <time>2025-09-06T10:10:25.000Z</time>
        <extensions>
          <ns3:TrackPointExtension>
            <ns3:hr>148</ns3:hr>
            <ns3:cad>0</ns3:cad>
          </ns3:TrackPointExtension>
        </extensions>
      </trkpt>
      <trkpt lat="52.16012033633887767791748046875" lon="1.4762430824339389801025390625">
        <ele>-249.600006103515625</ele>
        <time>2025-09-06T10:10:30.000Z</time>
        <extensions>
          <ns3:TrackPointExtension>
            <ns3:hr>147</ns3:hr>
            <ns3:cad>0</ns3:cad>
          </ns3:TrackPointExtension>
        </extensions>
      </trkpt>
      <trkpt lat="52.16012452729046344757080078125" lon="1.4762221276760101318359375">
        <ele>-250</ele>
        <time>2025-09-06T10:10:32.000Z</time>
        <extensions>
          <ns3:TrackPointExtension>
            <ns3:hr>145</ns3:hr>
            <ns3:cad>0</ns3:cad>
          </ns3:TrackPointExtension>
        </extensions>
      </trkpt>
      <trkpt lat="52.16011815704405307769775390625" lon="1.47618801333010196685791015625">
        <ele>-250.399993896484375</ele>
        <time>2025-09-06T10:10:35.000Z</time>
        <extensions>
          <ns3:TrackPointExtension>
            <ns3:hr>146</ns3:hr>
            <ns3:cad>47</ns3:cad>
          </ns3:TrackPointExtension>
        </extensions>
      </trkpt>
      <trkpt lat="52.160117067396640777587890625" lon="1.47614526562392711639404296875">
        <ele>-251</ele>
        <time>2025-09-06T10:10:38.000Z</time>
        <extensions>
          <ns3:TrackPointExtension>
            <ns3:hr>144</ns3:hr>
            <ns3:cad>41</ns3:cad>
          </ns3:TrackPointExtension>
        </extensions>
      </trkpt>
      <trkpt lat="52.160092927515506744384765625" lon="1.47604233585298061370849609375">
        <ele>-252.1999969482421875</ele>
        <time>2025-09-06T10:10:44.000Z</time>
        <extensions>
          <ns3:TrackPointExtension>
            <ns3:hr>142</ns3:hr>
            <ns3:cad>57</ns3:cad>
          </ns3:TrackPointExtension>
        </extensions>
      </trkpt>
      <trkpt lat="52.160056047141551971435546875" lon="1.47595332004129886627197265625">
        <ele>-253.1999969482421875</ele>
        <time>2025-09-06T10:10:49.000Z</time>
        <extensions>
          <ns3:TrackPointExtension>
            <ns3:hr>141</ns3:hr>
            <ns3:cad>56</ns3:cad>
          </ns3:TrackPointExtension>
        </extensions>
      </trkpt>
      <trkpt lat="52.16005026362836360931396484375" lon="1.47593555040657520294189453125">
        <ele>-253.399993896484375</ele>
        <time>2025-09-06T10:10:50.000Z</time>
        <extensions>
          <ns3:TrackPointExtension>
            <ns3:hr>140</ns3:hr>
            <ns3:cad>56</ns3:cad>
          </ns3:TrackPointExtension>
        </extensions>
      </trkpt>
      <trkpt lat="52.1600414626300334930419921875" lon="1.47592113353312015533447265625">
        <ele>-253.600006103515625</ele>
        <time>2025-09-06T10:10:51.000Z</time>
        <extensions>
          <ns3:TrackPointExtension>
            <ns3:hr>139</ns3:hr>
            <ns3:cad>56</ns3:cad>
          </ns3:TrackPointExtension>
        </extensions>
      </trkpt>
      <trkpt lat="52.160023190081119537353515625" lon="1.4758772961795330047607421875">
        <ele>-254.1999969482421875</ele>
        <time>2025-09-06T10:10:54.000Z</time>
        <extensions>
          <ns3:TrackPointExtension>
            <ns3:hr>139</ns3:hr>
            <ns3:cad>49</ns3:cad>
          </ns3:TrackPointExtension>
        </extensions>
      </trkpt>
      <trkpt lat="52.16003433801233768463134765625" lon="1.47582373581826686859130859375">
        <ele>-255</ele>
        <time>2025-09-06T10:10:58.000Z</time>
        <extensions>
          <ns3:TrackPointExtension>
            <ns3:hr>137</ns3:hr>
            <ns3:cad>46</ns3:cad>
          </ns3:TrackPointExtension>
        </extensions>
      </trkpt>
      <trkpt lat="52.16003894805908203125" lon="1.47581040859222412109375">
        <ele>-255.1999969482421875</ele>
        <time>2025-09-06T10:10:59.000Z</time>
        <extensions>
          <ns3:TrackPointExtension>
            <ns3:hr>137</ns3:hr>
            <ns3:cad>46</ns3:cad>
          </ns3:TrackPointExtension>
        </extensions>
      </trkpt>
      <trkpt lat="52.160056047141551971435546875" lon="1.475783251225948333740234375">
        <ele>-255.600006103515625</ele>
        <time>2025-09-06T10:11:01.000Z</time>
        <extensions>
          <ns3:TrackPointExtension>
            <ns3:hr>138</ns3:hr>
            <ns3:cad>46</ns3:cad>
          </ns3:TrackPointExtension>
        </extensions>
      </trkpt>
      <trkpt lat="52.160092927515506744384765625" lon="1.47572600282728672027587890625">
        <ele>-256.399993896484375</ele>
        <time>2025-09-06T10:11:05.000Z</time>
        <extensions>
          <ns3:TrackPointExtension>
            <ns3:hr>139</ns3:hr>
            <ns3:cad>54</ns3:cad>
          </ns3:TrackPointExtension>
        </extensions>
      </trkpt>
      <trkpt lat="52.16011606156826019287109375" lon="1.47564067505300045013427734375">
        <ele>-257.399993896484375</ele>
        <time>2025-09-06T10:11:11.000Z</time>
        <extensions>
          <ns3:TrackPointExtension>
            <ns3:hr>137</ns3:hr>
            <ns3:cad>54</ns3:cad>
          </ns3:TrackPointExtension>
        </extensions>
      </trkpt>
      <trkpt lat="52.16012301854789257049560546875" lon="1.47562676109373569488525390625">
        <ele>-257.600006103515625</ele>
        <time>2025-09-06T10:11:12.000Z</time>
        <extensions>
          <ns3:TrackPointExtension>
            <ns3:hr>137</ns3:hr>
            <ns3:cad>54</ns3:cad>
          </ns3:TrackPointExtension>
        </extensions>
      </trkpt>
      <trkpt lat="52.16016559861600399017333984375" lon="1.47553908638656139373779296875">
        <ele>-258.600006103515625</ele>
        <time>2025-09-06T10:11:17.000Z</time>
        <extensions>
          <ns3:TrackPointExtension>
            <ns3:hr>137</ns3:hr>
            <ns3:cad>54</ns3:cad>
          </ns3:TrackPointExtension>
        </extensions>
      </trkpt>
      <trkpt lat="52.16020231135189533233642578125" lon="1.47547421045601367950439453125">
        <ele>-259</ele>
        <time>2025-09-06T10:11:20.000Z</time>
        <extensions>
          <ns3:TrackPointExtension>
            <ns3:hr>135</ns3:hr>
            <ns3:cad>57</ns3:cad>
          </ns3:TrackPointExtension>
        </extensions>
      </trkpt>
      <trkpt lat="52.16026919893920421600341796875" lon="1.4753960072994232177734375">
        <ele>-259.600006103515625</ele>
        <time>2025-09-06T10:11:24.000Z</time>
        <extensions>
          <ns3:TrackPointExtension>
            <ns3:hr>134</ns3:hr>
            <ns3:cad>75</ns3:cad>
          </ns3:TrackPointExtension>
        </extensions>
      </trkpt>
      <trkpt lat="52.16029711067676544189453125" lon="1.4753844402730464935302734375">
        <ele>-260</ele>
        <time>2025-09-06T10:11:26.000Z</time>
        <extensions>
          <ns3:TrackPointExtension>
            <ns3:hr>134</ns3:hr>
            <ns3:cad>74</ns3:cad>
          </ns3:TrackPointExtension>
        </extensions>
      </trkpt>
      <trkpt lat="52.1603301353752613067626953125" lon="1.47537429817020893096923828125">
        <ele>-260.20001220703125</ele>
        <time>2025-09-06T10:11:29.000Z</time>
        <extensions>
          <ns3:TrackPointExtension>
            <ns3:hr>139</ns3:hr>
            <ns3:cad>76</ns3:cad>
          </ns3:TrackPointExtension>
        </extensions>
      </trkpt>
      <trkpt lat="52.16034681536257266998291015625" lon="1.47533926181495189666748046875">
        <ele>-260.600006103515625</ele>
        <time>2025-09-06T10:11:32.000Z</time>
        <extensions>
          <ns3:TrackPointExtension>
            <ns3:hr>143</ns3:hr>
            <ns3:cad>76</ns3:cad>
          </ns3:TrackPointExtension>
        </extensions>
      </trkpt>
      <trkpt lat="52.16035746037960052490234375" lon="1.47531730122864246368408203125">
        <ele>-260.79998779296875</ele>
        <time>2025-09-06T10:11:34.000Z</time>
        <extensions>
          <ns3:TrackPointExtension>
            <ns3:hr>148</ns3:hr>
            <ns3:cad>0</ns3:cad>
          </ns3:TrackPointExtension>
        </extensions>
      </trkpt>
      <trkpt lat="52.16036223806440830230712890625" lon="1.4753066562116146087646484375">
        <ele>-260.79998779296875</ele>
        <time>2025-09-06T10:11:35.000Z</time>
        <extensions>
          <ns3:TrackPointExtension>
            <ns3:hr>151</ns3:hr>
            <ns3:cad>0</ns3:cad>
          </ns3:TrackPointExtension>
        </extensions>
      </trkpt>
      <trkpt lat="52.1603737212717533111572265625" lon="1.47523113526403903961181640625">
        <ele>-260.79998779296875</ele>
        <time>2025-09-06T10:11:40.000Z</time>
        <extensions>
          <ns3:TrackPointExtension>
            <ns3:hr>154</ns3:hr>
            <ns3:cad>57</ns3:cad>
          </ns3:TrackPointExtension>
        </extensions>
      </trkpt>
      <trkpt lat="52.16037313453853130340576171875" lon="1.4751802571117877960205078125">
        <ele>-260.399993896484375</ele>
        <time>2025-09-06T10:11:43.000Z</time>
        <extensions>
          <ns3:TrackPointExtension>
            <ns3:hr>154</ns3:hr>
            <ns3:cad>57</ns3:cad>
          </ns3:TrackPointExtension>
        </extensions>
      </trkpt>
      <trkpt lat="52.1603804267942905426025390625" lon="1.475104987621307373046875">
        <ele>-259.600006103515625</ele>
        <time>2025-09-06T10:11:47.000Z</time>
        <extensions>
          <ns3:TrackPointExtension>
            <ns3:hr>154</ns3:hr>
            <ns3:cad>59</ns3:cad>
          </ns3:TrackPointExtension>
        </extensions>
      </trkpt>
      <trkpt lat="52.16039995662868022918701171875" lon="1.4749904908239841461181640625">
        <ele>-258.399993896484375</ele>
        <time>2025-09-06T10:11:51.000Z</time>
        <extensions>
          <ns3:TrackPointExtension>
            <ns3:hr>153</ns3:hr>
            <ns3:cad>0</ns3:cad>
          </ns3:TrackPointExtension>
        </extensions>
      </trkpt>
      <trkpt lat="52.16042392887175083160400390625" lon="1.47489032708108425140380859375">
        <ele>-257.399993896484375</ele>
        <time>2025-09-06T10:11:54.000Z</time>
        <extensions>
          <ns3:TrackPointExtension>
            <ns3:hr>151</ns3:hr>
            <ns3:cad>78</ns3:cad>
          </ns3:TrackPointExtension>
        </extensions>
      </trkpt>
      <trkpt lat="52.1604357473552227020263671875" lon="1.47474498488008975982666015625">
        <ele>-256</ele>
        <time>2025-09-06T10:11:58.000Z</time>
        <extensions>
          <ns3:TrackPointExtension>
            <ns3:hr>151</ns3:hr>
            <ns3:cad>76</ns3:cad>
          </ns3:TrackPointExtension>
        </extensions>
      </trkpt>
      <trkpt lat="52.16044907458126544952392578125" lon="1.474676840007305145263671875">
        <ele>-255.399993896484375</ele>
        <time>2025-09-06T10:12:00.000Z</time>
        <extensions>
          <ns3:TrackPointExtension>
            <ns3:hr>154</ns3:hr>
            <ns3:cad>76</ns3:cad>
          </ns3:TrackPointExtension>
        </extensions>
      </trkpt>
      <trkpt lat="52.160444967448711395263671875" lon="1.4746154844760894775390625">
        <ele>-254.8000030517578125</ele>
        <time>2025-09-06T10:12:02.000Z</time>
        <extensions>
          <ns3:TrackPointExtension>
            <ns3:hr>157</ns3:hr>
            <ns3:cad>76</ns3:cad>
          </ns3:TrackPointExtension>
        </extensions>
      </trkpt>
      <trkpt lat="52.16045393608510494232177734375" lon="1.47445119917392730712890625">
        <ele>-253.600006103515625</ele>
        <time>2025-09-06T10:12:07.000Z</time>
        <extensions>
          <ns3:TrackPointExtension>
            <ns3:hr>159</ns3:hr>
            <ns3:cad>77</ns3:cad>
          </ns3:TrackPointExtension>
        </extensions>
      </trkpt>
      <trkpt lat="52.16043549589812755584716796875" lon="1.47431180812418460845947265625">
        <ele>-252.8000030517578125</ele>
        <time>2025-09-06T10:12:12.000Z</time>
        <extensions>
          <ns3:TrackPointExtension>
            <ns3:hr>163</ns3:hr>
            <ns3:cad>78</ns3:cad>
          </ns3:TrackPointExtension>
        </extensions>
      </trkpt>
      <trkpt lat="52.1604350768029689788818359375" lon="1.47424072958528995513916015625">
        <ele>-252.399993896484375</ele>
        <time>2025-09-06T10:12:14.000Z</time>
        <extensions>
          <ns3:TrackPointExtension>
            <ns3:hr>162</ns3:hr>
            <ns3:cad>79</ns3:cad>
          </ns3:TrackPointExtension>
        </extensions>
      </trkpt>
      <trkpt lat="52.16042451560497283935546875" lon="1.47417769767343997955322265625">
        <ele>-252.1999969482421875</ele>
        <time>2025-09-06T10:12:16.000Z</time>
        <extensions>
          <ns3:TrackPointExtension>
            <ns3:hr>162</ns3:hr>
            <ns3:cad>78</ns3:cad>
          </ns3:TrackPointExtension>
        </extensions>
      </trkpt>
      <trkpt lat="52.1603871323168277740478515625" lon="1.473905034363269805908203125">
        <ele>-251.399993896484375</ele>
        <time>2025-09-06T10:12:23.000Z</time>
        <extensions>
          <ns3:TrackPointExtension>
            <ns3:hr>165</ns3:hr>
            <ns3:cad>79</ns3:cad>
          </ns3:TrackPointExtension>
        </extensions>
      </trkpt>
      <trkpt lat="52.160384953022003173828125" lon="1.47379539906978607177734375">
        <ele>-251.1999969482421875</ele>
        <time>2025-09-06T10:12:26.000Z</time>
        <extensions>
          <ns3:TrackPointExtension>
            <ns3:hr>163</ns3:hr>
            <ns3:cad>79</ns3:cad>
          </ns3:TrackPointExtension>
        </extensions>
      </trkpt>
      <trkpt lat="52.1603150479495525360107421875" lon="1.47357151843607425689697265625">
        <ele>-250.8000030517578125</ele>
        <time>2025-09-06T10:12:33.000Z</time>
        <extensions>
          <ns3:TrackPointExtension>
            <ns3:hr>163</ns3:hr>
            <ns3:cad>77</ns3:cad>
          </ns3:TrackPointExtension>
        </extensions>
      </trkpt>
      <trkpt lat="52.16028160415589809417724609375" lon="1.4734633080661296844482421875">
        <ele>-250.600006103515625</ele>
        <time>2025-09-06T10:12:38.000Z</time>
        <extensions>
          <ns3:TrackPointExtension>
            <ns3:hr>160</ns3:hr>
            <ns3:cad>77</ns3:cad>
          </ns3:TrackPointExtension>
        </extensions>
      </trkpt>
      <trkpt lat="52.16026701964437961578369140625" lon="1.4734433591365814208984375">
        <ele>-250.600006103515625</ele>
        <time>2025-09-06T10:12:41.000Z</time>
        <extensions>
          <ns3:TrackPointExtension>
            <ns3:hr>159</ns3:hr>
            <ns3:cad>0</ns3:cad>
          </ns3:TrackPointExtension>
        </extensions>
      </trkpt>
      <trkpt lat="52.1602583862841129302978515625" lon="1.4733674190938472747802734375">
        <ele>-250.600006103515625</ele>
        <time>2025-09-06T10:12:46.000Z</time>
        <extensions>
          <ns3:TrackPointExtension>
            <ns3:hr>161</ns3:hr>
            <ns3:cad>0</ns3:cad>
          </ns3:TrackPointExtension>
        </extensions>
      </trkpt>
      <trkpt lat="52.160256542265415191650390625" lon="1.47331486456096172332763671875">
        <ele>-250.600006103515625</ele>
        <time>2025-09-06T10:12:48.000Z</time>
        <extensions>
          <ns3:TrackPointExtension>
            <ns3:hr>161</ns3:hr>
            <ns3:cad>49</ns3:cad>
          </ns3:TrackPointExtension>
        </extensions>
      </trkpt>
      <trkpt lat="52.160235084593296051025390625" lon="1.47313197143375873565673828125">
        <ele>-251</ele>
        <time>2025-09-06T10:12:56.000Z</time>
        <extensions>
          <ns3:TrackPointExtension>
            <ns3:hr>159</ns3:hr>
            <ns3:cad>0</ns3:cad>
          </ns3:TrackPointExtension>
        </extensions>
      </trkpt>
      <trkpt lat="52.16024346649646759033203125" lon="1.4729795046150684356689453125">
        <ele>-251.399993896484375</ele>
        <time>2025-09-06T10:13:01.000Z</time>
        <extensions>
          <ns3:TrackPointExtension>
            <ns3:hr>156</ns3:hr>
            <ns3:cad>77</ns3:cad>
          </ns3:TrackPointExtension>
        </extensions>
      </trkpt>
      <trkpt lat="52.160259895026683807373046875" lon="1.47289375774562358856201171875">
        <ele>-251.600006103515625</ele>
        <time>2025-09-06T10:13:04.000Z</time>
        <extensions>
          <ns3:TrackPointExtension>
            <ns3:hr>159</ns3:hr>
            <ns3:cad>76</ns3:cad>
          </ns3:TrackPointExtension>
        </extensions>
      </trkpt>
      <trkpt lat="52.1602660976350307464599609375" lon="1.472800634801387786865234375">
        <ele>-252.1999969482421875</ele>
        <time>2025-09-06T10:13:08.000Z</time>
        <extensions>
          <ns3:TrackPointExtension>
            <ns3:hr>162</ns3:hr>
            <ns3:cad>76</ns3:cad>
          </ns3:TrackPointExtension>
        </extensions>
      </trkpt>
      <trkpt lat="52.1602677740156650543212890625" lon="1.4727354235947132110595703125">
        <ele>-252.1999969482421875</ele>
        <time>2025-09-06T10:13:10.000Z</time>
        <extensions>
          <ns3:TrackPointExtension>
            <ns3:hr>162</ns3:hr>
            <ns3:cad>77</ns3:cad>
          </ns3:TrackPointExtension>
        </extensions>
      </trkpt>
      <trkpt lat="52.16025151312351226806640625" lon="1.47265956737101078033447265625">
        <ele>-252.399993896484375</ele>
        <time>2025-09-06T10:13:12.000Z</time>
        <extensions>
          <ns3:TrackPointExtension>
            <ns3:hr>162</ns3:hr>
            <ns3:cad>77</ns3:cad>
          </ns3:TrackPointExtension>
        </extensions>
      </trkpt>
      <trkpt lat="52.16021153144538402557373046875" lon="1.4724993892014026641845703125">
        <ele>-253</ele>
        <time>2025-09-06T10:13:17.000Z</time>
        <extensions>
          <ns3:TrackPointExtension>
            <ns3:hr>167</ns3:hr>
            <ns3:cad>76</ns3:cad>
          </ns3:TrackPointExtension>
        </extensions>
      </trkpt>
      <trkpt lat="52.16018286533653736114501953125" lon="1.4724517799913883209228515625">
        <ele>-253.1999969482421875</ele>
        <time>2025-09-06T10:13:19.000Z</time>
        <extensions>
          <ns3:TrackPointExtension>
            <ns3:hr>170</ns3:hr>
            <ns3:cad>76</ns3:cad>
          </ns3:TrackPointExtension>
        </extensions>
      </trkpt>
      <trkpt lat="52.1601578034460544586181640625" lon="1.4723622612655162811279296875">
        <ele>-253.600006103515625</ele>
        <time>2025-09-06T10:13:22.000Z</time>
        <extensions>
          <ns3:TrackPointExtension>
            <ns3:hr>171</ns3:hr>
            <ns3:cad>74</ns3:cad>
          </ns3:TrackPointExtension>
        </extensions>
      </trkpt>
      <trkpt lat="52.16013777069747447967529296875" lon="1.4723089523613452911376953125">
        <ele>-253.8000030517578125</ele>
        <time>2025-09-06T10:13:24.000Z</time>
        <extensions>
          <ns3:TrackPointExtension>
            <ns3:hr>172</ns3:hr>
            <ns3:cad>74</ns3:cad>
          </ns3:TrackPointExtension>
        </extensions>
      </trkpt>
      <trkpt lat="52.16011949814856052398681640625" lon="1.47220543585717678070068359375">
        <ele>-254.399993896484375</ele>
        <time>2025-09-06T10:13:30.000Z</time>
        <extensions>
          <ns3:TrackPointExtension>
            <ns3:hr>170</ns3:hr>
            <ns3:cad>68</ns3:cad>
          </ns3:TrackPointExtension>
        </extensions>
      </trkpt>
      <trkpt lat="52.16011161915957927703857421875" lon="1.4721634425222873687744140625">
        <ele>-254.600006103515625</ele>
        <time>2025-09-06T10:13:32.000Z</time>
        <extensions>
          <ns3:TrackPointExtension>
            <ns3:hr>170</ns3:hr>
            <ns3:cad>68</ns3:cad>
          </ns3:TrackPointExtension>
        </extensions>
      </trkpt>
      <trkpt lat="52.16010876931250095367431640625" lon="1.47204467095434665679931640625">
        <ele>-255.399993896484375</ele>
        <time>2025-09-06T10:13:36.000Z</time>
        <extensions>
          <ns3:TrackPointExtension>
            <ns3:hr>168</ns3:hr>
            <ns3:cad>0</ns3:cad>
          </ns3:TrackPointExtension>
        </extensions>
      </trkpt>
      <trkpt lat="52.160098962485790252685546875" lon="1.47197577171027660369873046875">
        <ele>-255.8000030517578125</ele>
        <time>2025-09-06T10:13:39.000Z</time>
        <extensions>
          <ns3:TrackPointExtension>
            <ns3:hr>168</ns3:hr>
            <ns3:cad>58</ns3:cad>
          </ns3:TrackPointExtension>
        </extensions>
      </trkpt>
      <trkpt lat="52.160079181194305419921875" lon="1.47190888412296772003173828125">
        <ele>-256.600006103515625</ele>
        <time>2025-09-06T10:13:43.000Z</time>
        <extensions>
          <ns3:TrackPointExtension>
            <ns3:hr>165</ns3:hr>
            <ns3:cad>56</ns3:cad>
          </ns3:TrackPointExtension>
        </extensions>
      </trkpt>
      <trkpt lat="52.1600739844143390655517578125" lon="1.47186395712196826934814453125">
        <ele>-257</ele>
        <time>2025-09-06T10:13:45.000Z</time>
        <extensions>
          <ns3:TrackPointExtension>
            <ns3:hr>163</ns3:hr>
            <ns3:cad>56</ns3:cad>
          </ns3:TrackPointExtension>
        </extensions>
      </trkpt>
      <trkpt lat="52.16006652452051639556884765625" lon="1.4718244783580303192138671875">
        <ele>-257.600006103515625</ele>
        <time>2025-09-06T10:13:48.000Z</time>
        <extensions>
          <ns3:TrackPointExtension>
            <ns3:hr>160</ns3:hr>
            <ns3:cad>58</ns3:cad>
          </ns3:TrackPointExtension>
        </extensions>
      </trkpt>
      <trkpt lat="52.1600729785859584808349609375" lon="1.4718098938465118408203125">
        <ele>-257.79998779296875</ele>
        <time>2025-09-06T10:13:49.000Z</time>
        <extensions>
          <ns3:TrackPointExtension>
            <ns3:hr>159</ns3:hr>
            <ns3:cad>58</ns3:cad>
          </ns3:TrackPointExtension>
        </extensions>
      </trkpt>
      <trkpt lat="52.1600766666233539581298828125" lon="1.47178106009960174560546875">
        <ele>-258.20001220703125</ele>
        <time>2025-09-06T10:13:51.000Z</time>
        <extensions>
          <ns3:TrackPointExtension>
            <ns3:hr>158</ns3:hr>
            <ns3:cad>57</ns3:cad>
          </ns3:TrackPointExtension>
        </extensions>
      </trkpt>
      <trkpt lat="52.160066105425357818603515625" lon="1.47171392105519771575927734375">
        <ele>-258.79998779296875</ele>
        <time>2025-09-06T10:13:55.000Z</time>
        <extensions>
          <ns3:TrackPointExtension>
            <ns3:hr>155</ns3:hr>
            <ns3:cad>54</ns3:cad>
          </ns3:TrackPointExtension>
        </extensions>
      </trkpt>
      <trkpt lat="52.160047329962253570556640625" lon="1.4716865122318267822265625">
        <ele>-259.20001220703125</ele>
        <time>2025-09-06T10:13:57.000Z</time>
        <extensions>
          <ns3:TrackPointExtension>
            <ns3:hr>153</ns3:hr>
            <ns3:cad>55</ns3:cad>
          </ns3:TrackPointExtension>
        </extensions>
      </trkpt>
      <trkpt lat="52.1600340865552425384521484375" lon="1.47164921276271343231201171875">
        <ele>-259.600006103515625</ele>
        <time>2025-09-06T10:13:59.000Z</time>
        <extensions>
          <ns3:TrackPointExtension>
            <ns3:hr>153</ns3:hr>
            <ns3:cad>55</ns3:cad>
          </ns3:TrackPointExtension>
        </extensions>
      </trkpt>
      <trkpt lat="52.16001153923571109771728515625" lon="1.471568830311298370361328125">
        <ele>-260.399993896484375</ele>
        <time>2025-09-06T10:14:03.000Z</time>
        <extensions>
          <ns3:TrackPointExtension>
            <ns3:hr>154</ns3:hr>
            <ns3:cad>59</ns3:cad>
          </ns3:TrackPointExtension>
        </extensions>
      </trkpt>
      <trkpt lat="52.15999930165708065032958984375" lon="1.47148878313601016998291015625">
        <ele>-261</ele>
        <time>2025-09-06T10:14:06.000Z</time>
        <extensions>
          <ns3:TrackPointExtension>
            <ns3:hr>157</ns3:hr>
            <ns3:cad>0</ns3:cad>
          </ns3:TrackPointExtension>
        </extensions>
      </trkpt>
      <trkpt lat="52.1599965356290340423583984375" lon="1.471415273845195770263671875">
        <ele>-261.600006103515625</ele>
        <time>2025-09-06T10:14:09.000Z</time>
        <extensions>
          <ns3:TrackPointExtension>
            <ns3:hr>153</ns3:hr>
            <ns3:cad>78</ns3:cad>
          </ns3:TrackPointExtension>
        </extensions>
      </trkpt>
      <trkpt lat="52.159973569214344024658203125" lon="1.47136003710329532623291015625">
        <ele>-262.399993896484375</ele>
        <time>2025-09-06T10:14:13.000Z</time>
        <extensions>
          <ns3:TrackPointExtension>
            <ns3:hr>150</ns3:hr>
            <ns3:cad>0</ns3:cad>
          </ns3:TrackPointExtension>
        </extensions>
      </trkpt>
      <trkpt lat="52.15997180901467800140380859375" lon="1.47135685198009014129638671875">
        <ele>-262.600006103515625</ele>
        <time>2025-09-06T10:14:14.000Z</time>
        <extensions>
          <ns3:TrackPointExtension>
            <ns3:hr>148</ns3:hr>
            <ns3:cad>0</ns3:cad>
          </ns3:TrackPointExtension>
        </extensions>
      </trkpt>
      <trkpt lat="52.15996979735791683197021484375" lon="1.4713567681610584259033203125">
        <ele>-262.79998779296875</ele>
        <time>2025-09-06T10:14:15.000Z</time>
        <extensions>
          <ns3:TrackPointExtension>
            <ns3:hr>146</ns3:hr>
            <ns3:cad>0</ns3:cad>
          </ns3:TrackPointExtension>
        </extensions>
      </trkpt>
      <trkpt lat="52.1599717251956462860107421875" lon="1.47128619253635406494140625">
        <ele>-263.79998779296875</ele>
        <time>2025-09-06T10:14:21.000Z</time>
        <extensions>
          <ns3:TrackPointExtension>
            <ns3:hr>144</ns3:hr>
            <ns3:cad>0</ns3:cad>
          </ns3:TrackPointExtension>
        </extensions>
      </trkpt>
      <trkpt lat="52.15998874045908451080322265625" lon="1.47127035073935985565185546875">
        <ele>-264</ele>
        <time>2025-09-06T10:14:23.000Z</time>
        <extensions>
          <ns3:TrackPointExtension>
            <ns3:hr>143</ns3:hr>
            <ns3:cad>0</ns3:cad>
          </ns3:TrackPointExtension>
        </extensions>
      </trkpt>
      <trkpt lat="52.16001757420599460601806640625" lon="1.4712330512702465057373046875">
        <ele>-264.399993896484375</ele>
        <time>2025-09-06T10:14:28.000Z</time>
        <extensions>
          <ns3:TrackPointExtension>
            <ns3:hr>140</ns3:hr>
            <ns3:cad>0</ns3:cad>
          </ns3:TrackPointExtension>
        </extensions>
      </trkpt>
      <trkpt lat="52.1600139699876308441162109375" lon="1.47123045288026332855224609375">
        <ele>-264.399993896484375</ele>
        <time>2025-09-06T10:14:30.000Z</time>
        <extensions>
          <ns3:TrackPointExtension>
            <ns3:hr>136</ns3:hr>
            <ns3:cad>0</ns3:cad>
          </ns3:TrackPointExtension>
        </extensions>
      </trkpt>
      <trkpt lat="52.16000332497060298919677734375" lon="1.47123028524219989776611328125">
        <ele>-264.399993896484375</ele>
        <time>2025-09-06T10:14:31.000Z</time>
        <extensions>
          <ns3:TrackPointExtension>
            <ns3:hr>133</ns3:hr>
            <ns3:cad>0</ns3:cad>
          </ns3:TrackPointExtension>
        </extensions>
      </trkpt>
      <trkpt lat="52.15999376960098743438720703125" lon="1.47123254835605621337890625">
        <ele>-264.399993896484375</ele>
        <time>2025-09-06T10:14:32.000Z</time>
        <extensions>
          <ns3:TrackPointExtension>
            <ns3:hr>135</ns3:hr>
            <ns3:cad>0</ns3:cad>
          </ns3:TrackPointExtension>
        </extensions>
      </trkpt>
      <trkpt lat="52.1599955298006534576416015625" lon="1.4712276868522167205810546875">
        <ele>-264.399993896484375</ele>
        <time>2025-09-06T10:14:35.000Z</time>
        <extensions>
          <ns3:TrackPointExtension>
            <ns3:hr>131</ns3:hr>
            <ns3:cad>0</ns3:cad>
          </ns3:TrackPointExtension>
        </extensions>
      </trkpt>
      <trkpt lat="52.159996367990970611572265625" lon="1.4712280221283435821533203125">
        <ele>-264</ele>
        <time>2025-09-06T10:14:39.000Z</time>
        <extensions>
          <ns3:TrackPointExtension>
            <ns3:hr>128</ns3:hr>
            <ns3:cad>0</ns3:cad>
          </ns3:TrackPointExtension>
        </extensions>
      </trkpt>
      <trkpt lat="52.1599975414574146270751953125" lon="1.47122559137642383575439453125">
        <ele>-263.79998779296875</ele>
        <time>2025-09-06T10:14:41.000Z</time>
        <extensions>
          <ns3:TrackPointExtension>
            <ns3:hr>128</ns3:hr>
            <ns3:cad>0</ns3:cad>
          </ns3:TrackPointExtension>
        </extensions>
      </trkpt>
      <trkpt lat="52.1600112877786159515380859375" lon="1.471218802034854888916015625">
        <ele>-263.399993896484375</ele>
        <time>2025-09-06T10:14:47.000Z</time>
        <extensions>
          <ns3:TrackPointExtension>
            <ns3:hr>125</ns3:hr>
            <ns3:cad>0</ns3:cad>
          </ns3:TrackPointExtension>
        </extensions>
      </trkpt>
      <trkpt lat="52.16002092696726322174072265625" lon="1.4712182991206645965576171875">
        <ele>-263.399993896484375</ele>
        <time>2025-09-06T10:14:51.000Z</time>
        <extensions>
          <ns3:TrackPointExtension>
            <ns3:hr>126</ns3:hr>
            <ns3:cad>0</ns3:cad>
          </ns3:TrackPointExtension>
        </extensions>
      </trkpt>
      <trkpt lat="52.16002142988145351409912109375" lon="1.47117429412901401519775390625">
        <ele>-263.79998779296875</ele>
        <time>2025-09-06T10:14:55.000Z</time>
        <extensions>
          <ns3:TrackPointExtension>
            <ns3:hr>123</ns3:hr>
            <ns3:cad>0</ns3:cad>
          </ns3:TrackPointExtension>
        </extensions>
      </trkpt>
      <trkpt lat="52.16000550426542758941650390625" lon="1.4711200632154941558837890625">
        <ele>-264</ele>
        <time>2025-09-06T10:14:57.000Z</time>
        <extensions>
          <ns3:TrackPointExtension>
            <ns3:hr>122</ns3:hr>
            <ns3:cad>0</ns3:cad>
          </ns3:TrackPointExtension>
        </extensions>
      </trkpt>
      <trkpt lat="52.1599905006587505340576171875" lon="1.47105745039880275726318359375">
        <ele>-264</ele>
        <time>2025-09-06T10:14:59.000Z</time>
        <extensions>
          <ns3:TrackPointExtension>
            <ns3:hr>127</ns3:hr>
            <ns3:cad>80</ns3:cad>
          </ns3:TrackPointExtension>
        </extensions>
      </trkpt>
      <trkpt lat="52.1599874831736087799072265625" lon="1.4710211567580699920654296875">
        <ele>-264.20001220703125</ele>
        <time>2025-09-06T10:15:00.000Z</time>
        <extensions>
          <ns3:TrackPointExtension>
            <ns3:hr>130</ns3:hr>
            <ns3:cad>79</ns3:cad>
          </ns3:TrackPointExtension>
        </extensions>
      </trkpt>
      <trkpt lat="52.15997993946075439453125" lon="1.470942199230194091796875">
        <ele>-264.399993896484375</ele>
        <time>2025-09-06T10:15:02.000Z</time>
        <extensions>
          <ns3:TrackPointExtension>
            <ns3:hr>136</ns3:hr>
            <ns3:cad>78</ns3:cad>
          </ns3:TrackPointExtension>
        </extensions>
      </trkpt>
      <trkpt lat="52.159979604184627532958984375" lon="1.4708645828068256378173828125">
        <ele>-264.600006103515625</ele>
        <time>2025-09-06T10:15:04.000Z</time>
        <extensions>
          <ns3:TrackPointExtension>
            <ns3:hr>141</ns3:hr>
            <ns3:cad>79</ns3:cad>
          </ns3:TrackPointExtension>
        </extensions>
      </trkpt>
      <trkpt lat="52.159977257251739501953125" lon="1.47083616815507411956787109375">
        <ele>-264.600006103515625</ele>
        <time>2025-09-06T10:15:05.000Z</time>
        <extensions>
          <ns3:TrackPointExtension>
            <ns3:hr>141</ns3:hr>
            <ns3:cad>79</ns3:cad>
          </ns3:TrackPointExtension>
        </extensions>
      </trkpt>
      <trkpt lat="52.15997683815658092498779296875" lon="1.4708069153130054473876953125">
        <ele>-264.79998779296875</ele>
        <time>2025-09-06T10:15:06.000Z</time>
        <extensions>
          <ns3:TrackPointExtension>
            <ns3:hr>144</ns3:hr>
            <ns3:cad>79</ns3:cad>
          </ns3:TrackPointExtension>
        </extensions>
      </trkpt>
      <trkpt lat="52.15997516177594661712646484375" lon="1.47074799053370952606201171875">
        <ele>-264.79998779296875</ele>
        <time>2025-09-06T10:15:08.000Z</time>
        <extensions>
          <ns3:TrackPointExtension>
            <ns3:hr>147</ns3:hr>
            <ns3:cad>79</ns3:cad>
          </ns3:TrackPointExtension>
        </extensions>
      </trkpt>
      <trkpt lat="52.15996828861534595489501953125" lon="1.4706573821604251861572265625">
        <ele>-265</ele>
        <time>2025-09-06T10:15:11.000Z</time>
        <extensions>
          <ns3:TrackPointExtension>
            <ns3:hr>149</ns3:hr>
            <ns3:cad>79</ns3:cad>
          </ns3:TrackPointExtension>
        </extensions>
      </trkpt>
      <trkpt lat="52.15994448401033878326416015625" lon="1.47052846848964691162109375">
        <ele>-265.399993896484375</ele>
        <time>2025-09-06T10:15:15.000Z</time>
        <extensions>
          <ns3:TrackPointExtension>
            <ns3:hr>152</ns3:hr>
            <ns3:cad>79</ns3:cad>
          </ns3:TrackPointExtension>
        </extensions>
      </trkpt>
      <trkpt lat="52.15994331054389476776123046875" lon="1.47043148986995220184326171875">
        <ele>-265.600006103515625</ele>
        <time>2025-09-06T10:15:18.000Z</time>
        <extensions>
          <ns3:TrackPointExtension>
            <ns3:hr>155</ns3:hr>
            <ns3:cad>79</ns3:cad>
          </ns3:TrackPointExtension>
        </extensions>
      </trkpt>
      <trkpt lat="52.1599475853145122528076171875" lon="1.47036259062588214874267578125">
        <ele>-265.600006103515625</ele>
        <time>2025-09-06T10:15:20.000Z</time>
        <extensions>
          <ns3:TrackPointExtension>
            <ns3:hr>153</ns3:hr>
            <ns3:cad>79</ns3:cad>
          </ns3:TrackPointExtension>
        </extensions>
      </trkpt>
      <trkpt lat="52.15994901023805141448974609375" lon="1.47025865502655506134033203125">
        <ele>-265.79998779296875</ele>
        <time>2025-09-06T10:15:23.000Z</time>
        <extensions>
          <ns3:TrackPointExtension>
            <ns3:hr>155</ns3:hr>
            <ns3:cad>79</ns3:cad>
          </ns3:TrackPointExtension>
        </extensions>
      </trkpt>
      <trkpt lat="52.159904502332210540771484375" lon="1.47011163644492626190185546875">
        <ele>-266.20001220703125</ele>
        <time>2025-09-06T10:15:29.000Z</time>
        <extensions>
          <ns3:TrackPointExtension>
            <ns3:hr>153</ns3:hr>
            <ns3:cad>79</ns3:cad>
          </ns3:TrackPointExtension>
        </extensions>
      </trkpt>
      <trkpt lat="52.15986368246376514434814453125" lon="1.47004525177180767059326171875">
        <ele>-266.399993896484375</ele>
        <time>2025-09-06T10:15:36.000Z</time>
        <extensions>
          <ns3:TrackPointExtension>
            <ns3:hr>154</ns3:hr>
            <ns3:cad>0</ns3:cad>
          </ns3:TrackPointExtension>
        </extensions>
      </trkpt>
      <trkpt lat="52.15984758920967578887939453125" lon="1.470029242336750030517578125">
        <ele>-266.79998779296875</ele>
        <time>2025-09-06T10:15:44.000Z</time>
        <extensions>
          <ns3:TrackPointExtension>
            <ns3:hr>151</ns3:hr>
            <ns3:cad>0</ns3:cad>
          </ns3:TrackPointExtension>
        </extensions>
      </trkpt>
      <trkpt lat="52.15984708629548549652099609375" lon="1.47002865560352802276611328125">
        <ele>-266.79998779296875</ele>
        <time>2025-09-06T10:15:46.000Z</time>
        <extensions>
          <ns3:TrackPointExtension>
            <ns3:hr>151</ns3:hr>
            <ns3:cad>0</ns3:cad>
          </ns3:TrackPointExtension>
        </extensions>
      </trkpt>
      <trkpt lat="52.15984591282904148101806640625" lon="1.4700304158031940460205078125">
        <ele>-267</ele>
        <time>2025-09-06T10:15:47.000Z</time>
        <extensions>
          <ns3:TrackPointExtension>
            <ns3:hr>151</ns3:hr>
            <ns3:cad>0</ns3:cad>
          </ns3:TrackPointExtension>
        </extensions>
      </trkpt>
      <trkpt lat="52.1598490141332149505615234375" lon="1.4700250513851642608642578125">
        <ele>-267.20001220703125</ele>
        <time>2025-09-06T10:15:50.000Z</time>
        <extensions>
          <ns3:TrackPointExtension>
            <ns3:hr>148</ns3:hr>
            <ns3:cad>0</ns3:cad>
          </ns3:TrackPointExtension>
        </extensions>
      </trkpt>
      <trkpt lat="52.15985027141869068145751953125" lon="1.47001675330102443695068359375">
        <ele>-267.399993896484375</ele>
        <time>2025-09-06T10:15:56.000Z</time>
        <extensions>
          <ns3:TrackPointExtension>
            <ns3:hr>147</ns3:hr>
            <ns3:cad>0</ns3:cad>
          </ns3:TrackPointExtension>
        </extensions>
      </trkpt>
      <trkpt lat="52.15985194779932498931884765625" lon="1.47001524455845355987548828125">
        <ele>-267.600006103515625</ele>
        <time>2025-09-06T10:15:58.000Z</time>
        <extensions>
          <ns3:TrackPointExtension>
            <ns3:hr>144</ns3:hr>
            <ns3:cad>0</ns3:cad>
          </ns3:TrackPointExtension>
        </extensions>
      </trkpt>
      <trkpt lat="52.15985949151217937469482421875" lon="1.46998708136379718780517578125">
        <ele>-268</ele>
        <time>2025-09-06T10:16:04.000Z</time>
        <extensions>
          <ns3:TrackPointExtension>
            <ns3:hr>143</ns3:hr>
            <ns3:cad>0</ns3:cad>
          </ns3:TrackPointExtension>
        </extensions>
      </trkpt>
      <trkpt lat="52.1598578989505767822265625" lon="1.46998020820319652557373046875">
        <ele>-268</ele>
        <time>2025-09-06T10:16:06.000Z</time>
        <extensions>
          <ns3:TrackPointExtension>
            <ns3:hr>139</ns3:hr>
            <ns3:cad>0</ns3:cad>
          </ns3:TrackPointExtension>
        </extensions>
      </trkpt>
      <trkpt lat="52.1598476730287075042724609375" lon="1.4699811302125453948974609375">
        <ele>-268.20001220703125</ele>
        <time>2025-09-06T10:16:08.000Z</time>
        <extensions>
          <ns3:TrackPointExtension>
            <ns3:hr>136</ns3:hr>
            <ns3:cad>0</ns3:cad>
          </ns3:TrackPointExtension>
        </extensions>
      </trkpt>
      <trkpt lat="52.1598181687295436859130859375" lon="1.4699744246900081634521484375">
        <ele>-268.79998779296875</ele>
        <time>2025-09-06T10:16:13.000Z</time>
        <extensions>
          <ns3:TrackPointExtension>
            <ns3:hr>133</ns3:hr>
            <ns3:cad>0</ns3:cad>
          </ns3:TrackPointExtension>
        </extensions>
      </trkpt>
      <trkpt lat="52.159814648330211639404296875" lon="1.4699725806713104248046875">
        <ele>-269</ele>
        <time>2025-09-06T10:16:15.000Z</time>
        <extensions>
          <ns3:TrackPointExtension>
            <ns3:hr>128</ns3:hr>
            <ns3:cad>0</ns3:cad>
          </ns3:TrackPointExtension>
        </extensions>
      </trkpt>
      <trkpt lat="52.15981565415859222412109375" lon="1.4699710719287395477294921875">
        <ele>-269.20001220703125</ele>
        <time>2025-09-06T10:16:16.000Z</time>
        <extensions>
          <ns3:TrackPointExtension>
            <ns3:hr>128</ns3:hr>
            <ns3:cad>0</ns3:cad>
          </ns3:TrackPointExtension>
        </extensions>
      </trkpt>
      <trkpt lat="52.1598402969539165496826171875" lon="1.46992455236613750457763671875">
        <ele>-270.20001220703125</ele>
        <time>2025-09-06T10:16:23.000Z</time>
        <extensions>
          <ns3:TrackPointExtension>
            <ns3:hr>127</ns3:hr>
            <ns3:cad>0</ns3:cad>
          </ns3:TrackPointExtension>
        </extensions>
      </trkpt>
      <trkpt lat="52.1598426438868045806884765625" lon="1.46991617046296596527099609375">
        <ele>-270.600006103515625</ele>
        <time>2025-09-06T10:16:26.000Z</time>
        <extensions>
          <ns3:TrackPointExtension>
            <ns3:hr>127</ns3:hr>
            <ns3:cad>0</ns3:cad>
          </ns3:TrackPointExtension>
        </extensions>
      </trkpt>
      <trkpt lat="52.15983266942203044891357421875" lon="1.46991063840687274932861328125">
        <ele>-271</ele>
        <time>2025-09-06T10:16:29.000Z</time>
        <extensions>
          <ns3:TrackPointExtension>
            <ns3:hr>124</ns3:hr>
            <ns3:cad>0</ns3:cad>
          </ns3:TrackPointExtension>
        </extensions>
      </trkpt>
      <trkpt lat="52.15983199886977672576904296875" lon="1.46991265006363391876220703125">
        <ele>-271.20001220703125</ele>
        <time>2025-09-06T10:16:30.000Z</time>
        <extensions>
          <ns3:TrackPointExtension>
            <ns3:hr>125</ns3:hr>
            <ns3:cad>0</ns3:cad>
          </ns3:TrackPointExtension>
        </extensions>
      </trkpt>
      <trkpt lat="52.15982546098530292510986328125" lon="1.469913907349109649658203125">
        <ele>-271.600006103515625</ele>
        <time>2025-09-06T10:16:34.000Z</time>
        <extensions>
          <ns3:TrackPointExtension>
            <ns3:hr>124</ns3:hr>
            <ns3:cad>0</ns3:cad>
          </ns3:TrackPointExtension>
        </extensions>
      </trkpt>
      <trkpt lat="52.15981473214924335479736328125" lon="1.46991650573909282684326171875">
        <ele>-271.79998779296875</ele>
        <time>2025-09-06T10:16:38.000Z</time>
        <extensions>
          <ns3:TrackPointExtension>
            <ns3:hr>121</ns3:hr>
            <ns3:cad>0</ns3:cad>
          </ns3:TrackPointExtension>
        </extensions>
      </trkpt>
      <trkpt lat="52.15978841297328472137451171875" lon="1.46988582797348499298095703125">
        <ele>-272</ele>
        <time>2025-09-06T10:16:42.000Z</time>
        <extensions>
          <ns3:TrackPointExtension>
            <ns3:hr>122</ns3:hr>
            <ns3:cad>0</ns3:cad>
          </ns3:TrackPointExtension>
        </extensions>
      </trkpt>
      <trkpt lat="52.15979243628680706024169921875" lon="1.46986168809235095977783203125">
        <ele>-272.20001220703125</ele>
        <time>2025-09-06T10:16:46.000Z</time>
        <extensions>
          <ns3:TrackPointExtension>
            <ns3:hr>120</ns3:hr>
            <ns3:cad>48</ns3:cad>
          </ns3:TrackPointExtension>
        </extensions>
      </trkpt>
      <trkpt lat="52.1598255448043346405029296875" lon="1.46977820433676242828369140625">
        <ele>-272.20001220703125</ele>
        <time>2025-09-06T10:16:50.000Z</time>
        <extensions>
          <ns3:TrackPointExtension>
            <ns3:hr>120</ns3:hr>
            <ns3:cad>53</ns3:cad>
          </ns3:TrackPointExtension>
        </extensions>
      </trkpt>
      <trkpt lat="52.15993191115558147430419921875" lon="1.46965599618852138519287109375">
        <ele>-272.600006103515625</ele>
        <time>2025-09-06T10:16:58.000Z</time>
        <extensions>
          <ns3:TrackPointExtension>
            <ns3:hr>122</ns3:hr>
            <ns3:cad>74</ns3:cad>
          </ns3:TrackPointExtension>
        </extensions>
      </trkpt>
      <trkpt lat="52.15993811376392841339111328125" lon="1.46964199841022491455078125">
        <ele>-272.600006103515625</ele>
        <time>2025-09-06T10:16:59.000Z</time>
        <extensions>
          <ns3:TrackPointExtension>
            <ns3:hr>125</ns3:hr>
            <ns3:cad>0</ns3:cad>
          </ns3:TrackPointExtension>
        </extensions>
      </trkpt>
      <trkpt lat="52.1599455736577510833740234375" lon="1.4696381427347660064697265625">
        <ele>-272.79998779296875</ele>
        <time>2025-09-06T10:17:00.000Z</time>
        <extensions>
          <ns3:TrackPointExtension>
            <ns3:hr>125</ns3:hr>
            <ns3:cad>0</ns3:cad>
          </ns3:TrackPointExtension>
        </extensions>
      </trkpt>
      <trkpt lat="52.15995269827544689178466796875" lon="1.46963872946798801422119140625">
        <ele>-272.79998779296875</ele>
        <time>2025-09-06T10:17:01.000Z</time>
        <extensions>
          <ns3:TrackPointExtension>
            <ns3:hr>129</ns3:hr>
            <ns3:cad>0</ns3:cad>
          </ns3:TrackPointExtension>
        </extensions>
      </trkpt>
      <trkpt lat="52.1599653549492359161376953125" lon="1.46964040584862232208251953125">
        <ele>-273.20001220703125</ele>
        <time>2025-09-06T10:17:03.000Z</time>
        <extensions>
          <ns3:TrackPointExtension>
            <ns3:hr>133</ns3:hr>
            <ns3:cad>0</ns3:cad>
          </ns3:TrackPointExtension>
        </extensions>
      </trkpt>
      <trkpt lat="52.159971892833709716796875" lon="1.4696371369063854217529296875">
        <ele>-273.20001220703125</ele>
        <time>2025-09-06T10:17:04.000Z</time>
        <extensions>
          <ns3:TrackPointExtension>
            <ns3:hr>133</ns3:hr>
            <ns3:cad>51</ns3:cad>
          </ns3:TrackPointExtension>
        </extensions>
      </trkpt>
      <trkpt lat="52.15997901745140552520751953125" lon="1.46963772363960742950439453125">
        <ele>-273.399993896484375</ele>
        <time>2025-09-06T10:17:05.000Z</time>
        <extensions>
          <ns3:TrackPointExtension>
            <ns3:hr>132</ns3:hr>
            <ns3:cad>51</ns3:cad>
          </ns3:TrackPointExtension>
        </extensions>
      </trkpt>
      <trkpt lat="52.15999376960098743438720703125" lon="1.4696441777050495147705078125">
        <ele>-273.399993896484375</ele>
        <time>2025-09-06T10:17:06.000Z</time>
        <extensions>
          <ns3:TrackPointExtension>
            <ns3:hr>132</ns3:hr>
            <ns3:cad>51</ns3:cad>
          </ns3:TrackPointExtension>
        </extensions>
      </trkpt>
      <trkpt lat="52.1600770018994808197021484375" lon="1.46963923238217830657958984375">
        <ele>-274.20001220703125</ele>
        <time>2025-09-06T10:17:11.000Z</time>
        <extensions>
          <ns3:TrackPointExtension>
            <ns3:hr>135</ns3:hr>
            <ns3:cad>76</ns3:cad>
          </ns3:TrackPointExtension>
        </extensions>
      </trkpt>
      <trkpt lat="52.16011161915957927703857421875" lon="1.469638980925083160400390625">
        <ele>-274.399993896484375</ele>
        <time>2025-09-06T10:17:13.000Z</time>
        <extensions>
          <ns3:TrackPointExtension>
            <ns3:hr>138</ns3:hr>
            <ns3:cad>77</ns3:cad>
          </ns3:TrackPointExtension>
        </extensions>
      </trkpt>
      <trkpt lat="52.16014548204839229583740234375" lon="1.46964468061923980712890625">
        <ele>-274.600006103515625</ele>
        <time>2025-09-06T10:17:15.000Z</time>
        <extensions>
          <ns3:TrackPointExtension>
            <ns3:hr>143</ns3:hr>
            <ns3:cad>77</ns3:cad>
          </ns3:TrackPointExtension>
        </extensions>
      </trkpt>
      <trkpt lat="52.16022309847176074981689453125" lon="1.46965943276882171630859375">
        <ele>-275</ele>
        <time>2025-09-06T10:17:20.000Z</time>
        <extensions>
          <ns3:TrackPointExtension>
            <ns3:hr>145</ns3:hr>
            <ns3:cad>75</ns3:cad>
          </ns3:TrackPointExtension>
        </extensions>
      </trkpt>
      <trkpt lat="52.16031412594020366668701171875" lon="1.46963772363960742950439453125">
        <ele>-275.20001220703125</ele>
        <time>2025-09-06T10:17:25.000Z</time>
        <extensions>
          <ns3:TrackPointExtension>
            <ns3:hr>148</ns3:hr>
            <ns3:cad>77</ns3:cad>
          </ns3:TrackPointExtension>
        </extensions>
      </trkpt>
      <trkpt lat="52.1603458933532238006591796875" lon="1.4696455188095569610595703125">
        <ele>-275.20001220703125</ele>
        <time>2025-09-06T10:17:27.000Z</time>
        <extensions>
          <ns3:TrackPointExtension>
            <ns3:hr>150</ns3:hr>
            <ns3:cad>77</ns3:cad>
          </ns3:TrackPointExtension>
        </extensions>
      </trkpt>
      <trkpt lat="52.16049366630613803863525390625" lon="1.469669826328754425048828125">
        <ele>-275.20001220703125</ele>
        <time>2025-09-06T10:17:35.000Z</time>
        <extensions>
          <ns3:TrackPointExtension>
            <ns3:hr>153</ns3:hr>
            <ns3:cad>0</ns3:cad>
          </ns3:TrackPointExtension>
        </extensions>
      </trkpt>
      <trkpt lat="52.16052099131047725677490234375" lon="1.4696639589965343475341796875">
        <ele>-275</ele>
        <time>2025-09-06T10:17:37.000Z</time>
        <extensions>
          <ns3:TrackPointExtension>
            <ns3:hr>154</ns3:hr>
            <ns3:cad>75</ns3:cad>
          </ns3:TrackPointExtension>
        </extensions>
      </trkpt>
      <trkpt lat="52.16064051724970340728759765625" lon="1.4696894399821758270263671875">
        <ele>-275</ele>
        <time>2025-09-06T10:17:45.000Z</time>
        <extensions>
          <ns3:TrackPointExtension>
            <ns3:hr>154</ns3:hr>
            <ns3:cad>77</ns3:cad>
          </ns3:TrackPointExtension>
        </extensions>
      </trkpt>
      <trkpt lat="52.16068678535521030426025390625" lon="1.46970427595078945159912109375">
        <ele>-275.20001220703125</ele>
        <time>2025-09-06T10:17:51.000Z</time>
        <extensions>
          <ns3:TrackPointExtension>
            <ns3:hr>154</ns3:hr>
            <ns3:cad>0</ns3:cad>
          </ns3:TrackPointExtension>
        </extensions>
      </trkpt>
      <trkpt lat="52.16073456220328807830810546875" lon="1.4696562476456165313720703125">
        <ele>-274.79998779296875</ele>
        <time>2025-09-06T10:17:59.000Z</time>
        <extensions>
          <ns3:TrackPointExtension>
            <ns3:hr>155</ns3:hr>
            <ns3:cad>0</ns3:cad>
          </ns3:TrackPointExtension>
        </extensions>
      </trkpt>
      <trkpt lat="52.16074168682098388671875" lon="1.46964375860989093780517578125">
        <ele>-274.600006103515625</ele>
        <time>2025-09-06T10:18:00.000Z</time>
        <extensions>
          <ns3:TrackPointExtension>
            <ns3:hr>155</ns3:hr>
            <ns3:cad>0</ns3:cad>
          </ns3:TrackPointExtension>
        </extensions>
      </trkpt>
      <trkpt lat="52.16080815531313419342041015625" lon="1.46949313580989837646484375">
        <ele>-274</ele>
        <time>2025-09-06T10:18:09.000Z</time>
        <extensions>
          <ns3:TrackPointExtension>
            <ns3:hr>151</ns3:hr>
            <ns3:cad>57</ns3:cad>
          </ns3:TrackPointExtension>
        </extensions>
      </trkpt>
      <trkpt lat="52.1608146093785762786865234375" lon="1.46946824155747890472412109375">
        <ele>-273.79998779296875</ele>
        <time>2025-09-06T10:18:10.000Z</time>
        <extensions>
          <ns3:TrackPointExtension>
            <ns3:hr>150</ns3:hr>
            <ns3:cad>58</ns3:cad>
          </ns3:TrackPointExtension>
        </extensions>
      </trkpt>
      <trkpt lat="52.1608437784016132354736328125" lon="1.469347290694713592529296875">
        <ele>-273.399993896484375</ele>
        <time>2025-09-06T10:18:16.000Z</time>
        <extensions>
          <ns3:TrackPointExtension>
            <ns3:hr>146</ns3:hr>
            <ns3:cad>56</ns3:cad>
          </ns3:TrackPointExtension>
        </extensions>
      </trkpt>
      <trkpt lat="52.16085542924702167510986328125" lon="1.46931879222393035888671875">
        <ele>-273.20001220703125</ele>
        <time>2025-09-06T10:18:18.000Z</time>
        <extensions>
          <ns3:TrackPointExtension>
            <ns3:hr>145</ns3:hr>
            <ns3:cad>56</ns3:cad>
          </ns3:TrackPointExtension>
        </extensions>
      </trkpt>
      <trkpt lat="52.16086976230144500732421875" lon="1.469295322895050048828125">
        <ele>-272.600006103515625</ele>
        <time>2025-09-06T10:18:23.000Z</time>
        <extensions>
          <ns3:TrackPointExtension>
            <ns3:hr>141</ns3:hr>
            <ns3:cad>0</ns3:cad>
          </ns3:TrackPointExtension>
        </extensions>
      </trkpt>
      <trkpt lat="52.1608632244169712066650390625" lon="1.46926187910139560699462890625">
        <ele>-272.399993896484375</ele>
        <time>2025-09-06T10:18:27.000Z</time>
        <extensions>
          <ns3:TrackPointExtension>
            <ns3:hr>142</ns3:hr>
            <ns3:cad>0</ns3:cad>
          </ns3:TrackPointExtension>
        </extensions>
      </trkpt>
      <trkpt lat="52.16086599044501781463623046875" lon="1.46924595348536968231201171875">
        <ele>-272.20001220703125</ele>
        <time>2025-09-06T10:18:28.000Z</time>
        <extensions>
          <ns3:TrackPointExtension>
            <ns3:hr>139</ns3:hr>
            <ns3:cad>0</ns3:cad>
          </ns3:TrackPointExtension>
        </extensions>
      </trkpt>
      <trkpt lat="52.1608682535588741302490234375" lon="1.469210498034954071044921875">
        <ele>-272</ele>
        <time>2025-09-06T10:18:30.000Z</time>
        <extensions>
          <ns3:TrackPointExtension>
            <ns3:hr>139</ns3:hr>
            <ns3:cad>55</ns3:cad>
          </ns3:TrackPointExtension>
        </extensions>
      </trkpt>
      <trkpt lat="52.16091192327439785003662109375" lon="1.46904495544731616973876953125">
        <ele>-271.399993896484375</ele>
        <time>2025-09-06T10:18:37.000Z</time>
        <extensions>
          <ns3:TrackPointExtension>
            <ns3:hr>140</ns3:hr>
            <ns3:cad>56</ns3:cad>
          </ns3:TrackPointExtension>
        </extensions>
      </trkpt>
      <trkpt lat="52.16094444505870342254638671875" lon="1.469026096165180206298828125">
        <ele>-271.399993896484375</ele>
        <time>2025-09-06T10:18:38.000Z</time>
        <extensions>
          <ns3:TrackPointExtension>
            <ns3:hr>140</ns3:hr>
            <ns3:cad>56</ns3:cad>
          </ns3:TrackPointExtension>
        </extensions>
      </trkpt>
      <trkpt lat="52.16091175563633441925048828125" lon="1.46895007230341434478759765625">
        <ele>-271</ele>
        <time>2025-09-06T10:18:41.000Z</time>
        <extensions>
          <ns3:TrackPointExtension>
            <ns3:hr>137</ns3:hr>
            <ns3:cad>57</ns3:cad>
          </ns3:TrackPointExtension>
        </extensions>
      </trkpt>
      <trkpt lat="52.16090303845703601837158203125" lon="1.4689318835735321044921875">
        <ele>-271</ele>
        <time>2025-09-06T10:18:42.000Z</time>
        <extensions>
          <ns3:TrackPointExtension>
            <ns3:hr>140</ns3:hr>
            <ns3:cad>57</ns3:cad>
          </ns3:TrackPointExtension>
        </extensions>
      </trkpt>
      <trkpt lat="52.1608964167535305023193359375" lon="1.46891453303396701812744140625">
        <ele>-270.79998779296875</ele>
        <time>2025-09-06T10:18:43.000Z</time>
        <extensions>
          <ns3:TrackPointExtension>
            <ns3:hr>139</ns3:hr>
            <ns3:cad>57</ns3:cad>
          </ns3:TrackPointExtension>
        </extensions>
      </trkpt>
      <trkpt lat="52.16088057495653629302978515625" lon="1.4688623137772083282470703125">
        <ele>-270.600006103515625</ele>
        <time>2025-09-06T10:18:46.000Z</time>
        <extensions>
          <ns3:TrackPointExtension>
            <ns3:hr>142</ns3:hr>
            <ns3:cad>0</ns3:cad>
          </ns3:TrackPointExtension>
        </extensions>
      </trkpt>
      <trkpt lat="52.16087378561496734619140625" lon="1.46879701875150203704833984375">
        <ele>-270.600006103515625</ele>
        <time>2025-09-06T10:18:49.000Z</time>
        <extensions>
          <ns3:TrackPointExtension>
            <ns3:hr>138</ns3:hr>
            <ns3:cad>0</ns3:cad>
          </ns3:TrackPointExtension>
        </extensions>
      </trkpt>
      <trkpt lat="52.16087219305336475372314453125" lon="1.468773968517780303955078125">
        <ele>-270.600006103515625</ele>
        <time>2025-09-06T10:18:50.000Z</time>
        <extensions>
          <ns3:TrackPointExtension>
            <ns3:hr>136</ns3:hr>
            <ns3:cad>0</ns3:cad>
          </ns3:TrackPointExtension>
        </extensions>
      </trkpt>
      <trkpt lat="52.16087185777723789215087890625" lon="1.46873541176319122314453125">
        <ele>-270.600006103515625</ele>
        <time>2025-09-06T10:18:52.000Z</time>
        <extensions>
          <ns3:TrackPointExtension>
            <ns3:hr>132</ns3:hr>
            <ns3:cad>0</ns3:cad>
          </ns3:TrackPointExtension>
        </extensions>
      </trkpt>
      <trkpt lat="52.1608662419021129608154296875" lon="1.46863876841962337493896484375">
        <ele>-270.600006103515625</ele>
        <time>2025-09-06T10:18:58.000Z</time>
        <extensions>
          <ns3:TrackPointExtension>
            <ns3:hr>133</ns3:hr>
            <ns3:cad>48</ns3:cad>
          </ns3:TrackPointExtension>
        </extensions>
      </trkpt>
      <trkpt lat="52.16085677035152912139892578125" lon="1.46852108649909496307373046875">
        <ele>-270.600006103515625</ele>
        <time>2025-09-06T10:19:04.000Z</time>
        <extensions>
          <ns3:TrackPointExtension>
            <ns3:hr>131</ns3:hr>
            <ns3:cad>40</ns3:cad>
          </ns3:TrackPointExtension>
        </extensions>
      </trkpt>
      <trkpt lat="52.16084805317223072052001953125" lon="1.4685049094259738922119140625">
        <ele>-270.399993896484375</ele>
        <time>2025-09-06T10:19:11.000Z</time>
        <extensions>
          <ns3:TrackPointExtension>
            <ns3:hr>128</ns3:hr>
            <ns3:cad>0</ns3:cad>
          </ns3:TrackPointExtension>
        </extensions>
      </trkpt>
      <trkpt lat="52.1608464606106281280517578125" lon="1.468498706817626953125">
        <ele>-270.399993896484375</ele>
        <time>2025-09-06T10:19:12.000Z</time>
        <extensions>
          <ns3:TrackPointExtension>
            <ns3:hr>127</ns3:hr>
            <ns3:cad>0</ns3:cad>
          </ns3:TrackPointExtension>
        </extensions>
      </trkpt>
      <trkpt lat="52.1608337201178073883056640625" lon="1.4684284664690494537353515625">
        <ele>-270</ele>
        <time>2025-09-06T10:19:18.000Z</time>
        <extensions>
          <ns3:TrackPointExtension>
            <ns3:hr>130</ns3:hr>
            <ns3:cad>47</ns3:cad>
          </ns3:TrackPointExtension>
        </extensions>
      </trkpt>
      <trkpt lat="52.16082751750946044921875" lon="1.46841463632881641387939453125">
        <ele>-270</ele>
        <time>2025-09-06T10:19:19.000Z</time>
        <extensions>
          <ns3:TrackPointExtension>
            <ns3:hr>129</ns3:hr>
            <ns3:cad>49</ns3:cad>
          </ns3:TrackPointExtension>
        </extensions>
      </trkpt>
      <trkpt lat="52.16082173399627208709716796875" lon="1.46840072236955165863037109375">
        <ele>-269.79998779296875</ele>
        <time>2025-09-06T10:19:20.000Z</time>
        <extensions>
          <ns3:TrackPointExtension>
            <ns3:hr>130</ns3:hr>
            <ns3:cad>49</ns3:cad>
          </ns3:TrackPointExtension>
        </extensions>
      </trkpt>
      <trkpt lat="52.160814441740512847900390625" lon="1.46838680841028690338134765625">
        <ele>-269.79998779296875</ele>
        <time>2025-09-06T10:19:21.000Z</time>
        <extensions>
          <ns3:TrackPointExtension>
            <ns3:hr>127</ns3:hr>
            <ns3:cad>49</ns3:cad>
          </ns3:TrackPointExtension>
        </extensions>
      </trkpt>
      <trkpt lat="52.16073271818459033966064453125" lon="1.46827700547873973846435546875">
        <ele>-269.79998779296875</ele>
        <time>2025-09-06T10:19:31.000Z</time>
        <extensions>
          <ns3:TrackPointExtension>
            <ns3:hr>122</ns3:hr>
            <ns3:cad>53</ns3:cad>
          </ns3:TrackPointExtension>
        </extensions>
      </trkpt>
      <trkpt lat="52.1607227437198162078857421875" lon="1.4682640135288238525390625">
        <ele>-269.79998779296875</ele>
        <time>2025-09-06T10:19:32.000Z</time>
        <extensions>
          <ns3:TrackPointExtension>
            <ns3:hr>121</ns3:hr>
            <ns3:cad>53</ns3:cad>
          </ns3:TrackPointExtension>
        </extensions>
      </trkpt>
      <trkpt lat="52.16064923442900180816650390625" lon="1.46818279288709163665771484375">
        <ele>-269.79998779296875</ele>
        <time>2025-09-06T10:19:39.000Z</time>
        <extensions>
          <ns3:TrackPointExtension>
            <ns3:hr>117</ns3:hr>
            <ns3:cad>55</ns3:cad>
          </ns3:TrackPointExtension>
        </extensions>
      </trkpt>
      <trkpt lat="52.160637415945529937744140625" lon="1.46817239932715892791748046875">
        <ele>-269.79998779296875</ele>
        <time>2025-09-06T10:19:40.000Z</time>
        <extensions>
          <ns3:TrackPointExtension>
            <ns3:hr>120</ns3:hr>
            <ns3:cad>56</ns3:cad>
          </ns3:TrackPointExtension>
        </extensions>
      </trkpt>
      <trkpt lat="52.1605929918587207794189453125" lon="1.4681015722453594207763671875">
        <ele>-269.20001220703125</ele>
        <time>2025-09-06T10:19:45.000Z</time>
        <extensions>
          <ns3:TrackPointExtension>
            <ns3:hr>119</ns3:hr>
            <ns3:cad>54</ns3:cad>
          </ns3:TrackPointExtension>
        </extensions>
      </trkpt>
      <trkpt lat="52.16057966463267803192138671875" lon="1.4680727384984493255615234375">
        <ele>-268.600006103515625</ele>
        <time>2025-09-06T10:19:47.000Z</time>
        <extensions>
          <ns3:TrackPointExtension>
            <ns3:hr>116</ns3:hr>
            <ns3:cad>53</ns3:cad>
          </ns3:TrackPointExtension>
        </extensions>
      </trkpt>
      <trkpt lat="52.160564325749874114990234375" lon="1.46804608404636383056640625">
        <ele>-267.79998779296875</ele>
        <time>2025-09-06T10:19:49.000Z</time>
        <extensions>
          <ns3:TrackPointExtension>
            <ns3:hr>117</ns3:hr>
            <ns3:cad>52</ns3:cad>
          </ns3:TrackPointExtension>
        </extensions>
      </trkpt>
      <trkpt lat="52.16053716838359832763671875" lon="1.46799872629344463348388671875">
        <ele>-266.399993896484375</ele>
        <time>2025-09-06T10:19:52.000Z</time>
        <extensions>
          <ns3:TrackPointExtension>
            <ns3:hr>118</ns3:hr>
            <ns3:cad>54</ns3:cad>
          </ns3:TrackPointExtension>
        </extensions>
      </trkpt>
      <trkpt lat="52.1605199016630649566650390625" lon="1.46796318702399730682373046875">
        <ele>-265.20001220703125</ele>
        <time>2025-09-06T10:19:54.000Z</time>
        <extensions>
          <ns3:TrackPointExtension>
            <ns3:hr>118</ns3:hr>
            <ns3:cad>54</ns3:cad>
          </ns3:TrackPointExtension>
        </extensions>
      </trkpt>
      <trkpt lat="52.1605028025805950164794921875" lon="1.46792463026940822601318359375">
        <ele>-264.20001220703125</ele>
        <time>2025-09-06T10:19:56.000Z</time>
        <extensions>
          <ns3:TrackPointExtension>
            <ns3:hr>119</ns3:hr>
            <ns3:cad>54</ns3:cad>
          </ns3:TrackPointExtension>
        </extensions>
      </trkpt>
      <trkpt lat="52.16048679314553737640380859375" lon="1.4678849838674068450927734375">
        <ele>-263</ele>
        <time>2025-09-06T10:19:58.000Z</time>
        <extensions>
          <ns3:TrackPointExtension>
            <ns3:hr>119</ns3:hr>
            <ns3:cad>54</ns3:cad>
          </ns3:TrackPointExtension>
        </extensions>
      </trkpt>
      <trkpt lat="52.16047413647174835205078125" lon="1.46785388700664043426513671875">
        <ele>-261.79998779296875</ele>
        <time>2025-09-06T10:20:00.000Z</time>
        <extensions>
          <ns3:TrackPointExtension>
            <ns3:hr>118</ns3:hr>
            <ns3:cad>55</ns3:cad>
          </ns3:TrackPointExtension>
        </extensions>
      </trkpt>
      <trkpt lat="52.1604665927588939666748046875" lon="1.467831172049045562744140625">
        <ele>-260.79998779296875</ele>
        <time>2025-09-06T10:20:02.000Z</time>
        <extensions>
          <ns3:TrackPointExtension>
            <ns3:hr>116</ns3:hr>
            <ns3:cad>54</ns3:cad>
          </ns3:TrackPointExtension>
        </extensions>
      </trkpt>
      <trkpt lat="52.16046474874019622802734375" lon="1.467820107936859130859375">
        <ele>-260.20001220703125</ele>
        <time>2025-09-06T10:20:03.000Z</time>
        <extensions>
          <ns3:TrackPointExtension>
            <ns3:hr>115</ns3:hr>
            <ns3:cad>54</ns3:cad>
          </ns3:TrackPointExtension>
        </extensions>
      </trkpt>
      <trkpt lat="52.1604595519602298736572265625" lon="1.4678105525672435760498046875">
        <ele>-259.600006103515625</ele>
        <time>2025-09-06T10:20:04.000Z</time>
        <extensions>
          <ns3:TrackPointExtension>
            <ns3:hr>116</ns3:hr>
            <ns3:cad>54</ns3:cad>
          </ns3:TrackPointExtension>
        </extensions>
      </trkpt>
      <trkpt lat="52.1604479849338531494140625" lon="1.46779471077024936676025390625">
        <ele>-258.600006103515625</ele>
        <time>2025-09-06T10:20:06.000Z</time>
        <extensions>
          <ns3:TrackPointExtension>
            <ns3:hr>116</ns3:hr>
            <ns3:cad>54</ns3:cad>
          </ns3:TrackPointExtension>
        </extensions>
      </trkpt>
      <trkpt lat="52.1604344062507152557373046875" lon="1.46777710877358913421630859375">
        <ele>-257.399993896484375</ele>
        <time>2025-09-06T10:20:08.000Z</time>
        <extensions>
          <ns3:TrackPointExtension>
            <ns3:hr>115</ns3:hr>
            <ns3:cad>54</ns3:cad>
          </ns3:TrackPointExtension>
        </extensions>
      </trkpt>
      <trkpt lat="52.16041655279695987701416015625" lon="1.46775514818727970123291015625">
        <ele>-256.399993896484375</ele>
        <time>2025-09-06T10:20:10.000Z</time>
        <extensions>
          <ns3:TrackPointExtension>
            <ns3:hr>116</ns3:hr>
            <ns3:cad>48</ns3:cad>
          </ns3:TrackPointExtension>
        </extensions>
      </trkpt>
      <trkpt lat="52.16040129773318767547607421875" lon="1.4677230454981327056884765625">
        <ele>-255.399993896484375</ele>
        <time>2025-09-06T10:20:12.000Z</time>
        <extensions>
          <ns3:TrackPointExtension>
            <ns3:hr>114</ns3:hr>
            <ns3:cad>50</ns3:cad>
          </ns3:TrackPointExtension>
        </extensions>
      </trkpt>
      <trkpt lat="52.16038587503135204315185546875" lon="1.46768256090581417083740234375">
        <ele>-254.1999969482421875</ele>
        <time>2025-09-06T10:20:14.000Z</time>
        <extensions>
          <ns3:TrackPointExtension>
            <ns3:hr>113</ns3:hr>
            <ns3:cad>52</ns3:cad>
          </ns3:TrackPointExtension>
        </extensions>
      </trkpt>
      <trkpt lat="52.160365842282772064208984375" lon="1.4676605165004730224609375">
        <ele>-253.1999969482421875</ele>
        <time>2025-09-06T10:20:16.000Z</time>
        <extensions>
          <ns3:TrackPointExtension>
            <ns3:hr>113</ns3:hr>
            <ns3:cad>52</ns3:cad>
          </ns3:TrackPointExtension>
        </extensions>
      </trkpt>
      <trkpt lat="52.16035519726574420928955078125" lon="1.4676506258547306060791015625">
        <ele>-252.600006103515625</ele>
        <time>2025-09-06T10:20:17.000Z</time>
        <extensions>
          <ns3:TrackPointExtension>
            <ns3:hr>112</ns3:hr>
            <ns3:cad>52</ns3:cad>
          </ns3:TrackPointExtension>
        </extensions>
      </trkpt>
      <trkpt lat="52.16034798882901668548583984375" lon="1.46763931028544902801513671875">
        <ele>-252.1999969482421875</ele>
        <time>2025-09-06T10:20:18.000Z</time>
        <extensions>
          <ns3:TrackPointExtension>
            <ns3:hr>114</ns3:hr>
            <ns3:cad>52</ns3:cad>
          </ns3:TrackPointExtension>
        </extensions>
      </trkpt>
      <trkpt lat="52.16033441014587879180908203125" lon="1.46761718206107616424560546875">
        <ele>-251.1999969482421875</ele>
        <time>2025-09-06T10:20:20.000Z</time>
        <extensions>
          <ns3:TrackPointExtension>
            <ns3:hr>115</ns3:hr>
            <ns3:cad>52</ns3:cad>
          </ns3:TrackPointExtension>
        </extensions>
      </trkpt>
      <trkpt lat="52.1603187359869480133056640625" lon="1.4675802178680896759033203125">
        <ele>-249.600006103515625</ele>
        <time>2025-09-06T10:20:23.000Z</time>
        <extensions>
          <ns3:TrackPointExtension>
            <ns3:hr>113</ns3:hr>
            <ns3:cad>52</ns3:cad>
          </ns3:TrackPointExtension>
        </extensions>
      </trkpt>
      <trkpt lat="52.160312868654727935791015625" lon="1.46756789647042751312255859375">
        <ele>-249.1999969482421875</ele>
        <time>2025-09-06T10:20:24.000Z</time>
        <extensions>
          <ns3:TrackPointExtension>
            <ns3:hr>116</ns3:hr>
            <ns3:cad>52</ns3:cad>
          </ns3:TrackPointExtension>
        </extensions>
      </trkpt>
      <trkpt lat="52.160304486751556396484375" lon="1.467554904520511627197265625">
        <ele>-248.600006103515625</ele>
        <time>2025-09-06T10:20:25.000Z</time>
        <extensions>
          <ns3:TrackPointExtension>
            <ns3:hr>114</ns3:hr>
            <ns3:cad>53</ns3:cad>
          </ns3:TrackPointExtension>
        </extensions>
      </trkpt>
      <trkpt lat="52.16027841903269290924072265625" lon="1.4675111509859561920166015625">
        <ele>-247.1999969482421875</ele>
        <time>2025-09-06T10:20:28.000Z</time>
        <extensions>
          <ns3:TrackPointExtension>
            <ns3:hr>111</ns3:hr>
            <ns3:cad>50</ns3:cad>
          </ns3:TrackPointExtension>
        </extensions>
      </trkpt>
      <trkpt lat="52.16024707071483135223388671875" lon="1.46747150458395481109619140625">
        <ele>-245.8000030517578125</ele>
        <time>2025-09-06T10:20:31.000Z</time>
        <extensions>
          <ns3:TrackPointExtension>
            <ns3:hr>113</ns3:hr>
            <ns3:cad>0</ns3:cad>
          </ns3:TrackPointExtension>
        </extensions>
      </trkpt>
      <trkpt lat="52.1602208353579044342041015625" lon="1.46745189093053340911865234375">
        <ele>-244.399993896484375</ele>
        <time>2025-09-06T10:20:34.000Z</time>
        <extensions>
          <ns3:TrackPointExtension>
            <ns3:hr>114</ns3:hr>
            <ns3:cad>0</ns3:cad>
          </ns3:TrackPointExtension>
        </extensions>
      </trkpt>
      <trkpt lat="52.16018068604171276092529296875" lon="1.46743764169514179229736328125">
        <ele>-243</ele>
        <time>2025-09-06T10:20:37.000Z</time>
        <extensions>
          <ns3:TrackPointExtension>
            <ns3:hr>114</ns3:hr>
            <ns3:cad>0</ns3:cad>
          </ns3:TrackPointExtension>
        </extensions>
      </trkpt>
      <trkpt lat="52.1601638384163379669189453125" lon="1.46742741577327251434326171875">
        <ele>-241.600006103515625</ele>
        <time>2025-09-06T10:20:40.000Z</time>
        <extensions>
          <ns3:TrackPointExtension>
            <ns3:hr>112</ns3:hr>
            <ns3:cad>0</ns3:cad>
          </ns3:TrackPointExtension>
        </extensions>
      </trkpt>
      <trkpt lat="52.16016358695924282073974609375" lon="1.4674015156924724578857421875">
        <ele>-240.600006103515625</ele>
        <time>2025-09-06T10:20:42.000Z</time>
        <extensions>
          <ns3:TrackPointExtension>
            <ns3:hr>112</ns3:hr>
            <ns3:cad>0</ns3:cad>
          </ns3:TrackPointExtension>
        </extensions>
      </trkpt>
      <trkpt lat="52.16015604324638843536376953125" lon="1.467376537621021270751953125">
        <ele>-239.600006103515625</ele>
        <time>2025-09-06T10:20:44.000Z</time>
        <extensions>
          <ns3:TrackPointExtension>
            <ns3:hr>113</ns3:hr>
            <ns3:cad>0</ns3:cad>
          </ns3:TrackPointExtension>
        </extensions>
      </trkpt>
      <trkpt lat="52.1601470746099948883056640625" lon="1.46734762005507946014404296875">
        <ele>-238.399993896484375</ele>
        <time>2025-09-06T10:20:46.000Z</time>
        <extensions>
          <ns3:TrackPointExtension>
            <ns3:hr>111</ns3:hr>
            <ns3:cad>55</ns3:cad>
          </ns3:TrackPointExtension>
        </extensions>
      </trkpt>
      <trkpt lat="52.160142548382282257080078125" lon="1.46729967556893825531005859375">
        <ele>-237.399993896484375</ele>
        <time>2025-09-06T10:20:48.000Z</time>
        <extensions>
          <ns3:TrackPointExtension>
            <ns3:hr>111</ns3:hr>
            <ns3:cad>57</ns3:cad>
          </ns3:TrackPointExtension>
        </extensions>
      </trkpt>
      <trkpt lat="52.16014045290648937225341796875" lon="1.4672784693539142608642578125">
        <ele>-237</ele>
        <time>2025-09-06T10:20:49.000Z</time>
        <extensions>
          <ns3:TrackPointExtension>
            <ns3:hr>111</ns3:hr>
            <ns3:cad>57</ns3:cad>
          </ns3:TrackPointExtension>
        </extensions>
      </trkpt>
      <trkpt lat="52.16013617813587188720703125" lon="1.46726044826209545135498046875">
        <ele>-236.399993896484375</ele>
        <time>2025-09-06T10:20:50.000Z</time>
        <extensions>
          <ns3:TrackPointExtension>
            <ns3:hr>112</ns3:hr>
            <ns3:cad>56</ns3:cad>
          </ns3:TrackPointExtension>
        </extensions>
      </trkpt>
      <trkpt lat="52.16013005934655666351318359375" lon="1.4672211371362209320068359375">
        <ele>-235</ele>
        <time>2025-09-06T10:20:53.000Z</time>
        <extensions>
          <ns3:TrackPointExtension>
            <ns3:hr>111</ns3:hr>
            <ns3:cad>53</ns3:cad>
          </ns3:TrackPointExtension>
        </extensions>
      </trkpt>
      <trkpt lat="52.16011480428278446197509765625" lon="1.4671896211802959442138671875">
        <ele>-233.600006103515625</ele>
        <time>2025-09-06T10:20:56.000Z</time>
        <extensions>
          <ns3:TrackPointExtension>
            <ns3:hr>110</ns3:hr>
            <ns3:cad>53</ns3:cad>
          </ns3:TrackPointExtension>
        </extensions>
      </trkpt>
      <trkpt lat="52.16009954921901226043701171875" lon="1.467173360288143157958984375">
        <ele>-232.600006103515625</ele>
        <time>2025-09-06T10:20:58.000Z</time>
        <extensions>
          <ns3:TrackPointExtension>
            <ns3:hr>105</ns3:hr>
            <ns3:cad>53</ns3:cad>
          </ns3:TrackPointExtension>
        </extensions>
      </trkpt>
      <trkpt lat="52.1600947715342044830322265625" lon="1.46715383045375347137451171875">
        <ele>-232.1999969482421875</ele>
        <time>2025-09-06T10:20:59.000Z</time>
        <extensions>
          <ns3:TrackPointExtension>
            <ns3:hr>111</ns3:hr>
            <ns3:cad>54</ns3:cad>
          </ns3:TrackPointExtension>
        </extensions>
      </trkpt>
      <trkpt lat="52.16007842682301998138427734375" lon="1.4670970849692821502685546875">
        <ele>-230.8000030517578125</ele>
        <time>2025-09-06T10:21:02.000Z</time>
        <extensions>
          <ns3:TrackPointExtension>
            <ns3:hr>112</ns3:hr>
            <ns3:cad>58</ns3:cad>
          </ns3:TrackPointExtension>
        </extensions>
      </trkpt>
      <trkpt lat="52.1600711345672607421875" lon="1.46707738749682903289794921875">
        <ele>-230.1999969482421875</ele>
        <time>2025-09-06T10:21:03.000Z</time>
        <extensions>
          <ns3:TrackPointExtension>
            <ns3:hr>111</ns3:hr>
            <ns3:cad>57</ns3:cad>
          </ns3:TrackPointExtension>
        </extensions>
      </trkpt>
      <trkpt lat="52.16005261056125164031982421875" lon="1.46704335696995258331298828125">
        <ele>-229.399993896484375</ele>
        <time>2025-09-06T10:21:05.000Z</time>
        <extensions>
          <ns3:TrackPointExtension>
            <ns3:hr>112</ns3:hr>
            <ns3:cad>57</ns3:cad>
          </ns3:TrackPointExtension>
        </extensions>
      </trkpt>
      <trkpt lat="52.1600401215255260467529296875" lon="1.46699356846511363983154296875">
        <ele>-228.600006103515625</ele>
        <time>2025-09-06T10:21:07.000Z</time>
        <extensions>
          <ns3:TrackPointExtension>
            <ns3:hr>115</ns3:hr>
            <ns3:cad>58</ns3:cad>
          </ns3:TrackPointExtension>
        </extensions>
      </trkpt>
      <trkpt lat="52.16003182344138622283935546875" lon="1.4669765532016754150390625">
        <ele>-228</ele>
        <time>2025-09-06T10:21:08.000Z</time>
        <extensions>
          <ns3:TrackPointExtension>
            <ns3:hr>116</ns3:hr>
            <ns3:cad>58</ns3:cad>
          </ns3:TrackPointExtension>
        </extensions>
      </trkpt>
      <trkpt lat="52.16000701300799846649169921875" lon="1.46693740971386432647705078125">
        <ele>-226.8000030517578125</ele>
        <time>2025-09-06T10:21:11.000Z</time>
        <extensions>
          <ns3:TrackPointExtension>
            <ns3:hr>117</ns3:hr>
            <ns3:cad>0</ns3:cad>
          </ns3:TrackPointExtension>
        </extensions>
      </trkpt>
      <trkpt lat="52.1599853038787841796875" lon="1.4669133536517620086669921875">
        <ele>-225.399993896484375</ele>
        <time>2025-09-06T10:21:14.000Z</time>
        <extensions>
          <ns3:TrackPointExtension>
            <ns3:hr>117</ns3:hr>
            <ns3:cad>0</ns3:cad>
          </ns3:TrackPointExtension>
        </extensions>
      </trkpt>
      <trkpt lat="52.1599794365465641021728515625" lon="1.46690857596695423126220703125">
        <ele>-225</ele>
        <time>2025-09-06T10:21:15.000Z</time>
        <extensions>
          <ns3:TrackPointExtension>
            <ns3:hr>118</ns3:hr>
            <ns3:cad>0</ns3:cad>
          </ns3:TrackPointExtension>
        </extensions>
      </trkpt>
      <trkpt lat="52.1599801070988178253173828125" lon="1.466867923736572265625">
        <ele>-224.1999969482421875</ele>
        <time>2025-09-06T10:21:17.000Z</time>
        <extensions>
          <ns3:TrackPointExtension>
            <ns3:hr>118</ns3:hr>
            <ns3:cad>0</ns3:cad>
          </ns3:TrackPointExtension>
        </extensions>
      </trkpt>
      <trkpt lat="52.15996895916759967803955078125" lon="1.46681486628949642181396484375">
        <ele>-222.8000030517578125</ele>
        <time>2025-09-06T10:21:20.000Z</time>
        <extensions>
          <ns3:TrackPointExtension>
            <ns3:hr>117</ns3:hr>
            <ns3:cad>0</ns3:cad>
          </ns3:TrackPointExtension>
        </extensions>
      </trkpt>
      <trkpt lat="52.15996761806309223175048828125" lon="1.46677337586879730224609375">
        <ele>-221.600006103515625</ele>
        <time>2025-09-06T10:21:23.000Z</time>
        <extensions>
          <ns3:TrackPointExtension>
            <ns3:hr>117</ns3:hr>
            <ns3:cad>0</ns3:cad>
          </ns3:TrackPointExtension>
        </extensions>
      </trkpt>
      <trkpt lat="52.15995781123638153076171875" lon="1.46675527095794677734375">
        <ele>-220.399993896484375</ele>
        <time>2025-09-06T10:21:26.000Z</time>
        <extensions>
          <ns3:TrackPointExtension>
            <ns3:hr>118</ns3:hr>
            <ns3:cad>0</ns3:cad>
          </ns3:TrackPointExtension>
        </extensions>
      </trkpt>
      <trkpt lat="52.159942723810672760009765625" lon="1.46674898453056812286376953125">
        <ele>-219.1999969482421875</ele>
        <time>2025-09-06T10:21:29.000Z</time>
        <extensions>
          <ns3:TrackPointExtension>
            <ns3:hr>116</ns3:hr>
            <ns3:cad>0</ns3:cad>
          </ns3:TrackPointExtension>
        </extensions>
      </trkpt>
      <trkpt lat="52.159939371049404144287109375" lon="1.466731466352939605712890625">
        <ele>-218</ele>
        <time>2025-09-06T10:21:32.000Z</time>
        <extensions>
          <ns3:TrackPointExtension>
            <ns3:hr>117</ns3:hr>
            <ns3:cad>0</ns3:cad>
          </ns3:TrackPointExtension>
        </extensions>
      </trkpt>
      <trkpt lat="52.15993626974523067474365234375" lon="1.4667244255542755126953125">
        <ele>-217.600006103515625</ele>
        <time>2025-09-06T10:21:33.000Z</time>
        <extensions>
          <ns3:TrackPointExtension>
            <ns3:hr>117</ns3:hr>
            <ns3:cad>0</ns3:cad>
          </ns3:TrackPointExtension>
        </extensions>
      </trkpt>
      <trkpt lat="52.1599361859261989593505859375" lon="1.46670539863407611846923828125">
        <ele>-217</ele>
        <time>2025-09-06T10:21:35.000Z</time>
        <extensions>
          <ns3:TrackPointExtension>
            <ns3:hr>117</ns3:hr>
            <ns3:cad>0</ns3:cad>
          </ns3:TrackPointExtension>
        </extensions>
      </trkpt>
      <trkpt lat="52.1599479205906391143798828125" lon="1.4667028002440929412841796875">
        <ele>-215.8000030517578125</ele>
        <time>2025-09-06T10:21:38.000Z</time>
        <extensions>
          <ns3:TrackPointExtension>
            <ns3:hr>115</ns3:hr>
            <ns3:cad>0</ns3:cad>
          </ns3:TrackPointExtension>
        </extensions>
      </trkpt>
      <trkpt lat="52.15995437465608119964599609375" lon="1.46670908667147159576416015625">
        <ele>-214.600006103515625</ele>
        <time>2025-09-06T10:21:42.000Z</time>
        <extensions>
          <ns3:TrackPointExtension>
            <ns3:hr>115</ns3:hr>
            <ns3:cad>0</ns3:cad>
          </ns3:TrackPointExtension>
        </extensions>
      </trkpt>
      <trkpt lat="52.15996183454990386962890625" lon="1.466720066964626312255859375">
        <ele>-213.1999969482421875</ele>
        <time>2025-09-06T10:21:46.000Z</time>
        <extensions>
          <ns3:TrackPointExtension>
            <ns3:hr>114</ns3:hr>
            <ns3:cad>0</ns3:cad>
          </ns3:TrackPointExtension>
        </extensions>
      </trkpt>
      <trkpt lat="52.1599683724343776702880859375" lon="1.46672216244041919708251953125">
        <ele>-212.600006103515625</ele>
        <time>2025-09-06T10:21:48.000Z</time>
        <extensions>
          <ns3:TrackPointExtension>
            <ns3:hr>111</ns3:hr>
            <ns3:cad>0</ns3:cad>
          </ns3:TrackPointExtension>
        </extensions>
      </trkpt>
      <trkpt lat="52.15996694751083850860595703125" lon="1.46672652103006839752197265625">
        <ele>-212.1999969482421875</ele>
        <time>2025-09-06T10:21:50.000Z</time>
        <extensions>
          <ns3:TrackPointExtension>
            <ns3:hr>108</ns3:hr>
            <ns3:cad>0</ns3:cad>
          </ns3:TrackPointExtension>
        </extensions>
      </trkpt>
      <trkpt lat="52.15995940379798412322998046875" lon="1.46673875860869884490966796875">
        <ele>-211</ele>
        <time>2025-09-06T10:21:55.000Z</time>
        <extensions>
          <ns3:TrackPointExtension>
            <ns3:hr>107</ns3:hr>
            <ns3:cad>0</ns3:cad>
          </ns3:TrackPointExtension>
        </extensions>
      </trkpt>
      <trkpt lat="52.15995973907411098480224609375" lon="1.4667447097599506378173828125">
        <ele>-210.1999969482421875</ele>
        <time>2025-09-06T10:21:58.000Z</time>
        <extensions>
          <ns3:TrackPointExtension>
            <ns3:hr>104</ns3:hr>
            <ns3:cad>0</ns3:cad>
          </ns3:TrackPointExtension>
        </extensions>
      </trkpt>
      <trkpt lat="52.15996141545474529266357421875" lon="1.46673984825611114501953125">
        <ele>-210</ele>
        <time>2025-09-06T10:21:59.000Z</time>
        <extensions>
          <ns3:TrackPointExtension>
            <ns3:hr>107</ns3:hr>
            <ns3:cad>0</ns3:cad>
          </ns3:TrackPointExtension>
        </extensions>
      </trkpt>
      <trkpt lat="52.15996258892118930816650390625" lon="1.46673775278031826019287109375">
        <ele>-209.8000030517578125</ele>
        <time>2025-09-06T10:22:00.000Z</time>
        <extensions>
          <ns3:TrackPointExtension>
            <ns3:hr>108</ns3:hr>
            <ns3:cad>0</ns3:cad>
          </ns3:TrackPointExtension>
        </extensions>
      </trkpt>
      <trkpt lat="52.1599616669118404388427734375" lon="1.46673758514225482940673828125">
        <ele>-209.600006103515625</ele>
        <time>2025-09-06T10:22:01.000Z</time>
        <extensions>
          <ns3:TrackPointExtension>
            <ns3:hr>109</ns3:hr>
            <ns3:cad>0</ns3:cad>
          </ns3:TrackPointExtension>
        </extensions>
      </trkpt>
      <trkpt lat="52.15996527113020420074462890625" lon="1.46671772003173828125">
        <ele>-208.600006103515625</ele>
        <time>2025-09-06T10:22:05.000Z</time>
        <extensions>
          <ns3:TrackPointExtension>
            <ns3:hr>108</ns3:hr>
            <ns3:cad>0</ns3:cad>
          </ns3:TrackPointExtension>
        </extensions>
      </trkpt>
      <trkpt lat="52.15997482649981975555419921875" lon="1.46670154295861721038818359375">
        <ele>-207.600006103515625</ele>
        <time>2025-09-06T10:22:10.000Z</time>
        <extensions>
          <ns3:TrackPointExtension>
            <ns3:hr>105</ns3:hr>
            <ns3:cad>0</ns3:cad>
          </ns3:TrackPointExtension>
        </extensions>
      </trkpt>
      <trkpt lat="52.15998169966042041778564453125" lon="1.46670053713023662567138671875">
        <ele>-206.399993896484375</ele>
        <time>2025-09-06T10:22:15.000Z</time>
        <extensions>
          <ns3:TrackPointExtension>
            <ns3:hr>105</ns3:hr>
            <ns3:cad>0</ns3:cad>
          </ns3:TrackPointExtension>
        </extensions>
      </trkpt>
      <trkpt lat="52.15998488478362560272216796875" lon="1.46670456044375896453857421875">
        <ele>-206</ele>
        <time>2025-09-06T10:22:17.000Z</time>
        <extensions>
          <ns3:TrackPointExtension>
            <ns3:hr>107</ns3:hr>
            <ns3:cad>0</ns3:cad>
          </ns3:TrackPointExtension>
        </extensions>
      </trkpt>
      <trkpt lat="52.15998731553554534912109375" lon="1.46670523099601268768310546875">
        <ele>-205.600006103515625</ele>
        <time>2025-09-06T10:22:19.000Z</time>
        <extensions>
          <ns3:TrackPointExtension>
            <ns3:hr>104</ns3:hr>
            <ns3:cad>0</ns3:cad>
          </ns3:TrackPointExtension>
        </extensions>
      </trkpt>
      <trkpt lat="52.15998941101133823394775390625" lon="1.466705985367298126220703125">
        <ele>-205.1999969482421875</ele>
        <time>2025-09-06T10:22:20.000Z</time>
        <extensions>
          <ns3:TrackPointExtension>
            <ns3:hr>106</ns3:hr>
            <ns3:cad>0</ns3:cad>
          </ns3:TrackPointExtension>
        </extensions>
      </trkpt>
      <trkpt lat="52.159993685781955718994140625" lon="1.46670808084309101104736328125">
        <ele>-204.8000030517578125</ele>
        <time>2025-09-06T10:22:22.000Z</time>
        <extensions>
          <ns3:TrackPointExtension>
            <ns3:hr>103</ns3:hr>
            <ns3:cad>0</ns3:cad>
          </ns3:TrackPointExtension>
        </extensions>
      </trkpt>
      <trkpt lat="52.15999645181000232696533203125" lon="1.466710008680820465087890625">
        <ele>-204.1999969482421875</ele>
        <time>2025-09-06T10:22:24.000Z</time>
        <extensions>
          <ns3:TrackPointExtension>
            <ns3:hr>102</ns3:hr>
            <ns3:cad>0</ns3:cad>
          </ns3:TrackPointExtension>
        </extensions>
      </trkpt>
      <trkpt lat="52.1599968709051609039306640625" lon="1.46671562455594539642333984375">
        <ele>-203.1999969482421875</ele>
        <time>2025-09-06T10:22:28.000Z</time>
        <extensions>
          <ns3:TrackPointExtension>
            <ns3:hr>103</ns3:hr>
            <ns3:cad>0</ns3:cad>
          </ns3:TrackPointExtension>
        </extensions>
      </trkpt>
      <trkpt lat="52.15999745763838291168212890625" lon="1.466714031994342803955078125">
        <ele>-202.399993896484375</ele>
        <time>2025-09-06T10:22:32.000Z</time>
        <extensions>
          <ns3:TrackPointExtension>
            <ns3:hr>100</ns3:hr>
            <ns3:cad>0</ns3:cad>
          </ns3:TrackPointExtension>
        </extensions>
      </trkpt>
      <trkpt lat="52.15999804437160491943359375" lon="1.4667118526995182037353515625">
        <ele>-202.1999969482421875</ele>
        <time>2025-09-06T10:22:33.000Z</time>
        <extensions>
          <ns3:TrackPointExtension>
            <ns3:hr>101</ns3:hr>
            <ns3:cad>0</ns3:cad>
          </ns3:TrackPointExtension>
        </extensions>
      </trkpt>
      <trkpt lat="52.15999980457127094268798828125" lon="1.466710008680820465087890625">
        <ele>-202</ele>
        <time>2025-09-06T10:22:34.000Z</time>
        <extensions>
          <ns3:TrackPointExtension>
            <ns3:hr>101</ns3:hr>
            <ns3:cad>0</ns3:cad>
          </ns3:TrackPointExtension>
        </extensions>
      </trkpt>
      <trkpt lat="52.160002402961254119873046875" lon="1.46671168506145477294921875">
        <ele>-201.600006103515625</ele>
        <time>2025-09-06T10:22:36.000Z</time>
        <extensions>
          <ns3:TrackPointExtension>
            <ns3:hr>98</ns3:hr>
            <ns3:cad>0</ns3:cad>
          </ns3:TrackPointExtension>
        </extensions>
      </trkpt>
      <trkpt lat="52.16001011431217193603515625" lon="1.466714702546596527099609375">
        <ele>-201.1999969482421875</ele>
        <time>2025-09-06T10:22:40.000Z</time>
        <extensions>
          <ns3:TrackPointExtension>
            <ns3:hr>95</ns3:hr>
            <ns3:cad>0</ns3:cad>
          </ns3:TrackPointExtension>
        </extensions>
      </trkpt>
      <trkpt lat="52.16001019813120365142822265625" lon="1.4667145349085330963134765625">
        <ele>-201</ele>
        <time>2025-09-06T10:22:41.000Z</time>
        <extensions>
          <ns3:TrackPointExtension>
            <ns3:hr>95</ns3:hr>
            <ns3:cad>0</ns3:cad>
          </ns3:TrackPointExtension>
        </extensions>
      </trkpt>
      <trkpt lat="52.1600134670734405517578125" lon="1.4667587913572788238525390625">
        <ele>-200.600006103515625</ele>
        <time>2025-09-06T10:22:49.000Z</time>
        <extensions>
          <ns3:TrackPointExtension>
            <ns3:hr>92</ns3:hr>
            <ns3:cad>0</ns3:cad>
          </ns3:TrackPointExtension>
        </extensions>
      </trkpt>
      <trkpt lat="52.1600257046520709991455078125" lon="1.4667916484177112579345703125">
        <ele>-200.8000030517578125</ele>
        <time>2025-09-06T10:22:52.000Z</time>
        <extensions>
          <ns3:TrackPointExtension>
            <ns3:hr>95</ns3:hr>
            <ns3:cad>0</ns3:cad>
          </ns3:TrackPointExtension>
        </extensions>
      </trkpt>
      <trkpt lat="52.16004054062068462371826171875" lon="1.4668258465826511383056640625">
        <ele>-200.8000030517578125</ele>
        <time>2025-09-06T10:22:55.000Z</time>
        <extensions>
          <ns3:TrackPointExtension>
            <ns3:hr>98</ns3:hr>
            <ns3:cad>52</ns3:cad>
          </ns3:TrackPointExtension>
        </extensions>
      </trkpt>
      <trkpt lat="52.16008714400231838226318359375" lon="1.4668610505759716033935546875">
        <ele>-201.399993896484375</ele>
        <time>2025-09-06T10:23:00.000Z</time>
        <extensions>
          <ns3:TrackPointExtension>
            <ns3:hr>100</ns3:hr>
            <ns3:cad>47</ns3:cad>
          </ns3:TrackPointExtension>
        </extensions>
      </trkpt>
      <trkpt lat="52.1601078473031520843505859375" lon="1.46686457097530364990234375">
        <ele>-201.399993896484375</ele>
        <time>2025-09-06T10:23:01.000Z</time>
        <extensions>
          <ns3:TrackPointExtension>
            <ns3:hr>101</ns3:hr>
            <ns3:cad>48</ns3:cad>
          </ns3:TrackPointExtension>
        </extensions>
      </trkpt>
      <trkpt lat="52.160113044083118438720703125" lon="1.46688041277229785919189453125">
        <ele>-202.1999969482421875</ele>
        <time>2025-09-06T10:23:05.000Z</time>
        <extensions>
          <ns3:TrackPointExtension>
            <ns3:hr>102</ns3:hr>
            <ns3:cad>0</ns3:cad>
          </ns3:TrackPointExtension>
        </extensions>
      </trkpt>
      <trkpt lat="52.160116732120513916015625" lon="1.46688678301870822906494140625">
        <ele>-203.399993896484375</ele>
        <time>2025-09-06T10:23:10.000Z</time>
        <extensions>
          <ns3:TrackPointExtension>
            <ns3:hr>104</ns3:hr>
            <ns3:cad>0</ns3:cad>
          </ns3:TrackPointExtension>
        </extensions>
      </trkpt>
      <trkpt lat="52.16011446900665760040283203125" lon="1.4668865315616130828857421875">
        <ele>-203.600006103515625</ele>
        <time>2025-09-06T10:23:11.000Z</time>
        <extensions>
          <ns3:TrackPointExtension>
            <ns3:hr>105</ns3:hr>
            <ns3:cad>0</ns3:cad>
          </ns3:TrackPointExtension>
        </extensions>
      </trkpt>
      <trkpt lat="52.16011664830148220062255859375" lon="1.466887034475803375244140625">
        <ele>-204.8000030517578125</ele>
        <time>2025-09-06T10:23:14.000Z</time>
        <extensions>
          <ns3:TrackPointExtension>
            <ns3:hr>106</ns3:hr>
            <ns3:cad>0</ns3:cad>
          </ns3:TrackPointExtension>
        </extensions>
      </trkpt>
      <trkpt lat="52.16012754477560520172119140625" lon="1.4668831788003444671630859375">
        <ele>-205.1999969482421875</ele>
        <time>2025-09-06T10:23:15.000Z</time>
        <extensions>
          <ns3:TrackPointExtension>
            <ns3:hr>109</ns3:hr>
            <ns3:cad>0</ns3:cad>
          </ns3:TrackPointExtension>
        </extensions>
      </trkpt>
      <trkpt lat="52.16013676486909389495849609375" lon="1.466892398893833160400390625">
        <ele>-205.600006103515625</ele>
        <time>2025-09-06T10:23:16.000Z</time>
        <extensions>
          <ns3:TrackPointExtension>
            <ns3:hr>106</ns3:hr>
            <ns3:cad>0</ns3:cad>
          </ns3:TrackPointExtension>
        </extensions>
      </trkpt>
      <trkpt lat="52.16014715842902660369873046875" lon="1.466895751655101776123046875">
        <ele>-206.1999969482421875</ele>
        <time>2025-09-06T10:23:17.000Z</time>
        <extensions>
          <ns3:TrackPointExtension>
            <ns3:hr>107</ns3:hr>
            <ns3:cad>0</ns3:cad>
          </ns3:TrackPointExtension>
        </extensions>
      </trkpt>
      <trkpt lat="52.1601856313645839691162109375" lon="1.466905809938907623291015625">
        <ele>-207.600006103515625</ele>
        <time>2025-09-06T10:23:20.000Z</time>
        <extensions>
          <ns3:TrackPointExtension>
            <ns3:hr>108</ns3:hr>
            <ns3:cad>49</ns3:cad>
          </ns3:TrackPointExtension>
        </extensions>
      </trkpt>
      <trkpt lat="52.16021672822535037994384765625" lon="1.466922573745250701904296875">
        <ele>-208.399993896484375</ele>
        <time>2025-09-06T10:23:22.000Z</time>
        <extensions>
          <ns3:TrackPointExtension>
            <ns3:hr>107</ns3:hr>
            <ns3:cad>53</ns3:cad>
          </ns3:TrackPointExtension>
        </extensions>
      </trkpt>
      <trkpt lat="52.16023114509880542755126953125" lon="1.466937325894832611083984375">
        <ele>-209</ele>
        <time>2025-09-06T10:23:23.000Z</time>
        <extensions>
          <ns3:TrackPointExtension>
            <ns3:hr>109</ns3:hr>
            <ns3:cad>53</ns3:cad>
          </ns3:TrackPointExtension>
        </extensions>
      </trkpt>
      <trkpt lat="52.16026148758828639984130859375" lon="1.4669680036604404449462890625">
        <ele>-210</ele>
        <time>2025-09-06T10:23:25.000Z</time>
        <extensions>
          <ns3:TrackPointExtension>
            <ns3:hr>109</ns3:hr>
            <ns3:cad>0</ns3:cad>
          </ns3:TrackPointExtension>
        </extensions>
      </trkpt>
      <trkpt lat="52.16028713621199131011962890625" lon="1.46698233671486377716064453125">
        <ele>-211.1999969482421875</ele>
        <time>2025-09-06T10:23:27.000Z</time>
        <extensions>
          <ns3:TrackPointExtension>
            <ns3:hr>107</ns3:hr>
            <ns3:cad>51</ns3:cad>
          </ns3:TrackPointExtension>
        </extensions>
      </trkpt>
      <trkpt lat="52.16031052172183990478515625" lon="1.466975547373294830322265625">
        <ele>-212.1999969482421875</ele>
        <time>2025-09-06T10:23:29.000Z</time>
        <extensions>
          <ns3:TrackPointExtension>
            <ns3:hr>106</ns3:hr>
            <ns3:cad>51</ns3:cad>
          </ns3:TrackPointExtension>
        </extensions>
      </trkpt>
      <trkpt lat="52.1603433787822723388671875" lon="1.46696590818464756011962890625">
        <ele>-213.1999969482421875</ele>
        <time>2025-09-06T10:23:31.000Z</time>
        <extensions>
          <ns3:TrackPointExtension>
            <ns3:hr>105</ns3:hr>
            <ns3:cad>51</ns3:cad>
          </ns3:TrackPointExtension>
        </extensions>
      </trkpt>
      <trkpt lat="52.1603606455028057098388671875" lon="1.4669633097946643829345703125">
        <ele>-213.8000030517578125</ele>
        <time>2025-09-06T10:23:32.000Z</time>
        <extensions>
          <ns3:TrackPointExtension>
            <ns3:hr>109</ns3:hr>
            <ns3:cad>49</ns3:cad>
          </ns3:TrackPointExtension>
        </extensions>
      </trkpt>
      <trkpt lat="52.1603787504136562347412109375" lon="1.466948725283145904541015625">
        <ele>-214.1999969482421875</ele>
        <time>2025-09-06T10:23:33.000Z</time>
        <extensions>
          <ns3:TrackPointExtension>
            <ns3:hr>107</ns3:hr>
            <ns3:cad>49</ns3:cad>
          </ns3:TrackPointExtension>
        </extensions>
      </trkpt>
      <trkpt lat="52.16039425693452358245849609375" lon="1.4669421873986721038818359375">
        <ele>-214.8000030517578125</ele>
        <time>2025-09-06T10:23:34.000Z</time>
        <extensions>
          <ns3:TrackPointExtension>
            <ns3:hr>107</ns3:hr>
            <ns3:cad>49</ns3:cad>
          </ns3:TrackPointExtension>
        </extensions>
      </trkpt>
      <trkpt lat="52.160406410694122314453125" lon="1.4669401757419109344482421875">
        <ele>-215.1999969482421875</ele>
        <time>2025-09-06T10:23:35.000Z</time>
        <extensions>
          <ns3:TrackPointExtension>
            <ns3:hr>105</ns3:hr>
            <ns3:cad>48</ns3:cad>
          </ns3:TrackPointExtension>
        </extensions>
      </trkpt>
      <trkpt lat="52.16043256223201751708984375" lon="1.46693020127713680267333984375">
        <ele>-216.8000030517578125</ele>
        <time>2025-09-06T10:23:38.000Z</time>
        <extensions>
          <ns3:TrackPointExtension>
            <ns3:hr>103</ns3:hr>
            <ns3:cad>0</ns3:cad>
          </ns3:TrackPointExtension>
        </extensions>
      </trkpt>
      <trkpt lat="52.16043231077492237091064453125" lon="1.46691712550818920135498046875">
        <ele>-217.600006103515625</ele>
        <time>2025-09-06T10:23:40.000Z</time>
        <extensions>
          <ns3:TrackPointExtension>
            <ns3:hr>103</ns3:hr>
            <ns3:cad>0</ns3:cad>
          </ns3:TrackPointExtension>
        </extensions>
      </trkpt>
      <trkpt lat="52.16043113730847835540771484375" lon="1.46691394038498401641845703125">
        <ele>-218</ele>
        <time>2025-09-06T10:23:41.000Z</time>
        <extensions>
          <ns3:TrackPointExtension>
            <ns3:hr>103</ns3:hr>
            <ns3:cad>0</ns3:cad>
          </ns3:TrackPointExtension>
        </extensions>
      </trkpt>
      <trkpt lat="52.1604184806346893310546875" lon="1.4669291116297245025634765625">
        <ele>-218.8000030517578125</ele>
        <time>2025-09-06T10:23:51.000Z</time>
        <extensions>
          <ns3:TrackPointExtension>
            <ns3:hr>100</ns3:hr>
            <ns3:cad>0</ns3:cad>
          </ns3:TrackPointExtension>
        </extensions>
      </trkpt>
      <trkpt lat="52.160446643829345703125" lon="1.46696238778531551361083984375">
        <ele>-219</ele>
        <time>2025-09-06T10:23:55.000Z</time>
        <extensions>
          <ns3:TrackPointExtension>
            <ns3:hr>100</ns3:hr>
            <ns3:cad>51</ns3:cad>
          </ns3:TrackPointExtension>
        </extensions>
      </trkpt>
      <trkpt lat="52.1604893915355205535888671875" lon="1.4669804088771343231201171875">
        <ele>-219.600006103515625</ele>
        <time>2025-09-06T10:23:59.000Z</time>
        <extensions>
          <ns3:TrackPointExtension>
            <ns3:hr>101</ns3:hr>
            <ns3:cad>47</ns3:cad>
          </ns3:TrackPointExtension>
        </extensions>
      </trkpt>
      <trkpt lat="52.16052635572850704193115234375" lon="1.4669931493699550628662109375">
        <ele>-220.1999969482421875</ele>
        <time>2025-09-06T10:24:02.000Z</time>
        <extensions>
          <ns3:TrackPointExtension>
            <ns3:hr>102</ns3:hr>
            <ns3:cad>48</ns3:cad>
          </ns3:TrackPointExtension>
        </extensions>
      </trkpt>
      <trkpt lat="52.16060958802700042724609375" lon="1.4670022018253803253173828125">
        <ele>-221</ele>
        <time>2025-09-06T10:24:08.000Z</time>
        <extensions>
          <ns3:TrackPointExtension>
            <ns3:hr>99</ns3:hr>
            <ns3:cad>51</ns3:cad>
          </ns3:TrackPointExtension>
        </extensions>
      </trkpt>
      <trkpt lat="52.1606208197772502899169921875" lon="1.46700547076761722564697265625">
        <ele>-221.1999969482421875</ele>
        <time>2025-09-06T10:24:09.000Z</time>
        <extensions>
          <ns3:TrackPointExtension>
            <ns3:hr>100</ns3:hr>
            <ns3:cad>51</ns3:cad>
          </ns3:TrackPointExtension>
        </extensions>
      </trkpt>
      <trkpt lat="52.1606711111962795257568359375" lon="1.46701150573790073394775390625">
        <ele>-221.600006103515625</ele>
        <time>2025-09-06T10:24:12.000Z</time>
        <extensions>
          <ns3:TrackPointExtension>
            <ns3:hr>101</ns3:hr>
            <ns3:cad>51</ns3:cad>
          </ns3:TrackPointExtension>
        </extensions>
      </trkpt>
      <trkpt lat="52.160799689590930938720703125" lon="1.46702139638364315032958984375">
        <ele>-222.1999969482421875</ele>
        <time>2025-09-06T10:24:19.000Z</time>
        <extensions>
          <ns3:TrackPointExtension>
            <ns3:hr>103</ns3:hr>
            <ns3:cad>54</ns3:cad>
          </ns3:TrackPointExtension>
        </extensions>
      </trkpt>
      <trkpt lat="52.1608189679682254791259765625" lon="1.46702575497329235076904296875">
        <ele>-222.1999969482421875</ele>
        <time>2025-09-06T10:24:20.000Z</time>
        <extensions>
          <ns3:TrackPointExtension>
            <ns3:hr>103</ns3:hr>
            <ns3:cad>54</ns3:cad>
          </ns3:TrackPointExtension>
        </extensions>
      </trkpt>
      <trkpt lat="52.1608632244169712066650390625" lon="1.467038579285144805908203125">
        <ele>-222.399993896484375</ele>
        <time>2025-09-06T10:24:23.000Z</time>
        <extensions>
          <ns3:TrackPointExtension>
            <ns3:hr>106</ns3:hr>
            <ns3:cad>54</ns3:cad>
          </ns3:TrackPointExtension>
        </extensions>
      </trkpt>
      <trkpt lat="52.1608763001859188079833984375" lon="1.46704235114157199859619140625">
        <ele>-222.600006103515625</ele>
        <time>2025-09-06T10:24:24.000Z</time>
        <extensions>
          <ns3:TrackPointExtension>
            <ns3:hr>109</ns3:hr>
            <ns3:cad>53</ns3:cad>
          </ns3:TrackPointExtension>
        </extensions>
      </trkpt>
      <trkpt lat="52.16089197434484958648681640625" lon="1.46704251877963542938232421875">
        <ele>-222.600006103515625</ele>
        <time>2025-09-06T10:24:25.000Z</time>
        <extensions>
          <ns3:TrackPointExtension>
            <ns3:hr>113</ns3:hr>
            <ns3:cad>53</ns3:cad>
          </ns3:TrackPointExtension>
        </extensions>
      </trkpt>
      <trkpt lat="52.16090672649443149566650390625" lon="1.46704134531319141387939453125">
        <ele>-222.8000030517578125</ele>
        <time>2025-09-06T10:24:26.000Z</time>
        <extensions>
          <ns3:TrackPointExtension>
            <ns3:hr>113</ns3:hr>
            <ns3:cad>53</ns3:cad>
          </ns3:TrackPointExtension>
        </extensions>
      </trkpt>
      <trkpt lat="52.1609198860824108123779296875" lon="1.4670424349606037139892578125">
        <ele>-223</ele>
        <time>2025-09-06T10:24:27.000Z</time>
        <extensions>
          <ns3:TrackPointExtension>
            <ns3:hr>113</ns3:hr>
            <ns3:cad>53</ns3:cad>
          </ns3:TrackPointExtension>
        </extensions>
      </trkpt>
      <trkpt lat="52.1609631367027759552001953125" lon="1.467043943703174591064453125">
        <ele>-223.399993896484375</ele>
        <time>2025-09-06T10:24:30.000Z</time>
        <extensions>
          <ns3:TrackPointExtension>
            <ns3:hr>112</ns3:hr>
            <ns3:cad>53</ns3:cad>
          </ns3:TrackPointExtension>
        </extensions>
      </trkpt>
      <trkpt lat="52.16105508618056774139404296875" lon="1.46706707775592803955078125">
        <ele>-224.1999969482421875</ele>
        <time>2025-09-06T10:24:36.000Z</time>
        <extensions>
          <ns3:TrackPointExtension>
            <ns3:hr>113</ns3:hr>
            <ns3:cad>53</ns3:cad>
          </ns3:TrackPointExtension>
        </extensions>
      </trkpt>
      <trkpt lat="52.16106816194951534271240234375" lon="1.46706934086978435516357421875">
        <ele>-224.399993896484375</ele>
        <time>2025-09-06T10:24:37.000Z</time>
        <extensions>
          <ns3:TrackPointExtension>
            <ns3:hr>112</ns3:hr>
            <ns3:cad>54</ns3:cad>
          </ns3:TrackPointExtension>
        </extensions>
      </trkpt>
      <trkpt lat="52.16109464876353740692138671875" lon="1.46708057262003421783447265625">
        <ele>-224.8000030517578125</ele>
        <time>2025-09-06T10:24:39.000Z</time>
        <extensions>
          <ns3:TrackPointExtension>
            <ns3:hr>115</ns3:hr>
            <ns3:cad>56</ns3:cad>
          </ns3:TrackPointExtension>
        </extensions>
      </trkpt>
      <trkpt lat="52.16115114279091358184814453125" lon="1.4670870266854763031005859375">
        <ele>-225.399993896484375</ele>
        <time>2025-09-06T10:24:43.000Z</time>
        <extensions>
          <ns3:TrackPointExtension>
            <ns3:hr>113</ns3:hr>
            <ns3:cad>56</ns3:cad>
          </ns3:TrackPointExtension>
        </extensions>
      </trkpt>
      <trkpt lat="52.16117628850042819976806640625" lon="1.46709448657929897308349609375">
        <ele>-225.8000030517578125</ele>
        <time>2025-09-06T10:24:45.000Z</time>
        <extensions>
          <ns3:TrackPointExtension>
            <ns3:hr>112</ns3:hr>
            <ns3:cad>56</ns3:cad>
          </ns3:TrackPointExtension>
        </extensions>
      </trkpt>
      <trkpt lat="52.161230854690074920654296875" lon="1.46710471250116825103759765625">
        <ele>-226.600006103515625</ele>
        <time>2025-09-06T10:24:49.000Z</time>
        <extensions>
          <ns3:TrackPointExtension>
            <ns3:hr>108</ns3:hr>
            <ns3:cad>56</ns3:cad>
          </ns3:TrackPointExtension>
        </extensions>
      </trkpt>
      <trkpt lat="52.16130654327571392059326171875" lon="1.46712700836360454559326171875">
        <ele>-227.600006103515625</ele>
        <time>2025-09-06T10:24:54.000Z</time>
        <extensions>
          <ns3:TrackPointExtension>
            <ns3:hr>111</ns3:hr>
            <ns3:cad>55</ns3:cad>
          </ns3:TrackPointExtension>
        </extensions>
      </trkpt>
      <trkpt lat="52.16132062487304210662841796875" lon="1.46713220514357089996337890625">
        <ele>-227.600006103515625</ele>
        <time>2025-09-06T10:24:55.000Z</time>
        <extensions>
          <ns3:TrackPointExtension>
            <ns3:hr>111</ns3:hr>
            <ns3:cad>55</ns3:cad>
          </ns3:TrackPointExtension>
        </extensions>
      </trkpt>
      <trkpt lat="52.16132984496653079986572265625" lon="1.46714259870350360870361328125">
        <ele>-227.8000030517578125</ele>
        <time>2025-09-06T10:24:56.000Z</time>
        <extensions>
          <ns3:TrackPointExtension>
            <ns3:hr>115</ns3:hr>
            <ns3:cad>56</ns3:cad>
          </ns3:TrackPointExtension>
        </extensions>
      </trkpt>
      <trkpt lat="52.16135683469474315643310546875" lon="1.46715869195759296417236328125">
        <ele>-228.1999969482421875</ele>
        <time>2025-09-06T10:24:58.000Z</time>
        <extensions>
          <ns3:TrackPointExtension>
            <ns3:hr>111</ns3:hr>
            <ns3:cad>56</ns3:cad>
          </ns3:TrackPointExtension>
        </extensions>
      </trkpt>
      <trkpt lat="52.16139011085033416748046875" lon="1.467166654765605926513671875">
        <ele>-228.8000030517578125</ele>
        <time>2025-09-06T10:25:01.000Z</time>
        <extensions>
          <ns3:TrackPointExtension>
            <ns3:hr>112</ns3:hr>
            <ns3:cad>53</ns3:cad>
          </ns3:TrackPointExtension>
        </extensions>
      </trkpt>
      <trkpt lat="52.16139622963964939117431640625" lon="1.4671470411121845245361328125">
        <ele>-229.600006103515625</ele>
        <time>2025-09-06T10:25:07.000Z</time>
        <extensions>
          <ns3:TrackPointExtension>
            <ns3:hr>113</ns3:hr>
            <ns3:cad>0</ns3:cad>
          </ns3:TrackPointExtension>
        </extensions>
      </trkpt>
      <trkpt lat="52.1613922901451587677001953125" lon="1.4671482145786285400390625">
        <ele>-229.8000030517578125</ele>
        <time>2025-09-06T10:25:09.000Z</time>
        <extensions>
          <ns3:TrackPointExtension>
            <ns3:hr>113</ns3:hr>
            <ns3:cad>0</ns3:cad>
          </ns3:TrackPointExtension>
        </extensions>
      </trkpt>
      <trkpt lat="52.16139681637287139892578125" lon="1.4671513997018337249755859375">
        <ele>-229.8000030517578125</ele>
        <time>2025-09-06T10:25:14.000Z</time>
        <extensions>
          <ns3:TrackPointExtension>
            <ns3:hr>110</ns3:hr>
            <ns3:cad>0</ns3:cad>
          </ns3:TrackPointExtension>
        </extensions>
      </trkpt>
      <trkpt lat="52.161404192447662353515625" lon="1.46714888513088226318359375">
        <ele>-229.399993896484375</ele>
        <time>2025-09-06T10:25:18.000Z</time>
        <extensions>
          <ns3:TrackPointExtension>
            <ns3:hr>108</ns3:hr>
            <ns3:cad>0</ns3:cad>
          </ns3:TrackPointExtension>
        </extensions>
      </trkpt>
      <trkpt lat="52.161404527723789215087890625" lon="1.4671503938734531402587890625">
        <ele>-228.8000030517578125</ele>
        <time>2025-09-06T10:25:25.000Z</time>
        <extensions>
          <ns3:TrackPointExtension>
            <ns3:hr>108</ns3:hr>
            <ns3:cad>0</ns3:cad>
          </ns3:TrackPointExtension>
        </extensions>
      </trkpt>
      <trkpt lat="52.1614073775708675384521484375" lon="1.467165648937225341796875">
        <ele>-228.600006103515625</ele>
        <time>2025-09-06T10:25:30.000Z</time>
        <extensions>
          <ns3:TrackPointExtension>
            <ns3:hr>105</ns3:hr>
            <ns3:cad>0</ns3:cad>
          </ns3:TrackPointExtension>
        </extensions>
      </trkpt>
      <trkpt lat="52.16139405034482479095458984375" lon="1.4671832509338855743408203125">
        <ele>-229</ele>
        <time>2025-09-06T10:25:42.000Z</time>
        <extensions>
          <ns3:TrackPointExtension>
            <ns3:hr>102</ns3:hr>
            <ns3:cad>0</ns3:cad>
          </ns3:TrackPointExtension>
        </extensions>
      </trkpt>
      <trkpt lat="52.1613953076303005218505859375" lon="1.46718517877161502838134765625">
        <ele>-229</ele>
        <time>2025-09-06T10:25:44.000Z</time>
        <extensions>
          <ns3:TrackPointExtension>
            <ns3:hr>99</ns3:hr>
            <ns3:cad>0</ns3:cad>
          </ns3:TrackPointExtension>
        </extensions>
      </trkpt>
      <trkpt lat="52.16139773838222026824951171875" lon="1.4671911299228668212890625">
        <ele>-229.1999969482421875</ele>
        <time>2025-09-06T10:25:47.000Z</time>
        <extensions>
          <ns3:TrackPointExtension>
            <ns3:hr>100</ns3:hr>
            <ns3:cad>0</ns3:cad>
          </ns3:TrackPointExtension>
        </extensions>
      </trkpt>
      <trkpt lat="52.1613986603915691375732421875" lon="1.46718635223805904388427734375">
        <ele>-229.8000030517578125</ele>
        <time>2025-09-06T10:25:52.000Z</time>
        <extensions>
          <ns3:TrackPointExtension>
            <ns3:hr>98</ns3:hr>
            <ns3:cad>0</ns3:cad>
          </ns3:TrackPointExtension>
        </extensions>
      </trkpt>
      <trkpt lat="52.1613921225070953369140625" lon="1.4671839214861392974853515625">
        <ele>-230.600006103515625</ele>
        <time>2025-09-06T10:25:57.000Z</time>
        <extensions>
          <ns3:TrackPointExtension>
            <ns3:hr>99</ns3:hr>
            <ns3:cad>0</ns3:cad>
          </ns3:TrackPointExtension>
        </extensions>
      </trkpt>
      <trkpt lat="52.1613896079361438751220703125" lon="1.4671805687248706817626953125">
        <ele>-231</ele>
        <time>2025-09-06T10:25:59.000Z</time>
        <extensions>
          <ns3:TrackPointExtension>
            <ns3:hr>97</ns3:hr>
            <ns3:cad>0</ns3:cad>
          </ns3:TrackPointExtension>
        </extensions>
      </trkpt>
      <trkpt lat="52.1613839082419872283935546875" lon="1.46717478521168231964111328125">
        <ele>-232</ele>
        <time>2025-09-06T10:26:06.000Z</time>
        <extensions>
          <ns3:TrackPointExtension>
            <ns3:hr>95</ns3:hr>
            <ns3:cad>0</ns3:cad>
          </ns3:TrackPointExtension>
        </extensions>
      </trkpt>
      <trkpt lat="52.16138147749006748199462890625" lon="1.46717662923038005828857421875">
        <ele>-233</ele>
        <time>2025-09-06T10:26:13.000Z</time>
        <extensions>
          <ns3:TrackPointExtension>
            <ns3:hr>96</ns3:hr>
            <ns3:cad>0</ns3:cad>
          </ns3:TrackPointExtension>
        </extensions>
      </trkpt>
      <trkpt lat="52.1613795496523380279541015625" lon="1.467178054153919219970703125">
        <ele>-233.600006103515625</ele>
        <time>2025-09-06T10:26:16.000Z</time>
        <extensions>
          <ns3:TrackPointExtension>
            <ns3:hr>93</ns3:hr>
            <ns3:cad>0</ns3:cad>
          </ns3:TrackPointExtension>
        </extensions>
      </trkpt>
      <trkpt lat="52.1613802202045917510986328125" lon="1.4671819098293781280517578125">
        <ele>-234.1999969482421875</ele>
        <time>2025-09-06T10:26:20.000Z</time>
        <extensions>
          <ns3:TrackPointExtension>
            <ns3:hr>91</ns3:hr>
            <ns3:cad>0</ns3:cad>
          </ns3:TrackPointExtension>
        </extensions>
      </trkpt>
      <trkpt lat="52.1613731794059276580810546875" lon="1.4672023616731166839599609375">
        <ele>-235.1999969482421875</ele>
        <time>2025-09-06T10:26:27.000Z</time>
        <extensions>
          <ns3:TrackPointExtension>
            <ns3:hr>89</ns3:hr>
            <ns3:cad>0</ns3:cad>
          </ns3:TrackPointExtension>
        </extensions>
      </trkpt>
      <trkpt lat="52.1613792143762111663818359375" lon="1.4672020263969898223876953125">
        <ele>-235.8000030517578125</ele>
        <time>2025-09-06T10:26:32.000Z</time>
        <extensions>
          <ns3:TrackPointExtension>
            <ns3:hr>91</ns3:hr>
            <ns3:cad>0</ns3:cad>
          </ns3:TrackPointExtension>
        </extensions>
      </trkpt>
      <trkpt lat="52.1613788791000843048095703125" lon="1.46720395423471927642822265625">
        <ele>-236.1999969482421875</ele>
        <time>2025-09-06T10:26:35.000Z</time>
        <extensions>
          <ns3:TrackPointExtension>
            <ns3:hr>89</ns3:hr>
            <ns3:cad>0</ns3:cad>
          </ns3:TrackPointExtension>
        </extensions>
      </trkpt>
      <trkpt lat="52.16139011085033416748046875" lon="1.4672258310019969940185546875">
        <ele>-236.8000030517578125</ele>
        <time>2025-09-06T10:26:43.000Z</time>
        <extensions>
          <ns3:TrackPointExtension>
            <ns3:hr>88</ns3:hr>
            <ns3:cad>0</ns3:cad>
          </ns3:TrackPointExtension>
        </extensions>
      </trkpt>
      <trkpt lat="52.1614117361605167388916015625" lon="1.46721334196627140045166015625">
        <ele>-237</ele>
        <time>2025-09-06T10:26:46.000Z</time>
        <extensions>
          <ns3:TrackPointExtension>
            <ns3:hr>92</ns3:hr>
            <ns3:cad>0</ns3:cad>
          </ns3:TrackPointExtension>
        </extensions>
      </trkpt>
      <trkpt lat="52.16142774559557437896728515625" lon="1.46719045937061309814453125">
        <ele>-237</ele>
        <time>2025-09-06T10:26:48.000Z</time>
        <extensions>
          <ns3:TrackPointExtension>
            <ns3:hr>95</ns3:hr>
            <ns3:cad>0</ns3:cad>
          </ns3:TrackPointExtension>
        </extensions>
      </trkpt>
      <trkpt lat="52.16144937090575695037841796875" lon="1.4671701751649379730224609375">
        <ele>-237.1999969482421875</ele>
        <time>2025-09-06T10:26:50.000Z</time>
        <extensions>
          <ns3:TrackPointExtension>
            <ns3:hr>101</ns3:hr>
            <ns3:cad>0</ns3:cad>
          </ns3:TrackPointExtension>
        </extensions>
      </trkpt>
      <trkpt lat="52.1614539809525012969970703125" lon="1.4671701751649379730224609375">
        <ele>-237.399993896484375</ele>
        <time>2025-09-06T10:26:51.000Z</time>
        <extensions>
          <ns3:TrackPointExtension>
            <ns3:hr>110</ns3:hr>
            <ns3:cad>0</ns3:cad>
          </ns3:TrackPointExtension>
        </extensions>
      </trkpt>
      <trkpt lat="52.16145850718021392822265625" lon="1.46717025898396968841552734375">
        <ele>-237.399993896484375</ele>
        <time>2025-09-06T10:26:53.000Z</time>
        <extensions>
          <ns3:TrackPointExtension>
            <ns3:hr>115</ns3:hr>
            <ns3:cad>0</ns3:cad>
          </ns3:TrackPointExtension>
        </extensions>
      </trkpt>
      <trkpt lat="52.16146328486502170562744140625" lon="1.46716338582336902618408203125">
        <ele>-237.600006103515625</ele>
        <time>2025-09-06T10:26:54.000Z</time>
        <extensions>
          <ns3:TrackPointExtension>
            <ns3:hr>115</ns3:hr>
            <ns3:cad>0</ns3:cad>
          </ns3:TrackPointExtension>
        </extensions>
      </trkpt>
      <trkpt lat="52.16146747581660747528076171875" lon="1.4671446941792964935302734375">
        <ele>-238.1999969482421875</ele>
        <time>2025-09-06T10:27:00.000Z</time>
        <extensions>
          <ns3:TrackPointExtension>
            <ns3:hr>112</ns3:hr>
            <ns3:cad>0</ns3:cad>
          </ns3:TrackPointExtension>
        </extensions>
      </trkpt>
      <trkpt lat="52.1614670567214488983154296875" lon="1.4671453647315502166748046875">
        <ele>-238.399993896484375</ele>
        <time>2025-09-06T10:27:02.000Z</time>
        <extensions>
          <ns3:TrackPointExtension>
            <ns3:hr>114</ns3:hr>
            <ns3:cad>0</ns3:cad>
          </ns3:TrackPointExtension>
        </extensions>
      </trkpt>
      <trkpt lat="52.16146730817854404449462890625" lon="1.4671483822166919708251953125">
        <ele>-238.600006103515625</ele>
        <time>2025-09-06T10:27:04.000Z</time>
        <extensions>
          <ns3:TrackPointExtension>
            <ns3:hr>114</ns3:hr>
            <ns3:cad>0</ns3:cad>
          </ns3:TrackPointExtension>
        </extensions>
      </trkpt>
      <trkpt lat="52.161474265158176422119140625" lon="1.46714620292186737060546875">
        <ele>-239.399993896484375</ele>
        <time>2025-09-06T10:27:08.000Z</time>
        <extensions>
          <ns3:TrackPointExtension>
            <ns3:hr>114</ns3:hr>
            <ns3:cad>0</ns3:cad>
          </ns3:TrackPointExtension>
        </extensions>
      </trkpt>
      <trkpt lat="52.1614774502813816070556640625" lon="1.46714393980801105499267578125">
        <ele>-240.399993896484375</ele>
        <time>2025-09-06T10:27:13.000Z</time>
        <extensions>
          <ns3:TrackPointExtension>
            <ns3:hr>114</ns3:hr>
            <ns3:cad>0</ns3:cad>
          </ns3:TrackPointExtension>
        </extensions>
      </trkpt>
      <trkpt lat="52.16147669591009616851806640625" lon="1.46714226342737674713134765625">
        <ele>-241.1999969482421875</ele>
        <time>2025-09-06T10:27:17.000Z</time>
        <extensions>
          <ns3:TrackPointExtension>
            <ns3:hr>113</ns3:hr>
            <ns3:cad>0</ns3:cad>
          </ns3:TrackPointExtension>
        </extensions>
      </trkpt>
      <trkpt lat="52.1614730916917324066162109375" lon="1.467137150466442108154296875">
        <ele>-241.399993896484375</ele>
        <time>2025-09-06T10:27:20.000Z</time>
        <extensions>
          <ns3:TrackPointExtension>
            <ns3:hr>113</ns3:hr>
            <ns3:cad>0</ns3:cad>
          </ns3:TrackPointExtension>
        </extensions>
      </trkpt>
      <trkpt lat="52.1614791266620159149169921875" lon="1.4671118371188640594482421875">
        <ele>-241</ele>
        <time>2025-09-06T10:27:30.000Z</time>
        <extensions>
          <ns3:TrackPointExtension>
            <ns3:hr>112</ns3:hr>
            <ns3:cad>0</ns3:cad>
          </ns3:TrackPointExtension>
        </extensions>
      </trkpt>
      <trkpt lat="52.16149262152612209320068359375" lon="1.46711745299398899078369140625">
        <ele>-240.600006103515625</ele>
        <time>2025-09-06T10:27:43.000Z</time>
        <extensions>
          <ns3:TrackPointExtension>
            <ns3:hr>116</ns3:hr>
            <ns3:cad>0</ns3:cad>
          </ns3:TrackPointExtension>
        </extensions>
      </trkpt>
      <trkpt lat="52.16149278916418552398681640625" lon="1.4671202190220355987548828125">
        <ele>-240.399993896484375</ele>
        <time>2025-09-06T10:27:44.000Z</time>
        <extensions>
          <ns3:TrackPointExtension>
            <ns3:hr>115</ns3:hr>
            <ns3:cad>0</ns3:cad>
          </ns3:TrackPointExtension>
        </extensions>
      </trkpt>
      <trkpt lat="52.16150385327637195587158203125" lon="1.46711695007979869842529296875">
        <ele>-240</ele>
        <time>2025-09-06T10:27:47.000Z</time>
        <extensions>
          <ns3:TrackPointExtension>
            <ns3:hr>118</ns3:hr>
            <ns3:cad>0</ns3:cad>
          </ns3:TrackPointExtension>
        </extensions>
      </trkpt>
      <trkpt lat="52.1615233831107616424560546875" lon="1.46711309440433979034423828125">
        <ele>-239.8000030517578125</ele>
        <time>2025-09-06T10:27:49.000Z</time>
        <extensions>
          <ns3:TrackPointExtension>
            <ns3:hr>121</ns3:hr>
            <ns3:cad>0</ns3:cad>
          </ns3:TrackPointExtension>
        </extensions>
      </trkpt>
      <trkpt lat="52.16153436340391635894775390625" lon="1.4671098254621028900146484375">
        <ele>-239.600006103515625</ele>
        <time>2025-09-06T10:27:50.000Z</time>
        <extensions>
          <ns3:TrackPointExtension>
            <ns3:hr>124</ns3:hr>
            <ns3:cad>0</ns3:cad>
          </ns3:TrackPointExtension>
        </extensions>
      </trkpt>
      <trkpt lat="52.1615445055067539215087890625" lon="1.4671041257679462432861328125">
        <ele>-239.600006103515625</ele>
        <time>2025-09-06T10:27:51.000Z</time>
        <extensions>
          <ns3:TrackPointExtension>
            <ns3:hr>127</ns3:hr>
            <ns3:cad>0</ns3:cad>
          </ns3:TrackPointExtension>
        </extensions>
      </trkpt>
      <trkpt lat="52.16157250106334686279296875" lon="1.4670843444764614105224609375">
        <ele>-239.399993896484375</ele>
        <time>2025-09-06T10:27:53.000Z</time>
        <extensions>
          <ns3:TrackPointExtension>
            <ns3:hr>131</ns3:hr>
            <ns3:cad>0</ns3:cad>
          </ns3:TrackPointExtension>
        </extensions>
      </trkpt>
      <trkpt lat="52.16160426847636699676513671875" lon="1.46707537584006786346435546875">
        <ele>-239</ele>
        <time>2025-09-06T10:27:55.000Z</time>
        <extensions>
          <ns3:TrackPointExtension>
            <ns3:hr>128</ns3:hr>
            <ns3:cad>0</ns3:cad>
          </ns3:TrackPointExtension>
        </extensions>
      </trkpt>
      <trkpt lat="52.1616906858980655670166015625" lon="1.46701284684240818023681640625">
        <ele>-238.600006103515625</ele>
        <time>2025-09-06T10:28:00.000Z</time>
        <extensions>
          <ns3:TrackPointExtension>
            <ns3:hr>131</ns3:hr>
            <ns3:cad>55</ns3:cad>
          </ns3:TrackPointExtension>
        </extensions>
      </trkpt>
      <trkpt lat="52.16170803643763065338134765625" lon="1.46699859760701656341552734375">
        <ele>-238.600006103515625</ele>
        <time>2025-09-06T10:28:02.000Z</time>
        <extensions>
          <ns3:TrackPointExtension>
            <ns3:hr>130</ns3:hr>
            <ns3:cad>53</ns3:cad>
          </ns3:TrackPointExtension>
        </extensions>
      </trkpt>
      <trkpt lat="52.1617681346833705902099609375" lon="1.46697512827813625335693359375">
        <ele>-239</ele>
        <time>2025-09-06T10:28:06.000Z</time>
        <extensions>
          <ns3:TrackPointExtension>
            <ns3:hr>126</ns3:hr>
            <ns3:cad>53</ns3:cad>
          </ns3:TrackPointExtension>
        </extensions>
      </trkpt>
      <trkpt lat="52.16181063093245029449462890625" lon="1.4669602923095226287841796875">
        <ele>-239.399993896484375</ele>
        <time>2025-09-06T10:28:09.000Z</time>
        <extensions>
          <ns3:TrackPointExtension>
            <ns3:hr>125</ns3:hr>
            <ns3:cad>55</ns3:cad>
          </ns3:TrackPointExtension>
        </extensions>
      </trkpt>
      <trkpt lat="52.161945998668670654296875" lon="1.46691142581403255462646484375">
        <ele>-240.1999969482421875</ele>
        <time>2025-09-06T10:28:16.000Z</time>
        <extensions>
          <ns3:TrackPointExtension>
            <ns3:hr>128</ns3:hr>
            <ns3:cad>75</ns3:cad>
          </ns3:TrackPointExtension>
        </extensions>
      </trkpt>
      <trkpt lat="52.16197122819721698760986328125" lon="1.46689633838832378387451171875">
        <ele>-240.1999969482421875</ele>
        <time>2025-09-06T10:28:17.000Z</time>
        <extensions>
          <ns3:TrackPointExtension>
            <ns3:hr>125</ns3:hr>
            <ns3:cad>75</ns3:cad>
          </ns3:TrackPointExtension>
        </extensions>
      </trkpt>
      <trkpt lat="52.16199503280222415924072265625" lon="1.466884352266788482666015625">
        <ele>-240.399993896484375</ele>
        <time>2025-09-06T10:28:18.000Z</time>
        <extensions>
          <ns3:TrackPointExtension>
            <ns3:hr>126</ns3:hr>
            <ns3:cad>76</ns3:cad>
          </ns3:TrackPointExtension>
        </extensions>
      </trkpt>
      <trkpt lat="52.1621238626539707183837890625" lon="1.46682358346879482269287109375">
        <ele>-241</ele>
        <time>2025-09-06T10:28:24.000Z</time>
        <extensions>
          <ns3:TrackPointExtension>
            <ns3:hr>128</ns3:hr>
            <ns3:cad>79</ns3:cad>
          </ns3:TrackPointExtension>
        </extensions>
      </trkpt>
      <trkpt lat="52.16216904111206531524658203125" lon="1.4668075740337371826171875">
        <ele>-241.1999969482421875</ele>
        <time>2025-09-06T10:28:26.000Z</time>
        <extensions>
          <ns3:TrackPointExtension>
            <ns3:hr>132</ns3:hr>
            <ns3:cad>77</ns3:cad>
          </ns3:TrackPointExtension>
        </extensions>
      </trkpt>
      <trkpt lat="52.16218949295580387115478515625" lon="1.46680195815861225128173828125">
        <ele>-241.399993896484375</ele>
        <time>2025-09-06T10:28:27.000Z</time>
        <extensions>
          <ns3:TrackPointExtension>
            <ns3:hr>133</ns3:hr>
            <ns3:cad>77</ns3:cad>
          </ns3:TrackPointExtension>
        </extensions>
      </trkpt>
      <trkpt lat="52.1622489206492900848388671875" lon="1.46679340861737728118896484375">
        <ele>-241.8000030517578125</ele>
        <time>2025-09-06T10:28:30.000Z</time>
        <extensions>
          <ns3:TrackPointExtension>
            <ns3:hr>136</ns3:hr>
            <ns3:cad>77</ns3:cad>
          </ns3:TrackPointExtension>
        </extensions>
      </trkpt>
      <trkpt lat="52.16231337748467922210693359375" lon="1.4667809195816516876220703125">
        <ele>-242</ele>
        <time>2025-09-06T10:28:33.000Z</time>
        <extensions>
          <ns3:TrackPointExtension>
            <ns3:hr>137</ns3:hr>
            <ns3:cad>78</ns3:cad>
          </ns3:TrackPointExtension>
        </extensions>
      </trkpt>
      <trkpt lat="52.1623659320175647735595703125" lon="1.4667748846113681793212890625">
        <ele>-242.399993896484375</ele>
        <time>2025-09-06T10:28:36.000Z</time>
        <extensions>
          <ns3:TrackPointExtension>
            <ns3:hr>139</ns3:hr>
            <ns3:cad>77</ns3:cad>
          </ns3:TrackPointExtension>
        </extensions>
      </trkpt>
      <trkpt lat="52.16244581155478954315185546875" lon="1.4667661674320697784423828125">
        <ele>-242.8000030517578125</ele>
        <time>2025-09-06T10:28:40.000Z</time>
        <extensions>
          <ns3:TrackPointExtension>
            <ns3:hr>138</ns3:hr>
            <ns3:cad>73</ns3:cad>
          </ns3:TrackPointExtension>
        </extensions>
      </trkpt>
      <trkpt lat="52.16252066195011138916015625" lon="1.466776393353939056396484375">
        <ele>-243.399993896484375</ele>
        <time>2025-09-06T10:28:45.000Z</time>
        <extensions>
          <ns3:TrackPointExtension>
            <ns3:hr>139</ns3:hr>
            <ns3:cad>76</ns3:cad>
          </ns3:TrackPointExtension>
        </extensions>
      </trkpt>
      <trkpt lat="52.16253097169101238250732421875" lon="1.46678737364709377288818359375">
        <ele>-243.600006103515625</ele>
        <time>2025-09-06T10:28:47.000Z</time>
        <extensions>
          <ns3:TrackPointExtension>
            <ns3:hr>138</ns3:hr>
            <ns3:cad>76</ns3:cad>
          </ns3:TrackPointExtension>
        </extensions>
      </trkpt>
      <trkpt lat="52.1625895611941814422607421875" lon="1.4668519981205463409423828125">
        <ele>-244.1999969482421875</ele>
        <time>2025-09-06T10:28:52.000Z</time>
        <extensions>
          <ns3:TrackPointExtension>
            <ns3:hr>139</ns3:hr>
            <ns3:cad>80</ns3:cad>
          </ns3:TrackPointExtension>
        </extensions>
      </trkpt>
      <trkpt lat="52.16259852983057498931884765625" lon="1.46690991707146167755126953125">
        <ele>-244.399993896484375</ele>
        <time>2025-09-06T10:28:54.000Z</time>
        <extensions>
          <ns3:TrackPointExtension>
            <ns3:hr>140</ns3:hr>
            <ns3:cad>80</ns3:cad>
          </ns3:TrackPointExtension>
        </extensions>
      </trkpt>
      <trkpt lat="52.1626113541424274444580078125" lon="1.46704469807446002960205078125">
        <ele>-244.8000030517578125</ele>
        <time>2025-09-06T10:28:58.000Z</time>
        <extensions>
          <ns3:TrackPointExtension>
            <ns3:hr>139</ns3:hr>
            <ns3:cad>79</ns3:cad>
          </ns3:TrackPointExtension>
        </extensions>
      </trkpt>
      <trkpt lat="52.1626232564449310302734375" lon="1.4671866036951541900634765625">
        <ele>-245</ele>
        <time>2025-09-06T10:29:02.000Z</time>
        <extensions>
          <ns3:TrackPointExtension>
            <ns3:hr>142</ns3:hr>
            <ns3:cad>82</ns3:cad>
          </ns3:TrackPointExtension>
        </extensions>
      </trkpt>
      <trkpt lat="52.16262401081621646881103515625" lon="1.4672959037125110626220703125">
        <ele>-245</ele>
        <time>2025-09-06T10:29:05.000Z</time>
        <extensions>
          <ns3:TrackPointExtension>
            <ns3:hr>142</ns3:hr>
            <ns3:cad>82</ns3:cad>
          </ns3:TrackPointExtension>
        </extensions>
      </trkpt>
      <trkpt lat="52.1626103483140468597412109375" lon="1.46742858923971652984619140625">
        <ele>-245</ele>
        <time>2025-09-06T10:29:08.000Z</time>
        <extensions>
          <ns3:TrackPointExtension>
            <ns3:hr>145</ns3:hr>
            <ns3:cad>82</ns3:cad>
          </ns3:TrackPointExtension>
        </extensions>
      </trkpt>
      <trkpt lat="52.16259350068867206573486328125" lon="1.4676429145038127899169921875">
        <ele>-245</ele>
        <time>2025-09-06T10:29:13.000Z</time>
        <extensions>
          <ns3:TrackPointExtension>
            <ns3:hr>144</ns3:hr>
            <ns3:cad>82</ns3:cad>
          </ns3:TrackPointExtension>
        </extensions>
      </trkpt>
      <trkpt lat="52.162579335272312164306640625" lon="1.46780661307275295257568359375">
        <ele>-244.8000030517578125</ele>
        <time>2025-09-06T10:29:17.000Z</time>
        <extensions>
          <ns3:TrackPointExtension>
            <ns3:hr>147</ns3:hr>
            <ns3:cad>82</ns3:cad>
          </ns3:TrackPointExtension>
        </extensions>
      </trkpt>
      <trkpt lat="52.16255863197147846221923828125" lon="1.46795765496790409088134765625">
        <ele>-244.600006103515625</ele>
        <time>2025-09-06T10:29:21.000Z</time>
        <extensions>
          <ns3:TrackPointExtension>
            <ns3:hr>148</ns3:hr>
            <ns3:cad>82</ns3:cad>
          </ns3:TrackPointExtension>
        </extensions>
      </trkpt>
      <trkpt lat="52.16254614293575286865234375" lon="1.4681082777678966522216796875">
        <ele>-244</ele>
        <time>2025-09-06T10:29:25.000Z</time>
        <extensions>
          <ns3:TrackPointExtension>
            <ns3:hr>145</ns3:hr>
            <ns3:cad>82</ns3:cad>
          </ns3:TrackPointExtension>
        </extensions>
      </trkpt>
      <trkpt lat="52.16254656203091144561767578125" lon="1.46815245039761066436767578125">
        <ele>-243.8000030517578125</ele>
        <time>2025-09-06T10:29:27.000Z</time>
        <extensions>
          <ns3:TrackPointExtension>
            <ns3:hr>148</ns3:hr>
            <ns3:cad>82</ns3:cad>
          </ns3:TrackPointExtension>
        </extensions>
      </trkpt>
      <trkpt lat="52.162545137107372283935546875" lon="1.46819938905537128448486328125">
        <ele>-243.399993896484375</ele>
        <time>2025-09-06T10:29:30.000Z</time>
        <extensions>
          <ns3:TrackPointExtension>
            <ns3:hr>147</ns3:hr>
            <ns3:cad>62</ns3:cad>
          </ns3:TrackPointExtension>
        </extensions>
      </trkpt>
      <trkpt lat="52.1625328995287418365478515625" lon="1.468321345746517181396484375">
        <ele>-243</ele>
        <time>2025-09-06T10:29:34.000Z</time>
        <extensions>
          <ns3:TrackPointExtension>
            <ns3:hr>146</ns3:hr>
            <ns3:cad>78</ns3:cad>
          </ns3:TrackPointExtension>
        </extensions>
      </trkpt>
      <trkpt lat="52.16251621954143047332763671875" lon="1.46846274845302104949951171875">
        <ele>-242.399993896484375</ele>
        <time>2025-09-06T10:29:38.000Z</time>
        <extensions>
          <ns3:TrackPointExtension>
            <ns3:hr>147</ns3:hr>
            <ns3:cad>80</ns3:cad>
          </ns3:TrackPointExtension>
        </extensions>
      </trkpt>
      <trkpt lat="52.162503898143768310546875" lon="1.468562744557857513427734375">
        <ele>-242</ele>
        <time>2025-09-06T10:29:41.000Z</time>
        <extensions>
          <ns3:TrackPointExtension>
            <ns3:hr>148</ns3:hr>
            <ns3:cad>80</ns3:cad>
          </ns3:TrackPointExtension>
        </extensions>
      </trkpt>
      <trkpt lat="52.1625020541250705718994140625" lon="1.46859685890376567840576171875">
        <ele>-241.8000030517578125</ele>
        <time>2025-09-06T10:29:42.000Z</time>
        <extensions>
          <ns3:TrackPointExtension>
            <ns3:hr>145</ns3:hr>
            <ns3:cad>81</ns3:cad>
          </ns3:TrackPointExtension>
        </extensions>
      </trkpt>
      <trkpt lat="52.1624943427741527557373046875" lon="1.46866877563297748565673828125">
        <ele>-241.399993896484375</ele>
        <time>2025-09-06T10:29:44.000Z</time>
        <extensions>
          <ns3:TrackPointExtension>
            <ns3:hr>145</ns3:hr>
            <ns3:cad>82</ns3:cad>
          </ns3:TrackPointExtension>
        </extensions>
      </trkpt>
      <trkpt lat="52.1624655090272426605224609375" lon="1.4688673429191112518310546875">
        <ele>-240.1999969482421875</ele>
        <time>2025-09-06T10:29:49.000Z</time>
        <extensions>
          <ns3:TrackPointExtension>
            <ns3:hr>142</ns3:hr>
            <ns3:cad>82</ns3:cad>
          </ns3:TrackPointExtension>
        </extensions>
      </trkpt>
      <trkpt lat="52.16244832612574100494384765625" lon="1.46894034929573535919189453125">
        <ele>-239.8000030517578125</ele>
        <time>2025-09-06T10:29:51.000Z</time>
        <extensions>
          <ns3:TrackPointExtension>
            <ns3:hr>145</ns3:hr>
            <ns3:cad>82</ns3:cad>
          </ns3:TrackPointExtension>
        </extensions>
      </trkpt>
      <trkpt lat="52.162419073283672332763671875" lon="1.46905501373112201690673828125">
        <ele>-239.1999969482421875</ele>
        <time>2025-09-06T10:29:54.000Z</time>
        <extensions>
          <ns3:TrackPointExtension>
            <ns3:hr>148</ns3:hr>
            <ns3:cad>83</ns3:cad>
          </ns3:TrackPointExtension>
        </extensions>
      </trkpt>
      <trkpt lat="52.16241043992340564727783203125" lon="1.46909105591475963592529296875">
        <ele>-239</ele>
        <time>2025-09-06T10:29:55.000Z</time>
        <extensions>
          <ns3:TrackPointExtension>
            <ns3:hr>145</ns3:hr>
            <ns3:cad>83</ns3:cad>
          </ns3:TrackPointExtension>
        </extensions>
      </trkpt>
      <trkpt lat="52.16240205802023410797119140625" lon="1.4691244997084140777587890625">
        <ele>-238.8000030517578125</ele>
        <time>2025-09-06T10:29:56.000Z</time>
        <extensions>
          <ns3:TrackPointExtension>
            <ns3:hr>144</ns3:hr>
            <ns3:cad>82</ns3:cad>
          </ns3:TrackPointExtension>
        </extensions>
      </trkpt>
      <trkpt lat="52.1623873896896839141845703125" lon="1.4692376554012298583984375">
        <ele>-238</ele>
        <time>2025-09-06T10:29:59.000Z</time>
        <extensions>
          <ns3:TrackPointExtension>
            <ns3:hr>142</ns3:hr>
            <ns3:cad>82</ns3:cad>
          </ns3:TrackPointExtension>
        </extensions>
      </trkpt>
      <trkpt lat="52.1623538620769977569580078125" lon="1.46939900703728199005126953125">
        <ele>-237.1999969482421875</ele>
        <time>2025-09-06T10:30:03.000Z</time>
        <extensions>
          <ns3:TrackPointExtension>
            <ns3:hr>140</ns3:hr>
            <ns3:cad>82</ns3:cad>
          </ns3:TrackPointExtension>
        </extensions>
      </trkpt>
      <trkpt lat="52.16234422288835048675537109375" lon="1.4694389887154102325439453125">
        <ele>-237</ele>
        <time>2025-09-06T10:30:04.000Z</time>
        <extensions>
          <ns3:TrackPointExtension>
            <ns3:hr>142</ns3:hr>
            <ns3:cad>82</ns3:cad>
          </ns3:TrackPointExtension>
        </extensions>
      </trkpt>
      <trkpt lat="52.16231823898851871490478515625" lon="1.4695147611200809478759765625">
        <ele>-236.600006103515625</ele>
        <time>2025-09-06T10:30:06.000Z</time>
        <extensions>
          <ns3:TrackPointExtension>
            <ns3:hr>145</ns3:hr>
            <ns3:cad>82</ns3:cad>
          </ns3:TrackPointExtension>
        </extensions>
      </trkpt>
      <trkpt lat="52.16230449266731739044189453125" lon="1.469618193805217742919921875">
        <ele>-236</ele>
        <time>2025-09-06T10:30:09.000Z</time>
        <extensions>
          <ns3:TrackPointExtension>
            <ns3:hr>144</ns3:hr>
            <ns3:cad>82</ns3:cad>
          </ns3:TrackPointExtension>
        </extensions>
      </trkpt>
      <trkpt lat="52.1622906625270843505859375" lon="1.46972858346998691558837890625">
        <ele>-235.399993896484375</ele>
        <time>2025-09-06T10:30:12.000Z</time>
        <extensions>
          <ns3:TrackPointExtension>
            <ns3:hr>147</ns3:hr>
            <ns3:cad>82</ns3:cad>
          </ns3:TrackPointExtension>
        </extensions>
      </trkpt>
      <trkpt lat="52.16228060424327850341796875" lon="1.4698004163801670074462890625">
        <ele>-235</ele>
        <time>2025-09-06T10:30:14.000Z</time>
        <extensions>
          <ns3:TrackPointExtension>
            <ns3:hr>144</ns3:hr>
            <ns3:cad>82</ns3:cad>
          </ns3:TrackPointExtension>
        </extensions>
      </trkpt>
      <trkpt lat="52.162246070802211761474609375" lon="1.4699727483093738555908203125">
        <ele>-233.8000030517578125</ele>
        <time>2025-09-06T10:30:19.000Z</time>
        <extensions>
          <ns3:TrackPointExtension>
            <ns3:hr>144</ns3:hr>
            <ns3:cad>82</ns3:cad>
          </ns3:TrackPointExtension>
        </extensions>
      </trkpt>
      <trkpt lat="52.16222696006298065185546875" lon="1.47005648352205753326416015625">
        <ele>-233.1999969482421875</ele>
        <time>2025-09-06T10:30:21.000Z</time>
        <extensions>
          <ns3:TrackPointExtension>
            <ns3:hr>144</ns3:hr>
            <ns3:cad>82</ns3:cad>
          </ns3:TrackPointExtension>
        </extensions>
      </trkpt>
      <trkpt lat="52.1622143872082233428955078125" lon="1.47016896866261959075927734375">
        <ele>-232.600006103515625</ele>
        <time>2025-09-06T10:30:24.000Z</time>
        <extensions>
          <ns3:TrackPointExtension>
            <ns3:hr>143</ns3:hr>
            <ns3:cad>82</ns3:cad>
          </ns3:TrackPointExtension>
        </extensions>
      </trkpt>
      <trkpt lat="52.1622194163501262664794921875" lon="1.4703185856342315673828125">
        <ele>-231.399993896484375</ele>
        <time>2025-09-06T10:30:28.000Z</time>
        <extensions>
          <ns3:TrackPointExtension>
            <ns3:hr>144</ns3:hr>
            <ns3:cad>82</ns3:cad>
          </ns3:TrackPointExtension>
        </extensions>
      </trkpt>
      <trkpt lat="52.16222285293042659759521484375" lon="1.47046971134841442108154296875">
        <ele>-230.399993896484375</ele>
        <time>2025-09-06T10:30:32.000Z</time>
        <extensions>
          <ns3:TrackPointExtension>
            <ns3:hr>141</ns3:hr>
            <ns3:cad>82</ns3:cad>
          </ns3:TrackPointExtension>
        </extensions>
      </trkpt>
      <trkpt lat="52.16222570277750492095947265625" lon="1.4705417118966579437255859375">
        <ele>-230</ele>
        <time>2025-09-06T10:30:34.000Z</time>
        <extensions>
          <ns3:TrackPointExtension>
            <ns3:hr>144</ns3:hr>
            <ns3:cad>82</ns3:cad>
          </ns3:TrackPointExtension>
        </extensions>
      </trkpt>
      <trkpt lat="52.16222696006298065185546875" lon="1.4706151373684406280517578125">
        <ele>-229.399993896484375</ele>
        <time>2025-09-06T10:30:36.000Z</time>
        <extensions>
          <ns3:TrackPointExtension>
            <ns3:hr>145</ns3:hr>
            <ns3:cad>82</ns3:cad>
          </ns3:TrackPointExtension>
        </extensions>
      </trkpt>
      <trkpt lat="52.16222268529236316680908203125" lon="1.47069317288696765899658203125">
        <ele>-228.8000030517578125</ele>
        <time>2025-09-06T10:30:38.000Z</time>
        <extensions>
          <ns3:TrackPointExtension>
            <ns3:hr>142</ns3:hr>
            <ns3:cad>82</ns3:cad>
          </ns3:TrackPointExtension>
        </extensions>
      </trkpt>
      <trkpt lat="52.1622267924249172210693359375" lon="1.47076584398746490478515625">
        <ele>-228.1999969482421875</ele>
        <time>2025-09-06T10:30:40.000Z</time>
        <extensions>
          <ns3:TrackPointExtension>
            <ns3:hr>142</ns3:hr>
            <ns3:cad>81</ns3:cad>
          </ns3:TrackPointExtension>
        </extensions>
      </trkpt>
      <trkpt lat="52.1622311510145664215087890625" lon="1.47090104408562183380126953125">
        <ele>-227</ele>
        <time>2025-09-06T10:30:44.000Z</time>
        <extensions>
          <ns3:TrackPointExtension>
            <ns3:hr>143</ns3:hr>
            <ns3:cad>80</ns3:cad>
          </ns3:TrackPointExtension>
        </extensions>
      </trkpt>
      <trkpt lat="52.16223173774778842926025390625" lon="1.47100229747593402862548828125">
        <ele>-226</ele>
        <time>2025-09-06T10:30:47.000Z</time>
        <extensions>
          <ns3:TrackPointExtension>
            <ns3:hr>143</ns3:hr>
            <ns3:cad>80</ns3:cad>
          </ns3:TrackPointExtension>
        </extensions>
      </trkpt>
      <trkpt lat="52.16223441995680332183837890625" lon="1.471033059060573577880859375">
        <ele>-225.8000030517578125</ele>
        <time>2025-09-06T10:30:48.000Z</time>
        <extensions>
          <ns3:TrackPointExtension>
            <ns3:hr>141</ns3:hr>
            <ns3:cad>80</ns3:cad>
          </ns3:TrackPointExtension>
        </extensions>
      </trkpt>
      <trkpt lat="52.16223324649035930633544921875" lon="1.471165828406810760498046875">
        <ele>-224.600006103515625</ele>
        <time>2025-09-06T10:30:52.000Z</time>
        <extensions>
          <ns3:TrackPointExtension>
            <ns3:hr>142</ns3:hr>
            <ns3:cad>80</ns3:cad>
          </ns3:TrackPointExtension>
        </extensions>
      </trkpt>
      <trkpt lat="52.1622197516262531280517578125" lon="1.47126414813101291656494140625">
        <ele>-223.600006103515625</ele>
        <time>2025-09-06T10:30:55.000Z</time>
        <extensions>
          <ns3:TrackPointExtension>
            <ns3:hr>145</ns3:hr>
            <ns3:cad>81</ns3:cad>
          </ns3:TrackPointExtension>
        </extensions>
      </trkpt>
      <trkpt lat="52.16221547685563564300537109375" lon="1.47129449062049388885498046875">
        <ele>-223.399993896484375</ele>
        <time>2025-09-06T10:30:56.000Z</time>
        <extensions>
          <ns3:TrackPointExtension>
            <ns3:hr>144</ns3:hr>
            <ns3:cad>81</ns3:cad>
          </ns3:TrackPointExtension>
        </extensions>
      </trkpt>
      <trkpt lat="52.16221832670271396636962890625" lon="1.47144980728626251220703125">
        <ele>-222.1999969482421875</ele>
        <time>2025-09-06T10:31:00.000Z</time>
        <extensions>
          <ns3:TrackPointExtension>
            <ns3:hr>144</ns3:hr>
            <ns3:cad>81</ns3:cad>
          </ns3:TrackPointExtension>
        </extensions>
      </trkpt>
      <trkpt lat="52.16222184710204601287841796875" lon="1.471542008221149444580078125">
        <ele>-221.1999969482421875</ele>
        <time>2025-09-06T10:31:04.000Z</time>
        <extensions>
          <ns3:TrackPointExtension>
            <ns3:hr>144</ns3:hr>
            <ns3:cad>81</ns3:cad>
          </ns3:TrackPointExtension>
        </extensions>
      </trkpt>
      <trkpt lat="52.16222050599753856658935546875" lon="1.47161551751196384429931640625">
        <ele>-220.8000030517578125</ele>
        <time>2025-09-06T10:31:06.000Z</time>
        <extensions>
          <ns3:TrackPointExtension>
            <ns3:hr>146</ns3:hr>
            <ns3:cad>81</ns3:cad>
          </ns3:TrackPointExtension>
        </extensions>
      </trkpt>
      <trkpt lat="52.1622184105217456817626953125" lon="1.47169598378241062164306640625">
        <ele>-220.1999969482421875</ele>
        <time>2025-09-06T10:31:08.000Z</time>
        <extensions>
          <ns3:TrackPointExtension>
            <ns3:hr>145</ns3:hr>
            <ns3:cad>81</ns3:cad>
          </ns3:TrackPointExtension>
        </extensions>
      </trkpt>
      <trkpt lat="52.1621922589838504791259765625" lon="1.47189698182046413421630859375">
        <ele>-219</ele>
        <time>2025-09-06T10:31:13.000Z</time>
        <extensions>
          <ns3:TrackPointExtension>
            <ns3:hr>146</ns3:hr>
            <ns3:cad>80</ns3:cad>
          </ns3:TrackPointExtension>
        </extensions>
      </trkpt>
      <trkpt lat="52.16218513436615467071533203125" lon="1.47197493351995944976806640625">
        <ele>-218.600006103515625</ele>
        <time>2025-09-06T10:31:15.000Z</time>
        <extensions>
          <ns3:TrackPointExtension>
            <ns3:hr>143</ns3:hr>
            <ns3:cad>81</ns3:cad>
          </ns3:TrackPointExtension>
        </extensions>
      </trkpt>
      <trkpt lat="52.16218270361423492431640625" lon="1.47201441228389739990234375">
        <ele>-218.1999969482421875</ele>
        <time>2025-09-06T10:31:16.000Z</time>
        <extensions>
          <ns3:TrackPointExtension>
            <ns3:hr>143</ns3:hr>
            <ns3:cad>81</ns3:cad>
          </ns3:TrackPointExtension>
        </extensions>
      </trkpt>
      <trkpt lat="52.16218178160488605499267578125" lon="1.4720876701176166534423828125">
        <ele>-217.8000030517578125</ele>
        <time>2025-09-06T10:31:18.000Z</time>
        <extensions>
          <ns3:TrackPointExtension>
            <ns3:hr>141</ns3:hr>
            <ns3:cad>81</ns3:cad>
          </ns3:TrackPointExtension>
        </extensions>
      </trkpt>
      <trkpt lat="52.1621721424162387847900390625" lon="1.4722422324120998382568359375">
        <ele>-216.600006103515625</ele>
        <time>2025-09-06T10:31:22.000Z</time>
        <extensions>
          <ns3:TrackPointExtension>
            <ns3:hr>140</ns3:hr>
            <ns3:cad>80</ns3:cad>
          </ns3:TrackPointExtension>
        </extensions>
      </trkpt>
      <trkpt lat="52.1621667779982089996337890625" lon="1.47227835841476917266845703125">
        <ele>-216.399993896484375</ele>
        <time>2025-09-06T10:31:23.000Z</time>
        <extensions>
          <ns3:TrackPointExtension>
            <ns3:hr>139</ns3:hr>
            <ns3:cad>80</ns3:cad>
          </ns3:TrackPointExtension>
        </extensions>
      </trkpt>
      <trkpt lat="52.1621560491621494293212890625" lon="1.47235102951526641845703125">
        <ele>-215.8000030517578125</ele>
        <time>2025-09-06T10:31:25.000Z</time>
        <extensions>
          <ns3:TrackPointExtension>
            <ns3:hr>136</ns3:hr>
            <ns3:cad>79</ns3:cad>
          </ns3:TrackPointExtension>
        </extensions>
      </trkpt>
      <trkpt lat="52.16215244494378566741943359375" lon="1.47238967008888721466064453125">
        <ele>-215.600006103515625</ele>
        <time>2025-09-06T10:31:26.000Z</time>
        <extensions>
          <ns3:TrackPointExtension>
            <ns3:hr>138</ns3:hr>
            <ns3:cad>79</ns3:cad>
          </ns3:TrackPointExtension>
        </extensions>
      </trkpt>
      <trkpt lat="52.16212905943393707275390625" lon="1.47253819741308689117431640625">
        <ele>-214.1999969482421875</ele>
        <time>2025-09-06T10:31:30.000Z</time>
        <extensions>
          <ns3:TrackPointExtension>
            <ns3:hr>135</ns3:hr>
            <ns3:cad>79</ns3:cad>
          </ns3:TrackPointExtension>
        </extensions>
      </trkpt>
      <trkpt lat="52.1621188335120677947998046875" lon="1.47257491014897823333740234375">
        <ele>-214</ele>
        <time>2025-09-06T10:31:31.000Z</time>
        <extensions>
          <ns3:TrackPointExtension>
            <ns3:hr>135</ns3:hr>
            <ns3:cad>79</ns3:cad>
          </ns3:TrackPointExtension>
        </extensions>
      </trkpt>
      <trkpt lat="52.162087820470333099365234375" lon="1.4726861380040645599365234375">
        <ele>-213</ele>
        <time>2025-09-06T10:31:34.000Z</time>
        <extensions>
          <ns3:TrackPointExtension>
            <ns3:hr>136</ns3:hr>
            <ns3:cad>79</ns3:cad>
          </ns3:TrackPointExtension>
        </extensions>
      </trkpt>
      <trkpt lat="52.162053287029266357421875" lon="1.47280826233327388763427734375">
        <ele>-211.8000030517578125</ele>
        <time>2025-09-06T10:31:38.000Z</time>
        <extensions>
          <ns3:TrackPointExtension>
            <ns3:hr>137</ns3:hr>
            <ns3:cad>79</ns3:cad>
          </ns3:TrackPointExtension>
        </extensions>
      </trkpt>
      <trkpt lat="52.16205085627734661102294921875" lon="1.47282846271991729736328125">
        <ele>-211.399993896484375</ele>
        <time>2025-09-06T10:31:39.000Z</time>
        <extensions>
          <ns3:TrackPointExtension>
            <ns3:hr>136</ns3:hr>
            <ns3:cad>78</ns3:cad>
          </ns3:TrackPointExtension>
        </extensions>
      </trkpt>
      <trkpt lat="52.16204750351607799530029296875" lon="1.472851596772670745849609375">
        <ele>-210.600006103515625</ele>
        <time>2025-09-06T10:31:42.000Z</time>
        <extensions>
          <ns3:TrackPointExtension>
            <ns3:hr>135</ns3:hr>
            <ns3:cad>0</ns3:cad>
          </ns3:TrackPointExtension>
        </extensions>
      </trkpt>
      <trkpt lat="52.16204616241157054901123046875" lon="1.47287380881607532501220703125">
        <ele>-209.600006103515625</ele>
        <time>2025-09-06T10:31:45.000Z</time>
        <extensions>
          <ns3:TrackPointExtension>
            <ns3:hr>138</ns3:hr>
            <ns3:cad>0</ns3:cad>
          </ns3:TrackPointExtension>
        </extensions>
      </trkpt>
      <trkpt lat="52.16204633004963397979736328125" lon="1.47287364117801189422607421875">
        <ele>-209.399993896484375</ele>
        <time>2025-09-06T10:31:46.000Z</time>
        <extensions>
          <ns3:TrackPointExtension>
            <ns3:hr>137</ns3:hr>
            <ns3:cad>0</ns3:cad>
          </ns3:TrackPointExtension>
        </extensions>
      </trkpt>
      <trkpt lat="52.1620474196970462799072265625" lon="1.4728695340454578399658203125">
        <ele>-209</ele>
        <time>2025-09-06T10:31:47.000Z</time>
        <extensions>
          <ns3:TrackPointExtension>
            <ns3:hr>135</ns3:hr>
            <ns3:cad>0</ns3:cad>
          </ns3:TrackPointExtension>
        </extensions>
      </trkpt>
      <trkpt lat="52.1620564721524715423583984375" lon="1.47287246771156787872314453125">
        <ele>-208.1999969482421875</ele>
        <time>2025-09-06T10:31:50.000Z</time>
        <extensions>
          <ns3:TrackPointExtension>
            <ns3:hr>135</ns3:hr>
            <ns3:cad>0</ns3:cad>
          </ns3:TrackPointExtension>
        </extensions>
      </trkpt>
      <trkpt lat="52.16206544078886508941650390625" lon="1.47293348796665668487548828125">
        <ele>-207.600006103515625</ele>
        <time>2025-09-06T10:31:53.000Z</time>
        <extensions>
          <ns3:TrackPointExtension>
            <ns3:hr>133</ns3:hr>
            <ns3:cad>0</ns3:cad>
          </ns3:TrackPointExtension>
        </extensions>
      </trkpt>
      <trkpt lat="52.1620594896376132965087890625" lon="1.4730257727205753326416015625">
        <ele>-207.1999969482421875</ele>
        <time>2025-09-06T10:31:56.000Z</time>
        <extensions>
          <ns3:TrackPointExtension>
            <ns3:hr>134</ns3:hr>
            <ns3:cad>80</ns3:cad>
          </ns3:TrackPointExtension>
        </extensions>
      </trkpt>
      <trkpt lat="52.1620521135628223419189453125" lon="1.473092995584011077880859375">
        <ele>-206.8000030517578125</ele>
        <time>2025-09-06T10:31:58.000Z</time>
        <extensions>
          <ns3:TrackPointExtension>
            <ns3:hr>137</ns3:hr>
            <ns3:cad>80</ns3:cad>
          </ns3:TrackPointExtension>
        </extensions>
      </trkpt>
      <trkpt lat="52.16204850934445858001708984375" lon="1.4731307141482830047607421875">
        <ele>-206.600006103515625</ele>
        <time>2025-09-06T10:31:59.000Z</time>
        <extensions>
          <ns3:TrackPointExtension>
            <ns3:hr>141</ns3:hr>
            <ns3:cad>81</ns3:cad>
          </ns3:TrackPointExtension>
        </extensions>
      </trkpt>
      <trkpt lat="52.1620447374880313873291015625" lon="1.47317036055028438568115234375">
        <ele>-206.399993896484375</ele>
        <time>2025-09-06T10:32:00.000Z</time>
        <extensions>
          <ns3:TrackPointExtension>
            <ns3:hr>141</ns3:hr>
            <ns3:cad>81</ns3:cad>
          </ns3:TrackPointExtension>
        </extensions>
      </trkpt>
      <trkpt lat="52.16203526593744754791259765625" lon="1.47321679629385471343994140625">
        <ele>-206.399993896484375</ele>
        <time>2025-09-06T10:32:01.000Z</time>
        <extensions>
          <ns3:TrackPointExtension>
            <ns3:hr>142</ns3:hr>
            <ns3:cad>81</ns3:cad>
          </ns3:TrackPointExtension>
        </extensions>
      </trkpt>
      <trkpt lat="52.16202235780656337738037109375" lon="1.473296843469142913818359375">
        <ele>-206</ele>
        <time>2025-09-06T10:32:03.000Z</time>
        <extensions>
          <ns3:TrackPointExtension>
            <ns3:hr>143</ns3:hr>
            <ns3:cad>82</ns3:cad>
          </ns3:TrackPointExtension>
        </extensions>
      </trkpt>
      <trkpt lat="52.16198329813778400421142578125" lon="1.47345081903040409088134765625">
        <ele>-205.1999969482421875</ele>
        <time>2025-09-06T10:32:08.000Z</time>
        <extensions>
          <ns3:TrackPointExtension>
            <ns3:hr>143</ns3:hr>
            <ns3:cad>80</ns3:cad>
          </ns3:TrackPointExtension>
        </extensions>
      </trkpt>
      <trkpt lat="52.161968462169170379638671875" lon="1.4734814129769802093505859375">
        <ele>-205</ele>
        <time>2025-09-06T10:32:09.000Z</time>
        <extensions>
          <ns3:TrackPointExtension>
            <ns3:hr>144</ns3:hr>
            <ns3:cad>80</ns3:cad>
          </ns3:TrackPointExtension>
        </extensions>
      </trkpt>
      <trkpt lat="52.161935269832611083984375" lon="1.47365466691553592681884765625">
        <ele>-204</ele>
        <time>2025-09-06T10:32:14.000Z</time>
        <extensions>
          <ns3:TrackPointExtension>
            <ns3:hr>144</ns3:hr>
            <ns3:cad>81</ns3:cad>
          </ns3:TrackPointExtension>
        </extensions>
      </trkpt>
      <trkpt lat="52.161928899586200714111328125" lon="1.4736879430711269378662109375">
        <ele>-203.8000030517578125</ele>
        <time>2025-09-06T10:32:15.000Z</time>
        <extensions>
          <ns3:TrackPointExtension>
            <ns3:hr>144</ns3:hr>
            <ns3:cad>81</ns3:cad>
          </ns3:TrackPointExtension>
        </extensions>
      </trkpt>
      <trkpt lat="52.1619223617017269134521484375" lon="1.47381895221769809722900390625">
        <ele>-203</ele>
        <time>2025-09-06T10:32:19.000Z</time>
        <extensions>
          <ns3:TrackPointExtension>
            <ns3:hr>147</ns3:hr>
            <ns3:cad>81</ns3:cad>
          </ns3:TrackPointExtension>
        </extensions>
      </trkpt>
      <trkpt lat="52.16192211024463176727294921875" lon="1.47385482676327228546142578125">
        <ele>-202.8000030517578125</ele>
        <time>2025-09-06T10:32:20.000Z</time>
        <extensions>
          <ns3:TrackPointExtension>
            <ns3:hr>145</ns3:hr>
            <ns3:cad>81</ns3:cad>
          </ns3:TrackPointExtension>
        </extensions>
      </trkpt>
      <trkpt lat="52.16192127205431461334228515625" lon="1.47392657585442066192626953125">
        <ele>-202.399993896484375</ele>
        <time>2025-09-06T10:32:22.000Z</time>
        <extensions>
          <ns3:TrackPointExtension>
            <ns3:hr>145</ns3:hr>
            <ns3:cad>81</ns3:cad>
          </ns3:TrackPointExtension>
        </extensions>
      </trkpt>
      <trkpt lat="52.1619300730526447296142578125" lon="1.47406420670449733734130859375">
        <ele>-201.600006103515625</ele>
        <time>2025-09-06T10:32:25.000Z</time>
        <extensions>
          <ns3:TrackPointExtension>
            <ns3:hr>146</ns3:hr>
            <ns3:cad>81</ns3:cad>
          </ns3:TrackPointExtension>
        </extensions>
      </trkpt>
      <trkpt lat="52.16192764230072498321533203125" lon="1.47425942122936248779296875">
        <ele>-200.8000030517578125</ele>
        <time>2025-09-06T10:32:29.000Z</time>
        <extensions>
          <ns3:TrackPointExtension>
            <ns3:hr>146</ns3:hr>
            <ns3:cad>81</ns3:cad>
          </ns3:TrackPointExtension>
        </extensions>
      </trkpt>
      <trkpt lat="52.161930911242961883544921875" lon="1.47436561994254589080810546875">
        <ele>-200.600006103515625</ele>
        <time>2025-09-06T10:32:31.000Z</time>
        <extensions>
          <ns3:TrackPointExtension>
            <ns3:hr>146</ns3:hr>
            <ns3:cad>82</ns3:cad>
          </ns3:TrackPointExtension>
        </extensions>
      </trkpt>
      <trkpt lat="52.16193325817584991455078125" lon="1.4746780134737491607666015625">
        <ele>-199.399993896484375</ele>
        <time>2025-09-06T10:32:38.000Z</time>
        <extensions>
          <ns3:TrackPointExtension>
            <ns3:hr>147</ns3:hr>
            <ns3:cad>81</ns3:cad>
          </ns3:TrackPointExtension>
        </extensions>
      </trkpt>
      <trkpt lat="52.161955721676349639892578125" lon="1.47482779808342456817626953125">
        <ele>-198.8000030517578125</ele>
        <time>2025-09-06T10:32:44.000Z</time>
        <extensions>
          <ns3:TrackPointExtension>
            <ns3:hr>143</ns3:hr>
            <ns3:cad>61</ns3:cad>
          </ns3:TrackPointExtension>
        </extensions>
      </trkpt>
      <trkpt lat="52.16197407804429531097412109375" lon="1.474912203848361968994140625">
        <ele>-198.399993896484375</ele>
        <time>2025-09-06T10:32:49.000Z</time>
        <extensions>
          <ns3:TrackPointExtension>
            <ns3:hr>145</ns3:hr>
            <ns3:cad>55</ns3:cad>
          </ns3:TrackPointExtension>
        </extensions>
      </trkpt>
      <trkpt lat="52.16197122819721698760986328125" lon="1.47491991519927978515625">
        <ele>-198.399993896484375</ele>
        <time>2025-09-06T10:32:51.000Z</time>
        <extensions>
          <ns3:TrackPointExtension>
            <ns3:hr>144</ns3:hr>
            <ns3:cad>0</ns3:cad>
          </ns3:TrackPointExtension>
        </extensions>
      </trkpt>
      <trkpt lat="52.1619468368589878082275390625" lon="1.4749670214951038360595703125">
        <ele>-197.8000030517578125</ele>
        <time>2025-09-06T10:33:00.000Z</time>
        <extensions>
          <ns3:TrackPointExtension>
            <ns3:hr>143</ns3:hr>
            <ns3:cad>0</ns3:cad>
          </ns3:TrackPointExtension>
        </extensions>
      </trkpt>
      <trkpt lat="52.161918841302394866943359375" lon="1.47512686438858509063720703125">
        <ele>-197.399993896484375</ele>
        <time>2025-09-06T10:33:07.000Z</time>
        <extensions>
          <ns3:TrackPointExtension>
            <ns3:hr>141</ns3:hr>
            <ns3:cad>52</ns3:cad>
          </ns3:TrackPointExtension>
        </extensions>
      </trkpt>
      <trkpt lat="52.16192060150206089019775390625" lon="1.47518637590110301971435546875">
        <ele>-197.399993896484375</ele>
        <time>2025-09-06T10:33:09.000Z</time>
        <extensions>
          <ns3:TrackPointExtension>
            <ns3:hr>141</ns3:hr>
            <ns3:cad>75</ns3:cad>
          </ns3:TrackPointExtension>
        </extensions>
      </trkpt>
      <trkpt lat="52.1619247086346149444580078125" lon="1.4753495715558528900146484375">
        <ele>-197</ele>
        <time>2025-09-06T10:33:15.000Z</time>
        <extensions>
          <ns3:TrackPointExtension>
            <ns3:hr>144</ns3:hr>
            <ns3:cad>80</ns3:cad>
          </ns3:TrackPointExtension>
        </extensions>
      </trkpt>
      <trkpt lat="52.16192546300590038299560546875" lon="1.47537656128406524658203125">
        <ele>-196.8000030517578125</ele>
        <time>2025-09-06T10:33:16.000Z</time>
        <extensions>
          <ns3:TrackPointExtension>
            <ns3:hr>144</ns3:hr>
            <ns3:cad>80</ns3:cad>
          </ns3:TrackPointExtension>
        </extensions>
      </trkpt>
      <trkpt lat="52.16192378662526607513427734375" lon="1.47546867839992046356201171875">
        <ele>-196.600006103515625</ele>
        <time>2025-09-06T10:33:19.000Z</time>
        <extensions>
          <ns3:TrackPointExtension>
            <ns3:hr>147</ns3:hr>
            <ns3:cad>80</ns3:cad>
          </ns3:TrackPointExtension>
        </extensions>
      </trkpt>
      <trkpt lat="52.16192831285297870635986328125" lon="1.47560161538422107696533203125">
        <ele>-196.399993896484375</ele>
        <time>2025-09-06T10:33:23.000Z</time>
        <extensions>
          <ns3:TrackPointExtension>
            <ns3:hr>150</ns3:hr>
            <ns3:cad>80</ns3:cad>
          </ns3:TrackPointExtension>
        </extensions>
      </trkpt>
      <trkpt lat="52.1619290672242641448974609375" lon="1.47563648410141468048095703125">
        <ele>-196.399993896484375</ele>
        <time>2025-09-06T10:33:24.000Z</time>
        <extensions>
          <ns3:TrackPointExtension>
            <ns3:hr>149</ns3:hr>
            <ns3:cad>80</ns3:cad>
          </ns3:TrackPointExtension>
        </extensions>
      </trkpt>
      <trkpt lat="52.1619324199855327606201171875" lon="1.47567487321794033050537109375">
        <ele>-196.399993896484375</ele>
        <time>2025-09-06T10:33:25.000Z</time>
        <extensions>
          <ns3:TrackPointExtension>
            <ns3:hr>148</ns3:hr>
            <ns3:cad>80</ns3:cad>
          </ns3:TrackPointExtension>
        </extensions>
      </trkpt>
      <trkpt lat="52.16193401254713535308837890625" lon="1.47588525898754596710205078125">
        <ele>-196</ele>
        <time>2025-09-06T10:33:31.000Z</time>
        <extensions>
          <ns3:TrackPointExtension>
            <ns3:hr>149</ns3:hr>
            <ns3:cad>80</ns3:cad>
          </ns3:TrackPointExtension>
        </extensions>
      </trkpt>
      <trkpt lat="52.16193996369838714599609375" lon="1.47601425647735595703125">
        <ele>-195.600006103515625</ele>
        <time>2025-09-06T10:33:35.000Z</time>
        <extensions>
          <ns3:TrackPointExtension>
            <ns3:hr>152</ns3:hr>
            <ns3:cad>81</ns3:cad>
          </ns3:TrackPointExtension>
        </extensions>
      </trkpt>
      <trkpt lat="52.161961086094379425048828125" lon="1.47618114016950130462646484375">
        <ele>-195.1999969482421875</ele>
        <time>2025-09-06T10:33:40.000Z</time>
        <extensions>
          <ns3:TrackPointExtension>
            <ns3:hr>150</ns3:hr>
            <ns3:cad>81</ns3:cad>
          </ns3:TrackPointExtension>
        </extensions>
      </trkpt>
      <trkpt lat="52.1619739942252635955810546875" lon="1.47620712406933307647705078125">
        <ele>-195.1999969482421875</ele>
        <time>2025-09-06T10:33:41.000Z</time>
        <extensions>
          <ns3:TrackPointExtension>
            <ns3:hr>151</ns3:hr>
            <ns3:cad>81</ns3:cad>
          </ns3:TrackPointExtension>
        </extensions>
      </trkpt>
      <trkpt lat="52.161984555423259735107421875" lon="1.47623176686465740203857421875">
        <ele>-195</ele>
        <time>2025-09-06T10:33:42.000Z</time>
        <extensions>
          <ns3:TrackPointExtension>
            <ns3:hr>148</ns3:hr>
            <ns3:cad>81</ns3:cad>
          </ns3:TrackPointExtension>
        </extensions>
      </trkpt>
      <trkpt lat="52.1620024926960468292236328125" lon="1.47632539272308349609375">
        <ele>-194.8000030517578125</ele>
        <time>2025-09-06T10:33:45.000Z</time>
        <extensions>
          <ns3:TrackPointExtension>
            <ns3:hr>152</ns3:hr>
            <ns3:cad>82</ns3:cad>
          </ns3:TrackPointExtension>
        </extensions>
      </trkpt>
      <trkpt lat="52.16202420182526111602783203125" lon="1.47646025754511356353759765625">
        <ele>-194.1999969482421875</ele>
        <time>2025-09-06T10:33:49.000Z</time>
        <extensions>
          <ns3:TrackPointExtension>
            <ns3:hr>151</ns3:hr>
            <ns3:cad>82</ns3:cad>
          </ns3:TrackPointExtension>
        </extensions>
      </trkpt>
      <trkpt lat="52.16202554292976856231689453125" lon="1.4765146560966968536376953125">
        <ele>-194.1999969482421875</ele>
        <time>2025-09-06T10:33:50.000Z</time>
        <extensions>
          <ns3:TrackPointExtension>
            <ns3:hr>151</ns3:hr>
            <ns3:cad>82</ns3:cad>
          </ns3:TrackPointExtension>
        </extensions>
      </trkpt>
      <trkpt lat="52.16203828342258930206298828125" lon="1.4768227748572826385498046875">
        <ele>-193.1999969482421875</ele>
        <time>2025-09-06T10:33:57.000Z</time>
        <extensions>
          <ns3:TrackPointExtension>
            <ns3:hr>152</ns3:hr>
            <ns3:cad>82</ns3:cad>
          </ns3:TrackPointExtension>
        </extensions>
      </trkpt>
      <trkpt lat="52.16204616241157054901123046875" lon="1.4768516086041927337646484375">
        <ele>-193</ele>
        <time>2025-09-06T10:33:58.000Z</time>
        <extensions>
          <ns3:TrackPointExtension>
            <ns3:hr>153</ns3:hr>
            <ns3:cad>82</ns3:cad>
          </ns3:TrackPointExtension>
        </extensions>
      </trkpt>
      <trkpt lat="52.16206745244562625885009765625" lon="1.4769324101507663726806640625">
        <ele>-192.600006103515625</ele>
        <time>2025-09-06T10:34:01.000Z</time>
        <extensions>
          <ns3:TrackPointExtension>
            <ns3:hr>150</ns3:hr>
            <ns3:cad>82</ns3:cad>
          </ns3:TrackPointExtension>
        </extensions>
      </trkpt>
      <trkpt lat="52.16209393925964832305908203125" lon="1.47708437405526638031005859375">
        <ele>-192</ele>
        <time>2025-09-06T10:34:05.000Z</time>
        <extensions>
          <ns3:TrackPointExtension>
            <ns3:hr>151</ns3:hr>
            <ns3:cad>81</ns3:cad>
          </ns3:TrackPointExtension>
        </extensions>
      </trkpt>
      <trkpt lat="52.16210634447634220123291015625" lon="1.47740188054740428924560546875">
        <ele>-191.1999969482421875</ele>
        <time>2025-09-06T10:34:11.000Z</time>
        <extensions>
          <ns3:TrackPointExtension>
            <ns3:hr>150</ns3:hr>
            <ns3:cad>81</ns3:cad>
          </ns3:TrackPointExtension>
        </extensions>
      </trkpt>
      <trkpt lat="52.1621104516088962554931640625" lon="1.47743674926459789276123046875">
        <ele>-191</ele>
        <time>2025-09-06T10:34:12.000Z</time>
        <extensions>
          <ns3:TrackPointExtension>
            <ns3:hr>150</ns3:hr>
            <ns3:cad>81</ns3:cad>
          </ns3:TrackPointExtension>
        </extensions>
      </trkpt>
      <trkpt lat="52.1621136367321014404296875" lon="1.47747564129531383514404296875">
        <ele>-190.8000030517578125</ele>
        <time>2025-09-06T10:34:13.000Z</time>
        <extensions>
          <ns3:TrackPointExtension>
            <ns3:hr>151</ns3:hr>
            <ns3:cad>81</ns3:cad>
          </ns3:TrackPointExtension>
        </extensions>
      </trkpt>
      <trkpt lat="52.1621216833591461181640625" lon="1.47753749974071979522705078125">
        <ele>-190.600006103515625</ele>
        <time>2025-09-06T10:34:15.000Z</time>
        <extensions>
          <ns3:TrackPointExtension>
            <ns3:hr>154</ns3:hr>
            <ns3:cad>82</ns3:cad>
          </ns3:TrackPointExtension>
        </extensions>
      </trkpt>
      <trkpt lat="52.162133418023586273193359375" lon="1.4775979332625865936279296875">
        <ele>-190.1999969482421875</ele>
        <time>2025-09-06T10:34:17.000Z</time>
        <extensions>
          <ns3:TrackPointExtension>
            <ns3:hr>151</ns3:hr>
            <ns3:cad>82</ns3:cad>
          </ns3:TrackPointExtension>
        </extensions>
      </trkpt>
      <trkpt lat="52.16214976273477077484130859375" lon="1.47766473703086376190185546875">
        <ele>-190</ele>
        <time>2025-09-06T10:34:19.000Z</time>
        <extensions>
          <ns3:TrackPointExtension>
            <ns3:hr>152</ns3:hr>
            <ns3:cad>82</ns3:cad>
          </ns3:TrackPointExtension>
        </extensions>
      </trkpt>
      <trkpt lat="52.1621645987033843994140625" lon="1.47772676311433315277099609375">
        <ele>-189.600006103515625</ele>
        <time>2025-09-06T10:34:21.000Z</time>
        <extensions>
          <ns3:TrackPointExtension>
            <ns3:hr>152</ns3:hr>
            <ns3:cad>82</ns3:cad>
          </ns3:TrackPointExtension>
        </extensions>
      </trkpt>
      <trkpt lat="52.1622048318386077880859375" lon="1.47791393101215362548828125">
        <ele>-188.8000030517578125</ele>
        <time>2025-09-06T10:34:27.000Z</time>
        <extensions>
          <ns3:TrackPointExtension>
            <ns3:hr>154</ns3:hr>
            <ns3:cad>82</ns3:cad>
          </ns3:TrackPointExtension>
        </extensions>
      </trkpt>
      <trkpt lat="52.1622298099100589752197265625" lon="1.47805198095738887786865234375">
        <ele>-188.399993896484375</ele>
        <time>2025-09-06T10:34:31.000Z</time>
        <extensions>
          <ns3:TrackPointExtension>
            <ns3:hr>153</ns3:hr>
            <ns3:cad>82</ns3:cad>
          </ns3:TrackPointExtension>
        </extensions>
      </trkpt>
      <trkpt lat="52.16229611076414585113525390625" lon="1.47820570506155490875244140625">
        <ele>-187.8000030517578125</ele>
        <time>2025-09-06T10:34:36.000Z</time>
        <extensions>
          <ns3:TrackPointExtension>
            <ns3:hr>152</ns3:hr>
            <ns3:cad>81</ns3:cad>
          </ns3:TrackPointExtension>
        </extensions>
      </trkpt>
      <trkpt lat="52.16231103055179119110107421875" lon="1.478467471897602081298828125">
        <ele>-187.1999969482421875</ele>
        <time>2025-09-06T10:34:41.000Z</time>
        <extensions>
          <ns3:TrackPointExtension>
            <ns3:hr>152</ns3:hr>
            <ns3:cad>81</ns3:cad>
          </ns3:TrackPointExtension>
        </extensions>
      </trkpt>
      <trkpt lat="52.1623186580836772918701171875" lon="1.47866251878440380096435546875">
        <ele>-186.600006103515625</ele>
        <time>2025-09-06T10:34:45.000Z</time>
        <extensions>
          <ns3:TrackPointExtension>
            <ns3:hr>152</ns3:hr>
            <ns3:cad>81</ns3:cad>
          </ns3:TrackPointExtension>
        </extensions>
      </trkpt>
      <trkpt lat="52.16234321705996990203857421875" lon="1.47885178215801715850830078125">
        <ele>-185.8000030517578125</ele>
        <time>2025-09-06T10:34:50.000Z</time>
        <extensions>
          <ns3:TrackPointExtension>
            <ns3:hr>154</ns3:hr>
            <ns3:cad>82</ns3:cad>
          </ns3:TrackPointExtension>
        </extensions>
      </trkpt>
      <trkpt lat="52.16234975494444370269775390625" lon="1.47892839275300502777099609375">
        <ele>-185.600006103515625</ele>
        <time>2025-09-06T10:34:52.000Z</time>
        <extensions>
          <ns3:TrackPointExtension>
            <ns3:hr>154</ns3:hr>
            <ns3:cad>81</ns3:cad>
          </ns3:TrackPointExtension>
        </extensions>
      </trkpt>
      <trkpt lat="52.162352018058300018310546875" lon="1.47906132973730564117431640625">
        <ele>-185</ele>
        <time>2025-09-06T10:34:56.000Z</time>
        <extensions>
          <ns3:TrackPointExtension>
            <ns3:hr>153</ns3:hr>
            <ns3:cad>80</ns3:cad>
          </ns3:TrackPointExtension>
        </extensions>
      </trkpt>
      <trkpt lat="52.1623572148382663726806640625" lon="1.47916157729923725128173828125">
        <ele>-184.600006103515625</ele>
        <time>2025-09-06T10:34:59.000Z</time>
        <extensions>
          <ns3:TrackPointExtension>
            <ns3:hr>154</ns3:hr>
            <ns3:cad>80</ns3:cad>
          </ns3:TrackPointExtension>
        </extensions>
      </trkpt>
      <trkpt lat="52.1623860485851764678955078125" lon="1.47939895279705524444580078125">
        <ele>-183.600006103515625</ele>
        <time>2025-09-06T10:35:05.000Z</time>
        <extensions>
          <ns3:TrackPointExtension>
            <ns3:hr>151</ns3:hr>
            <ns3:cad>80</ns3:cad>
          </ns3:TrackPointExtension>
        </extensions>
      </trkpt>
      <trkpt lat="52.162394262850284576416015625" lon="1.4794396050274372100830078125">
        <ele>-183.399993896484375</ele>
        <time>2025-09-06T10:35:06.000Z</time>
        <extensions>
          <ns3:TrackPointExtension>
            <ns3:hr>151</ns3:hr>
            <ns3:cad>80</ns3:cad>
          </ns3:TrackPointExtension>
        </extensions>
      </trkpt>
      <trkpt lat="52.1623484976589679718017578125" lon="1.4796015433967113494873046875">
        <ele>-182.600006103515625</ele>
        <time>2025-09-06T10:35:10.000Z</time>
        <extensions>
          <ns3:TrackPointExtension>
            <ns3:hr>149</ns3:hr>
            <ns3:cad>80</ns3:cad>
          </ns3:TrackPointExtension>
        </extensions>
      </trkpt>
      <trkpt lat="52.1622933447360992431640625" lon="1.47974789142608642578125">
        <ele>-181.600006103515625</ele>
        <time>2025-09-06T10:35:14.000Z</time>
        <extensions>
          <ns3:TrackPointExtension>
            <ns3:hr>148</ns3:hr>
            <ns3:cad>81</ns3:cad>
          </ns3:TrackPointExtension>
        </extensions>
      </trkpt>
      <trkpt lat="52.16229267418384552001953125" lon="1.4797832630574703216552734375">
        <ele>-181.399993896484375</ele>
        <time>2025-09-06T10:35:15.000Z</time>
        <extensions>
          <ns3:TrackPointExtension>
            <ns3:hr>148</ns3:hr>
            <ns3:cad>82</ns3:cad>
          </ns3:TrackPointExtension>
        </extensions>
      </trkpt>
      <trkpt lat="52.162290997803211212158203125" lon="1.479844115674495697021484375">
        <ele>-181</ele>
        <time>2025-09-06T10:35:17.000Z</time>
        <extensions>
          <ns3:TrackPointExtension>
            <ns3:hr>145</ns3:hr>
            <ns3:cad>82</ns3:cad>
          </ns3:TrackPointExtension>
        </extensions>
      </trkpt>
      <trkpt lat="52.1622955240309238433837890625" lon="1.47996288724243640899658203125">
        <ele>-180.399993896484375</ele>
        <time>2025-09-06T10:35:21.000Z</time>
        <extensions>
          <ns3:TrackPointExtension>
            <ns3:hr>146</ns3:hr>
            <ns3:cad>82</ns3:cad>
          </ns3:TrackPointExtension>
        </extensions>
      </trkpt>
      <trkpt lat="52.16230214573442935943603515625" lon="1.479989625513553619384765625">
        <ele>-180.1999969482421875</ele>
        <time>2025-09-06T10:35:22.000Z</time>
        <extensions>
          <ns3:TrackPointExtension>
            <ns3:hr>147</ns3:hr>
            <ns3:cad>82</ns3:cad>
          </ns3:TrackPointExtension>
        </extensions>
      </trkpt>
      <trkpt lat="52.16232913546264171600341796875" lon="1.48014343343675136566162109375">
        <ele>-179.1999969482421875</ele>
        <time>2025-09-06T10:35:27.000Z</time>
        <extensions>
          <ns3:TrackPointExtension>
            <ns3:hr>148</ns3:hr>
            <ns3:cad>83</ns3:cad>
          </ns3:TrackPointExtension>
        </extensions>
      </trkpt>
      <trkpt lat="52.16235746629536151885986328125" lon="1.48026748560369014739990234375">
        <ele>-178.600006103515625</ele>
        <time>2025-09-06T10:35:31.000Z</time>
        <extensions>
          <ns3:TrackPointExtension>
            <ns3:hr>147</ns3:hr>
            <ns3:cad>82</ns3:cad>
          </ns3:TrackPointExtension>
        </extensions>
      </trkpt>
      <trkpt lat="52.16237716376781463623046875" lon="1.48037016391754150390625">
        <ele>-178.1999969482421875</ele>
        <time>2025-09-06T10:35:34.000Z</time>
        <extensions>
          <ns3:TrackPointExtension>
            <ns3:hr>146</ns3:hr>
            <ns3:cad>80</ns3:cad>
          </ns3:TrackPointExtension>
        </extensions>
      </trkpt>
      <trkpt lat="52.16240842826664447784423828125" lon="1.48050016723573207855224609375">
        <ele>-177.399993896484375</ele>
        <time>2025-09-06T10:35:38.000Z</time>
        <extensions>
          <ns3:TrackPointExtension>
            <ns3:hr>142</ns3:hr>
            <ns3:cad>79</ns3:cad>
          </ns3:TrackPointExtension>
        </extensions>
      </trkpt>
      <trkpt lat="52.162428796291351318359375" lon="1.48056621663272380828857421875">
        <ele>-177.1999969482421875</ele>
        <time>2025-09-06T10:35:40.000Z</time>
        <extensions>
          <ns3:TrackPointExtension>
            <ns3:hr>143</ns3:hr>
            <ns3:cad>80</ns3:cad>
          </ns3:TrackPointExtension>
        </extensions>
      </trkpt>
      <trkpt lat="52.16244396753609180450439453125" lon="1.48060016334056854248046875">
        <ele>-177</ele>
        <time>2025-09-06T10:35:41.000Z</time>
        <extensions>
          <ns3:TrackPointExtension>
            <ns3:hr>143</ns3:hr>
            <ns3:cad>80</ns3:cad>
          </ns3:TrackPointExtension>
        </extensions>
      </trkpt>
      <trkpt lat="52.16247774660587310791015625" lon="1.48071072064340114593505859375">
        <ele>-176.399993896484375</ele>
        <time>2025-09-06T10:35:44.000Z</time>
        <extensions>
          <ns3:TrackPointExtension>
            <ns3:hr>146</ns3:hr>
            <ns3:cad>80</ns3:cad>
          </ns3:TrackPointExtension>
        </extensions>
      </trkpt>
      <trkpt lat="52.16250498779118061065673828125" lon="1.48082756437361240386962890625">
        <ele>-175.8000030517578125</ele>
        <time>2025-09-06T10:35:47.000Z</time>
        <extensions>
          <ns3:TrackPointExtension>
            <ns3:hr>146</ns3:hr>
            <ns3:cad>81</ns3:cad>
          </ns3:TrackPointExtension>
        </extensions>
      </trkpt>
      <trkpt lat="52.16251395642757415771484375" lon="1.48086427710950374603271484375">
        <ele>-175.600006103515625</ele>
        <time>2025-09-06T10:35:48.000Z</time>
        <extensions>
          <ns3:TrackPointExtension>
            <ns3:hr>146</ns3:hr>
            <ns3:cad>81</ns3:cad>
          </ns3:TrackPointExtension>
        </extensions>
      </trkpt>
      <trkpt lat="52.16253449209034442901611328125" lon="1.48097961209714412689208984375">
        <ele>-174.8000030517578125</ele>
        <time>2025-09-06T10:35:51.000Z</time>
        <extensions>
          <ns3:TrackPointExtension>
            <ns3:hr>146</ns3:hr>
            <ns3:cad>81</ns3:cad>
          </ns3:TrackPointExtension>
        </extensions>
      </trkpt>
      <trkpt lat="52.1625650860369205474853515625" lon="1.48113258183002471923828125">
        <ele>-173.8000030517578125</ele>
        <time>2025-09-06T10:35:55.000Z</time>
        <extensions>
          <ns3:TrackPointExtension>
            <ns3:hr>145</ns3:hr>
            <ns3:cad>81</ns3:cad>
          </ns3:TrackPointExtension>
        </extensions>
      </trkpt>
      <trkpt lat="52.16257254593074321746826171875" lon="1.48116879165172576904296875">
        <ele>-173.399993896484375</ele>
        <time>2025-09-06T10:35:56.000Z</time>
        <extensions>
          <ns3:TrackPointExtension>
            <ns3:hr>145</ns3:hr>
            <ns3:cad>81</ns3:cad>
          </ns3:TrackPointExtension>
        </extensions>
      </trkpt>
      <trkpt lat="52.16258830390870571136474609375" lon="1.48128069005906581878662109375">
        <ele>-172.600006103515625</ele>
        <time>2025-09-06T10:35:59.000Z</time>
        <extensions>
          <ns3:TrackPointExtension>
            <ns3:hr>145</ns3:hr>
            <ns3:cad>80</ns3:cad>
          </ns3:TrackPointExtension>
        </extensions>
      </trkpt>
      <trkpt lat="52.16261160559952259063720703125" lon="1.481423936784267425537109375">
        <ele>-171.600006103515625</ele>
        <time>2025-09-06T10:36:03.000Z</time>
        <extensions>
          <ns3:TrackPointExtension>
            <ns3:hr>146</ns3:hr>
            <ns3:cad>80</ns3:cad>
          </ns3:TrackPointExtension>
        </extensions>
      </trkpt>
      <trkpt lat="52.1626177243888378143310546875" lon="1.48153281770646572113037109375">
        <ele>-170.8000030517578125</ele>
        <time>2025-09-06T10:36:06.000Z</time>
        <extensions>
          <ns3:TrackPointExtension>
            <ns3:hr>146</ns3:hr>
            <ns3:cad>81</ns3:cad>
          </ns3:TrackPointExtension>
        </extensions>
      </trkpt>
      <trkpt lat="52.162622250616550445556640625" lon="1.48157087154686450958251953125">
        <ele>-170.600006103515625</ele>
        <time>2025-09-06T10:36:07.000Z</time>
        <extensions>
          <ns3:TrackPointExtension>
            <ns3:hr>148</ns3:hr>
            <ns3:cad>81</ns3:cad>
          </ns3:TrackPointExtension>
        </extensions>
      </trkpt>
      <trkpt lat="52.1626244299113750457763671875" lon="1.4817650802433490753173828125">
        <ele>-169.399993896484375</ele>
        <time>2025-09-06T10:36:12.000Z</time>
        <extensions>
          <ns3:TrackPointExtension>
            <ns3:hr>149</ns3:hr>
            <ns3:cad>81</ns3:cad>
          </ns3:TrackPointExtension>
        </extensions>
      </trkpt>
      <trkpt lat="52.162624932825565338134765625" lon="1.48180070333182811737060546875">
        <ele>-169.1999969482421875</ele>
        <time>2025-09-06T10:36:13.000Z</time>
        <extensions>
          <ns3:TrackPointExtension>
            <ns3:hr>148</ns3:hr>
            <ns3:cad>81</ns3:cad>
          </ns3:TrackPointExtension>
        </extensions>
      </trkpt>
      <trkpt lat="52.16260674409568309783935546875" lon="1.4819695986807346343994140625">
        <ele>-168.1999969482421875</ele>
        <time>2025-09-06T10:36:18.000Z</time>
        <extensions>
          <ns3:TrackPointExtension>
            <ns3:hr>150</ns3:hr>
            <ns3:cad>81</ns3:cad>
          </ns3:TrackPointExtension>
        </extensions>
      </trkpt>
      <trkpt lat="52.16259769164025783538818359375" lon="1.482039503753185272216796875">
        <ele>-167.8000030517578125</ele>
        <time>2025-09-06T10:36:20.000Z</time>
        <extensions>
          <ns3:TrackPointExtension>
            <ns3:hr>149</ns3:hr>
            <ns3:cad>82</ns3:cad>
          </ns3:TrackPointExtension>
        </extensions>
      </trkpt>
      <trkpt lat="52.16257162392139434814453125" lon="1.4821868576109409332275390625">
        <ele>-167.1999969482421875</ele>
        <time>2025-09-06T10:36:24.000Z</time>
        <extensions>
          <ns3:TrackPointExtension>
            <ns3:hr>151</ns3:hr>
            <ns3:cad>82</ns3:cad>
          </ns3:TrackPointExtension>
        </extensions>
      </trkpt>
      <trkpt lat="52.16255645267665386199951171875" lon="1.482298336923122406005859375">
        <ele>-166.600006103515625</ele>
        <time>2025-09-06T10:36:27.000Z</time>
        <extensions>
          <ns3:TrackPointExtension>
            <ns3:hr>152</ns3:hr>
            <ns3:cad>83</ns3:cad>
          </ns3:TrackPointExtension>
        </extensions>
      </trkpt>
      <trkpt lat="52.16253030113875865936279296875" lon="1.48244728334248065948486328125">
        <ele>-166</ele>
        <time>2025-09-06T10:36:31.000Z</time>
        <extensions>
          <ns3:TrackPointExtension>
            <ns3:hr>153</ns3:hr>
            <ns3:cad>83</ns3:cad>
          </ns3:TrackPointExtension>
        </extensions>
      </trkpt>
      <trkpt lat="52.1625271998345851898193359375" lon="1.48248164914548397064208984375">
        <ele>-166</ele>
        <time>2025-09-06T10:36:32.000Z</time>
        <extensions>
          <ns3:TrackPointExtension>
            <ns3:hr>150</ns3:hr>
            <ns3:cad>83</ns3:cad>
          </ns3:TrackPointExtension>
        </extensions>
      </trkpt>
      <trkpt lat="52.162520326673984527587890625" lon="1.48253965191543102264404296875">
        <ele>-165.600006103515625</ele>
        <time>2025-09-06T10:36:34.000Z</time>
        <extensions>
          <ns3:TrackPointExtension>
            <ns3:hr>150</ns3:hr>
            <ns3:cad>83</ns3:cad>
          </ns3:TrackPointExtension>
        </extensions>
      </trkpt>
      <trkpt lat="52.1625101007521152496337890625" lon="1.48268398828804492950439453125">
        <ele>-165</ele>
        <time>2025-09-06T10:36:39.000Z</time>
        <extensions>
          <ns3:TrackPointExtension>
            <ns3:hr>150</ns3:hr>
            <ns3:cad>81</ns3:cad>
          </ns3:TrackPointExtension>
        </extensions>
      </trkpt>
      <trkpt lat="52.162478081881999969482421875" lon="1.48286000825464725494384765625">
        <ele>-164.600006103515625</ele>
        <time>2025-09-06T10:36:43.000Z</time>
        <extensions>
          <ns3:TrackPointExtension>
            <ns3:hr>147</ns3:hr>
            <ns3:cad>81</ns3:cad>
          </ns3:TrackPointExtension>
        </extensions>
      </trkpt>
      <trkpt lat="52.16245301999151706695556640625" lon="1.48309151642024517059326171875">
        <ele>-164</ele>
        <time>2025-09-06T10:36:49.000Z</time>
        <extensions>
          <ns3:TrackPointExtension>
            <ns3:hr>145</ns3:hr>
            <ns3:cad>81</ns3:cad>
          </ns3:TrackPointExtension>
        </extensions>
      </trkpt>
      <trkpt lat="52.16244262643158435821533203125" lon="1.4831690490245819091796875">
        <ele>-163.8000030517578125</ele>
        <time>2025-09-06T10:36:51.000Z</time>
        <extensions>
          <ns3:TrackPointExtension>
            <ns3:hr>147</ns3:hr>
            <ns3:cad>81</ns3:cad>
          </ns3:TrackPointExtension>
        </extensions>
      </trkpt>
      <trkpt lat="52.16241228394210338592529296875" lon="1.4833425544202327728271484375">
        <ele>-163.1999969482421875</ele>
        <time>2025-09-06T10:36:56.000Z</time>
        <extensions>
          <ns3:TrackPointExtension>
            <ns3:hr>144</ns3:hr>
            <ns3:cad>81</ns3:cad>
          </ns3:TrackPointExtension>
        </extensions>
      </trkpt>
      <trkpt lat="52.16239401139318943023681640625" lon="1.48342293687164783477783203125">
        <ele>-163</ele>
        <time>2025-09-06T10:36:58.000Z</time>
        <extensions>
          <ns3:TrackPointExtension>
            <ns3:hr>147</ns3:hr>
            <ns3:cad>81</ns3:cad>
          </ns3:TrackPointExtension>
        </extensions>
      </trkpt>
      <trkpt lat="52.16238655149936676025390625" lon="1.4834568835794925689697265625">
        <ele>-162.8000030517578125</ele>
        <time>2025-09-06T10:36:59.000Z</time>
        <extensions>
          <ns3:TrackPointExtension>
            <ns3:hr>147</ns3:hr>
            <ns3:cad>81</ns3:cad>
          </ns3:TrackPointExtension>
        </extensions>
      </trkpt>
      <trkpt lat="52.1623441390693187713623046875" lon="1.4836800098419189453125">
        <ele>-161.8000030517578125</ele>
        <time>2025-09-06T10:37:06.000Z</time>
        <extensions>
          <ns3:TrackPointExtension>
            <ns3:hr>148</ns3:hr>
            <ns3:cad>82</ns3:cad>
          </ns3:TrackPointExtension>
        </extensions>
      </trkpt>
      <trkpt lat="52.16232947073876857757568359375" lon="1.4837448857724666595458984375">
        <ele>-161.600006103515625</ele>
        <time>2025-09-06T10:37:08.000Z</time>
        <extensions>
          <ns3:TrackPointExtension>
            <ns3:hr>150</ns3:hr>
            <ns3:cad>82</ns3:cad>
          </ns3:TrackPointExtension>
        </extensions>
      </trkpt>
      <trkpt lat="52.1623085997998714447021484375" lon="1.483841277658939361572265625">
        <ele>-161.1999969482421875</ele>
        <time>2025-09-06T10:37:11.000Z</time>
        <extensions>
          <ns3:TrackPointExtension>
            <ns3:hr>147</ns3:hr>
            <ns3:cad>82</ns3:cad>
          </ns3:TrackPointExtension>
        </extensions>
      </trkpt>
      <trkpt lat="52.162301726639270782470703125" lon="1.4839316345751285552978515625">
        <ele>-161</ele>
        <time>2025-09-06T10:37:14.000Z</time>
        <extensions>
          <ns3:TrackPointExtension>
            <ns3:hr>149</ns3:hr>
            <ns3:cad>81</ns3:cad>
          </ns3:TrackPointExtension>
        </extensions>
      </trkpt>
      <trkpt lat="52.16229711659252643585205078125" lon="1.483965329825878143310546875">
        <ele>-160.8000030517578125</ele>
        <time>2025-09-06T10:37:15.000Z</time>
        <extensions>
          <ns3:TrackPointExtension>
            <ns3:hr>151</ns3:hr>
            <ns3:cad>81</ns3:cad>
          </ns3:TrackPointExtension>
        </extensions>
      </trkpt>
      <trkpt lat="52.16227197088301181793212890625" lon="1.484208069741725921630859375">
        <ele>-160</ele>
        <time>2025-09-06T10:37:22.000Z</time>
        <extensions>
          <ns3:TrackPointExtension>
            <ns3:hr>151</ns3:hr>
            <ns3:cad>83</ns3:cad>
          </ns3:TrackPointExtension>
        </extensions>
      </trkpt>
      <trkpt lat="52.16225788928568363189697265625" lon="1.484294235706329345703125">
        <ele>-159.8000030517578125</ele>
        <time>2025-09-06T10:37:24.000Z</time>
        <extensions>
          <ns3:TrackPointExtension>
            <ns3:hr>151</ns3:hr>
            <ns3:cad>40</ns3:cad>
          </ns3:TrackPointExtension>
        </extensions>
      </trkpt>
      <trkpt lat="52.16223324649035930633544921875" lon="1.48445139639079570770263671875">
        <ele>-159.1999969482421875</ele>
        <time>2025-09-06T10:37:29.000Z</time>
        <extensions>
          <ns3:TrackPointExtension>
            <ns3:hr>149</ns3:hr>
            <ns3:cad>0</ns3:cad>
          </ns3:TrackPointExtension>
        </extensions>
      </trkpt>
      <trkpt lat="52.16221681796014308929443359375" lon="1.48457092233002185821533203125">
        <ele>-159</ele>
        <time>2025-09-06T10:37:33.000Z</time>
        <extensions>
          <ns3:TrackPointExtension>
            <ns3:hr>154</ns3:hr>
            <ns3:cad>0</ns3:cad>
          </ns3:TrackPointExtension>
        </extensions>
      </trkpt>
      <trkpt lat="52.162210531532764434814453125" lon="1.484649963676929473876953125">
        <ele>-158.8000030517578125</ele>
        <time>2025-09-06T10:37:36.000Z</time>
        <extensions>
          <ns3:TrackPointExtension>
            <ns3:hr>154</ns3:hr>
            <ns3:cad>0</ns3:cad>
          </ns3:TrackPointExtension>
        </extensions>
      </trkpt>
      <trkpt lat="52.16220206581056118011474609375" lon="1.48472598753869533538818359375">
        <ele>-158.8000030517578125</ele>
        <time>2025-09-06T10:37:39.000Z</time>
        <extensions>
          <ns3:TrackPointExtension>
            <ns3:hr>150</ns3:hr>
            <ns3:cad>0</ns3:cad>
          </ns3:TrackPointExtension>
        </extensions>
      </trkpt>
      <trkpt lat="52.16219753958284854888916015625" lon="1.484814248979091644287109375">
        <ele>-159</ele>
        <time>2025-09-06T10:37:42.000Z</time>
        <extensions>
          <ns3:TrackPointExtension>
            <ns3:hr>147</ns3:hr>
            <ns3:cad>0</ns3:cad>
          </ns3:TrackPointExtension>
        </extensions>
      </trkpt>
      <trkpt lat="52.16219100169837474822998046875" lon="1.4848687313497066497802734375">
        <ele>-159</ele>
        <time>2025-09-06T10:37:44.000Z</time>
        <extensions>
          <ns3:TrackPointExtension>
            <ns3:hr>147</ns3:hr>
            <ns3:cad>0</ns3:cad>
          </ns3:TrackPointExtension>
        </extensions>
      </trkpt>
      <trkpt lat="52.16218831948935985565185546875" lon="1.485050618648529052734375">
        <ele>-159.399993896484375</ele>
        <time>2025-09-06T10:37:50.000Z</time>
        <extensions>
          <ns3:TrackPointExtension>
            <ns3:hr>144</ns3:hr>
            <ns3:cad>0</ns3:cad>
          </ns3:TrackPointExtension>
        </extensions>
      </trkpt>
      <trkpt lat="52.1621902473270893096923828125" lon="1.48508213460445404052734375">
        <ele>-159.600006103515625</ele>
        <time>2025-09-06T10:37:51.000Z</time>
        <extensions>
          <ns3:TrackPointExtension>
            <ns3:hr>146</ns3:hr>
            <ns3:cad>78</ns3:cad>
          </ns3:TrackPointExtension>
        </extensions>
      </trkpt>
      <trkpt lat="52.16222385875880718231201171875" lon="1.48536644876003265380859375">
        <ele>-160.8000030517578125</ele>
        <time>2025-09-06T10:38:00.000Z</time>
        <extensions>
          <ns3:TrackPointExtension>
            <ns3:hr>148</ns3:hr>
            <ns3:cad>81</ns3:cad>
          </ns3:TrackPointExtension>
        </extensions>
      </trkpt>
      <trkpt lat="52.162223272025585174560546875" lon="1.4853979647159576416015625">
        <ele>-161</ele>
        <time>2025-09-06T10:38:01.000Z</time>
        <extensions>
          <ns3:TrackPointExtension>
            <ns3:hr>149</ns3:hr>
            <ns3:cad>81</ns3:cad>
          </ns3:TrackPointExtension>
        </extensions>
      </trkpt>
      <trkpt lat="52.16223576106131076812744140625" lon="1.4855315722525119781494140625">
        <ele>-161.600006103515625</ele>
        <time>2025-09-06T10:38:05.000Z</time>
        <extensions>
          <ns3:TrackPointExtension>
            <ns3:hr>152</ns3:hr>
            <ns3:cad>81</ns3:cad>
          </ns3:TrackPointExtension>
        </extensions>
      </trkpt>
      <trkpt lat="52.16224213130772113800048828125" lon="1.485606171190738677978515625">
        <ele>-162.1999969482421875</ele>
        <time>2025-09-06T10:38:07.000Z</time>
        <extensions>
          <ns3:TrackPointExtension>
            <ns3:hr>153</ns3:hr>
            <ns3:cad>81</ns3:cad>
          </ns3:TrackPointExtension>
        </extensions>
      </trkpt>
      <trkpt lat="52.16224146075546741485595703125" lon="1.4857793413102626800537109375">
        <ele>-163.399993896484375</ele>
        <time>2025-09-06T10:38:12.000Z</time>
        <extensions>
          <ns3:TrackPointExtension>
            <ns3:hr>155</ns3:hr>
            <ns3:cad>81</ns3:cad>
          </ns3:TrackPointExtension>
        </extensions>
      </trkpt>
      <trkpt lat="52.16224950738251209259033203125" lon="1.48588503710925579071044921875">
        <ele>-164.1999969482421875</ele>
        <time>2025-09-06T10:38:16.000Z</time>
        <extensions>
          <ns3:TrackPointExtension>
            <ns3:hr>155</ns3:hr>
            <ns3:cad>80</ns3:cad>
          </ns3:TrackPointExtension>
        </extensions>
      </trkpt>
      <trkpt lat="52.16225244104862213134765625" lon="1.48591554723680019378662109375">
        <ele>-164.399993896484375</ele>
        <time>2025-09-06T10:38:17.000Z</time>
        <extensions>
          <ns3:TrackPointExtension>
            <ns3:hr>154</ns3:hr>
            <ns3:cad>80</ns3:cad>
          </ns3:TrackPointExtension>
        </extensions>
      </trkpt>
      <trkpt lat="52.1622593142092227935791015625" lon="1.48601688444614410400390625">
        <ele>-164.600006103515625</ele>
        <time>2025-09-06T10:38:20.000Z</time>
        <extensions>
          <ns3:TrackPointExtension>
            <ns3:hr>157</ns3:hr>
            <ns3:cad>80</ns3:cad>
          </ns3:TrackPointExtension>
        </extensions>
      </trkpt>
      <trkpt lat="52.16226451098918914794921875" lon="1.48610598407685756683349609375">
        <ele>-164.600006103515625</ele>
        <time>2025-09-06T10:38:22.000Z</time>
        <extensions>
          <ns3:TrackPointExtension>
            <ns3:hr>154</ns3:hr>
            <ns3:cad>80</ns3:cad>
          </ns3:TrackPointExtension>
        </extensions>
      </trkpt>
      <trkpt lat="52.1622640080749988555908203125" lon="1.48619885556399822235107421875">
        <ele>-164.8000030517578125</ele>
        <time>2025-09-06T10:38:24.000Z</time>
        <extensions>
          <ns3:TrackPointExtension>
            <ns3:hr>155</ns3:hr>
            <ns3:cad>81</ns3:cad>
          </ns3:TrackPointExtension>
        </extensions>
      </trkpt>
      <trkpt lat="52.1622666902840137481689453125" lon="1.48629105649888515472412109375">
        <ele>-164.8000030517578125</ele>
        <time>2025-09-06T10:38:26.000Z</time>
        <extensions>
          <ns3:TrackPointExtension>
            <ns3:hr>158</ns3:hr>
            <ns3:cad>80</ns3:cad>
          </ns3:TrackPointExtension>
        </extensions>
      </trkpt>
      <trkpt lat="52.16227096505463123321533203125" lon="1.486371941864490509033203125">
        <ele>-164.8000030517578125</ele>
        <time>2025-09-06T10:38:28.000Z</time>
        <extensions>
          <ns3:TrackPointExtension>
            <ns3:hr>155</ns3:hr>
            <ns3:cad>81</ns3:cad>
          </ns3:TrackPointExtension>
        </extensions>
      </trkpt>
      <trkpt lat="52.16226987540721893310546875" lon="1.486410163342952728271484375">
        <ele>-164.8000030517578125</ele>
        <time>2025-09-06T10:38:29.000Z</time>
        <extensions>
          <ns3:TrackPointExtension>
            <ns3:hr>158</ns3:hr>
            <ns3:cad>81</ns3:cad>
          </ns3:TrackPointExtension>
        </extensions>
      </trkpt>
      <trkpt lat="52.16227180324494838714599609375" lon="1.48649029433727264404296875">
        <ele>-165</ele>
        <time>2025-09-06T10:38:31.000Z</time>
        <extensions>
          <ns3:TrackPointExtension>
            <ns3:hr>159</ns3:hr>
            <ns3:cad>81</ns3:cad>
          </ns3:TrackPointExtension>
        </extensions>
      </trkpt>
      <trkpt lat="52.16226853430271148681640625" lon="1.48661459796130657196044921875">
        <ele>-165.399993896484375</ele>
        <time>2025-09-06T10:38:34.000Z</time>
        <extensions>
          <ns3:TrackPointExtension>
            <ns3:hr>159</ns3:hr>
            <ns3:cad>81</ns3:cad>
          </ns3:TrackPointExtension>
        </extensions>
      </trkpt>
      <trkpt lat="52.16225168667733669281005859375" lon="1.486780978739261627197265625">
        <ele>-166</ele>
        <time>2025-09-06T10:38:39.000Z</time>
        <extensions>
          <ns3:TrackPointExtension>
            <ns3:hr>159</ns3:hr>
            <ns3:cad>81</ns3:cad>
          </ns3:TrackPointExtension>
        </extensions>
      </trkpt>
      <trkpt lat="52.16224565170705318450927734375" lon="1.48685264401137828826904296875">
        <ele>-166.399993896484375</ele>
        <time>2025-09-06T10:38:41.000Z</time>
        <extensions>
          <ns3:TrackPointExtension>
            <ns3:hr>159</ns3:hr>
            <ns3:cad>81</ns3:cad>
          </ns3:TrackPointExtension>
        </extensions>
      </trkpt>
      <trkpt lat="52.1622056700289249420166015625" lon="1.48702329955995082855224609375">
        <ele>-167.1999969482421875</ele>
        <time>2025-09-06T10:38:46.000Z</time>
        <extensions>
          <ns3:TrackPointExtension>
            <ns3:hr>160</ns3:hr>
            <ns3:cad>81</ns3:cad>
          </ns3:TrackPointExtension>
        </extensions>
      </trkpt>
      <trkpt lat="52.1621982939541339874267578125" lon="1.487058587372303009033203125">
        <ele>-167.399993896484375</ele>
        <time>2025-09-06T10:38:47.000Z</time>
        <extensions>
          <ns3:TrackPointExtension>
            <ns3:hr>160</ns3:hr>
            <ns3:cad>81</ns3:cad>
          </ns3:TrackPointExtension>
        </extensions>
      </trkpt>
      <trkpt lat="52.162150852382183074951171875" lon="1.48723904974758625030517578125">
        <ele>-168.600006103515625</ele>
        <time>2025-09-06T10:38:53.000Z</time>
        <extensions>
          <ns3:TrackPointExtension>
            <ns3:hr>161</ns3:hr>
            <ns3:cad>82</ns3:cad>
          </ns3:TrackPointExtension>
        </extensions>
      </trkpt>
      <trkpt lat="52.162147499620914459228515625" lon="1.4872696436941623687744140625">
        <ele>-168.8000030517578125</ele>
        <time>2025-09-06T10:38:54.000Z</time>
        <extensions>
          <ns3:TrackPointExtension>
            <ns3:hr>159</ns3:hr>
            <ns3:cad>81</ns3:cad>
          </ns3:TrackPointExtension>
        </extensions>
      </trkpt>
      <trkpt lat="52.16211372055113315582275390625" lon="1.48740434087812900543212890625">
        <ele>-169.8000030517578125</ele>
        <time>2025-09-06T10:38:58.000Z</time>
        <extensions>
          <ns3:TrackPointExtension>
            <ns3:hr>160</ns3:hr>
            <ns3:cad>80</ns3:cad>
          </ns3:TrackPointExtension>
        </extensions>
      </trkpt>
      <trkpt lat="52.1621091105043888092041015625" lon="1.48743501864373683929443359375">
        <ele>-170</ele>
        <time>2025-09-06T10:38:59.000Z</time>
        <extensions>
          <ns3:TrackPointExtension>
            <ns3:hr>156</ns3:hr>
            <ns3:cad>80</ns3:cad>
          </ns3:TrackPointExtension>
        </extensions>
      </trkpt>
      <trkpt lat="52.16209075413644313812255859375" lon="1.48755915462970733642578125">
        <ele>-171</ele>
        <time>2025-09-06T10:39:03.000Z</time>
        <extensions>
          <ns3:TrackPointExtension>
            <ns3:hr>157</ns3:hr>
            <ns3:cad>82</ns3:cad>
          </ns3:TrackPointExtension>
        </extensions>
      </trkpt>
      <trkpt lat="52.1620558016002178192138671875" lon="1.48773693479597568511962890625">
        <ele>-172</ele>
        <time>2025-09-06T10:39:08.000Z</time>
        <extensions>
          <ns3:TrackPointExtension>
            <ns3:hr>158</ns3:hr>
            <ns3:cad>82</ns3:cad>
          </ns3:TrackPointExtension>
        </extensions>
      </trkpt>
      <trkpt lat="52.1620480902493000030517578125" lon="1.4878818579018115997314453125">
        <ele>-173</ele>
        <time>2025-09-06T10:39:12.000Z</time>
        <extensions>
          <ns3:TrackPointExtension>
            <ns3:hr>157</ns3:hr>
            <ns3:cad>83</ns3:cad>
          </ns3:TrackPointExtension>
        </extensions>
      </trkpt>
      <trkpt lat="52.1620531193912029266357421875" lon="1.4879267849028110504150390625">
        <ele>-173.399993896484375</ele>
        <time>2025-09-06T10:39:13.000Z</time>
        <extensions>
          <ns3:TrackPointExtension>
            <ns3:hr>157</ns3:hr>
            <ns3:cad>82</ns3:cad>
          </ns3:TrackPointExtension>
        </extensions>
      </trkpt>
      <trkpt lat="52.16204951517283916473388671875" lon="1.48802376352250576019287109375">
        <ele>-174.1999969482421875</ele>
        <time>2025-09-06T10:39:16.000Z</time>
        <extensions>
          <ns3:TrackPointExtension>
            <ns3:hr>160</ns3:hr>
            <ns3:cad>82</ns3:cad>
          </ns3:TrackPointExtension>
        </extensions>
      </trkpt>
      <trkpt lat="52.162050269544124603271484375" lon="1.48805310018360614776611328125">
        <ele>-174.399993896484375</ele>
        <time>2025-09-06T10:39:17.000Z</time>
        <extensions>
          <ns3:TrackPointExtension>
            <ns3:hr>158</ns3:hr>
            <ns3:cad>82</ns3:cad>
          </ns3:TrackPointExtension>
        </extensions>
      </trkpt>
      <trkpt lat="52.16205571778118610382080078125" lon="1.4881162159144878387451171875">
        <ele>-175</ele>
        <time>2025-09-06T10:39:19.000Z</time>
        <extensions>
          <ns3:TrackPointExtension>
            <ns3:hr>158</ns3:hr>
            <ns3:cad>81</ns3:cad>
          </ns3:TrackPointExtension>
        </extensions>
      </trkpt>
      <trkpt lat="52.162058986723423004150390625" lon="1.488200537860393524169921875">
        <ele>-175.600006103515625</ele>
        <time>2025-09-06T10:39:21.000Z</time>
        <extensions>
          <ns3:TrackPointExtension>
            <ns3:hr>158</ns3:hr>
            <ns3:cad>81</ns3:cad>
          </ns3:TrackPointExtension>
        </extensions>
      </trkpt>
      <trkpt lat="52.16205672360956668853759765625" lon="1.48836725391447544097900390625">
        <ele>-176.600006103515625</ele>
        <time>2025-09-06T10:39:25.000Z</time>
        <extensions>
          <ns3:TrackPointExtension>
            <ns3:hr>157</ns3:hr>
            <ns3:cad>81</ns3:cad>
          </ns3:TrackPointExtension>
        </extensions>
      </trkpt>
      <trkpt lat="52.16205068863928318023681640625" lon="1.48845777846872806549072265625">
        <ele>-177</ele>
        <time>2025-09-06T10:39:27.000Z</time>
        <extensions>
          <ns3:TrackPointExtension>
            <ns3:hr>158</ns3:hr>
            <ns3:cad>81</ns3:cad>
          </ns3:TrackPointExtension>
        </extensions>
      </trkpt>
      <trkpt lat="52.162039540708065032958984375" lon="1.48857227526605129241943359375">
        <ele>-177.8000030517578125</ele>
        <time>2025-09-06T10:39:30.000Z</time>
        <extensions>
          <ns3:TrackPointExtension>
            <ns3:hr>157</ns3:hr>
            <ns3:cad>81</ns3:cad>
          </ns3:TrackPointExtension>
        </extensions>
      </trkpt>
      <trkpt lat="52.16202151961624622344970703125" lon="1.4887240715324878692626953125">
        <ele>-178.8000030517578125</ele>
        <time>2025-09-06T10:39:34.000Z</time>
        <extensions>
          <ns3:TrackPointExtension>
            <ns3:hr>157</ns3:hr>
            <ns3:cad>81</ns3:cad>
          </ns3:TrackPointExtension>
        </extensions>
      </trkpt>
      <trkpt lat="52.16202068142592906951904296875" lon="1.48879406042397022247314453125">
        <ele>-179.399993896484375</ele>
        <time>2025-09-06T10:39:36.000Z</time>
        <extensions>
          <ns3:TrackPointExtension>
            <ns3:hr>158</ns3:hr>
            <ns3:cad>81</ns3:cad>
          </ns3:TrackPointExtension>
        </extensions>
      </trkpt>
      <trkpt lat="52.1620197594165802001953125" lon="1.4888618700206279754638671875">
        <ele>-179.8000030517578125</ele>
        <time>2025-09-06T10:39:38.000Z</time>
        <extensions>
          <ns3:TrackPointExtension>
            <ns3:hr>157</ns3:hr>
            <ns3:cad>81</ns3:cad>
          </ns3:TrackPointExtension>
        </extensions>
      </trkpt>
      <trkpt lat="52.16202981770038604736328125" lon="1.48899857886135578155517578125">
        <ele>-180.8000030517578125</ele>
        <time>2025-09-06T10:39:42.000Z</time>
        <extensions>
          <ns3:TrackPointExtension>
            <ns3:hr>156</ns3:hr>
            <ns3:cad>80</ns3:cad>
          </ns3:TrackPointExtension>
        </extensions>
      </trkpt>
      <trkpt lat="52.16203518211841583251953125" lon="1.48909580893814563751220703125">
        <ele>-181.600006103515625</ele>
        <time>2025-09-06T10:39:45.000Z</time>
        <extensions>
          <ns3:TrackPointExtension>
            <ns3:hr>154</ns3:hr>
            <ns3:cad>80</ns3:cad>
          </ns3:TrackPointExtension>
        </extensions>
      </trkpt>
      <trkpt lat="52.1620333380997180938720703125" lon="1.489126570522785186767578125">
        <ele>-181.8000030517578125</ele>
        <time>2025-09-06T10:39:46.000Z</time>
        <extensions>
          <ns3:TrackPointExtension>
            <ns3:hr>154</ns3:hr>
            <ns3:cad>80</ns3:cad>
          </ns3:TrackPointExtension>
        </extensions>
      </trkpt>
      <trkpt lat="52.16202587820589542388916015625" lon="1.48925942368805408477783203125">
        <ele>-182.8000030517578125</ele>
        <time>2025-09-06T10:39:50.000Z</time>
        <extensions>
          <ns3:TrackPointExtension>
            <ns3:hr>154</ns3:hr>
            <ns3:cad>80</ns3:cad>
          </ns3:TrackPointExtension>
        </extensions>
      </trkpt>
      <trkpt lat="52.16201632283627986907958984375" lon="1.48939018137753009796142578125">
        <ele>-184</ele>
        <time>2025-09-06T10:39:54.000Z</time>
        <extensions>
          <ns3:TrackPointExtension>
            <ns3:hr>153</ns3:hr>
            <ns3:cad>79</ns3:cad>
          </ns3:TrackPointExtension>
        </extensions>
      </trkpt>
      <trkpt lat="52.16202202253043651580810546875" lon="1.48952747695147991180419921875">
        <ele>-185</ele>
        <time>2025-09-06T10:39:58.000Z</time>
        <extensions>
          <ns3:TrackPointExtension>
            <ns3:hr>154</ns3:hr>
            <ns3:cad>79</ns3:cad>
          </ns3:TrackPointExtension>
        </extensions>
      </trkpt>
      <trkpt lat="52.16202621348202228546142578125" lon="1.48962789215147495269775390625">
        <ele>-185.8000030517578125</ele>
        <time>2025-09-06T10:40:01.000Z</time>
        <extensions>
          <ns3:TrackPointExtension>
            <ns3:hr>154</ns3:hr>
            <ns3:cad>79</ns3:cad>
          </ns3:TrackPointExtension>
        </extensions>
      </trkpt>
      <trkpt lat="52.162026129662990570068359375" lon="1.48969176225364208221435546875">
        <ele>-186.1999969482421875</ele>
        <time>2025-09-06T10:40:03.000Z</time>
        <extensions>
          <ns3:TrackPointExtension>
            <ns3:hr>154</ns3:hr>
            <ns3:cad>80</ns3:cad>
          </ns3:TrackPointExtension>
        </extensions>
      </trkpt>
      <trkpt lat="52.16205907054245471954345703125" lon="1.48988923989236354827880859375">
        <ele>-187.1999969482421875</ele>
        <time>2025-09-06T10:40:09.000Z</time>
        <extensions>
          <ns3:TrackPointExtension>
            <ns3:hr>154</ns3:hr>
            <ns3:cad>80</ns3:cad>
          </ns3:TrackPointExtension>
        </extensions>
      </trkpt>
      <trkpt lat="52.162108607590198516845703125" lon="1.49013801477849483489990234375">
        <ele>-188.1999969482421875</ele>
        <time>2025-09-06T10:40:16.000Z</time>
        <extensions>
          <ns3:TrackPointExtension>
            <ns3:hr>155</ns3:hr>
            <ns3:cad>81</ns3:cad>
          </ns3:TrackPointExtension>
        </extensions>
      </trkpt>
      <trkpt lat="52.162112630903720855712890625" lon="1.490177325904369354248046875">
        <ele>-188.399993896484375</ele>
        <time>2025-09-06T10:40:17.000Z</time>
        <extensions>
          <ns3:TrackPointExtension>
            <ns3:hr>155</ns3:hr>
            <ns3:cad>81</ns3:cad>
          </ns3:TrackPointExtension>
        </extensions>
      </trkpt>
      <trkpt lat="52.16212495230138301849365234375" lon="1.49026273749768733978271484375">
        <ele>-188.600006103515625</ele>
        <time>2025-09-06T10:40:19.000Z</time>
        <extensions>
          <ns3:TrackPointExtension>
            <ns3:hr>158</ns3:hr>
            <ns3:cad>79</ns3:cad>
          </ns3:TrackPointExtension>
        </extensions>
      </trkpt>
      <trkpt lat="52.16214339248836040496826171875" lon="1.49041243828833103179931640625">
        <ele>-189.1999969482421875</ele>
        <time>2025-09-06T10:40:23.000Z</time>
        <extensions>
          <ns3:TrackPointExtension>
            <ns3:hr>158</ns3:hr>
            <ns3:cad>79</ns3:cad>
          </ns3:TrackPointExtension>
        </extensions>
      </trkpt>
      <trkpt lat="52.1621485054492950439453125" lon="1.49044814519584178924560546875">
        <ele>-189.399993896484375</ele>
        <time>2025-09-06T10:40:24.000Z</time>
        <extensions>
          <ns3:TrackPointExtension>
            <ns3:hr>158</ns3:hr>
            <ns3:cad>79</ns3:cad>
          </ns3:TrackPointExtension>
        </extensions>
      </trkpt>
      <trkpt lat="52.16217205859720706939697265625" lon="1.4905781485140323638916015625">
        <ele>-190.1999969482421875</ele>
        <time>2025-09-06T10:40:29.000Z</time>
        <extensions>
          <ns3:TrackPointExtension>
            <ns3:hr>158</ns3:hr>
            <ns3:cad>79</ns3:cad>
          </ns3:TrackPointExtension>
        </extensions>
      </trkpt>
      <trkpt lat="52.162182033061981201171875" lon="1.49060840718448162078857421875">
        <ele>-190.600006103515625</ele>
        <time>2025-09-06T10:40:31.000Z</time>
        <extensions>
          <ns3:TrackPointExtension>
            <ns3:hr>157</ns3:hr>
            <ns3:cad>0</ns3:cad>
          </ns3:TrackPointExtension>
        </extensions>
      </trkpt>
      <trkpt lat="52.16219871304929256439208984375" lon="1.49064369499683380126953125">
        <ele>-191.600006103515625</ele>
        <time>2025-09-06T10:40:36.000Z</time>
        <extensions>
          <ns3:TrackPointExtension>
            <ns3:hr>157</ns3:hr>
            <ns3:cad>0</ns3:cad>
          </ns3:TrackPointExtension>
        </extensions>
      </trkpt>
      <trkpt lat="52.162197791039943695068359375" lon="1.49064059369266033172607421875">
        <ele>-192.1999969482421875</ele>
        <time>2025-09-06T10:40:38.000Z</time>
        <extensions>
          <ns3:TrackPointExtension>
            <ns3:hr>155</ns3:hr>
            <ns3:cad>0</ns3:cad>
          </ns3:TrackPointExtension>
        </extensions>
      </trkpt>
      <trkpt lat="52.16219745576381683349609375" lon="1.49063539691269397735595703125">
        <ele>-192.8000030517578125</ele>
        <time>2025-09-06T10:40:40.000Z</time>
        <extensions>
          <ns3:TrackPointExtension>
            <ns3:hr>153</ns3:hr>
            <ns3:cad>0</ns3:cad>
          </ns3:TrackPointExtension>
        </extensions>
      </trkpt>
      <trkpt lat="52.16219007968902587890625" lon="1.490692310035228729248046875">
        <ele>-193.8000030517578125</ele>
        <time>2025-09-06T10:40:44.000Z</time>
        <extensions>
          <ns3:TrackPointExtension>
            <ns3:hr>149</ns3:hr>
            <ns3:cad>0</ns3:cad>
          </ns3:TrackPointExtension>
        </extensions>
      </trkpt>
      <trkpt lat="52.16219167225062847137451171875" lon="1.49078710936009883880615234375">
        <ele>-195</ele>
        <time>2025-09-06T10:40:48.000Z</time>
        <extensions>
          <ns3:TrackPointExtension>
            <ns3:hr>149</ns3:hr>
            <ns3:cad>0</ns3:cad>
          </ns3:TrackPointExtension>
        </extensions>
      </trkpt>
      <trkpt lat="52.16220055706799030303955078125" lon="1.49083270691335201263427734375">
        <ele>-195.600006103515625</ele>
        <time>2025-09-06T10:40:50.000Z</time>
        <extensions>
          <ns3:TrackPointExtension>
            <ns3:hr>150</ns3:hr>
            <ns3:cad>0</ns3:cad>
          </ns3:TrackPointExtension>
        </extensions>
      </trkpt>
      <trkpt lat="52.16220223344862461090087890625" lon="1.4908607862889766693115234375">
        <ele>-196.1999969482421875</ele>
        <time>2025-09-06T10:40:52.000Z</time>
        <extensions>
          <ns3:TrackPointExtension>
            <ns3:hr>149</ns3:hr>
            <ns3:cad>0</ns3:cad>
          </ns3:TrackPointExtension>
        </extensions>
      </trkpt>
      <trkpt lat="52.1622469089925289154052734375" lon="1.49096447043120861053466796875">
        <ele>-197.399993896484375</ele>
        <time>2025-09-06T10:40:56.000Z</time>
        <extensions>
          <ns3:TrackPointExtension>
            <ns3:hr>147</ns3:hr>
            <ns3:cad>0</ns3:cad>
          </ns3:TrackPointExtension>
        </extensions>
      </trkpt>
      <trkpt lat="52.1622586436569690704345703125" lon="1.49099372327327728271484375">
        <ele>-197.8000030517578125</ele>
        <time>2025-09-06T10:40:57.000Z</time>
        <extensions>
          <ns3:TrackPointExtension>
            <ns3:hr>147</ns3:hr>
            <ns3:cad>77</ns3:cad>
          </ns3:TrackPointExtension>
        </extensions>
      </trkpt>
      <trkpt lat="52.1622834540903568267822265625" lon="1.49108751676976680755615234375">
        <ele>-198.600006103515625</ele>
        <time>2025-09-06T10:41:00.000Z</time>
        <extensions>
          <ns3:TrackPointExtension>
            <ns3:hr>147</ns3:hr>
            <ns3:cad>80</ns3:cad>
          </ns3:TrackPointExtension>
        </extensions>
      </trkpt>
      <trkpt lat="52.1623109467327594757080078125" lon="1.491211988031864166259765625">
        <ele>-199.600006103515625</ele>
        <time>2025-09-06T10:41:04.000Z</time>
        <extensions>
          <ns3:TrackPointExtension>
            <ns3:hr>151</ns3:hr>
            <ns3:cad>81</ns3:cad>
          </ns3:TrackPointExtension>
        </extensions>
      </trkpt>
      <trkpt lat="52.16231773607432842254638671875" lon="1.49124761112034320831298828125">
        <ele>-199.8000030517578125</ele>
        <time>2025-09-06T10:41:05.000Z</time>
        <extensions>
          <ns3:TrackPointExtension>
            <ns3:hr>152</ns3:hr>
            <ns3:cad>81</ns3:cad>
          </ns3:TrackPointExtension>
        </extensions>
      </trkpt>
      <trkpt lat="52.162327878177165985107421875" lon="1.49128264747560024261474609375">
        <ele>-200</ele>
        <time>2025-09-06T10:41:06.000Z</time>
        <extensions>
          <ns3:TrackPointExtension>
            <ns3:hr>152</ns3:hr>
            <ns3:cad>81</ns3:cad>
          </ns3:TrackPointExtension>
        </extensions>
      </trkpt>
      <trkpt lat="52.162337265908718109130859375" lon="1.49132388643920421600341796875">
        <ele>-200.1999969482421875</ele>
        <time>2025-09-06T10:41:07.000Z</time>
        <extensions>
          <ns3:TrackPointExtension>
            <ns3:hr>155</ns3:hr>
            <ns3:cad>81</ns3:cad>
          </ns3:TrackPointExtension>
        </extensions>
      </trkpt>
      <trkpt lat="52.1623550355434417724609375" lon="1.491413153707981109619140625">
        <ele>-200.600006103515625</ele>
        <time>2025-09-06T10:41:09.000Z</time>
        <extensions>
          <ns3:TrackPointExtension>
            <ns3:hr>158</ns3:hr>
            <ns3:cad>80</ns3:cad>
          </ns3:TrackPointExtension>
        </extensions>
      </trkpt>
      <trkpt lat="52.1623625792562961578369140625" lon="1.4914538897573947906494140625">
        <ele>-200.8000030517578125</ele>
        <time>2025-09-06T10:41:10.000Z</time>
        <extensions>
          <ns3:TrackPointExtension>
            <ns3:hr>158</ns3:hr>
            <ns3:cad>80</ns3:cad>
          </ns3:TrackPointExtension>
        </extensions>
      </trkpt>
      <trkpt lat="52.16238655149936676025390625" lon="1.4916014112532138824462890625">
        <ele>-201.8000030517578125</ele>
        <time>2025-09-06T10:41:14.000Z</time>
        <extensions>
          <ns3:TrackPointExtension>
            <ns3:hr>160</ns3:hr>
            <ns3:cad>81</ns3:cad>
          </ns3:TrackPointExtension>
        </extensions>
      </trkpt>
      <trkpt lat="52.16239459812641143798828125" lon="1.49163703434169292449951171875">
        <ele>-202</ele>
        <time>2025-09-06T10:41:15.000Z</time>
        <extensions>
          <ns3:TrackPointExtension>
            <ns3:hr>160</ns3:hr>
            <ns3:cad>81</ns3:cad>
          </ns3:TrackPointExtension>
        </extensions>
      </trkpt>
      <trkpt lat="52.162411026656627655029296875" lon="1.49175144731998443603515625">
        <ele>-202.600006103515625</ele>
        <time>2025-09-06T10:41:18.000Z</time>
        <extensions>
          <ns3:TrackPointExtension>
            <ns3:hr>163</ns3:hr>
            <ns3:cad>81</ns3:cad>
          </ns3:TrackPointExtension>
        </extensions>
      </trkpt>
      <trkpt lat="52.162415720522403717041015625" lon="1.49182160384953022003173828125">
        <ele>-203</ele>
        <time>2025-09-06T10:41:20.000Z</time>
        <extensions>
          <ns3:TrackPointExtension>
            <ns3:hr>162</ns3:hr>
            <ns3:cad>81</ns3:cad>
          </ns3:TrackPointExtension>
        </extensions>
      </trkpt>
      <trkpt lat="52.162416391074657440185546875" lon="1.4918535389006137847900390625">
        <ele>-203.1999969482421875</ele>
        <time>2025-09-06T10:41:21.000Z</time>
        <extensions>
          <ns3:TrackPointExtension>
            <ns3:hr>165</ns3:hr>
            <ns3:cad>81</ns3:cad>
          </ns3:TrackPointExtension>
        </extensions>
      </trkpt>
      <trkpt lat="52.16241362504661083221435546875" lon="1.49188631214201450347900390625">
        <ele>-203.399993896484375</ele>
        <time>2025-09-06T10:41:22.000Z</time>
        <extensions>
          <ns3:TrackPointExtension>
            <ns3:hr>163</ns3:hr>
            <ns3:cad>81</ns3:cad>
          </ns3:TrackPointExtension>
        </extensions>
      </trkpt>
      <trkpt lat="52.162411026656627655029296875" lon="1.49197616614401340484619140625">
        <ele>-204.1999969482421875</ele>
        <time>2025-09-06T10:41:26.000Z</time>
        <extensions>
          <ns3:TrackPointExtension>
            <ns3:hr>162</ns3:hr>
            <ns3:cad>0</ns3:cad>
          </ns3:TrackPointExtension>
        </extensions>
      </trkpt>
      <trkpt lat="52.16241312213242053985595703125" lon="1.4919953607022762298583984375">
        <ele>-204.399993896484375</ele>
        <time>2025-09-06T10:41:27.000Z</time>
        <extensions>
          <ns3:TrackPointExtension>
            <ns3:hr>162</ns3:hr>
            <ns3:cad>0</ns3:cad>
          </ns3:TrackPointExtension>
        </extensions>
      </trkpt>
      <trkpt lat="52.16243742965161800384521484375" lon="1.492089070379734039306640625">
        <ele>-205.399993896484375</ele>
        <time>2025-09-06T10:41:32.000Z</time>
        <extensions>
          <ns3:TrackPointExtension>
            <ns3:hr>163</ns3:hr>
            <ns3:cad>0</ns3:cad>
          </ns3:TrackPointExtension>
        </extensions>
      </trkpt>
      <trkpt lat="52.16246374882757663726806640625" lon="1.49213810451328754425048828125">
        <ele>-206</ele>
        <time>2025-09-06T10:41:35.000Z</time>
        <extensions>
          <ns3:TrackPointExtension>
            <ns3:hr>163</ns3:hr>
            <ns3:cad>0</ns3:cad>
          </ns3:TrackPointExtension>
        </extensions>
      </trkpt>
      <trkpt lat="52.162482440471649169921875" lon="1.4921973645687103271484375">
        <ele>-206.399993896484375</ele>
        <time>2025-09-06T10:41:37.000Z</time>
        <extensions>
          <ns3:TrackPointExtension>
            <ns3:hr>163</ns3:hr>
            <ns3:cad>0</ns3:cad>
          </ns3:TrackPointExtension>
        </extensions>
      </trkpt>
      <trkpt lat="52.1625030599534511566162109375" lon="1.49230800569057464599609375">
        <ele>-207</ele>
        <time>2025-09-06T10:41:40.000Z</time>
        <extensions>
          <ns3:TrackPointExtension>
            <ns3:hr>162</ns3:hr>
            <ns3:cad>80</ns3:cad>
          </ns3:TrackPointExtension>
        </extensions>
      </trkpt>
      <trkpt lat="52.16250750236213207244873046875" lon="1.49239190854132175445556640625">
        <ele>-207.399993896484375</ele>
        <time>2025-09-06T10:41:42.000Z</time>
        <extensions>
          <ns3:TrackPointExtension>
            <ns3:hr>161</ns3:hr>
            <ns3:cad>80</ns3:cad>
          </ns3:TrackPointExtension>
        </extensions>
      </trkpt>
      <trkpt lat="52.16250532306730747222900390625" lon="1.492560803890228271484375">
        <ele>-208.1999969482421875</ele>
        <time>2025-09-06T10:41:46.000Z</time>
        <extensions>
          <ns3:TrackPointExtension>
            <ns3:hr>164</ns3:hr>
            <ns3:cad>81</ns3:cad>
          </ns3:TrackPointExtension>
        </extensions>
      </trkpt>
      <trkpt lat="52.16250012628734111785888671875" lon="1.49260514415800571441650390625">
        <ele>-208.399993896484375</ele>
        <time>2025-09-06T10:41:47.000Z</time>
        <extensions>
          <ns3:TrackPointExtension>
            <ns3:hr>163</ns3:hr>
            <ns3:cad>81</ns3:cad>
          </ns3:TrackPointExtension>
        </extensions>
      </trkpt>
      <trkpt lat="52.16249710880219936370849609375" lon="1.49264923296868801116943359375">
        <ele>-208.600006103515625</ele>
        <time>2025-09-06T10:41:48.000Z</time>
        <extensions>
          <ns3:TrackPointExtension>
            <ns3:hr>164</ns3:hr>
            <ns3:cad>81</ns3:cad>
          </ns3:TrackPointExtension>
        </extensions>
      </trkpt>
      <trkpt lat="52.1625044010579586029052734375" lon="1.49289482273161411285400390625">
        <ele>-209.8000030517578125</ele>
        <time>2025-09-06T10:41:54.000Z</time>
        <extensions>
          <ns3:TrackPointExtension>
            <ns3:hr>165</ns3:hr>
            <ns3:cad>81</ns3:cad>
          </ns3:TrackPointExtension>
        </extensions>
      </trkpt>
      <trkpt lat="52.162510938942432403564453125" lon="1.49300999008119106292724609375">
        <ele>-210.1999969482421875</ele>
        <time>2025-09-06T10:41:57.000Z</time>
        <extensions>
          <ns3:TrackPointExtension>
            <ns3:hr>164</ns3:hr>
            <ns3:cad>81</ns3:cad>
          </ns3:TrackPointExtension>
        </extensions>
      </trkpt>
      <trkpt lat="52.16252778656780719757080078125" lon="1.49315617047250270843505859375">
        <ele>-210.8000030517578125</ele>
        <time>2025-09-06T10:42:01.000Z</time>
        <extensions>
          <ns3:TrackPointExtension>
            <ns3:hr>164</ns3:hr>
            <ns3:cad>81</ns3:cad>
          </ns3:TrackPointExtension>
        </extensions>
      </trkpt>
      <trkpt lat="52.16253734193742275238037109375" lon="1.49332514964044094085693359375">
        <ele>-211.399993896484375</ele>
        <time>2025-09-06T10:42:06.000Z</time>
        <extensions>
          <ns3:TrackPointExtension>
            <ns3:hr>164</ns3:hr>
            <ns3:cad>81</ns3:cad>
          </ns3:TrackPointExtension>
        </extensions>
      </trkpt>
      <trkpt lat="52.1625473164021968841552734375" lon="1.49347434751689434051513671875">
        <ele>-211.8000030517578125</ele>
        <time>2025-09-06T10:42:10.000Z</time>
        <extensions>
          <ns3:TrackPointExtension>
            <ns3:hr>166</ns3:hr>
            <ns3:cad>82</ns3:cad>
          </ns3:TrackPointExtension>
        </extensions>
      </trkpt>
      <trkpt lat="52.16256433166563510894775390625" lon="1.49358297698199748992919921875">
        <ele>-212.1999969482421875</ele>
        <time>2025-09-06T10:42:13.000Z</time>
        <extensions>
          <ns3:TrackPointExtension>
            <ns3:hr>164</ns3:hr>
            <ns3:cad>82</ns3:cad>
          </ns3:TrackPointExtension>
        </extensions>
      </trkpt>
      <trkpt lat="52.162637673318386077880859375" lon="1.49382437579333782196044921875">
        <ele>-212.8000030517578125</ele>
        <time>2025-09-06T10:42:20.000Z</time>
        <extensions>
          <ns3:TrackPointExtension>
            <ns3:hr>163</ns3:hr>
            <ns3:cad>81</ns3:cad>
          </ns3:TrackPointExtension>
        </extensions>
      </trkpt>
      <trkpt lat="52.16264580376446247100830078125" lon="1.493853293359279632568359375">
        <ele>-212.8000030517578125</ele>
        <time>2025-09-06T10:42:21.000Z</time>
        <extensions>
          <ns3:TrackPointExtension>
            <ns3:hr>163</ns3:hr>
            <ns3:cad>81</ns3:cad>
          </ns3:TrackPointExtension>
        </extensions>
      </trkpt>
      <trkpt lat="52.16270900331437587738037109375" lon="1.4939423091709613800048828125">
        <ele>-213.1999969482421875</ele>
        <time>2025-09-06T10:42:26.000Z</time>
        <extensions>
          <ns3:TrackPointExtension>
            <ns3:hr>162</ns3:hr>
            <ns3:cad>78</ns3:cad>
          </ns3:TrackPointExtension>
        </extensions>
      </trkpt>
      <trkpt lat="52.1627699397504329681396484375" lon="1.49405169300734996795654296875">
        <ele>-214</ele>
        <time>2025-09-06T10:42:32.000Z</time>
        <extensions>
          <ns3:TrackPointExtension>
            <ns3:hr>161</ns3:hr>
            <ns3:cad>62</ns3:cad>
          </ns3:TrackPointExtension>
        </extensions>
      </trkpt>
      <trkpt lat="52.1627793274819850921630859375" lon="1.49407348595559597015380859375">
        <ele>-214</ele>
        <time>2025-09-06T10:42:33.000Z</time>
        <extensions>
          <ns3:TrackPointExtension>
            <ns3:hr>161</ns3:hr>
            <ns3:cad>62</ns3:cad>
          </ns3:TrackPointExtension>
        </extensions>
      </trkpt>
      <trkpt lat="52.16279382817447185516357421875" lon="1.494119167327880859375">
        <ele>-214.399993896484375</ele>
        <time>2025-09-06T10:42:35.000Z</time>
        <extensions>
          <ns3:TrackPointExtension>
            <ns3:hr>158</ns3:hr>
            <ns3:cad>61</ns3:cad>
          </ns3:TrackPointExtension>
        </extensions>
      </trkpt>
      <trkpt lat="52.1628148667514324188232421875" lon="1.494175158441066741943359375">
        <ele>-215</ele>
        <time>2025-09-06T10:42:38.000Z</time>
        <extensions>
          <ns3:TrackPointExtension>
            <ns3:hr>155</ns3:hr>
            <ns3:cad>61</ns3:cad>
          </ns3:TrackPointExtension>
        </extensions>
      </trkpt>
      <trkpt lat="52.16282065026462078094482421875" lon="1.49419519118964672088623046875">
        <ele>-215.1999969482421875</ele>
        <time>2025-09-06T10:42:39.000Z</time>
        <extensions>
          <ns3:TrackPointExtension>
            <ns3:hr>156</ns3:hr>
            <ns3:cad>61</ns3:cad>
          </ns3:TrackPointExtension>
        </extensions>
      </trkpt>
      <trkpt lat="52.162836156785488128662109375" lon="1.49423777125775814056396484375">
        <ele>-215.399993896484375</ele>
        <time>2025-09-06T10:42:41.000Z</time>
        <extensions>
          <ns3:TrackPointExtension>
            <ns3:hr>155</ns3:hr>
            <ns3:cad>63</ns3:cad>
          </ns3:TrackPointExtension>
        </extensions>
      </trkpt>
      <trkpt lat="52.16285786591470241546630859375" lon="1.49432770907878875732421875">
        <ele>-216.1999969482421875</ele>
        <time>2025-09-06T10:42:44.000Z</time>
        <extensions>
          <ns3:TrackPointExtension>
            <ns3:hr>155</ns3:hr>
            <ns3:cad>63</ns3:cad>
          </ns3:TrackPointExtension>
        </extensions>
      </trkpt>
      <trkpt lat="52.16288653202354907989501953125" lon="1.49443541653454303741455078125">
        <ele>-216.8000030517578125</ele>
        <time>2025-09-06T10:42:47.000Z</time>
        <extensions>
          <ns3:TrackPointExtension>
            <ns3:hr>156</ns3:hr>
            <ns3:cad>78</ns3:cad>
          </ns3:TrackPointExtension>
        </extensions>
      </trkpt>
      <trkpt lat="52.16290446929633617401123046875" lon="1.49450582452118396759033203125">
        <ele>-217.399993896484375</ele>
        <time>2025-09-06T10:42:49.000Z</time>
        <extensions>
          <ns3:TrackPointExtension>
            <ns3:hr>156</ns3:hr>
            <ns3:cad>78</ns3:cad>
          </ns3:TrackPointExtension>
        </extensions>
      </trkpt>
      <trkpt lat="52.16292575933039188385009765625" lon="1.4945523440837860107421875">
        <ele>-218.1999969482421875</ele>
        <time>2025-09-06T10:42:52.000Z</time>
        <extensions>
          <ns3:TrackPointExtension>
            <ns3:hr>156</ns3:hr>
            <ns3:cad>76</ns3:cad>
          </ns3:TrackPointExtension>
        </extensions>
      </trkpt>
      <trkpt lat="52.16293397359549999237060546875" lon="1.494567431509494781494140625">
        <ele>-218.399993896484375</ele>
        <time>2025-09-06T10:42:53.000Z</time>
        <extensions>
          <ns3:TrackPointExtension>
            <ns3:hr>156</ns3:hr>
            <ns3:cad>55</ns3:cad>
          </ns3:TrackPointExtension>
        </extensions>
      </trkpt>
      <trkpt lat="52.1629449538886547088623046875" lon="1.494635157287120819091796875">
        <ele>-219.399993896484375</ele>
        <time>2025-09-06T10:42:57.000Z</time>
        <extensions>
          <ns3:TrackPointExtension>
            <ns3:hr>159</ns3:hr>
            <ns3:cad>54</ns3:cad>
          </ns3:TrackPointExtension>
        </extensions>
      </trkpt>
      <trkpt lat="52.16294713318347930908203125" lon="1.494653262197971343994140625">
        <ele>-219.600006103515625</ele>
        <time>2025-09-06T10:42:58.000Z</time>
        <extensions>
          <ns3:TrackPointExtension>
            <ns3:hr>160</ns3:hr>
            <ns3:cad>53</ns3:cad>
          </ns3:TrackPointExtension>
        </extensions>
      </trkpt>
      <trkpt lat="52.16294939629733562469482421875" lon="1.494667343795299530029296875">
        <ele>-220</ele>
        <time>2025-09-06T10:42:59.000Z</time>
        <extensions>
          <ns3:TrackPointExtension>
            <ns3:hr>160</ns3:hr>
            <ns3:cad>51</ns3:cad>
          </ns3:TrackPointExtension>
        </extensions>
      </trkpt>
      <trkpt lat="52.1629583649337291717529296875" lon="1.49472442455589771270751953125">
        <ele>-220.8000030517578125</ele>
        <time>2025-09-06T10:43:03.000Z</time>
        <extensions>
          <ns3:TrackPointExtension>
            <ns3:hr>158</ns3:hr>
            <ns3:cad>52</ns3:cad>
          </ns3:TrackPointExtension>
        </extensions>
      </trkpt>
      <trkpt lat="52.162967585027217864990234375" lon="1.4947776496410369873046875">
        <ele>-221.399993896484375</ele>
        <time>2025-09-06T10:43:05.000Z</time>
        <extensions>
          <ns3:TrackPointExtension>
            <ns3:hr>150</ns3:hr>
            <ns3:cad>52</ns3:cad>
          </ns3:TrackPointExtension>
        </extensions>
      </trkpt>
      <trkpt lat="52.1629871986806392669677734375" lon="1.49482986889779567718505859375">
        <ele>-221.8000030517578125</ele>
        <time>2025-09-06T10:43:07.000Z</time>
        <extensions>
          <ns3:TrackPointExtension>
            <ns3:hr>147</ns3:hr>
            <ns3:cad>75</ns3:cad>
          </ns3:TrackPointExtension>
        </extensions>
      </trkpt>
      <trkpt lat="52.16300253756344318389892578125" lon="1.4948529191315174102783203125">
        <ele>-222</ele>
        <time>2025-09-06T10:43:08.000Z</time>
        <extensions>
          <ns3:TrackPointExtension>
            <ns3:hr>147</ns3:hr>
            <ns3:cad>75</ns3:cad>
          </ns3:TrackPointExtension>
        </extensions>
      </trkpt>
      <trkpt lat="52.16309155337512493133544921875" lon="1.4949667453765869140625">
        <ele>-223</ele>
        <time>2025-09-06T10:43:13.000Z</time>
        <extensions>
          <ns3:TrackPointExtension>
            <ns3:hr>145</ns3:hr>
            <ns3:cad>77</ns3:cad>
          </ns3:TrackPointExtension>
        </extensions>
      </trkpt>
      <trkpt lat="52.163152992725372314453125" lon="1.4950450323522090911865234375">
        <ele>-223.8000030517578125</ele>
        <time>2025-09-06T10:43:17.000Z</time>
        <extensions>
          <ns3:TrackPointExtension>
            <ns3:hr>150</ns3:hr>
            <ns3:cad>77</ns3:cad>
          </ns3:TrackPointExtension>
        </extensions>
      </trkpt>
      <trkpt lat="52.16318760998547077178955078125" lon="1.49508870206773281097412109375">
        <ele>-224.1999969482421875</ele>
        <time>2025-09-06T10:43:19.000Z</time>
        <extensions>
          <ns3:TrackPointExtension>
            <ns3:hr>150</ns3:hr>
            <ns3:cad>77</ns3:cad>
          </ns3:TrackPointExtension>
        </extensions>
      </trkpt>
      <trkpt lat="52.16319850645959377288818359375" lon="1.4951067231595516204833984375">
        <ele>-224.399993896484375</ele>
        <time>2025-09-06T10:43:20.000Z</time>
        <extensions>
          <ns3:TrackPointExtension>
            <ns3:hr>153</ns3:hr>
            <ns3:cad>77</ns3:cad>
          </ns3:TrackPointExtension>
        </extensions>
      </trkpt>
      <trkpt lat="52.16320605017244815826416015625" lon="1.49512541480362415313720703125">
        <ele>-224.600006103515625</ele>
        <time>2025-09-06T10:43:21.000Z</time>
        <extensions>
          <ns3:TrackPointExtension>
            <ns3:hr>153</ns3:hr>
            <ns3:cad>77</ns3:cad>
          </ns3:TrackPointExtension>
        </extensions>
      </trkpt>
      <trkpt lat="52.16322817839682102203369140625" lon="1.495180986821651458740234375">
        <ele>-225.399993896484375</ele>
        <time>2025-09-06T10:43:25.000Z</time>
        <extensions>
          <ns3:TrackPointExtension>
            <ns3:hr>153</ns3:hr>
            <ns3:cad>0</ns3:cad>
          </ns3:TrackPointExtension>
        </extensions>
      </trkpt>
      <trkpt lat="52.16323605738580226898193359375" lon="1.4951871894299983978271484375">
        <ele>-225.8000030517578125</ele>
        <time>2025-09-06T10:43:27.000Z</time>
        <extensions>
          <ns3:TrackPointExtension>
            <ns3:hr>154</ns3:hr>
            <ns3:cad>0</ns3:cad>
          </ns3:TrackPointExtension>
        </extensions>
      </trkpt>
      <trkpt lat="52.16323270462453365325927734375" lon="1.4951959066092967987060546875">
        <ele>-226.600006103515625</ele>
        <time>2025-09-06T10:43:30.000Z</time>
        <extensions>
          <ns3:TrackPointExtension>
            <ns3:hr>153</ns3:hr>
            <ns3:cad>91</ns3:cad>
          </ns3:TrackPointExtension>
        </extensions>
      </trkpt>
      <trkpt lat="52.1632497198879718780517578125" lon="1.4952512271702289581298828125">
        <ele>-227.1999969482421875</ele>
        <time>2025-09-06T10:43:33.000Z</time>
        <extensions>
          <ns3:TrackPointExtension>
            <ns3:hr>151</ns3:hr>
            <ns3:cad>0</ns3:cad>
          </ns3:TrackPointExtension>
        </extensions>
      </trkpt>
      <trkpt lat="52.16325634159147739410400390625" lon="1.49527830071747303009033203125">
        <ele>-227.600006103515625</ele>
        <time>2025-09-06T10:43:35.000Z</time>
        <extensions>
          <ns3:TrackPointExtension>
            <ns3:hr>150</ns3:hr>
            <ns3:cad>0</ns3:cad>
          </ns3:TrackPointExtension>
        </extensions>
      </trkpt>
      <trkpt lat="52.1632916294038295745849609375" lon="1.4953249879181385040283203125">
        <ele>-228.600006103515625</ele>
        <time>2025-09-06T10:43:39.000Z</time>
        <extensions>
          <ns3:TrackPointExtension>
            <ns3:hr>148</ns3:hr>
            <ns3:cad>60</ns3:cad>
          </ns3:TrackPointExtension>
        </extensions>
      </trkpt>
      <trkpt lat="52.1633018553256988525390625" lon="1.4953363873064517974853515625">
        <ele>-229</ele>
        <time>2025-09-06T10:43:40.000Z</time>
        <extensions>
          <ns3:TrackPointExtension>
            <ns3:hr>148</ns3:hr>
            <ns3:cad>60</ns3:cad>
          </ns3:TrackPointExtension>
        </extensions>
      </trkpt>
      <trkpt lat="52.16331233270466327667236328125" lon="1.4953719265758991241455078125">
        <ele>-230</ele>
        <time>2025-09-06T10:43:44.000Z</time>
        <extensions>
          <ns3:TrackPointExtension>
            <ns3:hr>146</ns3:hr>
            <ns3:cad>55</ns3:cad>
          </ns3:TrackPointExtension>
        </extensions>
      </trkpt>
      <trkpt lat="52.16331996023654937744140625" lon="1.49539430625736713409423828125">
        <ele>-230.600006103515625</ele>
        <time>2025-09-06T10:43:46.000Z</time>
        <extensions>
          <ns3:TrackPointExtension>
            <ns3:hr>146</ns3:hr>
            <ns3:cad>51</ns3:cad>
          </ns3:TrackPointExtension>
        </extensions>
      </trkpt>
      <trkpt lat="52.16333412565290927886962890625" lon="1.49544007144868373870849609375">
        <ele>-231.1999969482421875</ele>
        <time>2025-09-06T10:43:48.000Z</time>
        <extensions>
          <ns3:TrackPointExtension>
            <ns3:hr>149</ns3:hr>
            <ns3:cad>51</ns3:cad>
          </ns3:TrackPointExtension>
        </extensions>
      </trkpt>
      <trkpt lat="52.16336111538112163543701171875" lon="1.49551718495786190032958984375">
        <ele>-232.600006103515625</ele>
        <time>2025-09-06T10:43:52.000Z</time>
        <extensions>
          <ns3:TrackPointExtension>
            <ns3:hr>146</ns3:hr>
            <ns3:cad>57</ns3:cad>
          </ns3:TrackPointExtension>
        </extensions>
      </trkpt>
      <trkpt lat="52.16338894329965114593505859375" lon="1.49555305950343608856201171875">
        <ele>-233.399993896484375</ele>
        <time>2025-09-06T10:43:54.000Z</time>
        <extensions>
          <ns3:TrackPointExtension>
            <ns3:hr>148</ns3:hr>
            <ns3:cad>57</ns3:cad>
          </ns3:TrackPointExtension>
        </extensions>
      </trkpt>
      <trkpt lat="52.16340386308729648590087890625" lon="1.495575942099094390869140625">
        <ele>-233.8000030517578125</ele>
        <time>2025-09-06T10:43:55.000Z</time>
        <extensions>
          <ns3:TrackPointExtension>
            <ns3:hr>147</ns3:hr>
            <ns3:cad>57</ns3:cad>
          </ns3:TrackPointExtension>
        </extensions>
      </trkpt>
      <trkpt lat="52.16343068517744541168212890625" lon="1.49560268037021160125732421875">
        <ele>-234.600006103515625</ele>
        <time>2025-09-06T10:43:57.000Z</time>
        <extensions>
          <ns3:TrackPointExtension>
            <ns3:hr>146</ns3:hr>
            <ns3:cad>57</ns3:cad>
          </ns3:TrackPointExtension>
        </extensions>
      </trkpt>
      <trkpt lat="52.1634361334145069122314453125" lon="1.4956180192530155181884765625">
        <ele>-235</ele>
        <time>2025-09-06T10:43:58.000Z</time>
        <extensions>
          <ns3:TrackPointExtension>
            <ns3:hr>144</ns3:hr>
            <ns3:cad>57</ns3:cad>
          </ns3:TrackPointExtension>
        </extensions>
      </trkpt>
      <trkpt lat="52.16345868073403835296630859375" lon="1.495667807757854461669921875">
        <ele>-236.1999969482421875</ele>
        <time>2025-09-06T10:44:01.000Z</time>
        <extensions>
          <ns3:TrackPointExtension>
            <ns3:hr>143</ns3:hr>
            <ns3:cad>57</ns3:cad>
          </ns3:TrackPointExtension>
        </extensions>
      </trkpt>
      <trkpt lat="52.1634941361844539642333984375" lon="1.49571114219725131988525390625">
        <ele>-237.600006103515625</ele>
        <time>2025-09-06T10:44:04.000Z</time>
        <extensions>
          <ns3:TrackPointExtension>
            <ns3:hr>143</ns3:hr>
            <ns3:cad>0</ns3:cad>
          </ns3:TrackPointExtension>
        </extensions>
      </trkpt>
      <trkpt lat="52.16350913979113101959228515625" lon="1.49572606198489665985107421875">
        <ele>-238</ele>
        <time>2025-09-06T10:44:05.000Z</time>
        <extensions>
          <ns3:TrackPointExtension>
            <ns3:hr>142</ns3:hr>
            <ns3:cad>0</ns3:cad>
          </ns3:TrackPointExtension>
        </extensions>
      </trkpt>
      <trkpt lat="52.16353998519480228424072265625" lon="1.49574768729507923126220703125">
        <ele>-238.8000030517578125</ele>
        <time>2025-09-06T10:44:07.000Z</time>
        <extensions>
          <ns3:TrackPointExtension>
            <ns3:hr>142</ns3:hr>
            <ns3:cad>0</ns3:cad>
          </ns3:TrackPointExtension>
        </extensions>
      </trkpt>
      <trkpt lat="52.16359354555606842041015625" lon="1.49577065370976924896240234375">
        <ele>-240.1999969482421875</ele>
        <time>2025-09-06T10:44:10.000Z</time>
        <extensions>
          <ns3:TrackPointExtension>
            <ns3:hr>141</ns3:hr>
            <ns3:cad>0</ns3:cad>
          </ns3:TrackPointExtension>
        </extensions>
      </trkpt>
      <trkpt lat="52.163609974086284637451171875" lon="1.4957806281745433807373046875">
        <ele>-240.399993896484375</ele>
        <time>2025-09-06T10:44:11.000Z</time>
        <extensions>
          <ns3:TrackPointExtension>
            <ns3:hr>141</ns3:hr>
            <ns3:cad>0</ns3:cad>
          </ns3:TrackPointExtension>
        </extensions>
      </trkpt>
      <trkpt lat="52.16364090330898761749267578125" lon="1.49580049328505992889404296875">
        <ele>-241.1999969482421875</ele>
        <time>2025-09-06T10:44:13.000Z</time>
        <extensions>
          <ns3:TrackPointExtension>
            <ns3:hr>143</ns3:hr>
            <ns3:cad>0</ns3:cad>
          </ns3:TrackPointExtension>
        </extensions>
      </trkpt>
      <trkpt lat="52.163676358759403228759765625" lon="1.4958168379962444305419921875">
        <ele>-242</ele>
        <time>2025-09-06T10:44:15.000Z</time>
        <extensions>
          <ns3:TrackPointExtension>
            <ns3:hr>140</ns3:hr>
            <ns3:cad>61</ns3:cad>
          </ns3:TrackPointExtension>
        </extensions>
      </trkpt>
      <trkpt lat="52.16369488276541233062744140625" lon="1.49582949467003345489501953125">
        <ele>-242.1999969482421875</ele>
        <time>2025-09-06T10:44:16.000Z</time>
        <extensions>
          <ns3:TrackPointExtension>
            <ns3:hr>142</ns3:hr>
            <ns3:cad>61</ns3:cad>
          </ns3:TrackPointExtension>
        </extensions>
      </trkpt>
      <trkpt lat="52.1637331880629062652587890625" lon="1.495853550732135772705078125">
        <ele>-243.399993896484375</ele>
        <time>2025-09-06T10:44:19.000Z</time>
        <extensions>
          <ns3:TrackPointExtension>
            <ns3:hr>139</ns3:hr>
            <ns3:cad>0</ns3:cad>
          </ns3:TrackPointExtension>
        </extensions>
      </trkpt>
      <trkpt lat="52.16378155164420604705810546875" lon="1.4958666265010833740234375">
        <ele>-244.399993896484375</ele>
        <time>2025-09-06T10:44:22.000Z</time>
        <extensions>
          <ns3:TrackPointExtension>
            <ns3:hr>143</ns3:hr>
            <ns3:cad>0</ns3:cad>
          </ns3:TrackPointExtension>
        </extensions>
      </trkpt>
      <trkpt lat="52.16379873454570770263671875" lon="1.495873667299747467041015625">
        <ele>-244.600006103515625</ele>
        <time>2025-09-06T10:44:23.000Z</time>
        <extensions>
          <ns3:TrackPointExtension>
            <ns3:hr>143</ns3:hr>
            <ns3:cad>0</ns3:cad>
          </ns3:TrackPointExtension>
        </extensions>
      </trkpt>
      <trkpt lat="52.16386235319077968597412109375" lon="1.49590007029473781585693359375">
        <ele>-245.8000030517578125</ele>
        <time>2025-09-06T10:44:27.000Z</time>
        <extensions>
          <ns3:TrackPointExtension>
            <ns3:hr>142</ns3:hr>
            <ns3:cad>61</ns3:cad>
          </ns3:TrackPointExtension>
        </extensions>
      </trkpt>
      <trkpt lat="52.16389118693768978118896484375" lon="1.49589453823864459991455078125">
        <ele>-246.8000030517578125</ele>
        <time>2025-09-06T10:44:30.000Z</time>
        <extensions>
          <ns3:TrackPointExtension>
            <ns3:hr>139</ns3:hr>
            <ns3:cad>61</ns3:cad>
          </ns3:TrackPointExtension>
        </extensions>
      </trkpt>
      <trkpt lat="52.163904011249542236328125" lon="1.49589353241026401519775390625">
        <ele>-247.1999969482421875</ele>
        <time>2025-09-06T10:44:31.000Z</time>
        <extensions>
          <ns3:TrackPointExtension>
            <ns3:hr>138</ns3:hr>
            <ns3:cad>61</ns3:cad>
          </ns3:TrackPointExtension>
        </extensions>
      </trkpt>
      <trkpt lat="52.1639670431613922119140625" lon="1.49589001201093196868896484375">
        <ele>-248.1999969482421875</ele>
        <time>2025-09-06T10:44:35.000Z</time>
        <extensions>
          <ns3:TrackPointExtension>
            <ns3:hr>141</ns3:hr>
            <ns3:cad>0</ns3:cad>
          </ns3:TrackPointExtension>
        </extensions>
      </trkpt>
      <trkpt lat="52.16404013335704803466796875" lon="1.49590359069406986236572265625">
        <ele>-248.600006103515625</ele>
        <time>2025-09-06T10:44:40.000Z</time>
        <extensions>
          <ns3:TrackPointExtension>
            <ns3:hr>136</ns3:hr>
            <ns3:cad>59</ns3:cad>
          </ns3:TrackPointExtension>
        </extensions>
      </trkpt>
      <trkpt lat="52.16405396349728107452392578125" lon="1.49590484797954559326171875">
        <ele>-248.600006103515625</ele>
        <time>2025-09-06T10:44:41.000Z</time>
        <extensions>
          <ns3:TrackPointExtension>
            <ns3:hr>139</ns3:hr>
            <ns3:cad>60</ns3:cad>
          </ns3:TrackPointExtension>
        </extensions>
      </trkpt>
      <trkpt lat="52.16408330015838146209716796875" lon="1.4959063567221164703369140625">
        <ele>-248.8000030517578125</ele>
        <time>2025-09-06T10:44:43.000Z</time>
        <extensions>
          <ns3:TrackPointExtension>
            <ns3:hr>139</ns3:hr>
            <ns3:cad>60</ns3:cad>
          </ns3:TrackPointExtension>
        </extensions>
      </trkpt>
      <trkpt lat="52.164140045642852783203125" lon="1.495929323136806488037109375">
        <ele>-249</ele>
        <time>2025-09-06T10:44:49.000Z</time>
        <extensions>
          <ns3:TrackPointExtension>
            <ns3:hr>136</ns3:hr>
            <ns3:cad>0</ns3:cad>
          </ns3:TrackPointExtension>
        </extensions>
      </trkpt>
      <trkpt lat="52.1641442365944385528564453125" lon="1.49592923931777477264404296875">
        <ele>-249.1999969482421875</ele>
        <time>2025-09-06T10:44:50.000Z</time>
        <extensions>
          <ns3:TrackPointExtension>
            <ns3:hr>136</ns3:hr>
            <ns3:cad>0</ns3:cad>
          </ns3:TrackPointExtension>
        </extensions>
      </trkpt>
      <trkpt lat="52.16414582915604114532470703125" lon="1.4959308318793773651123046875">
        <ele>-249.1999969482421875</ele>
        <time>2025-09-06T10:44:51.000Z</time>
        <extensions>
          <ns3:TrackPointExtension>
            <ns3:hr>135</ns3:hr>
            <ns3:cad>0</ns3:cad>
          </ns3:TrackPointExtension>
        </extensions>
      </trkpt>
      <trkpt lat="52.16417080722749233245849609375" lon="1.49593435227870941162109375">
        <ele>-249.399993896484375</ele>
        <time>2025-09-06T10:44:56.000Z</time>
        <extensions>
          <ns3:TrackPointExtension>
            <ns3:hr>133</ns3:hr>
            <ns3:cad>0</ns3:cad>
          </ns3:TrackPointExtension>
        </extensions>
      </trkpt>
      <trkpt lat="52.16420835815370082855224609375" lon="1.49600031785666942596435546875">
        <ele>-249.600006103515625</ele>
        <time>2025-09-06T10:45:01.000Z</time>
        <extensions>
          <ns3:TrackPointExtension>
            <ns3:hr>131</ns3:hr>
            <ns3:cad>0</ns3:cad>
          </ns3:TrackPointExtension>
        </extensions>
      </trkpt>
      <trkpt lat="52.164226211607456207275390625" lon="1.4960280619561672210693359375">
        <ele>-249.8000030517578125</ele>
        <time>2025-09-06T10:45:03.000Z</time>
        <extensions>
          <ns3:TrackPointExtension>
            <ns3:hr>128</ns3:hr>
            <ns3:cad>0</ns3:cad>
          </ns3:TrackPointExtension>
        </extensions>
      </trkpt>
      <trkpt lat="52.16424540616571903228759765625" lon="1.4960669539868831634521484375">
        <ele>-250</ele>
        <time>2025-09-06T10:45:07.000Z</time>
        <extensions>
          <ns3:TrackPointExtension>
            <ns3:hr>127</ns3:hr>
            <ns3:cad>60</ns3:cad>
          </ns3:TrackPointExtension>
        </extensions>
      </trkpt>
      <trkpt lat="52.1642656065523624420166015625" lon="1.49607793428003787994384765625">
        <ele>-250.1999969482421875</ele>
        <time>2025-09-06T10:45:09.000Z</time>
        <extensions>
          <ns3:TrackPointExtension>
            <ns3:hr>128</ns3:hr>
            <ns3:cad>55</ns3:cad>
          </ns3:TrackPointExtension>
        </extensions>
      </trkpt>
      <trkpt lat="52.164303995668888092041015625" lon="1.49608966894447803497314453125">
        <ele>-250.600006103515625</ele>
        <time>2025-09-06T10:45:12.000Z</time>
        <extensions>
          <ns3:TrackPointExtension>
            <ns3:hr>134</ns3:hr>
            <ns3:cad>55</ns3:cad>
          </ns3:TrackPointExtension>
        </extensions>
      </trkpt>
      <trkpt lat="52.1643145568668842315673828125" lon="1.49609402753412723541259765625">
        <ele>-250.8000030517578125</ele>
        <time>2025-09-06T10:45:13.000Z</time>
        <extensions>
          <ns3:TrackPointExtension>
            <ns3:hr>135</ns3:hr>
            <ns3:cad>55</ns3:cad>
          </ns3:TrackPointExtension>
        </extensions>
      </trkpt>
      <trkpt lat="52.16437809169292449951171875" lon="1.4961226098239421844482421875">
        <ele>-251.399993896484375</ele>
        <time>2025-09-06T10:45:18.000Z</time>
        <extensions>
          <ns3:TrackPointExtension>
            <ns3:hr>135</ns3:hr>
            <ns3:cad>55</ns3:cad>
          </ns3:TrackPointExtension>
        </extensions>
      </trkpt>
      <trkpt lat="52.16439913026988506317138671875" lon="1.49614197202026844024658203125">
        <ele>-251.600006103515625</ele>
        <time>2025-09-06T10:45:20.000Z</time>
        <extensions>
          <ns3:TrackPointExtension>
            <ns3:hr>135</ns3:hr>
            <ns3:cad>55</ns3:cad>
          </ns3:TrackPointExtension>
        </extensions>
      </trkpt>
      <trkpt lat="52.16442368924617767333984375" lon="1.496147923171520233154296875">
        <ele>-252.1999969482421875</ele>
        <time>2025-09-06T10:45:26.000Z</time>
        <extensions>
          <ns3:TrackPointExtension>
            <ns3:hr>134</ns3:hr>
            <ns3:cad>46</ns3:cad>
          </ns3:TrackPointExtension>
        </extensions>
      </trkpt>
      <trkpt lat="52.16442209668457508087158203125" lon="1.49614783935248851776123046875">
        <ele>-252.399993896484375</ele>
        <time>2025-09-06T10:45:27.000Z</time>
        <extensions>
          <ns3:TrackPointExtension>
            <ns3:hr>134</ns3:hr>
            <ns3:cad>0</ns3:cad>
          </ns3:TrackPointExtension>
        </extensions>
      </trkpt>
      <trkpt lat="52.16445260681211948394775390625" lon="1.49619678966701030731201171875">
        <ele>-253.1999969482421875</ele>
        <time>2025-09-06T10:45:34.000Z</time>
        <extensions>
          <ns3:TrackPointExtension>
            <ns3:hr>132</ns3:hr>
            <ns3:cad>0</ns3:cad>
          </ns3:TrackPointExtension>
        </extensions>
      </trkpt>
      <trkpt lat="52.16446501202881336212158203125" lon="1.4962218515574932098388671875">
        <ele>-253.399993896484375</ele>
        <time>2025-09-06T10:45:36.000Z</time>
        <extensions>
          <ns3:TrackPointExtension>
            <ns3:hr>133</ns3:hr>
            <ns3:cad>0</ns3:cad>
          </ns3:TrackPointExtension>
        </extensions>
      </trkpt>
      <trkpt lat="52.164472304284572601318359375" lon="1.496256887912750244140625">
        <ele>-253.600006103515625</ele>
        <time>2025-09-06T10:45:38.000Z</time>
        <extensions>
          <ns3:TrackPointExtension>
            <ns3:hr>133</ns3:hr>
            <ns3:cad>51</ns3:cad>
          </ns3:TrackPointExtension>
        </extensions>
      </trkpt>
      <trkpt lat="52.16447322629392147064208984375" lon="1.496271304786205291748046875">
        <ele>-253.8000030517578125</ele>
        <time>2025-09-06T10:45:39.000Z</time>
        <extensions>
          <ns3:TrackPointExtension>
            <ns3:hr>132</ns3:hr>
            <ns3:cad>52</ns3:cad>
          </ns3:TrackPointExtension>
        </extensions>
      </trkpt>
      <trkpt lat="52.16451756656169891357421875" lon="1.49633492343127727508544921875">
        <ele>-254.399993896484375</ele>
        <time>2025-09-06T10:45:45.000Z</time>
        <extensions>
          <ns3:TrackPointExtension>
            <ns3:hr>132</ns3:hr>
            <ns3:cad>54</ns3:cad>
          </ns3:TrackPointExtension>
        </extensions>
      </trkpt>
      <trkpt lat="52.16452066786587238311767578125" lon="1.49634447880089282989501953125">
        <ele>-254.600006103515625</ele>
        <time>2025-09-06T10:45:46.000Z</time>
        <extensions>
          <ns3:TrackPointExtension>
            <ns3:hr>132</ns3:hr>
            <ns3:cad>53</ns3:cad>
          </ns3:TrackPointExtension>
        </extensions>
      </trkpt>
      <trkpt lat="52.1645234338939189910888671875" lon="1.49638286791741847991943359375">
        <ele>-255</ele>
        <time>2025-09-06T10:45:50.000Z</time>
        <extensions>
          <ns3:TrackPointExtension>
            <ns3:hr>129</ns3:hr>
            <ns3:cad>50</ns3:cad>
          </ns3:TrackPointExtension>
        </extensions>
      </trkpt>
      <trkpt lat="52.16451220214366912841796875" lon="1.49641455151140689849853515625">
        <ele>-255.399993896484375</ele>
        <time>2025-09-06T10:45:53.000Z</time>
        <extensions>
          <ns3:TrackPointExtension>
            <ns3:hr>127</ns3:hr>
            <ns3:cad>0</ns3:cad>
          </ns3:TrackPointExtension>
        </extensions>
      </trkpt>
      <trkpt lat="52.16451295651495456695556640625" lon="1.4964203350245952606201171875">
        <ele>-255.600006103515625</ele>
        <time>2025-09-06T10:45:54.000Z</time>
        <extensions>
          <ns3:TrackPointExtension>
            <ns3:hr>129</ns3:hr>
            <ns3:cad>0</ns3:cad>
          </ns3:TrackPointExtension>
        </extensions>
      </trkpt>
      <trkpt lat="52.1645247749984264373779296875" lon="1.49645964615046977996826171875">
        <ele>-256.600006103515625</ele>
        <time>2025-09-06T10:46:01.000Z</time>
        <extensions>
          <ns3:TrackPointExtension>
            <ns3:hr>128</ns3:hr>
            <ns3:cad>0</ns3:cad>
          </ns3:TrackPointExtension>
        </extensions>
      </trkpt>
      <trkpt lat="52.1644992940127849578857421875" lon="1.49645947851240634918212890625">
        <ele>-257.600006103515625</ele>
        <time>2025-09-06T10:46:05.000Z</time>
        <extensions>
          <ns3:TrackPointExtension>
            <ns3:hr>126</ns3:hr>
            <ns3:cad>0</ns3:cad>
          </ns3:TrackPointExtension>
        </extensions>
      </trkpt>
      <trkpt lat="52.16450423933565616607666015625" lon="1.4964433014392852783203125">
        <ele>-258.20001220703125</ele>
        <time>2025-09-06T10:46:07.000Z</time>
        <extensions>
          <ns3:TrackPointExtension>
            <ns3:hr>124</ns3:hr>
            <ns3:cad>0</ns3:cad>
          </ns3:TrackPointExtension>
        </extensions>
      </trkpt>
      <trkpt lat="52.1645043231546878814697265625" lon="1.49644288234412670135498046875">
        <ele>-258.79998779296875</ele>
        <time>2025-09-06T10:46:09.000Z</time>
        <extensions>
          <ns3:TrackPointExtension>
            <ns3:hr>122</ns3:hr>
            <ns3:cad>0</ns3:cad>
          </ns3:TrackPointExtension>
        </extensions>
      </trkpt>
      <trkpt lat="52.164504826068878173828125" lon="1.49643936194479465484619140625">
        <ele>-259.79998779296875</ele>
        <time>2025-09-06T10:46:13.000Z</time>
        <extensions>
          <ns3:TrackPointExtension>
            <ns3:hr>122</ns3:hr>
            <ns3:cad>0</ns3:cad>
          </ns3:TrackPointExtension>
        </extensions>
      </trkpt>
      <trkpt lat="52.1645013056695461273193359375" lon="1.4964427985250949859619140625">
        <ele>-260.399993896484375</ele>
        <time>2025-09-06T10:46:15.000Z</time>
        <extensions>
          <ns3:TrackPointExtension>
            <ns3:hr>121</ns3:hr>
            <ns3:cad>0</ns3:cad>
          </ns3:TrackPointExtension>
        </extensions>
      </trkpt>
      <trkpt lat="52.16449820436537265777587890625" lon="1.49646517820656299591064453125">
        <ele>-261</ele>
        <time>2025-09-06T10:46:18.000Z</time>
        <extensions>
          <ns3:TrackPointExtension>
            <ns3:hr>121</ns3:hr>
            <ns3:cad>0</ns3:cad>
          </ns3:TrackPointExtension>
        </extensions>
      </trkpt>
      <trkpt lat="52.16449853964149951934814453125" lon="1.49646182544529438018798828125">
        <ele>-262.20001220703125</ele>
        <time>2025-09-06T10:46:23.000Z</time>
        <extensions>
          <ns3:TrackPointExtension>
            <ns3:hr>120</ns3:hr>
            <ns3:cad>0</ns3:cad>
          </ns3:TrackPointExtension>
        </extensions>
      </trkpt>
      <trkpt lat="52.1644992940127849578857421875" lon="1.49646048434078693389892578125">
        <ele>-262.399993896484375</ele>
        <time>2025-09-06T10:46:24.000Z</time>
        <extensions>
          <ns3:TrackPointExtension>
            <ns3:hr>120</ns3:hr>
            <ns3:cad>0</ns3:cad>
          </ns3:TrackPointExtension>
        </extensions>
      </trkpt>
      <trkpt lat="52.16448429040610790252685546875" lon="1.496465764939785003662109375">
        <ele>-263.399993896484375</ele>
        <time>2025-09-06T10:46:28.000Z</time>
        <extensions>
          <ns3:TrackPointExtension>
            <ns3:hr>118</ns3:hr>
            <ns3:cad>0</ns3:cad>
          </ns3:TrackPointExtension>
        </extensions>
      </trkpt>
      <trkpt lat="52.16447741724550724029541015625" lon="1.49647171609103679656982421875">
        <ele>-264.399993896484375</ele>
        <time>2025-09-06T10:46:32.000Z</time>
        <extensions>
          <ns3:TrackPointExtension>
            <ns3:hr>116</ns3:hr>
            <ns3:cad>0</ns3:cad>
          </ns3:TrackPointExtension>
        </extensions>
      </trkpt>
      <trkpt lat="52.164472304284572601318359375" lon="1.49647523649036884307861328125">
        <ele>-265.600006103515625</ele>
        <time>2025-09-06T10:46:36.000Z</time>
        <extensions>
          <ns3:TrackPointExtension>
            <ns3:hr>118</ns3:hr>
            <ns3:cad>0</ns3:cad>
          </ns3:TrackPointExtension>
        </extensions>
      </trkpt>
      <trkpt lat="52.16446031816303730010986328125" lon="1.49648420512676239013671875">
        <ele>-266.600006103515625</ele>
        <time>2025-09-06T10:46:40.000Z</time>
        <extensions>
          <ns3:TrackPointExtension>
            <ns3:hr>119</ns3:hr>
            <ns3:cad>0</ns3:cad>
          </ns3:TrackPointExtension>
        </extensions>
      </trkpt>
      <trkpt lat="52.164456881582736968994140625" lon="1.496487222611904144287109375">
        <ele>-267.600006103515625</ele>
        <time>2025-09-06T10:46:44.000Z</time>
        <extensions>
          <ns3:TrackPointExtension>
            <ns3:hr>119</ns3:hr>
            <ns3:cad>0</ns3:cad>
          </ns3:TrackPointExtension>
        </extensions>
      </trkpt>
      <trkpt lat="52.16445713303983211517333984375" lon="1.49648797698318958282470703125">
        <ele>-268.20001220703125</ele>
        <time>2025-09-06T10:46:46.000Z</time>
        <extensions>
          <ns3:TrackPointExtension>
            <ns3:hr>122</ns3:hr>
            <ns3:cad>0</ns3:cad>
          </ns3:TrackPointExtension>
        </extensions>
      </trkpt>
      <trkpt lat="52.1644540317356586456298828125" lon="1.49648780934512615203857421875">
        <ele>-268.79998779296875</ele>
        <time>2025-09-06T10:46:50.000Z</time>
        <extensions>
          <ns3:TrackPointExtension>
            <ns3:hr>121</ns3:hr>
            <ns3:cad>0</ns3:cad>
          </ns3:TrackPointExtension>
        </extensions>
      </trkpt>
      <trkpt lat="52.164450846612453460693359375" lon="1.49648931808769702911376953125">
        <ele>-269.399993896484375</ele>
        <time>2025-09-06T10:46:54.000Z</time>
        <extensions>
          <ns3:TrackPointExtension>
            <ns3:hr>124</ns3:hr>
            <ns3:cad>0</ns3:cad>
          </ns3:TrackPointExtension>
        </extensions>
      </trkpt>
      <trkpt lat="52.1644530259072780609130859375" lon="1.4964880608022212982177734375">
        <ele>-269.399993896484375</ele>
        <time>2025-09-06T10:46:55.000Z</time>
        <extensions>
          <ns3:TrackPointExtension>
            <ns3:hr>124</ns3:hr>
            <ns3:cad>0</ns3:cad>
          </ns3:TrackPointExtension>
        </extensions>
      </trkpt>
      <trkpt lat="52.164453528821468353271484375" lon="1.49649501778185367584228515625">
        <ele>-269.79998779296875</ele>
        <time>2025-09-06T10:46:58.000Z</time>
        <extensions>
          <ns3:TrackPointExtension>
            <ns3:hr>125</ns3:hr>
            <ns3:cad>0</ns3:cad>
          </ns3:TrackPointExtension>
        </extensions>
      </trkpt>
      <trkpt lat="52.16444757767021656036376953125" lon="1.49651647545397281646728515625">
        <ele>-270.20001220703125</ele>
        <time>2025-09-06T10:47:01.000Z</time>
        <extensions>
          <ns3:TrackPointExtension>
            <ns3:hr>128</ns3:hr>
            <ns3:cad>0</ns3:cad>
          </ns3:TrackPointExtension>
        </extensions>
      </trkpt>
      <trkpt lat="52.16444514691829681396484375" lon="1.49651982821524143218994140625">
        <ele>-270.399993896484375</ele>
        <time>2025-09-06T10:47:03.000Z</time>
        <extensions>
          <ns3:TrackPointExtension>
            <ns3:hr>132</ns3:hr>
            <ns3:cad>0</ns3:cad>
          </ns3:TrackPointExtension>
        </extensions>
      </trkpt>
      <trkpt lat="52.16443919576704502105712890625" lon="1.4965266175568103790283203125">
        <ele>-271</ele>
        <time>2025-09-06T10:47:07.000Z</time>
        <extensions>
          <ns3:TrackPointExtension>
            <ns3:hr>133</ns3:hr>
            <ns3:cad>0</ns3:cad>
          </ns3:TrackPointExtension>
        </extensions>
      </trkpt>
      <trkpt lat="52.16443366371095180511474609375" lon="1.4965252764523029327392578125">
        <ele>-271.79998779296875</ele>
        <time>2025-09-06T10:47:14.000Z</time>
        <extensions>
          <ns3:TrackPointExtension>
            <ns3:hr>131</ns3:hr>
            <ns3:cad>0</ns3:cad>
          </ns3:TrackPointExtension>
        </extensions>
      </trkpt>
      <trkpt lat="52.16443282552063465118408203125" lon="1.4965132065117359161376953125">
        <ele>-272</ele>
        <time>2025-09-06T10:47:16.000Z</time>
        <extensions>
          <ns3:TrackPointExtension>
            <ns3:hr>131</ns3:hr>
            <ns3:cad>0</ns3:cad>
          </ns3:TrackPointExtension>
        </extensions>
      </trkpt>
      <trkpt lat="52.16444112360477447509765625" lon="1.4965034835040569305419921875">
        <ele>-272.79998779296875</ele>
        <time>2025-09-06T10:47:23.000Z</time>
        <extensions>
          <ns3:TrackPointExtension>
            <ns3:hr>128</ns3:hr>
            <ns3:cad>0</ns3:cad>
          </ns3:TrackPointExtension>
        </extensions>
      </trkpt>
      <trkpt lat="52.16443852521479129791259765625" lon="1.49649585597217082977294921875">
        <ele>-273</ele>
        <time>2025-09-06T10:47:25.000Z</time>
        <extensions>
          <ns3:TrackPointExtension>
            <ns3:hr>127</ns3:hr>
            <ns3:cad>0</ns3:cad>
          </ns3:TrackPointExtension>
        </extensions>
      </trkpt>
      <trkpt lat="52.1644402854144573211669921875" lon="1.49649032391607761383056640625">
        <ele>-273.79998779296875</ele>
        <time>2025-09-06T10:47:31.000Z</time>
        <extensions>
          <ns3:TrackPointExtension>
            <ns3:hr>124</ns3:hr>
            <ns3:cad>0</ns3:cad>
          </ns3:TrackPointExtension>
        </extensions>
      </trkpt>
      <trkpt lat="52.16444254852831363677978515625" lon="1.49648881517350673675537109375">
        <ele>-274</ele>
        <time>2025-09-06T10:47:32.000Z</time>
        <extensions>
          <ns3:TrackPointExtension>
            <ns3:hr>125</ns3:hr>
            <ns3:cad>0</ns3:cad>
          </ns3:TrackPointExtension>
        </extensions>
      </trkpt>
      <trkpt lat="52.1644540317356586456298828125" lon="1.4965078420937061309814453125">
        <ele>-275</ele>
        <time>2025-09-06T10:47:36.000Z</time>
        <extensions>
          <ns3:TrackPointExtension>
            <ns3:hr>126</ns3:hr>
            <ns3:cad>0</ns3:cad>
          </ns3:TrackPointExtension>
        </extensions>
      </trkpt>
      <trkpt lat="52.164462246000766754150390625" lon="1.49651764892041683197021484375">
        <ele>-275.600006103515625</ele>
        <time>2025-09-06T10:47:38.000Z</time>
        <extensions>
          <ns3:TrackPointExtension>
            <ns3:hr>123</ns3:hr>
            <ns3:cad>0</ns3:cad>
          </ns3:TrackPointExtension>
        </extensions>
      </trkpt>
      <trkpt lat="52.16446266509592533111572265625" lon="1.49652443826198577880859375">
        <ele>-276.20001220703125</ele>
        <time>2025-09-06T10:47:40.000Z</time>
        <extensions>
          <ns3:TrackPointExtension>
            <ns3:hr>123</ns3:hr>
            <ns3:cad>0</ns3:cad>
          </ns3:TrackPointExtension>
        </extensions>
      </trkpt>
      <trkpt lat="52.1644667722284793853759765625" lon="1.496525108814239501953125">
        <ele>-277.399993896484375</ele>
        <time>2025-09-06T10:47:44.000Z</time>
        <extensions>
          <ns3:TrackPointExtension>
            <ns3:hr>122</ns3:hr>
            <ns3:cad>0</ns3:cad>
          </ns3:TrackPointExtension>
        </extensions>
      </trkpt>
      <trkpt lat="52.16446920298039913177490234375" lon="1.496540196239948272705078125">
        <ele>-278.20001220703125</ele>
        <time>2025-09-06T10:47:47.000Z</time>
        <extensions>
          <ns3:TrackPointExtension>
            <ns3:hr>118</ns3:hr>
            <ns3:cad>0</ns3:cad>
          </ns3:TrackPointExtension>
        </extensions>
      </trkpt>
      <trkpt lat="52.16446853242814540863037109375" lon="1.496534831821918487548828125">
        <ele>-278.600006103515625</ele>
        <time>2025-09-06T10:47:48.000Z</time>
        <extensions>
          <ns3:TrackPointExtension>
            <ns3:hr>117</ns3:hr>
            <ns3:cad>0</ns3:cad>
          </ns3:TrackPointExtension>
        </extensions>
      </trkpt>
      <trkpt lat="52.16446735896170139312744140625" lon="1.496535502374172210693359375">
        <ele>-279.600006103515625</ele>
        <time>2025-09-06T10:47:52.000Z</time>
        <extensions>
          <ns3:TrackPointExtension>
            <ns3:hr>115</ns3:hr>
            <ns3:cad>0</ns3:cad>
          </ns3:TrackPointExtension>
        </extensions>
      </trkpt>
      <trkpt lat="52.16447356157004833221435546875" lon="1.49652720429003238677978515625">
        <ele>-280.600006103515625</ele>
        <time>2025-09-06T10:47:56.000Z</time>
        <extensions>
          <ns3:TrackPointExtension>
            <ns3:hr>116</ns3:hr>
            <ns3:cad>0</ns3:cad>
          </ns3:TrackPointExtension>
        </extensions>
      </trkpt>
      <trkpt lat="52.164465598762035369873046875" lon="1.49651614017784595489501953125">
        <ele>-281.79998779296875</ele>
        <time>2025-09-06T10:48:00.000Z</time>
        <extensions>
          <ns3:TrackPointExtension>
            <ns3:hr>117</ns3:hr>
            <ns3:cad>0</ns3:cad>
          </ns3:TrackPointExtension>
        </extensions>
      </trkpt>
      <trkpt lat="52.164467275142669677734375" lon="1.49651731364428997039794921875">
        <ele>-282.20001220703125</ele>
        <time>2025-09-06T10:48:02.000Z</time>
        <extensions>
          <ns3:TrackPointExtension>
            <ns3:hr>118</ns3:hr>
            <ns3:cad>0</ns3:cad>
          </ns3:TrackPointExtension>
        </extensions>
      </trkpt>
      <trkpt lat="52.16445964761078357696533203125" lon="1.49652577936649322509765625">
        <ele>-282.79998779296875</ele>
        <time>2025-09-06T10:48:05.000Z</time>
        <extensions>
          <ns3:TrackPointExtension>
            <ns3:hr>122</ns3:hr>
            <ns3:cad>0</ns3:cad>
          </ns3:TrackPointExtension>
        </extensions>
      </trkpt>
      <trkpt lat="52.16445160098373889923095703125" lon="1.496539525687694549560546875">
        <ele>-283.600006103515625</ele>
        <time>2025-09-06T10:48:09.000Z</time>
        <extensions>
          <ns3:TrackPointExtension>
            <ns3:hr>126</ns3:hr>
            <ns3:cad>0</ns3:cad>
          </ns3:TrackPointExtension>
        </extensions>
      </trkpt>
      <trkpt lat="52.16445126570761203765869140625" lon="1.4965393580496311187744140625">
        <ele>-283.79998779296875</ele>
        <time>2025-09-06T10:48:10.000Z</time>
        <extensions>
          <ns3:TrackPointExtension>
            <ns3:hr>127</ns3:hr>
            <ns3:cad>0</ns3:cad>
          </ns3:TrackPointExtension>
        </extensions>
      </trkpt>
      <trkpt lat="52.16444992460310459136962890625" lon="1.4965413697063922882080078125">
        <ele>-284.20001220703125</ele>
        <time>2025-09-06T10:48:12.000Z</time>
        <extensions>
          <ns3:TrackPointExtension>
            <ns3:hr>131</ns3:hr>
            <ns3:cad>0</ns3:cad>
          </ns3:TrackPointExtension>
        </extensions>
      </trkpt>
      <trkpt lat="52.16444321908056735992431640625" lon="1.49654782377183437347412109375">
        <ele>-285</ele>
        <time>2025-09-06T10:48:16.000Z</time>
        <extensions>
          <ns3:TrackPointExtension>
            <ns3:hr>132</ns3:hr>
            <ns3:cad>0</ns3:cad>
          </ns3:TrackPointExtension>
        </extensions>
      </trkpt>
      <trkpt lat="52.1644406206905841827392578125" lon="1.49655528366565704345703125">
        <ele>-286</ele>
        <time>2025-09-06T10:48:20.000Z</time>
        <extensions>
          <ns3:TrackPointExtension>
            <ns3:hr>132</ns3:hr>
            <ns3:cad>0</ns3:cad>
          </ns3:TrackPointExtension>
        </extensions>
      </trkpt>
      <trkpt lat="52.16443969868123531341552734375" lon="1.496561653912067413330078125">
        <ele>-286.20001220703125</ele>
        <time>2025-09-06T10:48:21.000Z</time>
        <extensions>
          <ns3:TrackPointExtension>
            <ns3:hr>132</ns3:hr>
            <ns3:cad>0</ns3:cad>
          </ns3:TrackPointExtension>
        </extensions>
      </trkpt>
      <trkpt lat="52.1644459851086139678955078125" lon="1.49657464586198329925537109375">
        <ele>-287.20001220703125</ele>
        <time>2025-09-06T10:48:25.000Z</time>
        <extensions>
          <ns3:TrackPointExtension>
            <ns3:hr>132</ns3:hr>
            <ns3:cad>0</ns3:cad>
          </ns3:TrackPointExtension>
        </extensions>
      </trkpt>
      <trkpt lat="52.164444141089916229248046875" lon="1.4965862967073917388916015625">
        <ele>-288.20001220703125</ele>
        <time>2025-09-06T10:48:29.000Z</time>
        <extensions>
          <ns3:TrackPointExtension>
            <ns3:hr>133</ns3:hr>
            <ns3:cad>0</ns3:cad>
          </ns3:TrackPointExtension>
        </extensions>
      </trkpt>
      <trkpt lat="52.16445378027856349945068359375" lon="1.49658403359353542327880859375">
        <ele>-289</ele>
        <time>2025-09-06T10:48:32.000Z</time>
        <extensions>
          <ns3:TrackPointExtension>
            <ns3:hr>130</ns3:hr>
            <ns3:cad>0</ns3:cad>
          </ns3:TrackPointExtension>
        </extensions>
      </trkpt>
      <trkpt lat="52.16445579193532466888427734375" lon="1.496583782136440277099609375">
        <ele>-289.399993896484375</ele>
        <time>2025-09-06T10:48:33.000Z</time>
        <extensions>
          <ns3:TrackPointExtension>
            <ns3:hr>131</ns3:hr>
            <ns3:cad>0</ns3:cad>
          </ns3:TrackPointExtension>
        </extensions>
      </trkpt>
      <trkpt lat="52.16445947997272014617919921875" lon="1.4965693652629852294921875">
        <ele>-290.399993896484375</ele>
        <time>2025-09-06T10:48:37.000Z</time>
        <extensions>
          <ns3:TrackPointExtension>
            <ns3:hr>131</ns3:hr>
            <ns3:cad>0</ns3:cad>
          </ns3:TrackPointExtension>
        </extensions>
      </trkpt>
      <trkpt lat="52.16445981524884700775146484375" lon="1.49656374938786029815673828125">
        <ele>-290.600006103515625</ele>
        <time>2025-09-06T10:48:38.000Z</time>
        <extensions>
          <ns3:TrackPointExtension>
            <ns3:hr>132</ns3:hr>
            <ns3:cad>0</ns3:cad>
          </ns3:TrackPointExtension>
        </extensions>
      </trkpt>
      <trkpt lat="52.16445998288691043853759765625" lon="1.49655260145664215087890625">
        <ele>-291.600006103515625</ele>
        <time>2025-09-06T10:48:43.000Z</time>
        <extensions>
          <ns3:TrackPointExtension>
            <ns3:hr>130</ns3:hr>
            <ns3:cad>0</ns3:cad>
          </ns3:TrackPointExtension>
        </extensions>
      </trkpt>
      <trkpt lat="52.16445478610694408416748046875" lon="1.49654916487634181976318359375">
        <ele>-292.79998779296875</ele>
        <time>2025-09-06T10:48:48.000Z</time>
        <extensions>
          <ns3:TrackPointExtension>
            <ns3:hr>130</ns3:hr>
            <ns3:cad>0</ns3:cad>
          </ns3:TrackPointExtension>
        </extensions>
      </trkpt>
      <trkpt lat="52.16444556601345539093017578125" lon="1.496553607285022735595703125">
        <ele>-294</ele>
        <time>2025-09-06T10:48:53.000Z</time>
        <extensions>
          <ns3:TrackPointExtension>
            <ns3:hr>129</ns3:hr>
            <ns3:cad>0</ns3:cad>
          </ns3:TrackPointExtension>
        </extensions>
      </trkpt>
      <trkpt lat="52.164446823298931121826171875" lon="1.496556960046291351318359375">
        <ele>-294.399993896484375</ele>
        <time>2025-09-06T10:48:55.000Z</time>
        <extensions>
          <ns3:TrackPointExtension>
            <ns3:hr>128</ns3:hr>
            <ns3:cad>0</ns3:cad>
          </ns3:TrackPointExtension>
        </extensions>
      </trkpt>
      <trkpt lat="52.16445679776370525360107421875" lon="1.49655788205564022064208984375">
        <ele>-295.20001220703125</ele>
        <time>2025-09-06T10:48:58.000Z</time>
        <extensions>
          <ns3:TrackPointExtension>
            <ns3:hr>126</ns3:hr>
            <ns3:cad>0</ns3:cad>
          </ns3:TrackPointExtension>
        </extensions>
      </trkpt>
      <trkpt lat="52.16448965482413768768310546875" lon="1.49655184708535671234130859375">
        <ele>-296.399993896484375</ele>
        <time>2025-09-06T10:49:03.000Z</time>
        <extensions>
          <ns3:TrackPointExtension>
            <ns3:hr>122</ns3:hr>
            <ns3:cad>0</ns3:cad>
          </ns3:TrackPointExtension>
        </extensions>
      </trkpt>
      <trkpt lat="52.16451060958206653594970703125" lon="1.49654413573443889617919921875">
        <ele>-297.20001220703125</ele>
        <time>2025-09-06T10:49:07.000Z</time>
        <extensions>
          <ns3:TrackPointExtension>
            <ns3:hr>119</ns3:hr>
            <ns3:cad>0</ns3:cad>
          </ns3:TrackPointExtension>
        </extensions>
      </trkpt>
      <trkpt lat="52.164515219628810882568359375" lon="1.49654396809637546539306640625">
        <ele>-297.399993896484375</ele>
        <time>2025-09-06T10:49:08.000Z</time>
        <extensions>
          <ns3:TrackPointExtension>
            <ns3:hr>119</ns3:hr>
            <ns3:cad>0</ns3:cad>
          </ns3:TrackPointExtension>
        </extensions>
      </trkpt>
      <trkpt lat="52.16466818936169147491455078125" lon="1.49653893895447254180908203125">
        <ele>-304.399993896484375</ele>
        <time>2025-09-06T10:59:46.000Z</time>
        <extensions>
          <ns3:TrackPointExtension>
            <ns3:hr>106</ns3:hr>
            <ns3:cad>55</ns3:cad>
          </ns3:TrackPointExtension>
        </extensions>
      </trkpt>
      <trkpt lat="52.1646927483379840850830078125" lon="1.4965963549911975860595703125">
        <ele>-304.399993896484375</ele>
        <time>2025-09-06T10:59:50.000Z</time>
        <extensions>
          <ns3:TrackPointExtension>
            <ns3:hr>103</ns3:hr>
            <ns3:cad>0</ns3:cad>
          </ns3:TrackPointExtension>
        </extensions>
      </trkpt>
      <trkpt lat="52.16470205225050449371337890625" lon="1.4966094307601451873779296875">
        <ele>-304.399993896484375</ele>
        <time>2025-09-06T10:59:51.000Z</time>
        <extensions>
          <ns3:TrackPointExtension>
            <ns3:hr>102</ns3:hr>
            <ns3:cad>0</ns3:cad>
          </ns3:TrackPointExtension>
        </extensions>
      </trkpt>
      <trkpt lat="52.16469920240342617034912109375" lon="1.4966613985598087310791015625">
        <ele>-304.399993896484375</ele>
        <time>2025-09-06T10:59:55.000Z</time>
        <extensions>
          <ns3:TrackPointExtension>
            <ns3:hr>105</ns3:hr>
            <ns3:cad>0</ns3:cad>
          </ns3:TrackPointExtension>
        </extensions>
      </trkpt>
      <trkpt lat="52.16470255516469478607177734375" lon="1.49666600860655307769775390625">
        <ele>-304.399993896484375</ele>
        <time>2025-09-06T10:59:56.000Z</time>
        <extensions>
          <ns3:TrackPointExtension>
            <ns3:hr>105</ns3:hr>
            <ns3:cad>0</ns3:cad>
          </ns3:TrackPointExtension>
        </extensions>
      </trkpt>
      <trkpt lat="52.1647135354578495025634765625" lon="1.4966496638953685760498046875">
        <ele>-304</ele>
        <time>2025-09-06T11:00:04.000Z</time>
        <extensions>
          <ns3:TrackPointExtension>
            <ns3:hr>102</ns3:hr>
            <ns3:cad>0</ns3:cad>
          </ns3:TrackPointExtension>
        </extensions>
      </trkpt>
      <trkpt lat="52.16471931897103786468505859375" lon="1.49664941243827342987060546875">
        <ele>-304</ele>
        <time>2025-09-06T11:00:05.000Z</time>
        <extensions>
          <ns3:TrackPointExtension>
            <ns3:hr>102</ns3:hr>
            <ns3:cad>0</ns3:cad>
          </ns3:TrackPointExtension>
        </extensions>
      </trkpt>
      <trkpt lat="52.16473658569157123565673828125" lon="1.49665184319019317626953125">
        <ele>-303.600006103515625</ele>
        <time>2025-09-06T11:00:08.000Z</time>
        <extensions>
          <ns3:TrackPointExtension>
            <ns3:hr>107</ns3:hr>
            <ns3:cad>0</ns3:cad>
          </ns3:TrackPointExtension>
        </extensions>
      </trkpt>
      <trkpt lat="52.1647349931299686431884765625" lon="1.49665444158017635345458984375">
        <ele>-303.600006103515625</ele>
        <time>2025-09-06T11:00:09.000Z</time>
        <extensions>
          <ns3:TrackPointExtension>
            <ns3:hr>104</ns3:hr>
            <ns3:cad>0</ns3:cad>
          </ns3:TrackPointExtension>
        </extensions>
      </trkpt>
      <trkpt lat="52.164731808006763458251953125" lon="1.49665393866598606109619140625">
        <ele>-303.399993896484375</ele>
        <time>2025-09-06T11:00:10.000Z</time>
        <extensions>
          <ns3:TrackPointExtension>
            <ns3:hr>105</ns3:hr>
            <ns3:cad>0</ns3:cad>
          </ns3:TrackPointExtension>
        </extensions>
      </trkpt>
      <trkpt lat="52.16473440639674663543701171875" lon="1.49665628559887409210205078125">
        <ele>-303</ele>
        <time>2025-09-06T11:00:12.000Z</time>
        <extensions>
          <ns3:TrackPointExtension>
            <ns3:hr>104</ns3:hr>
            <ns3:cad>0</ns3:cad>
          </ns3:TrackPointExtension>
        </extensions>
      </trkpt>
      <trkpt lat="52.16472535394132137298583984375" lon="1.4966617338359355926513671875">
        <ele>-302.20001220703125</ele>
        <time>2025-09-06T11:00:15.000Z</time>
        <extensions>
          <ns3:TrackPointExtension>
            <ns3:hr>107</ns3:hr>
            <ns3:cad>0</ns3:cad>
          </ns3:TrackPointExtension>
        </extensions>
      </trkpt>
      <trkpt lat="52.16472485102713108062744140625" lon="1.4966546930372714996337890625">
        <ele>-301.399993896484375</ele>
        <time>2025-09-06T11:00:18.000Z</time>
        <extensions>
          <ns3:TrackPointExtension>
            <ns3:hr>105</ns3:hr>
            <ns3:cad>0</ns3:cad>
          </ns3:TrackPointExtension>
        </extensions>
      </trkpt>
      <trkpt lat="52.1647256053984165191650390625" lon="1.49665360338985919952392578125">
        <ele>-301</ele>
        <time>2025-09-06T11:00:19.000Z</time>
        <extensions>
          <ns3:TrackPointExtension>
            <ns3:hr>102</ns3:hr>
            <ns3:cad>0</ns3:cad>
          </ns3:TrackPointExtension>
        </extensions>
      </trkpt>
      <trkpt lat="52.1647296287119388580322265625" lon="1.49665452539920806884765625">
        <ele>-300.600006103515625</ele>
        <time>2025-09-06T11:00:21.000Z</time>
        <extensions>
          <ns3:TrackPointExtension>
            <ns3:hr>105</ns3:hr>
            <ns3:cad>0</ns3:cad>
          </ns3:TrackPointExtension>
        </extensions>
      </trkpt>
      <trkpt lat="52.16472568921744823455810546875" lon="1.4966520108282566070556640625">
        <ele>-300</ele>
        <time>2025-09-06T11:00:23.000Z</time>
        <extensions>
          <ns3:TrackPointExtension>
            <ns3:hr>106</ns3:hr>
            <ns3:cad>0</ns3:cad>
          </ns3:TrackPointExtension>
        </extensions>
      </trkpt>
      <trkpt lat="52.16472677886486053466796875" lon="1.49664807133376598358154296875">
        <ele>-299</ele>
        <time>2025-09-06T11:00:27.000Z</time>
        <extensions>
          <ns3:TrackPointExtension>
            <ns3:hr>106</ns3:hr>
            <ns3:cad>0</ns3:cad>
          </ns3:TrackPointExtension>
        </extensions>
      </trkpt>
      <trkpt lat="52.16472367756068706512451171875" lon="1.4966489933431148529052734375">
        <ele>-298.79998779296875</ele>
        <time>2025-09-06T11:00:28.000Z</time>
        <extensions>
          <ns3:TrackPointExtension>
            <ns3:hr>107</ns3:hr>
            <ns3:cad>0</ns3:cad>
          </ns3:TrackPointExtension>
        </extensions>
      </trkpt>
      <trkpt lat="52.16472275555133819580078125" lon="1.4966498315334320068359375">
        <ele>-298</ele>
        <time>2025-09-06T11:00:31.000Z</time>
        <extensions>
          <ns3:TrackPointExtension>
            <ns3:hr>107</ns3:hr>
            <ns3:cad>0</ns3:cad>
          </ns3:TrackPointExtension>
        </extensions>
      </trkpt>
      <trkpt lat="52.16471781022846698760986328125" lon="1.49665259756147861480712890625">
        <ele>-297</ele>
        <time>2025-09-06T11:00:35.000Z</time>
        <extensions>
          <ns3:TrackPointExtension>
            <ns3:hr>107</ns3:hr>
            <ns3:cad>0</ns3:cad>
          </ns3:TrackPointExtension>
        </extensions>
      </trkpt>
      <trkpt lat="52.1647180616855621337890625" lon="1.496646143496036529541015625">
        <ele>-296.399993896484375</ele>
        <time>2025-09-06T11:00:37.000Z</time>
        <extensions>
          <ns3:TrackPointExtension>
            <ns3:hr>107</ns3:hr>
            <ns3:cad>0</ns3:cad>
          </ns3:TrackPointExtension>
        </extensions>
      </trkpt>
      <trkpt lat="52.1647195704281330108642578125" lon="1.49663868360221385955810546875">
        <ele>-296</ele>
        <time>2025-09-06T11:00:39.000Z</time>
        <extensions>
          <ns3:TrackPointExtension>
            <ns3:hr>108</ns3:hr>
            <ns3:cad>0</ns3:cad>
          </ns3:TrackPointExtension>
        </extensions>
      </trkpt>
      <trkpt lat="52.1647261083126068115234375" lon="1.49662761949002742767333984375">
        <ele>-294.79998779296875</ele>
        <time>2025-09-06T11:00:43.000Z</time>
        <extensions>
          <ns3:TrackPointExtension>
            <ns3:hr>110</ns3:hr>
            <ns3:cad>0</ns3:cad>
          </ns3:TrackPointExtension>
        </extensions>
      </trkpt>
      <trkpt lat="52.1647343225777149200439453125" lon="1.496626026928424835205078125">
        <ele>-293.79998779296875</ele>
        <time>2025-09-06T11:00:47.000Z</time>
        <extensions>
          <ns3:TrackPointExtension>
            <ns3:hr>109</ns3:hr>
            <ns3:cad>0</ns3:cad>
          </ns3:TrackPointExtension>
        </extensions>
      </trkpt>
      <trkpt lat="52.1647447161376476287841796875" lon="1.496639437973499298095703125">
        <ele>-292.399993896484375</ele>
        <time>2025-09-06T11:00:51.000Z</time>
        <extensions>
          <ns3:TrackPointExtension>
            <ns3:hr>109</ns3:hr>
            <ns3:cad>0</ns3:cad>
          </ns3:TrackPointExtension>
        </extensions>
      </trkpt>
      <trkpt lat="52.16474530287086963653564453125" lon="1.496640108525753021240234375">
        <ele>-292.20001220703125</ele>
        <time>2025-09-06T11:00:52.000Z</time>
        <extensions>
          <ns3:TrackPointExtension>
            <ns3:hr>108</ns3:hr>
            <ns3:cad>0</ns3:cad>
          </ns3:TrackPointExtension>
        </extensions>
      </trkpt>
      <trkpt lat="52.16474479995667934417724609375" lon="1.4966426230967044830322265625">
        <ele>-291.399993896484375</ele>
        <time>2025-09-06T11:00:54.000Z</time>
        <extensions>
          <ns3:TrackPointExtension>
            <ns3:hr>108</ns3:hr>
            <ns3:cad>0</ns3:cad>
          </ns3:TrackPointExtension>
        </extensions>
      </trkpt>
      <trkpt lat="52.16474010609090328216552734375" lon="1.496645472943782806396484375">
        <ele>-290.399993896484375</ele>
        <time>2025-09-06T11:00:57.000Z</time>
        <extensions>
          <ns3:TrackPointExtension>
            <ns3:hr>107</ns3:hr>
            <ns3:cad>0</ns3:cad>
          </ns3:TrackPointExtension>
        </extensions>
      </trkpt>
      <trkpt lat="52.16473658569157123565673828125" lon="1.49663843214511871337890625">
        <ele>-289.399993896484375</ele>
        <time>2025-09-06T11:01:00.000Z</time>
        <extensions>
          <ns3:TrackPointExtension>
            <ns3:hr>106</ns3:hr>
            <ns3:cad>0</ns3:cad>
          </ns3:TrackPointExtension>
        </extensions>
      </trkpt>
      <trkpt lat="52.1647302992641925811767578125" lon="1.49662912823259830474853515625">
        <ele>-288.399993896484375</ele>
        <time>2025-09-06T11:01:03.000Z</time>
        <extensions>
          <ns3:TrackPointExtension>
            <ns3:hr>106</ns3:hr>
            <ns3:cad>0</ns3:cad>
          </ns3:TrackPointExtension>
        </extensions>
      </trkpt>
      <trkpt lat="52.16472200118005275726318359375" lon="1.49662435054779052734375">
        <ele>-287.20001220703125</ele>
        <time>2025-09-06T11:01:06.000Z</time>
        <extensions>
          <ns3:TrackPointExtension>
            <ns3:hr>107</ns3:hr>
            <ns3:cad>0</ns3:cad>
          </ns3:TrackPointExtension>
        </extensions>
      </trkpt>
      <trkpt lat="52.16471881605684757232666015625" lon="1.496621668338775634765625">
        <ele>-286.20001220703125</ele>
        <time>2025-09-06T11:01:09.000Z</time>
        <extensions>
          <ns3:TrackPointExtension>
            <ns3:hr>107</ns3:hr>
            <ns3:cad>0</ns3:cad>
          </ns3:TrackPointExtension>
        </extensions>
      </trkpt>
      <trkpt lat="52.164719738066196441650390625" lon="1.49662644602358341217041015625">
        <ele>-285.20001220703125</ele>
        <time>2025-09-06T11:01:12.000Z</time>
        <extensions>
          <ns3:TrackPointExtension>
            <ns3:hr>108</ns3:hr>
            <ns3:cad>0</ns3:cad>
          </ns3:TrackPointExtension>
        </extensions>
      </trkpt>
      <trkpt lat="52.16472434811294078826904296875" lon="1.49661965668201446533203125">
        <ele>-284</ele>
        <time>2025-09-06T11:01:15.000Z</time>
        <extensions>
          <ns3:TrackPointExtension>
            <ns3:hr>105</ns3:hr>
            <ns3:cad>0</ns3:cad>
          </ns3:TrackPointExtension>
        </extensions>
      </trkpt>
      <trkpt lat="52.16472501866519451141357421875" lon="1.49662233889102935791015625">
        <ele>-283</ele>
        <time>2025-09-06T11:01:18.000Z</time>
        <extensions>
          <ns3:TrackPointExtension>
            <ns3:hr>101</ns3:hr>
            <ns3:cad>0</ns3:cad>
          </ns3:TrackPointExtension>
        </extensions>
      </trkpt>
      <trkpt lat="52.16472602449357509613037109375" lon="1.49662661366164684295654296875">
        <ele>-282</ele>
        <time>2025-09-06T11:01:21.000Z</time>
        <extensions>
          <ns3:TrackPointExtension>
            <ns3:hr>102</ns3:hr>
            <ns3:cad>0</ns3:cad>
          </ns3:TrackPointExtension>
        </extensions>
      </trkpt>
      <trkpt lat="52.1647276170551776885986328125" lon="1.49662644602358341217041015625">
        <ele>-281.399993896484375</ele>
        <time>2025-09-06T11:01:23.000Z</time>
        <extensions>
          <ns3:TrackPointExtension>
            <ns3:hr>101</ns3:hr>
            <ns3:cad>0</ns3:cad>
          </ns3:TrackPointExtension>
        </extensions>
      </trkpt>
      <trkpt lat="52.16472770087420940399169921875" lon="1.4966295473277568817138671875">
        <ele>-280.79998779296875</ele>
        <time>2025-09-06T11:01:25.000Z</time>
        <extensions>
          <ns3:TrackPointExtension>
            <ns3:hr>99</ns3:hr>
            <ns3:cad>0</ns3:cad>
          </ns3:TrackPointExtension>
        </extensions>
      </trkpt>
      <trkpt lat="52.16472007334232330322265625" lon="1.4966469816863536834716796875">
        <ele>-279.600006103515625</ele>
        <time>2025-09-06T11:01:30.000Z</time>
        <extensions>
          <ns3:TrackPointExtension>
            <ns3:hr>100</ns3:hr>
            <ns3:cad>0</ns3:cad>
          </ns3:TrackPointExtension>
        </extensions>
      </trkpt>
      <trkpt lat="52.16471294872462749481201171875" lon="1.49665762670338153839111328125">
        <ele>-278.600006103515625</ele>
        <time>2025-09-06T11:01:35.000Z</time>
        <extensions>
          <ns3:TrackPointExtension>
            <ns3:hr>99</ns3:hr>
            <ns3:cad>0</ns3:cad>
          </ns3:TrackPointExtension>
        </extensions>
      </trkpt>
      <trkpt lat="52.164712361991405487060546875" lon="1.49666181765496730804443359375">
        <ele>-277.600006103515625</ele>
        <time>2025-09-06T11:01:40.000Z</time>
        <extensions>
          <ns3:TrackPointExtension>
            <ns3:hr>98</ns3:hr>
            <ns3:cad>0</ns3:cad>
          </ns3:TrackPointExtension>
        </extensions>
      </trkpt>
      <trkpt lat="52.16470708139240741729736328125" lon="1.49665712378919124603271484375">
        <ele>-276.399993896484375</ele>
        <time>2025-09-06T11:01:45.000Z</time>
        <extensions>
          <ns3:TrackPointExtension>
            <ns3:hr>99</ns3:hr>
            <ns3:cad>0</ns3:cad>
          </ns3:TrackPointExtension>
        </extensions>
      </trkpt>
      <trkpt lat="52.16470532119274139404296875" lon="1.49665729142725467681884765625">
        <ele>-276</ele>
        <time>2025-09-06T11:01:47.000Z</time>
        <extensions>
          <ns3:TrackPointExtension>
            <ns3:hr>102</ns3:hr>
            <ns3:cad>0</ns3:cad>
          </ns3:TrackPointExtension>
        </extensions>
      </trkpt>
      <trkpt lat="52.16470062732696533203125" lon="1.49666081182658672332763671875">
        <ele>-275.399993896484375</ele>
        <time>2025-09-06T11:01:50.000Z</time>
        <extensions>
          <ns3:TrackPointExtension>
            <ns3:hr>99</ns3:hr>
            <ns3:cad>0</ns3:cad>
          </ns3:TrackPointExtension>
        </extensions>
      </trkpt>
      <trkpt lat="52.16470289044082164764404296875" lon="1.496669948101043701171875">
        <ele>-274.20001220703125</ele>
        <time>2025-09-06T11:01:55.000Z</time>
        <extensions>
          <ns3:TrackPointExtension>
            <ns3:hr>100</ns3:hr>
            <ns3:cad>0</ns3:cad>
          </ns3:TrackPointExtension>
        </extensions>
      </trkpt>
      <trkpt lat="52.164703309535980224609375" lon="1.49668277241289615631103515625">
        <ele>-273.20001220703125</ele>
        <time>2025-09-06T11:01:59.000Z</time>
        <extensions>
          <ns3:TrackPointExtension>
            <ns3:hr>101</ns3:hr>
            <ns3:cad>0</ns3:cad>
          </ns3:TrackPointExtension>
        </extensions>
      </trkpt>
      <trkpt lat="52.16470398008823394775390625" lon="1.49668428115546703338623046875">
        <ele>-273</ele>
        <time>2025-09-06T11:02:00.000Z</time>
        <extensions>
          <ns3:TrackPointExtension>
            <ns3:hr>100</ns3:hr>
            <ns3:cad>0</ns3:cad>
          </ns3:TrackPointExtension>
        </extensions>
      </trkpt>
      <trkpt lat="52.16469752602279186248779296875" lon="1.49668243713676929473876953125">
        <ele>-271.79998779296875</ele>
        <time>2025-09-06T11:02:05.000Z</time>
        <extensions>
          <ns3:TrackPointExtension>
            <ns3:hr>101</ns3:hr>
            <ns3:cad>0</ns3:cad>
          </ns3:TrackPointExtension>
        </extensions>
      </trkpt>
      <trkpt lat="52.16469299979507923126220703125" lon="1.49669316597282886505126953125">
        <ele>-270.600006103515625</ele>
        <time>2025-09-06T11:02:10.000Z</time>
        <extensions>
          <ns3:TrackPointExtension>
            <ns3:hr>101</ns3:hr>
            <ns3:cad>0</ns3:cad>
          </ns3:TrackPointExtension>
        </extensions>
      </trkpt>
      <trkpt lat="52.1646987833082675933837890625" lon="1.49669744074344635009765625">
        <ele>-270.20001220703125</ele>
        <time>2025-09-06T11:02:12.000Z</time>
        <extensions>
          <ns3:TrackPointExtension>
            <ns3:hr>103</ns3:hr>
            <ns3:cad>0</ns3:cad>
          </ns3:TrackPointExtension>
        </extensions>
      </trkpt>
      <trkpt lat="52.1647059917449951171875" lon="1.496685035526752471923828125">
        <ele>-269.600006103515625</ele>
        <time>2025-09-06T11:02:15.000Z</time>
        <extensions>
          <ns3:TrackPointExtension>
            <ns3:hr>104</ns3:hr>
            <ns3:cad>0</ns3:cad>
          </ns3:TrackPointExtension>
        </extensions>
      </trkpt>
      <trkpt lat="52.16471093706786632537841796875" lon="1.4966768212616443634033203125">
        <ele>-248.8000030517578125</ele>
        <time>2025-09-06T11:02:16.000Z</time>
        <extensions>
          <ns3:TrackPointExtension>
            <ns3:hr>103</ns3:hr>
            <ns3:cad>0</ns3:cad>
          </ns3:TrackPointExtension>
        </extensions>
      </trkpt>
      <trkpt lat="52.16470993123948574066162109375" lon="1.4966473169624805450439453125">
        <ele>-248.8000030517578125</ele>
        <time>2025-09-06T11:02:29.000Z</time>
        <extensions>
          <ns3:TrackPointExtension>
            <ns3:hr>104</ns3:hr>
            <ns3:cad>0</ns3:cad>
          </ns3:TrackPointExtension>
        </extensions>
      </trkpt>
      <trkpt lat="52.164687551558017730712890625" lon="1.49665142409503459930419921875">
        <ele>-248.8000030517578125</ele>
        <time>2025-09-06T11:02:46.000Z</time>
        <extensions>
          <ns3:TrackPointExtension>
            <ns3:hr>106</ns3:hr>
            <ns3:cad>0</ns3:cad>
          </ns3:TrackPointExtension>
        </extensions>
      </trkpt>
      <trkpt lat="52.16468495316803455352783203125" lon="1.49664924480020999908447265625">
        <ele>-248.8000030517578125</ele>
        <time>2025-09-06T11:02:48.000Z</time>
        <extensions>
          <ns3:TrackPointExtension>
            <ns3:hr>103</ns3:hr>
            <ns3:cad>0</ns3:cad>
          </ns3:TrackPointExtension>
        </extensions>
      </trkpt>
      <trkpt lat="52.1646957658231258392333984375" lon="1.49663574993610382080078125">
        <ele>-248.8000030517578125</ele>
        <time>2025-09-06T11:02:51.000Z</time>
        <extensions>
          <ns3:TrackPointExtension>
            <ns3:hr>106</ns3:hr>
            <ns3:cad>0</ns3:cad>
          </ns3:TrackPointExtension>
        </extensions>
      </trkpt>
      <trkpt lat="52.164696268737316131591796875" lon="1.49663683958351612091064453125">
        <ele>-248.8000030517578125</ele>
        <time>2025-09-06T11:02:52.000Z</time>
        <extensions>
          <ns3:TrackPointExtension>
            <ns3:hr>103</ns3:hr>
            <ns3:cad>0</ns3:cad>
          </ns3:TrackPointExtension>
        </extensions>
      </trkpt>
      <trkpt lat="52.1647046506404876708984375" lon="1.49666064418852329254150390625">
        <ele>-248.8000030517578125</ele>
        <time>2025-09-06T11:03:01.000Z</time>
        <extensions>
          <ns3:TrackPointExtension>
            <ns3:hr>106</ns3:hr>
            <ns3:cad>0</ns3:cad>
          </ns3:TrackPointExtension>
        </extensions>
      </trkpt>
      <trkpt lat="52.16471948660910129547119140625" lon="1.49669350124895572662353515625">
        <ele>-248.8000030517578125</ele>
        <time>2025-09-06T11:03:12.000Z</time>
        <extensions>
          <ns3:TrackPointExtension>
            <ns3:hr>106</ns3:hr>
            <ns3:cad>0</ns3:cad>
          </ns3:TrackPointExtension>
        </extensions>
      </trkpt>
      <trkpt lat="52.1647274494171142578125" lon="1.4967137016355991363525390625">
        <ele>-256.20001220703125</ele>
        <time>2025-09-06T11:03:17.000Z</time>
        <extensions>
          <ns3:TrackPointExtension>
            <ns3:hr>104</ns3:hr>
            <ns3:cad>0</ns3:cad>
          </ns3:TrackPointExtension>
        </extensions>
      </trkpt>
      <trkpt lat="52.16472937725484371185302734375" lon="1.49671378545463085174560546875">
        <ele>-255.1999969482421875</ele>
        <time>2025-09-06T11:03:26.000Z</time>
        <extensions>
          <ns3:TrackPointExtension>
            <ns3:hr>108</ns3:hr>
            <ns3:cad>0</ns3:cad>
          </ns3:TrackPointExtension>
        </extensions>
      </trkpt>
      <trkpt lat="52.16472904197871685028076171875" lon="1.49671646766364574432373046875">
        <ele>-254.8000030517578125</ele>
        <time>2025-09-06T11:03:28.000Z</time>
        <extensions>
          <ns3:TrackPointExtension>
            <ns3:hr>105</ns3:hr>
            <ns3:cad>0</ns3:cad>
          </ns3:TrackPointExtension>
        </extensions>
      </trkpt>
      <trkpt lat="52.164724767208099365234375" lon="1.496714539825916290283203125">
        <ele>-254</ele>
        <time>2025-09-06T11:03:33.000Z</time>
        <extensions>
          <ns3:TrackPointExtension>
            <ns3:hr>105</ns3:hr>
            <ns3:cad>0</ns3:cad>
          </ns3:TrackPointExtension>
        </extensions>
      </trkpt>
      <trkpt lat="52.16474697925150394439697265625" lon="1.49670423008501529693603515625">
        <ele>-253.8000030517578125</ele>
        <time>2025-09-06T11:03:36.000Z</time>
        <extensions>
          <ns3:TrackPointExtension>
            <ns3:hr>102</ns3:hr>
            <ns3:cad>0</ns3:cad>
          </ns3:TrackPointExtension>
        </extensions>
      </trkpt>
      <trkpt lat="52.16475117020308971405029296875" lon="1.49669551290571689605712890625">
        <ele>-253.399993896484375</ele>
        <time>2025-09-06T11:03:39.000Z</time>
        <extensions>
          <ns3:TrackPointExtension>
            <ns3:hr>109</ns3:hr>
            <ns3:cad>0</ns3:cad>
          </ns3:TrackPointExtension>
        </extensions>
      </trkpt>
      <trkpt lat="52.16475083492696285247802734375" lon="1.4967002905905246734619140625">
        <ele>-253.1999969482421875</ele>
        <time>2025-09-06T11:03:40.000Z</time>
        <extensions>
          <ns3:TrackPointExtension>
            <ns3:hr>111</ns3:hr>
            <ns3:cad>0</ns3:cad>
          </ns3:TrackPointExtension>
        </extensions>
      </trkpt>
      <trkpt lat="52.164751589298248291015625" lon="1.4967016316950321197509765625">
        <ele>-253</ele>
        <time>2025-09-06T11:03:43.000Z</time>
        <extensions>
          <ns3:TrackPointExtension>
            <ns3:hr>112</ns3:hr>
            <ns3:cad>0</ns3:cad>
          </ns3:TrackPointExtension>
        </extensions>
      </trkpt>
      <trkpt lat="52.16475737281143665313720703125" lon="1.4966865442693233489990234375">
        <ele>-251.8000030517578125</ele>
        <time>2025-09-06T11:03:52.000Z</time>
        <extensions>
          <ns3:TrackPointExtension>
            <ns3:hr>111</ns3:hr>
            <ns3:cad>0</ns3:cad>
          </ns3:TrackPointExtension>
        </extensions>
      </trkpt>
      <trkpt lat="52.164761312305927276611328125" lon="1.49666517041623592376708984375">
        <ele>-250.8000030517578125</ele>
        <time>2025-09-06T11:03:59.000Z</time>
        <extensions>
          <ns3:TrackPointExtension>
            <ns3:hr>110</ns3:hr>
            <ns3:cad>0</ns3:cad>
          </ns3:TrackPointExtension>
        </extensions>
      </trkpt>
      <trkpt lat="52.1647636592388153076171875" lon="1.49664991535246372222900390625">
        <ele>-249.600006103515625</ele>
        <time>2025-09-06T11:04:06.000Z</time>
        <extensions>
          <ns3:TrackPointExtension>
            <ns3:hr>110</ns3:hr>
            <ns3:cad>0</ns3:cad>
          </ns3:TrackPointExtension>
        </extensions>
      </trkpt>
      <trkpt lat="52.1647748909890651702880859375" lon="1.49663080461323261260986328125">
        <ele>-248.600006103515625</ele>
        <time>2025-09-06T11:04:12.000Z</time>
        <extensions>
          <ns3:TrackPointExtension>
            <ns3:hr>110</ns3:hr>
            <ns3:cad>0</ns3:cad>
          </ns3:TrackPointExtension>
        </extensions>
      </trkpt>
      <trkpt lat="52.1647775731980800628662109375" lon="1.49662326090037822723388671875">
        <ele>-248</ele>
        <time>2025-09-06T11:04:15.000Z</time>
        <extensions>
          <ns3:TrackPointExtension>
            <ns3:hr>110</ns3:hr>
            <ns3:cad>0</ns3:cad>
          </ns3:TrackPointExtension>
        </extensions>
      </trkpt>
      <trkpt lat="52.16477598063647747039794921875" lon="1.4966349117457866668701171875">
        <ele>-247.600006103515625</ele>
        <time>2025-09-06T11:04:18.000Z</time>
        <extensions>
          <ns3:TrackPointExtension>
            <ns3:hr>107</ns3:hr>
            <ns3:cad>0</ns3:cad>
          </ns3:TrackPointExtension>
        </extensions>
      </trkpt>
      <trkpt lat="52.1647705323994159698486328125" lon="1.49663315154612064361572265625">
        <ele>-246.600006103515625</ele>
        <time>2025-09-06T11:04:23.000Z</time>
        <extensions>
          <ns3:TrackPointExtension>
            <ns3:hr>110</ns3:hr>
            <ns3:cad>0</ns3:cad>
          </ns3:TrackPointExtension>
        </extensions>
      </trkpt>
      <trkpt lat="52.1647688560187816619873046875" lon="1.4966342411935329437255859375">
        <ele>-246.399993896484375</ele>
        <time>2025-09-06T11:04:24.000Z</time>
        <extensions>
          <ns3:TrackPointExtension>
            <ns3:hr>111</ns3:hr>
            <ns3:cad>0</ns3:cad>
          </ns3:TrackPointExtension>
        </extensions>
      </trkpt>
      <trkpt lat="52.1647705323994159698486328125" lon="1.49662770330905914306640625">
        <ele>-246.1999969482421875</ele>
        <time>2025-09-06T11:04:25.000Z</time>
        <extensions>
          <ns3:TrackPointExtension>
            <ns3:hr>107</ns3:hr>
            <ns3:cad>0</ns3:cad>
          </ns3:TrackPointExtension>
        </extensions>
      </trkpt>
      <trkpt lat="52.16477908194065093994140625" lon="1.4966176450252532958984375">
        <ele>-245.1999969482421875</ele>
        <time>2025-09-06T11:04:29.000Z</time>
        <extensions>
          <ns3:TrackPointExtension>
            <ns3:hr>104</ns3:hr>
            <ns3:cad>0</ns3:cad>
          </ns3:TrackPointExtension>
        </extensions>
      </trkpt>
      <trkpt lat="52.16477899812161922454833984375" lon="1.4966176450252532958984375">
        <ele>-245</ele>
        <time>2025-09-06T11:04:30.000Z</time>
        <extensions>
          <ns3:TrackPointExtension>
            <ns3:hr>105</ns3:hr>
            <ns3:cad>0</ns3:cad>
          </ns3:TrackPointExtension>
        </extensions>
      </trkpt>
      <trkpt lat="52.16478335671126842498779296875" lon="1.49661269970238208770751953125">
        <ele>-244</ele>
        <time>2025-09-06T11:04:34.000Z</time>
        <extensions>
          <ns3:TrackPointExtension>
            <ns3:hr>105</ns3:hr>
            <ns3:cad>0</ns3:cad>
          </ns3:TrackPointExtension>
        </extensions>
      </trkpt>
      <trkpt lat="52.1647822670638561248779296875" lon="1.49660867638885974884033203125">
        <ele>-243</ele>
        <time>2025-09-06T11:04:37.000Z</time>
        <extensions>
          <ns3:TrackPointExtension>
            <ns3:hr>104</ns3:hr>
            <ns3:cad>0</ns3:cad>
          </ns3:TrackPointExtension>
        </extensions>
      </trkpt>
      <trkpt lat="52.1647819317877292633056640625" lon="1.496605575084686279296875">
        <ele>-241.8000030517578125</ele>
        <time>2025-09-06T11:04:40.000Z</time>
        <extensions>
          <ns3:TrackPointExtension>
            <ns3:hr>103</ns3:hr>
            <ns3:cad>0</ns3:cad>
          </ns3:TrackPointExtension>
        </extensions>
      </trkpt>
      <trkpt lat="52.16477832756936550140380859375" lon="1.496601887047290802001953125">
        <ele>-240.600006103515625</ele>
        <time>2025-09-06T11:04:43.000Z</time>
        <extensions>
          <ns3:TrackPointExtension>
            <ns3:hr>103</ns3:hr>
            <ns3:cad>0</ns3:cad>
          </ns3:TrackPointExtension>
        </extensions>
      </trkpt>
      <trkpt lat="52.16477715410292148590087890625" lon="1.4966003783047199249267578125">
        <ele>-239.399993896484375</ele>
        <time>2025-09-06T11:04:46.000Z</time>
        <extensions>
          <ns3:TrackPointExtension>
            <ns3:hr>103</ns3:hr>
            <ns3:cad>0</ns3:cad>
          </ns3:TrackPointExtension>
        </extensions>
      </trkpt>
      <trkpt lat="52.16477715410292148590087890625" lon="1.49660079739987850189208984375">
        <ele>-238.8000030517578125</ele>
        <time>2025-09-06T11:04:47.000Z</time>
        <extensions>
          <ns3:TrackPointExtension>
            <ns3:hr>103</ns3:hr>
            <ns3:cad>0</ns3:cad>
          </ns3:TrackPointExtension>
        </extensions>
      </trkpt>
      <trkpt lat="52.16477665118873119354248046875" lon="1.4966003783047199249267578125">
        <ele>-238</ele>
        <time>2025-09-06T11:04:49.000Z</time>
        <extensions>
          <ns3:TrackPointExtension>
            <ns3:hr>101</ns3:hr>
            <ns3:cad>0</ns3:cad>
          </ns3:TrackPointExtension>
        </extensions>
      </trkpt>
      <trkpt lat="52.16477531008422374725341796875" lon="1.496599204838275909423828125">
        <ele>-236.399993896484375</ele>
        <time>2025-09-06T11:04:52.000Z</time>
        <extensions>
          <ns3:TrackPointExtension>
            <ns3:hr>99</ns3:hr>
            <ns3:cad>0</ns3:cad>
          </ns3:TrackPointExtension>
        </extensions>
      </trkpt>
      <trkpt lat="52.164773382246494293212890625" lon="1.49659777991473674774169921875">
        <ele>-235</ele>
        <time>2025-09-06T11:04:55.000Z</time>
        <extensions>
          <ns3:TrackPointExtension>
            <ns3:hr>101</ns3:hr>
            <ns3:cad>0</ns3:cad>
          </ns3:TrackPointExtension>
        </extensions>
      </trkpt>
      <trkpt lat="52.164770029485225677490234375" lon="1.4965935051441192626953125">
        <ele>-233.600006103515625</ele>
        <time>2025-09-06T11:04:58.000Z</time>
        <extensions>
          <ns3:TrackPointExtension>
            <ns3:hr>97</ns3:hr>
            <ns3:cad>0</ns3:cad>
          </ns3:TrackPointExtension>
        </extensions>
      </trkpt>
      <trkpt lat="52.16476374305784702301025390625" lon="1.49659727700054645538330078125">
        <ele>-232.399993896484375</ele>
        <time>2025-09-06T11:05:01.000Z</time>
        <extensions>
          <ns3:TrackPointExtension>
            <ns3:hr>99</ns3:hr>
            <ns3:cad>0</ns3:cad>
          </ns3:TrackPointExtension>
        </extensions>
      </trkpt>
      <trkpt lat="52.16476139612495899200439453125" lon="1.49660096503794193267822265625">
        <ele>-231</ele>
        <time>2025-09-06T11:05:04.000Z</time>
        <extensions>
          <ns3:TrackPointExtension>
            <ns3:hr>99</ns3:hr>
            <ns3:cad>0</ns3:cad>
          </ns3:TrackPointExtension>
        </extensions>
      </trkpt>
      <trkpt lat="52.16476164758205413818359375" lon="1.4966013841331005096435546875">
        <ele>-230.600006103515625</ele>
        <time>2025-09-06T11:05:05.000Z</time>
        <extensions>
          <ns3:TrackPointExtension>
            <ns3:hr>99</ns3:hr>
            <ns3:cad>0</ns3:cad>
          </ns3:TrackPointExtension>
        </extensions>
      </trkpt>
      <trkpt lat="52.16476156376302242279052734375" lon="1.4965930022299289703369140625">
        <ele>-229.8000030517578125</ele>
        <time>2025-09-06T11:05:07.000Z</time>
        <extensions>
          <ns3:TrackPointExtension>
            <ns3:hr>99</ns3:hr>
            <ns3:cad>0</ns3:cad>
          </ns3:TrackPointExtension>
        </extensions>
      </trkpt>
      <trkpt lat="52.16475821100175380706787109375" lon="1.4965980313718318939208984375">
        <ele>-228.8000030517578125</ele>
        <time>2025-09-06T11:05:09.000Z</time>
        <extensions>
          <ns3:TrackPointExtension>
            <ns3:hr>102</ns3:hr>
            <ns3:cad>0</ns3:cad>
          </ns3:TrackPointExtension>
        </extensions>
      </trkpt>
      <trkpt lat="52.16475787572562694549560546875" lon="1.496598534286022186279296875">
        <ele>-228.399993896484375</ele>
        <time>2025-09-06T11:05:10.000Z</time>
        <extensions>
          <ns3:TrackPointExtension>
            <ns3:hr>100</ns3:hr>
            <ns3:cad>0</ns3:cad>
          </ns3:TrackPointExtension>
        </extensions>
      </trkpt>
      <trkpt lat="52.16475921683013439178466796875" lon="1.49660062976181507110595703125">
        <ele>-227.1999969482421875</ele>
        <time>2025-09-06T11:05:13.000Z</time>
        <extensions>
          <ns3:TrackPointExtension>
            <ns3:hr>100</ns3:hr>
            <ns3:cad>0</ns3:cad>
          </ns3:TrackPointExtension>
        </extensions>
      </trkpt>
      <trkpt lat="52.16476122848689556121826171875" lon="1.49659551680088043212890625">
        <ele>-226.1999969482421875</ele>
        <time>2025-09-06T11:05:16.000Z</time>
        <extensions>
          <ns3:TrackPointExtension>
            <ns3:hr>103</ns3:hr>
            <ns3:cad>0</ns3:cad>
          </ns3:TrackPointExtension>
        </extensions>
      </trkpt>
      <trkpt lat="52.16475988738238811492919921875" lon="1.49659543298184871673583984375">
        <ele>-225.8000030517578125</ele>
        <time>2025-09-06T11:05:18.000Z</time>
        <extensions>
          <ns3:TrackPointExtension>
            <ns3:hr>104</ns3:hr>
            <ns3:cad>0</ns3:cad>
          </ns3:TrackPointExtension>
        </extensions>
      </trkpt>
      <trkpt lat="52.16476206667721271514892578125" lon="1.49659417569637298583984375">
        <ele>-225</ele>
        <time>2025-09-06T11:05:21.000Z</time>
        <extensions>
          <ns3:TrackPointExtension>
            <ns3:hr>103</ns3:hr>
            <ns3:cad>0</ns3:cad>
          </ns3:TrackPointExtension>
        </extensions>
      </trkpt>
      <trkpt lat="52.16476374305784702301025390625" lon="1.49659610353410243988037109375">
        <ele>-224</ele>
        <time>2025-09-06T11:05:27.000Z</time>
        <extensions>
          <ns3:TrackPointExtension>
            <ns3:hr>103</ns3:hr>
            <ns3:cad>0</ns3:cad>
          </ns3:TrackPointExtension>
        </extensions>
      </trkpt>
      <trkpt lat="52.16475720517337322235107421875" lon="1.49658487178385257720947265625">
        <ele>-223</ele>
        <time>2025-09-06T11:05:34.000Z</time>
        <extensions>
          <ns3:TrackPointExtension>
            <ns3:hr>104</ns3:hr>
            <ns3:cad>0</ns3:cad>
          </ns3:TrackPointExtension>
        </extensions>
      </trkpt>
      <trkpt lat="52.16476072557270526885986328125" lon="1.4965903200209140777587890625">
        <ele>-222</ele>
        <time>2025-09-06T11:05:40.000Z</time>
        <extensions>
          <ns3:TrackPointExtension>
            <ns3:hr>104</ns3:hr>
            <ns3:cad>0</ns3:cad>
          </ns3:TrackPointExtension>
        </extensions>
      </trkpt>
      <trkpt lat="52.164757288992404937744140625" lon="1.496597863733768463134765625">
        <ele>-220.8000030517578125</ele>
        <time>2025-09-06T11:05:46.000Z</time>
        <extensions>
          <ns3:TrackPointExtension>
            <ns3:hr>105</ns3:hr>
            <ns3:cad>0</ns3:cad>
          </ns3:TrackPointExtension>
        </extensions>
      </trkpt>
      <trkpt lat="52.16475435532629489898681640625" lon="1.496600210666656494140625">
        <ele>-220</ele>
        <time>2025-09-06T11:05:49.000Z</time>
        <extensions>
          <ns3:TrackPointExtension>
            <ns3:hr>107</ns3:hr>
            <ns3:cad>0</ns3:cad>
          </ns3:TrackPointExtension>
        </extensions>
      </trkpt>
      <trkpt lat="52.1647537685930728912353515625" lon="1.49660180322825908660888671875">
        <ele>-219.8000030517578125</ele>
        <time>2025-09-06T11:05:50.000Z</time>
        <extensions>
          <ns3:TrackPointExtension>
            <ns3:hr>104</ns3:hr>
            <ns3:cad>0</ns3:cad>
          </ns3:TrackPointExtension>
        </extensions>
      </trkpt>
      <trkpt lat="52.16475301422178745269775390625" lon="1.49660280905663967132568359375">
        <ele>-219.600006103515625</ele>
        <time>2025-09-06T11:05:51.000Z</time>
        <extensions>
          <ns3:TrackPointExtension>
            <ns3:hr>104</ns3:hr>
            <ns3:cad>0</ns3:cad>
          </ns3:TrackPointExtension>
        </extensions>
      </trkpt>
      <trkpt lat="52.164751924574375152587890625" lon="1.49660230614244937896728515625">
        <ele>-218.399993896484375</ele>
        <time>2025-09-06T11:05:56.000Z</time>
        <extensions>
          <ns3:TrackPointExtension>
            <ns3:hr>101</ns3:hr>
            <ns3:cad>0</ns3:cad>
          </ns3:TrackPointExtension>
        </extensions>
      </trkpt>
      <trkpt lat="52.16474412940442562103271484375" lon="1.49660917930305004119873046875">
        <ele>-217.399993896484375</ele>
        <time>2025-09-06T11:06:00.000Z</time>
        <extensions>
          <ns3:TrackPointExtension>
            <ns3:hr>101</ns3:hr>
            <ns3:cad>0</ns3:cad>
          </ns3:TrackPointExtension>
        </extensions>
      </trkpt>
      <trkpt lat="52.1647071652114391326904296875" lon="1.49664941243827342987060546875">
        <ele>-216</ele>
        <time>2025-09-06T11:06:04.000Z</time>
        <extensions>
          <ns3:TrackPointExtension>
            <ns3:hr>102</ns3:hr>
            <ns3:cad>0</ns3:cad>
          </ns3:TrackPointExtension>
        </extensions>
      </trkpt>
      <trkpt lat="52.16470221988856792449951171875" lon="1.4966520108282566070556640625">
        <ele>-215</ele>
        <time>2025-09-06T11:06:07.000Z</time>
        <extensions>
          <ns3:TrackPointExtension>
            <ns3:hr>99</ns3:hr>
            <ns3:cad>0</ns3:cad>
          </ns3:TrackPointExtension>
        </extensions>
      </trkpt>
      <trkpt lat="52.1647019684314727783203125" lon="1.4966523461043834686279296875">
        <ele>-214.8000030517578125</ele>
        <time>2025-09-06T11:06:08.000Z</time>
        <extensions>
          <ns3:TrackPointExtension>
            <ns3:hr>96</ns3:hr>
            <ns3:cad>0</ns3:cad>
          </ns3:TrackPointExtension>
        </extensions>
      </trkpt>
      <trkpt lat="52.16469752602279186248779296875" lon="1.49665863253176212310791015625">
        <ele>-214</ele>
        <time>2025-09-06T11:06:10.000Z</time>
        <extensions>
          <ns3:TrackPointExtension>
            <ns3:hr>98</ns3:hr>
            <ns3:cad>0</ns3:cad>
          </ns3:TrackPointExtension>
        </extensions>
      </trkpt>
      <trkpt lat="52.16469702310860157012939453125" lon="1.49665930308401584625244140625">
        <ele>-213</ele>
        <time>2025-09-06T11:06:13.000Z</time>
        <extensions>
          <ns3:TrackPointExtension>
            <ns3:hr>98</ns3:hr>
            <ns3:cad>0</ns3:cad>
          </ns3:TrackPointExtension>
        </extensions>
      </trkpt>
      <trkpt lat="52.16470054350793361663818359375" lon="1.4966553635895252227783203125">
        <ele>-212</ele>
        <time>2025-09-06T11:06:16.000Z</time>
        <extensions>
          <ns3:TrackPointExtension>
            <ns3:hr>97</ns3:hr>
            <ns3:cad>0</ns3:cad>
          </ns3:TrackPointExtension>
        </extensions>
      </trkpt>
      <trkpt lat="52.1647034771740436553955078125" lon="1.49665343575179576873779296875">
        <ele>-210.8000030517578125</ele>
        <time>2025-09-06T11:06:19.000Z</time>
        <extensions>
          <ns3:TrackPointExtension>
            <ns3:hr>96</ns3:hr>
            <ns3:cad>0</ns3:cad>
          </ns3:TrackPointExtension>
        </extensions>
      </trkpt>
      <trkpt lat="52.164705656468868255615234375" lon="1.49664111435413360595703125">
        <ele>-209.8000030517578125</ele>
        <time>2025-09-06T11:06:22.000Z</time>
        <extensions>
          <ns3:TrackPointExtension>
            <ns3:hr>98</ns3:hr>
            <ns3:cad>0</ns3:cad>
          </ns3:TrackPointExtension>
        </extensions>
      </trkpt>
      <trkpt lat="52.164701633155345916748046875" lon="1.49663214571774005889892578125">
        <ele>-208.600006103515625</ele>
        <time>2025-09-06T11:06:25.000Z</time>
        <extensions>
          <ns3:TrackPointExtension>
            <ns3:hr>99</ns3:hr>
            <ns3:cad>0</ns3:cad>
          </ns3:TrackPointExtension>
        </extensions>
      </trkpt>
      <trkpt lat="52.1646994538605213165283203125" lon="1.4966298826038837432861328125">
        <ele>-208.1999969482421875</ele>
        <time>2025-09-06T11:06:26.000Z</time>
        <extensions>
          <ns3:TrackPointExtension>
            <ns3:hr>97</ns3:hr>
            <ns3:cad>0</ns3:cad>
          </ns3:TrackPointExtension>
        </extensions>
      </trkpt>
      <trkpt lat="52.16469048522412776947021484375" lon="1.49663063697516918182373046875">
        <ele>-207.399993896484375</ele>
        <time>2025-09-06T11:06:28.000Z</time>
        <extensions>
          <ns3:TrackPointExtension>
            <ns3:hr>95</ns3:hr>
            <ns3:cad>0</ns3:cad>
          </ns3:TrackPointExtension>
        </extensions>
      </trkpt>
      <trkpt lat="52.164680846035480499267578125" lon="1.496627032756805419921875">
        <ele>-206.1999969482421875</ele>
        <time>2025-09-06T11:06:31.000Z</time>
        <extensions>
          <ns3:TrackPointExtension>
            <ns3:hr>94</ns3:hr>
            <ns3:cad>0</ns3:cad>
          </ns3:TrackPointExtension>
        </extensions>
      </trkpt>
      <trkpt lat="52.16466248966753482818603515625" lon="1.49662326090037822723388671875">
        <ele>-204.8000030517578125</ele>
        <time>2025-09-06T11:06:34.000Z</time>
        <extensions>
          <ns3:TrackPointExtension>
            <ns3:hr>94</ns3:hr>
            <ns3:cad>0</ns3:cad>
          </ns3:TrackPointExtension>
        </extensions>
      </trkpt>
      <trkpt lat="52.16466014273464679718017578125" lon="1.4966203272342681884765625">
        <ele>-203.600006103515625</ele>
        <time>2025-09-06T11:06:37.000Z</time>
        <extensions>
          <ns3:TrackPointExtension>
            <ns3:hr>94</ns3:hr>
            <ns3:cad>0</ns3:cad>
          </ns3:TrackPointExtension>
        </extensions>
      </trkpt>
      <trkpt lat="52.1646548621356487274169921875" lon="1.49663549847900867462158203125">
        <ele>-202.1999969482421875</ele>
        <time>2025-09-06T11:06:40.000Z</time>
        <extensions>
          <ns3:TrackPointExtension>
            <ns3:hr>94</ns3:hr>
            <ns3:cad>0</ns3:cad>
          </ns3:TrackPointExtension>
        </extensions>
      </trkpt>
      <trkpt lat="52.16465662233531475067138671875" lon="1.49663365446031093597412109375">
        <ele>-200.8000030517578125</ele>
        <time>2025-09-06T11:06:43.000Z</time>
        <extensions>
          <ns3:TrackPointExtension>
            <ns3:hr>94</ns3:hr>
            <ns3:cad>0</ns3:cad>
          </ns3:TrackPointExtension>
        </extensions>
      </trkpt>
      <trkpt lat="52.16465896926820278167724609375" lon="1.49662694893777370452880859375">
        <ele>-200</ele>
        <time>2025-09-06T11:06:45.000Z</time>
        <extensions>
          <ns3:TrackPointExtension>
            <ns3:hr>92</ns3:hr>
            <ns3:cad>0</ns3:cad>
          </ns3:TrackPointExtension>
        </extensions>
      </trkpt>
      <trkpt lat="52.1646595560014247894287109375" lon="1.49662627838551998138427734375">
        <ele>-199.600006103515625</ele>
        <time>2025-09-06T11:06:46.000Z</time>
        <extensions>
          <ns3:TrackPointExtension>
            <ns3:hr>92</ns3:hr>
            <ns3:cad>0</ns3:cad>
          </ns3:TrackPointExtension>
        </extensions>
      </trkpt>
      <trkpt lat="52.16466047801077365875244140625" lon="1.49662770330905914306640625">
        <ele>-198.1999969482421875</ele>
        <time>2025-09-06T11:06:49.000Z</time>
        <extensions>
          <ns3:TrackPointExtension>
            <ns3:hr>91</ns3:hr>
            <ns3:cad>0</ns3:cad>
          </ns3:TrackPointExtension>
        </extensions>
      </trkpt>
      <trkpt lat="52.164661400020122528076171875" lon="1.4966198243200778961181640625">
        <ele>-197</ele>
        <time>2025-09-06T11:06:52.000Z</time>
        <extensions>
          <ns3:TrackPointExtension>
            <ns3:hr>92</ns3:hr>
            <ns3:cad>0</ns3:cad>
          </ns3:TrackPointExtension>
        </extensions>
      </trkpt>
      <trkpt lat="52.1646672673523426055908203125" lon="1.4966122806072235107421875">
        <ele>-196</ele>
        <time>2025-09-06T11:06:55.000Z</time>
        <extensions>
          <ns3:TrackPointExtension>
            <ns3:hr>89</ns3:hr>
            <ns3:cad>0</ns3:cad>
          </ns3:TrackPointExtension>
        </extensions>
      </trkpt>
      <trkpt lat="52.16467204503715038299560546875" lon="1.4966174773871898651123046875">
        <ele>-194.8000030517578125</ele>
        <time>2025-09-06T11:06:58.000Z</time>
        <extensions>
          <ns3:TrackPointExtension>
            <ns3:hr>90</ns3:hr>
            <ns3:cad>0</ns3:cad>
          </ns3:TrackPointExtension>
        </extensions>
      </trkpt>
      <trkpt lat="52.16466885991394519805908203125" lon="1.4966208301484584808349609375">
        <ele>-193.8000030517578125</ele>
        <time>2025-09-06T11:07:01.000Z</time>
        <extensions>
          <ns3:TrackPointExtension>
            <ns3:hr>93</ns3:hr>
            <ns3:cad>0</ns3:cad>
          </ns3:TrackPointExtension>
        </extensions>
      </trkpt>
      <trkpt lat="52.164669446647167205810546875" lon="1.49662259034812450408935546875">
        <ele>-193.399993896484375</ele>
        <time>2025-09-06T11:07:02.000Z</time>
        <extensions>
          <ns3:TrackPointExtension>
            <ns3:hr>91</ns3:hr>
            <ns3:cad>0</ns3:cad>
          </ns3:TrackPointExtension>
        </extensions>
      </trkpt>
      <trkpt lat="52.16466844081878662109375" lon="1.4966176450252532958984375">
        <ele>-192.399993896484375</ele>
        <time>2025-09-06T11:07:06.000Z</time>
        <extensions>
          <ns3:TrackPointExtension>
            <ns3:hr>90</ns3:hr>
            <ns3:cad>0</ns3:cad>
          </ns3:TrackPointExtension>
        </extensions>
      </trkpt>
      <trkpt lat="52.1646615676581859588623046875" lon="1.49661957286298274993896484375">
        <ele>-191.1999969482421875</ele>
        <time>2025-09-06T11:07:10.000Z</time>
        <extensions>
          <ns3:TrackPointExtension>
            <ns3:hr>89</ns3:hr>
            <ns3:cad>0</ns3:cad>
          </ns3:TrackPointExtension>
        </extensions>
      </trkpt>
      <trkpt lat="52.16465846635401248931884765625" lon="1.4966194890439510345458984375">
        <ele>-190.1999969482421875</ele>
        <time>2025-09-06T11:07:14.000Z</time>
        <extensions>
          <ns3:TrackPointExtension>
            <ns3:hr>90</ns3:hr>
            <ns3:cad>0</ns3:cad>
          </ns3:TrackPointExtension>
        </extensions>
      </trkpt>
      <trkpt lat="52.1646563708782196044921875" lon="1.49661823175847530364990234375">
        <ele>-189</ele>
        <time>2025-09-06T11:07:18.000Z</time>
        <extensions>
          <ns3:TrackPointExtension>
            <ns3:hr>90</ns3:hr>
            <ns3:cad>0</ns3:cad>
          </ns3:TrackPointExtension>
        </extensions>
      </trkpt>
      <trkpt lat="52.16465695761144161224365234375" lon="1.4966134540736675262451171875">
        <ele>-187.8000030517578125</ele>
        <time>2025-09-06T11:07:22.000Z</time>
        <extensions>
          <ns3:TrackPointExtension>
            <ns3:hr>88</ns3:hr>
            <ns3:cad>0</ns3:cad>
          </ns3:TrackPointExtension>
        </extensions>
      </trkpt>
      <trkpt lat="52.16466081328690052032470703125" lon="1.49661286734044551849365234375">
        <ele>-186.600006103515625</ele>
        <time>2025-09-06T11:07:26.000Z</time>
        <extensions>
          <ns3:TrackPointExtension>
            <ns3:hr>88</ns3:hr>
            <ns3:cad>0</ns3:cad>
          </ns3:TrackPointExtension>
        </extensions>
      </trkpt>
      <trkpt lat="52.16467187739908695220947265625" lon="1.49662191979587078094482421875">
        <ele>-185.399993896484375</ele>
        <time>2025-09-06T11:07:30.000Z</time>
        <extensions>
          <ns3:TrackPointExtension>
            <ns3:hr>87</ns3:hr>
            <ns3:cad>0</ns3:cad>
          </ns3:TrackPointExtension>
        </extensions>
      </trkpt>
      <trkpt lat="52.16466969810426235198974609375" lon="1.4966261945664882659912109375">
        <ele>-184.1999969482421875</ele>
        <time>2025-09-06T11:07:34.000Z</time>
        <extensions>
          <ns3:TrackPointExtension>
            <ns3:hr>88</ns3:hr>
            <ns3:cad>0</ns3:cad>
          </ns3:TrackPointExtension>
        </extensions>
      </trkpt>
      <trkpt lat="52.1646702848374843597412109375" lon="1.4966258592903614044189453125">
        <ele>-184</ele>
        <time>2025-09-06T11:07:35.000Z</time>
        <extensions>
          <ns3:TrackPointExtension>
            <ns3:hr>87</ns3:hr>
            <ns3:cad>0</ns3:cad>
          </ns3:TrackPointExtension>
        </extensions>
      </trkpt>
      <trkpt lat="52.16467103920876979827880859375" lon="1.49662493728101253509521484375">
        <ele>-183</ele>
        <time>2025-09-06T11:07:38.000Z</time>
        <extensions>
          <ns3:TrackPointExtension>
            <ns3:hr>87</ns3:hr>
            <ns3:cad>0</ns3:cad>
          </ns3:TrackPointExtension>
        </extensions>
      </trkpt>
      <trkpt lat="52.1646689437329769134521484375" lon="1.4966255240142345428466796875">
        <ele>-181.8000030517578125</ele>
        <time>2025-09-06T11:07:42.000Z</time>
        <extensions>
          <ns3:TrackPointExtension>
            <ns3:hr>86</ns3:hr>
            <ns3:cad>0</ns3:cad>
          </ns3:TrackPointExtension>
        </extensions>
      </trkpt>
      <trkpt lat="52.16466131620109081268310546875" lon="1.49662367999553680419921875">
        <ele>-180.600006103515625</ele>
        <time>2025-09-06T11:07:46.000Z</time>
        <extensions>
          <ns3:TrackPointExtension>
            <ns3:hr>85</ns3:hr>
            <ns3:cad>0</ns3:cad>
          </ns3:TrackPointExtension>
        </extensions>
      </trkpt>
      <trkpt lat="52.16465167701244354248046875" lon="1.49661839939653873443603515625">
        <ele>-179.1999969482421875</ele>
        <time>2025-09-06T11:07:50.000Z</time>
        <extensions>
          <ns3:TrackPointExtension>
            <ns3:hr>86</ns3:hr>
            <ns3:cad>0</ns3:cad>
          </ns3:TrackPointExtension>
        </extensions>
      </trkpt>
      <trkpt lat="52.16465109027922153472900390625" lon="1.49661697447299957275390625">
        <ele>-178.399993896484375</ele>
        <time>2025-09-06T11:07:53.000Z</time>
        <extensions>
          <ns3:TrackPointExtension>
            <ns3:hr>85</ns3:hr>
            <ns3:cad>0</ns3:cad>
          </ns3:TrackPointExtension>
        </extensions>
      </trkpt>
      <trkpt lat="52.164650671184062957763671875" lon="1.4966158010065555572509765625">
        <ele>-178</ele>
        <time>2025-09-06T11:07:54.000Z</time>
        <extensions>
          <ns3:TrackPointExtension>
            <ns3:hr>85</ns3:hr>
            <ns3:cad>0</ns3:cad>
          </ns3:TrackPointExtension>
        </extensions>
      </trkpt>
      <trkpt lat="52.16465008445084095001220703125" lon="1.49661538191139698028564453125">
        <ele>-176.8000030517578125</ele>
        <time>2025-09-06T11:07:58.000Z</time>
        <extensions>
          <ns3:TrackPointExtension>
            <ns3:hr>85</ns3:hr>
            <ns3:cad>0</ns3:cad>
          </ns3:TrackPointExtension>
        </extensions>
      </trkpt>
      <trkpt lat="52.1646491624414920806884765625" lon="1.49662233889102935791015625">
        <ele>-175.399993896484375</ele>
        <time>2025-09-06T11:08:02.000Z</time>
        <extensions>
          <ns3:TrackPointExtension>
            <ns3:hr>86</ns3:hr>
            <ns3:cad>0</ns3:cad>
          </ns3:TrackPointExtension>
        </extensions>
      </trkpt>
      <trkpt lat="52.16464874334633350372314453125" lon="1.49662745185196399688720703125">
        <ele>-174.399993896484375</ele>
        <time>2025-09-06T11:08:05.000Z</time>
        <extensions>
          <ns3:TrackPointExtension>
            <ns3:hr>83</ns3:hr>
            <ns3:cad>0</ns3:cad>
          </ns3:TrackPointExtension>
        </extensions>
      </trkpt>
      <trkpt lat="52.16464673168957233428955078125" lon="1.49663164280354976654052734375">
        <ele>-173.399993896484375</ele>
        <time>2025-09-06T11:08:08.000Z</time>
        <extensions>
          <ns3:TrackPointExtension>
            <ns3:hr>84</ns3:hr>
            <ns3:cad>0</ns3:cad>
          </ns3:TrackPointExtension>
        </extensions>
      </trkpt>
      <trkpt lat="52.16464698314666748046875" lon="1.49663231335580348968505859375">
        <ele>-172.399993896484375</ele>
        <time>2025-09-06T11:08:11.000Z</time>
        <extensions>
          <ns3:TrackPointExtension>
            <ns3:hr>84</ns3:hr>
            <ns3:cad>0</ns3:cad>
          </ns3:TrackPointExtension>
        </extensions>
      </trkpt>
      <trkpt lat="52.1646491624414920806884765625" lon="1.496632397174835205078125">
        <ele>-171.1999969482421875</ele>
        <time>2025-09-06T11:08:14.000Z</time>
        <extensions>
          <ns3:TrackPointExtension>
            <ns3:hr>84</ns3:hr>
            <ns3:cad>0</ns3:cad>
          </ns3:TrackPointExtension>
        </extensions>
      </trkpt>
      <trkpt lat="52.1646491624414920806884765625" lon="1.49663264863193035125732421875">
        <ele>-171</ele>
        <time>2025-09-06T11:08:15.000Z</time>
        <extensions>
          <ns3:TrackPointExtension>
            <ns3:hr>84</ns3:hr>
            <ns3:cad>0</ns3:cad>
          </ns3:TrackPointExtension>
        </extensions>
      </trkpt>
      <trkpt lat="52.16465033590793609619140625" lon="1.4966339059174060821533203125">
        <ele>-170.1999969482421875</ele>
        <time>2025-09-06T11:08:17.000Z</time>
        <extensions>
          <ns3:TrackPointExtension>
            <ns3:hr>84</ns3:hr>
            <ns3:cad>0</ns3:cad>
          </ns3:TrackPointExtension>
        </extensions>
      </trkpt>
      <trkpt lat="52.16465109027922153472900390625" lon="1.49663851596415042877197265625">
        <ele>-169.1999969482421875</ele>
        <time>2025-09-06T11:08:20.000Z</time>
        <extensions>
          <ns3:TrackPointExtension>
            <ns3:hr>81</ns3:hr>
            <ns3:cad>0</ns3:cad>
          </ns3:TrackPointExtension>
        </extensions>
      </trkpt>
      <trkpt lat="52.1646488271653652191162109375" lon="1.49664379656314849853515625">
        <ele>-168.1999969482421875</ele>
        <time>2025-09-06T11:08:23.000Z</time>
        <extensions>
          <ns3:TrackPointExtension>
            <ns3:hr>79</ns3:hr>
            <ns3:cad>0</ns3:cad>
          </ns3:TrackPointExtension>
        </extensions>
      </trkpt>
      <trkpt lat="52.16465159319341182708740234375" lon="1.4966429583728313446044921875">
        <ele>-167.1999969482421875</ele>
        <time>2025-09-06T11:08:26.000Z</time>
        <extensions>
          <ns3:TrackPointExtension>
            <ns3:hr>80</ns3:hr>
            <ns3:cad>0</ns3:cad>
          </ns3:TrackPointExtension>
        </extensions>
      </trkpt>
      <trkpt lat="52.164649665355682373046875" lon="1.49664371274411678314208984375">
        <ele>-166.1999969482421875</ele>
        <time>2025-09-06T11:08:29.000Z</time>
        <extensions>
          <ns3:TrackPointExtension>
            <ns3:hr>77</ns3:hr>
            <ns3:cad>0</ns3:cad>
          </ns3:TrackPointExtension>
        </extensions>
      </trkpt>
      <trkpt lat="52.16464773751795291900634765625" lon="1.496646814048290252685546875">
        <ele>-165.399993896484375</ele>
        <time>2025-09-06T11:08:31.000Z</time>
        <extensions>
          <ns3:TrackPointExtension>
            <ns3:hr>76</ns3:hr>
            <ns3:cad>0</ns3:cad>
          </ns3:TrackPointExtension>
        </extensions>
      </trkpt>
      <trkpt lat="52.1646494977176189422607421875" lon="1.49665125645697116851806640625">
        <ele>-165</ele>
        <time>2025-09-06T11:08:32.000Z</time>
        <extensions>
          <ns3:TrackPointExtension>
            <ns3:hr>79</ns3:hr>
            <ns3:cad>0</ns3:cad>
          </ns3:TrackPointExtension>
        </extensions>
      </trkpt>
      <trkpt lat="52.16464974917471408843994140625" lon="1.4966556988656520843505859375">
        <ele>-164.600006103515625</ele>
        <time>2025-09-06T11:08:33.000Z</time>
        <extensions>
          <ns3:TrackPointExtension>
            <ns3:hr>76</ns3:hr>
            <ns3:cad>0</ns3:cad>
          </ns3:TrackPointExtension>
        </extensions>
      </trkpt>
      <trkpt lat="52.16465159319341182708740234375" lon="1.49666232056915760040283203125">
        <ele>-163.8000030517578125</ele>
        <time>2025-09-06T11:08:35.000Z</time>
        <extensions>
          <ns3:TrackPointExtension>
            <ns3:hr>78</ns3:hr>
            <ns3:cad>0</ns3:cad>
          </ns3:TrackPointExtension>
        </extensions>
      </trkpt>
      <trkpt lat="52.16465159319341182708740234375" lon="1.49666584096848964691162109375">
        <ele>-162.600006103515625</ele>
        <time>2025-09-06T11:08:38.000Z</time>
        <extensions>
          <ns3:TrackPointExtension>
            <ns3:hr>79</ns3:hr>
            <ns3:cad>0</ns3:cad>
          </ns3:TrackPointExtension>
        </extensions>
      </trkpt>
      <trkpt lat="52.16465125791728496551513671875" lon="1.49666885845363140106201171875">
        <ele>-161.8000030517578125</ele>
        <time>2025-09-06T11:08:40.000Z</time>
        <extensions>
          <ns3:TrackPointExtension>
            <ns3:hr>82</ns3:hr>
            <ns3:cad>0</ns3:cad>
          </ns3:TrackPointExtension>
        </extensions>
      </trkpt>
      <trkpt lat="52.16464899480342864990234375" lon="1.49667087011039257049560546875">
        <ele>-161.399993896484375</ele>
        <time>2025-09-06T11:08:41.000Z</time>
        <extensions>
          <ns3:TrackPointExtension>
            <ns3:hr>81</ns3:hr>
            <ns3:cad>0</ns3:cad>
          </ns3:TrackPointExtension>
        </extensions>
      </trkpt>
      <trkpt lat="52.16464497148990631103515625" lon="1.496672295033931732177734375">
        <ele>-160.1999969482421875</ele>
        <time>2025-09-06T11:08:44.000Z</time>
        <extensions>
          <ns3:TrackPointExtension>
            <ns3:hr>79</ns3:hr>
            <ns3:cad>0</ns3:cad>
          </ns3:TrackPointExtension>
        </extensions>
      </trkpt>
      <trkpt lat="52.16464404948055744171142578125" lon="1.49666885845363140106201171875">
        <ele>-159.399993896484375</ele>
        <time>2025-09-06T11:08:46.000Z</time>
        <extensions>
          <ns3:TrackPointExtension>
            <ns3:hr>79</ns3:hr>
            <ns3:cad>0</ns3:cad>
          </ns3:TrackPointExtension>
        </extensions>
      </trkpt>
      <trkpt lat="52.16464388184249401092529296875" lon="1.49666818790137767791748046875">
        <ele>-159</ele>
        <time>2025-09-06T11:08:47.000Z</time>
        <extensions>
          <ns3:TrackPointExtension>
            <ns3:hr>78</ns3:hr>
            <ns3:cad>0</ns3:cad>
          </ns3:TrackPointExtension>
        </extensions>
      </trkpt>
      <trkpt lat="52.1646437980234622955322265625" lon="1.4966667629778385162353515625">
        <ele>-158.600006103515625</ele>
        <time>2025-09-06T11:08:48.000Z</time>
        <extensions>
          <ns3:TrackPointExtension>
            <ns3:hr>81</ns3:hr>
            <ns3:cad>0</ns3:cad>
          </ns3:TrackPointExtension>
        </extensions>
      </trkpt>
      <trkpt lat="52.16463960707187652587890625" lon="1.49666257202625274658203125">
        <ele>-157.8000030517578125</ele>
        <time>2025-09-06T11:08:50.000Z</time>
        <extensions>
          <ns3:TrackPointExtension>
            <ns3:hr>83</ns3:hr>
            <ns3:cad>0</ns3:cad>
          </ns3:TrackPointExtension>
        </extensions>
      </trkpt>
      <trkpt lat="52.1646387688815593719482421875" lon="1.49666257202625274658203125">
        <ele>-156.600006103515625</ele>
        <time>2025-09-06T11:08:53.000Z</time>
        <extensions>
          <ns3:TrackPointExtension>
            <ns3:hr>85</ns3:hr>
            <ns3:cad>0</ns3:cad>
          </ns3:TrackPointExtension>
        </extensions>
      </trkpt>
      <trkpt lat="52.164635919034481048583984375" lon="1.49665980599820613861083984375">
        <ele>-155.600006103515625</ele>
        <time>2025-09-06T11:08:57.000Z</time>
        <extensions>
          <ns3:TrackPointExtension>
            <ns3:hr>89</ns3:hr>
            <ns3:cad>0</ns3:cad>
          </ns3:TrackPointExtension>
        </extensions>
      </trkpt>
      <trkpt lat="52.164640612900257110595703125" lon="1.49667003192007541656494140625">
        <ele>-154.8000030517578125</ele>
        <time>2025-09-06T11:09:03.000Z</time>
        <extensions>
          <ns3:TrackPointExtension>
            <ns3:hr>92</ns3:hr>
            <ns3:cad>0</ns3:cad>
          </ns3:TrackPointExtension>
        </extensions>
      </trkpt>
      <trkpt lat="52.16464371420443058013916015625" lon="1.49668595753610134124755859375">
        <ele>-154.399993896484375</ele>
        <time>2025-09-06T11:09:08.000Z</time>
        <extensions>
          <ns3:TrackPointExtension>
            <ns3:hr>94</ns3:hr>
            <ns3:cad>0</ns3:cad>
          </ns3:TrackPointExtension>
        </extensions>
      </trkpt>
      <trkpt lat="52.164680175483226776123046875" lon="1.49667824618518352508544921875">
        <ele>-153.600006103515625</ele>
        <time>2025-09-06T11:09:18.000Z</time>
        <extensions>
          <ns3:TrackPointExtension>
            <ns3:hr>94</ns3:hr>
            <ns3:cad>0</ns3:cad>
          </ns3:TrackPointExtension>
        </extensions>
      </trkpt>
      <trkpt lat="52.16468998230993747711181640625" lon="1.4966634102165699005126953125">
        <ele>-153.399993896484375</ele>
        <time>2025-09-06T11:09:20.000Z</time>
        <extensions>
          <ns3:TrackPointExtension>
            <ns3:hr>96</ns3:hr>
            <ns3:cad>0</ns3:cad>
          </ns3:TrackPointExtension>
        </extensions>
      </trkpt>
      <trkpt lat="52.1646950952708721160888671875" lon="1.4966744743287563323974609375">
        <ele>-152.399993896484375</ele>
        <time>2025-09-06T11:09:27.000Z</time>
        <extensions>
          <ns3:TrackPointExtension>
            <ns3:hr>95</ns3:hr>
            <ns3:cad>0</ns3:cad>
          </ns3:TrackPointExtension>
        </extensions>
      </trkpt>
      <trkpt lat="52.16469367034733295440673828125" lon="1.49669936858117580413818359375">
        <ele>-151.1999969482421875</ele>
        <time>2025-09-06T11:09:33.000Z</time>
        <extensions>
          <ns3:TrackPointExtension>
            <ns3:hr>93</ns3:hr>
            <ns3:cad>0</ns3:cad>
          </ns3:TrackPointExtension>
        </extensions>
      </trkpt>
      <trkpt lat="52.1646930836141109466552734375" lon="1.496705152094364166259765625">
        <ele>-151</ele>
        <time>2025-09-06T11:09:35.000Z</time>
        <extensions>
          <ns3:TrackPointExtension>
            <ns3:hr>97</ns3:hr>
            <ns3:cad>0</ns3:cad>
          </ns3:TrackPointExtension>
        </extensions>
      </trkpt>
      <trkpt lat="52.1646937541663646697998046875" lon="1.49670707993209362030029296875">
        <ele>-150.600006103515625</ele>
        <time>2025-09-06T11:09:37.000Z</time>
        <extensions>
          <ns3:TrackPointExtension>
            <ns3:hr>94</ns3:hr>
            <ns3:cad>0</ns3:cad>
          </ns3:TrackPointExtension>
        </extensions>
      </trkpt>
      <trkpt lat="52.1646937541663646697998046875" lon="1.49670925922691822052001953125">
        <ele>-150.399993896484375</ele>
        <time>2025-09-06T11:09:38.000Z</time>
        <extensions>
          <ns3:TrackPointExtension>
            <ns3:hr>97</ns3:hr>
            <ns3:cad>0</ns3:cad>
          </ns3:TrackPointExtension>
        </extensions>
      </trkpt>
      <trkpt lat="52.16469517908990383148193359375" lon="1.496712863445281982421875">
        <ele>-150.1999969482421875</ele>
        <time>2025-09-06T11:09:39.000Z</time>
        <extensions>
          <ns3:TrackPointExtension>
            <ns3:hr>95</ns3:hr>
            <ns3:cad>0</ns3:cad>
          </ns3:TrackPointExtension>
        </extensions>
      </trkpt>
      <trkpt lat="52.1646947599947452545166015625" lon="1.4967137016355991363525390625">
        <ele>-149.600006103515625</ele>
        <time>2025-09-06T11:09:42.000Z</time>
        <extensions>
          <ns3:TrackPointExtension>
            <ns3:hr>92</ns3:hr>
            <ns3:cad>0</ns3:cad>
          </ns3:TrackPointExtension>
        </extensions>
      </trkpt>
      <trkpt lat="52.1646803431212902069091796875" lon="1.49670976214110851287841796875">
        <ele>-149.1999969482421875</ele>
        <time>2025-09-06T11:09:44.000Z</time>
        <extensions>
          <ns3:TrackPointExtension>
            <ns3:hr>91</ns3:hr>
            <ns3:cad>0</ns3:cad>
          </ns3:TrackPointExtension>
        </extensions>
      </trkpt>
      <trkpt lat="52.16466240584850311279296875" lon="1.49671160615980625152587890625">
        <ele>-148.399993896484375</ele>
        <time>2025-09-06T11:09:47.000Z</time>
        <extensions>
          <ns3:TrackPointExtension>
            <ns3:hr>91</ns3:hr>
            <ns3:cad>0</ns3:cad>
          </ns3:TrackPointExtension>
        </extensions>
      </trkpt>
      <trkpt lat="52.16465444304049015045166015625" lon="1.496707163751125335693359375">
        <ele>-148</ele>
        <time>2025-09-06T11:09:49.000Z</time>
        <extensions>
          <ns3:TrackPointExtension>
            <ns3:hr>91</ns3:hr>
            <ns3:cad>0</ns3:cad>
          </ns3:TrackPointExtension>
        </extensions>
      </trkpt>
      <trkpt lat="52.16462912969291210174560546875" lon="1.4967073313891887664794921875">
        <ele>-147</ele>
        <time>2025-09-06T11:09:55.000Z</time>
        <extensions>
          <ns3:TrackPointExtension>
            <ns3:hr>90</ns3:hr>
            <ns3:cad>0</ns3:cad>
          </ns3:TrackPointExtension>
        </extensions>
      </trkpt>
      <trkpt lat="52.16460431925952434539794921875" lon="1.49669467471539974212646484375">
        <ele>-146</ele>
        <time>2025-09-06T11:10:02.000Z</time>
        <extensions>
          <ns3:TrackPointExtension>
            <ns3:hr>88</ns3:hr>
            <ns3:cad>0</ns3:cad>
          </ns3:TrackPointExtension>
        </extensions>
      </trkpt>
      <trkpt lat="52.16464388184249401092529296875" lon="1.49667439050972461700439453125">
        <ele>-144.8000030517578125</ele>
        <time>2025-09-06T11:10:09.000Z</time>
        <extensions>
          <ns3:TrackPointExtension>
            <ns3:hr>88</ns3:hr>
            <ns3:cad>0</ns3:cad>
          </ns3:TrackPointExtension>
        </extensions>
      </trkpt>
      <trkpt lat="52.164647318422794342041015625" lon="1.49667053483426570892333984375">
        <ele>-144.600006103515625</ele>
        <time>2025-09-06T11:10:11.000Z</time>
        <extensions>
          <ns3:TrackPointExtension>
            <ns3:hr>87</ns3:hr>
            <ns3:cad>0</ns3:cad>
          </ns3:TrackPointExtension>
        </extensions>
      </trkpt>
      <trkpt lat="52.1646454744040966033935546875" lon="1.4966597221791744232177734375">
        <ele>-144</ele>
        <time>2025-09-06T11:10:14.000Z</time>
        <extensions>
          <ns3:TrackPointExtension>
            <ns3:hr>90</ns3:hr>
            <ns3:cad>0</ns3:cad>
          </ns3:TrackPointExtension>
        </extensions>
      </trkpt>
      <trkpt lat="52.164647988975048065185546875" lon="1.49665578268468379974365234375">
        <ele>-143.8000030517578125</ele>
        <time>2025-09-06T11:10:15.000Z</time>
        <extensions>
          <ns3:TrackPointExtension>
            <ns3:hr>88</ns3:hr>
            <ns3:cad>0</ns3:cad>
          </ns3:TrackPointExtension>
        </extensions>
      </trkpt>
      <trkpt lat="52.16467120684683322906494140625" lon="1.49664253927767276763916015625">
        <ele>-142.8000030517578125</ele>
        <time>2025-09-06T11:10:20.000Z</time>
        <extensions>
          <ns3:TrackPointExtension>
            <ns3:hr>85</ns3:hr>
            <ns3:cad>0</ns3:cad>
          </ns3:TrackPointExtension>
        </extensions>
      </trkpt>
      <trkpt lat="52.16467305086553096771240234375" lon="1.49664555676281452178955078125">
        <ele>-141.600006103515625</ele>
        <time>2025-09-06T11:10:25.000Z</time>
        <extensions>
          <ns3:TrackPointExtension>
            <ns3:hr>85</ns3:hr>
            <ns3:cad>0</ns3:cad>
          </ns3:TrackPointExtension>
        </extensions>
      </trkpt>
      <trkpt lat="52.16467053629457950592041015625" lon="1.49664513766765594482421875">
        <ele>-140.399993896484375</ele>
        <time>2025-09-06T11:10:29.000Z</time>
        <extensions>
          <ns3:TrackPointExtension>
            <ns3:hr>85</ns3:hr>
            <ns3:cad>0</ns3:cad>
          </ns3:TrackPointExtension>
        </extensions>
      </trkpt>
      <trkpt lat="52.164672799408435821533203125" lon="1.49664170108735561370849609375">
        <ele>-139.399993896484375</ele>
        <time>2025-09-06T11:10:32.000Z</time>
        <extensions>
          <ns3:TrackPointExtension>
            <ns3:hr>85</ns3:hr>
            <ns3:cad>0</ns3:cad>
          </ns3:TrackPointExtension>
        </extensions>
      </trkpt>
      <trkpt lat="52.16467355377972126007080078125" lon="1.49663030169904232025146484375">
        <ele>-139.1999969482421875</ele>
        <time>2025-09-06T11:10:33.000Z</time>
        <extensions>
          <ns3:TrackPointExtension>
            <ns3:hr>83</ns3:hr>
            <ns3:cad>0</ns3:cad>
          </ns3:TrackPointExtension>
        </extensions>
      </trkpt>
      <trkpt lat="52.1646655909717082977294921875" lon="1.4966158010065555572509765625">
        <ele>-138.1999969482421875</ele>
        <time>2025-09-06T11:10:36.000Z</time>
        <extensions>
          <ns3:TrackPointExtension>
            <ns3:hr>83</ns3:hr>
            <ns3:cad>0</ns3:cad>
          </ns3:TrackPointExtension>
        </extensions>
      </trkpt>
      <trkpt lat="52.1646665968000888824462890625" lon="1.4966181479394435882568359375">
        <ele>-137</ele>
        <time>2025-09-06T11:10:39.000Z</time>
        <extensions>
          <ns3:TrackPointExtension>
            <ns3:hr>84</ns3:hr>
            <ns3:cad>0</ns3:cad>
          </ns3:TrackPointExtension>
        </extensions>
      </trkpt>
      <trkpt lat="52.164668105542659759521484375" lon="1.49662074632942676544189453125">
        <ele>-136</ele>
        <time>2025-09-06T11:10:42.000Z</time>
        <extensions>
          <ns3:TrackPointExtension>
            <ns3:hr>84</ns3:hr>
            <ns3:cad>0</ns3:cad>
          </ns3:TrackPointExtension>
        </extensions>
      </trkpt>
      <trkpt lat="52.16466802172362804412841796875" lon="1.4966215007007122039794921875">
        <ele>-134.8000030517578125</ele>
        <time>2025-09-06T11:10:45.000Z</time>
        <extensions>
          <ns3:TrackPointExtension>
            <ns3:hr>83</ns3:hr>
            <ns3:cad>0</ns3:cad>
          </ns3:TrackPointExtension>
        </extensions>
      </trkpt>
      <trkpt lat="52.16466584242880344390869140625" lon="1.49662326090037822723388671875">
        <ele>-133.8000030517578125</ele>
        <time>2025-09-06T11:10:48.000Z</time>
        <extensions>
          <ns3:TrackPointExtension>
            <ns3:hr>81</ns3:hr>
            <ns3:cad>0</ns3:cad>
          </ns3:TrackPointExtension>
        </extensions>
      </trkpt>
      <trkpt lat="52.1646612323820590972900390625" lon="1.4966184832155704498291015625">
        <ele>-132.600006103515625</ele>
        <time>2025-09-06T11:10:51.000Z</time>
        <extensions>
          <ns3:TrackPointExtension>
            <ns3:hr>82</ns3:hr>
            <ns3:cad>0</ns3:cad>
          </ns3:TrackPointExtension>
        </extensions>
      </trkpt>
      <trkpt lat="52.16465863399207592010498046875" lon="1.49661471135914325714111328125">
        <ele>-131.399993896484375</ele>
        <time>2025-09-06T11:10:54.000Z</time>
        <extensions>
          <ns3:TrackPointExtension>
            <ns3:hr>83</ns3:hr>
            <ns3:cad>0</ns3:cad>
          </ns3:TrackPointExtension>
        </extensions>
      </trkpt>
      <trkpt lat="52.16465561650693416595458984375" lon="1.4966104365885257720947265625">
        <ele>-130.1999969482421875</ele>
        <time>2025-09-06T11:10:57.000Z</time>
        <extensions>
          <ns3:TrackPointExtension>
            <ns3:hr>82</ns3:hr>
            <ns3:cad>0</ns3:cad>
          </ns3:TrackPointExtension>
        </extensions>
      </trkpt>
      <trkpt lat="52.1646551974117755889892578125" lon="1.4966023899614810943603515625">
        <ele>-129.1999969482421875</ele>
        <time>2025-09-06T11:11:00.000Z</time>
        <extensions>
          <ns3:TrackPointExtension>
            <ns3:hr>81</ns3:hr>
            <ns3:cad>0</ns3:cad>
          </ns3:TrackPointExtension>
        </extensions>
      </trkpt>
      <trkpt lat="52.16465528123080730438232421875" lon="1.4965909905731678009033203125">
        <ele>-128</ele>
        <time>2025-09-06T11:11:03.000Z</time>
        <extensions>
          <ns3:TrackPointExtension>
            <ns3:hr>82</ns3:hr>
            <ns3:cad>0</ns3:cad>
          </ns3:TrackPointExtension>
        </extensions>
      </trkpt>
      <trkpt lat="52.1646562032401561737060546875" lon="1.4965822733938694000244140625">
        <ele>-127</ele>
        <time>2025-09-06T11:11:06.000Z</time>
        <extensions>
          <ns3:TrackPointExtension>
            <ns3:hr>80</ns3:hr>
            <ns3:cad>0</ns3:cad>
          </ns3:TrackPointExtension>
        </extensions>
      </trkpt>
      <trkpt lat="52.16465645469725131988525390625" lon="1.496579758822917938232421875">
        <ele>-126.59999847412109375</ele>
        <time>2025-09-06T11:11:07.000Z</time>
        <extensions>
          <ns3:TrackPointExtension>
            <ns3:hr>83</ns3:hr>
            <ns3:cad>0</ns3:cad>
          </ns3:TrackPointExtension>
        </extensions>
      </trkpt>
      <trkpt lat="52.164656706154346466064453125" lon="1.49657850153744220733642578125">
        <ele>-126.1999969482421875</ele>
        <time>2025-09-06T11:11:08.000Z</time>
        <extensions>
          <ns3:TrackPointExtension>
            <ns3:hr>80</ns3:hr>
            <ns3:cad>0</ns3:cad>
          </ns3:TrackPointExtension>
        </extensions>
      </trkpt>
      <trkpt lat="52.1646568737924098968505859375" lon="1.496581099927425384521484375">
        <ele>-125.8000030517578125</ele>
        <time>2025-09-06T11:11:09.000Z</time>
        <extensions>
          <ns3:TrackPointExtension>
            <ns3:hr>79</ns3:hr>
            <ns3:cad>0</ns3:cad>
          </ns3:TrackPointExtension>
        </extensions>
      </trkpt>
      <trkpt lat="52.1646491624414920806884765625" lon="1.49658738635480403900146484375">
        <ele>-124.8000030517578125</ele>
        <time>2025-09-06T11:11:12.000Z</time>
        <extensions>
          <ns3:TrackPointExtension>
            <ns3:hr>81</ns3:hr>
            <ns3:cad>0</ns3:cad>
          </ns3:TrackPointExtension>
        </extensions>
      </trkpt>
      <trkpt lat="52.16466508805751800537109375" lon="1.49656592868268489837646484375">
        <ele>-123.8000030517578125</ele>
        <time>2025-09-06T11:11:15.000Z</time>
        <extensions>
          <ns3:TrackPointExtension>
            <ns3:hr>80</ns3:hr>
            <ns3:cad>0</ns3:cad>
          </ns3:TrackPointExtension>
        </extensions>
      </trkpt>
      <trkpt lat="52.16466508805751800537109375" lon="1.49656592868268489837646484375">
        <ele>-123.40000152587890625</ele>
        <time>2025-09-06T11:11:16.000Z</time>
        <extensions>
          <ns3:TrackPointExtension>
            <ns3:hr>82</ns3:hr>
            <ns3:cad>0</ns3:cad>
          </ns3:TrackPointExtension>
        </extensions>
      </trkpt>
      <trkpt lat="52.1646484918892383575439453125" lon="1.4965993724763393402099609375">
        <ele>-122.59999847412109375</ele>
        <time>2025-09-06T11:11:19.000Z</time>
        <extensions>
          <ns3:TrackPointExtension>
            <ns3:hr>82</ns3:hr>
            <ns3:cad>0</ns3:cad>
          </ns3:TrackPointExtension>
        </extensions>
      </trkpt>
      <trkpt lat="52.16461655683815479278564453125" lon="1.49664639495313167572021484375">
        <ele>-121.8000030517578125</ele>
        <time>2025-09-06T11:11:22.000Z</time>
        <extensions>
          <ns3:TrackPointExtension>
            <ns3:hr>85</ns3:hr>
            <ns3:cad>0</ns3:cad>
          </ns3:TrackPointExtension>
        </extensions>
      </trkpt>
      <trkpt lat="52.16461219824850559234619140625" lon="1.49665092118084430694580078125">
        <ele>-121.40000152587890625</ele>
        <time>2025-09-06T11:11:24.000Z</time>
        <extensions>
          <ns3:TrackPointExtension>
            <ns3:hr>90</ns3:hr>
            <ns3:cad>0</ns3:cad>
          </ns3:TrackPointExtension>
        </extensions>
      </trkpt>
      <trkpt lat="52.16461144387722015380859375" lon="1.4966489933431148529052734375">
        <ele>-121.40000152587890625</ele>
        <time>2025-09-06T11:11:25.000Z</time>
        <extensions>
          <ns3:TrackPointExtension>
            <ns3:hr>90</ns3:hr>
            <ns3:cad>0</ns3:cad>
          </ns3:TrackPointExtension>
        </extensions>
      </trkpt>
      <trkpt lat="52.164609767496585845947265625" lon="1.4966476522386074066162109375">
        <ele>-121</ele>
        <time>2025-09-06T11:11:27.000Z</time>
        <extensions>
          <ns3:TrackPointExtension>
            <ns3:hr>93</ns3:hr>
            <ns3:cad>0</ns3:cad>
          </ns3:TrackPointExtension>
        </extensions>
      </trkpt>
      <trkpt lat="52.16461303643882274627685546875" lon="1.49665796197950839996337890625">
        <ele>-120.40000152587890625</ele>
        <time>2025-09-06T11:11:32.000Z</time>
        <extensions>
          <ns3:TrackPointExtension>
            <ns3:hr>97</ns3:hr>
            <ns3:cad>0</ns3:cad>
          </ns3:TrackPointExtension>
        </extensions>
      </trkpt>
      <trkpt lat="52.1646134555339813232421875" lon="1.4966619014739990234375">
        <ele>-120.1999969482421875</ele>
        <time>2025-09-06T11:11:33.000Z</time>
        <extensions>
          <ns3:TrackPointExtension>
            <ns3:hr>93</ns3:hr>
            <ns3:cad>0</ns3:cad>
          </ns3:TrackPointExtension>
        </extensions>
      </trkpt>
      <trkpt lat="52.164611779153347015380859375" lon="1.4966624043881893157958984375">
        <ele>-120</ele>
        <time>2025-09-06T11:11:34.000Z</time>
        <extensions>
          <ns3:TrackPointExtension>
            <ns3:hr>96</ns3:hr>
            <ns3:cad>0</ns3:cad>
          </ns3:TrackPointExtension>
        </extensions>
      </trkpt>
      <trkpt lat="52.16460331343114376068115234375" lon="1.49667640216648578643798828125">
        <ele>-119.40000152587890625</ele>
        <time>2025-09-06T11:11:40.000Z</time>
        <extensions>
          <ns3:TrackPointExtension>
            <ns3:hr>99</ns3:hr>
            <ns3:cad>0</ns3:cad>
          </ns3:TrackPointExtension>
        </extensions>
      </trkpt>
      <trkpt lat="52.16462208889424800872802734375" lon="1.49667053483426570892333984375">
        <ele>-118.59999847412109375</ele>
        <time>2025-09-06T11:11:45.000Z</time>
        <extensions>
          <ns3:TrackPointExtension>
            <ns3:hr>96</ns3:hr>
            <ns3:cad>0</ns3:cad>
          </ns3:TrackPointExtension>
        </extensions>
      </trkpt>
      <trkpt lat="52.1646216697990894317626953125" lon="1.49667321704328060150146484375">
        <ele>-118.1999969482421875</ele>
        <time>2025-09-06T11:11:48.000Z</time>
        <extensions>
          <ns3:TrackPointExtension>
            <ns3:hr>96</ns3:hr>
            <ns3:cad>0</ns3:cad>
          </ns3:TrackPointExtension>
        </extensions>
      </trkpt>
      <trkpt lat="52.1646230109035968780517578125" lon="1.49665947072207927703857421875">
        <ele>-117.8000030517578125</ele>
        <time>2025-09-06T11:11:53.000Z</time>
        <extensions>
          <ns3:TrackPointExtension>
            <ns3:hr>96</ns3:hr>
            <ns3:cad>0</ns3:cad>
          </ns3:TrackPointExtension>
        </extensions>
      </trkpt>
      <trkpt lat="52.1646456420421600341796875" lon="1.49664522148668766021728515625">
        <ele>-117.1999969482421875</ele>
        <time>2025-09-06T11:11:57.000Z</time>
        <extensions>
          <ns3:TrackPointExtension>
            <ns3:hr>94</ns3:hr>
            <ns3:cad>0</ns3:cad>
          </ns3:TrackPointExtension>
        </extensions>
      </trkpt>
      <trkpt lat="52.16468813829123973846435546875" lon="1.496582441031932830810546875">
        <ele>-116.40000152587890625</ele>
        <time>2025-09-06T11:12:05.000Z</time>
        <extensions>
          <ns3:TrackPointExtension>
            <ns3:hr>90</ns3:hr>
            <ns3:cad>0</ns3:cad>
          </ns3:TrackPointExtension>
        </extensions>
      </trkpt>
      <trkpt lat="52.164707668125629425048828125" lon="1.49657079018652439117431640625">
        <ele>-116.1999969482421875</ele>
        <time>2025-09-06T11:12:07.000Z</time>
        <extensions>
          <ns3:TrackPointExtension>
            <ns3:hr>90</ns3:hr>
            <ns3:cad>0</ns3:cad>
          </ns3:TrackPointExtension>
        </extensions>
      </trkpt>
      <trkpt lat="52.16473348438739776611328125" lon="1.49659777991473674774169921875">
        <ele>-115</ele>
        <time>2025-09-06T11:12:14.000Z</time>
        <extensions>
          <ns3:TrackPointExtension>
            <ns3:hr>90</ns3:hr>
            <ns3:cad>0</ns3:cad>
          </ns3:TrackPointExtension>
        </extensions>
      </trkpt>
      <trkpt lat="52.16471462510526180267333984375" lon="1.49661940522491931915283203125">
        <ele>-114</ele>
        <time>2025-09-06T11:12:20.000Z</time>
        <extensions>
          <ns3:TrackPointExtension>
            <ns3:hr>89</ns3:hr>
            <ns3:cad>0</ns3:cad>
          </ns3:TrackPointExtension>
        </extensions>
      </trkpt>
      <trkpt lat="52.16470456682145595550537109375" lon="1.496672965586185455322265625">
        <ele>-112.8000030517578125</ele>
        <time>2025-09-06T11:12:25.000Z</time>
        <extensions>
          <ns3:TrackPointExtension>
            <ns3:hr>87</ns3:hr>
            <ns3:cad>0</ns3:cad>
          </ns3:TrackPointExtension>
        </extensions>
      </trkpt>
      <trkpt lat="52.16469618491828441619873046875" lon="1.4966825209558010101318359375">
        <ele>-112.59999847412109375</ele>
        <time>2025-09-06T11:12:26.000Z</time>
        <extensions>
          <ns3:TrackPointExtension>
            <ns3:hr>86</ns3:hr>
            <ns3:cad>0</ns3:cad>
          </ns3:TrackPointExtension>
        </extensions>
      </trkpt>
      <trkpt lat="52.16466785408556461334228515625" lon="1.49671445600688457489013671875">
        <ele>-111.8000030517578125</ele>
        <time>2025-09-06T11:12:29.000Z</time>
        <extensions>
          <ns3:TrackPointExtension>
            <ns3:hr>87</ns3:hr>
            <ns3:cad>0</ns3:cad>
          </ns3:TrackPointExtension>
        </extensions>
      </trkpt>
      <trkpt lat="52.16466265730559825897216796875" lon="1.49672501720488071441650390625">
        <ele>-110.8000030517578125</ele>
        <time>2025-09-06T11:12:32.000Z</time>
        <extensions>
          <ns3:TrackPointExtension>
            <ns3:hr>87</ns3:hr>
            <ns3:cad>0</ns3:cad>
          </ns3:TrackPointExtension>
        </extensions>
      </trkpt>
      <trkpt lat="52.164664082229137420654296875" lon="1.4967314712703227996826171875">
        <ele>-109.59999847412109375</ele>
        <time>2025-09-06T11:12:35.000Z</time>
        <extensions>
          <ns3:TrackPointExtension>
            <ns3:hr>86</ns3:hr>
            <ns3:cad>0</ns3:cad>
          </ns3:TrackPointExtension>
        </extensions>
      </trkpt>
      <trkpt lat="52.16466181911528110504150390625" lon="1.49673272855579853057861328125">
        <ele>-108.40000152587890625</ele>
        <time>2025-09-06T11:12:38.000Z</time>
        <extensions>
          <ns3:TrackPointExtension>
            <ns3:hr>88</ns3:hr>
            <ns3:cad>0</ns3:cad>
          </ns3:TrackPointExtension>
        </extensions>
      </trkpt>
      <trkpt lat="52.16465746052563190460205078125" lon="1.4967311359941959381103515625">
        <ele>-107.1999969482421875</ele>
        <time>2025-09-06T11:12:41.000Z</time>
        <extensions>
          <ns3:TrackPointExtension>
            <ns3:hr>86</ns3:hr>
            <ns3:cad>0</ns3:cad>
          </ns3:TrackPointExtension>
        </extensions>
      </trkpt>
      <trkpt lat="52.16465963982045650482177734375" lon="1.49671487510204315185546875">
        <ele>-105.8000030517578125</ele>
        <time>2025-09-06T11:12:44.000Z</time>
        <extensions>
          <ns3:TrackPointExtension>
            <ns3:hr>86</ns3:hr>
            <ns3:cad>0</ns3:cad>
          </ns3:TrackPointExtension>
        </extensions>
      </trkpt>
      <trkpt lat="52.1646672673523426055908203125" lon="1.49668444879353046417236328125">
        <ele>-104.40000152587890625</ele>
        <time>2025-09-06T11:12:47.000Z</time>
        <extensions>
          <ns3:TrackPointExtension>
            <ns3:hr>88</ns3:hr>
            <ns3:cad>0</ns3:cad>
          </ns3:TrackPointExtension>
        </extensions>
      </trkpt>
      <trkpt lat="52.16466852463781833648681640625" lon="1.4966835267841815948486328125">
        <ele>-104</ele>
        <time>2025-09-06T11:12:48.000Z</time>
        <extensions>
          <ns3:TrackPointExtension>
            <ns3:hr>88</ns3:hr>
            <ns3:cad>0</ns3:cad>
          </ns3:TrackPointExtension>
        </extensions>
      </trkpt>
      <trkpt lat="52.1646709553897380828857421875" lon="1.4966761507093906402587890625">
        <ele>-103.1999969482421875</ele>
        <time>2025-09-06T11:12:50.000Z</time>
        <extensions>
          <ns3:TrackPointExtension>
            <ns3:hr>89</ns3:hr>
            <ns3:cad>0</ns3:cad>
          </ns3:TrackPointExtension>
        </extensions>
      </trkpt>
      <trkpt lat="52.164676487445831298828125" lon="1.4966617338359355926513671875">
        <ele>-101.8000030517578125</ele>
        <time>2025-09-06T11:12:53.000Z</time>
        <extensions>
          <ns3:TrackPointExtension>
            <ns3:hr>87</ns3:hr>
            <ns3:cad>0</ns3:cad>
          </ns3:TrackPointExtension>
        </extensions>
      </trkpt>
      <trkpt lat="52.16468243859708309173583984375" lon="1.49670012295246124267578125">
        <ele>-100.40000152587890625</ele>
        <time>2025-09-06T11:12:56.000Z</time>
        <extensions>
          <ns3:TrackPointExtension>
            <ns3:hr>87</ns3:hr>
            <ns3:cad>0</ns3:cad>
          </ns3:TrackPointExtension>
        </extensions>
      </trkpt>
      <trkpt lat="52.1646930836141109466552734375" lon="1.4967686869204044342041015625">
        <ele>-99.1999969482421875</ele>
        <time>2025-09-06T11:12:59.000Z</time>
        <extensions>
          <ns3:TrackPointExtension>
            <ns3:hr>87</ns3:hr>
            <ns3:cad>0</ns3:cad>
          </ns3:TrackPointExtension>
        </extensions>
      </trkpt>
      <trkpt lat="52.1647091768682003021240234375" lon="1.49676675908267498016357421875">
        <ele>-98</ele>
        <time>2025-09-06T11:13:02.000Z</time>
        <extensions>
          <ns3:TrackPointExtension>
            <ns3:hr>87</ns3:hr>
            <ns3:cad>0</ns3:cad>
          </ns3:TrackPointExtension>
        </extensions>
      </trkpt>
      <trkpt lat="52.16470004059374332427978515625" lon="1.4967705309391021728515625">
        <ele>-96.8000030517578125</ele>
        <time>2025-09-06T11:13:05.000Z</time>
        <extensions>
          <ns3:TrackPointExtension>
            <ns3:hr>85</ns3:hr>
            <ns3:cad>0</ns3:cad>
          </ns3:TrackPointExtension>
        </extensions>
      </trkpt>
      <trkpt lat="52.16469802893698215484619140625" lon="1.49677095003426074981689453125">
        <ele>-96.40000152587890625</ele>
        <time>2025-09-06T11:13:06.000Z</time>
        <extensions>
          <ns3:TrackPointExtension>
            <ns3:hr>84</ns3:hr>
            <ns3:cad>0</ns3:cad>
          </ns3:TrackPointExtension>
        </extensions>
      </trkpt>
      <trkpt lat="52.164696939289569854736328125" lon="1.49677128531038761138916015625">
        <ele>-95.59999847412109375</ele>
        <time>2025-09-06T11:13:08.000Z</time>
        <extensions>
          <ns3:TrackPointExtension>
            <ns3:hr>84</ns3:hr>
            <ns3:cad>0</ns3:cad>
          </ns3:TrackPointExtension>
        </extensions>
      </trkpt>
      <trkpt lat="52.16469702310860157012939453125" lon="1.496771536767482757568359375">
        <ele>-95</ele>
        <time>2025-09-06T11:13:10.000Z</time>
        <extensions>
          <ns3:TrackPointExtension>
            <ns3:hr>87</ns3:hr>
            <ns3:cad>0</ns3:cad>
          </ns3:TrackPointExtension>
        </extensions>
      </trkpt>
      <trkpt lat="52.164697609841823577880859375" lon="1.496770866215229034423828125">
        <ele>-94.59999847412109375</ele>
        <time>2025-09-06T11:13:11.000Z</time>
        <extensions>
          <ns3:TrackPointExtension>
            <ns3:hr>85</ns3:hr>
            <ns3:cad>0</ns3:cad>
          </ns3:TrackPointExtension>
        </extensions>
      </trkpt>
      <trkpt lat="52.1646997891366481781005859375" lon="1.49677581153810024261474609375">
        <ele>-93.40000152587890625</ele>
        <time>2025-09-06T11:13:15.000Z</time>
        <extensions>
          <ns3:TrackPointExtension>
            <ns3:hr>84</ns3:hr>
            <ns3:cad>0</ns3:cad>
          </ns3:TrackPointExtension>
        </extensions>
      </trkpt>
      <trkpt lat="52.1647007949650287628173828125" lon="1.49677656590938568115234375">
        <ele>-92.40000152587890625</ele>
        <time>2025-09-06T11:13:18.000Z</time>
        <extensions>
          <ns3:TrackPointExtension>
            <ns3:hr>81</ns3:hr>
            <ns3:cad>0</ns3:cad>
          </ns3:TrackPointExtension>
        </extensions>
      </trkpt>
      <trkpt lat="52.1647004596889019012451171875" lon="1.49677430279552936553955078125">
        <ele>-92</ele>
        <time>2025-09-06T11:13:19.000Z</time>
        <extensions>
          <ns3:TrackPointExtension>
            <ns3:hr>82</ns3:hr>
            <ns3:cad>0</ns3:cad>
          </ns3:TrackPointExtension>
        </extensions>
      </trkpt>
      <trkpt lat="52.16470037586987018585205078125" lon="1.4967710338532924652099609375">
        <ele>-91.59999847412109375</ele>
        <time>2025-09-06T11:13:20.000Z</time>
        <extensions>
          <ns3:TrackPointExtension>
            <ns3:hr>79</ns3:hr>
            <ns3:cad>0</ns3:cad>
          </ns3:TrackPointExtension>
        </extensions>
      </trkpt>
      <trkpt lat="52.16470238752663135528564453125" lon="1.49676357395946979522705078125">
        <ele>-91</ele>
        <time>2025-09-06T11:13:22.000Z</time>
        <extensions>
          <ns3:TrackPointExtension>
            <ns3:hr>81</ns3:hr>
            <ns3:cad>0</ns3:cad>
          </ns3:TrackPointExtension>
        </extensions>
      </trkpt>
      <trkpt lat="52.16470272280275821685791015625" lon="1.4967633225023746490478515625">
        <ele>-89.8000030517578125</ele>
        <time>2025-09-06T11:13:25.000Z</time>
        <extensions>
          <ns3:TrackPointExtension>
            <ns3:hr>79</ns3:hr>
            <ns3:cad>0</ns3:cad>
          </ns3:TrackPointExtension>
        </extensions>
      </trkpt>
      <trkpt lat="52.164702303707599639892578125" lon="1.4967633225023746490478515625">
        <ele>-88.59999847412109375</ele>
        <time>2025-09-06T11:13:28.000Z</time>
        <extensions>
          <ns3:TrackPointExtension>
            <ns3:hr>80</ns3:hr>
            <ns3:cad>0</ns3:cad>
          </ns3:TrackPointExtension>
        </extensions>
      </trkpt>
      <trkpt lat="52.16469517908990383148193359375" lon="1.496764831244945526123046875">
        <ele>-87.40000152587890625</ele>
        <time>2025-09-06T11:13:31.000Z</time>
        <extensions>
          <ns3:TrackPointExtension>
            <ns3:hr>82</ns3:hr>
            <ns3:cad>0</ns3:cad>
          </ns3:TrackPointExtension>
        </extensions>
      </trkpt>
      <trkpt lat="52.164692915976047515869140625" lon="1.49676659144461154937744140625">
        <ele>-86.40000152587890625</ele>
        <time>2025-09-06T11:13:33.000Z</time>
        <extensions>
          <ns3:TrackPointExtension>
            <ns3:hr>79</ns3:hr>
            <ns3:cad>0</ns3:cad>
          </ns3:TrackPointExtension>
        </extensions>
      </trkpt>
      <trkpt lat="52.16469249688088893890380859375" lon="1.49676525034010410308837890625">
        <ele>-86</ele>
        <time>2025-09-06T11:13:34.000Z</time>
        <extensions>
          <ns3:TrackPointExtension>
            <ns3:hr>80</ns3:hr>
            <ns3:cad>0</ns3:cad>
          </ns3:TrackPointExtension>
        </extensions>
      </trkpt>
      <trkpt lat="52.16469266451895236968994140625" lon="1.49675502441823482513427734375">
        <ele>-84.59999847412109375</ele>
        <time>2025-09-06T11:13:37.000Z</time>
        <extensions>
          <ns3:TrackPointExtension>
            <ns3:hr>80</ns3:hr>
            <ns3:cad>0</ns3:cad>
          </ns3:TrackPointExtension>
        </extensions>
      </trkpt>
      <trkpt lat="52.16469400562345981597900390625" lon="1.4967529289424419403076171875">
        <ele>-83.1999969482421875</ele>
        <time>2025-09-06T11:13:40.000Z</time>
        <extensions>
          <ns3:TrackPointExtension>
            <ns3:hr>79</ns3:hr>
            <ns3:cad>0</ns3:cad>
          </ns3:TrackPointExtension>
        </extensions>
      </trkpt>
      <trkpt lat="52.16469551436603069305419921875" lon="1.49674882180988788604736328125">
        <ele>-81.8000030517578125</ele>
        <time>2025-09-06T11:13:43.000Z</time>
        <extensions>
          <ns3:TrackPointExtension>
            <ns3:hr>78</ns3:hr>
            <ns3:cad>0</ns3:cad>
          </ns3:TrackPointExtension>
        </extensions>
      </trkpt>
      <trkpt lat="52.16469467617571353912353515625" lon="1.49674681015312671661376953125">
        <ele>-81.40000152587890625</ele>
        <time>2025-09-06T11:13:44.000Z</time>
        <extensions>
          <ns3:TrackPointExtension>
            <ns3:hr>81</ns3:hr>
            <ns3:cad>0</ns3:cad>
          </ns3:TrackPointExtension>
        </extensions>
      </trkpt>
      <trkpt lat="52.16469584964215755462646484375" lon="1.49674144573509693145751953125">
        <ele>-80.40000152587890625</ele>
        <time>2025-09-06T11:13:46.000Z</time>
        <extensions>
          <ns3:TrackPointExtension>
            <ns3:hr>78</ns3:hr>
            <ns3:cad>0</ns3:cad>
          </ns3:TrackPointExtension>
        </extensions>
      </trkpt>
      <trkpt lat="52.16469853185117244720458984375" lon="1.4967328123748302459716796875">
        <ele>-79</ele>
        <time>2025-09-06T11:13:49.000Z</time>
        <extensions>
          <ns3:TrackPointExtension>
            <ns3:hr>77</ns3:hr>
            <ns3:cad>0</ns3:cad>
          </ns3:TrackPointExtension>
        </extensions>
      </trkpt>
      <trkpt lat="52.16469316743314266204833984375" lon="1.49671747349202632904052734375">
        <ele>-77.40000152587890625</ele>
        <time>2025-09-06T11:13:52.000Z</time>
        <extensions>
          <ns3:TrackPointExtension>
            <ns3:hr>78</ns3:hr>
            <ns3:cad>0</ns3:cad>
          </ns3:TrackPointExtension>
        </extensions>
      </trkpt>
      <trkpt lat="52.16469727456569671630859375" lon="1.49670758284628391265869140625">
        <ele>-76</ele>
        <time>2025-09-06T11:13:55.000Z</time>
        <extensions>
          <ns3:TrackPointExtension>
            <ns3:hr>77</ns3:hr>
            <ns3:cad>0</ns3:cad>
          </ns3:TrackPointExtension>
        </extensions>
      </trkpt>
      <trkpt lat="52.164702974259853363037109375" lon="1.4966919086873531341552734375">
        <ele>-74.59999847412109375</ele>
        <time>2025-09-06T11:13:58.000Z</time>
        <extensions>
          <ns3:TrackPointExtension>
            <ns3:hr>78</ns3:hr>
            <ns3:cad>0</ns3:cad>
          </ns3:TrackPointExtension>
        </extensions>
      </trkpt>
      <trkpt lat="52.1646994538605213165283203125" lon="1.49666299112141132354736328125">
        <ele>-73.1999969482421875</ele>
        <time>2025-09-06T11:14:01.000Z</time>
        <extensions>
          <ns3:TrackPointExtension>
            <ns3:hr>78</ns3:hr>
            <ns3:cad>0</ns3:cad>
          </ns3:TrackPointExtension>
        </extensions>
      </trkpt>
      <trkpt lat="52.1646940894424915313720703125" lon="1.49665494449436664581298828125">
        <ele>-71.8000030517578125</ele>
        <time>2025-09-06T11:14:04.000Z</time>
        <extensions>
          <ns3:TrackPointExtension>
            <ns3:hr>78</ns3:hr>
            <ns3:cad>0</ns3:cad>
          </ns3:TrackPointExtension>
        </extensions>
      </trkpt>
      <trkpt lat="52.16469517908990383148193359375" lon="1.49664840660989284515380859375">
        <ele>-70.40000152587890625</ele>
        <time>2025-09-06T11:14:07.000Z</time>
        <extensions>
          <ns3:TrackPointExtension>
            <ns3:hr>76</ns3:hr>
            <ns3:cad>0</ns3:cad>
          </ns3:TrackPointExtension>
        </extensions>
      </trkpt>
      <trkpt lat="52.16469802893698215484619140625" lon="1.496638096868991851806640625">
        <ele>-69</ele>
        <time>2025-09-06T11:14:10.000Z</time>
        <extensions>
          <ns3:TrackPointExtension>
            <ns3:hr>76</ns3:hr>
            <ns3:cad>0</ns3:cad>
          </ns3:TrackPointExtension>
        </extensions>
      </trkpt>
      <trkpt lat="52.164692580699920654296875" lon="1.49661940522491931915283203125">
        <ele>-67.59999847412109375</ele>
        <time>2025-09-06T11:14:13.000Z</time>
        <extensions>
          <ns3:TrackPointExtension>
            <ns3:hr>75</ns3:hr>
            <ns3:cad>0</ns3:cad>
          </ns3:TrackPointExtension>
        </extensions>
      </trkpt>
      <trkpt lat="52.16469191014766693115234375" lon="1.49661605246365070343017578125">
        <ele>-67.1999969482421875</ele>
        <time>2025-09-06T11:14:14.000Z</time>
        <extensions>
          <ns3:TrackPointExtension>
            <ns3:hr>75</ns3:hr>
            <ns3:cad>0</ns3:cad>
          </ns3:TrackPointExtension>
        </extensions>
      </trkpt>
      <trkpt lat="52.16467715799808502197265625" lon="1.4966278709471225738525390625">
        <ele>-66.1999969482421875</ele>
        <time>2025-09-06T11:14:16.000Z</time>
        <extensions>
          <ns3:TrackPointExtension>
            <ns3:hr>74</ns3:hr>
            <ns3:cad>0</ns3:cad>
          </ns3:TrackPointExtension>
        </extensions>
      </trkpt>
      <trkpt lat="52.164666093885898590087890625" lon="1.49664379656314849853515625">
        <ele>-65</ele>
        <time>2025-09-06T11:14:19.000Z</time>
        <extensions>
          <ns3:TrackPointExtension>
            <ns3:hr>76</ns3:hr>
            <ns3:cad>0</ns3:cad>
          </ns3:TrackPointExtension>
        </extensions>
      </trkpt>
      <trkpt lat="52.16465326957404613494873046875" lon="1.49665242992341518402099609375">
        <ele>-63.59999847412109375</ele>
        <time>2025-09-06T11:14:22.000Z</time>
        <extensions>
          <ns3:TrackPointExtension>
            <ns3:hr>74</ns3:hr>
            <ns3:cad>0</ns3:cad>
          </ns3:TrackPointExtension>
        </extensions>
      </trkpt>
      <trkpt lat="52.16464539058506488800048828125" lon="1.496671624481678009033203125">
        <ele>-62.40000152587890625</ele>
        <time>2025-09-06T11:14:25.000Z</time>
        <extensions>
          <ns3:TrackPointExtension>
            <ns3:hr>72</ns3:hr>
            <ns3:cad>0</ns3:cad>
          </ns3:TrackPointExtension>
        </extensions>
      </trkpt>
      <trkpt lat="52.16466198675334453582763671875" lon="1.4966674335300922393798828125">
        <ele>-61.200000762939453125</ele>
        <time>2025-09-06T11:14:28.000Z</time>
        <extensions>
          <ns3:TrackPointExtension>
            <ns3:hr>74</ns3:hr>
            <ns3:cad>0</ns3:cad>
          </ns3:TrackPointExtension>
        </extensions>
      </trkpt>
      <trkpt lat="52.16466651298105716705322265625" lon="1.49667204357683658599853515625">
        <ele>-60.799999237060546875</ele>
        <time>2025-09-06T11:14:29.000Z</time>
        <extensions>
          <ns3:TrackPointExtension>
            <ns3:hr>74</ns3:hr>
            <ns3:cad>0</ns3:cad>
          </ns3:TrackPointExtension>
        </extensions>
      </trkpt>
      <trkpt lat="52.1646753139793872833251953125" lon="1.4966868795454502105712890625">
        <ele>-60</ele>
        <time>2025-09-06T11:14:31.000Z</time>
        <extensions>
          <ns3:TrackPointExtension>
            <ns3:hr>73</ns3:hr>
            <ns3:cad>0</ns3:cad>
          </ns3:TrackPointExtension>
        </extensions>
      </trkpt>
      <trkpt lat="52.16468160040676593780517578125" lon="1.4967137016355991363525390625">
        <ele>-59.200000762939453125</ele>
        <time>2025-09-06T11:14:33.000Z</time>
        <extensions>
          <ns3:TrackPointExtension>
            <ns3:hr>76</ns3:hr>
            <ns3:cad>0</ns3:cad>
          </ns3:TrackPointExtension>
        </extensions>
      </trkpt>
      <trkpt lat="52.1646810136735439300537109375" lon="1.49672434665262699127197265625">
        <ele>-58.799999237060546875</ele>
        <time>2025-09-06T11:14:35.000Z</time>
        <extensions>
          <ns3:TrackPointExtension>
            <ns3:hr>74</ns3:hr>
            <ns3:cad>0</ns3:cad>
          </ns3:TrackPointExtension>
        </extensions>
      </trkpt>
      <trkpt lat="52.16468445025384426116943359375" lon="1.4967267774045467376708984375">
        <ele>-58</ele>
        <time>2025-09-06T11:14:45.000Z</time>
        <extensions>
          <ns3:TrackPointExtension>
            <ns3:hr>74</ns3:hr>
            <ns3:cad>0</ns3:cad>
          </ns3:TrackPointExtension>
        </extensions>
      </trkpt>
      <trkpt lat="52.164688892662525177001953125" lon="1.49672635830938816070556640625">
        <ele>-58</ele>
        <time>2025-09-06T11:14:51.000Z</time>
        <extensions>
          <ns3:TrackPointExtension>
            <ns3:hr>71</ns3:hr>
            <ns3:cad>0</ns3:cad>
          </ns3:TrackPointExtension>
        </extensions>
      </trkpt>
      <trkpt lat="52.16466634534299373626708984375" lon="1.496709175407886505126953125">
        <ele>-58.40000152587890625</ele>
        <time>2025-09-06T11:15:01.000Z</time>
        <extensions>
          <ns3:TrackPointExtension>
            <ns3:hr>74</ns3:hr>
            <ns3:cad>0</ns3:cad>
          </ns3:TrackPointExtension>
        </extensions>
      </trkpt>
      <trkpt lat="52.16465159319341182708740234375" lon="1.49669878184795379638671875">
        <ele>-58.59999847412109375</ele>
        <time>2025-09-06T11:15:03.000Z</time>
        <extensions>
          <ns3:TrackPointExtension>
            <ns3:hr>69</ns3:hr>
            <ns3:cad>0</ns3:cad>
          </ns3:TrackPointExtension>
        </extensions>
      </trkpt>
      <trkpt lat="52.1646461449563503265380859375" lon="1.49669350124895572662353515625">
        <ele>-58.59999847412109375</ele>
        <time>2025-09-06T11:15:04.000Z</time>
        <extensions>
          <ns3:TrackPointExtension>
            <ns3:hr>72</ns3:hr>
            <ns3:cad>0</ns3:cad>
          </ns3:TrackPointExtension>
        </extensions>
      </trkpt>
      <trkpt lat="52.16462929733097553253173828125" lon="1.49667087011039257049560546875">
        <ele>-58.799999237060546875</ele>
        <time>2025-09-06T11:15:07.000Z</time>
        <extensions>
          <ns3:TrackPointExtension>
            <ns3:hr>75</ns3:hr>
            <ns3:cad>0</ns3:cad>
          </ns3:TrackPointExtension>
        </extensions>
      </trkpt>
      <trkpt lat="52.16462753713130950927734375" lon="1.496653519570827484130859375">
        <ele>-59.200000762939453125</ele>
        <time>2025-09-06T11:15:11.000Z</time>
        <extensions>
          <ns3:TrackPointExtension>
            <ns3:hr>71</ns3:hr>
            <ns3:cad>0</ns3:cad>
          </ns3:TrackPointExtension>
        </extensions>
      </trkpt>
      <trkpt lat="52.16466198675334453582763671875" lon="1.496651172637939453125">
        <ele>-60</ele>
        <time>2025-09-06T11:15:20.000Z</time>
        <extensions>
          <ns3:TrackPointExtension>
            <ns3:hr>72</ns3:hr>
            <ns3:cad>0</ns3:cad>
          </ns3:TrackPointExtension>
        </extensions>
      </trkpt>
      <trkpt lat="52.16466701589524745941162109375" lon="1.4966520108282566070556640625">
        <ele>-60</ele>
        <time>2025-09-06T11:15:21.000Z</time>
        <extensions>
          <ns3:TrackPointExtension>
            <ns3:hr>73</ns3:hr>
            <ns3:cad>0</ns3:cad>
          </ns3:TrackPointExtension>
        </extensions>
      </trkpt>
      <trkpt lat="52.16469459235668182373046875" lon="1.49665779434144496917724609375">
        <ele>-60.40000152587890625</ele>
        <time>2025-09-06T11:15:25.000Z</time>
        <extensions>
          <ns3:TrackPointExtension>
            <ns3:hr>70</ns3:hr>
            <ns3:cad>0</ns3:cad>
          </ns3:TrackPointExtension>
        </extensions>
      </trkpt>
      <trkpt lat="52.1646836958825588226318359375" lon="1.49664907716214656829833984375">
        <ele>-60.59999847412109375</ele>
        <time>2025-09-06T11:15:29.000Z</time>
        <extensions>
          <ns3:TrackPointExtension>
            <ns3:hr>73</ns3:hr>
            <ns3:cad>0</ns3:cad>
          </ns3:TrackPointExtension>
        </extensions>
      </trkpt>
      <trkpt lat="52.1646763198077678680419921875" lon="1.496641449630260467529296875">
        <ele>-60.799999237060546875</ele>
        <time>2025-09-06T11:15:40.000Z</time>
        <extensions>
          <ns3:TrackPointExtension>
            <ns3:hr>73</ns3:hr>
            <ns3:cad>0</ns3:cad>
          </ns3:TrackPointExtension>
        </extensions>
      </trkpt>
      <trkpt lat="52.16467380523681640625" lon="1.49663734249770641326904296875">
        <ele>-60.40000152587890625</ele>
        <time>2025-09-06T11:15:43.000Z</time>
        <extensions>
          <ns3:TrackPointExtension>
            <ns3:hr>69</ns3:hr>
            <ns3:cad>0</ns3:cad>
          </ns3:TrackPointExtension>
        </extensions>
      </trkpt>
      <trkpt lat="52.16467372141778469085693359375" lon="1.4966372586786746978759765625">
        <ele>-60.40000152587890625</ele>
        <time>2025-09-06T11:15:44.000Z</time>
        <extensions>
          <ns3:TrackPointExtension>
            <ns3:hr>69</ns3:hr>
            <ns3:cad>0</ns3:cad>
          </ns3:TrackPointExtension>
        </extensions>
      </trkpt>
      <trkpt lat="52.1646736375987529754638671875" lon="1.49663574993610382080078125">
        <ele>-60</ele>
        <time>2025-09-06T11:15:46.000Z</time>
        <extensions>
          <ns3:TrackPointExtension>
            <ns3:hr>72</ns3:hr>
            <ns3:cad>0</ns3:cad>
          </ns3:TrackPointExtension>
        </extensions>
      </trkpt>
      <trkpt lat="52.164674140512943267822265625" lon="1.496632061898708343505859375">
        <ele>-59</ele>
        <time>2025-09-06T11:15:57.000Z</time>
        <extensions>
          <ns3:TrackPointExtension>
            <ns3:hr>69</ns3:hr>
            <ns3:cad>0</ns3:cad>
          </ns3:TrackPointExtension>
        </extensions>
      </trkpt>
      <trkpt lat="52.1646751463413238525390625" lon="1.496634744107723236083984375">
        <ele>-59</ele>
        <time>2025-09-06T11:15:59.000Z</time>
        <extensions>
          <ns3:TrackPointExtension>
            <ns3:hr>69</ns3:hr>
            <ns3:cad>0</ns3:cad>
          </ns3:TrackPointExtension>
        </extensions>
      </trkpt>
      <trkpt lat="52.1646759845316410064697265625" lon="1.496633403003215789794921875">
        <ele>-59.200000762939453125</ele>
        <time>2025-09-06T11:16:01.000Z</time>
        <extensions>
          <ns3:TrackPointExtension>
            <ns3:hr>74</ns3:hr>
            <ns3:cad>0</ns3:cad>
          </ns3:TrackPointExtension>
        </extensions>
      </trkpt>
      <trkpt lat="52.16466617770493030548095703125" lon="1.49663616903126239776611328125">
        <ele>-59.200000762939453125</ele>
        <time>2025-09-06T11:16:02.000Z</time>
        <extensions>
          <ns3:TrackPointExtension>
            <ns3:hr>77</ns3:hr>
            <ns3:cad>0</ns3:cad>
          </ns3:TrackPointExtension>
        </extensions>
      </trkpt>
      <trkpt lat="52.1646649204194545745849609375" lon="1.4966365881264209747314453125">
        <ele>-59.200000762939453125</ele>
        <time>2025-09-06T11:16:03.000Z</time>
        <extensions>
          <ns3:TrackPointExtension>
            <ns3:hr>77</ns3:hr>
            <ns3:cad>0</ns3:cad>
          </ns3:TrackPointExtension>
        </extensions>
      </trkpt>
      <trkpt lat="52.1646645851433277130126953125" lon="1.496635414659976959228515625">
        <ele>-59.200000762939453125</ele>
        <time>2025-09-06T11:16:04.000Z</time>
        <extensions>
          <ns3:TrackPointExtension>
            <ns3:hr>81</ns3:hr>
            <ns3:cad>0</ns3:cad>
          </ns3:TrackPointExtension>
        </extensions>
      </trkpt>
      <trkpt lat="52.164664082229137420654296875" lon="1.49663348682224750518798828125">
        <ele>-59.200000762939453125</ele>
        <time>2025-09-06T11:16:05.000Z</time>
        <extensions>
          <ns3:TrackPointExtension>
            <ns3:hr>85</ns3:hr>
            <ns3:cad>0</ns3:cad>
          </ns3:TrackPointExtension>
        </extensions>
      </trkpt>
      <trkpt lat="52.1646635793149471282958984375" lon="1.49663331918418407440185546875">
        <ele>-59.40000152587890625</ele>
        <time>2025-09-06T11:16:06.000Z</time>
        <extensions>
          <ns3:TrackPointExtension>
            <ns3:hr>85</ns3:hr>
            <ns3:cad>0</ns3:cad>
          </ns3:TrackPointExtension>
        </extensions>
      </trkpt>
      <trkpt lat="52.1646625734865665435791015625" lon="1.49663298390805721282958984375">
        <ele>-59.40000152587890625</ele>
        <time>2025-09-06T11:16:09.000Z</time>
        <extensions>
          <ns3:TrackPointExtension>
            <ns3:hr>89</ns3:hr>
            <ns3:cad>0</ns3:cad>
          </ns3:TrackPointExtension>
        </extensions>
      </trkpt>
      <trkpt lat="52.164665423333644866943359375" lon="1.496629379689693450927734375">
        <ele>-59.799999237060546875</ele>
        <time>2025-09-06T11:16:13.000Z</time>
        <extensions>
          <ns3:TrackPointExtension>
            <ns3:hr>93</ns3:hr>
            <ns3:cad>0</ns3:cad>
          </ns3:TrackPointExtension>
        </extensions>
      </trkpt>
      <trkpt lat="52.16466332785785198211669921875" lon="1.49663851596415042877197265625">
        <ele>-59.799999237060546875</ele>
        <time>2025-09-06T11:16:15.000Z</time>
        <extensions>
          <ns3:TrackPointExtension>
            <ns3:hr>94</ns3:hr>
            <ns3:cad>0</ns3:cad>
          </ns3:TrackPointExtension>
        </extensions>
      </trkpt>
      <trkpt lat="52.16466248966753482818603515625" lon="1.496632397174835205078125">
        <ele>-60</ele>
        <time>2025-09-06T11:16:25.000Z</time>
        <extensions>
          <ns3:TrackPointExtension>
            <ns3:hr>97</ns3:hr>
            <ns3:cad>0</ns3:cad>
          </ns3:TrackPointExtension>
        </extensions>
      </trkpt>
      <trkpt lat="52.16466114856302738189697265625" lon="1.49665293283760547637939453125">
        <ele>-60</ele>
        <time>2025-09-06T11:16:29.000Z</time>
        <extensions>
          <ns3:TrackPointExtension>
            <ns3:hr>96</ns3:hr>
            <ns3:cad>0</ns3:cad>
          </ns3:TrackPointExtension>
        </extensions>
      </trkpt>
      <trkpt lat="52.1646612323820590972900390625" lon="1.49664916098117828369140625">
        <ele>-59.40000152587890625</ele>
        <time>2025-09-06T11:16:45.000Z</time>
        <extensions>
          <ns3:TrackPointExtension>
            <ns3:hr>95</ns3:hr>
            <ns3:cad>0</ns3:cad>
          </ns3:TrackPointExtension>
        </extensions>
      </trkpt>
      <trkpt lat="52.1646887250244617462158203125" lon="1.49665586650371551513671875">
        <ele>-60</ele>
        <time>2025-09-06T11:17:02.000Z</time>
        <extensions>
          <ns3:TrackPointExtension>
            <ns3:hr>95</ns3:hr>
            <ns3:cad>0</ns3:cad>
          </ns3:TrackPointExtension>
        </extensions>
      </trkpt>
      <trkpt lat="52.16469819657504558563232421875" lon="1.49666584096848964691162109375">
        <ele>-60.200000762939453125</ele>
        <time>2025-09-06T11:17:05.000Z</time>
        <extensions>
          <ns3:TrackPointExtension>
            <ns3:hr>98</ns3:hr>
            <ns3:cad>0</ns3:cad>
          </ns3:TrackPointExtension>
        </extensions>
      </trkpt>
      <trkpt lat="52.16468025930225849151611328125" lon="1.49669266305863857269287109375">
        <ele>-60.200000762939453125</ele>
        <time>2025-09-06T11:17:10.000Z</time>
        <extensions>
          <ns3:TrackPointExtension>
            <ns3:hr>94</ns3:hr>
            <ns3:cad>0</ns3:cad>
          </ns3:TrackPointExtension>
        </extensions>
      </trkpt>
      <trkpt lat="52.16467187739908695220947265625" lon="1.49669417180120944976806640625">
        <ele>-60.200000762939453125</ele>
        <time>2025-09-06T11:17:12.000Z</time>
        <extensions>
          <ns3:TrackPointExtension>
            <ns3:hr>97</ns3:hr>
            <ns3:cad>0</ns3:cad>
          </ns3:TrackPointExtension>
        </extensions>
      </trkpt>
      <trkpt lat="52.1646615676581859588623046875" lon="1.4967026375234127044677734375">
        <ele>-59.799999237060546875</ele>
        <time>2025-09-06T11:17:16.000Z</time>
        <extensions>
          <ns3:TrackPointExtension>
            <ns3:hr>99</ns3:hr>
            <ns3:cad>0</ns3:cad>
          </ns3:TrackPointExtension>
        </extensions>
      </trkpt>
      <trkpt lat="52.1646515093743801116943359375" lon="1.4967053197324275970458984375">
        <ele>-58.799999237060546875</ele>
        <time>2025-09-06T11:17:22.000Z</time>
        <extensions>
          <ns3:TrackPointExtension>
            <ns3:hr>101</ns3:hr>
            <ns3:cad>0</ns3:cad>
          </ns3:TrackPointExtension>
        </extensions>
      </trkpt>
      <trkpt lat="52.16464790515601634979248046875" lon="1.49670205079019069671630859375">
        <ele>-57.799999237060546875</ele>
        <time>2025-09-06T11:17:28.000Z</time>
        <extensions>
          <ns3:TrackPointExtension>
            <ns3:hr>103</ns3:hr>
            <ns3:cad>0</ns3:cad>
          </ns3:TrackPointExtension>
        </extensions>
      </trkpt>
      <trkpt lat="52.1646511740982532501220703125" lon="1.49670280516147613525390625">
        <ele>-57.40000152587890625</ele>
        <time>2025-09-06T11:17:30.000Z</time>
        <extensions>
          <ns3:TrackPointExtension>
            <ns3:hr>105</ns3:hr>
            <ns3:cad>0</ns3:cad>
          </ns3:TrackPointExtension>
        </extensions>
      </trkpt>
      <trkpt lat="52.16465326957404613494873046875" lon="1.49670439772307872772216796875">
        <ele>-56.59999847412109375</ele>
        <time>2025-09-06T11:17:33.000Z</time>
        <extensions>
          <ns3:TrackPointExtension>
            <ns3:hr>106</ns3:hr>
            <ns3:cad>0</ns3:cad>
          </ns3:TrackPointExtension>
        </extensions>
      </trkpt>
      <trkpt lat="52.1646535210311412811279296875" lon="1.49670255370438098907470703125">
        <ele>-55.59999847412109375</ele>
        <time>2025-09-06T11:17:38.000Z</time>
        <extensions>
          <ns3:TrackPointExtension>
            <ns3:hr>106</ns3:hr>
            <ns3:cad>0</ns3:cad>
          </ns3:TrackPointExtension>
        </extensions>
      </trkpt>
      <trkpt lat="52.1646451391279697418212890625" lon="1.49670138023793697357177734375">
        <ele>-54.59999847412109375</ele>
        <time>2025-09-06T11:17:43.000Z</time>
        <extensions>
          <ns3:TrackPointExtension>
            <ns3:hr>105</ns3:hr>
            <ns3:cad>0</ns3:cad>
          </ns3:TrackPointExtension>
        </extensions>
      </trkpt>
      <trkpt lat="52.16463960707187652587890625" lon="1.4966919086873531341552734375">
        <ele>-53.799999237060546875</ele>
        <time>2025-09-06T11:17:46.000Z</time>
        <extensions>
          <ns3:TrackPointExtension>
            <ns3:hr>102</ns3:hr>
            <ns3:cad>0</ns3:cad>
          </ns3:TrackPointExtension>
        </extensions>
      </trkpt>
      <trkpt lat="52.1646394394338130950927734375" lon="1.49669182486832141876220703125">
        <ele>-53.59999847412109375</ele>
        <time>2025-09-06T11:17:47.000Z</time>
        <extensions>
          <ns3:TrackPointExtension>
            <ns3:hr>105</ns3:hr>
            <ns3:cad>0</ns3:cad>
          </ns3:TrackPointExtension>
        </extensions>
      </trkpt>
      <trkpt lat="52.16463918797671794891357421875" lon="1.4966922439634799957275390625">
        <ele>-53.40000152587890625</ele>
        <time>2025-09-06T11:17:48.000Z</time>
        <extensions>
          <ns3:TrackPointExtension>
            <ns3:hr>105</ns3:hr>
            <ns3:cad>0</ns3:cad>
          </ns3:TrackPointExtension>
        </extensions>
      </trkpt>
      <trkpt lat="52.16464094817638397216796875" lon="1.49669341742992401123046875">
        <ele>-52.40000152587890625</ele>
        <time>2025-09-06T11:17:52.000Z</time>
        <extensions>
          <ns3:TrackPointExtension>
            <ns3:hr>105</ns3:hr>
            <ns3:cad>0</ns3:cad>
          </ns3:TrackPointExtension>
        </extensions>
      </trkpt>
      <trkpt lat="52.16464228928089141845703125" lon="1.49668646045029163360595703125">
        <ele>-51</ele>
        <time>2025-09-06T11:17:56.000Z</time>
        <extensions>
          <ns3:TrackPointExtension>
            <ns3:hr>104</ns3:hr>
            <ns3:cad>0</ns3:cad>
          </ns3:TrackPointExtension>
        </extensions>
      </trkpt>
      <trkpt lat="52.16464404948055744171142578125" lon="1.4966892264783382415771484375">
        <ele>-50</ele>
        <time>2025-09-06T11:18:00.000Z</time>
        <extensions>
          <ns3:TrackPointExtension>
            <ns3:hr>104</ns3:hr>
            <ns3:cad>0</ns3:cad>
          </ns3:TrackPointExtension>
        </extensions>
      </trkpt>
      <trkpt lat="52.1646421216428279876708984375" lon="1.49668780155479907989501953125">
        <ele>-49.40000152587890625</ele>
        <time>2025-09-06T11:18:02.000Z</time>
        <extensions>
          <ns3:TrackPointExtension>
            <ns3:hr>107</ns3:hr>
            <ns3:cad>0</ns3:cad>
          </ns3:TrackPointExtension>
        </extensions>
      </trkpt>
      <trkpt lat="52.1646414510905742645263671875" lon="1.4966885559260845184326171875">
        <ele>-48.799999237060546875</ele>
        <time>2025-09-06T11:18:04.000Z</time>
        <extensions>
          <ns3:TrackPointExtension>
            <ns3:hr>104</ns3:hr>
            <ns3:cad>0</ns3:cad>
          </ns3:TrackPointExtension>
        </extensions>
      </trkpt>
      <trkpt lat="52.1646344102919101715087890625" lon="1.4966855384409427642822265625">
        <ele>-47.799999237060546875</ele>
        <time>2025-09-06T11:18:08.000Z</time>
        <extensions>
          <ns3:TrackPointExtension>
            <ns3:hr>102</ns3:hr>
            <ns3:cad>0</ns3:cad>
          </ns3:TrackPointExtension>
        </extensions>
      </trkpt>
      <trkpt lat="52.1646404452621936798095703125" lon="1.49667338468134403228759765625">
        <ele>-46.59999847412109375</ele>
        <time>2025-09-06T11:18:14.000Z</time>
        <extensions>
          <ns3:TrackPointExtension>
            <ns3:hr>104</ns3:hr>
            <ns3:cad>0</ns3:cad>
          </ns3:TrackPointExtension>
        </extensions>
      </trkpt>
      <trkpt lat="52.16463650576770305633544921875" lon="1.49667589925229549407958984375">
        <ele>-46.200000762939453125</ele>
        <time>2025-09-06T11:18:17.000Z</time>
        <extensions>
          <ns3:TrackPointExtension>
            <ns3:hr>105</ns3:hr>
            <ns3:cad>0</ns3:cad>
          </ns3:TrackPointExtension>
        </extensions>
      </trkpt>
      <trkpt lat="52.164636589586734771728515625" lon="1.496677659451961517333984375">
        <ele>-45.59999847412109375</ele>
        <time>2025-09-06T11:18:20.000Z</time>
        <extensions>
          <ns3:TrackPointExtension>
            <ns3:hr>103</ns3:hr>
            <ns3:cad>0</ns3:cad>
          </ns3:TrackPointExtension>
        </extensions>
      </trkpt>
      <trkpt lat="52.16464371420443058013916015625" lon="1.49666927754878997802734375">
        <ele>-44.40000152587890625</ele>
        <time>2025-09-06T11:18:27.000Z</time>
        <extensions>
          <ns3:TrackPointExtension>
            <ns3:hr>101</ns3:hr>
            <ns3:cad>0</ns3:cad>
          </ns3:TrackPointExtension>
        </extensions>
      </trkpt>
      <trkpt lat="52.16463332064449787139892578125" lon="1.49666701443493366241455078125">
        <ele>-43.59999847412109375</ele>
        <time>2025-09-06T11:18:32.000Z</time>
        <extensions>
          <ns3:TrackPointExtension>
            <ns3:hr>103</ns3:hr>
            <ns3:cad>0</ns3:cad>
          </ns3:TrackPointExtension>
        </extensions>
      </trkpt>
      <trkpt lat="52.16463751159608364105224609375" lon="1.4966738037765026092529296875">
        <ele>-43.40000152587890625</ele>
        <time>2025-09-06T11:18:34.000Z</time>
        <extensions>
          <ns3:TrackPointExtension>
            <ns3:hr>104</ns3:hr>
            <ns3:cad>0</ns3:cad>
          </ns3:TrackPointExtension>
        </extensions>
      </trkpt>
      <trkpt lat="52.1646380983293056488037109375" lon="1.49667304940521717071533203125">
        <ele>-42.200000762939453125</ele>
        <time>2025-09-06T11:18:40.000Z</time>
        <extensions>
          <ns3:TrackPointExtension>
            <ns3:hr>101</ns3:hr>
            <ns3:cad>0</ns3:cad>
          </ns3:TrackPointExtension>
        </extensions>
      </trkpt>
      <trkpt lat="52.16464153490960597991943359375" lon="1.4966624043881893157958984375">
        <ele>-41.40000152587890625</ele>
        <time>2025-09-06T11:18:43.000Z</time>
        <extensions>
          <ns3:TrackPointExtension>
            <ns3:hr>100</ns3:hr>
            <ns3:cad>0</ns3:cad>
          </ns3:TrackPointExtension>
        </extensions>
      </trkpt>
      <trkpt lat="52.16463826596736907958984375" lon="1.49667589925229549407958984375">
        <ele>-41</ele>
        <time>2025-09-06T11:18:45.000Z</time>
        <extensions>
          <ns3:TrackPointExtension>
            <ns3:hr>99</ns3:hr>
            <ns3:cad>0</ns3:cad>
          </ns3:TrackPointExtension>
        </extensions>
      </trkpt>
      <trkpt lat="52.16461387462913990020751953125" lon="1.49666567333042621612548828125">
        <ele>-39.799999237060546875</ele>
        <time>2025-09-06T11:18:50.000Z</time>
        <extensions>
          <ns3:TrackPointExtension>
            <ns3:hr>100</ns3:hr>
            <ns3:cad>0</ns3:cad>
          </ns3:TrackPointExtension>
        </extensions>
      </trkpt>
      <trkpt lat="52.16460867784917354583740234375" lon="1.4966640807688236236572265625">
        <ele>-39.40000152587890625</ele>
        <time>2025-09-06T11:18:52.000Z</time>
        <extensions>
          <ns3:TrackPointExtension>
            <ns3:hr>100</ns3:hr>
            <ns3:cad>0</ns3:cad>
          </ns3:TrackPointExtension>
        </extensions>
      </trkpt>
      <trkpt lat="52.16460465453565120697021484375" lon="1.49666885845363140106201171875">
        <ele>-38.799999237060546875</ele>
        <time>2025-09-06T11:18:55.000Z</time>
        <extensions>
          <ns3:TrackPointExtension>
            <ns3:hr>102</ns3:hr>
            <ns3:cad>0</ns3:cad>
          </ns3:TrackPointExtension>
        </extensions>
      </trkpt>
      <trkpt lat="52.16459962539374828338623046875" lon="1.496670953929424285888671875">
        <ele>-37.59999847412109375</ele>
        <time>2025-09-06T11:19:02.000Z</time>
        <extensions>
          <ns3:TrackPointExtension>
            <ns3:hr>101</ns3:hr>
            <ns3:cad>0</ns3:cad>
          </ns3:TrackPointExtension>
        </extensions>
      </trkpt>
      <trkpt lat="52.16460205614566802978515625" lon="1.49667355231940746307373046875">
        <ele>-36.799999237060546875</ele>
        <time>2025-09-06T11:19:08.000Z</time>
        <extensions>
          <ns3:TrackPointExtension>
            <ns3:hr>103</ns3:hr>
            <ns3:cad>0</ns3:cad>
          </ns3:TrackPointExtension>
        </extensions>
      </trkpt>
      <trkpt lat="52.16460607945919036865234375" lon="1.49667254649102687835693359375">
        <ele>-36.59999847412109375</ele>
        <time>2025-09-06T11:19:10.000Z</time>
        <extensions>
          <ns3:TrackPointExtension>
            <ns3:hr>102</ns3:hr>
            <ns3:cad>0</ns3:cad>
          </ns3:TrackPointExtension>
        </extensions>
      </trkpt>
      <trkpt lat="52.1646069176495075225830078125" lon="1.496670953929424285888671875">
        <ele>-36.40000152587890625</ele>
        <time>2025-09-06T11:19:12.000Z</time>
        <extensions>
          <ns3:TrackPointExtension>
            <ns3:hr>99</ns3:hr>
            <ns3:cad>0</ns3:cad>
          </ns3:TrackPointExtension>
        </extensions>
      </trkpt>
      <trkpt lat="52.16461286880075931549072265625" lon="1.49667195975780487060546875">
        <ele>-35.799999237060546875</ele>
        <time>2025-09-06T11:19:17.000Z</time>
        <extensions>
          <ns3:TrackPointExtension>
            <ns3:hr>95</ns3:hr>
            <ns3:cad>0</ns3:cad>
          </ns3:TrackPointExtension>
        </extensions>
      </trkpt>
      <trkpt lat="52.1646139584481716156005859375" lon="1.4966707862913608551025390625">
        <ele>-35.59999847412109375</ele>
        <time>2025-09-06T11:19:19.000Z</time>
        <extensions>
          <ns3:TrackPointExtension>
            <ns3:hr>96</ns3:hr>
            <ns3:cad>0</ns3:cad>
          </ns3:TrackPointExtension>
        </extensions>
      </trkpt>
      <trkpt lat="52.16461571864783763885498046875" lon="1.496666260063648223876953125">
        <ele>-35</ele>
        <time>2025-09-06T11:19:23.000Z</time>
        <extensions>
          <ns3:TrackPointExtension>
            <ns3:hr>96</ns3:hr>
            <ns3:cad>0</ns3:cad>
          </ns3:TrackPointExtension>
        </extensions>
      </trkpt>
      <trkpt lat="52.16461588628590106964111328125" lon="1.49666525423526763916015625">
        <ele>-34.59999847412109375</ele>
        <time>2025-09-06T11:19:28.000Z</time>
        <extensions>
          <ns3:TrackPointExtension>
            <ns3:hr>93</ns3:hr>
            <ns3:cad>0</ns3:cad>
          </ns3:TrackPointExtension>
        </extensions>
      </trkpt>
      <trkpt lat="52.16461521573364734649658203125" lon="1.49666584096848964691162109375">
        <ele>-34.40000152587890625</ele>
        <time>2025-09-06T11:19:29.000Z</time>
        <extensions>
          <ns3:TrackPointExtension>
            <ns3:hr>93</ns3:hr>
            <ns3:cad>0</ns3:cad>
          </ns3:TrackPointExtension>
        </extensions>
      </trkpt>
      <trkpt lat="52.164629213511943817138671875" lon="1.4966659247875213623046875">
        <ele>-33.59999847412109375</ele>
        <time>2025-09-06T11:19:38.000Z</time>
        <extensions>
          <ns3:TrackPointExtension>
            <ns3:hr>90</ns3:hr>
            <ns3:cad>0</ns3:cad>
          </ns3:TrackPointExtension>
        </extensions>
      </trkpt>
      <trkpt lat="52.16462862677872180938720703125" lon="1.49667137302458286285400390625">
        <ele>-33.40000152587890625</ele>
        <time>2025-09-06T11:19:40.000Z</time>
        <extensions>
          <ns3:TrackPointExtension>
            <ns3:hr>90</ns3:hr>
            <ns3:cad>0</ns3:cad>
          </ns3:TrackPointExtension>
        </extensions>
      </trkpt>
      <trkpt lat="52.16462887823581695556640625" lon="1.49667866528034210205078125">
        <ele>-33.200000762939453125</ele>
        <time>2025-09-06T11:19:43.000Z</time>
        <extensions>
          <ns3:TrackPointExtension>
            <ns3:hr>87</ns3:hr>
            <ns3:cad>0</ns3:cad>
          </ns3:TrackPointExtension>
        </extensions>
      </trkpt>
      <trkpt lat="52.16462829150259494781494140625" lon="1.4966704510152339935302734375">
        <ele>-33</ele>
        <time>2025-09-06T11:19:44.000Z</time>
        <extensions>
          <ns3:TrackPointExtension>
            <ns3:hr>90</ns3:hr>
            <ns3:cad>0</ns3:cad>
          </ns3:TrackPointExtension>
        </extensions>
      </trkpt>
      <trkpt lat="52.1646260283887386322021484375" lon="1.49661923758685588836669921875">
        <ele>-32.40000152587890625</ele>
        <time>2025-09-06T11:19:50.000Z</time>
        <extensions>
          <ns3:TrackPointExtension>
            <ns3:hr>87</ns3:hr>
            <ns3:cad>0</ns3:cad>
          </ns3:TrackPointExtension>
        </extensions>
      </trkpt>
      <trkpt lat="52.16461722739040851593017578125" lon="1.49658403359353542327880859375">
        <ele>-32</ele>
        <time>2025-09-06T11:19:52.000Z</time>
        <extensions>
          <ns3:TrackPointExtension>
            <ns3:hr>90</ns3:hr>
            <ns3:cad>0</ns3:cad>
          </ns3:TrackPointExtension>
        </extensions>
      </trkpt>
      <trkpt lat="52.1646129526197910308837890625" lon="1.49655117653310298919677734375">
        <ele>-31.6000003814697265625</ele>
        <time>2025-09-06T11:19:54.000Z</time>
        <extensions>
          <ns3:TrackPointExtension>
            <ns3:hr>95</ns3:hr>
            <ns3:cad>53</ns3:cad>
          </ns3:TrackPointExtension>
        </extensions>
      </trkpt>
      <trkpt lat="52.1646080911159515380859375" lon="1.4965249411761760711669921875">
        <ele>-31.200000762939453125</ele>
        <time>2025-09-06T11:19:56.000Z</time>
        <extensions>
          <ns3:TrackPointExtension>
            <ns3:hr>94</ns3:hr>
            <ns3:cad>53</ns3:cad>
          </ns3:TrackPointExtension>
        </extensions>
      </trkpt>
      <trkpt lat="52.1646018885076045989990234375" lon="1.49648428894579410552978515625">
        <ele>-30.3999996185302734375</ele>
        <time>2025-09-06T11:20:01.000Z</time>
        <extensions>
          <ns3:TrackPointExtension>
            <ns3:hr>97</ns3:hr>
            <ns3:cad>0</ns3:cad>
          </ns3:TrackPointExtension>
        </extensions>
      </trkpt>
      <trkpt lat="52.1646018885076045989990234375" lon="1.496481187641620635986328125">
        <ele>-30.200000762939453125</ele>
        <time>2025-09-06T11:20:02.000Z</time>
        <extensions>
          <ns3:TrackPointExtension>
            <ns3:hr>96</ns3:hr>
            <ns3:cad>0</ns3:cad>
          </ns3:TrackPointExtension>
        </extensions>
      </trkpt>
      <trkpt lat="52.16459392569959163665771484375" lon="1.4964746497571468353271484375">
        <ele>-29.200000762939453125</ele>
        <time>2025-09-06T11:20:07.000Z</time>
        <extensions>
          <ns3:TrackPointExtension>
            <ns3:hr>99</ns3:hr>
            <ns3:cad>80</ns3:cad>
          </ns3:TrackPointExtension>
        </extensions>
      </trkpt>
      <trkpt lat="52.1645866334438323974609375" lon="1.4964687824249267578125">
        <ele>-29</ele>
        <time>2025-09-06T11:20:08.000Z</time>
        <extensions>
          <ns3:TrackPointExtension>
            <ns3:hr>99</ns3:hr>
            <ns3:cad>80</ns3:cad>
          </ns3:TrackPointExtension>
        </extensions>
      </trkpt>
      <trkpt lat="52.16456123627722263336181640625" lon="1.49644405581057071685791015625">
        <ele>-28.3999996185302734375</ele>
        <time>2025-09-06T11:20:11.000Z</time>
        <extensions>
          <ns3:TrackPointExtension>
            <ns3:hr>100</ns3:hr>
            <ns3:cad>0</ns3:cad>
          </ns3:TrackPointExtension>
        </extensions>
      </trkpt>
      <trkpt lat="52.16454346664249897003173828125" lon="1.49643969722092151641845703125">
        <ele>-28</ele>
        <time>2025-09-06T11:20:13.000Z</time>
        <extensions>
          <ns3:TrackPointExtension>
            <ns3:hr>100</ns3:hr>
            <ns3:cad>59</ns3:cad>
          </ns3:TrackPointExtension>
        </extensions>
      </trkpt>
      <trkpt lat="52.16454748995602130889892578125" lon="1.4964210055768489837646484375">
        <ele>-26.799999237060546875</ele>
        <time>2025-09-06T11:20:18.000Z</time>
        <extensions>
          <ns3:TrackPointExtension>
            <ns3:hr>98</ns3:hr>
            <ns3:cad>0</ns3:cad>
          </ns3:TrackPointExtension>
        </extensions>
      </trkpt>
      <trkpt lat="52.1645522676408290863037109375" lon="1.49642528034746646881103515625">
        <ele>-26.3999996185302734375</ele>
        <time>2025-09-06T11:20:20.000Z</time>
        <extensions>
          <ns3:TrackPointExtension>
            <ns3:hr>97</ns3:hr>
            <ns3:cad>0</ns3:cad>
          </ns3:TrackPointExtension>
        </extensions>
      </trkpt>
      <trkpt lat="52.16455914080142974853515625" lon="1.49642712436616420745849609375">
        <ele>-25.6000003814697265625</ele>
        <time>2025-09-06T11:20:23.000Z</time>
        <extensions>
          <ns3:TrackPointExtension>
            <ns3:hr>99</ns3:hr>
            <ns3:cad>0</ns3:cad>
          </ns3:TrackPointExtension>
        </extensions>
      </trkpt>
      <trkpt lat="52.16457699425518512725830078125" lon="1.4964186586439609527587890625">
        <ele>-24.3999996185302734375</ele>
        <time>2025-09-06T11:20:28.000Z</time>
        <extensions>
          <ns3:TrackPointExtension>
            <ns3:hr>99</ns3:hr>
            <ns3:cad>50</ns3:cad>
          </ns3:TrackPointExtension>
        </extensions>
      </trkpt>
      <trkpt lat="52.16456207446753978729248046875" lon="1.496369205415248870849609375">
        <ele>-23.799999237060546875</ele>
        <time>2025-09-06T11:20:31.000Z</time>
        <extensions>
          <ns3:TrackPointExtension>
            <ns3:hr>99</ns3:hr>
            <ns3:cad>50</ns3:cad>
          </ns3:TrackPointExtension>
        </extensions>
      </trkpt>
      <trkpt lat="52.16453843750059604644775390625" lon="1.49632905609905719757080078125">
        <ele>-23.200000762939453125</ele>
        <time>2025-09-06T11:20:33.000Z</time>
        <extensions>
          <ns3:TrackPointExtension>
            <ns3:hr>101</ns3:hr>
            <ns3:cad>52</ns3:cad>
          </ns3:TrackPointExtension>
        </extensions>
      </trkpt>
      <trkpt lat="52.16450013220310211181640625" lon="1.49624808691442012786865234375">
        <ele>-22.3999996185302734375</ele>
        <time>2025-09-06T11:20:37.000Z</time>
        <extensions>
          <ns3:TrackPointExtension>
            <ns3:hr>98</ns3:hr>
            <ns3:cad>53</ns3:cad>
          </ns3:TrackPointExtension>
        </extensions>
      </trkpt>
      <trkpt lat="52.1644912473857402801513671875" lon="1.49623065255582332611083984375">
        <ele>-22.200000762939453125</ele>
        <time>2025-09-06T11:20:38.000Z</time>
        <extensions>
          <ns3:TrackPointExtension>
            <ns3:hr>100</ns3:hr>
            <ns3:cad>53</ns3:cad>
          </ns3:TrackPointExtension>
        </extensions>
      </trkpt>
      <trkpt lat="52.1644842065870761871337890625" lon="1.4962104521691799163818359375">
        <ele>-21.799999237060546875</ele>
        <time>2025-09-06T11:20:39.000Z</time>
        <extensions>
          <ns3:TrackPointExtension>
            <ns3:hr>100</ns3:hr>
            <ns3:cad>53</ns3:cad>
          </ns3:TrackPointExtension>
        </extensions>
      </trkpt>
      <trkpt lat="52.16445780359208583831787109375" lon="1.49611883796751499176025390625">
        <ele>-21</ele>
        <time>2025-09-06T11:20:43.000Z</time>
        <extensions>
          <ns3:TrackPointExtension>
            <ns3:hr>99</ns3:hr>
            <ns3:cad>56</ns3:cad>
          </ns3:TrackPointExtension>
        </extensions>
      </trkpt>
      <trkpt lat="52.16445445083081722259521484375" lon="1.49608195759356021881103515625">
        <ele>-20.6000003814697265625</ele>
        <time>2025-09-06T11:20:45.000Z</time>
        <extensions>
          <ns3:TrackPointExtension>
            <ns3:hr>102</ns3:hr>
            <ns3:cad>56</ns3:cad>
          </ns3:TrackPointExtension>
        </extensions>
      </trkpt>
      <trkpt lat="52.16447054408490657806396484375" lon="1.4960441552102565765380859375">
        <ele>-20</ele>
        <time>2025-09-06T11:20:48.000Z</time>
        <extensions>
          <ns3:TrackPointExtension>
            <ns3:hr>102</ns3:hr>
            <ns3:cad>57</ns3:cad>
          </ns3:TrackPointExtension>
        </extensions>
      </trkpt>
      <trkpt lat="52.16448529623448848724365234375" lon="1.49604658596217632293701171875">
        <ele>-19.200000762939453125</ele>
        <time>2025-09-06T11:20:51.000Z</time>
        <extensions>
          <ns3:TrackPointExtension>
            <ns3:hr>101</ns3:hr>
            <ns3:cad>0</ns3:cad>
          </ns3:TrackPointExtension>
        </extensions>
      </trkpt>
      <trkpt lat="52.164486385881900787353515625" lon="1.49604289792478084564208984375">
        <ele>-18.799999237060546875</ele>
        <time>2025-09-06T11:20:53.000Z</time>
        <extensions>
          <ns3:TrackPointExtension>
            <ns3:hr>103</ns3:hr>
            <ns3:cad>0</ns3:cad>
          </ns3:TrackPointExtension>
        </extensions>
      </trkpt>
      <trkpt lat="52.16447456739842891693115234375" lon="1.4960543811321258544921875">
        <ele>-17.6000003814697265625</ele>
        <time>2025-09-06T11:20:58.000Z</time>
        <extensions>
          <ns3:TrackPointExtension>
            <ns3:hr>104</ns3:hr>
            <ns3:cad>0</ns3:cad>
          </ns3:TrackPointExtension>
        </extensions>
      </trkpt>
      <trkpt lat="52.16445864178240299224853515625" lon="1.496079526841640472412109375">
        <ele>-16.6000003814697265625</ele>
        <time>2025-09-06T11:21:02.000Z</time>
        <extensions>
          <ns3:TrackPointExtension>
            <ns3:hr>104</ns3:hr>
            <ns3:cad>51</ns3:cad>
          </ns3:TrackPointExtension>
        </extensions>
      </trkpt>
      <trkpt lat="52.1644580550491809844970703125" lon="1.4960820414125919342041015625">
        <ele>-16.200000762939453125</ele>
        <time>2025-09-06T11:21:04.000Z</time>
        <extensions>
          <ns3:TrackPointExtension>
            <ns3:hr>101</ns3:hr>
            <ns3:cad>46</ns3:cad>
          </ns3:TrackPointExtension>
        </extensions>
      </trkpt>
      <trkpt lat="52.1644577197730541229248046875" lon="1.4960847236216068267822265625">
        <ele>-15.3999996185302734375</ele>
        <time>2025-09-06T11:21:07.000Z</time>
        <extensions>
          <ns3:TrackPointExtension>
            <ns3:hr>102</ns3:hr>
            <ns3:cad>0</ns3:cad>
          </ns3:TrackPointExtension>
        </extensions>
      </trkpt>
      <trkpt lat="52.16446300037205219268798828125" lon="1.49609721265733242034912109375">
        <ele>-14.19999980926513671875</ele>
        <time>2025-09-06T11:21:12.000Z</time>
        <extensions>
          <ns3:TrackPointExtension>
            <ns3:hr>98</ns3:hr>
            <ns3:cad>0</ns3:cad>
          </ns3:TrackPointExtension>
        </extensions>
      </trkpt>
      <trkpt lat="52.1644644252955913543701171875" lon="1.49609855376183986663818359375">
        <ele>-13.80000019073486328125</ele>
        <time>2025-09-06T11:21:13.000Z</time>
        <extensions>
          <ns3:TrackPointExtension>
            <ns3:hr>95</ns3:hr>
            <ns3:cad>0</ns3:cad>
          </ns3:TrackPointExtension>
        </extensions>
      </trkpt>
      <trkpt lat="52.16446350328624248504638671875" lon="1.4960998110473155975341796875">
        <ele>-13.3999996185302734375</ele>
        <time>2025-09-06T11:21:14.000Z</time>
        <extensions>
          <ns3:TrackPointExtension>
            <ns3:hr>98</ns3:hr>
            <ns3:cad>0</ns3:cad>
          </ns3:TrackPointExtension>
        </extensions>
      </trkpt>
      <trkpt lat="52.1644610725343227386474609375" lon="1.49609754793345928192138671875">
        <ele>-13.19999980926513671875</ele>
        <time>2025-09-06T11:21:15.000Z</time>
        <extensions>
          <ns3:TrackPointExtension>
            <ns3:hr>97</ns3:hr>
            <ns3:cad>0</ns3:cad>
          </ns3:TrackPointExtension>
        </extensions>
      </trkpt>
      <trkpt lat="52.1644604019820690155029296875" lon="1.49609872139990329742431640625">
        <ele>-12.80000019073486328125</ele>
        <time>2025-09-06T11:21:16.000Z</time>
        <extensions>
          <ns3:TrackPointExtension>
            <ns3:hr>97</ns3:hr>
            <ns3:cad>0</ns3:cad>
          </ns3:TrackPointExtension>
        </extensions>
      </trkpt>
      <trkpt lat="52.16445763595402240753173828125" lon="1.4961021579802036285400390625">
        <ele>-11.80000019073486328125</ele>
        <time>2025-09-06T11:21:19.000Z</time>
        <extensions>
          <ns3:TrackPointExtension>
            <ns3:hr>97</ns3:hr>
            <ns3:cad>0</ns3:cad>
          </ns3:TrackPointExtension>
        </extensions>
      </trkpt>
      <trkpt lat="52.16446786187589168548583984375" lon="1.4961024932563304901123046875">
        <ele>-10.6000003814697265625</ele>
        <time>2025-09-06T11:21:22.000Z</time>
        <extensions>
          <ns3:TrackPointExtension>
            <ns3:hr>97</ns3:hr>
            <ns3:cad>0</ns3:cad>
          </ns3:TrackPointExtension>
        </extensions>
      </trkpt>
      <trkpt lat="52.164472974836826324462890625" lon="1.49610475637018680572509765625">
        <ele>-9.3999996185302734375</ele>
        <time>2025-09-06T11:21:25.000Z</time>
        <extensions>
          <ns3:TrackPointExtension>
            <ns3:hr>100</ns3:hr>
            <ns3:cad>0</ns3:cad>
          </ns3:TrackPointExtension>
        </extensions>
      </trkpt>
      <trkpt lat="52.16447305865585803985595703125" lon="1.49610408581793308258056640625">
        <ele>-9.19999980926513671875</ele>
        <time>2025-09-06T11:21:26.000Z</time>
        <extensions>
          <ns3:TrackPointExtension>
            <ns3:hr>99</ns3:hr>
            <ns3:cad>0</ns3:cad>
          </ns3:TrackPointExtension>
        </extensions>
      </trkpt>
      <trkpt lat="52.164470292627811431884765625" lon="1.49609972722828388214111328125">
        <ele>-8.3999996185302734375</ele>
        <time>2025-09-06T11:21:28.000Z</time>
        <extensions>
          <ns3:TrackPointExtension>
            <ns3:hr>98</ns3:hr>
            <ns3:cad>0</ns3:cad>
          </ns3:TrackPointExtension>
        </extensions>
      </trkpt>
      <trkpt lat="52.1644704602658748626708984375" lon="1.4960984699428081512451171875">
        <ele>-7.400000095367431640625</ele>
        <time>2025-09-06T11:21:31.000Z</time>
        <extensions>
          <ns3:TrackPointExtension>
            <ns3:hr>98</ns3:hr>
            <ns3:cad>0</ns3:cad>
          </ns3:TrackPointExtension>
        </extensions>
      </trkpt>
      <trkpt lat="52.16447331011295318603515625" lon="1.49609603919088840484619140625">
        <ele>-6.19999980926513671875</ele>
        <time>2025-09-06T11:21:34.000Z</time>
        <extensions>
          <ns3:TrackPointExtension>
            <ns3:hr>96</ns3:hr>
            <ns3:cad>0</ns3:cad>
          </ns3:TrackPointExtension>
        </extensions>
      </trkpt>
      <trkpt lat="52.16447465121746063232421875" lon="1.49609570391476154327392578125">
        <ele>-5.80000019073486328125</ele>
        <time>2025-09-06T11:21:35.000Z</time>
        <extensions>
          <ns3:TrackPointExtension>
            <ns3:hr>93</ns3:hr>
            <ns3:cad>0</ns3:cad>
          </ns3:TrackPointExtension>
        </extensions>
      </trkpt>
      <trkpt lat="52.1644748188555240631103515625" lon="1.49609587155282497406005859375">
        <ele>-5.400000095367431640625</ele>
        <time>2025-09-06T11:21:36.000Z</time>
        <extensions>
          <ns3:TrackPointExtension>
            <ns3:hr>96</ns3:hr>
            <ns3:cad>0</ns3:cad>
          </ns3:TrackPointExtension>
        </extensions>
      </trkpt>
      <trkpt lat="52.16447507031261920928955078125" lon="1.49609536863863468170166015625">
        <ele>-5</ele>
        <time>2025-09-06T11:21:37.000Z</time>
        <extensions>
          <ns3:TrackPointExtension>
            <ns3:hr>94</ns3:hr>
            <ns3:cad>0</ns3:cad>
          </ns3:TrackPointExtension>
        </extensions>
      </trkpt>
      <trkpt lat="52.164474315941333770751953125" lon="1.496093273162841796875">
        <ele>-3.7999999523162841796875</ele>
        <time>2025-09-06T11:21:40.000Z</time>
        <extensions>
          <ns3:TrackPointExtension>
            <ns3:hr>93</ns3:hr>
            <ns3:cad>0</ns3:cad>
          </ns3:TrackPointExtension>
        </extensions>
      </trkpt>
      <trkpt lat="52.16447507031261920928955078125" lon="1.4960934408009052276611328125">
        <ele>-3</ele>
        <time>2025-09-06T11:21:42.000Z</time>
        <extensions>
          <ns3:TrackPointExtension>
            <ns3:hr>93</ns3:hr>
            <ns3:cad>0</ns3:cad>
          </ns3:TrackPointExtension>
        </extensions>
      </trkpt>
      <trkpt lat="52.164474986493587493896484375" lon="1.496093273162841796875">
        <ele>-2.599999904632568359375</ele>
        <time>2025-09-06T11:21:43.000Z</time>
        <extensions>
          <ns3:TrackPointExtension>
            <ns3:hr>93</ns3:hr>
            <ns3:cad>0</ns3:cad>
          </ns3:TrackPointExtension>
        </extensions>
      </trkpt>
      <trkpt lat="52.16447624377906322479248046875" lon="1.496096290647983551025390625">
        <ele>-1.39999997615814208984375</ele>
        <time>2025-09-06T11:21:46.000Z</time>
        <extensions>
          <ns3:TrackPointExtension>
            <ns3:hr>95</ns3:hr>
            <ns3:cad>0</ns3:cad>
          </ns3:TrackPointExtension>
        </extensions>
      </trkpt>
      <trkpt lat="52.16447792015969753265380859375" lon="1.49609603919088840484619140625">
        <ele>-0.20000000298023223876953125</ele>
        <time>2025-09-06T11:21:49.000Z</time>
        <extensions>
          <ns3:TrackPointExtension>
            <ns3:hr>96</ns3:hr>
            <ns3:cad>0</ns3:cad>
          </ns3:TrackPointExtension>
        </extensions>
      </trkpt>
      <trkpt lat="52.16447590850293636322021484375" lon="1.4960984699428081512451171875">
        <ele>1</ele>
        <time>2025-09-06T11:21:52.000Z</time>
        <extensions>
          <ns3:TrackPointExtension>
            <ns3:hr>95</ns3:hr>
            <ns3:cad>0</ns3:cad>
          </ns3:TrackPointExtension>
        </extensions>
      </trkpt>
      <trkpt lat="52.1644761599600315093994140625" lon="1.4961008168756961822509765625">
        <ele>1.7999999523162841796875</ele>
        <time>2025-09-06T11:21:54.000Z</time>
        <extensions>
          <ns3:TrackPointExtension>
            <ns3:hr>96</ns3:hr>
            <ns3:cad>0</ns3:cad>
          </ns3:TrackPointExtension>
        </extensions>
      </trkpt>
      <trkpt lat="52.16447808779776096343994140625" lon="1.49610274471342563629150390625">
        <ele>2.2000000476837158203125</ele>
        <time>2025-09-06T11:21:55.000Z</time>
        <extensions>
          <ns3:TrackPointExtension>
            <ns3:hr>93</ns3:hr>
            <ns3:cad>0</ns3:cad>
          </ns3:TrackPointExtension>
        </extensions>
      </trkpt>
      <trkpt lat="52.16448009945452213287353515625" lon="1.49610978551208972930908203125">
        <ele>3.400000095367431640625</ele>
        <time>2025-09-06T11:21:58.000Z</time>
        <extensions>
          <ns3:TrackPointExtension>
            <ns3:hr>95</ns3:hr>
            <ns3:cad>0</ns3:cad>
          </ns3:TrackPointExtension>
        </extensions>
      </trkpt>
      <trkpt lat="52.16447976417839527130126953125" lon="1.4961128868162631988525390625">
        <ele>4.599999904632568359375</ele>
        <time>2025-09-06T11:22:01.000Z</time>
        <extensions>
          <ns3:TrackPointExtension>
            <ns3:hr>92</ns3:hr>
            <ns3:cad>0</ns3:cad>
          </ns3:TrackPointExtension>
        </extensions>
      </trkpt>
      <trkpt lat="52.1644718013703823089599609375" lon="1.49606938473880290985107421875">
        <ele>5.80000019073486328125</ele>
        <time>2025-09-06T11:22:04.000Z</time>
        <extensions>
          <ns3:TrackPointExtension>
            <ns3:hr>91</ns3:hr>
            <ns3:cad>0</ns3:cad>
          </ns3:TrackPointExtension>
        </extensions>
      </trkpt>
      <trkpt lat="52.164493091404438018798828125" lon="1.4960367791354656219482421875">
        <ele>6.80000019073486328125</ele>
        <time>2025-09-06T11:22:07.000Z</time>
        <extensions>
          <ns3:TrackPointExtension>
            <ns3:hr>91</ns3:hr>
            <ns3:cad>0</ns3:cad>
          </ns3:TrackPointExtension>
        </extensions>
      </trkpt>
      <trkpt lat="52.16453257016837596893310546875" lon="1.49602546356618404388427734375">
        <ele>8</ele>
        <time>2025-09-06T11:22:10.000Z</time>
        <extensions>
          <ns3:TrackPointExtension>
            <ns3:hr>94</ns3:hr>
            <ns3:cad>61</ns3:cad>
          </ns3:TrackPointExtension>
        </extensions>
      </trkpt>
      <trkpt lat="52.16457598842680454254150390625" lon="1.496013812720775604248046875">
        <ele>9</ele>
        <time>2025-09-06T11:22:14.000Z</time>
        <extensions>
          <ns3:TrackPointExtension>
            <ns3:hr>93</ns3:hr>
            <ns3:cad>61</ns3:cad>
          </ns3:TrackPointExtension>
        </extensions>
      </trkpt>
      <trkpt lat="52.16458864510059356689453125" lon="1.49601406417787075042724609375">
        <ele>9.3999996185302734375</ele>
        <time>2025-09-06T11:22:15.000Z</time>
        <extensions>
          <ns3:TrackPointExtension>
            <ns3:hr>96</ns3:hr>
            <ns3:cad>61</ns3:cad>
          </ns3:TrackPointExtension>
        </extensions>
      </trkpt>
      <trkpt lat="52.1646012179553508758544921875" lon="1.49601205252110958099365234375">
        <ele>9.6000003814697265625</ele>
        <time>2025-09-06T11:22:16.000Z</time>
        <extensions>
          <ns3:TrackPointExtension>
            <ns3:hr>97</ns3:hr>
            <ns3:cad>61</ns3:cad>
          </ns3:TrackPointExtension>
        </extensions>
      </trkpt>
      <trkpt lat="52.16463265009224414825439453125" lon="1.49599897675216197967529296875">
        <ele>10</ele>
        <time>2025-09-06T11:22:18.000Z</time>
        <extensions>
          <ns3:TrackPointExtension>
            <ns3:hr>101</ns3:hr>
            <ns3:cad>62</ns3:cad>
          </ns3:TrackPointExtension>
        </extensions>
      </trkpt>
      <trkpt lat="52.16465041972696781158447265625" lon="1.49600140750408172607421875">
        <ele>10.19999980926513671875</ele>
        <time>2025-09-06T11:22:19.000Z</time>
        <extensions>
          <ns3:TrackPointExtension>
            <ns3:hr>103</ns3:hr>
            <ns3:cad>60</ns3:cad>
          </ns3:TrackPointExtension>
        </extensions>
      </trkpt>
      <trkpt lat="52.16471043415367603302001953125" lon="1.4960166625678539276123046875">
        <ele>11.19999980926513671875</ele>
        <time>2025-09-06T11:22:23.000Z</time>
        <extensions>
          <ns3:TrackPointExtension>
            <ns3:hr>104</ns3:hr>
            <ns3:cad>60</ns3:cad>
          </ns3:TrackPointExtension>
        </extensions>
      </trkpt>
      <trkpt lat="52.16472887434065341949462890625" lon="1.49602630175650119781494140625">
        <ele>11.3999996185302734375</ele>
        <time>2025-09-06T11:22:24.000Z</time>
        <extensions>
          <ns3:TrackPointExtension>
            <ns3:hr>105</ns3:hr>
            <ns3:cad>60</ns3:cad>
          </ns3:TrackPointExtension>
        </extensions>
      </trkpt>
      <trkpt lat="52.16481202282011508941650390625" lon="1.49606351740658283233642578125">
        <ele>12.3999996185302734375</ele>
        <time>2025-09-06T11:22:29.000Z</time>
        <extensions>
          <ns3:TrackPointExtension>
            <ns3:hr>106</ns3:hr>
            <ns3:cad>60</ns3:cad>
          </ns3:TrackPointExtension>
        </extensions>
      </trkpt>
      <trkpt lat="52.1648731268942356109619140625" lon="1.4961214363574981689453125">
        <ele>13.19999980926513671875</ele>
        <time>2025-09-06T11:22:33.000Z</time>
        <extensions>
          <ns3:TrackPointExtension>
            <ns3:hr>105</ns3:hr>
            <ns3:cad>57</ns3:cad>
          </ns3:TrackPointExtension>
        </extensions>
      </trkpt>
      <trkpt lat="52.164886035025119781494140625" lon="1.49613040499389171600341796875">
        <ele>13.3999996185302734375</ele>
        <time>2025-09-06T11:22:34.000Z</time>
        <extensions>
          <ns3:TrackPointExtension>
            <ns3:hr>104</ns3:hr>
            <ns3:cad>57</ns3:cad>
          </ns3:TrackPointExtension>
        </extensions>
      </trkpt>
      <trkpt lat="52.164901793003082275390625" lon="1.496147252619266510009765625">
        <ele>13.80000019073486328125</ele>
        <time>2025-09-06T11:22:36.000Z</time>
        <extensions>
          <ns3:TrackPointExtension>
            <ns3:hr>101</ns3:hr>
            <ns3:cad>0</ns3:cad>
          </ns3:TrackPointExtension>
        </extensions>
      </trkpt>
      <trkpt lat="52.1649033017456531524658203125" lon="1.49615974165499210357666015625">
        <ele>14.3999996185302734375</ele>
        <time>2025-09-06T11:22:39.000Z</time>
        <extensions>
          <ns3:TrackPointExtension>
            <ns3:hr>102</ns3:hr>
            <ns3:cad>0</ns3:cad>
          </ns3:TrackPointExtension>
        </extensions>
      </trkpt>
      <trkpt lat="52.16493523679673671722412109375" lon="1.49615840055048465728759765625">
        <ele>15.6000003814697265625</ele>
        <time>2025-09-06T11:22:43.000Z</time>
        <extensions>
          <ns3:TrackPointExtension>
            <ns3:hr>101</ns3:hr>
            <ns3:cad>0</ns3:cad>
          </ns3:TrackPointExtension>
        </extensions>
      </trkpt>
      <trkpt lat="52.164982594549655914306640625" lon="1.49614465422928333282470703125">
        <ele>16.799999237060546875</ele>
        <time>2025-09-06T11:22:47.000Z</time>
        <extensions>
          <ns3:TrackPointExtension>
            <ns3:hr>101</ns3:hr>
            <ns3:cad>0</ns3:cad>
          </ns3:TrackPointExtension>
        </extensions>
      </trkpt>
      <trkpt lat="52.16502408497035503387451171875" lon="1.4961457438766956329345703125">
        <ele>18.200000762939453125</ele>
        <time>2025-09-06T11:22:51.000Z</time>
        <extensions>
          <ns3:TrackPointExtension>
            <ns3:hr>101</ns3:hr>
            <ns3:cad>57</ns3:cad>
          </ns3:TrackPointExtension>
        </extensions>
      </trkpt>
      <trkpt lat="52.16508124954998493194580078125" lon="1.4961571432650089263916015625">
        <ele>19.3999996185302734375</ele>
        <time>2025-09-06T11:22:55.000Z</time>
        <extensions>
          <ns3:TrackPointExtension>
            <ns3:hr>104</ns3:hr>
            <ns3:cad>59</ns3:cad>
          </ns3:TrackPointExtension>
        </extensions>
      </trkpt>
      <trkpt lat="52.16512885875999927520751953125" lon="1.4961705543100833892822265625">
        <ele>20.200000762939453125</ele>
        <time>2025-09-06T11:22:58.000Z</time>
        <extensions>
          <ns3:TrackPointExtension>
            <ns3:hr>104</ns3:hr>
            <ns3:cad>59</ns3:cad>
          </ns3:TrackPointExtension>
        </extensions>
      </trkpt>
      <trkpt lat="52.16514377854764461517333984375" lon="1.49617600254714488983154296875">
        <ele>20.6000003814697265625</ele>
        <time>2025-09-06T11:22:59.000Z</time>
        <extensions>
          <ns3:TrackPointExtension>
            <ns3:hr>105</ns3:hr>
            <ns3:cad>59</ns3:cad>
          </ns3:TrackPointExtension>
        </extensions>
      </trkpt>
      <trkpt lat="52.165159285068511962890625" lon="1.49618572555482387542724609375">
        <ele>20.799999237060546875</ele>
        <time>2025-09-06T11:23:00.000Z</time>
        <extensions>
          <ns3:TrackPointExtension>
            <ns3:hr>102</ns3:hr>
            <ns3:cad>59</ns3:cad>
          </ns3:TrackPointExtension>
        </extensions>
      </trkpt>
      <trkpt lat="52.16519306413829326629638671875" lon="1.49622763507068157196044921875">
        <ele>21.799999237060546875</ele>
        <time>2025-09-06T11:23:03.000Z</time>
        <extensions>
          <ns3:TrackPointExtension>
            <ns3:hr>103</ns3:hr>
            <ns3:cad>59</ns3:cad>
          </ns3:TrackPointExtension>
        </extensions>
      </trkpt>
      <trkpt lat="52.16520161367952823638916015625" lon="1.49624054320156574249267578125">
        <ele>22</ele>
        <time>2025-09-06T11:23:04.000Z</time>
        <extensions>
          <ns3:TrackPointExtension>
            <ns3:hr>105</ns3:hr>
            <ns3:cad>58</ns3:cad>
          </ns3:TrackPointExtension>
        </extensions>
      </trkpt>
      <trkpt lat="52.16520898975431919097900390625" lon="1.49626971222460269927978515625">
        <ele>22.799999237060546875</ele>
        <time>2025-09-06T11:23:06.000Z</time>
        <extensions>
          <ns3:TrackPointExtension>
            <ns3:hr>105</ns3:hr>
            <ns3:cad>57</ns3:cad>
          </ns3:TrackPointExtension>
        </extensions>
      </trkpt>
      <trkpt lat="52.16520111076533794403076171875" lon="1.49631765671074390411376953125">
        <ele>24.200000762939453125</ele>
        <time>2025-09-06T11:23:09.000Z</time>
        <extensions>
          <ns3:TrackPointExtension>
            <ns3:hr>102</ns3:hr>
            <ns3:cad>48</ns3:cad>
          </ns3:TrackPointExtension>
        </extensions>
      </trkpt>
      <trkpt lat="52.16519541107118129730224609375" lon="1.49633090011775493621826171875">
        <ele>24.6000003814697265625</ele>
        <time>2025-09-06T11:23:10.000Z</time>
        <extensions>
          <ns3:TrackPointExtension>
            <ns3:hr>103</ns3:hr>
            <ns3:cad>47</ns3:cad>
          </ns3:TrackPointExtension>
        </extensions>
      </trkpt>
      <trkpt lat="52.1651899628341197967529296875" lon="1.4963368512690067291259765625">
        <ele>25</ele>
        <time>2025-09-06T11:23:11.000Z</time>
        <extensions>
          <ns3:TrackPointExtension>
            <ns3:hr>103</ns3:hr>
            <ns3:cad>0</ns3:cad>
          </ns3:TrackPointExtension>
        </extensions>
      </trkpt>
      <trkpt lat="52.16518317349255084991455078125" lon="1.496340371668338775634765625">
        <ele>25.3999996185302734375</ele>
        <time>2025-09-06T11:23:12.000Z</time>
        <extensions>
          <ns3:TrackPointExtension>
            <ns3:hr>104</ns3:hr>
            <ns3:cad>0</ns3:cad>
          </ns3:TrackPointExtension>
        </extensions>
      </trkpt>
      <trkpt lat="52.16515350155532360076904296875" lon="1.4963469095528125762939453125">
        <ele>26.799999237060546875</ele>
        <time>2025-09-06T11:23:15.000Z</time>
        <extensions>
          <ns3:TrackPointExtension>
            <ns3:hr>104</ns3:hr>
            <ns3:cad>0</ns3:cad>
          </ns3:TrackPointExtension>
        </extensions>
      </trkpt>
      <trkpt lat="52.16513925231993198394775390625" lon="1.49634581990540027618408203125">
        <ele>27.6000003814697265625</ele>
        <time>2025-09-06T11:23:17.000Z</time>
        <extensions>
          <ns3:TrackPointExtension>
            <ns3:hr>105</ns3:hr>
            <ns3:cad>0</ns3:cad>
          </ns3:TrackPointExtension>
        </extensions>
      </trkpt>
      <trkpt lat="52.1651343069970607757568359375" lon="1.496346406638622283935546875">
        <ele>28</ele>
        <time>2025-09-06T11:23:18.000Z</time>
        <extensions>
          <ns3:TrackPointExtension>
            <ns3:hr>106</ns3:hr>
            <ns3:cad>0</ns3:cad>
          </ns3:TrackPointExtension>
        </extensions>
      </trkpt>
      <trkpt lat="52.16513154096901416778564453125" lon="1.4963428862392902374267578125">
        <ele>28.6000003814697265625</ele>
        <time>2025-09-06T11:23:19.000Z</time>
        <extensions>
          <ns3:TrackPointExtension>
            <ns3:hr>111</ns3:hr>
            <ns3:cad>0</ns3:cad>
          </ns3:TrackPointExtension>
        </extensions>
      </trkpt>
      <trkpt lat="52.16513304971158504486083984375" lon="1.49634540081024169921875">
        <ele>29.3999996185302734375</ele>
        <time>2025-09-06T11:23:21.000Z</time>
        <extensions>
          <ns3:TrackPointExtension>
            <ns3:hr>114</ns3:hr>
            <ns3:cad>0</ns3:cad>
          </ns3:TrackPointExtension>
        </extensions>
      </trkpt>
      <trkpt lat="52.1651319600641727447509765625" lon="1.49635151959955692291259765625">
        <ele>29.799999237060546875</ele>
        <time>2025-09-06T11:23:22.000Z</time>
        <extensions>
          <ns3:TrackPointExtension>
            <ns3:hr>117</ns3:hr>
            <ns3:cad>0</ns3:cad>
          </ns3:TrackPointExtension>
        </extensions>
      </trkpt>
      <trkpt lat="52.16513355262577533721923828125" lon="1.49635520763695240020751953125">
        <ele>30.799999237060546875</ele>
        <time>2025-09-06T11:23:24.000Z</time>
        <extensions>
          <ns3:TrackPointExtension>
            <ns3:hr>121</ns3:hr>
            <ns3:cad>0</ns3:cad>
          </ns3:TrackPointExtension>
        </extensions>
      </trkpt>
      <trkpt lat="52.1651329658925533294677734375" lon="1.49635453708469867706298828125">
        <ele>31.6000003814697265625</ele>
        <time>2025-09-06T11:23:26.000Z</time>
        <extensions>
          <ns3:TrackPointExtension>
            <ns3:hr>119</ns3:hr>
            <ns3:cad>0</ns3:cad>
          </ns3:TrackPointExtension>
        </extensions>
      </trkpt>
      <trkpt lat="52.1651326306164264678955078125" lon="1.49635537527501583099365234375">
        <ele>32</ele>
        <time>2025-09-06T11:23:27.000Z</time>
        <extensions>
          <ns3:TrackPointExtension>
            <ns3:hr>119</ns3:hr>
            <ns3:cad>0</ns3:cad>
          </ns3:TrackPointExtension>
        </extensions>
      </trkpt>
      <trkpt lat="52.16513355262577533721923828125" lon="1.4963640086352825164794921875">
        <ele>33.40000152587890625</ele>
        <time>2025-09-06T11:23:30.000Z</time>
        <extensions>
          <ns3:TrackPointExtension>
            <ns3:hr>118</ns3:hr>
            <ns3:cad>0</ns3:cad>
          </ns3:TrackPointExtension>
        </extensions>
      </trkpt>
      <trkpt lat="52.1651349775493144989013671875" lon="1.49636778049170970916748046875">
        <ele>34.59999847412109375</ele>
        <time>2025-09-06T11:23:33.000Z</time>
        <extensions>
          <ns3:TrackPointExtension>
            <ns3:hr>116</ns3:hr>
            <ns3:cad>0</ns3:cad>
          </ns3:TrackPointExtension>
        </extensions>
      </trkpt>
      <trkpt lat="52.16513581573963165283203125" lon="1.4963713847100734710693359375">
        <ele>35.799999237060546875</ele>
        <time>2025-09-06T11:23:36.000Z</time>
        <extensions>
          <ns3:TrackPointExtension>
            <ns3:hr>116</ns3:hr>
            <ns3:cad>0</ns3:cad>
          </ns3:TrackPointExtension>
        </extensions>
      </trkpt>
      <trkpt lat="52.1651363186538219451904296875" lon="1.4963713847100734710693359375">
        <ele>36.59999847412109375</ele>
        <time>2025-09-06T11:23:38.000Z</time>
        <extensions>
          <ns3:TrackPointExtension>
            <ns3:hr>113</ns3:hr>
            <ns3:cad>0</ns3:cad>
          </ns3:TrackPointExtension>
        </extensions>
      </trkpt>
      <trkpt lat="52.16513715684413909912109375" lon="1.4963727258145809173583984375">
        <ele>37</ele>
        <time>2025-09-06T11:23:39.000Z</time>
        <extensions>
          <ns3:TrackPointExtension>
            <ns3:hr>112</ns3:hr>
            <ns3:cad>0</ns3:cad>
          </ns3:TrackPointExtension>
        </extensions>
      </trkpt>
      <trkpt lat="52.16513740830123424530029296875" lon="1.496368534862995147705078125">
        <ele>37.799999237060546875</ele>
        <time>2025-09-06T11:23:41.000Z</time>
        <extensions>
          <ns3:TrackPointExtension>
            <ns3:hr>112</ns3:hr>
            <ns3:cad>0</ns3:cad>
          </ns3:TrackPointExtension>
        </extensions>
      </trkpt>
      <trkpt lat="52.16513858176767826080322265625" lon="1.496364176273345947265625">
        <ele>38.200000762939453125</ele>
        <time>2025-09-06T11:23:42.000Z</time>
        <extensions>
          <ns3:TrackPointExtension>
            <ns3:hr>112</ns3:hr>
            <ns3:cad>0</ns3:cad>
          </ns3:TrackPointExtension>
        </extensions>
      </trkpt>
      <trkpt lat="52.16514025814831256866455078125" lon="1.49636275134980678558349609375">
        <ele>39.40000152587890625</ele>
        <time>2025-09-06T11:23:45.000Z</time>
        <extensions>
          <ns3:TrackPointExtension>
            <ns3:hr>111</ns3:hr>
            <ns3:cad>0</ns3:cad>
          </ns3:TrackPointExtension>
        </extensions>
      </trkpt>
      <trkpt lat="52.16514511965215206146240234375" lon="1.49635537527501583099365234375">
        <ele>40.59999847412109375</ele>
        <time>2025-09-06T11:23:48.000Z</time>
        <extensions>
          <ns3:TrackPointExtension>
            <ns3:hr>112</ns3:hr>
            <ns3:cad>58</ns3:cad>
          </ns3:TrackPointExtension>
        </extensions>
      </trkpt>
      <trkpt lat="52.1651463769376277923583984375" lon="1.49635411798954010009765625">
        <ele>41.40000152587890625</ele>
        <time>2025-09-06T11:23:50.000Z</time>
        <extensions>
          <ns3:TrackPointExtension>
            <ns3:hr>109</ns3:hr>
            <ns3:cad>0</ns3:cad>
          </ns3:TrackPointExtension>
        </extensions>
      </trkpt>
      <trkpt lat="52.16514729894697666168212890625" lon="1.4963529445230960845947265625">
        <ele>41.799999237060546875</ele>
        <time>2025-09-06T11:23:51.000Z</time>
        <extensions>
          <ns3:TrackPointExtension>
            <ns3:hr>108</ns3:hr>
            <ns3:cad>0</ns3:cad>
          </ns3:TrackPointExtension>
        </extensions>
      </trkpt>
      <trkpt lat="52.16514729894697666168212890625" lon="1.496360488235950469970703125">
        <ele>43</ele>
        <time>2025-09-06T11:23:54.000Z</time>
        <extensions>
          <ns3:TrackPointExtension>
            <ns3:hr>108</ns3:hr>
            <ns3:cad>0</ns3:cad>
          </ns3:TrackPointExtension>
        </extensions>
      </trkpt>
      <trkpt lat="52.16514612548053264617919921875" lon="1.4963676966726779937744140625">
        <ele>44.40000152587890625</ele>
        <time>2025-09-06T11:23:57.000Z</time>
        <extensions>
          <ns3:TrackPointExtension>
            <ns3:hr>110</ns3:hr>
            <ns3:cad>0</ns3:cad>
          </ns3:TrackPointExtension>
        </extensions>
      </trkpt>
      <trkpt lat="52.1651229076087474822998046875" lon="1.4963697083294391632080078125">
        <ele>45.59999847412109375</ele>
        <time>2025-09-06T11:24:00.000Z</time>
        <extensions>
          <ns3:TrackPointExtension>
            <ns3:hr>108</ns3:hr>
            <ns3:cad>0</ns3:cad>
          </ns3:TrackPointExtension>
        </extensions>
      </trkpt>
      <trkpt lat="52.16509952209889888763427734375" lon="1.49642377160489559173583984375">
        <ele>46.799999237060546875</ele>
        <time>2025-09-06T11:24:03.000Z</time>
        <extensions>
          <ns3:TrackPointExtension>
            <ns3:hr>107</ns3:hr>
            <ns3:cad>0</ns3:cad>
          </ns3:TrackPointExtension>
        </extensions>
      </trkpt>
      <trkpt lat="52.16509013436734676361083984375" lon="1.496444307267665863037109375">
        <ele>47.200000762939453125</ele>
        <time>2025-09-06T11:24:04.000Z</time>
        <extensions>
          <ns3:TrackPointExtension>
            <ns3:hr>108</ns3:hr>
            <ns3:cad>0</ns3:cad>
          </ns3:TrackPointExtension>
        </extensions>
      </trkpt>
      <trkpt lat="52.16507974080741405487060546875" lon="1.49648512713611125946044921875">
        <ele>48</ele>
        <time>2025-09-06T11:24:06.000Z</time>
        <extensions>
          <ns3:TrackPointExtension>
            <ns3:hr>107</ns3:hr>
            <ns3:cad>57</ns3:cad>
          </ns3:TrackPointExtension>
        </extensions>
      </trkpt>
      <trkpt lat="52.16506079770624637603759765625" lon="1.49656576104462146759033203125">
        <ele>49</ele>
        <time>2025-09-06T11:24:09.000Z</time>
        <extensions>
          <ns3:TrackPointExtension>
            <ns3:hr>109</ns3:hr>
            <ns3:cad>0</ns3:cad>
          </ns3:TrackPointExtension>
        </extensions>
      </trkpt>
      <trkpt lat="52.1650384180247783660888671875" lon="1.4966744743287563323974609375">
        <ele>50.200000762939453125</ele>
        <time>2025-09-06T11:24:12.000Z</time>
        <extensions>
          <ns3:TrackPointExtension>
            <ns3:hr>110</ns3:hr>
            <ns3:cad>77</ns3:cad>
          </ns3:TrackPointExtension>
        </extensions>
      </trkpt>
      <trkpt lat="52.165015451610088348388671875" lon="1.4967753924429416656494140625">
        <ele>51.200000762939453125</ele>
        <time>2025-09-06T11:24:15.000Z</time>
        <extensions>
          <ns3:TrackPointExtension>
            <ns3:hr>114</ns3:hr>
            <ns3:cad>77</ns3:cad>
          </ns3:TrackPointExtension>
        </extensions>
      </trkpt>
      <trkpt lat="52.16500706970691680908203125" lon="1.496810428798198699951171875">
        <ele>51.59999847412109375</ele>
        <time>2025-09-06T11:24:16.000Z</time>
        <extensions>
          <ns3:TrackPointExtension>
            <ns3:hr>117</ns3:hr>
            <ns3:cad>77</ns3:cad>
          </ns3:TrackPointExtension>
        </extensions>
      </trkpt>
      <trkpt lat="52.16499231755733489990234375" lon="1.4968793280422687530517578125">
        <ele>52.40000152587890625</ele>
        <time>2025-09-06T11:24:18.000Z</time>
        <extensions>
          <ns3:TrackPointExtension>
            <ns3:hr>121</ns3:hr>
            <ns3:cad>78</ns3:cad>
          </ns3:TrackPointExtension>
        </extensions>
      </trkpt>
      <trkpt lat="52.164987623691558837890625" lon="1.49694931693375110626220703125">
        <ele>53.200000762939453125</ele>
        <time>2025-09-06T11:24:20.000Z</time>
        <extensions>
          <ns3:TrackPointExtension>
            <ns3:hr>124</ns3:hr>
            <ns3:cad>78</ns3:cad>
          </ns3:TrackPointExtension>
        </extensions>
      </trkpt>
      <trkpt lat="52.16498686932027339935302734375" lon="1.4969866164028644561767578125">
        <ele>53.59999847412109375</ele>
        <time>2025-09-06T11:24:21.000Z</time>
        <extensions>
          <ns3:TrackPointExtension>
            <ns3:hr>127</ns3:hr>
            <ns3:cad>79</ns3:cad>
          </ns3:TrackPointExtension>
        </extensions>
      </trkpt>
      <trkpt lat="52.16497781686484813690185546875" lon="1.49705442599952220916748046875">
        <ele>54.40000152587890625</ele>
        <time>2025-09-06T11:24:23.000Z</time>
        <extensions>
          <ns3:TrackPointExtension>
            <ns3:hr>131</ns3:hr>
            <ns3:cad>79</ns3:cad>
          </ns3:TrackPointExtension>
        </extensions>
      </trkpt>
      <trkpt lat="52.16497446410357952117919921875" lon="1.4970885403454303741455078125">
        <ele>55</ele>
        <time>2025-09-06T11:24:24.000Z</time>
        <extensions>
          <ns3:TrackPointExtension>
            <ns3:hr>134</ns3:hr>
            <ns3:cad>79</ns3:cad>
          </ns3:TrackPointExtension>
        </extensions>
      </trkpt>
      <trkpt lat="52.1649656631052494049072265625" lon="1.49716171436011791229248046875">
        <ele>55.799999237060546875</ele>
        <time>2025-09-06T11:24:26.000Z</time>
        <extensions>
          <ns3:TrackPointExtension>
            <ns3:hr>138</ns3:hr>
            <ns3:cad>80</ns3:cad>
          </ns3:TrackPointExtension>
        </extensions>
      </trkpt>
      <trkpt lat="52.16496055014431476593017578125" lon="1.4971988461911678314208984375">
        <ele>56.200000762939453125</ele>
        <time>2025-09-06T11:24:27.000Z</time>
        <extensions>
          <ns3:TrackPointExtension>
            <ns3:hr>138</ns3:hr>
            <ns3:cad>80</ns3:cad>
          </ns3:TrackPointExtension>
        </extensions>
      </trkpt>
      <trkpt lat="52.16493993066251277923583984375" lon="1.497308649122714996337890625">
        <ele>57.59999847412109375</ele>
        <time>2025-09-06T11:24:30.000Z</time>
        <extensions>
          <ns3:TrackPointExtension>
            <ns3:hr>139</ns3:hr>
            <ns3:cad>80</ns3:cad>
          </ns3:TrackPointExtension>
        </extensions>
      </trkpt>
      <trkpt lat="52.164918892085552215576171875" lon="1.497406549751758575439453125">
        <ele>59</ele>
        <time>2025-09-06T11:24:33.000Z</time>
        <extensions>
          <ns3:TrackPointExtension>
            <ns3:hr>140</ns3:hr>
            <ns3:cad>80</ns3:cad>
          </ns3:TrackPointExtension>
        </extensions>
      </trkpt>
      <trkpt lat="52.164912857115268707275390625" lon="1.49744368158280849456787109375">
        <ele>59.59999847412109375</ele>
        <time>2025-09-06T11:24:34.000Z</time>
        <extensions>
          <ns3:TrackPointExtension>
            <ns3:hr>136</ns3:hr>
            <ns3:cad>80</ns3:cad>
          </ns3:TrackPointExtension>
        </extensions>
      </trkpt>
      <trkpt lat="52.16490372084081172943115234375" lon="1.4975116588175296783447265625">
        <ele>60.40000152587890625</ele>
        <time>2025-09-06T11:24:36.000Z</time>
        <extensions>
          <ns3:TrackPointExtension>
            <ns3:hr>135</ns3:hr>
            <ns3:cad>80</ns3:cad>
          </ns3:TrackPointExtension>
        </extensions>
      </trkpt>
      <trkpt lat="52.16489852406084537506103515625" lon="1.497610397636890411376953125">
        <ele>62</ele>
        <time>2025-09-06T11:24:39.000Z</time>
        <extensions>
          <ns3:TrackPointExtension>
            <ns3:hr>133</ns3:hr>
            <ns3:cad>80</ns3:cad>
          </ns3:TrackPointExtension>
        </extensions>
      </trkpt>
      <trkpt lat="52.16491277329623699188232421875" lon="1.49769614450633525848388671875">
        <ele>63.40000152587890625</ele>
        <time>2025-09-06T11:24:42.000Z</time>
        <extensions>
          <ns3:TrackPointExtension>
            <ns3:hr>132</ns3:hr>
            <ns3:cad>80</ns3:cad>
          </ns3:TrackPointExtension>
        </extensions>
      </trkpt>
      <trkpt lat="52.1649244241416454315185546875" lon="1.49771575815975666046142578125">
        <ele>63.799999237060546875</ele>
        <time>2025-09-06T11:24:43.000Z</time>
        <extensions>
          <ns3:TrackPointExtension>
            <ns3:hr>135</ns3:hr>
            <ns3:cad>80</ns3:cad>
          </ns3:TrackPointExtension>
        </extensions>
      </trkpt>
      <trkpt lat="52.164952754974365234375" lon="1.49774811230599880218505859375">
        <ele>64.8000030517578125</ele>
        <time>2025-09-06T11:24:45.000Z</time>
        <extensions>
          <ns3:TrackPointExtension>
            <ns3:hr>135</ns3:hr>
            <ns3:cad>80</ns3:cad>
          </ns3:TrackPointExtension>
        </extensions>
      </trkpt>
      <trkpt lat="52.1649894677102565765380859375" lon="1.49781885556876659393310546875">
        <ele>66.1999969482421875</ele>
        <time>2025-09-06T11:24:48.000Z</time>
        <extensions>
          <ns3:TrackPointExtension>
            <ns3:hr>139</ns3:hr>
            <ns3:cad>81</ns3:cad>
          </ns3:TrackPointExtension>
        </extensions>
      </trkpt>
      <trkpt lat="52.16500145383179187774658203125" lon="1.4978831447660923004150390625">
        <ele>67</ele>
        <time>2025-09-06T11:24:50.000Z</time>
        <extensions>
          <ns3:TrackPointExtension>
            <ns3:hr>138</ns3:hr>
            <ns3:cad>81</ns3:cad>
          </ns3:TrackPointExtension>
        </extensions>
      </trkpt>
      <trkpt lat="52.1650028787553310394287109375" lon="1.49794894270598888397216796875">
        <ele>64.8000030517578125</ele>
        <time>2025-09-06T11:24:52.000Z</time>
        <extensions>
          <ns3:TrackPointExtension>
            <ns3:hr>137</ns3:hr>
            <ns3:cad>80</ns3:cad>
          </ns3:TrackPointExtension>
        </extensions>
      </trkpt>
      <trkpt lat="52.16499927453696727752685546875" lon="1.49798364378511905670166015625">
        <ele>63.59999847412109375</ele>
        <time>2025-09-06T11:24:53.000Z</time>
        <extensions>
          <ns3:TrackPointExtension>
            <ns3:hr>136</ns3:hr>
            <ns3:cad>79</ns3:cad>
          </ns3:TrackPointExtension>
        </extensions>
      </trkpt>
      <trkpt lat="52.16499592177569866180419921875" lon="1.49801398627460002899169921875">
        <ele>62.59999847412109375</ele>
        <time>2025-09-06T11:24:54.000Z</time>
        <extensions>
          <ns3:TrackPointExtension>
            <ns3:hr>136</ns3:hr>
            <ns3:cad>79</ns3:cad>
          </ns3:TrackPointExtension>
        </extensions>
      </trkpt>
      <trkpt lat="52.1649904735386371612548828125" lon="1.4980454184114933013916015625">
        <ele>61.40000152587890625</ele>
        <time>2025-09-06T11:24:55.000Z</time>
        <extensions>
          <ns3:TrackPointExtension>
            <ns3:hr>136</ns3:hr>
            <ns3:cad>79</ns3:cad>
          </ns3:TrackPointExtension>
        </extensions>
      </trkpt>
      <trkpt lat="52.1649857796728610992431640625" lon="1.49807852692902088165283203125">
        <ele>60.200000762939453125</ele>
        <time>2025-09-06T11:24:56.000Z</time>
        <extensions>
          <ns3:TrackPointExtension>
            <ns3:hr>137</ns3:hr>
            <ns3:cad>79</ns3:cad>
          </ns3:TrackPointExtension>
        </extensions>
      </trkpt>
      <trkpt lat="52.16498284600675106048583984375" lon="1.49811222217977046966552734375">
        <ele>59.200000762939453125</ele>
        <time>2025-09-06T11:24:57.000Z</time>
        <extensions>
          <ns3:TrackPointExtension>
            <ns3:hr>135</ns3:hr>
            <ns3:cad>79</ns3:cad>
          </ns3:TrackPointExtension>
        </extensions>
      </trkpt>
      <trkpt lat="52.164979241788387298583984375" lon="1.49814608506858348846435546875">
        <ele>58.200000762939453125</ele>
        <time>2025-09-06T11:24:58.000Z</time>
        <extensions>
          <ns3:TrackPointExtension>
            <ns3:hr>136</ns3:hr>
            <ns3:cad>79</ns3:cad>
          </ns3:TrackPointExtension>
        </extensions>
      </trkpt>
      <trkpt lat="52.1649730391800403594970703125" lon="1.4981818757951259613037109375">
        <ele>57</ele>
        <time>2025-09-06T11:24:59.000Z</time>
        <extensions>
          <ns3:TrackPointExtension>
            <ns3:hr>137</ns3:hr>
            <ns3:cad>79</ns3:cad>
          </ns3:TrackPointExtension>
        </extensions>
      </trkpt>
      <trkpt lat="52.164968512952327728271484375" lon="1.49821582250297069549560546875">
        <ele>56</ele>
        <time>2025-09-06T11:25:00.000Z</time>
        <extensions>
          <ns3:TrackPointExtension>
            <ns3:hr>136</ns3:hr>
            <ns3:cad>79</ns3:cad>
          </ns3:TrackPointExtension>
        </extensions>
      </trkpt>
      <trkpt lat="52.1649633161723613739013671875" lon="1.49825052358210086822509765625">
        <ele>55</ele>
        <time>2025-09-06T11:25:01.000Z</time>
        <extensions>
          <ns3:TrackPointExtension>
            <ns3:hr>136</ns3:hr>
            <ns3:cad>79</ns3:cad>
          </ns3:TrackPointExtension>
        </extensions>
      </trkpt>
      <trkpt lat="52.164957784116268157958984375" lon="1.498285643756389617919921875">
        <ele>53.799999237060546875</ele>
        <time>2025-09-06T11:25:02.000Z</time>
        <extensions>
          <ns3:TrackPointExtension>
            <ns3:hr>136</ns3:hr>
            <ns3:cad>80</ns3:cad>
          </ns3:TrackPointExtension>
        </extensions>
      </trkpt>
      <trkpt lat="52.1649529226124286651611328125" lon="1.49831573478877544403076171875">
        <ele>52.799999237060546875</ele>
        <time>2025-09-06T11:25:03.000Z</time>
        <extensions>
          <ns3:TrackPointExtension>
            <ns3:hr>135</ns3:hr>
            <ns3:cad>80</ns3:cad>
          </ns3:TrackPointExtension>
        </extensions>
      </trkpt>
      <trkpt lat="52.1649472229182720184326171875" lon="1.49835102260112762451171875">
        <ele>51.799999237060546875</ele>
        <time>2025-09-06T11:25:04.000Z</time>
        <extensions>
          <ns3:TrackPointExtension>
            <ns3:hr>137</ns3:hr>
            <ns3:cad>80</ns3:cad>
          </ns3:TrackPointExtension>
        </extensions>
      </trkpt>
      <trkpt lat="52.164940349757671356201171875" lon="1.49838681332767009735107421875">
        <ele>50.799999237060546875</ele>
        <time>2025-09-06T11:25:05.000Z</time>
        <extensions>
          <ns3:TrackPointExtension>
            <ns3:hr>135</ns3:hr>
            <ns3:cad>80</ns3:cad>
          </ns3:TrackPointExtension>
        </extensions>
      </trkpt>
      <trkpt lat="52.164933979511260986328125" lon="1.4984229393303394317626953125">
        <ele>49.799999237060546875</ele>
        <time>2025-09-06T11:25:06.000Z</time>
        <extensions>
          <ns3:TrackPointExtension>
            <ns3:hr>137</ns3:hr>
            <ns3:cad>80</ns3:cad>
          </ns3:TrackPointExtension>
        </extensions>
      </trkpt>
      <trkpt lat="52.16491612605750560760498046875" lon="1.49848672561347484588623046875">
        <ele>47.799999237060546875</ele>
        <time>2025-09-06T11:25:08.000Z</time>
        <extensions>
          <ns3:TrackPointExtension>
            <ns3:hr>139</ns3:hr>
            <ns3:cad>80</ns3:cad>
          </ns3:TrackPointExtension>
        </extensions>
      </trkpt>
      <trkpt lat="52.16489785350859165191650390625" lon="1.498549841344356536865234375">
        <ele>45.799999237060546875</ele>
        <time>2025-09-06T11:25:10.000Z</time>
        <extensions>
          <ns3:TrackPointExtension>
            <ns3:hr>140</ns3:hr>
            <ns3:cad>81</ns3:cad>
          </ns3:TrackPointExtension>
        </extensions>
      </trkpt>
      <trkpt lat="52.1648694388568401336669921875" lon="1.4986123703420162200927734375">
        <ele>44</ele>
        <time>2025-09-06T11:25:12.000Z</time>
        <extensions>
          <ns3:TrackPointExtension>
            <ns3:hr>139</ns3:hr>
            <ns3:cad>80</ns3:cad>
          </ns3:TrackPointExtension>
        </extensions>
      </trkpt>
      <trkpt lat="52.164848148822784423828125" lon="1.49863257072865962982177734375">
        <ele>43</ele>
        <time>2025-09-06T11:25:13.000Z</time>
        <extensions>
          <ns3:TrackPointExtension>
            <ns3:hr>139</ns3:hr>
            <ns3:cad>80</ns3:cad>
          </ns3:TrackPointExtension>
        </extensions>
      </trkpt>
      <trkpt lat="52.164832055568695068359375" lon="1.4986588060855865478515625">
        <ele>42</ele>
        <time>2025-09-06T11:25:14.000Z</time>
        <extensions>
          <ns3:TrackPointExtension>
            <ns3:hr>140</ns3:hr>
            <ns3:cad>81</ns3:cad>
          </ns3:TrackPointExtension>
        </extensions>
      </trkpt>
      <trkpt lat="52.16480095870792865753173828125" lon="1.49871043860912322998046875">
        <ele>40.200000762939453125</ele>
        <time>2025-09-06T11:25:16.000Z</time>
        <extensions>
          <ns3:TrackPointExtension>
            <ns3:hr>140</ns3:hr>
            <ns3:cad>81</ns3:cad>
          </ns3:TrackPointExtension>
        </extensions>
      </trkpt>
      <trkpt lat="52.164770700037479400634765625" lon="1.49875192902982234954833984375">
        <ele>38.40000152587890625</ele>
        <time>2025-09-06T11:25:18.000Z</time>
        <extensions>
          <ns3:TrackPointExtension>
            <ns3:hr>140</ns3:hr>
            <ns3:cad>80</ns3:cad>
          </ns3:TrackPointExtension>
        </extensions>
      </trkpt>
      <trkpt lat="52.16474094428122043609619140625" lon="1.49880205281078815460205078125">
        <ele>36.59999847412109375</ele>
        <time>2025-09-06T11:25:20.000Z</time>
        <extensions>
          <ns3:TrackPointExtension>
            <ns3:hr>140</ns3:hr>
            <ns3:cad>80</ns3:cad>
          </ns3:TrackPointExtension>
        </extensions>
      </trkpt>
      <trkpt lat="52.1647118590772151947021484375" lon="1.49885234422981739044189453125">
        <ele>35</ele>
        <time>2025-09-06T11:25:22.000Z</time>
        <extensions>
          <ns3:TrackPointExtension>
            <ns3:hr>138</ns3:hr>
            <ns3:cad>80</ns3:cad>
          </ns3:TrackPointExtension>
        </extensions>
      </trkpt>
      <trkpt lat="52.16468579135835170745849609375" lon="1.4989097602665424346923828125">
        <ele>33.200000762939453125</ele>
        <time>2025-09-06T11:25:24.000Z</time>
        <extensions>
          <ns3:TrackPointExtension>
            <ns3:hr>139</ns3:hr>
            <ns3:cad>81</ns3:cad>
          </ns3:TrackPointExtension>
        </extensions>
      </trkpt>
      <trkpt lat="52.16466131620109081268310546875" lon="1.49896617047488689422607421875">
        <ele>31.6000003814697265625</ele>
        <time>2025-09-06T11:25:26.000Z</time>
        <extensions>
          <ns3:TrackPointExtension>
            <ns3:hr>142</ns3:hr>
            <ns3:cad>81</ns3:cad>
          </ns3:TrackPointExtension>
        </extensions>
      </trkpt>
      <trkpt lat="52.1646444685757160186767578125" lon="1.49901947937905788421630859375">
        <ele>29.799999237060546875</ele>
        <time>2025-09-06T11:25:28.000Z</time>
        <extensions>
          <ns3:TrackPointExtension>
            <ns3:hr>141</ns3:hr>
            <ns3:cad>80</ns3:cad>
          </ns3:TrackPointExtension>
        </extensions>
      </trkpt>
      <trkpt lat="52.16463482938706874847412109375" lon="1.4990505762398242950439453125">
        <ele>28.3999996185302734375</ele>
        <time>2025-09-06T11:25:30.000Z</time>
        <extensions>
          <ns3:TrackPointExtension>
            <ns3:hr>140</ns3:hr>
            <ns3:cad>80</ns3:cad>
          </ns3:TrackPointExtension>
        </extensions>
      </trkpt>
      <trkpt lat="52.16462611220777034759521484375" lon="1.49907312355935573577880859375">
        <ele>26.799999237060546875</ele>
        <time>2025-09-06T11:25:32.000Z</time>
        <extensions>
          <ns3:TrackPointExtension>
            <ns3:hr>136</ns3:hr>
            <ns3:cad>78</ns3:cad>
          </ns3:TrackPointExtension>
        </extensions>
      </trkpt>
      <trkpt lat="52.16462125070393085479736328125" lon="1.49908594787120819091796875">
        <ele>26</ele>
        <time>2025-09-06T11:25:33.000Z</time>
        <extensions>
          <ns3:TrackPointExtension>
            <ns3:hr>139</ns3:hr>
            <ns3:cad>78</ns3:cad>
          </ns3:TrackPointExtension>
        </extensions>
      </trkpt>
      <trkpt lat="52.16461655683815479278564453125" lon="1.499099694192409515380859375">
        <ele>25.200000762939453125</ele>
        <time>2025-09-06T11:25:34.000Z</time>
        <extensions>
          <ns3:TrackPointExtension>
            <ns3:hr>139</ns3:hr>
            <ns3:cad>78</ns3:cad>
          </ns3:TrackPointExtension>
        </extensions>
      </trkpt>
      <trkpt lat="52.16460666619241237640380859375" lon="1.49911268614232540130615234375">
        <ele>23.6000003814697265625</ele>
        <time>2025-09-06T11:25:36.000Z</time>
        <extensions>
          <ns3:TrackPointExtension>
            <ns3:hr>141</ns3:hr>
            <ns3:cad>0</ns3:cad>
          </ns3:TrackPointExtension>
        </extensions>
      </trkpt>
      <trkpt lat="52.164604403078556060791015625" lon="1.4991162903606891632080078125">
        <ele>22.200000762939453125</ele>
        <time>2025-09-06T11:25:38.000Z</time>
        <extensions>
          <ns3:TrackPointExtension>
            <ns3:hr>141</ns3:hr>
            <ns3:cad>0</ns3:cad>
          </ns3:TrackPointExtension>
        </extensions>
      </trkpt>
      <trkpt lat="52.1646052412688732147216796875" lon="1.49911536835134029388427734375">
        <ele>20.799999237060546875</ele>
        <time>2025-09-06T11:25:40.000Z</time>
        <extensions>
          <ns3:TrackPointExtension>
            <ns3:hr>141</ns3:hr>
            <ns3:cad>0</ns3:cad>
          </ns3:TrackPointExtension>
        </extensions>
      </trkpt>
      <trkpt lat="52.164601050317287445068359375" lon="1.49911017157137393951416015625">
        <ele>19.3999996185302734375</ele>
        <time>2025-09-06T11:25:42.000Z</time>
        <extensions>
          <ns3:TrackPointExtension>
            <ns3:hr>138</ns3:hr>
            <ns3:cad>0</ns3:cad>
          </ns3:TrackPointExtension>
        </extensions>
      </trkpt>
      <trkpt lat="52.16459560208022594451904296875" lon="1.4991075731813907623291015625">
        <ele>18</ele>
        <time>2025-09-06T11:25:44.000Z</time>
        <extensions>
          <ns3:TrackPointExtension>
            <ns3:hr>138</ns3:hr>
            <ns3:cad>0</ns3:cad>
          </ns3:TrackPointExtension>
        </extensions>
      </trkpt>
      <trkpt lat="52.1645946800708770751953125" lon="1.49910832755267620086669921875">
        <ele>16.6000003814697265625</ele>
        <time>2025-09-06T11:25:46.000Z</time>
        <extensions>
          <ns3:TrackPointExtension>
            <ns3:hr>138</ns3:hr>
            <ns3:cad>0</ns3:cad>
          </ns3:TrackPointExtension>
        </extensions>
      </trkpt>
      <trkpt lat="52.16459308750927448272705078125" lon="1.4991115964949131011962890625">
        <ele>15.19999980926513671875</ele>
        <time>2025-09-06T11:25:48.000Z</time>
        <extensions>
          <ns3:TrackPointExtension>
            <ns3:hr>135</ns3:hr>
            <ns3:cad>0</ns3:cad>
          </ns3:TrackPointExtension>
        </extensions>
      </trkpt>
      <trkpt lat="52.16458923183381557464599609375" lon="1.49911050684750080108642578125">
        <ele>14.6000003814697265625</ele>
        <time>2025-09-06T11:25:49.000Z</time>
        <extensions>
          <ns3:TrackPointExtension>
            <ns3:hr>135</ns3:hr>
            <ns3:cad>0</ns3:cad>
          </ns3:TrackPointExtension>
        </extensions>
      </trkpt>
      <trkpt lat="52.16458219103515148162841796875" lon="1.4991094172000885009765625">
        <ele>14</ele>
        <time>2025-09-06T11:25:50.000Z</time>
        <extensions>
          <ns3:TrackPointExtension>
            <ns3:hr>135</ns3:hr>
            <ns3:cad>0</ns3:cad>
          </ns3:TrackPointExtension>
        </extensions>
      </trkpt>
      <trkpt lat="52.16457783244550228118896484375" lon="1.49911235086619853973388671875">
        <ele>12.6000003814697265625</ele>
        <time>2025-09-06T11:25:52.000Z</time>
        <extensions>
          <ns3:TrackPointExtension>
            <ns3:hr>135</ns3:hr>
            <ns3:cad>0</ns3:cad>
          </ns3:TrackPointExtension>
        </extensions>
      </trkpt>
      <trkpt lat="52.16457682661712169647216796875" lon="1.4991169609129428863525390625">
        <ele>11.3999996185302734375</ele>
        <time>2025-09-06T11:25:54.000Z</time>
        <extensions>
          <ns3:TrackPointExtension>
            <ns3:hr>134</ns3:hr>
            <ns3:cad>0</ns3:cad>
          </ns3:TrackPointExtension>
        </extensions>
      </trkpt>
      <trkpt lat="52.16457045637071132659912109375" lon="1.49915610440075397491455078125">
        <ele>10.19999980926513671875</ele>
        <time>2025-09-06T11:25:56.000Z</time>
        <extensions>
          <ns3:TrackPointExtension>
            <ns3:hr>132</ns3:hr>
            <ns3:cad>0</ns3:cad>
          </ns3:TrackPointExtension>
        </extensions>
      </trkpt>
      <trkpt lat="52.16456743888556957244873046875" lon="1.49918225593864917755126953125">
        <ele>9.6000003814697265625</ele>
        <time>2025-09-06T11:25:57.000Z</time>
        <extensions>
          <ns3:TrackPointExtension>
            <ns3:hr>131</ns3:hr>
            <ns3:cad>0</ns3:cad>
          </ns3:TrackPointExtension>
        </extensions>
      </trkpt>
      <trkpt lat="52.16456442140042781829833984375" lon="1.499212682247161865234375">
        <ele>9</ele>
        <time>2025-09-06T11:25:58.000Z</time>
        <extensions>
          <ns3:TrackPointExtension>
            <ns3:hr>132</ns3:hr>
            <ns3:cad>0</ns3:cad>
          </ns3:TrackPointExtension>
        </extensions>
      </trkpt>
      <trkpt lat="52.164558470249176025390625" lon="1.4992731995880603790283203125">
        <ele>7.80000019073486328125</ele>
        <time>2025-09-06T11:26:00.000Z</time>
        <extensions>
          <ns3:TrackPointExtension>
            <ns3:hr>131</ns3:hr>
            <ns3:cad>75</ns3:cad>
          </ns3:TrackPointExtension>
        </extensions>
      </trkpt>
      <trkpt lat="52.16455738060176372528076171875" lon="1.49934302084147930145263671875">
        <ele>6.599999904632568359375</ele>
        <time>2025-09-06T11:26:02.000Z</time>
        <extensions>
          <ns3:TrackPointExtension>
            <ns3:hr>131</ns3:hr>
            <ns3:cad>77</ns3:cad>
          </ns3:TrackPointExtension>
        </extensions>
      </trkpt>
      <trkpt lat="52.1645593084394931793212890625" lon="1.49937705136835575103759765625">
        <ele>6</ele>
        <time>2025-09-06T11:26:03.000Z</time>
        <extensions>
          <ns3:TrackPointExtension>
            <ns3:hr>132</ns3:hr>
            <ns3:cad>78</ns3:cad>
          </ns3:TrackPointExtension>
        </extensions>
      </trkpt>
      <trkpt lat="52.16456308029592037200927734375" lon="1.49941309355199337005615234375">
        <ele>5.400000095367431640625</ele>
        <time>2025-09-06T11:26:04.000Z</time>
        <extensions>
          <ns3:TrackPointExtension>
            <ns3:hr>134</ns3:hr>
            <ns3:cad>79</ns3:cad>
          </ns3:TrackPointExtension>
        </extensions>
      </trkpt>
      <trkpt lat="52.1645697019994258880615234375" lon="1.4994726888835430145263671875">
        <ele>4.400000095367431640625</ele>
        <time>2025-09-06T11:26:06.000Z</time>
        <extensions>
          <ns3:TrackPointExtension>
            <ns3:hr>137</ns3:hr>
            <ns3:cad>79</ns3:cad>
          </ns3:TrackPointExtension>
        </extensions>
      </trkpt>
      <trkpt lat="52.16457012109458446502685546875" lon="1.4995142631232738494873046875">
        <ele>3.2000000476837158203125</ele>
        <time>2025-09-06T11:26:08.000Z</time>
        <extensions>
          <ns3:TrackPointExtension>
            <ns3:hr>138</ns3:hr>
            <ns3:cad>79</ns3:cad>
          </ns3:TrackPointExtension>
        </extensions>
      </trkpt>
      <trkpt lat="52.1645700372755527496337890625" lon="1.49952583014965057373046875">
        <ele>2.7999999523162841796875</ele>
        <time>2025-09-06T11:26:09.000Z</time>
        <extensions>
          <ns3:TrackPointExtension>
            <ns3:hr>138</ns3:hr>
            <ns3:cad>79</ns3:cad>
          </ns3:TrackPointExtension>
        </extensions>
      </trkpt>
      <trkpt lat="52.16456928290426731109619140625" lon="1.499529518187046051025390625">
        <ele>2.2000000476837158203125</ele>
        <time>2025-09-06T11:26:10.000Z</time>
        <extensions>
          <ns3:TrackPointExtension>
            <ns3:hr>136</ns3:hr>
            <ns3:cad>79</ns3:cad>
          </ns3:TrackPointExtension>
        </extensions>
      </trkpt>
      <trkpt lat="52.16456743888556957244873046875" lon="1.4995305240154266357421875">
        <ele>1.2000000476837158203125</ele>
        <time>2025-09-06T11:26:12.000Z</time>
        <extensions>
          <ns3:TrackPointExtension>
            <ns3:hr>138</ns3:hr>
            <ns3:cad>0</ns3:cad>
          </ns3:TrackPointExtension>
        </extensions>
      </trkpt>
      <trkpt lat="52.16456810943782329559326171875" lon="1.49953253567218780517578125">
        <ele>0.20000000298023223876953125</ele>
        <time>2025-09-06T11:26:14.000Z</time>
        <extensions>
          <ns3:TrackPointExtension>
            <ns3:hr>137</ns3:hr>
            <ns3:cad>0</ns3:cad>
          </ns3:TrackPointExtension>
        </extensions>
      </trkpt>
      <trkpt lat="52.1645686961710453033447265625" lon="1.49953261949121952056884765625">
        <ele>-0.800000011920928955078125</ele>
        <time>2025-09-06T11:26:16.000Z</time>
        <extensions>
          <ns3:TrackPointExtension>
            <ns3:hr>138</ns3:hr>
            <ns3:cad>0</ns3:cad>
          </ns3:TrackPointExtension>
        </extensions>
      </trkpt>
      <trkpt lat="52.164569199085235595703125" lon="1.4995332062244415283203125">
        <ele>-1.39999997615814208984375</ele>
        <time>2025-09-06T11:26:17.000Z</time>
        <extensions>
          <ns3:TrackPointExtension>
            <ns3:hr>138</ns3:hr>
            <ns3:cad>0</ns3:cad>
          </ns3:TrackPointExtension>
        </extensions>
      </trkpt>
      <trkpt lat="52.164571546018123626708984375" lon="1.499537564814090728759765625">
        <ele>-2.400000095367431640625</ele>
        <time>2025-09-06T11:26:19.000Z</time>
        <extensions>
          <ns3:TrackPointExtension>
            <ns3:hr>138</ns3:hr>
            <ns3:cad>0</ns3:cad>
          </ns3:TrackPointExtension>
        </extensions>
      </trkpt>
      <trkpt lat="52.16458369977772235870361328125" lon="1.49959213100373744964599609375">
        <ele>-3.7999999523162841796875</ele>
        <time>2025-09-06T11:26:22.000Z</time>
        <extensions>
          <ns3:TrackPointExtension>
            <ns3:hr>135</ns3:hr>
            <ns3:cad>0</ns3:cad>
          </ns3:TrackPointExtension>
        </extensions>
      </trkpt>
      <trkpt lat="52.16459426097571849822998046875" lon="1.499642841517925262451171875">
        <ele>-4.80000019073486328125</ele>
        <time>2025-09-06T11:26:24.000Z</time>
        <extensions>
          <ns3:TrackPointExtension>
            <ns3:hr>135</ns3:hr>
            <ns3:cad>65</ns3:cad>
          </ns3:TrackPointExtension>
        </extensions>
      </trkpt>
      <trkpt lat="52.1645992062985897064208984375" lon="1.49967175908386707305908203125">
        <ele>-5.19999980926513671875</ele>
        <time>2025-09-06T11:26:25.000Z</time>
        <extensions>
          <ns3:TrackPointExtension>
            <ns3:hr>134</ns3:hr>
            <ns3:cad>75</ns3:cad>
          </ns3:TrackPointExtension>
        </extensions>
      </trkpt>
      <trkpt lat="52.164612114429473876953125" lon="1.49972808547317981719970703125">
        <ele>-6.19999980926513671875</ele>
        <time>2025-09-06T11:26:27.000Z</time>
        <extensions>
          <ns3:TrackPointExtension>
            <ns3:hr>137</ns3:hr>
            <ns3:cad>77</ns3:cad>
          </ns3:TrackPointExtension>
        </extensions>
      </trkpt>
      <trkpt lat="52.1646201610565185546875" lon="1.49976043961942195892333984375">
        <ele>-6.599999904632568359375</ele>
        <time>2025-09-06T11:26:28.000Z</time>
        <extensions>
          <ns3:TrackPointExtension>
            <ns3:hr>136</ns3:hr>
            <ns3:cad>77</ns3:cad>
          </ns3:TrackPointExtension>
        </extensions>
      </trkpt>
      <trkpt lat="52.164640612900257110595703125" lon="1.4998458512127399444580078125">
        <ele>-8</ele>
        <time>2025-09-06T11:26:31.000Z</time>
        <extensions>
          <ns3:TrackPointExtension>
            <ns3:hr>140</ns3:hr>
            <ns3:cad>79</ns3:cad>
          </ns3:TrackPointExtension>
        </extensions>
      </trkpt>
      <trkpt lat="52.16465293429791927337646484375" lon="1.499904356896877288818359375">
        <ele>-8.80000019073486328125</ele>
        <time>2025-09-06T11:26:33.000Z</time>
        <extensions>
          <ns3:TrackPointExtension>
            <ns3:hr>143</ns3:hr>
            <ns3:cad>79</ns3:cad>
          </ns3:TrackPointExtension>
        </extensions>
      </trkpt>
      <trkpt lat="52.164660729467868804931640625" lon="1.49993444792926311492919921875">
        <ele>-9.19999980926513671875</ele>
        <time>2025-09-06T11:26:34.000Z</time>
        <extensions>
          <ns3:TrackPointExtension>
            <ns3:hr>144</ns3:hr>
            <ns3:cad>79</ns3:cad>
          </ns3:TrackPointExtension>
        </extensions>
      </trkpt>
      <trkpt lat="52.1646806783974170684814453125" lon="1.50002631358802318572998046875">
        <ele>-10.3999996185302734375</ele>
        <time>2025-09-06T11:26:37.000Z</time>
        <extensions>
          <ns3:TrackPointExtension>
            <ns3:hr>143</ns3:hr>
            <ns3:cad>79</ns3:cad>
          </ns3:TrackPointExtension>
        </extensions>
      </trkpt>
      <trkpt lat="52.1646939218044281005859375" lon="1.500086747109889984130859375">
        <ele>-11.19999980926513671875</ele>
        <time>2025-09-06T11:26:39.000Z</time>
        <extensions>
          <ns3:TrackPointExtension>
            <ns3:hr>143</ns3:hr>
            <ns3:cad>80</ns3:cad>
          </ns3:TrackPointExtension>
        </extensions>
      </trkpt>
      <trkpt lat="52.16470263898372650146484375" lon="1.50011801160871982574462890625">
        <ele>-11.6000003814697265625</ele>
        <time>2025-09-06T11:26:40.000Z</time>
        <extensions>
          <ns3:TrackPointExtension>
            <ns3:hr>145</ns3:hr>
            <ns3:cad>80</ns3:cad>
          </ns3:TrackPointExtension>
        </extensions>
      </trkpt>
      <trkpt lat="52.16470909304916858673095703125" lon="1.50014785118401050567626953125">
        <ele>-12</ele>
        <time>2025-09-06T11:26:41.000Z</time>
        <extensions>
          <ns3:TrackPointExtension>
            <ns3:hr>139</ns3:hr>
            <ns3:cad>80</ns3:cad>
          </ns3:TrackPointExtension>
        </extensions>
      </trkpt>
      <trkpt lat="52.1647199057042598724365234375" lon="1.5002106316387653350830078125">
        <ele>-12.80000019073486328125</ele>
        <time>2025-09-06T11:26:43.000Z</time>
        <extensions>
          <ns3:TrackPointExtension>
            <ns3:hr>139</ns3:hr>
            <ns3:cad>79</ns3:cad>
          </ns3:TrackPointExtension>
        </extensions>
      </trkpt>
      <trkpt lat="52.164733819663524627685546875" lon="1.50030610151588916778564453125">
        <ele>-14</ele>
        <time>2025-09-06T11:26:46.000Z</time>
        <extensions>
          <ns3:TrackPointExtension>
            <ns3:hr>138</ns3:hr>
            <ns3:cad>80</ns3:cad>
          </ns3:TrackPointExtension>
        </extensions>
      </trkpt>
      <trkpt lat="52.164741866290569305419921875" lon="1.5003668703138828277587890625">
        <ele>-14.80000019073486328125</ele>
        <time>2025-09-06T11:26:48.000Z</time>
        <extensions>
          <ns3:TrackPointExtension>
            <ns3:hr>139</ns3:hr>
            <ns3:cad>80</ns3:cad>
          </ns3:TrackPointExtension>
        </extensions>
      </trkpt>
      <trkpt lat="52.1647487394511699676513671875" lon="1.50039595551788806915283203125">
        <ele>-15</ele>
        <time>2025-09-06T11:26:49.000Z</time>
        <extensions>
          <ns3:TrackPointExtension>
            <ns3:hr>139</ns3:hr>
            <ns3:cad>80</ns3:cad>
          </ns3:TrackPointExtension>
        </extensions>
      </trkpt>
      <trkpt lat="52.164767682552337646484375" lon="1.5004835464060306549072265625">
        <ele>-16.200000762939453125</ele>
        <time>2025-09-06T11:26:52.000Z</time>
        <extensions>
          <ns3:TrackPointExtension>
            <ns3:hr>139</ns3:hr>
            <ns3:cad>79</ns3:cad>
          </ns3:TrackPointExtension>
        </extensions>
      </trkpt>
      <trkpt lat="52.16478134505450725555419921875" lon="1.50053878314793109893798828125">
        <ele>-16.799999237060546875</ele>
        <time>2025-09-06T11:26:54.000Z</time>
        <extensions>
          <ns3:TrackPointExtension>
            <ns3:hr>136</ns3:hr>
            <ns3:cad>79</ns3:cad>
          </ns3:TrackPointExtension>
        </extensions>
      </trkpt>
      <trkpt lat="52.1647896431386470794677734375" lon="1.50056761689484119415283203125">
        <ele>-17.200000762939453125</ele>
        <time>2025-09-06T11:26:55.000Z</time>
        <extensions>
          <ns3:TrackPointExtension>
            <ns3:hr>136</ns3:hr>
            <ns3:cad>79</ns3:cad>
          </ns3:TrackPointExtension>
        </extensions>
      </trkpt>
      <trkpt lat="52.16479777358472347259521484375" lon="1.500596702098846435546875">
        <ele>-17.6000003814697265625</ele>
        <time>2025-09-06T11:26:56.000Z</time>
        <extensions>
          <ns3:TrackPointExtension>
            <ns3:hr>136</ns3:hr>
            <ns3:cad>79</ns3:cad>
          </ns3:TrackPointExtension>
        </extensions>
      </trkpt>
      <trkpt lat="52.1648127771914005279541015625" lon="1.5006530284881591796875">
        <ele>-18.200000762939453125</ele>
        <time>2025-09-06T11:26:58.000Z</time>
        <extensions>
          <ns3:TrackPointExtension>
            <ns3:hr>138</ns3:hr>
            <ns3:cad>79</ns3:cad>
          </ns3:TrackPointExtension>
        </extensions>
      </trkpt>
      <trkpt lat="52.16483666561543941497802734375" lon="1.50077263824641704559326171875">
        <ele>-19.3999996185302734375</ele>
        <time>2025-09-06T11:27:02.000Z</time>
        <extensions>
          <ns3:TrackPointExtension>
            <ns3:hr>138</ns3:hr>
            <ns3:cad>78</ns3:cad>
          </ns3:TrackPointExtension>
        </extensions>
      </trkpt>
      <trkpt lat="52.16486047022044658660888671875" lon="1.50089199654757976531982421875">
        <ele>-20.799999237060546875</ele>
        <time>2025-09-06T11:27:06.000Z</time>
        <extensions>
          <ns3:TrackPointExtension>
            <ns3:hr>138</ns3:hr>
            <ns3:cad>78</ns3:cad>
          </ns3:TrackPointExtension>
        </extensions>
      </trkpt>
      <trkpt lat="52.16488368809223175048828125" lon="1.50100766681134700775146484375">
        <ele>-22</ele>
        <time>2025-09-06T11:27:10.000Z</time>
        <extensions>
          <ns3:TrackPointExtension>
            <ns3:hr>140</ns3:hr>
            <ns3:cad>79</ns3:cad>
          </ns3:TrackPointExtension>
        </extensions>
      </trkpt>
      <trkpt lat="52.16491277329623699188232421875" lon="1.50111964903771877288818359375">
        <ele>-23</ele>
        <time>2025-09-06T11:27:14.000Z</time>
        <extensions>
          <ns3:TrackPointExtension>
            <ns3:hr>140</ns3:hr>
            <ns3:cad>79</ns3:cad>
          </ns3:TrackPointExtension>
        </extensions>
      </trkpt>
      <trkpt lat="52.16492098756134510040283203125" lon="1.50114378891885280609130859375">
        <ele>-23.3999996185302734375</ele>
        <time>2025-09-06T11:27:15.000Z</time>
        <extensions>
          <ns3:TrackPointExtension>
            <ns3:hr>140</ns3:hr>
            <ns3:cad>79</ns3:cad>
          </ns3:TrackPointExtension>
        </extensions>
      </trkpt>
      <trkpt lat="52.16494445689022541046142578125" lon="1.5012010373175144195556640625">
        <ele>-24.200000762939453125</ele>
        <time>2025-09-06T11:27:18.000Z</time>
        <extensions>
          <ns3:TrackPointExtension>
            <ns3:hr>138</ns3:hr>
            <ns3:cad>77</ns3:cad>
          </ns3:TrackPointExtension>
        </extensions>
      </trkpt>
      <trkpt lat="52.16499139554798603057861328125" lon="1.5012838505208492279052734375">
        <ele>-25.200000762939453125</ele>
        <time>2025-09-06T11:27:22.000Z</time>
        <extensions>
          <ns3:TrackPointExtension>
            <ns3:hr>136</ns3:hr>
            <ns3:cad>76</ns3:cad>
          </ns3:TrackPointExtension>
        </extensions>
      </trkpt>
      <trkpt lat="52.16500212438404560089111328125" lon="1.5013089962303638458251953125">
        <ele>-25.3999996185302734375</ele>
        <time>2025-09-06T11:27:23.000Z</time>
        <extensions>
          <ns3:TrackPointExtension>
            <ns3:hr>136</ns3:hr>
            <ns3:cad>77</ns3:cad>
          </ns3:TrackPointExtension>
        </extensions>
      </trkpt>
      <trkpt lat="52.16504906304180622100830078125" lon="1.50141410529613494873046875">
        <ele>-26.3999996185302734375</ele>
        <time>2025-09-06T11:27:27.000Z</time>
        <extensions>
          <ns3:TrackPointExtension>
            <ns3:hr>138</ns3:hr>
            <ns3:cad>78</ns3:cad>
          </ns3:TrackPointExtension>
        </extensions>
      </trkpt>
      <trkpt lat="52.165086530148983001708984375" lon="1.50152851827442646026611328125">
        <ele>-27.3999996185302734375</ele>
        <time>2025-09-06T11:27:31.000Z</time>
        <extensions>
          <ns3:TrackPointExtension>
            <ns3:hr>139</ns3:hr>
            <ns3:cad>79</ns3:cad>
          </ns3:TrackPointExtension>
        </extensions>
      </trkpt>
      <trkpt lat="52.1650903858244419097900390625" lon="1.501557938754558563232421875">
        <ele>-27.6000003814697265625</ele>
        <time>2025-09-06T11:27:32.000Z</time>
        <extensions>
          <ns3:TrackPointExtension>
            <ns3:hr>140</ns3:hr>
            <ns3:cad>79</ns3:cad>
          </ns3:TrackPointExtension>
        </extensions>
      </trkpt>
      <trkpt lat="52.16509751044213771820068359375" lon="1.50165022350847721099853515625">
        <ele>-28.3999996185302734375</ele>
        <time>2025-09-06T11:27:35.000Z</time>
        <extensions>
          <ns3:TrackPointExtension>
            <ns3:hr>143</ns3:hr>
            <ns3:cad>79</ns3:cad>
          </ns3:TrackPointExtension>
        </extensions>
      </trkpt>
      <trkpt lat="52.1650991030037403106689453125" lon="1.5017165243625640869140625">
        <ele>-28.799999237060546875</ele>
        <time>2025-09-06T11:27:37.000Z</time>
        <extensions>
          <ns3:TrackPointExtension>
            <ns3:hr>144</ns3:hr>
            <ns3:cad>79</ns3:cad>
          </ns3:TrackPointExtension>
        </extensions>
      </trkpt>
      <trkpt lat="52.16509960591793060302734375" lon="1.50178232230246067047119140625">
        <ele>-29.200000762939453125</ele>
        <time>2025-09-06T11:27:39.000Z</time>
        <extensions>
          <ns3:TrackPointExtension>
            <ns3:hr>143</ns3:hr>
            <ns3:cad>79</ns3:cad>
          </ns3:TrackPointExtension>
        </extensions>
      </trkpt>
      <trkpt lat="52.16509298421442508697509765625" lon="1.50188005529344081878662109375">
        <ele>-29.799999237060546875</ele>
        <time>2025-09-06T11:27:42.000Z</time>
        <extensions>
          <ns3:TrackPointExtension>
            <ns3:hr>144</ns3:hr>
            <ns3:cad>80</ns3:cad>
          </ns3:TrackPointExtension>
        </extensions>
      </trkpt>
      <trkpt lat="52.16504889540374279022216796875" lon="1.50203461758792400360107421875">
        <ele>-30.799999237060546875</ele>
        <time>2025-09-06T11:27:47.000Z</time>
        <extensions>
          <ns3:TrackPointExtension>
            <ns3:hr>144</ns3:hr>
            <ns3:cad>79</ns3:cad>
          </ns3:TrackPointExtension>
        </extensions>
      </trkpt>
      <trkpt lat="52.1650283597409725189208984375" lon="1.50209798477590084075927734375">
        <ele>-31.200000762939453125</ele>
        <time>2025-09-06T11:27:49.000Z</time>
        <extensions>
          <ns3:TrackPointExtension>
            <ns3:hr>141</ns3:hr>
            <ns3:cad>79</ns3:cad>
          </ns3:TrackPointExtension>
        </extensions>
      </trkpt>
      <trkpt lat="52.1649804152548313140869140625" lon="1.5022105537354946136474609375">
        <ele>-32</ele>
        <time>2025-09-06T11:27:53.000Z</time>
        <extensions>
          <ns3:TrackPointExtension>
            <ns3:hr>142</ns3:hr>
            <ns3:cad>78</ns3:cad>
          </ns3:TrackPointExtension>
        </extensions>
      </trkpt>
      <trkpt lat="52.16494060121476650238037109375" lon="1.50228037498891353607177734375">
        <ele>-32.59999847412109375</ele>
        <time>2025-09-06T11:27:56.000Z</time>
        <extensions>
          <ns3:TrackPointExtension>
            <ns3:hr>143</ns3:hr>
            <ns3:cad>78</ns3:cad>
          </ns3:TrackPointExtension>
        </extensions>
      </trkpt>
      <trkpt lat="52.16490874998271465301513671875" lon="1.5023523755371570587158203125">
        <ele>-33</ele>
        <time>2025-09-06T11:27:59.000Z</time>
        <extensions>
          <ns3:TrackPointExtension>
            <ns3:hr>144</ns3:hr>
            <ns3:cad>77</ns3:cad>
          </ns3:TrackPointExtension>
        </extensions>
      </trkpt>
      <trkpt lat="52.1648848615586757659912109375" lon="1.50243602693080902099609375">
        <ele>-33.799999237060546875</ele>
        <time>2025-09-06T11:28:03.000Z</time>
        <extensions>
          <ns3:TrackPointExtension>
            <ns3:hr>142</ns3:hr>
            <ns3:cad>77</ns3:cad>
          </ns3:TrackPointExtension>
        </extensions>
      </trkpt>
      <trkpt lat="52.16486784629523754119873046875" lon="1.50248170830309391021728515625">
        <ele>-34</ele>
        <time>2025-09-06T11:28:05.000Z</time>
        <extensions>
          <ns3:TrackPointExtension>
            <ns3:hr>142</ns3:hr>
            <ns3:cad>0</ns3:cad>
          </ns3:TrackPointExtension>
        </extensions>
      </trkpt>
      <trkpt lat="52.16482325457036495208740234375" lon="1.5026138909161090850830078125">
        <ele>-34.799999237060546875</ele>
        <time>2025-09-06T11:28:10.000Z</time>
        <extensions>
          <ns3:TrackPointExtension>
            <ns3:hr>140</ns3:hr>
            <ns3:cad>0</ns3:cad>
          </ns3:TrackPointExtension>
        </extensions>
      </trkpt>
      <trkpt lat="52.1647919900715351104736328125" lon="1.50266476906836032867431640625">
        <ele>-35.200000762939453125</ele>
        <time>2025-09-06T11:28:12.000Z</time>
        <extensions>
          <ns3:TrackPointExtension>
            <ns3:hr>141</ns3:hr>
            <ns3:cad>0</ns3:cad>
          </ns3:TrackPointExtension>
        </extensions>
      </trkpt>
      <trkpt lat="52.16470339335501194000244140625" lon="1.50274305604398250579833984375">
        <ele>-36</ele>
        <time>2025-09-06T11:28:17.000Z</time>
        <extensions>
          <ns3:TrackPointExtension>
            <ns3:hr>139</ns3:hr>
            <ns3:cad>78</ns3:cad>
          </ns3:TrackPointExtension>
        </extensions>
      </trkpt>
      <trkpt lat="52.16466533951461315155029296875" lon="1.50277004577219486236572265625">
        <ele>-36.200000762939453125</ele>
        <time>2025-09-06T11:28:19.000Z</time>
        <extensions>
          <ns3:TrackPointExtension>
            <ns3:hr>138</ns3:hr>
            <ns3:cad>79</ns3:cad>
          </ns3:TrackPointExtension>
        </extensions>
      </trkpt>
      <trkpt lat="52.164548076689243316650390625" lon="1.50283274240791797637939453125">
        <ele>-37</ele>
        <time>2025-09-06T11:28:25.000Z</time>
        <extensions>
          <ns3:TrackPointExtension>
            <ns3:hr>142</ns3:hr>
            <ns3:cad>78</ns3:cad>
          </ns3:TrackPointExtension>
        </extensions>
      </trkpt>
      <trkpt lat="52.1645049937069416046142578125" lon="1.50285755284130573272705078125">
        <ele>-37.200000762939453125</ele>
        <time>2025-09-06T11:28:27.000Z</time>
        <extensions>
          <ns3:TrackPointExtension>
            <ns3:hr>140</ns3:hr>
            <ns3:cad>78</ns3:cad>
          </ns3:TrackPointExtension>
        </extensions>
      </trkpt>
      <trkpt lat="52.164442129433155059814453125" lon="1.50289644487202167510986328125">
        <ele>-37.59999847412109375</ele>
        <time>2025-09-06T11:28:30.000Z</time>
        <extensions>
          <ns3:TrackPointExtension>
            <ns3:hr>143</ns3:hr>
            <ns3:cad>79</ns3:cad>
          </ns3:TrackPointExtension>
        </extensions>
      </trkpt>
      <trkpt lat="52.16431514360010623931884765625" lon="1.50297892279922962188720703125">
        <ele>-38.40000152587890625</ele>
        <time>2025-09-06T11:28:36.000Z</time>
        <extensions>
          <ns3:TrackPointExtension>
            <ns3:hr>145</ns3:hr>
            <ns3:cad>79</ns3:cad>
          </ns3:TrackPointExtension>
        </extensions>
      </trkpt>
      <trkpt lat="52.16427038423717021942138671875" lon="1.5030061639845371246337890625">
        <ele>-38.59999847412109375</ele>
        <time>2025-09-06T11:28:38.000Z</time>
        <extensions>
          <ns3:TrackPointExtension>
            <ns3:hr>142</ns3:hr>
            <ns3:cad>78</ns3:cad>
          </ns3:TrackPointExtension>
        </extensions>
      </trkpt>
      <trkpt lat="52.16420500539243221282958984375" lon="1.5030443854629993438720703125">
        <ele>-39</ele>
        <time>2025-09-06T11:28:41.000Z</time>
        <extensions>
          <ns3:TrackPointExtension>
            <ns3:hr>145</ns3:hr>
            <ns3:cad>79</ns3:cad>
          </ns3:TrackPointExtension>
        </extensions>
      </trkpt>
      <trkpt lat="52.1641440689563751220703125" lon="1.503068692982196807861328125">
        <ele>-39.200000762939453125</ele>
        <time>2025-09-06T11:28:44.000Z</time>
        <extensions>
          <ns3:TrackPointExtension>
            <ns3:hr>146</ns3:hr>
            <ns3:cad>80</ns3:cad>
          </ns3:TrackPointExtension>
        </extensions>
      </trkpt>
      <trkpt lat="52.16410341672599315643310546875" lon="1.50308101437985897064208984375">
        <ele>-39.40000152587890625</ele>
        <time>2025-09-06T11:28:46.000Z</time>
        <extensions>
          <ns3:TrackPointExtension>
            <ns3:hr>148</ns3:hr>
            <ns3:cad>80</ns3:cad>
          </ns3:TrackPointExtension>
        </extensions>
      </trkpt>
      <trkpt lat="52.1640426479279994964599609375" lon="1.5031005442142486572265625">
        <ele>-39.799999237060546875</ele>
        <time>2025-09-06T11:28:49.000Z</time>
        <extensions>
          <ns3:TrackPointExtension>
            <ns3:hr>144</ns3:hr>
            <ns3:cad>80</ns3:cad>
          </ns3:TrackPointExtension>
        </extensions>
      </trkpt>
      <trkpt lat="52.16402211226522922515869140625" lon="1.50310548953711986541748046875">
        <ele>-39.799999237060546875</ele>
        <time>2025-09-06T11:28:50.000Z</time>
        <extensions>
          <ns3:TrackPointExtension>
            <ns3:hr>144</ns3:hr>
            <ns3:cad>80</ns3:cad>
          </ns3:TrackPointExtension>
        </extensions>
      </trkpt>
      <trkpt lat="52.16394223272800445556640625" lon="1.5031131170690059661865234375">
        <ele>-40.200000762939453125</ele>
        <time>2025-09-06T11:28:54.000Z</time>
        <extensions>
          <ns3:TrackPointExtension>
            <ns3:hr>142</ns3:hr>
            <ns3:cad>80</ns3:cad>
          </ns3:TrackPointExtension>
        </extensions>
      </trkpt>
      <trkpt lat="52.16388096101582050323486328125" lon="1.5031436271965503692626953125">
        <ele>-40.40000152587890625</ele>
        <time>2025-09-06T11:28:57.000Z</time>
        <extensions>
          <ns3:TrackPointExtension>
            <ns3:hr>144</ns3:hr>
            <ns3:cad>80</ns3:cad>
          </ns3:TrackPointExtension>
        </extensions>
      </trkpt>
      <trkpt lat="52.1638354472815990447998046875" lon="1.503216885030269622802734375">
        <ele>-40.799999237060546875</ele>
        <time>2025-09-06T11:29:00.000Z</time>
        <extensions>
          <ns3:TrackPointExtension>
            <ns3:hr>144</ns3:hr>
            <ns3:cad>79</ns3:cad>
          </ns3:TrackPointExtension>
        </extensions>
      </trkpt>
      <trkpt lat="52.16383905149996280670166015625" lon="1.50322434492409229278564453125">
        <ele>-41</ele>
        <time>2025-09-06T11:29:02.000Z</time>
        <extensions>
          <ns3:TrackPointExtension>
            <ns3:hr>141</ns3:hr>
            <ns3:cad>79</ns3:cad>
          </ns3:TrackPointExtension>
        </extensions>
      </trkpt>
      <trkpt lat="52.1638565696775913238525390625" lon="1.50325401686131954193115234375">
        <ele>-41</ele>
        <time>2025-09-06T11:29:04.000Z</time>
        <extensions>
          <ns3:TrackPointExtension>
            <ns3:hr>144</ns3:hr>
            <ns3:cad>78</ns3:cad>
          </ns3:TrackPointExtension>
        </extensions>
      </trkpt>
      <trkpt lat="52.16386855579912662506103515625" lon="1.50326960720121860504150390625">
        <ele>-41.200000762939453125</ele>
        <time>2025-09-06T11:29:05.000Z</time>
        <extensions>
          <ns3:TrackPointExtension>
            <ns3:hr>145</ns3:hr>
            <ns3:cad>78</ns3:cad>
          </ns3:TrackPointExtension>
        </extensions>
      </trkpt>
      <trkpt lat="52.1639102138578891754150390625" lon="1.503379829227924346923828125">
        <ele>-41.59999847412109375</ele>
        <time>2025-09-06T11:29:10.000Z</time>
        <extensions>
          <ns3:TrackPointExtension>
            <ns3:hr>145</ns3:hr>
            <ns3:cad>79</ns3:cad>
          </ns3:TrackPointExtension>
        </extensions>
      </trkpt>
      <trkpt lat="52.16393913142383098602294921875" lon="1.50345568545162677764892578125">
        <ele>-41.799999237060546875</ele>
        <time>2025-09-06T11:29:13.000Z</time>
        <extensions>
          <ns3:TrackPointExtension>
            <ns3:hr>145</ns3:hr>
            <ns3:cad>79</ns3:cad>
          </ns3:TrackPointExtension>
        </extensions>
      </trkpt>
      <trkpt lat="52.164012975990772247314453125" lon="1.50364561937749385833740234375">
        <ele>-42.200000762939453125</ele>
        <time>2025-09-06T11:29:21.000Z</time>
        <extensions>
          <ns3:TrackPointExtension>
            <ns3:hr>146</ns3:hr>
            <ns3:cad>79</ns3:cad>
          </ns3:TrackPointExtension>
        </extensions>
      </trkpt>
      <trkpt lat="52.1640734933316707611083984375" lon="1.503788866102695465087890625">
        <ele>-42.59999847412109375</ele>
        <time>2025-09-06T11:29:27.000Z</time>
        <extensions>
          <ns3:TrackPointExtension>
            <ns3:hr>143</ns3:hr>
            <ns3:cad>78</ns3:cad>
          </ns3:TrackPointExtension>
        </extensions>
      </trkpt>
      <trkpt lat="52.16409520246088504791259765625" lon="1.503841169178485870361328125">
        <ele>-42.59999847412109375</ele>
        <time>2025-09-06T11:29:29.000Z</time>
        <extensions>
          <ns3:TrackPointExtension>
            <ns3:hr>143</ns3:hr>
            <ns3:cad>78</ns3:cad>
          </ns3:TrackPointExtension>
        </extensions>
      </trkpt>
      <trkpt lat="52.16413560323417186737060546875" lon="1.50393378920853137969970703125">
        <ele>-43</ele>
        <time>2025-09-06T11:29:36.000Z</time>
        <extensions>
          <ns3:TrackPointExtension>
            <ns3:hr>144</ns3:hr>
            <ns3:cad>0</ns3:cad>
          </ns3:TrackPointExtension>
        </extensions>
      </trkpt>
      <trkpt lat="52.16413862071931362152099609375" lon="1.50393546558916568756103515625">
        <ele>-43.200000762939453125</ele>
        <time>2025-09-06T11:29:40.000Z</time>
        <extensions>
          <ns3:TrackPointExtension>
            <ns3:hr>147</ns3:hr>
            <ns3:cad>0</ns3:cad>
          </ns3:TrackPointExtension>
        </extensions>
      </trkpt>
      <trkpt lat="52.1641905046999454498291015625" lon="1.5040106512606143951416015625">
        <ele>-43.59999847412109375</ele>
        <time>2025-09-06T11:29:49.000Z</time>
        <extensions>
          <ns3:TrackPointExtension>
            <ns3:hr>149</ns3:hr>
            <ns3:cad>0</ns3:cad>
          </ns3:TrackPointExtension>
        </extensions>
      </trkpt>
      <trkpt lat="52.16430944390594959259033203125" lon="1.504193879663944244384765625">
        <ele>-44</ele>
        <time>2025-09-06T11:29:59.000Z</time>
        <extensions>
          <ns3:TrackPointExtension>
            <ns3:hr>146</ns3:hr>
            <ns3:cad>60</ns3:cad>
          </ns3:TrackPointExtension>
        </extensions>
      </trkpt>
      <trkpt lat="52.16434313915669918060302734375" lon="1.5043745934963226318359375">
        <ele>-44.200000762939453125</ele>
        <time>2025-09-06T11:30:06.000Z</time>
        <extensions>
          <ns3:TrackPointExtension>
            <ns3:hr>145</ns3:hr>
            <ns3:cad>60</ns3:cad>
          </ns3:TrackPointExtension>
        </extensions>
      </trkpt>
      <trkpt lat="52.1643641777336597442626953125" lon="1.504488922655582427978515625">
        <ele>-44.200000762939453125</ele>
        <time>2025-09-06T11:30:10.000Z</time>
        <extensions>
          <ns3:TrackPointExtension>
            <ns3:hr>141</ns3:hr>
            <ns3:cad>75</ns3:cad>
          </ns3:TrackPointExtension>
        </extensions>
      </trkpt>
      <trkpt lat="52.164376080036163330078125" lon="1.504586823284626007080078125">
        <ele>-44.40000152587890625</ele>
        <time>2025-09-06T11:30:13.000Z</time>
        <extensions>
          <ns3:TrackPointExtension>
            <ns3:hr>142</ns3:hr>
            <ns3:cad>75</ns3:cad>
          </ns3:TrackPointExtension>
        </extensions>
      </trkpt>
      <trkpt lat="52.16439175419509410858154296875" lon="1.5047174133360385894775390625">
        <ele>-44.40000152587890625</ele>
        <time>2025-09-06T11:30:17.000Z</time>
        <extensions>
          <ns3:TrackPointExtension>
            <ns3:hr>137</ns3:hr>
            <ns3:cad>77</ns3:cad>
          </ns3:TrackPointExtension>
        </extensions>
      </trkpt>
      <trkpt lat="52.16441220603883266448974609375" lon="1.50489100255072116851806640625">
        <ele>-44.59999847412109375</ele>
        <time>2025-09-06T11:30:22.000Z</time>
        <extensions>
          <ns3:TrackPointExtension>
            <ns3:hr>140</ns3:hr>
            <ns3:cad>78</ns3:cad>
          </ns3:TrackPointExtension>
        </extensions>
      </trkpt>
      <trkpt lat="52.16441656462848186492919921875" lon="1.50492670945823192596435546875">
        <ele>-44.59999847412109375</ele>
        <time>2025-09-06T11:30:23.000Z</time>
        <extensions>
          <ns3:TrackPointExtension>
            <ns3:hr>141</ns3:hr>
            <ns3:cad>78</ns3:cad>
          </ns3:TrackPointExtension>
        </extensions>
      </trkpt>
      <trkpt lat="52.16442637145519256591796875" lon="1.5049933455884456634521484375">
        <ele>-44.59999847412109375</ele>
        <time>2025-09-06T11:30:25.000Z</time>
        <extensions>
          <ns3:TrackPointExtension>
            <ns3:hr>144</ns3:hr>
            <ns3:cad>79</ns3:cad>
          </ns3:TrackPointExtension>
        </extensions>
      </trkpt>
      <trkpt lat="52.16444305144250392913818359375" lon="1.50509920902550220489501953125">
        <ele>-44.59999847412109375</ele>
        <time>2025-09-06T11:30:28.000Z</time>
        <extensions>
          <ns3:TrackPointExtension>
            <ns3:hr>146</ns3:hr>
            <ns3:cad>80</ns3:cad>
          </ns3:TrackPointExtension>
        </extensions>
      </trkpt>
      <trkpt lat="52.164441458880901336669921875" lon="1.5051926672458648681640625">
        <ele>-44.59999847412109375</ele>
        <time>2025-09-06T11:30:31.000Z</time>
        <extensions>
          <ns3:TrackPointExtension>
            <ns3:hr>146</ns3:hr>
            <ns3:cad>79</ns3:cad>
          </ns3:TrackPointExtension>
        </extensions>
      </trkpt>
      <trkpt lat="52.16445797123014926910400390625" lon="1.5053765662014484405517578125">
        <ele>-44.799999237060546875</ele>
        <time>2025-09-06T11:30:37.000Z</time>
        <extensions>
          <ns3:TrackPointExtension>
            <ns3:hr>150</ns3:hr>
            <ns3:cad>80</ns3:cad>
          </ns3:TrackPointExtension>
        </extensions>
      </trkpt>
      <trkpt lat="52.16446149162948131561279296875" lon="1.5054090879857540130615234375">
        <ele>-44.799999237060546875</ele>
        <time>2025-09-06T11:30:38.000Z</time>
        <extensions>
          <ns3:TrackPointExtension>
            <ns3:hr>150</ns3:hr>
            <ns3:cad>80</ns3:cad>
          </ns3:TrackPointExtension>
        </extensions>
      </trkpt>
      <trkpt lat="52.1644620783627033233642578125" lon="1.50544152595102787017822265625">
        <ele>-44.799999237060546875</ele>
        <time>2025-09-06T11:30:39.000Z</time>
        <extensions>
          <ns3:TrackPointExtension>
            <ns3:hr>145</ns3:hr>
            <ns3:cad>80</ns3:cad>
          </ns3:TrackPointExtension>
        </extensions>
      </trkpt>
      <trkpt lat="52.1644828654825687408447265625" lon="1.5057094953954219818115234375">
        <ele>-44.799999237060546875</ele>
        <time>2025-09-06T11:30:47.000Z</time>
        <extensions>
          <ns3:TrackPointExtension>
            <ns3:hr>146</ns3:hr>
            <ns3:cad>81</ns3:cad>
          </ns3:TrackPointExtension>
        </extensions>
      </trkpt>
      <trkpt lat="52.16450055129826068878173828125" lon="1.50590588338673114776611328125">
        <ele>-44.799999237060546875</ele>
        <time>2025-09-06T11:30:53.000Z</time>
        <extensions>
          <ns3:TrackPointExtension>
            <ns3:hr>143</ns3:hr>
            <ns3:cad>79</ns3:cad>
          </ns3:TrackPointExtension>
        </extensions>
      </trkpt>
      <trkpt lat="52.164503149688243865966796875" lon="1.50593723170459270477294921875">
        <ele>-45</ele>
        <time>2025-09-06T11:30:54.000Z</time>
        <extensions>
          <ns3:TrackPointExtension>
            <ns3:hr>143</ns3:hr>
            <ns3:cad>79</ns3:cad>
          </ns3:TrackPointExtension>
        </extensions>
      </trkpt>
      <trkpt lat="52.1645207516849040985107421875" lon="1.50613554753363132476806640625">
        <ele>-45</ele>
        <time>2025-09-06T11:31:01.000Z</time>
        <extensions>
          <ns3:TrackPointExtension>
            <ns3:hr>141</ns3:hr>
            <ns3:cad>79</ns3:cad>
          </ns3:TrackPointExtension>
        </extensions>
      </trkpt>
      <trkpt lat="52.1645271219313144683837890625" lon="1.50633587501943111419677734375">
        <ele>-45</ele>
        <time>2025-09-06T11:31:10.000Z</time>
        <extensions>
          <ns3:TrackPointExtension>
            <ns3:hr>141</ns3:hr>
            <ns3:cad>0</ns3:cad>
          </ns3:TrackPointExtension>
        </extensions>
      </trkpt>
      <trkpt lat="52.164518572390079498291015625" lon="1.5063666366040706634521484375">
        <ele>-45</ele>
        <time>2025-09-06T11:31:14.000Z</time>
        <extensions>
          <ns3:TrackPointExtension>
            <ns3:hr>144</ns3:hr>
            <ns3:cad>0</ns3:cad>
          </ns3:TrackPointExtension>
        </extensions>
      </trkpt>
      <trkpt lat="52.1645200811326503753662109375" lon="1.50636822916567325592041015625">
        <ele>-45</ele>
        <time>2025-09-06T11:31:15.000Z</time>
        <extensions>
          <ns3:TrackPointExtension>
            <ns3:hr>144</ns3:hr>
            <ns3:cad>0</ns3:cad>
          </ns3:TrackPointExtension>
        </extensions>
      </trkpt>
      <trkpt lat="52.16450423933565616607666015625" lon="1.50652077980339527130126953125">
        <ele>-45</ele>
        <time>2025-09-06T11:31:22.000Z</time>
        <extensions>
          <ns3:TrackPointExtension>
            <ns3:hr>142</ns3:hr>
            <ns3:cad>0</ns3:cad>
          </ns3:TrackPointExtension>
        </extensions>
      </trkpt>
      <trkpt lat="52.1644959412515163421630859375" lon="1.5066543035209178924560546875">
        <ele>-45</ele>
        <time>2025-09-06T11:31:26.000Z</time>
        <extensions>
          <ns3:TrackPointExtension>
            <ns3:hr>139</ns3:hr>
            <ns3:cad>79</ns3:cad>
          </ns3:TrackPointExtension>
        </extensions>
      </trkpt>
      <trkpt lat="52.16449384577572345733642578125" lon="1.50675698183476924896240234375">
        <ele>-45</ele>
        <time>2025-09-06T11:31:29.000Z</time>
        <extensions>
          <ns3:TrackPointExtension>
            <ns3:hr>140</ns3:hr>
            <ns3:cad>78</ns3:cad>
          </ns3:TrackPointExtension>
        </extensions>
      </trkpt>
      <trkpt lat="52.16448613442480564117431640625" lon="1.5068591572344303131103515625">
        <ele>-45</ele>
        <time>2025-09-06T11:31:32.000Z</time>
        <extensions>
          <ns3:TrackPointExtension>
            <ns3:hr>143</ns3:hr>
            <ns3:cad>79</ns3:cad>
          </ns3:TrackPointExtension>
        </extensions>
      </trkpt>
      <trkpt lat="52.1644661016762256622314453125" lon="1.5070308186113834381103515625">
        <ele>-45</ele>
        <time>2025-09-06T11:31:37.000Z</time>
        <extensions>
          <ns3:TrackPointExtension>
            <ns3:hr>146</ns3:hr>
            <ns3:cad>79</ns3:cad>
          </ns3:TrackPointExtension>
        </extensions>
      </trkpt>
      <trkpt lat="52.1644402854144573211669921875" lon="1.5072440542280673980712890625">
        <ele>-45</ele>
        <time>2025-09-06T11:31:44.000Z</time>
        <extensions>
          <ns3:TrackPointExtension>
            <ns3:hr>149</ns3:hr>
            <ns3:cad>80</ns3:cad>
          </ns3:TrackPointExtension>
        </extensions>
      </trkpt>
      <trkpt lat="52.16443416662514209747314453125" lon="1.5073040686547756195068359375">
        <ele>-45</ele>
        <time>2025-09-06T11:31:46.000Z</time>
        <extensions>
          <ns3:TrackPointExtension>
            <ns3:hr>149</ns3:hr>
            <ns3:cad>80</ns3:cad>
          </ns3:TrackPointExtension>
        </extensions>
      </trkpt>
      <trkpt lat="52.16443064622581005096435546875" lon="1.50752258487045764923095703125">
        <ele>-45</ele>
        <time>2025-09-06T11:31:53.000Z</time>
        <extensions>
          <ns3:TrackPointExtension>
            <ns3:hr>149</ns3:hr>
            <ns3:cad>79</ns3:cad>
          </ns3:TrackPointExtension>
        </extensions>
      </trkpt>
      <trkpt lat="52.16440985910594463348388671875" lon="1.5077617205679416656494140625">
        <ele>-45</ele>
        <time>2025-09-06T11:32:00.000Z</time>
        <extensions>
          <ns3:TrackPointExtension>
            <ns3:hr>152</ns3:hr>
            <ns3:cad>80</ns3:cad>
          </ns3:TrackPointExtension>
        </extensions>
      </trkpt>
      <trkpt lat="52.16440684162080287933349609375" lon="1.50779767893254756927490234375">
        <ele>-45</ele>
        <time>2025-09-06T11:32:01.000Z</time>
        <extensions>
          <ns3:TrackPointExtension>
            <ns3:hr>151</ns3:hr>
            <ns3:cad>80</ns3:cad>
          </ns3:TrackPointExtension>
        </extensions>
      </trkpt>
      <trkpt lat="52.164387144148349761962890625" lon="1.508057601749897003173828125">
        <ele>-45</ele>
        <time>2025-09-06T11:32:09.000Z</time>
        <extensions>
          <ns3:TrackPointExtension>
            <ns3:hr>146</ns3:hr>
            <ns3:cad>79</ns3:cad>
          </ns3:TrackPointExtension>
        </extensions>
      </trkpt>
      <trkpt lat="52.16434414498507976531982421875" lon="1.50835406966507434844970703125">
        <ele>-45</ele>
        <time>2025-09-06T11:32:19.000Z</time>
        <extensions>
          <ns3:TrackPointExtension>
            <ns3:hr>147</ns3:hr>
            <ns3:cad>80</ns3:cad>
          </ns3:TrackPointExtension>
        </extensions>
      </trkpt>
      <trkpt lat="52.1643105335533618927001953125" lon="1.5086548961699008941650390625">
        <ele>-45</ele>
        <time>2025-09-06T11:32:28.000Z</time>
        <extensions>
          <ns3:TrackPointExtension>
            <ns3:hr>145</ns3:hr>
            <ns3:cad>78</ns3:cad>
          </ns3:TrackPointExtension>
        </extensions>
      </trkpt>
      <trkpt lat="52.1642937697470188140869140625" lon="1.50887592695653438568115234375">
        <ele>-44.799999237060546875</ele>
        <time>2025-09-06T11:32:35.000Z</time>
        <extensions>
          <ns3:TrackPointExtension>
            <ns3:hr>147</ns3:hr>
            <ns3:cad>79</ns3:cad>
          </ns3:TrackPointExtension>
        </extensions>
      </trkpt>
      <trkpt lat="52.1642800234258174896240234375" lon="1.50909167714416980743408203125">
        <ele>-44.799999237060546875</ele>
        <time>2025-09-06T11:32:42.000Z</time>
        <extensions>
          <ns3:TrackPointExtension>
            <ns3:hr>148</ns3:hr>
            <ns3:cad>79</ns3:cad>
          </ns3:TrackPointExtension>
        </extensions>
      </trkpt>
      <trkpt lat="52.16427507810294628143310546875" lon="1.50925420224666595458984375">
        <ele>-44.799999237060546875</ele>
        <time>2025-09-06T11:32:47.000Z</time>
        <extensions>
          <ns3:TrackPointExtension>
            <ns3:hr>144</ns3:hr>
            <ns3:cad>79</ns3:cad>
          </ns3:TrackPointExtension>
        </extensions>
      </trkpt>
      <trkpt lat="52.16427004896104335784912109375" lon="1.509379260241985321044921875">
        <ele>-44.799999237060546875</ele>
        <time>2025-09-06T11:32:51.000Z</time>
        <extensions>
          <ns3:TrackPointExtension>
            <ns3:hr>146</ns3:hr>
            <ns3:cad>79</ns3:cad>
          </ns3:TrackPointExtension>
        </extensions>
      </trkpt>
      <trkpt lat="52.1642736531794071197509765625" lon="1.50955150835216045379638671875">
        <ele>-44.59999847412109375</ele>
        <time>2025-09-06T11:33:00.000Z</time>
        <extensions>
          <ns3:TrackPointExtension>
            <ns3:hr>144</ns3:hr>
            <ns3:cad>77</ns3:cad>
          </ns3:TrackPointExtension>
        </extensions>
      </trkpt>
      <trkpt lat="52.16429360210895538330078125" lon="1.50960096158087253570556640625">
        <ele>-44.40000152587890625</ele>
        <time>2025-09-06T11:33:07.000Z</time>
        <extensions>
          <ns3:TrackPointExtension>
            <ns3:hr>144</ns3:hr>
            <ns3:cad>0</ns3:cad>
          </ns3:TrackPointExtension>
        </extensions>
      </trkpt>
      <trkpt lat="52.16429720632731914520263671875" lon="1.50960364378988742828369140625">
        <ele>-44.40000152587890625</ele>
        <time>2025-09-06T11:33:09.000Z</time>
        <extensions>
          <ns3:TrackPointExtension>
            <ns3:hr>147</ns3:hr>
            <ns3:cad>0</ns3:cad>
          </ns3:TrackPointExtension>
        </extensions>
      </trkpt>
      <trkpt lat="52.164306007325649261474609375" lon="1.5096268616616725921630859375">
        <ele>-44.40000152587890625</ele>
        <time>2025-09-06T11:33:11.000Z</time>
        <extensions>
          <ns3:TrackPointExtension>
            <ns3:hr>143</ns3:hr>
            <ns3:cad>0</ns3:cad>
          </ns3:TrackPointExtension>
        </extensions>
      </trkpt>
      <trkpt lat="52.16430475004017353057861328125" lon="1.50971663184463977813720703125">
        <ele>-44.200000762939453125</ele>
        <time>2025-09-06T11:33:15.000Z</time>
        <extensions>
          <ns3:TrackPointExtension>
            <ns3:hr>143</ns3:hr>
            <ns3:cad>67</ns3:cad>
          </ns3:TrackPointExtension>
        </extensions>
      </trkpt>
      <trkpt lat="52.16431531123816967010498046875" lon="1.50975870899856090545654296875">
        <ele>-44.200000762939453125</ele>
        <time>2025-09-06T11:33:18.000Z</time>
        <extensions>
          <ns3:TrackPointExtension>
            <ns3:hr>140</ns3:hr>
            <ns3:cad>67</ns3:cad>
          </ns3:TrackPointExtension>
        </extensions>
      </trkpt>
      <trkpt lat="52.16432553716003894805908203125" lon="1.509769521653652191162109375">
        <ele>-44</ele>
        <time>2025-09-06T11:33:21.000Z</time>
        <extensions>
          <ns3:TrackPointExtension>
            <ns3:hr>137</ns3:hr>
            <ns3:cad>84</ns3:cad>
          </ns3:TrackPointExtension>
        </extensions>
      </trkpt>
      <trkpt lat="52.164311707019805908203125" lon="1.50980413891375064849853515625">
        <ele>-43.59999847412109375</ele>
        <time>2025-09-06T11:33:29.000Z</time>
        <extensions>
          <ns3:TrackPointExtension>
            <ns3:hr>135</ns3:hr>
            <ns3:cad>0</ns3:cad>
          </ns3:TrackPointExtension>
        </extensions>
      </trkpt>
      <trkpt lat="52.16429452411830425262451171875" lon="1.509817130863666534423828125">
        <ele>-43.59999847412109375</ele>
        <time>2025-09-06T11:33:31.000Z</time>
        <extensions>
          <ns3:TrackPointExtension>
            <ns3:hr>135</ns3:hr>
            <ns3:cad>0</ns3:cad>
          </ns3:TrackPointExtension>
        </extensions>
      </trkpt>
      <trkpt lat="52.16428957879543304443359375" lon="1.50984839536249637603759765625">
        <ele>-43.40000152587890625</ele>
        <time>2025-09-06T11:33:36.000Z</time>
        <extensions>
          <ns3:TrackPointExtension>
            <ns3:hr>135</ns3:hr>
            <ns3:cad>0</ns3:cad>
          </ns3:TrackPointExtension>
        </extensions>
      </trkpt>
      <trkpt lat="52.16429821215569972991943359375" lon="1.50986717082560062408447265625">
        <ele>-43</ele>
        <time>2025-09-06T11:33:47.000Z</time>
        <extensions>
          <ns3:TrackPointExtension>
            <ns3:hr>133</ns3:hr>
            <ns3:cad>60</ns3:cad>
          </ns3:TrackPointExtension>
        </extensions>
      </trkpt>
      <trkpt lat="52.1642850525677204132080078125" lon="1.50985241867601871490478515625">
        <ele>-43</ele>
        <time>2025-09-06T11:33:50.000Z</time>
        <extensions>
          <ns3:TrackPointExtension>
            <ns3:hr>130</ns3:hr>
            <ns3:cad>60</ns3:cad>
          </ns3:TrackPointExtension>
        </extensions>
      </trkpt>
      <trkpt lat="52.16427893377840518951416015625" lon="1.50985141284763813018798828125">
        <ele>-42.799999237060546875</ele>
        <time>2025-09-06T11:33:56.000Z</time>
        <extensions>
          <ns3:TrackPointExtension>
            <ns3:hr>129</ns3:hr>
            <ns3:cad>56</ns3:cad>
          </ns3:TrackPointExtension>
        </extensions>
      </trkpt>
      <trkpt lat="52.164263091981410980224609375" lon="1.5098333917558193206787109375">
        <ele>-42.59999847412109375</ele>
        <time>2025-09-06T11:34:01.000Z</time>
        <extensions>
          <ns3:TrackPointExtension>
            <ns3:hr>129</ns3:hr>
            <ns3:cad>56</ns3:cad>
          </ns3:TrackPointExtension>
        </extensions>
      </trkpt>
      <trkpt lat="52.1642642654478549957275390625" lon="1.5098183043301105499267578125">
        <ele>-42.59999847412109375</ele>
        <time>2025-09-06T11:34:02.000Z</time>
        <extensions>
          <ns3:TrackPointExtension>
            <ns3:hr>128</ns3:hr>
            <ns3:cad>51</ns3:cad>
          </ns3:TrackPointExtension>
        </extensions>
      </trkpt>
      <trkpt lat="52.16429536230862140655517578125" lon="1.50972350500524044036865234375">
        <ele>-42.200000762939453125</ele>
        <time>2025-09-06T11:34:09.000Z</time>
        <extensions>
          <ns3:TrackPointExtension>
            <ns3:hr>126</ns3:hr>
            <ns3:cad>0</ns3:cad>
          </ns3:TrackPointExtension>
        </extensions>
      </trkpt>
      <trkpt lat="52.1642998047173023223876953125" lon="1.50968176312744617462158203125">
        <ele>-42</ele>
        <time>2025-09-06T11:34:17.000Z</time>
        <extensions>
          <ns3:TrackPointExtension>
            <ns3:hr>123</ns3:hr>
            <ns3:cad>0</ns3:cad>
          </ns3:TrackPointExtension>
        </extensions>
      </trkpt>
      <trkpt lat="52.1642984636127948760986328125" lon="1.50967522524297237396240234375">
        <ele>-42</ele>
        <time>2025-09-06T11:34:19.000Z</time>
        <extensions>
          <ns3:TrackPointExtension>
            <ns3:hr>123</ns3:hr>
            <ns3:cad>0</ns3:cad>
          </ns3:TrackPointExtension>
        </extensions>
      </trkpt>
      <trkpt lat="52.164267785847187042236328125" lon="1.50963566266000270843505859375">
        <ele>-41.799999237060546875</ele>
        <time>2025-09-06T11:34:28.000Z</time>
        <extensions>
          <ns3:TrackPointExtension>
            <ns3:hr>121</ns3:hr>
            <ns3:cad>0</ns3:cad>
          </ns3:TrackPointExtension>
        </extensions>
      </trkpt>
      <trkpt lat="52.164252363145351409912109375" lon="1.50962711311876773834228515625">
        <ele>-41.59999847412109375</ele>
        <time>2025-09-06T11:34:35.000Z</time>
        <extensions>
          <ns3:TrackPointExtension>
            <ns3:hr>121</ns3:hr>
            <ns3:cad>0</ns3:cad>
          </ns3:TrackPointExtension>
        </extensions>
      </trkpt>
      <trkpt lat="52.1642498485743999481201171875" lon="1.50963415391743183135986328125">
        <ele>-41.59999847412109375</ele>
        <time>2025-09-06T11:34:36.000Z</time>
        <extensions>
          <ns3:TrackPointExtension>
            <ns3:hr>121</ns3:hr>
            <ns3:cad>0</ns3:cad>
          </ns3:TrackPointExtension>
        </extensions>
      </trkpt>
      <trkpt lat="52.1642632596194744110107421875" lon="1.50963775813579559326171875">
        <ele>-41.40000152587890625</ele>
        <time>2025-09-06T11:34:44.000Z</time>
        <extensions>
          <ns3:TrackPointExtension>
            <ns3:hr>116</ns3:hr>
            <ns3:cad>0</ns3:cad>
          </ns3:TrackPointExtension>
        </extensions>
      </trkpt>
      <trkpt lat="52.16426837258040904998779296875" lon="1.5096317231655120849609375">
        <ele>-41.40000152587890625</ele>
        <time>2025-09-06T11:34:45.000Z</time>
        <extensions>
          <ns3:TrackPointExtension>
            <ns3:hr>119</ns3:hr>
            <ns3:cad>0</ns3:cad>
          </ns3:TrackPointExtension>
        </extensions>
      </trkpt>
      <trkpt lat="52.1642743237316608428955078125" lon="1.50962191633880138397216796875">
        <ele>-41.200000762939453125</ele>
        <time>2025-09-06T11:34:55.000Z</time>
        <extensions>
          <ns3:TrackPointExtension>
            <ns3:hr>117</ns3:hr>
            <ns3:cad>56</ns3:cad>
          </ns3:TrackPointExtension>
        </extensions>
      </trkpt>
      <trkpt lat="52.16430709697306156158447265625" lon="1.50959995575249195098876953125">
        <ele>-41</ele>
        <time>2025-09-06T11:35:04.000Z</time>
        <extensions>
          <ns3:TrackPointExtension>
            <ns3:hr>115</ns3:hr>
            <ns3:cad>0</ns3:cad>
          </ns3:TrackPointExtension>
        </extensions>
      </trkpt>
      <trkpt lat="52.164293937385082244873046875" lon="1.50958151556551456451416015625">
        <ele>-40.799999237060546875</ele>
        <time>2025-09-06T11:35:13.000Z</time>
        <extensions>
          <ns3:TrackPointExtension>
            <ns3:hr>115</ns3:hr>
            <ns3:cad>0</ns3:cad>
          </ns3:TrackPointExtension>
        </extensions>
      </trkpt>
      <trkpt lat="52.1642947755753993988037109375" lon="1.50957162491977214813232421875">
        <ele>-40.799999237060546875</ele>
        <time>2025-09-06T11:35:15.000Z</time>
        <extensions>
          <ns3:TrackPointExtension>
            <ns3:hr>112</ns3:hr>
            <ns3:cad>0</ns3:cad>
          </ns3:TrackPointExtension>
        </extensions>
      </trkpt>
      <trkpt lat="52.1642981283366680145263671875" lon="1.50957514531910419464111328125">
        <ele>-40.59999847412109375</ele>
        <time>2025-09-06T11:35:18.000Z</time>
        <extensions>
          <ns3:TrackPointExtension>
            <ns3:hr>115</ns3:hr>
            <ns3:cad>0</ns3:cad>
          </ns3:TrackPointExtension>
        </extensions>
      </trkpt>
      <trkpt lat="52.164295949041843414306640625" lon="1.50957070291042327880859375">
        <ele>-40.59999847412109375</ele>
        <time>2025-09-06T11:35:20.000Z</time>
        <extensions>
          <ns3:TrackPointExtension>
            <ns3:hr>113</ns3:hr>
            <ns3:cad>0</ns3:cad>
          </ns3:TrackPointExtension>
        </extensions>
      </trkpt>
      <trkpt lat="52.16429351828992366790771484375" lon="1.509563662111759185791015625">
        <ele>-40.59999847412109375</ele>
        <time>2025-09-06T11:35:22.000Z</time>
        <extensions>
          <ns3:TrackPointExtension>
            <ns3:hr>110</ns3:hr>
            <ns3:cad>0</ns3:cad>
          </ns3:TrackPointExtension>
        </extensions>
      </trkpt>
      <trkpt lat="52.1642847172915935516357421875" lon="1.50955067016184329986572265625">
        <ele>-40.59999847412109375</ele>
        <time>2025-09-06T11:35:24.000Z</time>
        <extensions>
          <ns3:TrackPointExtension>
            <ns3:hr>108</ns3:hr>
            <ns3:cad>0</ns3:cad>
          </ns3:TrackPointExtension>
        </extensions>
      </trkpt>
      <trkpt lat="52.1642706356942653656005859375" lon="1.50951999239623546600341796875">
        <ele>-40.40000152587890625</ele>
        <time>2025-09-06T11:35:29.000Z</time>
        <extensions>
          <ns3:TrackPointExtension>
            <ns3:hr>108</ns3:hr>
            <ns3:cad>0</ns3:cad>
          </ns3:TrackPointExtension>
        </extensions>
      </trkpt>
      <trkpt lat="52.16427926905453205108642578125" lon="1.5095239318907260894775390625">
        <ele>-40.40000152587890625</ele>
        <time>2025-09-06T11:35:33.000Z</time>
        <extensions>
          <ns3:TrackPointExtension>
            <ns3:hr>105</ns3:hr>
            <ns3:cad>0</ns3:cad>
          </ns3:TrackPointExtension>
        </extensions>
      </trkpt>
      <trkpt lat="52.164286561310291290283203125" lon="1.50955569930374622344970703125">
        <ele>-40.200000762939453125</ele>
        <time>2025-09-06T11:35:39.000Z</time>
        <extensions>
          <ns3:TrackPointExtension>
            <ns3:hr>105</ns3:hr>
            <ns3:cad>0</ns3:cad>
          </ns3:TrackPointExtension>
        </extensions>
      </trkpt>
      <trkpt lat="52.1642944402992725372314453125" lon="1.50957564823329448699951171875">
        <ele>-40.200000762939453125</ele>
        <time>2025-09-06T11:35:42.000Z</time>
        <extensions>
          <ns3:TrackPointExtension>
            <ns3:hr>102</ns3:hr>
            <ns3:cad>0</ns3:cad>
          </ns3:TrackPointExtension>
        </extensions>
      </trkpt>
      <trkpt lat="52.16431640088558197021484375" lon="1.50961420498788356781005859375">
        <ele>-40</ele>
        <time>2025-09-06T11:35:46.000Z</time>
        <extensions>
          <ns3:TrackPointExtension>
            <ns3:hr>99</ns3:hr>
            <ns3:cad>0</ns3:cad>
          </ns3:TrackPointExtension>
        </extensions>
      </trkpt>
      <trkpt lat="52.1643289737403392791748046875" lon="1.50961822830140590667724609375">
        <ele>-40</ele>
        <time>2025-09-06T11:35:51.000Z</time>
        <extensions>
          <ns3:TrackPointExtension>
            <ns3:hr>101</ns3:hr>
            <ns3:cad>0</ns3:cad>
          </ns3:TrackPointExtension>
        </extensions>
      </trkpt>
      <trkpt lat="52.164316065609455108642578125" lon="1.509593166410923004150390625">
        <ele>-39.799999237060546875</ele>
        <time>2025-09-06T11:35:58.000Z</time>
        <extensions>
          <ns3:TrackPointExtension>
            <ns3:hr>98</ns3:hr>
            <ns3:cad>0</ns3:cad>
          </ns3:TrackPointExtension>
        </extensions>
      </trkpt>
      <trkpt lat="52.16432302258908748626708984375" lon="1.50958620943129062652587890625">
        <ele>-39.59999847412109375</ele>
        <time>2025-09-06T11:36:05.000Z</time>
        <extensions>
          <ns3:TrackPointExtension>
            <ns3:hr>101</ns3:hr>
            <ns3:cad>0</ns3:cad>
          </ns3:TrackPointExtension>
        </extensions>
      </trkpt>
      <trkpt lat="52.1643286384642124176025390625" lon="1.50956961326301097869873046875">
        <ele>-39.59999847412109375</ele>
        <time>2025-09-06T11:36:07.000Z</time>
        <extensions>
          <ns3:TrackPointExtension>
            <ns3:hr>101</ns3:hr>
            <ns3:cad>0</ns3:cad>
          </ns3:TrackPointExtension>
        </extensions>
      </trkpt>
      <trkpt lat="52.16433241032063961029052734375" lon="1.50954681448638439178466796875">
        <ele>-39.40000152587890625</ele>
        <time>2025-09-06T11:36:12.000Z</time>
        <extensions>
          <ns3:TrackPointExtension>
            <ns3:hr>102</ns3:hr>
            <ns3:cad>0</ns3:cad>
          </ns3:TrackPointExtension>
        </extensions>
      </trkpt>
      <trkpt lat="52.1643480844795703887939453125" lon="1.50954631157219409942626953125">
        <ele>-39.200000762939453125</ele>
        <time>2025-09-06T11:36:16.000Z</time>
        <extensions>
          <ns3:TrackPointExtension>
            <ns3:hr>106</ns3:hr>
            <ns3:cad>0</ns3:cad>
          </ns3:TrackPointExtension>
        </extensions>
      </trkpt>
      <trkpt lat="52.164356969296932220458984375" lon="1.5095406956970691680908203125">
        <ele>-39.200000762939453125</ele>
        <time>2025-09-06T11:36:22.000Z</time>
        <extensions>
          <ns3:TrackPointExtension>
            <ns3:hr>109</ns3:hr>
            <ns3:cad>0</ns3:cad>
          </ns3:TrackPointExtension>
        </extensions>
      </trkpt>
      <trkpt lat="52.16437297873198986053466796875" lon="1.50953591801226139068603515625">
        <ele>-38.799999237060546875</ele>
        <time>2025-09-06T11:36:30.000Z</time>
        <extensions>
          <ns3:TrackPointExtension>
            <ns3:hr>105</ns3:hr>
            <ns3:cad>0</ns3:cad>
          </ns3:TrackPointExtension>
        </extensions>
      </trkpt>
      <trkpt lat="52.164432741701602935791015625" lon="1.50950104929506778717041015625">
        <ele>-38.799999237060546875</ele>
        <time>2025-09-06T11:36:34.000Z</time>
        <extensions>
          <ns3:TrackPointExtension>
            <ns3:hr>109</ns3:hr>
            <ns3:cad>75</ns3:cad>
          </ns3:TrackPointExtension>
        </extensions>
      </trkpt>
      <trkpt lat="52.16444975696504116058349609375" lon="1.5094893984496593475341796875">
        <ele>-38.799999237060546875</ele>
        <time>2025-09-06T11:36:35.000Z</time>
        <extensions>
          <ns3:TrackPointExtension>
            <ns3:hr>114</ns3:hr>
            <ns3:cad>75</ns3:cad>
          </ns3:TrackPointExtension>
        </extensions>
      </trkpt>
      <trkpt lat="52.1644701249897480010986328125" lon="1.5094840340316295623779296875">
        <ele>-38.799999237060546875</ele>
        <time>2025-09-06T11:36:36.000Z</time>
        <extensions>
          <ns3:TrackPointExtension>
            <ns3:hr>117</ns3:hr>
            <ns3:cad>76</ns3:cad>
          </ns3:TrackPointExtension>
        </extensions>
      </trkpt>
      <trkpt lat="52.164488397538661956787109375" lon="1.50947355665266513824462890625">
        <ele>-38.59999847412109375</ele>
        <time>2025-09-06T11:36:37.000Z</time>
        <extensions>
          <ns3:TrackPointExtension>
            <ns3:hr>121</ns3:hr>
            <ns3:cad>76</ns3:cad>
          </ns3:TrackPointExtension>
        </extensions>
      </trkpt>
      <trkpt lat="52.16450423933565616607666015625" lon="1.5094654262065887451171875">
        <ele>-38.59999847412109375</ele>
        <time>2025-09-06T11:36:38.000Z</time>
        <extensions>
          <ns3:TrackPointExtension>
            <ns3:hr>124</ns3:hr>
            <ns3:cad>77</ns3:cad>
          </ns3:TrackPointExtension>
        </extensions>
      </trkpt>
      <trkpt lat="52.16451966203749179840087890625" lon="1.509463749825954437255859375">
        <ele>-38.59999847412109375</ele>
        <time>2025-09-06T11:36:39.000Z</time>
        <extensions>
          <ns3:TrackPointExtension>
            <ns3:hr>127</ns3:hr>
            <ns3:cad>78</ns3:cad>
          </ns3:TrackPointExtension>
        </extensions>
      </trkpt>
      <trkpt lat="52.16455318965017795562744140625" lon="1.50947707705199718475341796875">
        <ele>-38.59999847412109375</ele>
        <time>2025-09-06T11:36:41.000Z</time>
        <extensions>
          <ns3:TrackPointExtension>
            <ns3:hr>132</ns3:hr>
            <ns3:cad>78</ns3:cad>
          </ns3:TrackPointExtension>
        </extensions>
      </trkpt>
      <trkpt lat="52.1645804308354854583740234375" lon="1.50948361493647098541259765625">
        <ele>-38.59999847412109375</ele>
        <time>2025-09-06T11:36:43.000Z</time>
        <extensions>
          <ns3:TrackPointExtension>
            <ns3:hr>133</ns3:hr>
            <ns3:cad>77</ns3:cad>
          </ns3:TrackPointExtension>
        </extensions>
      </trkpt>
      <trkpt lat="52.1645951829850673675537109375" lon="1.50949216447770595550537109375">
        <ele>-38.40000152587890625</ele>
        <time>2025-09-06T11:36:44.000Z</time>
        <extensions>
          <ns3:TrackPointExtension>
            <ns3:hr>135</ns3:hr>
            <ns3:cad>76</ns3:cad>
          </ns3:TrackPointExtension>
        </extensions>
      </trkpt>
      <trkpt lat="52.1646099351346492767333984375" lon="1.50950507260859012603759765625">
        <ele>-38.40000152587890625</ele>
        <time>2025-09-06T11:36:45.000Z</time>
        <extensions>
          <ns3:TrackPointExtension>
            <ns3:hr>138</ns3:hr>
            <ns3:cad>76</ns3:cad>
          </ns3:TrackPointExtension>
        </extensions>
      </trkpt>
      <trkpt lat="52.16464170254766941070556640625" lon="1.5095192380249500274658203125">
        <ele>-38.40000152587890625</ele>
        <time>2025-09-06T11:36:47.000Z</time>
        <extensions>
          <ns3:TrackPointExtension>
            <ns3:hr>141</ns3:hr>
            <ns3:cad>77</ns3:cad>
          </ns3:TrackPointExtension>
        </extensions>
      </trkpt>
      <trkpt lat="52.16469920240342617034912109375" lon="1.509507000446319580078125">
        <ele>-38.200000762939453125</ele>
        <time>2025-09-06T11:36:51.000Z</time>
        <extensions>
          <ns3:TrackPointExtension>
            <ns3:hr>144</ns3:hr>
            <ns3:cad>77</ns3:cad>
          </ns3:TrackPointExtension>
        </extensions>
      </trkpt>
      <trkpt lat="52.164712361991405487060546875" lon="1.50949870236217975616455078125">
        <ele>-38.200000762939453125</ele>
        <time>2025-09-06T11:36:52.000Z</time>
        <extensions>
          <ns3:TrackPointExtension>
            <ns3:hr>145</ns3:hr>
            <ns3:cad>77</ns3:cad>
          </ns3:TrackPointExtension>
        </extensions>
      </trkpt>
      <trkpt lat="52.16478721238672733306884765625" lon="1.50952083058655261993408203125">
        <ele>-38.200000762939453125</ele>
        <time>2025-09-06T11:36:56.000Z</time>
        <extensions>
          <ns3:TrackPointExtension>
            <ns3:hr>149</ns3:hr>
            <ns3:cad>79</ns3:cad>
          </ns3:TrackPointExtension>
        </extensions>
      </trkpt>
      <trkpt lat="52.1648764796555042266845703125" lon="1.50953457690775394439697265625">
        <ele>-38</ele>
        <time>2025-09-06T11:37:00.000Z</time>
        <extensions>
          <ns3:TrackPointExtension>
            <ns3:hr>147</ns3:hr>
            <ns3:cad>79</ns3:cad>
          </ns3:TrackPointExtension>
        </extensions>
      </trkpt>
      <trkpt lat="52.16498167254030704498291015625" lon="1.5095242671668529510498046875">
        <ele>-37.799999237060546875</ele>
        <time>2025-09-06T11:37:08.000Z</time>
        <extensions>
          <ns3:TrackPointExtension>
            <ns3:hr>147</ns3:hr>
            <ns3:cad>60</ns3:cad>
          </ns3:TrackPointExtension>
        </extensions>
      </trkpt>
      <trkpt lat="52.16511812992393970489501953125" lon="1.50962493382394313812255859375">
        <ele>-37.59999847412109375</ele>
        <time>2025-09-06T11:37:17.000Z</time>
        <extensions>
          <ns3:TrackPointExtension>
            <ns3:hr>147</ns3:hr>
            <ns3:cad>79</ns3:cad>
          </ns3:TrackPointExtension>
        </extensions>
      </trkpt>
      <trkpt lat="52.1652218140661716461181640625" lon="1.509663574397563934326171875">
        <ele>-37.59999847412109375</ele>
        <time>2025-09-06T11:37:23.000Z</time>
        <extensions>
          <ns3:TrackPointExtension>
            <ns3:hr>146</ns3:hr>
            <ns3:cad>77</ns3:cad>
          </ns3:TrackPointExtension>
        </extensions>
      </trkpt>
      <trkpt lat="52.165278308093547821044921875" lon="1.50968327187001705169677734375">
        <ele>-37.40000152587890625</ele>
        <time>2025-09-06T11:37:26.000Z</time>
        <extensions>
          <ns3:TrackPointExtension>
            <ns3:hr>147</ns3:hr>
            <ns3:cad>78</ns3:cad>
          </ns3:TrackPointExtension>
        </extensions>
      </trkpt>
      <trkpt lat="52.165414430201053619384765625" lon="1.509784944355487823486328125">
        <ele>-37.200000762939453125</ele>
        <time>2025-09-06T11:37:34.000Z</time>
        <extensions>
          <ns3:TrackPointExtension>
            <ns3:hr>150</ns3:hr>
            <ns3:cad>79</ns3:cad>
          </ns3:TrackPointExtension>
        </extensions>
      </trkpt>
      <trkpt lat="52.16554485261440277099609375" lon="1.50984889827668666839599609375">
        <ele>-37</ele>
        <time>2025-09-06T11:37:43.000Z</time>
        <extensions>
          <ns3:TrackPointExtension>
            <ns3:hr>148</ns3:hr>
            <ns3:cad>78</ns3:cad>
          </ns3:TrackPointExtension>
        </extensions>
      </trkpt>
      <trkpt lat="52.1657049469649791717529296875" lon="1.51000077836215496063232421875">
        <ele>-36.59999847412109375</ele>
        <time>2025-09-06T11:37:52.000Z</time>
        <extensions>
          <ns3:TrackPointExtension>
            <ns3:hr>148</ns3:hr>
            <ns3:cad>79</ns3:cad>
          </ns3:TrackPointExtension>
        </extensions>
      </trkpt>
      <trkpt lat="52.1657297573983669281005859375" lon="1.5100152790546417236328125">
        <ele>-36.59999847412109375</ele>
        <time>2025-09-06T11:37:53.000Z</time>
        <extensions>
          <ns3:TrackPointExtension>
            <ns3:hr>149</ns3:hr>
            <ns3:cad>79</ns3:cad>
          </ns3:TrackPointExtension>
        </extensions>
      </trkpt>
      <trkpt lat="52.1658772788941860198974609375" lon="1.510156095027923583984375">
        <ele>-36.59999847412109375</ele>
        <time>2025-09-06T11:38:00.000Z</time>
        <extensions>
          <ns3:TrackPointExtension>
            <ns3:hr>148</ns3:hr>
            <ns3:cad>78</ns3:cad>
          </ns3:TrackPointExtension>
        </extensions>
      </trkpt>
      <trkpt lat="52.16593620367348194122314453125" lon="1.51021820493042469024658203125">
        <ele>-36.40000152587890625</ele>
        <time>2025-09-06T11:38:03.000Z</time>
        <extensions>
          <ns3:TrackPointExtension>
            <ns3:hr>147</ns3:hr>
            <ns3:cad>78</ns3:cad>
          </ns3:TrackPointExtension>
        </extensions>
      </trkpt>
      <trkpt lat="52.16602941043674945831298828125" lon="1.510340832173824310302734375">
        <ele>-36.40000152587890625</ele>
        <time>2025-09-06T11:38:09.000Z</time>
        <extensions>
          <ns3:TrackPointExtension>
            <ns3:hr>148</ns3:hr>
            <ns3:cad>79</ns3:cad>
          </ns3:TrackPointExtension>
        </extensions>
      </trkpt>
      <trkpt lat="52.16616955585777759552001953125" lon="1.510449461638927459716796875">
        <ele>-36.40000152587890625</ele>
        <time>2025-09-06T11:38:17.000Z</time>
        <extensions>
          <ns3:TrackPointExtension>
            <ns3:hr>148</ns3:hr>
            <ns3:cad>77</ns3:cad>
          </ns3:TrackPointExtension>
        </extensions>
      </trkpt>
      <trkpt lat="52.16635982505977153778076171875" lon="1.5105570852756500244140625">
        <ele>-36.200000762939453125</ele>
        <time>2025-09-06T11:38:26.000Z</time>
        <extensions>
          <ns3:TrackPointExtension>
            <ns3:hr>148</ns3:hr>
            <ns3:cad>78</ns3:cad>
          </ns3:TrackPointExtension>
        </extensions>
      </trkpt>
      <trkpt lat="52.166542969644069671630859375" lon="1.51060737669467926025390625">
        <ele>-36.200000762939453125</ele>
        <time>2025-09-06T11:38:35.000Z</time>
        <extensions>
          <ns3:TrackPointExtension>
            <ns3:hr>148</ns3:hr>
            <ns3:cad>78</ns3:cad>
          </ns3:TrackPointExtension>
        </extensions>
      </trkpt>
      <trkpt lat="52.1667365916073322296142578125" lon="1.51058633811771869659423828125">
        <ele>-36.200000762939453125</ele>
        <time>2025-09-06T11:38:44.000Z</time>
        <extensions>
          <ns3:TrackPointExtension>
            <ns3:hr>149</ns3:hr>
            <ns3:cad>78</ns3:cad>
          </ns3:TrackPointExtension>
        </extensions>
      </trkpt>
      <trkpt lat="52.1667469851672649383544921875" lon="1.51057477109134197235107421875">
        <ele>-36.200000762939453125</ele>
        <time>2025-09-06T11:38:45.000Z</time>
        <extensions>
          <ns3:TrackPointExtension>
            <ns3:hr>147</ns3:hr>
            <ns3:cad>78</ns3:cad>
          </ns3:TrackPointExtension>
        </extensions>
      </trkpt>
      <trkpt lat="52.16684832237660884857177734375" lon="1.51052347384393215179443359375">
        <ele>-36.200000762939453125</ele>
        <time>2025-09-06T11:38:52.000Z</time>
        <extensions>
          <ns3:TrackPointExtension>
            <ns3:hr>146</ns3:hr>
            <ns3:cad>58</ns3:cad>
          </ns3:TrackPointExtension>
        </extensions>
      </trkpt>
      <trkpt lat="52.1669411100447177886962890625" lon="1.5105746872723102569580078125">
        <ele>-36.200000762939453125</ele>
        <time>2025-09-06T11:38:57.000Z</time>
        <extensions>
          <ns3:TrackPointExtension>
            <ns3:hr>143</ns3:hr>
            <ns3:cad>57</ns3:cad>
          </ns3:TrackPointExtension>
        </extensions>
      </trkpt>
      <trkpt lat="52.167016379535198211669921875" lon="1.510599665343761444091796875">
        <ele>-36.200000762939453125</ele>
        <time>2025-09-06T11:39:01.000Z</time>
        <extensions>
          <ns3:TrackPointExtension>
            <ns3:hr>143</ns3:hr>
            <ns3:cad>77</ns3:cad>
          </ns3:TrackPointExtension>
        </extensions>
      </trkpt>
      <trkpt lat="52.16710497625172138214111328125" lon="1.51061282493174076080322265625">
        <ele>-36.200000762939453125</ele>
        <time>2025-09-06T11:39:06.000Z</time>
        <extensions>
          <ns3:TrackPointExtension>
            <ns3:hr>140</ns3:hr>
            <ns3:cad>74</ns3:cad>
          </ns3:TrackPointExtension>
        </extensions>
      </trkpt>
      <trkpt lat="52.16717219911515712738037109375" lon="1.51065087877213954925537109375">
        <ele>-36.200000762939453125</ele>
        <time>2025-09-06T11:39:09.000Z</time>
        <extensions>
          <ns3:TrackPointExtension>
            <ns3:hr>139</ns3:hr>
            <ns3:cad>63</ns3:cad>
          </ns3:TrackPointExtension>
        </extensions>
      </trkpt>
      <trkpt lat="52.16724746860563755035400390625" lon="1.5106601826846599578857421875">
        <ele>-36.40000152587890625</ele>
        <time>2025-09-06T11:39:13.000Z</time>
        <extensions>
          <ns3:TrackPointExtension>
            <ns3:hr>142</ns3:hr>
            <ns3:cad>75</ns3:cad>
          </ns3:TrackPointExtension>
        </extensions>
      </trkpt>
      <trkpt lat="52.16737252660095691680908203125" lon="1.51065775193274021148681640625">
        <ele>-36.40000152587890625</ele>
        <time>2025-09-06T11:39:18.000Z</time>
        <extensions>
          <ns3:TrackPointExtension>
            <ns3:hr>144</ns3:hr>
            <ns3:cad>77</ns3:cad>
          </ns3:TrackPointExtension>
        </extensions>
      </trkpt>
      <trkpt lat="52.167522646486759185791015625" lon="1.51069186627864837646484375">
        <ele>-36.40000152587890625</ele>
        <time>2025-09-06T11:39:24.000Z</time>
        <extensions>
          <ns3:TrackPointExtension>
            <ns3:hr>148</ns3:hr>
            <ns3:cad>79</ns3:cad>
          </ns3:TrackPointExtension>
        </extensions>
      </trkpt>
      <trkpt lat="52.167546115815639495849609375" lon="1.5106920339167118072509765625">
        <ele>-36.40000152587890625</ele>
        <time>2025-09-06T11:39:25.000Z</time>
        <extensions>
          <ns3:TrackPointExtension>
            <ns3:hr>148</ns3:hr>
            <ns3:cad>79</ns3:cad>
          </ns3:TrackPointExtension>
        </extensions>
      </trkpt>
      <trkpt lat="52.16760814189910888671875" lon="1.51069547049701213836669921875">
        <ele>-36.40000152587890625</ele>
        <time>2025-09-06T11:39:28.000Z</time>
        <extensions>
          <ns3:TrackPointExtension>
            <ns3:hr>145</ns3:hr>
            <ns3:cad>79</ns3:cad>
          </ns3:TrackPointExtension>
        </extensions>
      </trkpt>
      <trkpt lat="52.16764594428241252899169921875" lon="1.510681807994842529296875">
        <ele>-36.40000152587890625</ele>
        <time>2025-09-06T11:39:30.000Z</time>
        <extensions>
          <ns3:TrackPointExtension>
            <ns3:hr>138</ns3:hr>
            <ns3:cad>79</ns3:cad>
          </ns3:TrackPointExtension>
        </extensions>
      </trkpt>
      <trkpt lat="52.16769355349242687225341796875" lon="1.51067535392940044403076171875">
        <ele>-36.40000152587890625</ele>
        <time>2025-09-06T11:39:32.000Z</time>
        <extensions>
          <ns3:TrackPointExtension>
            <ns3:hr>136</ns3:hr>
            <ns3:cad>79</ns3:cad>
          </ns3:TrackPointExtension>
        </extensions>
      </trkpt>
      <trkpt lat="52.1678265742957592010498046875" lon="1.51070217601954936981201171875">
        <ele>-36.40000152587890625</ele>
        <time>2025-09-06T11:39:38.000Z</time>
        <extensions>
          <ns3:TrackPointExtension>
            <ns3:hr>139</ns3:hr>
            <ns3:cad>79</ns3:cad>
          </ns3:TrackPointExtension>
        </extensions>
      </trkpt>
      <trkpt lat="52.16784208081662654876708984375" lon="1.5107027627527713775634765625">
        <ele>-36.59999847412109375</ele>
        <time>2025-09-06T11:39:39.000Z</time>
        <extensions>
          <ns3:TrackPointExtension>
            <ns3:hr>138</ns3:hr>
            <ns3:cad>79</ns3:cad>
          </ns3:TrackPointExtension>
        </extensions>
      </trkpt>
      <trkpt lat="52.1680287458002567291259765625" lon="1.51067015714943408966064453125">
        <ele>-36.59999847412109375</ele>
        <time>2025-09-06T11:39:50.000Z</time>
        <extensions>
          <ns3:TrackPointExtension>
            <ns3:hr>138</ns3:hr>
            <ns3:cad>78</ns3:cad>
          </ns3:TrackPointExtension>
        </extensions>
      </trkpt>
      <trkpt lat="52.1681903488934040069580078125" lon="1.51066294871270656585693359375">
        <ele>-36.59999847412109375</ele>
        <time>2025-09-06T11:40:00.000Z</time>
        <extensions>
          <ns3:TrackPointExtension>
            <ns3:hr>139</ns3:hr>
            <ns3:cad>78</ns3:cad>
          </ns3:TrackPointExtension>
        </extensions>
      </trkpt>
      <trkpt lat="52.16838397085666656494140625" lon="1.5106705762445926666259765625">
        <ele>-36.59999847412109375</ele>
        <time>2025-09-06T11:40:08.000Z</time>
        <extensions>
          <ns3:TrackPointExtension>
            <ns3:hr>140</ns3:hr>
            <ns3:cad>79</ns3:cad>
          </ns3:TrackPointExtension>
        </extensions>
      </trkpt>
      <trkpt lat="52.1684934385120868682861328125" lon="1.51065942831337451934814453125">
        <ele>-36.59999847412109375</ele>
        <time>2025-09-06T11:40:15.000Z</time>
        <extensions>
          <ns3:TrackPointExtension>
            <ns3:hr>138</ns3:hr>
            <ns3:cad>77</ns3:cad>
          </ns3:TrackPointExtension>
        </extensions>
      </trkpt>
      <trkpt lat="52.16868102550506591796875" lon="1.510641910135746002197265625">
        <ele>-36.40000152587890625</ele>
        <time>2025-09-06T11:40:25.000Z</time>
        <extensions>
          <ns3:TrackPointExtension>
            <ns3:hr>140</ns3:hr>
            <ns3:cad>78</ns3:cad>
          </ns3:TrackPointExtension>
        </extensions>
      </trkpt>
      <trkpt lat="52.16882946901023387908935546875" lon="1.51062271557748317718505859375">
        <ele>-36.40000152587890625</ele>
        <time>2025-09-06T11:40:33.000Z</time>
        <extensions>
          <ns3:TrackPointExtension>
            <ns3:hr>138</ns3:hr>
            <ns3:cad>76</ns3:cad>
          </ns3:TrackPointExtension>
        </extensions>
      </trkpt>
      <trkpt lat="52.1690042316913604736328125" lon="1.5106514655053615570068359375">
        <ele>-36.40000152587890625</ele>
        <time>2025-09-06T11:40:40.000Z</time>
        <extensions>
          <ns3:TrackPointExtension>
            <ns3:hr>141</ns3:hr>
            <ns3:cad>78</ns3:cad>
          </ns3:TrackPointExtension>
        </extensions>
      </trkpt>
      <trkpt lat="52.16902594082057476043701171875" lon="1.5106521360576152801513671875">
        <ele>-36.200000762939453125</ele>
        <time>2025-09-06T11:40:41.000Z</time>
        <extensions>
          <ns3:TrackPointExtension>
            <ns3:hr>142</ns3:hr>
            <ns3:cad>78</ns3:cad>
          </ns3:TrackPointExtension>
        </extensions>
      </trkpt>
      <trkpt lat="52.169198356568813323974609375" lon="1.5106518007814884185791015625">
        <ele>-36.200000762939453125</ele>
        <time>2025-09-06T11:40:50.000Z</time>
        <extensions>
          <ns3:TrackPointExtension>
            <ns3:hr>140</ns3:hr>
            <ns3:cad>77</ns3:cad>
          </ns3:TrackPointExtension>
        </extensions>
      </trkpt>
      <trkpt lat="52.16921386308968067169189453125" lon="1.51065708138048648834228515625">
        <ele>-36.200000762939453125</ele>
        <time>2025-09-06T11:40:51.000Z</time>
        <extensions>
          <ns3:TrackPointExtension>
            <ns3:hr>143</ns3:hr>
            <ns3:cad>77</ns3:cad>
          </ns3:TrackPointExtension>
        </extensions>
      </trkpt>
      <trkpt lat="52.1692468039691448211669921875" lon="1.51066294871270656585693359375">
        <ele>-36</ele>
        <time>2025-09-06T11:40:53.000Z</time>
        <extensions>
          <ns3:TrackPointExtension>
            <ns3:hr>140</ns3:hr>
            <ns3:cad>77</ns3:cad>
          </ns3:TrackPointExtension>
        </extensions>
      </trkpt>
      <trkpt lat="52.16930975206196308135986328125" lon="1.51064760982990264892578125">
        <ele>-36</ele>
        <time>2025-09-06T11:40:57.000Z</time>
        <extensions>
          <ns3:TrackPointExtension>
            <ns3:hr>143</ns3:hr>
            <ns3:cad>78</ns3:cad>
          </ns3:TrackPointExtension>
        </extensions>
      </trkpt>
      <trkpt lat="52.169347889721393585205078125" lon="1.510651297867298126220703125">
        <ele>-36</ele>
        <time>2025-09-06T11:40:59.000Z</time>
        <extensions>
          <ns3:TrackPointExtension>
            <ns3:hr>143</ns3:hr>
            <ns3:cad>78</ns3:cad>
          </ns3:TrackPointExtension>
        </extensions>
      </trkpt>
      <trkpt lat="52.16948878951370716094970703125" lon="1.51070150546729564666748046875">
        <ele>-35.799999237060546875</ele>
        <time>2025-09-06T11:41:07.000Z</time>
        <extensions>
          <ns3:TrackPointExtension>
            <ns3:hr>146</ns3:hr>
            <ns3:cad>79</ns3:cad>
          </ns3:TrackPointExtension>
        </extensions>
      </trkpt>
      <trkpt lat="52.16964519582688808441162109375" lon="1.5107191912829875946044921875">
        <ele>-35.799999237060546875</ele>
        <time>2025-09-06T11:41:16.000Z</time>
        <extensions>
          <ns3:TrackPointExtension>
            <ns3:hr>147</ns3:hr>
            <ns3:cad>78</ns3:cad>
          </ns3:TrackPointExtension>
        </extensions>
      </trkpt>
      <trkpt lat="52.1696742810308933258056640625" lon="1.51073721237480640411376953125">
        <ele>-35.799999237060546875</ele>
        <time>2025-09-06T11:41:20.000Z</time>
        <extensions>
          <ns3:TrackPointExtension>
            <ns3:hr>144</ns3:hr>
            <ns3:cad>76</ns3:cad>
          </ns3:TrackPointExtension>
        </extensions>
      </trkpt>
      <trkpt lat="52.1696866862475872039794921875" lon="1.510731764137744903564453125">
        <ele>-35.59999847412109375</ele>
        <time>2025-09-06T11:41:21.000Z</time>
        <extensions>
          <ns3:TrackPointExtension>
            <ns3:hr>144</ns3:hr>
            <ns3:cad>75</ns3:cad>
          </ns3:TrackPointExtension>
        </extensions>
      </trkpt>
      <trkpt lat="52.1697751991450786590576171875" lon="1.51068189181387424468994140625">
        <ele>-35.59999847412109375</ele>
        <time>2025-09-06T11:41:26.000Z</time>
        <extensions>
          <ns3:TrackPointExtension>
            <ns3:hr>148</ns3:hr>
            <ns3:cad>0</ns3:cad>
          </ns3:TrackPointExtension>
        </extensions>
      </trkpt>
      <trkpt lat="52.1697896160185337066650390625" lon="1.51068650186061859130859375">
        <ele>-35.59999847412109375</ele>
        <time>2025-09-06T11:41:27.000Z</time>
        <extensions>
          <ns3:TrackPointExtension>
            <ns3:hr>148</ns3:hr>
            <ns3:cad>0</ns3:cad>
          </ns3:TrackPointExtension>
        </extensions>
      </trkpt>
      <trkpt lat="52.16991777531802654266357421875" lon="1.51067367754876613616943359375">
        <ele>-35.40000152587890625</ele>
        <time>2025-09-06T11:41:33.000Z</time>
        <extensions>
          <ns3:TrackPointExtension>
            <ns3:hr>148</ns3:hr>
            <ns3:cad>79</ns3:cad>
          </ns3:TrackPointExtension>
        </extensions>
      </trkpt>
      <trkpt lat="52.1699431724846363067626953125" lon="1.51066496036946773529052734375">
        <ele>-35.40000152587890625</ele>
        <time>2025-09-06T11:41:34.000Z</time>
        <extensions>
          <ns3:TrackPointExtension>
            <ns3:hr>148</ns3:hr>
            <ns3:cad>79</ns3:cad>
          </ns3:TrackPointExtension>
        </extensions>
      </trkpt>
      <trkpt lat="52.17003327794373035430908203125" lon="1.5106129087507724761962890625">
        <ele>-35.200000762939453125</ele>
        <time>2025-09-06T11:41:42.000Z</time>
        <extensions>
          <ns3:TrackPointExtension>
            <ns3:hr>148</ns3:hr>
            <ns3:cad>0</ns3:cad>
          </ns3:TrackPointExtension>
        </extensions>
      </trkpt>
      <trkpt lat="52.17008256353437900543212890625" lon="1.5105884335935115814208984375">
        <ele>-35.200000762939453125</ele>
        <time>2025-09-06T11:41:47.000Z</time>
        <extensions>
          <ns3:TrackPointExtension>
            <ns3:hr>145</ns3:hr>
            <ns3:cad>50</ns3:cad>
          </ns3:TrackPointExtension>
        </extensions>
      </trkpt>
      <trkpt lat="52.170149870216846466064453125" lon="1.5105626173317432403564453125">
        <ele>-35</ele>
        <time>2025-09-06T11:41:51.000Z</time>
        <extensions>
          <ns3:TrackPointExtension>
            <ns3:hr>144</ns3:hr>
            <ns3:cad>49</ns3:cad>
          </ns3:TrackPointExtension>
        </extensions>
      </trkpt>
      <trkpt lat="52.170196138322353363037109375" lon="1.510572843253612518310546875">
        <ele>-35</ele>
        <time>2025-09-06T11:41:54.000Z</time>
        <extensions>
          <ns3:TrackPointExtension>
            <ns3:hr>143</ns3:hr>
            <ns3:cad>49</ns3:cad>
          </ns3:TrackPointExtension>
        </extensions>
      </trkpt>
      <trkpt lat="52.1702392213046550750732421875" lon="1.51060444302856922149658203125">
        <ele>-35</ele>
        <time>2025-09-06T11:41:57.000Z</time>
        <extensions>
          <ns3:TrackPointExtension>
            <ns3:hr>140</ns3:hr>
            <ns3:cad>77</ns3:cad>
          </ns3:TrackPointExtension>
        </extensions>
      </trkpt>
      <trkpt lat="52.17041297815740108489990234375" lon="1.5105693228542804718017578125">
        <ele>-34.799999237060546875</ele>
        <time>2025-09-06T11:42:03.000Z</time>
        <extensions>
          <ns3:TrackPointExtension>
            <ns3:hr>143</ns3:hr>
            <ns3:cad>78</ns3:cad>
          </ns3:TrackPointExtension>
        </extensions>
      </trkpt>
      <trkpt lat="52.170578353106975555419921875" lon="1.51058449409902095794677734375">
        <ele>-34.59999847412109375</ele>
        <time>2025-09-06T11:42:10.000Z</time>
        <extensions>
          <ns3:TrackPointExtension>
            <ns3:hr>146</ns3:hr>
            <ns3:cad>78</ns3:cad>
          </ns3:TrackPointExtension>
        </extensions>
      </trkpt>
      <trkpt lat="52.17062319628894329071044921875" lon="1.51057728566229343414306640625">
        <ele>-34.59999847412109375</ele>
        <time>2025-09-06T11:42:12.000Z</time>
        <extensions>
          <ns3:TrackPointExtension>
            <ns3:hr>146</ns3:hr>
            <ns3:cad>78</ns3:cad>
          </ns3:TrackPointExtension>
        </extensions>
      </trkpt>
      <trkpt lat="52.17067918740212917327880859375" lon="1.5105713345110416412353515625">
        <ele>-34.40000152587890625</ele>
        <time>2025-09-06T11:42:15.000Z</time>
        <extensions>
          <ns3:TrackPointExtension>
            <ns3:hr>150</ns3:hr>
            <ns3:cad>78</ns3:cad>
          </ns3:TrackPointExtension>
        </extensions>
      </trkpt>
      <trkpt lat="52.17071774415671825408935546875" lon="1.5105760283768177032470703125">
        <ele>-34.40000152587890625</ele>
        <time>2025-09-06T11:42:17.000Z</time>
        <extensions>
          <ns3:TrackPointExtension>
            <ns3:hr>153</ns3:hr>
            <ns3:cad>79</ns3:cad>
          </ns3:TrackPointExtension>
        </extensions>
      </trkpt>
      <trkpt lat="52.17079904861748218536376953125" lon="1.51059756986796855926513671875">
        <ele>-34.200000762939453125</ele>
        <time>2025-09-06T11:42:21.000Z</time>
        <extensions>
          <ns3:TrackPointExtension>
            <ns3:hr>155</ns3:hr>
            <ns3:cad>80</ns3:cad>
          </ns3:TrackPointExtension>
        </extensions>
      </trkpt>
      <trkpt lat="52.1709443069994449615478515625" lon="1.51058055460453033447265625">
        <ele>-34</ele>
        <time>2025-09-06T11:42:30.000Z</time>
        <extensions>
          <ns3:TrackPointExtension>
            <ns3:hr>154</ns3:hr>
            <ns3:cad>78</ns3:cad>
          </ns3:TrackPointExtension>
        </extensions>
      </trkpt>
      <trkpt lat="52.17110180296003818511962890625" lon="1.51055398397147655487060546875">
        <ele>-33.59999847412109375</ele>
        <time>2025-09-06T11:42:39.000Z</time>
        <extensions>
          <ns3:TrackPointExtension>
            <ns3:hr>151</ns3:hr>
            <ns3:cad>77</ns3:cad>
          </ns3:TrackPointExtension>
        </extensions>
      </trkpt>
      <trkpt lat="52.17111974023282527923583984375" lon="1.51055348105728626251220703125">
        <ele>-33.59999847412109375</ele>
        <time>2025-09-06T11:42:40.000Z</time>
        <extensions>
          <ns3:TrackPointExtension>
            <ns3:hr>150</ns3:hr>
            <ns3:cad>77</ns3:cad>
          </ns3:TrackPointExtension>
        </extensions>
      </trkpt>
      <trkpt lat="52.17118008993566036224365234375" lon="1.5105545707046985626220703125">
        <ele>-33.40000152587890625</ele>
        <time>2025-09-06T11:42:43.000Z</time>
        <extensions>
          <ns3:TrackPointExtension>
            <ns3:hr>148</ns3:hr>
            <ns3:cad>77</ns3:cad>
          </ns3:TrackPointExtension>
        </extensions>
      </trkpt>
      <trkpt lat="52.17130179516971111297607421875" lon="1.510575525462627410888671875">
        <ele>-33.200000762939453125</ele>
        <time>2025-09-06T11:42:49.000Z</time>
        <extensions>
          <ns3:TrackPointExtension>
            <ns3:hr>148</ns3:hr>
            <ns3:cad>78</ns3:cad>
          </ns3:TrackPointExtension>
        </extensions>
      </trkpt>
      <trkpt lat="52.17143473215401172637939453125" lon="1.510538645088672637939453125">
        <ele>-32.799999237060546875</ele>
        <time>2025-09-06T11:42:56.000Z</time>
        <extensions>
          <ns3:TrackPointExtension>
            <ns3:hr>147</ns3:hr>
            <ns3:cad>78</ns3:cad>
          </ns3:TrackPointExtension>
        </extensions>
      </trkpt>
      <trkpt lat="52.171528525650501251220703125" lon="1.5106253139674663543701171875">
        <ele>-32.40000152587890625</ele>
        <time>2025-09-06T11:43:03.000Z</time>
        <extensions>
          <ns3:TrackPointExtension>
            <ns3:hr>148</ns3:hr>
            <ns3:cad>55</ns3:cad>
          </ns3:TrackPointExtension>
        </extensions>
      </trkpt>
      <trkpt lat="52.1715389192104339599609375" lon="1.5106310136616230010986328125">
        <ele>-32.40000152587890625</ele>
        <time>2025-09-06T11:43:04.000Z</time>
        <extensions>
          <ns3:TrackPointExtension>
            <ns3:hr>148</ns3:hr>
            <ns3:cad>49</ns3:cad>
          </ns3:TrackPointExtension>
        </extensions>
      </trkpt>
      <trkpt lat="52.171564735472202301025390625" lon="1.51064551435410976409912109375">
        <ele>-32.200000762939453125</ele>
        <time>2025-09-06T11:43:07.000Z</time>
        <extensions>
          <ns3:TrackPointExtension>
            <ns3:hr>145</ns3:hr>
            <ns3:cad>48</ns3:cad>
          </ns3:TrackPointExtension>
        </extensions>
      </trkpt>
      <trkpt lat="52.1715732850134372711181640625" lon="1.510641574859619140625">
        <ele>-32.200000762939453125</ele>
        <time>2025-09-06T11:43:08.000Z</time>
        <extensions>
          <ns3:TrackPointExtension>
            <ns3:hr>143</ns3:hr>
            <ns3:cad>48</ns3:cad>
          </ns3:TrackPointExtension>
        </extensions>
      </trkpt>
      <trkpt lat="52.171596921980381011962890625" lon="1.51064224541187286376953125">
        <ele>-32.200000762939453125</ele>
        <time>2025-09-06T11:43:10.000Z</time>
        <extensions>
          <ns3:TrackPointExtension>
            <ns3:hr>145</ns3:hr>
            <ns3:cad>53</ns3:cad>
          </ns3:TrackPointExtension>
        </extensions>
      </trkpt>
      <trkpt lat="52.17163078486919403076171875" lon="1.51063822209835052490234375">
        <ele>-32</ele>
        <time>2025-09-06T11:43:12.000Z</time>
        <extensions>
          <ns3:TrackPointExtension>
            <ns3:hr>142</ns3:hr>
            <ns3:cad>57</ns3:cad>
          </ns3:TrackPointExtension>
        </extensions>
      </trkpt>
      <trkpt lat="52.17171804048120975494384765625" lon="1.5106350369751453399658203125">
        <ele>-31.799999237060546875</ele>
        <time>2025-09-06T11:43:17.000Z</time>
        <extensions>
          <ns3:TrackPointExtension>
            <ns3:hr>141</ns3:hr>
            <ns3:cad>75</ns3:cad>
          </ns3:TrackPointExtension>
        </extensions>
      </trkpt>
      <trkpt lat="52.171797417104244232177734375" lon="1.51063880883157253265380859375">
        <ele>-31.6000003814697265625</ele>
        <time>2025-09-06T11:43:21.000Z</time>
        <extensions>
          <ns3:TrackPointExtension>
            <ns3:hr>138</ns3:hr>
            <ns3:cad>77</ns3:cad>
          </ns3:TrackPointExtension>
        </extensions>
      </trkpt>
      <trkpt lat="52.17185567133128643035888671875" lon="1.51064551435410976409912109375">
        <ele>-31.3999996185302734375</ele>
        <time>2025-09-06T11:43:24.000Z</time>
        <extensions>
          <ns3:TrackPointExtension>
            <ns3:hr>141</ns3:hr>
            <ns3:cad>78</ns3:cad>
          </ns3:TrackPointExtension>
        </extensions>
      </trkpt>
      <trkpt lat="52.17189255170524120330810546875" lon="1.51065506972372531890869140625">
        <ele>-31.3999996185302734375</ele>
        <time>2025-09-06T11:43:26.000Z</time>
        <extensions>
          <ns3:TrackPointExtension>
            <ns3:hr>144</ns3:hr>
            <ns3:cad>79</ns3:cad>
          </ns3:TrackPointExtension>
        </extensions>
      </trkpt>
      <trkpt lat="52.172002606093883514404296875" lon="1.51067912578582763671875">
        <ele>-31.200000762939453125</ele>
        <time>2025-09-06T11:43:31.000Z</time>
        <extensions>
          <ns3:TrackPointExtension>
            <ns3:hr>147</ns3:hr>
            <ns3:cad>79</ns3:cad>
          </ns3:TrackPointExtension>
        </extensions>
      </trkpt>
      <trkpt lat="52.17204543761909008026123046875" lon="1.5106799639761447906494140625">
        <ele>-31</ele>
        <time>2025-09-06T11:43:33.000Z</time>
        <extensions>
          <ns3:TrackPointExtension>
            <ns3:hr>147</ns3:hr>
            <ns3:cad>79</ns3:cad>
          </ns3:TrackPointExtension>
        </extensions>
      </trkpt>
      <trkpt lat="52.172130011022090911865234375" lon="1.51067334227263927459716796875">
        <ele>-30.799999237060546875</ele>
        <time>2025-09-06T11:43:37.000Z</time>
        <extensions>
          <ns3:TrackPointExtension>
            <ns3:hr>150</ns3:hr>
            <ns3:cad>79</ns3:cad>
          </ns3:TrackPointExtension>
        </extensions>
      </trkpt>
      <trkpt lat="52.172211818397045135498046875" lon="1.51069915853440761566162109375">
        <ele>-30.799999237060546875</ele>
        <time>2025-09-06T11:43:41.000Z</time>
        <extensions>
          <ns3:TrackPointExtension>
            <ns3:hr>147</ns3:hr>
            <ns3:cad>78</ns3:cad>
          </ns3:TrackPointExtension>
        </extensions>
      </trkpt>
      <trkpt lat="52.17226571403443813323974609375" lon="1.51071055792272090911865234375">
        <ele>-30.6000003814697265625</ele>
        <time>2025-09-06T11:43:44.000Z</time>
        <extensions>
          <ns3:TrackPointExtension>
            <ns3:hr>147</ns3:hr>
            <ns3:cad>77</ns3:cad>
          </ns3:TrackPointExtension>
        </extensions>
      </trkpt>
      <trkpt lat="52.1723474375903606414794921875" lon="1.5107168443500995635986328125">
        <ele>-30.3999996185302734375</ele>
        <time>2025-09-06T11:43:50.000Z</time>
        <extensions>
          <ns3:TrackPointExtension>
            <ns3:hr>147</ns3:hr>
            <ns3:cad>77</ns3:cad>
          </ns3:TrackPointExtension>
        </extensions>
      </trkpt>
      <trkpt lat="52.17234819196164608001708984375" lon="1.51071391068398952484130859375">
        <ele>-30.3999996185302734375</ele>
        <time>2025-09-06T11:43:51.000Z</time>
        <extensions>
          <ns3:TrackPointExtension>
            <ns3:hr>146</ns3:hr>
            <ns3:cad>0</ns3:cad>
          </ns3:TrackPointExtension>
        </extensions>
      </trkpt>
      <trkpt lat="52.1723489463329315185546875" lon="1.5107126533985137939453125">
        <ele>-30.200000762939453125</ele>
        <time>2025-09-06T11:43:53.000Z</time>
        <extensions>
          <ns3:TrackPointExtension>
            <ns3:hr>143</ns3:hr>
            <ns3:cad>0</ns3:cad>
          </ns3:TrackPointExtension>
        </extensions>
      </trkpt>
      <trkpt lat="52.17235498130321502685546875" lon="1.510733775794506072998046875">
        <ele>-30</ele>
        <time>2025-09-06T11:44:00.000Z</time>
        <extensions>
          <ns3:TrackPointExtension>
            <ns3:hr>142</ns3:hr>
            <ns3:cad>0</ns3:cad>
          </ns3:TrackPointExtension>
        </extensions>
      </trkpt>
      <trkpt lat="52.17235472984611988067626953125" lon="1.51073486544191837310791015625">
        <ele>-29.799999237060546875</ele>
        <time>2025-09-06T11:44:02.000Z</time>
        <extensions>
          <ns3:TrackPointExtension>
            <ns3:hr>139</ns3:hr>
            <ns3:cad>0</ns3:cad>
          </ns3:TrackPointExtension>
        </extensions>
      </trkpt>
      <trkpt lat="52.172356657683849334716796875" lon="1.51073285378515720367431640625">
        <ele>-29.6000003814697265625</ele>
        <time>2025-09-06T11:44:06.000Z</time>
        <extensions>
          <ns3:TrackPointExtension>
            <ns3:hr>136</ns3:hr>
            <ns3:cad>0</ns3:cad>
          </ns3:TrackPointExtension>
        </extensions>
      </trkpt>
      <trkpt lat="52.17235204763710498809814453125" lon="1.51073754765093326568603515625">
        <ele>-29.6000003814697265625</ele>
        <time>2025-09-06T11:44:11.000Z</time>
        <extensions>
          <ns3:TrackPointExtension>
            <ns3:hr>135</ns3:hr>
            <ns3:cad>0</ns3:cad>
          </ns3:TrackPointExtension>
        </extensions>
      </trkpt>
      <trkpt lat="52.1723521314561367034912109375" lon="1.51073620654642581939697265625">
        <ele>-29.3999996185302734375</ele>
        <time>2025-09-06T11:44:14.000Z</time>
        <extensions>
          <ns3:TrackPointExtension>
            <ns3:hr>132</ns3:hr>
            <ns3:cad>0</ns3:cad>
          </ns3:TrackPointExtension>
        </extensions>
      </trkpt>
      <trkpt lat="52.17235238291323184967041015625" lon="1.51074090041220188140869140625">
        <ele>-29.3999996185302734375</ele>
        <time>2025-09-06T11:44:16.000Z</time>
        <extensions>
          <ns3:TrackPointExtension>
            <ns3:hr>130</ns3:hr>
            <ns3:cad>0</ns3:cad>
          </ns3:TrackPointExtension>
        </extensions>
      </trkpt>
      <trkpt lat="52.172349281609058380126953125" lon="1.510754562914371490478515625">
        <ele>-29.200000762939453125</ele>
        <time>2025-09-06T11:44:21.000Z</time>
        <extensions>
          <ns3:TrackPointExtension>
            <ns3:hr>127</ns3:hr>
            <ns3:cad>0</ns3:cad>
          </ns3:TrackPointExtension>
        </extensions>
      </trkpt>
      <trkpt lat="52.172349952161312103271484375" lon="1.51074551045894622802734375">
        <ele>-29</ele>
        <time>2025-09-06T11:44:24.000Z</time>
        <extensions>
          <ns3:TrackPointExtension>
            <ns3:hr>124</ns3:hr>
            <ns3:cad>0</ns3:cad>
          </ns3:TrackPointExtension>
        </extensions>
      </trkpt>
      <trkpt lat="52.1723487786948680877685546875" lon="1.51072799228131771087646484375">
        <ele>-29</ele>
        <time>2025-09-06T11:44:29.000Z</time>
        <extensions>
          <ns3:TrackPointExtension>
            <ns3:hr>130</ns3:hr>
            <ns3:cad>0</ns3:cad>
          </ns3:TrackPointExtension>
        </extensions>
      </trkpt>
      <trkpt lat="52.1723491139709949493408203125" lon="1.5107275731861591339111328125">
        <ele>-28.799999237060546875</ele>
        <time>2025-09-06T11:44:30.000Z</time>
        <extensions>
          <ns3:TrackPointExtension>
            <ns3:hr>130</ns3:hr>
            <ns3:cad>0</ns3:cad>
          </ns3:TrackPointExtension>
        </extensions>
      </trkpt>
      <trkpt lat="52.17234936542809009552001953125" lon="1.51072380132973194122314453125">
        <ele>-28.799999237060546875</ele>
        <time>2025-09-06T11:44:36.000Z</time>
        <extensions>
          <ns3:TrackPointExtension>
            <ns3:hr>133</ns3:hr>
            <ns3:cad>0</ns3:cad>
          </ns3:TrackPointExtension>
        </extensions>
      </trkpt>
      <trkpt lat="52.17234936542809009552001953125" lon="1.51072363369166851043701171875">
        <ele>-28.799999237060546875</ele>
        <time>2025-09-06T11:44:37.000Z</time>
        <extensions>
          <ns3:TrackPointExtension>
            <ns3:hr>130</ns3:hr>
            <ns3:cad>0</ns3:cad>
          </ns3:TrackPointExtension>
        </extensions>
      </trkpt>
      <trkpt lat="52.17235020361840724945068359375" lon="1.510721705853939056396484375">
        <ele>-28.6000003814697265625</ele>
        <time>2025-09-06T11:44:42.000Z</time>
        <extensions>
          <ns3:TrackPointExtension>
            <ns3:hr>134</ns3:hr>
            <ns3:cad>0</ns3:cad>
          </ns3:TrackPointExtension>
        </extensions>
      </trkpt>
      <trkpt lat="52.172347605228424072265625" lon="1.51072564534842967987060546875">
        <ele>-28.3999996185302734375</ele>
        <time>2025-09-06T11:44:47.000Z</time>
        <extensions>
          <ns3:TrackPointExtension>
            <ns3:hr>137</ns3:hr>
            <ns3:cad>0</ns3:cad>
          </ns3:TrackPointExtension>
        </extensions>
      </trkpt>
      <trkpt lat="52.172343246638774871826171875" lon="1.5107215382158756256103515625">
        <ele>-28.3999996185302734375</ele>
        <time>2025-09-06T11:44:50.000Z</time>
        <extensions>
          <ns3:TrackPointExtension>
            <ns3:hr>138</ns3:hr>
            <ns3:cad>0</ns3:cad>
          </ns3:TrackPointExtension>
        </extensions>
      </trkpt>
      <trkpt lat="52.17234265990555286407470703125" lon="1.51071944274008274078369140625">
        <ele>-28.3999996185302734375</ele>
        <time>2025-09-06T11:44:51.000Z</time>
        <extensions>
          <ns3:TrackPointExtension>
            <ns3:hr>138</ns3:hr>
            <ns3:cad>0</ns3:cad>
          </ns3:TrackPointExtension>
        </extensions>
      </trkpt>
      <trkpt lat="52.17234048061072826385498046875" lon="1.51072044856846332550048828125">
        <ele>-28.200000762939453125</ele>
        <time>2025-09-06T11:44:57.000Z</time>
        <extensions>
          <ns3:TrackPointExtension>
            <ns3:hr>141</ns3:hr>
            <ns3:cad>0</ns3:cad>
          </ns3:TrackPointExtension>
        </extensions>
      </trkpt>
      <trkpt lat="52.1723387204110622406005859375" lon="1.51071994565427303314208984375">
        <ele>-27.799999237060546875</ele>
        <time>2025-09-06T11:45:08.000Z</time>
        <extensions>
          <ns3:TrackPointExtension>
            <ns3:hr>141</ns3:hr>
            <ns3:cad>0</ns3:cad>
          </ns3:TrackPointExtension>
        </extensions>
      </trkpt>
      <trkpt lat="52.17234265990555286407470703125" lon="1.510727405548095703125">
        <ele>-27.6000003814697265625</ele>
        <time>2025-09-06T11:45:19.000Z</time>
        <extensions>
          <ns3:TrackPointExtension>
            <ns3:hr>144</ns3:hr>
            <ns3:cad>0</ns3:cad>
          </ns3:TrackPointExtension>
        </extensions>
      </trkpt>
      <trkpt lat="52.17234601266682147979736328125" lon="1.51072614826261997222900390625">
        <ele>-27.3999996185302734375</ele>
        <time>2025-09-06T11:45:22.000Z</time>
        <extensions>
          <ns3:TrackPointExtension>
            <ns3:hr>143</ns3:hr>
            <ns3:cad>0</ns3:cad>
          </ns3:TrackPointExtension>
        </extensions>
      </trkpt>
      <trkpt lat="52.1723501197993755340576171875" lon="1.5107180178165435791015625">
        <ele>-27.200000762939453125</ele>
        <time>2025-09-06T11:45:29.000Z</time>
        <extensions>
          <ns3:TrackPointExtension>
            <ns3:hr>142</ns3:hr>
            <ns3:cad>0</ns3:cad>
          </ns3:TrackPointExtension>
        </extensions>
      </trkpt>
      <trkpt lat="52.17234693467617034912109375" lon="1.51071458123624324798583984375">
        <ele>-27</ele>
        <time>2025-09-06T11:45:37.000Z</time>
        <extensions>
          <ns3:TrackPointExtension>
            <ns3:hr>141</ns3:hr>
            <ns3:cad>0</ns3:cad>
          </ns3:TrackPointExtension>
        </extensions>
      </trkpt>
      <trkpt lat="52.17234886251389980316162109375" lon="1.51071324013173580169677734375">
        <ele>-26.799999237060546875</ele>
        <time>2025-09-06T11:45:46.000Z</time>
        <extensions>
          <ns3:TrackPointExtension>
            <ns3:hr>137</ns3:hr>
            <ns3:cad>0</ns3:cad>
          </ns3:TrackPointExtension>
        </extensions>
      </trkpt>
      <trkpt lat="52.1723491139709949493408203125" lon="1.51071340776979923248291015625">
        <ele>-26.799999237060546875</ele>
        <time>2025-09-06T11:45:49.000Z</time>
        <extensions>
          <ns3:TrackPointExtension>
            <ns3:hr>140</ns3:hr>
            <ns3:cad>0</ns3:cad>
          </ns3:TrackPointExtension>
        </extensions>
      </trkpt>
      <trkpt lat="52.17234886251389980316162109375" lon="1.5107134915888309478759765625">
        <ele>-26.6000003814697265625</ele>
        <time>2025-09-06T11:45:50.000Z</time>
        <extensions>
          <ns3:TrackPointExtension>
            <ns3:hr>139</ns3:hr>
            <ns3:cad>0</ns3:cad>
          </ns3:TrackPointExtension>
        </extensions>
      </trkpt>
      <trkpt lat="52.1723464317619800567626953125" lon="1.51073276996612548828125">
        <ele>-26.3999996185302734375</ele>
        <time>2025-09-06T11:46:01.000Z</time>
        <extensions>
          <ns3:TrackPointExtension>
            <ns3:hr>136</ns3:hr>
            <ns3:cad>0</ns3:cad>
          </ns3:TrackPointExtension>
        </extensions>
      </trkpt>
      <trkpt lat="52.1723477728664875030517578125" lon="1.51074525900185108184814453125">
        <ele>-26.6000003814697265625</ele>
        <time>2025-09-06T11:46:10.000Z</time>
        <extensions>
          <ns3:TrackPointExtension>
            <ns3:hr>133</ns3:hr>
            <ns3:cad>0</ns3:cad>
          </ns3:TrackPointExtension>
        </extensions>
      </trkpt>
      <trkpt lat="52.17235472984611988067626953125" lon="1.51075816713273525238037109375">
        <ele>-27</ele>
        <time>2025-09-06T11:46:16.000Z</time>
        <extensions>
          <ns3:TrackPointExtension>
            <ns3:hr>134</ns3:hr>
            <ns3:cad>0</ns3:cad>
          </ns3:TrackPointExtension>
        </extensions>
      </trkpt>
      <trkpt lat="52.172352969646453857421875" lon="1.5107636153697967529296875">
        <ele>-27.200000762939453125</ele>
        <time>2025-09-06T11:46:18.000Z</time>
        <extensions>
          <ns3:TrackPointExtension>
            <ns3:hr>137</ns3:hr>
            <ns3:cad>0</ns3:cad>
          </ns3:TrackPointExtension>
        </extensions>
      </trkpt>
      <trkpt lat="52.1723462641239166259765625" lon="1.5107242204248905181884765625">
        <ele>-28.200000762939453125</ele>
        <time>2025-09-06T11:46:30.000Z</time>
        <extensions>
          <ns3:TrackPointExtension>
            <ns3:hr>138</ns3:hr>
            <ns3:cad>0</ns3:cad>
          </ns3:TrackPointExtension>
        </extensions>
      </trkpt>
      <trkpt lat="52.17234282754361629486083984375" lon="1.51071961037814617156982421875">
        <ele>-28.200000762939453125</ele>
        <time>2025-09-06T11:46:32.000Z</time>
        <extensions>
          <ns3:TrackPointExtension>
            <ns3:hr>137</ns3:hr>
            <ns3:cad>0</ns3:cad>
          </ns3:TrackPointExtension>
        </extensions>
      </trkpt>
      <trkpt lat="52.17233913950622081756591796875" lon="1.51071676053106784820556640625">
        <ele>-28.3999996185302734375</ele>
        <time>2025-09-06T11:46:34.000Z</time>
        <extensions>
          <ns3:TrackPointExtension>
            <ns3:hr>134</ns3:hr>
            <ns3:cad>0</ns3:cad>
          </ns3:TrackPointExtension>
        </extensions>
      </trkpt>
      <trkpt lat="52.17233620584011077880859375" lon="1.51071541942656040191650390625">
        <ele>-28.200000762939453125</ele>
        <time>2025-09-06T11:46:41.000Z</time>
        <extensions>
          <ns3:TrackPointExtension>
            <ns3:hr>131</ns3:hr>
            <ns3:cad>0</ns3:cad>
          </ns3:TrackPointExtension>
        </extensions>
      </trkpt>
      <trkpt lat="52.17233511619269847869873046875" lon="1.51071466505527496337890625">
        <ele>-28.200000762939453125</ele>
        <time>2025-09-06T11:46:46.000Z</time>
        <extensions>
          <ns3:TrackPointExtension>
            <ns3:hr>129</ns3:hr>
            <ns3:cad>0</ns3:cad>
          </ns3:TrackPointExtension>
        </extensions>
      </trkpt>
      <trkpt lat="52.1723380498588085174560546875" lon="1.510714329779148101806640625">
        <ele>-28.200000762939453125</ele>
        <time>2025-09-06T11:47:00.000Z</time>
        <extensions>
          <ns3:TrackPointExtension>
            <ns3:hr>130</ns3:hr>
            <ns3:cad>0</ns3:cad>
          </ns3:TrackPointExtension>
        </extensions>
      </trkpt>
      <trkpt lat="52.17234618030488491058349609375" lon="1.5106933750212192535400390625">
        <ele>-27.799999237060546875</ele>
        <time>2025-09-06T11:47:13.000Z</time>
        <extensions>
          <ns3:TrackPointExtension>
            <ns3:hr>133</ns3:hr>
            <ns3:cad>0</ns3:cad>
          </ns3:TrackPointExtension>
        </extensions>
      </trkpt>
      <trkpt lat="52.1724453382194042205810546875" lon="1.5106859989464282989501953125">
        <ele>-27.3999996185302734375</ele>
        <time>2025-09-06T11:47:21.000Z</time>
        <extensions>
          <ns3:TrackPointExtension>
            <ns3:hr>139</ns3:hr>
            <ns3:cad>0</ns3:cad>
          </ns3:TrackPointExtension>
        </extensions>
      </trkpt>
      <trkpt lat="52.17246587388217449188232421875" lon="1.51068725623190402984619140625">
        <ele>-27.3999996185302734375</ele>
        <time>2025-09-06T11:47:22.000Z</time>
        <extensions>
          <ns3:TrackPointExtension>
            <ns3:hr>143</ns3:hr>
            <ns3:cad>78</ns3:cad>
          </ns3:TrackPointExtension>
        </extensions>
      </trkpt>
      <trkpt lat="52.17248917557299137115478515625" lon="1.51068708859384059906005859375">
        <ele>-27.200000762939453125</ele>
        <time>2025-09-06T11:47:23.000Z</time>
        <extensions>
          <ns3:TrackPointExtension>
            <ns3:hr>145</ns3:hr>
            <ns3:cad>78</ns3:cad>
          </ns3:TrackPointExtension>
        </extensions>
      </trkpt>
      <trkpt lat="52.172539047896862030029296875" lon="1.51067912578582763671875">
        <ele>-27.200000762939453125</ele>
        <time>2025-09-06T11:47:25.000Z</time>
        <extensions>
          <ns3:TrackPointExtension>
            <ns3:hr>148</ns3:hr>
            <ns3:cad>80</ns3:cad>
          </ns3:TrackPointExtension>
        </extensions>
      </trkpt>
      <trkpt lat="52.172564528882503509521484375" lon="1.5106769464910030364990234375">
        <ele>-27.200000762939453125</ele>
        <time>2025-09-06T11:47:26.000Z</time>
        <extensions>
          <ns3:TrackPointExtension>
            <ns3:hr>152</ns3:hr>
            <ns3:cad>80</ns3:cad>
          </ns3:TrackPointExtension>
        </extensions>
      </trkpt>
      <trkpt lat="52.172589339315891265869140625" lon="1.51067501865327358245849609375">
        <ele>-27.200000762939453125</ele>
        <time>2025-09-06T11:47:27.000Z</time>
        <extensions>
          <ns3:TrackPointExtension>
            <ns3:hr>155</ns3:hr>
            <ns3:cad>80</ns3:cad>
          </ns3:TrackPointExtension>
        </extensions>
      </trkpt>
      <trkpt lat="52.17261590994894504547119140625" lon="1.51067552156746387481689453125">
        <ele>-27</ele>
        <time>2025-09-06T11:47:28.000Z</time>
        <extensions>
          <ns3:TrackPointExtension>
            <ns3:hr>158</ns3:hr>
            <ns3:cad>81</ns3:cad>
          </ns3:TrackPointExtension>
        </extensions>
      </trkpt>
      <trkpt lat="52.1726669557392597198486328125" lon="1.51067434810101985931396484375">
        <ele>-26.799999237060546875</ele>
        <time>2025-09-06T11:47:30.000Z</time>
        <extensions>
          <ns3:TrackPointExtension>
            <ns3:hr>162</ns3:hr>
            <ns3:cad>81</ns3:cad>
          </ns3:TrackPointExtension>
        </extensions>
      </trkpt>
      <trkpt lat="52.172714062035083770751953125" lon="1.510680131614208221435546875">
        <ele>-26.200000762939453125</ele>
        <time>2025-09-06T11:47:32.000Z</time>
        <extensions>
          <ns3:TrackPointExtension>
            <ns3:hr>165</ns3:hr>
            <ns3:cad>81</ns3:cad>
          </ns3:TrackPointExtension>
        </extensions>
      </trkpt>
      <trkpt lat="52.17273795045912265777587890625" lon="1.51068055070936679840087890625">
        <ele>-26</ele>
        <time>2025-09-06T11:47:33.000Z</time>
        <extensions>
          <ns3:TrackPointExtension>
            <ns3:hr>164</ns3:hr>
            <ns3:cad>81</ns3:cad>
          </ns3:TrackPointExtension>
        </extensions>
      </trkpt>
      <trkpt lat="52.1728599071502685546875" lon="1.51069463230669498443603515625">
        <ele>-24.799999237060546875</ele>
        <time>2025-09-06T11:47:38.000Z</time>
        <extensions>
          <ns3:TrackPointExtension>
            <ns3:hr>161</ns3:hr>
            <ns3:cad>80</ns3:cad>
          </ns3:TrackPointExtension>
        </extensions>
      </trkpt>
      <trkpt lat="52.1729559637606143951416015625" lon="1.51070804335176944732666015625">
        <ele>-24</ele>
        <time>2025-09-06T11:47:42.000Z</time>
        <extensions>
          <ns3:TrackPointExtension>
            <ns3:hr>164</ns3:hr>
            <ns3:cad>81</ns3:cad>
          </ns3:TrackPointExtension>
        </extensions>
      </trkpt>
      <trkpt lat="52.17297884635627269744873046875" lon="1.51071156375110149383544921875">
        <ele>-23.799999237060546875</ele>
        <time>2025-09-06T11:47:43.000Z</time>
        <extensions>
          <ns3:TrackPointExtension>
            <ns3:hr>164</ns3:hr>
            <ns3:cad>81</ns3:cad>
          </ns3:TrackPointExtension>
        </extensions>
      </trkpt>
      <trkpt lat="52.1730511821806430816650390625" lon="1.51071944274008274078369140625">
        <ele>-23.200000762939453125</ele>
        <time>2025-09-06T11:47:46.000Z</time>
        <extensions>
          <ns3:TrackPointExtension>
            <ns3:hr>165</ns3:hr>
            <ns3:cad>81</ns3:cad>
          </ns3:TrackPointExtension>
        </extensions>
      </trkpt>
      <trkpt lat="52.17310055159032344818115234375" lon="1.51073067449033260345458984375">
        <ele>-22.799999237060546875</ele>
        <time>2025-09-06T11:47:48.000Z</time>
        <extensions>
          <ns3:TrackPointExtension>
            <ns3:hr>166</ns3:hr>
            <ns3:cad>81</ns3:cad>
          </ns3:TrackPointExtension>
        </extensions>
      </trkpt>
      <trkpt lat="52.17324606142938137054443359375" lon="1.51076269336044788360595703125">
        <ele>-21.6000003814697265625</ele>
        <time>2025-09-06T11:47:54.000Z</time>
        <extensions>
          <ns3:TrackPointExtension>
            <ns3:hr>168</ns3:hr>
            <ns3:cad>81</ns3:cad>
          </ns3:TrackPointExtension>
        </extensions>
      </trkpt>
      <trkpt lat="52.1732701174914836883544921875" lon="1.5107627771794795989990234375">
        <ele>-21.3999996185302734375</ele>
        <time>2025-09-06T11:47:55.000Z</time>
        <extensions>
          <ns3:TrackPointExtension>
            <ns3:hr>168</ns3:hr>
            <ns3:cad>81</ns3:cad>
          </ns3:TrackPointExtension>
        </extensions>
      </trkpt>
      <trkpt lat="52.173397354781627655029296875" lon="1.51079068891704082489013671875">
        <ele>-20.3999996185302734375</ele>
        <time>2025-09-06T11:48:00.000Z</time>
        <extensions>
          <ns3:TrackPointExtension>
            <ns3:hr>168</ns3:hr>
            <ns3:cad>81</ns3:cad>
          </ns3:TrackPointExtension>
        </extensions>
      </trkpt>
      <trkpt lat="52.1734672598540782928466796875" lon="1.510801501572132110595703125">
        <ele>-20</ele>
        <time>2025-09-06T11:48:03.000Z</time>
        <extensions>
          <ns3:TrackPointExtension>
            <ns3:hr>167</ns3:hr>
            <ns3:cad>80</ns3:cad>
          </ns3:TrackPointExtension>
        </extensions>
      </trkpt>
      <trkpt lat="52.17353381216526031494140625" lon="1.51080812327563762664794921875">
        <ele>-19.3999996185302734375</ele>
        <time>2025-09-06T11:48:06.000Z</time>
        <extensions>
          <ns3:TrackPointExtension>
            <ns3:hr>167</ns3:hr>
            <ns3:cad>80</ns3:cad>
          </ns3:TrackPointExtension>
        </extensions>
      </trkpt>
      <trkpt lat="52.17367001809179782867431640625" lon="1.5108358673751354217529296875">
        <ele>-18.3999996185302734375</ele>
        <time>2025-09-06T11:48:12.000Z</time>
        <extensions>
          <ns3:TrackPointExtension>
            <ns3:hr>168</ns3:hr>
            <ns3:cad>81</ns3:cad>
          </ns3:TrackPointExtension>
        </extensions>
      </trkpt>
      <trkpt lat="52.173781581223011016845703125" lon="1.51086696423590183258056640625">
        <ele>-17.3999996185302734375</ele>
        <time>2025-09-06T11:48:17.000Z</time>
        <extensions>
          <ns3:TrackPointExtension>
            <ns3:hr>167</ns3:hr>
            <ns3:cad>80</ns3:cad>
          </ns3:TrackPointExtension>
        </extensions>
      </trkpt>
      <trkpt lat="52.17382390983402729034423828125" lon="1.51088121347129344940185546875">
        <ele>-16.799999237060546875</ele>
        <time>2025-09-06T11:48:19.000Z</time>
        <extensions>
          <ns3:TrackPointExtension>
            <ns3:hr>167</ns3:hr>
            <ns3:cad>79</ns3:cad>
          </ns3:TrackPointExtension>
        </extensions>
      </trkpt>
      <trkpt lat="52.173886857926845550537109375" lon="1.510911472141742706298828125">
        <ele>-16.200000762939453125</ele>
        <time>2025-09-06T11:48:22.000Z</time>
        <extensions>
          <ns3:TrackPointExtension>
            <ns3:hr>166</ns3:hr>
            <ns3:cad>80</ns3:cad>
          </ns3:TrackPointExtension>
        </extensions>
      </trkpt>
      <trkpt lat="52.17396355234086513519287109375" lon="1.51096821762621402740478515625">
        <ele>-15</ele>
        <time>2025-09-06T11:48:26.000Z</time>
        <extensions>
          <ns3:TrackPointExtension>
            <ns3:hr>167</ns3:hr>
            <ns3:cad>80</ns3:cad>
          </ns3:TrackPointExtension>
        </extensions>
      </trkpt>
      <trkpt lat="52.1740261651575565338134765625" lon="1.51099856011569499969482421875">
        <ele>-14.19999980926513671875</ele>
        <time>2025-09-06T11:48:29.000Z</time>
        <extensions>
          <ns3:TrackPointExtension>
            <ns3:hr>167</ns3:hr>
            <ns3:cad>80</ns3:cad>
          </ns3:TrackPointExtension>
        </extensions>
      </trkpt>
      <trkpt lat="52.17404753901064395904541015625" lon="1.5110058523714542388916015625">
        <ele>-14</ele>
        <time>2025-09-06T11:48:30.000Z</time>
        <extensions>
          <ns3:TrackPointExtension>
            <ns3:hr>167</ns3:hr>
            <ns3:cad>80</ns3:cad>
          </ns3:TrackPointExtension>
        </extensions>
      </trkpt>
      <trkpt lat="52.17413119040429592132568359375" lon="1.51103476993739604949951171875">
        <ele>-13</ele>
        <time>2025-09-06T11:48:34.000Z</time>
        <extensions>
          <ns3:TrackPointExtension>
            <ns3:hr>167</ns3:hr>
            <ns3:cad>80</ns3:cad>
          </ns3:TrackPointExtension>
        </extensions>
      </trkpt>
      <trkpt lat="52.1742176078259944915771484375" lon="1.5110615082085132598876953125">
        <ele>-11.80000019073486328125</ele>
        <time>2025-09-06T11:48:38.000Z</time>
        <extensions>
          <ns3:TrackPointExtension>
            <ns3:hr>165</ns3:hr>
            <ns3:cad>80</ns3:cad>
          </ns3:TrackPointExtension>
        </extensions>
      </trkpt>
      <trkpt lat="52.1742903627455234527587890625" lon="1.51107969693839550018310546875">
        <ele>-11</ele>
        <time>2025-09-06T11:48:41.000Z</time>
        <extensions>
          <ns3:TrackPointExtension>
            <ns3:hr>168</ns3:hr>
            <ns3:cad>80</ns3:cad>
          </ns3:TrackPointExtension>
        </extensions>
      </trkpt>
      <trkpt lat="52.17431257478892803192138671875" lon="1.51108539663255214691162109375">
        <ele>-10.80000019073486328125</ele>
        <time>2025-09-06T11:48:42.000Z</time>
        <extensions>
          <ns3:TrackPointExtension>
            <ns3:hr>167</ns3:hr>
            <ns3:cad>80</ns3:cad>
          </ns3:TrackPointExtension>
        </extensions>
      </trkpt>
      <trkpt lat="52.17439438216388225555419921875" lon="1.51110216043889522552490234375">
        <ele>-9.6000003814697265625</ele>
        <time>2025-09-06T11:48:46.000Z</time>
        <extensions>
          <ns3:TrackPointExtension>
            <ns3:hr>167</ns3:hr>
            <ns3:cad>80</ns3:cad>
          </ns3:TrackPointExtension>
        </extensions>
      </trkpt>
      <trkpt lat="52.1744811348617076873779296875" lon="1.51113736443221569061279296875">
        <ele>-8.6000003814697265625</ele>
        <time>2025-09-06T11:48:50.000Z</time>
        <extensions>
          <ns3:TrackPointExtension>
            <ns3:hr>168</ns3:hr>
            <ns3:cad>80</ns3:cad>
          </ns3:TrackPointExtension>
        </extensions>
      </trkpt>
      <trkpt lat="52.17454274185001850128173828125" lon="1.511150859296321868896484375">
        <ele>-7.80000019073486328125</ele>
        <time>2025-09-06T11:48:53.000Z</time>
        <extensions>
          <ns3:TrackPointExtension>
            <ns3:hr>165</ns3:hr>
            <ns3:cad>80</ns3:cad>
          </ns3:TrackPointExtension>
        </extensions>
      </trkpt>
      <trkpt lat="52.1745642833411693572998046875" lon="1.5111543796956539154052734375">
        <ele>-7.599999904632568359375</ele>
        <time>2025-09-06T11:48:54.000Z</time>
        <extensions>
          <ns3:TrackPointExtension>
            <ns3:hr>163</ns3:hr>
            <ns3:cad>80</ns3:cad>
          </ns3:TrackPointExtension>
        </extensions>
      </trkpt>
      <trkpt lat="52.17461080290377140045166015625" lon="1.51117038913071155548095703125">
        <ele>-7</ele>
        <time>2025-09-06T11:48:56.000Z</time>
        <extensions>
          <ns3:TrackPointExtension>
            <ns3:hr>159</ns3:hr>
            <ns3:cad>80</ns3:cad>
          </ns3:TrackPointExtension>
        </extensions>
      </trkpt>
      <trkpt lat="52.1746766008436679840087890625" lon="1.51120626367628574371337890625">
        <ele>-6.400000095367431640625</ele>
        <time>2025-09-06T11:48:59.000Z</time>
        <extensions>
          <ns3:TrackPointExtension>
            <ns3:hr>159</ns3:hr>
            <ns3:cad>80</ns3:cad>
          </ns3:TrackPointExtension>
        </extensions>
      </trkpt>
      <trkpt lat="52.17471825890243053436279296875" lon="1.51122696697711944580078125">
        <ele>-5.80000019073486328125</ele>
        <time>2025-09-06T11:49:01.000Z</time>
        <extensions>
          <ns3:TrackPointExtension>
            <ns3:hr>161</ns3:hr>
            <ns3:cad>80</ns3:cad>
          </ns3:TrackPointExtension>
        </extensions>
      </trkpt>
      <trkpt lat="52.17477123253047466278076171875" lon="1.51127549819648265838623046875">
        <ele>-5</ele>
        <time>2025-09-06T11:49:04.000Z</time>
        <extensions>
          <ns3:TrackPointExtension>
            <ns3:hr>160</ns3:hr>
            <ns3:cad>81</ns3:cad>
          </ns3:TrackPointExtension>
        </extensions>
      </trkpt>
      <trkpt lat="52.17483644373714923858642578125" lon="1.51133970357477664947509765625">
        <ele>-4</ele>
        <time>2025-09-06T11:49:08.000Z</time>
        <extensions>
          <ns3:TrackPointExtension>
            <ns3:hr>159</ns3:hr>
            <ns3:cad>80</ns3:cad>
          </ns3:TrackPointExtension>
        </extensions>
      </trkpt>
      <trkpt lat="52.1748680435121059417724609375" lon="1.5113676153123378753662109375">
        <ele>-3.400000095367431640625</ele>
        <time>2025-09-06T11:49:10.000Z</time>
        <extensions>
          <ns3:TrackPointExtension>
            <ns3:hr>157</ns3:hr>
            <ns3:cad>80</ns3:cad>
          </ns3:TrackPointExtension>
        </extensions>
      </trkpt>
      <trkpt lat="52.174895368516445159912109375" lon="1.51140860281884670257568359375">
        <ele>-2.7999999523162841796875</ele>
        <time>2025-09-06T11:49:12.000Z</time>
        <extensions>
          <ns3:TrackPointExtension>
            <ns3:hr>158</ns3:hr>
            <ns3:cad>79</ns3:cad>
          </ns3:TrackPointExtension>
        </extensions>
      </trkpt>
      <trkpt lat="52.1749481745064258575439453125" lon="1.5115012228488922119140625">
        <ele>-1.60000002384185791015625</ele>
        <time>2025-09-06T11:49:16.000Z</time>
        <extensions>
          <ns3:TrackPointExtension>
            <ns3:hr>157</ns3:hr>
            <ns3:cad>80</ns3:cad>
          </ns3:TrackPointExtension>
        </extensions>
      </trkpt>
      <trkpt lat="52.17496250756084918975830078125" lon="1.51152360253036022186279296875">
        <ele>-1.39999997615814208984375</ele>
        <time>2025-09-06T11:49:17.000Z</time>
        <extensions>
          <ns3:TrackPointExtension>
            <ns3:hr>158</ns3:hr>
            <ns3:cad>80</ns3:cad>
          </ns3:TrackPointExtension>
        </extensions>
      </trkpt>
      <trkpt lat="52.17501229606568813323974609375" lon="1.511577665805816650390625">
        <ele>-0.60000002384185791015625</ele>
        <time>2025-09-06T11:49:20.000Z</time>
        <extensions>
          <ns3:TrackPointExtension>
            <ns3:hr>158</ns3:hr>
            <ns3:cad>79</ns3:cad>
          </ns3:TrackPointExtension>
        </extensions>
      </trkpt>
      <trkpt lat="52.175092510879039764404296875" lon="1.51163005270063877105712890625">
        <ele>0.60000002384185791015625</ele>
        <time>2025-09-06T11:49:24.000Z</time>
        <extensions>
          <ns3:TrackPointExtension>
            <ns3:hr>159</ns3:hr>
            <ns3:cad>79</ns3:cad>
          </ns3:TrackPointExtension>
        </extensions>
      </trkpt>
      <trkpt lat="52.175175659358501434326171875" lon="1.511684954166412353515625">
        <ele>1.60000002384185791015625</ele>
        <time>2025-09-06T11:49:28.000Z</time>
        <extensions>
          <ns3:TrackPointExtension>
            <ns3:hr>158</ns3:hr>
            <ns3:cad>79</ns3:cad>
          </ns3:TrackPointExtension>
        </extensions>
      </trkpt>
      <trkpt lat="52.1752827800810337066650390625" lon="1.5117337368428707122802734375">
        <ele>2.7999999523162841796875</ele>
        <time>2025-09-06T11:49:32.000Z</time>
        <extensions>
          <ns3:TrackPointExtension>
            <ns3:hr>160</ns3:hr>
            <ns3:cad>80</ns3:cad>
          </ns3:TrackPointExtension>
        </extensions>
      </trkpt>
      <trkpt lat="52.17530683614313602447509765625" lon="1.5117451362311840057373046875">
        <ele>3</ele>
        <time>2025-09-06T11:49:33.000Z</time>
        <extensions>
          <ns3:TrackPointExtension>
            <ns3:hr>160</ns3:hr>
            <ns3:cad>80</ns3:cad>
          </ns3:TrackPointExtension>
        </extensions>
      </trkpt>
      <trkpt lat="52.1753905713558197021484375" lon="1.51176483370363712310791015625">
        <ele>4</ele>
        <time>2025-09-06T11:49:36.000Z</time>
        <extensions>
          <ns3:TrackPointExtension>
            <ns3:hr>161</ns3:hr>
            <ns3:cad>79</ns3:cad>
          </ns3:TrackPointExtension>
        </extensions>
      </trkpt>
      <trkpt lat="52.17549182474613189697265625" lon="1.5117694437503814697265625">
        <ele>5.19999980926513671875</ele>
        <time>2025-09-06T11:49:40.000Z</time>
        <extensions>
          <ns3:TrackPointExtension>
            <ns3:hr>160</ns3:hr>
            <ns3:cad>80</ns3:cad>
          </ns3:TrackPointExtension>
        </extensions>
      </trkpt>
      <trkpt lat="52.17556734569370746612548828125" lon="1.51177422143518924713134765625">
        <ele>6.19999980926513671875</ele>
        <time>2025-09-06T11:49:43.000Z</time>
        <extensions>
          <ns3:TrackPointExtension>
            <ns3:hr>160</ns3:hr>
            <ns3:cad>80</ns3:cad>
          </ns3:TrackPointExtension>
        </extensions>
      </trkpt>
      <trkpt lat="52.17565543949604034423828125" lon="1.51178964413702487945556640625">
        <ele>7.599999904632568359375</ele>
        <time>2025-09-06T11:49:47.000Z</time>
        <extensions>
          <ns3:TrackPointExtension>
            <ns3:hr>161</ns3:hr>
            <ns3:cad>81</ns3:cad>
          </ns3:TrackPointExtension>
        </extensions>
      </trkpt>
      <trkpt lat="52.1757231652736663818359375" lon="1.51180020533502101898193359375">
        <ele>8.3999996185302734375</ele>
        <time>2025-09-06T11:49:50.000Z</time>
        <extensions>
          <ns3:TrackPointExtension>
            <ns3:hr>163</ns3:hr>
            <ns3:cad>81</ns3:cad>
          </ns3:TrackPointExtension>
        </extensions>
      </trkpt>
      <trkpt lat="52.17574554495513439178466796875" lon="1.51180230081081390380859375">
        <ele>8.80000019073486328125</ele>
        <time>2025-09-06T11:49:51.000Z</time>
        <extensions>
          <ns3:TrackPointExtension>
            <ns3:hr>163</ns3:hr>
            <ns3:cad>81</ns3:cad>
          </ns3:TrackPointExtension>
        </extensions>
      </trkpt>
      <trkpt lat="52.1758406795561313629150390625" lon="1.5118165500462055206298828125">
        <ele>9.80000019073486328125</ele>
        <time>2025-09-06T11:49:55.000Z</time>
        <extensions>
          <ns3:TrackPointExtension>
            <ns3:hr>164</ns3:hr>
            <ns3:cad>81</ns3:cad>
          </ns3:TrackPointExtension>
        </extensions>
      </trkpt>
      <trkpt lat="52.175956182181835174560546875" lon="1.511835493147373199462890625">
        <ele>10.6000003814697265625</ele>
        <time>2025-09-06T11:50:00.000Z</time>
        <extensions>
          <ns3:TrackPointExtension>
            <ns3:hr>165</ns3:hr>
            <ns3:cad>81</ns3:cad>
          </ns3:TrackPointExtension>
        </extensions>
      </trkpt>
      <trkpt lat="52.175979651510715484619140625" lon="1.511841528117656707763671875">
        <ele>10.80000019073486328125</ele>
        <time>2025-09-06T11:50:01.000Z</time>
        <extensions>
          <ns3:TrackPointExtension>
            <ns3:hr>164</ns3:hr>
            <ns3:cad>81</ns3:cad>
          </ns3:TrackPointExtension>
        </extensions>
      </trkpt>
      <trkpt lat="52.17611401341855525970458984375" lon="1.5118594653904438018798828125">
        <ele>11.6000003814697265625</ele>
        <time>2025-09-06T11:50:08.000Z</time>
        <extensions>
          <ns3:TrackPointExtension>
            <ns3:hr>165</ns3:hr>
            <ns3:cad>79</ns3:cad>
          </ns3:TrackPointExtension>
        </extensions>
      </trkpt>
      <trkpt lat="52.17617419548332691192626953125" lon="1.51186759583652019500732421875">
        <ele>11.80000019073486328125</ele>
        <time>2025-09-06T11:50:11.000Z</time>
        <extensions>
          <ns3:TrackPointExtension>
            <ns3:hr>163</ns3:hr>
            <ns3:cad>79</ns3:cad>
          </ns3:TrackPointExtension>
        </extensions>
      </trkpt>
      <trkpt lat="52.176275365054607391357421875" lon="1.51187899522483348846435546875">
        <ele>12.19999980926513671875</ele>
        <time>2025-09-06T11:50:16.000Z</time>
        <extensions>
          <ns3:TrackPointExtension>
            <ns3:hr>163</ns3:hr>
            <ns3:cad>80</ns3:cad>
          </ns3:TrackPointExtension>
        </extensions>
      </trkpt>
      <trkpt lat="52.17646010220050811767578125" lon="1.51189860887825489044189453125">
        <ele>12.6000003814697265625</ele>
        <time>2025-09-06T11:50:24.000Z</time>
        <extensions>
          <ns3:TrackPointExtension>
            <ns3:hr>159</ns3:hr>
            <ns3:cad>80</ns3:cad>
          </ns3:TrackPointExtension>
        </extensions>
      </trkpt>
      <trkpt lat="52.1764800511300563812255859375" lon="1.51189349591732025146484375">
        <ele>12.80000019073486328125</ele>
        <time>2025-09-06T11:50:25.000Z</time>
        <extensions>
          <ns3:TrackPointExtension>
            <ns3:hr>159</ns3:hr>
            <ns3:cad>79</ns3:cad>
          </ns3:TrackPointExtension>
        </extensions>
      </trkpt>
      <trkpt lat="52.176542580127716064453125" lon="1.51189290918409824371337890625">
        <ele>12.80000019073486328125</ele>
        <time>2025-09-06T11:50:28.000Z</time>
        <extensions>
          <ns3:TrackPointExtension>
            <ns3:hr>158</ns3:hr>
            <ns3:cad>78</ns3:cad>
          </ns3:TrackPointExtension>
        </extensions>
      </trkpt>
      <trkpt lat="52.17665850184857845306396484375" lon="1.51187916286289691925048828125">
        <ele>13</ele>
        <time>2025-09-06T11:50:34.000Z</time>
        <extensions>
          <ns3:TrackPointExtension>
            <ns3:hr>158</ns3:hr>
            <ns3:cad>80</ns3:cad>
          </ns3:TrackPointExtension>
        </extensions>
      </trkpt>
      <trkpt lat="52.1767583303153514862060546875" lon="1.51188922114670276641845703125">
        <ele>13.19999980926513671875</ele>
        <time>2025-09-06T11:50:39.000Z</time>
        <extensions>
          <ns3:TrackPointExtension>
            <ns3:hr>159</ns3:hr>
            <ns3:cad>79</ns3:cad>
          </ns3:TrackPointExtension>
        </extensions>
      </trkpt>
      <trkpt lat="52.17684642411768436431884765625" lon="1.51190464384853839874267578125">
        <ele>13.19999980926513671875</ele>
        <time>2025-09-06T11:50:43.000Z</time>
        <extensions>
          <ns3:TrackPointExtension>
            <ns3:hr>158</ns3:hr>
            <ns3:cad>79</ns3:cad>
          </ns3:TrackPointExtension>
        </extensions>
      </trkpt>
      <trkpt lat="52.17693024314939975738525390625" lon="1.51191554032266139984130859375">
        <ele>13.19999980926513671875</ele>
        <time>2025-09-06T11:50:47.000Z</time>
        <extensions>
          <ns3:TrackPointExtension>
            <ns3:hr>161</ns3:hr>
            <ns3:cad>79</ns3:cad>
          </ns3:TrackPointExtension>
        </extensions>
      </trkpt>
      <trkpt lat="52.17703945934772491455078125" lon="1.5119328908622264862060546875">
        <ele>13.19999980926513671875</ele>
        <time>2025-09-06T11:50:52.000Z</time>
        <extensions>
          <ns3:TrackPointExtension>
            <ns3:hr>162</ns3:hr>
            <ns3:cad>80</ns3:cad>
          </ns3:TrackPointExtension>
        </extensions>
      </trkpt>
      <trkpt lat="52.17720299027860164642333984375" lon="1.51194621808826923370361328125">
        <ele>13.19999980926513671875</ele>
        <time>2025-09-06T11:51:00.000Z</time>
        <extensions>
          <ns3:TrackPointExtension>
            <ns3:hr>163</ns3:hr>
            <ns3:cad>80</ns3:cad>
          </ns3:TrackPointExtension>
        </extensions>
      </trkpt>
      <trkpt lat="52.17737884260714054107666015625" lon="1.51197723113000392913818359375">
        <ele>13</ele>
        <time>2025-09-06T11:51:09.000Z</time>
        <extensions>
          <ns3:TrackPointExtension>
            <ns3:hr>164</ns3:hr>
            <ns3:cad>81</ns3:cad>
          </ns3:TrackPointExtension>
        </extensions>
      </trkpt>
      <trkpt lat="52.17752116732299327850341796875" lon="1.51202014647424221038818359375">
        <ele>13</ele>
        <time>2025-09-06T11:51:17.000Z</time>
        <extensions>
          <ns3:TrackPointExtension>
            <ns3:hr>165</ns3:hr>
            <ns3:cad>40</ns3:cad>
          </ns3:TrackPointExtension>
        </extensions>
      </trkpt>
      <trkpt lat="52.17758906073868274688720703125" lon="1.51205417700111865997314453125">
        <ele>13.19999980926513671875</ele>
        <time>2025-09-06T11:51:23.000Z</time>
        <extensions>
          <ns3:TrackPointExtension>
            <ns3:hr>163</ns3:hr>
            <ns3:cad>0</ns3:cad>
          </ns3:TrackPointExtension>
        </extensions>
      </trkpt>
      <trkpt lat="52.177623175084590911865234375" lon="1.5121208131313323974609375">
        <ele>13</ele>
        <time>2025-09-06T11:51:30.000Z</time>
        <extensions>
          <ns3:TrackPointExtension>
            <ns3:hr>161</ns3:hr>
            <ns3:cad>0</ns3:cad>
          </ns3:TrackPointExtension>
        </extensions>
      </trkpt>
      <trkpt lat="52.177702970802783966064453125" lon="1.5122155286371707916259765625">
        <ele>13</ele>
        <time>2025-09-06T11:51:37.000Z</time>
        <extensions>
          <ns3:TrackPointExtension>
            <ns3:hr>158</ns3:hr>
            <ns3:cad>79</ns3:cad>
          </ns3:TrackPointExtension>
        </extensions>
      </trkpt>
      <trkpt lat="52.17770908959209918975830078125" lon="1.51222500018775463104248046875">
        <ele>12.80000019073486328125</ele>
        <time>2025-09-06T11:51:38.000Z</time>
        <extensions>
          <ns3:TrackPointExtension>
            <ns3:hr>159</ns3:hr>
            <ns3:cad>79</ns3:cad>
          </ns3:TrackPointExtension>
        </extensions>
      </trkpt>
      <trkpt lat="52.17779458500444889068603515625" lon="1.51232440955936908721923828125">
        <ele>13</ele>
        <time>2025-09-06T11:51:44.000Z</time>
        <extensions>
          <ns3:TrackPointExtension>
            <ns3:hr>163</ns3:hr>
            <ns3:cad>81</ns3:cad>
          </ns3:TrackPointExtension>
        </extensions>
      </trkpt>
      <trkpt lat="52.17787630856037139892578125" lon="1.51240848004817962646484375">
        <ele>13.6000003814697265625</ele>
        <time>2025-09-06T11:51:49.000Z</time>
        <extensions>
          <ns3:TrackPointExtension>
            <ns3:hr>160</ns3:hr>
            <ns3:cad>81</ns3:cad>
          </ns3:TrackPointExtension>
        </extensions>
      </trkpt>
      <trkpt lat="52.17789231799542903900146484375" lon="1.51242457330226898193359375">
        <ele>13.80000019073486328125</ele>
        <time>2025-09-06T11:51:50.000Z</time>
        <extensions>
          <ns3:TrackPointExtension>
            <ns3:hr>157</ns3:hr>
            <ns3:cad>81</ns3:cad>
          </ns3:TrackPointExtension>
        </extensions>
      </trkpt>
      <trkpt lat="52.1779093332588672637939453125" lon="1.51243873871862888336181640625">
        <ele>14</ele>
        <time>2025-09-06T11:51:51.000Z</time>
        <extensions>
          <ns3:TrackPointExtension>
            <ns3:hr>157</ns3:hr>
            <ns3:cad>81</ns3:cad>
          </ns3:TrackPointExtension>
        </extensions>
      </trkpt>
      <trkpt lat="52.17792618088424205780029296875" lon="1.51245550252497196197509765625">
        <ele>14.19999980926513671875</ele>
        <time>2025-09-06T11:51:52.000Z</time>
        <extensions>
          <ns3:TrackPointExtension>
            <ns3:hr>156</ns3:hr>
            <ns3:cad>81</ns3:cad>
          </ns3:TrackPointExtension>
        </extensions>
      </trkpt>
      <trkpt lat="52.17795836739242076873779296875" lon="1.51248953305184841156005859375">
        <ele>14.6000003814697265625</ele>
        <time>2025-09-06T11:51:54.000Z</time>
        <extensions>
          <ns3:TrackPointExtension>
            <ns3:hr>153</ns3:hr>
            <ns3:cad>81</ns3:cad>
          </ns3:TrackPointExtension>
        </extensions>
      </trkpt>
      <trkpt lat="52.178004719316959381103515625" lon="1.5125618688762187957763671875">
        <ele>15.19999980926513671875</ele>
        <time>2025-09-06T11:51:57.000Z</time>
        <extensions>
          <ns3:TrackPointExtension>
            <ns3:hr>152</ns3:hr>
            <ns3:cad>80</ns3:cad>
          </ns3:TrackPointExtension>
        </extensions>
      </trkpt>
      <trkpt lat="52.178036905825138092041015625" lon="1.5126037783920764923095703125">
        <ele>15.6000003814697265625</ele>
        <time>2025-09-06T11:51:59.000Z</time>
        <extensions>
          <ns3:TrackPointExtension>
            <ns3:hr>154</ns3:hr>
            <ns3:cad>80</ns3:cad>
          </ns3:TrackPointExtension>
        </extensions>
      </trkpt>
      <trkpt lat="52.17808686196804046630859375" lon="1.51264778338372707366943359375">
        <ele>16.200000762939453125</ele>
        <time>2025-09-06T11:52:02.000Z</time>
        <extensions>
          <ns3:TrackPointExtension>
            <ns3:hr>155</ns3:hr>
            <ns3:cad>81</ns3:cad>
          </ns3:TrackPointExtension>
        </extensions>
      </trkpt>
      <trkpt lat="52.178150899708271026611328125" lon="1.5127429179847240447998046875">
        <ele>17.3999996185302734375</ele>
        <time>2025-09-06T11:52:07.000Z</time>
        <extensions>
          <ns3:TrackPointExtension>
            <ns3:hr>158</ns3:hr>
            <ns3:cad>81</ns3:cad>
          </ns3:TrackPointExtension>
        </extensions>
      </trkpt>
      <trkpt lat="52.178227007389068603515625" lon="1.512827910482883453369140625">
        <ele>18.3999996185302734375</ele>
        <time>2025-09-06T11:52:12.000Z</time>
        <extensions>
          <ns3:TrackPointExtension>
            <ns3:hr>160</ns3:hr>
            <ns3:cad>81</ns3:cad>
          </ns3:TrackPointExtension>
        </extensions>
      </trkpt>
      <trkpt lat="52.1782811544835567474365234375" lon="1.51290812529623508453369140625">
        <ele>19.200000762939453125</ele>
        <time>2025-09-06T11:52:16.000Z</time>
        <extensions>
          <ns3:TrackPointExtension>
            <ns3:hr>161</ns3:hr>
            <ns3:cad>81</ns3:cad>
          </ns3:TrackPointExtension>
        </extensions>
      </trkpt>
      <trkpt lat="52.1782980859279632568359375" lon="1.51292505674064159393310546875">
        <ele>19.6000003814697265625</ele>
        <time>2025-09-06T11:52:17.000Z</time>
        <extensions>
          <ns3:TrackPointExtension>
            <ns3:hr>160</ns3:hr>
            <ns3:cad>81</ns3:cad>
          </ns3:TrackPointExtension>
        </extensions>
      </trkpt>
      <trkpt lat="52.17840344645082950592041015625" lon="1.5129843167960643768310546875">
        <ele>20.3999996185302734375</ele>
        <time>2025-09-06T11:52:21.000Z</time>
        <extensions>
          <ns3:TrackPointExtension>
            <ns3:hr>163</ns3:hr>
            <ns3:cad>82</ns3:cad>
          </ns3:TrackPointExtension>
        </extensions>
      </trkpt>
      <trkpt lat="52.1784427575767040252685546875" lon="1.5130010806024074554443359375">
        <ele>20.6000003814697265625</ele>
        <time>2025-09-06T11:52:22.000Z</time>
        <extensions>
          <ns3:TrackPointExtension>
            <ns3:hr>162</ns3:hr>
            <ns3:cad>82</ns3:cad>
          </ns3:TrackPointExtension>
        </extensions>
      </trkpt>
      <trkpt lat="52.17851341702044010162353515625" lon="1.5130434930324554443359375">
        <ele>21.200000762939453125</ele>
        <time>2025-09-06T11:52:25.000Z</time>
        <extensions>
          <ns3:TrackPointExtension>
            <ns3:hr>162</ns3:hr>
            <ns3:cad>82</ns3:cad>
          </ns3:TrackPointExtension>
        </extensions>
      </trkpt>
      <trkpt lat="52.17854979448020458221435546875" lon="1.51307358406484127044677734375">
        <ele>21.6000003814697265625</ele>
        <time>2025-09-06T11:52:27.000Z</time>
        <extensions>
          <ns3:TrackPointExtension>
            <ns3:hr>162</ns3:hr>
            <ns3:cad>82</ns3:cad>
          </ns3:TrackPointExtension>
        </extensions>
      </trkpt>
      <trkpt lat="52.17866982333362102508544921875" lon="1.51317290961742401123046875">
        <ele>22.799999237060546875</ele>
        <time>2025-09-06T11:52:33.000Z</time>
        <extensions>
          <ns3:TrackPointExtension>
            <ns3:hr>163</ns3:hr>
            <ns3:cad>81</ns3:cad>
          </ns3:TrackPointExtension>
        </extensions>
      </trkpt>
      <trkpt lat="52.17869379557669162750244140625" lon="1.5131844766438007354736328125">
        <ele>23</ele>
        <time>2025-09-06T11:52:34.000Z</time>
        <extensions>
          <ns3:TrackPointExtension>
            <ns3:hr>164</ns3:hr>
            <ns3:cad>81</ns3:cad>
          </ns3:TrackPointExtension>
        </extensions>
      </trkpt>
      <trkpt lat="52.17877887189388275146484375" lon="1.51325245387852191925048828125">
        <ele>23.799999237060546875</ele>
        <time>2025-09-06T11:52:39.000Z</time>
        <extensions>
          <ns3:TrackPointExtension>
            <ns3:hr>164</ns3:hr>
            <ns3:cad>82</ns3:cad>
          </ns3:TrackPointExtension>
        </extensions>
      </trkpt>
      <trkpt lat="52.1788377128541469573974609375" lon="1.51327994652092456817626953125">
        <ele>24.200000762939453125</ele>
        <time>2025-09-06T11:52:42.000Z</time>
        <extensions>
          <ns3:TrackPointExtension>
            <ns3:hr>163</ns3:hr>
            <ns3:cad>81</ns3:cad>
          </ns3:TrackPointExtension>
        </extensions>
      </trkpt>
      <trkpt lat="52.17891356907784938812255859375" lon="1.5133353509008884429931640625">
        <ele>24.799999237060546875</ele>
        <time>2025-09-06T11:52:46.000Z</time>
        <extensions>
          <ns3:TrackPointExtension>
            <ns3:hr>163</ns3:hr>
            <ns3:cad>82</ns3:cad>
          </ns3:TrackPointExtension>
        </extensions>
      </trkpt>
      <trkpt lat="52.17902437783777713775634765625" lon="1.513419337570667266845703125">
        <ele>25.799999237060546875</ele>
        <time>2025-09-06T11:52:52.000Z</time>
        <extensions>
          <ns3:TrackPointExtension>
            <ns3:hr>163</ns3:hr>
            <ns3:cad>81</ns3:cad>
          </ns3:TrackPointExtension>
        </extensions>
      </trkpt>
      <trkpt lat="52.17909009195864200592041015625" lon="1.513437442481517791748046875">
        <ele>26</ele>
        <time>2025-09-06T11:52:54.000Z</time>
        <extensions>
          <ns3:TrackPointExtension>
            <ns3:hr>161</ns3:hr>
            <ns3:cad>81</ns3:cad>
          </ns3:TrackPointExtension>
        </extensions>
      </trkpt>
      <trkpt lat="52.1791686303913593292236328125" lon="1.5135247819125652313232421875">
        <ele>26.6000003814697265625</ele>
        <time>2025-09-06T11:52:59.000Z</time>
        <extensions>
          <ns3:TrackPointExtension>
            <ns3:hr>163</ns3:hr>
            <ns3:cad>81</ns3:cad>
          </ns3:TrackPointExtension>
        </extensions>
      </trkpt>
      <trkpt lat="52.1792477555572986602783203125" lon="1.51358471252024173736572265625">
        <ele>27</ele>
        <time>2025-09-06T11:53:02.000Z</time>
        <extensions>
          <ns3:TrackPointExtension>
            <ns3:hr>162</ns3:hr>
            <ns3:cad>81</ns3:cad>
          </ns3:TrackPointExtension>
        </extensions>
      </trkpt>
      <trkpt lat="52.17933098785579204559326171875" lon="1.51362846605479717254638671875">
        <ele>27.3999996185302734375</ele>
        <time>2025-09-06T11:53:06.000Z</time>
        <extensions>
          <ns3:TrackPointExtension>
            <ns3:hr>162</ns3:hr>
            <ns3:cad>58</ns3:cad>
          </ns3:TrackPointExtension>
        </extensions>
      </trkpt>
      <trkpt lat="52.17951773665845394134521484375" lon="1.51372133754193782806396484375">
        <ele>27.799999237060546875</ele>
        <time>2025-09-06T11:53:15.000Z</time>
        <extensions>
          <ns3:TrackPointExtension>
            <ns3:hr>161</ns3:hr>
            <ns3:cad>60</ns3:cad>
          </ns3:TrackPointExtension>
        </extensions>
      </trkpt>
      <trkpt lat="52.1796162240207195281982421875" lon="1.513798870146274566650390625">
        <ele>27.200000762939453125</ele>
        <time>2025-09-06T11:53:21.000Z</time>
        <extensions>
          <ns3:TrackPointExtension>
            <ns3:hr>158</ns3:hr>
            <ns3:cad>61</ns3:cad>
          </ns3:TrackPointExtension>
        </extensions>
      </trkpt>
      <trkpt lat="52.17965519987046718597412109375" lon="1.5138375945389270782470703125">
        <ele>26</ele>
        <time>2025-09-06T11:53:24.000Z</time>
        <extensions>
          <ns3:TrackPointExtension>
            <ns3:hr>156</ns3:hr>
            <ns3:cad>0</ns3:cad>
          </ns3:TrackPointExtension>
        </extensions>
      </trkpt>
      <trkpt lat="52.17967833392322063446044921875" lon="1.51386014185845851898193359375">
        <ele>24.6000003814697265625</ele>
        <time>2025-09-06T11:53:26.000Z</time>
        <extensions>
          <ns3:TrackPointExtension>
            <ns3:hr>155</ns3:hr>
            <ns3:cad>0</ns3:cad>
          </ns3:TrackPointExtension>
        </extensions>
      </trkpt>
      <trkpt lat="52.17971236445009708404541015625" lon="1.513885371387004852294921875">
        <ele>22.799999237060546875</ele>
        <time>2025-09-06T11:53:28.000Z</time>
        <extensions>
          <ns3:TrackPointExtension>
            <ns3:hr>157</ns3:hr>
            <ns3:cad>0</ns3:cad>
          </ns3:TrackPointExtension>
        </extensions>
      </trkpt>
      <trkpt lat="52.17973784543573856353759765625" lon="1.51391730643808841705322265625">
        <ele>20.799999237060546875</ele>
        <time>2025-09-06T11:53:30.000Z</time>
        <extensions>
          <ns3:TrackPointExtension>
            <ns3:hr>155</ns3:hr>
            <ns3:cad>0</ns3:cad>
          </ns3:TrackPointExtension>
        </extensions>
      </trkpt>
      <trkpt lat="52.17976483516395092010498046875" lon="1.5139294601976871490478515625">
        <ele>19</ele>
        <time>2025-09-06T11:53:32.000Z</time>
        <extensions>
          <ns3:TrackPointExtension>
            <ns3:hr>155</ns3:hr>
            <ns3:cad>60</ns3:cad>
          </ns3:TrackPointExtension>
        </extensions>
      </trkpt>
      <trkpt lat="52.17977606691420078277587890625" lon="1.51394060812890529632568359375">
        <ele>17.799999237060546875</ele>
        <time>2025-09-06T11:53:33.000Z</time>
        <extensions>
          <ns3:TrackPointExtension>
            <ns3:hr>152</ns3:hr>
            <ns3:cad>60</ns3:cad>
          </ns3:TrackPointExtension>
        </extensions>
      </trkpt>
      <trkpt lat="52.1797878853976726531982421875" lon="1.513943374156951904296875">
        <ele>16.799999237060546875</ele>
        <time>2025-09-06T11:53:34.000Z</time>
        <extensions>
          <ns3:TrackPointExtension>
            <ns3:hr>151</ns3:hr>
            <ns3:cad>60</ns3:cad>
          </ns3:TrackPointExtension>
        </extensions>
      </trkpt>
      <trkpt lat="52.1797982789576053619384765625" lon="1.51395720429718494415283203125">
        <ele>15.80000019073486328125</ele>
        <time>2025-09-06T11:53:35.000Z</time>
        <extensions>
          <ns3:TrackPointExtension>
            <ns3:hr>150</ns3:hr>
            <ns3:cad>60</ns3:cad>
          </ns3:TrackPointExtension>
        </extensions>
      </trkpt>
      <trkpt lat="52.17980842106044292449951171875" lon="1.51396424509584903717041015625">
        <ele>14.80000019073486328125</ele>
        <time>2025-09-06T11:53:36.000Z</time>
        <extensions>
          <ns3:TrackPointExtension>
            <ns3:hr>152</ns3:hr>
            <ns3:cad>59</ns3:cad>
          </ns3:TrackPointExtension>
        </extensions>
      </trkpt>
      <trkpt lat="52.17981948517262935638427734375" lon="1.51396944187581539154052734375">
        <ele>13.80000019073486328125</ele>
        <time>2025-09-06T11:53:37.000Z</time>
        <extensions>
          <ns3:TrackPointExtension>
            <ns3:hr>150</ns3:hr>
            <ns3:cad>58</ns3:cad>
          </ns3:TrackPointExtension>
        </extensions>
      </trkpt>
      <trkpt lat="52.17982920818030834197998046875" lon="1.51397489011287689208984375">
        <ele>12.80000019073486328125</ele>
        <time>2025-09-06T11:53:38.000Z</time>
        <extensions>
          <ns3:TrackPointExtension>
            <ns3:hr>148</ns3:hr>
            <ns3:cad>58</ns3:cad>
          </ns3:TrackPointExtension>
        </extensions>
      </trkpt>
      <trkpt lat="52.17984077520668506622314453125" lon="1.51398025453090667724609375">
        <ele>11.80000019073486328125</ele>
        <time>2025-09-06T11:53:39.000Z</time>
        <extensions>
          <ns3:TrackPointExtension>
            <ns3:hr>146</ns3:hr>
            <ns3:cad>57</ns3:cad>
          </ns3:TrackPointExtension>
        </extensions>
      </trkpt>
      <trkpt lat="52.17985301278531551361083984375" lon="1.51398872025310993194580078125">
        <ele>10.80000019073486328125</ele>
        <time>2025-09-06T11:53:40.000Z</time>
        <extensions>
          <ns3:TrackPointExtension>
            <ns3:hr>147</ns3:hr>
            <ns3:cad>55</ns3:cad>
          </ns3:TrackPointExtension>
        </extensions>
      </trkpt>
      <trkpt lat="52.17986273579299449920654296875" lon="1.513995341956615447998046875">
        <ele>9.80000019073486328125</ele>
        <time>2025-09-06T11:53:41.000Z</time>
        <extensions>
          <ns3:TrackPointExtension>
            <ns3:hr>145</ns3:hr>
            <ns3:cad>52</ns3:cad>
          </ns3:TrackPointExtension>
        </extensions>
      </trkpt>
      <trkpt lat="52.17987597920000553131103515625" lon="1.51400213129818439483642578125">
        <ele>8.80000019073486328125</ele>
        <time>2025-09-06T11:53:42.000Z</time>
        <extensions>
          <ns3:TrackPointExtension>
            <ns3:hr>144</ns3:hr>
            <ns3:cad>52</ns3:cad>
          </ns3:TrackPointExtension>
        </extensions>
      </trkpt>
      <trkpt lat="52.17989291064441204071044921875" lon="1.51400498114526271820068359375">
        <ele>7.80000019073486328125</ele>
        <time>2025-09-06T11:53:43.000Z</time>
        <extensions>
          <ns3:TrackPointExtension>
            <ns3:hr>144</ns3:hr>
            <ns3:cad>52</ns3:cad>
          </ns3:TrackPointExtension>
        </extensions>
      </trkpt>
      <trkpt lat="52.1799414418637752532958984375" lon="1.5140075795352458953857421875">
        <ele>5.80000019073486328125</ele>
        <time>2025-09-06T11:53:45.000Z</time>
        <extensions>
          <ns3:TrackPointExtension>
            <ns3:hr>141</ns3:hr>
            <ns3:cad>77</ns3:cad>
          </ns3:TrackPointExtension>
        </extensions>
      </trkpt>
      <trkpt lat="52.1799883805215358734130859375" lon="1.51400464586913585662841796875">
        <ele>3.7999999523162841796875</ele>
        <time>2025-09-06T11:53:47.000Z</time>
        <extensions>
          <ns3:TrackPointExtension>
            <ns3:hr>140</ns3:hr>
            <ns3:cad>77</ns3:cad>
          </ns3:TrackPointExtension>
        </extensions>
      </trkpt>
      <trkpt lat="52.180037163197994232177734375" lon="1.51400347240269184112548828125">
        <ele>2</ele>
        <time>2025-09-06T11:53:49.000Z</time>
        <extensions>
          <ns3:TrackPointExtension>
            <ns3:hr>140</ns3:hr>
            <ns3:cad>78</ns3:cad>
          </ns3:TrackPointExtension>
        </extensions>
      </trkpt>
      <trkpt lat="52.180078066885471343994140625" lon="1.5140095911920070648193359375">
        <ele>0</ele>
        <time>2025-09-06T11:53:51.000Z</time>
        <extensions>
          <ns3:TrackPointExtension>
            <ns3:hr>139</ns3:hr>
            <ns3:cad>78</ns3:cad>
          </ns3:TrackPointExtension>
        </extensions>
      </trkpt>
      <trkpt lat="52.18011871911585330963134765625" lon="1.51401738636195659637451171875">
        <ele>-1.7999999523162841796875</ele>
        <time>2025-09-06T11:53:53.000Z</time>
        <extensions>
          <ns3:TrackPointExtension>
            <ns3:hr>143</ns3:hr>
            <ns3:cad>79</ns3:cad>
          </ns3:TrackPointExtension>
        </extensions>
      </trkpt>
      <trkpt lat="52.180139087140560150146484375" lon="1.51401923038065433502197265625">
        <ele>-2.599999904632568359375</ele>
        <time>2025-09-06T11:53:54.000Z</time>
        <extensions>
          <ns3:TrackPointExtension>
            <ns3:hr>146</ns3:hr>
            <ns3:cad>79</ns3:cad>
          </ns3:TrackPointExtension>
        </extensions>
      </trkpt>
      <trkpt lat="52.18016020953655242919921875" lon="1.514019481837749481201171875">
        <ele>-3.400000095367431640625</ele>
        <time>2025-09-06T11:53:55.000Z</time>
        <extensions>
          <ns3:TrackPointExtension>
            <ns3:hr>148</ns3:hr>
            <ns3:cad>80</ns3:cad>
          </ns3:TrackPointExtension>
        </extensions>
      </trkpt>
      <trkpt lat="52.1801942400634288787841796875" lon="1.51402208022773265838623046875">
        <ele>-5.19999980926513671875</ele>
        <time>2025-09-06T11:53:57.000Z</time>
        <extensions>
          <ns3:TrackPointExtension>
            <ns3:hr>150</ns3:hr>
            <ns3:cad>80</ns3:cad>
          </ns3:TrackPointExtension>
        </extensions>
      </trkpt>
      <trkpt lat="52.18020848929882049560546875" lon="1.514026187360286712646484375">
        <ele>-6</ele>
        <time>2025-09-06T11:53:58.000Z</time>
        <extensions>
          <ns3:TrackPointExtension>
            <ns3:hr>151</ns3:hr>
            <ns3:cad>81</ns3:cad>
          </ns3:TrackPointExtension>
        </extensions>
      </trkpt>
      <trkpt lat="52.1802239120006561279296875" lon="1.51402509771287441253662109375">
        <ele>-6.80000019073486328125</ele>
        <time>2025-09-06T11:53:59.000Z</time>
        <extensions>
          <ns3:TrackPointExtension>
            <ns3:hr>151</ns3:hr>
            <ns3:cad>81</ns3:cad>
          </ns3:TrackPointExtension>
        </extensions>
      </trkpt>
      <trkpt lat="52.1802587807178497314453125" lon="1.51401151902973651885986328125">
        <ele>-8.3999996185302734375</ele>
        <time>2025-09-06T11:54:01.000Z</time>
        <extensions>
          <ns3:TrackPointExtension>
            <ns3:hr>154</ns3:hr>
            <ns3:cad>81</ns3:cad>
          </ns3:TrackPointExtension>
        </extensions>
      </trkpt>
      <trkpt lat="52.18029373325407505035400390625" lon="1.51400799863040447235107421875">
        <ele>-10</ele>
        <time>2025-09-06T11:54:03.000Z</time>
        <extensions>
          <ns3:TrackPointExtension>
            <ns3:hr>157</ns3:hr>
            <ns3:cad>81</ns3:cad>
          </ns3:TrackPointExtension>
        </extensions>
      </trkpt>
      <trkpt lat="52.1803367324173450469970703125" lon="1.514008753001689910888671875">
        <ele>-11.6000003814697265625</ele>
        <time>2025-09-06T11:54:05.000Z</time>
        <extensions>
          <ns3:TrackPointExtension>
            <ns3:hr>159</ns3:hr>
            <ns3:cad>81</ns3:cad>
          </ns3:TrackPointExtension>
        </extensions>
      </trkpt>
      <trkpt lat="52.18037755228579044342041015625" lon="1.51401336304843425750732421875">
        <ele>-13</ele>
        <time>2025-09-06T11:54:07.000Z</time>
        <extensions>
          <ns3:TrackPointExtension>
            <ns3:hr>160</ns3:hr>
            <ns3:cad>81</ns3:cad>
          </ns3:TrackPointExtension>
        </extensions>
      </trkpt>
      <trkpt lat="52.18041946180164813995361328125" lon="1.5140189789235591888427734375">
        <ele>-14.3999996185302734375</ele>
        <time>2025-09-06T11:54:09.000Z</time>
        <extensions>
          <ns3:TrackPointExtension>
            <ns3:hr>160</ns3:hr>
            <ns3:cad>81</ns3:cad>
          </ns3:TrackPointExtension>
        </extensions>
      </trkpt>
      <trkpt lat="52.1804621256887912750244140625" lon="1.5140293724834918975830078125">
        <ele>-15.80000019073486328125</ele>
        <time>2025-09-06T11:54:11.000Z</time>
        <extensions>
          <ns3:TrackPointExtension>
            <ns3:hr>161</ns3:hr>
            <ns3:cad>80</ns3:cad>
          </ns3:TrackPointExtension>
        </extensions>
      </trkpt>
      <trkpt lat="52.18050881288945674896240234375" lon="1.51403482072055339813232421875">
        <ele>-17.200000762939453125</ele>
        <time>2025-09-06T11:54:13.000Z</time>
        <extensions>
          <ns3:TrackPointExtension>
            <ns3:hr>162</ns3:hr>
            <ns3:cad>81</ns3:cad>
          </ns3:TrackPointExtension>
        </extensions>
      </trkpt>
      <trkpt lat="52.18056078068912029266357421875" lon="1.51403834111988544464111328125">
        <ele>-18.6000003814697265625</ele>
        <time>2025-09-06T11:54:14.000Z</time>
        <extensions>
          <ns3:TrackPointExtension>
            <ns3:hr>161</ns3:hr>
            <ns3:cad>81</ns3:cad>
          </ns3:TrackPointExtension>
        </extensions>
      </trkpt>
      <trkpt lat="52.18059950508177280426025390625" lon="1.514040268957614898681640625">
        <ele>-19.799999237060546875</ele>
        <time>2025-09-06T11:54:17.000Z</time>
        <extensions>
          <ns3:TrackPointExtension>
            <ns3:hr>160</ns3:hr>
            <ns3:cad>80</ns3:cad>
          </ns3:TrackPointExtension>
        </extensions>
      </trkpt>
      <trkpt lat="52.18063102103769779205322265625" lon="1.51403683237731456756591796875">
        <ele>-21</ele>
        <time>2025-09-06T11:54:19.000Z</time>
        <extensions>
          <ns3:TrackPointExtension>
            <ns3:hr>160</ns3:hr>
            <ns3:cad>80</ns3:cad>
          </ns3:TrackPointExtension>
        </extensions>
      </trkpt>
      <trkpt lat="52.18066672794520854949951171875" lon="1.514032222330570220947265625">
        <ele>-22.200000762939453125</ele>
        <time>2025-09-06T11:54:21.000Z</time>
        <extensions>
          <ns3:TrackPointExtension>
            <ns3:hr>161</ns3:hr>
            <ns3:cad>81</ns3:cad>
          </ns3:TrackPointExtension>
        </extensions>
      </trkpt>
      <trkpt lat="52.18071676790714263916015625" lon="1.51402140967547893524169921875">
        <ele>-23.3999996185302734375</ele>
        <time>2025-09-06T11:54:23.000Z</time>
        <extensions>
          <ns3:TrackPointExtension>
            <ns3:hr>160</ns3:hr>
            <ns3:cad>81</ns3:cad>
          </ns3:TrackPointExtension>
        </extensions>
      </trkpt>
      <trkpt lat="52.1807595156133174896240234375" lon="1.514010764658451080322265625">
        <ele>-24.6000003814697265625</ele>
        <time>2025-09-06T11:54:25.000Z</time>
        <extensions>
          <ns3:TrackPointExtension>
            <ns3:hr>159</ns3:hr>
            <ns3:cad>81</ns3:cad>
          </ns3:TrackPointExtension>
        </extensions>
      </trkpt>
      <trkpt lat="52.18081659637391567230224609375" lon="1.51400975883007049560546875">
        <ele>-25.6000003814697265625</ele>
        <time>2025-09-06T11:54:27.000Z</time>
        <extensions>
          <ns3:TrackPointExtension>
            <ns3:hr>160</ns3:hr>
            <ns3:cad>81</ns3:cad>
          </ns3:TrackPointExtension>
        </extensions>
      </trkpt>
      <trkpt lat="52.1808617748320102691650390625" lon="1.51400305330753326416015625">
        <ele>-26.799999237060546875</ele>
        <time>2025-09-06T11:54:29.000Z</time>
        <extensions>
          <ns3:TrackPointExtension>
            <ns3:hr>159</ns3:hr>
            <ns3:cad>81</ns3:cad>
          </ns3:TrackPointExtension>
        </extensions>
      </trkpt>
      <trkpt lat="52.18088247813284397125244140625" lon="1.5140028856694698333740234375">
        <ele>-27.3999996185302734375</ele>
        <time>2025-09-06T11:54:30.000Z</time>
        <extensions>
          <ns3:TrackPointExtension>
            <ns3:hr>161</ns3:hr>
            <ns3:cad>81</ns3:cad>
          </ns3:TrackPointExtension>
        </extensions>
      </trkpt>
      <trkpt lat="52.18090225942432880401611328125" lon="1.51399944908916950225830078125">
        <ele>-27.799999237060546875</ele>
        <time>2025-09-06T11:54:31.000Z</time>
        <extensions>
          <ns3:TrackPointExtension>
            <ns3:hr>161</ns3:hr>
            <ns3:cad>81</ns3:cad>
          </ns3:TrackPointExtension>
        </extensions>
      </trkpt>
      <trkpt lat="52.1809452585875988006591796875" lon="1.5139958448708057403564453125">
        <ele>-29</ele>
        <time>2025-09-06T11:54:33.000Z</time>
        <extensions>
          <ns3:TrackPointExtension>
            <ns3:hr>162</ns3:hr>
            <ns3:cad>81</ns3:cad>
          </ns3:TrackPointExtension>
        </extensions>
      </trkpt>
      <trkpt lat="52.18099345453083515167236328125" lon="1.51398788206279277801513671875">
        <ele>-30</ele>
        <time>2025-09-06T11:54:35.000Z</time>
        <extensions>
          <ns3:TrackPointExtension>
            <ns3:hr>163</ns3:hr>
            <ns3:cad>81</ns3:cad>
          </ns3:TrackPointExtension>
        </extensions>
      </trkpt>
      <trkpt lat="52.18103737570345401763916015625" lon="1.513988636434078216552734375">
        <ele>-31.200000762939453125</ele>
        <time>2025-09-06T11:54:37.000Z</time>
        <extensions>
          <ns3:TrackPointExtension>
            <ns3:hr>160</ns3:hr>
            <ns3:cad>80</ns3:cad>
          </ns3:TrackPointExtension>
        </extensions>
      </trkpt>
      <trkpt lat="52.18106000684201717376708984375" lon="1.51398587040603160858154296875">
        <ele>-31.6000003814697265625</ele>
        <time>2025-09-06T11:54:38.000Z</time>
        <extensions>
          <ns3:TrackPointExtension>
            <ns3:hr>161</ns3:hr>
            <ns3:cad>80</ns3:cad>
          </ns3:TrackPointExtension>
        </extensions>
      </trkpt>
      <trkpt lat="52.1810817159712314605712890625" lon="1.51398754678666591644287109375">
        <ele>-32.200000762939453125</ele>
        <time>2025-09-06T11:54:39.000Z</time>
        <extensions>
          <ns3:TrackPointExtension>
            <ns3:hr>162</ns3:hr>
            <ns3:cad>80</ns3:cad>
          </ns3:TrackPointExtension>
        </extensions>
      </trkpt>
      <trkpt lat="52.18112823553383350372314453125" lon="1.51398654095828533172607421875">
        <ele>-33.200000762939453125</ele>
        <time>2025-09-06T11:54:41.000Z</time>
        <extensions>
          <ns3:TrackPointExtension>
            <ns3:hr>160</ns3:hr>
            <ns3:cad>80</ns3:cad>
          </ns3:TrackPointExtension>
        </extensions>
      </trkpt>
      <trkpt lat="52.18117274343967437744140625" lon="1.51398955844342708587646484375">
        <ele>-34.40000152587890625</ele>
        <time>2025-09-06T11:54:43.000Z</time>
        <extensions>
          <ns3:TrackPointExtension>
            <ns3:hr>160</ns3:hr>
            <ns3:cad>81</ns3:cad>
          </ns3:TrackPointExtension>
        </extensions>
      </trkpt>
      <trkpt lat="52.18121699988842010498046875" lon="1.51399257592856884002685546875">
        <ele>-35.40000152587890625</ele>
        <time>2025-09-06T11:54:45.000Z</time>
        <extensions>
          <ns3:TrackPointExtension>
            <ns3:hr>160</ns3:hr>
            <ns3:cad>80</ns3:cad>
          </ns3:TrackPointExtension>
        </extensions>
      </trkpt>
      <trkpt lat="52.18126393854618072509765625" lon="1.5139884687960147857666015625">
        <ele>-36.40000152587890625</ele>
        <time>2025-09-06T11:54:47.000Z</time>
        <extensions>
          <ns3:TrackPointExtension>
            <ns3:hr>160</ns3:hr>
            <ns3:cad>80</ns3:cad>
          </ns3:TrackPointExtension>
        </extensions>
      </trkpt>
      <trkpt lat="52.18131096102297306060791015625" lon="1.51399441994726657867431640625">
        <ele>-37.40000152587890625</ele>
        <time>2025-09-06T11:54:49.000Z</time>
        <extensions>
          <ns3:TrackPointExtension>
            <ns3:hr>161</ns3:hr>
            <ns3:cad>80</ns3:cad>
          </ns3:TrackPointExtension>
        </extensions>
      </trkpt>
      <trkpt lat="52.1813559718430042266845703125" lon="1.5139956772327423095703125">
        <ele>-38.59999847412109375</ele>
        <time>2025-09-06T11:54:51.000Z</time>
        <extensions>
          <ns3:TrackPointExtension>
            <ns3:hr>161</ns3:hr>
            <ns3:cad>80</ns3:cad>
          </ns3:TrackPointExtension>
        </extensions>
      </trkpt>
      <trkpt lat="52.18140182085335254669189453125" lon="1.51399609632790088653564453125">
        <ele>-39.59999847412109375</ele>
        <time>2025-09-06T11:54:53.000Z</time>
        <extensions>
          <ns3:TrackPointExtension>
            <ns3:hr>162</ns3:hr>
            <ns3:cad>80</ns3:cad>
          </ns3:TrackPointExtension>
        </extensions>
      </trkpt>
      <trkpt lat="52.18146518804132938385009765625" lon="1.514008753001689910888671875">
        <ele>-41</ele>
        <time>2025-09-06T11:54:56.000Z</time>
        <extensions>
          <ns3:TrackPointExtension>
            <ns3:hr>161</ns3:hr>
            <ns3:cad>80</ns3:cad>
          </ns3:TrackPointExtension>
        </extensions>
      </trkpt>
      <trkpt lat="52.18148597516119480133056640625" lon="1.514006741344928741455078125">
        <ele>-41.40000152587890625</ele>
        <time>2025-09-06T11:54:57.000Z</time>
        <extensions>
          <ns3:TrackPointExtension>
            <ns3:hr>160</ns3:hr>
            <ns3:cad>80</ns3:cad>
          </ns3:TrackPointExtension>
        </extensions>
      </trkpt>
      <trkpt lat="52.18152277171611785888671875" lon="1.51399928145110607147216796875">
        <ele>-42.40000152587890625</ele>
        <time>2025-09-06T11:54:59.000Z</time>
        <extensions>
          <ns3:TrackPointExtension>
            <ns3:hr>161</ns3:hr>
            <ns3:cad>80</ns3:cad>
          </ns3:TrackPointExtension>
        </extensions>
      </trkpt>
      <trkpt lat="52.18157750554382801055908203125" lon="1.513979248702526092529296875">
        <ele>-43.799999237060546875</ele>
        <time>2025-09-06T11:55:02.000Z</time>
        <extensions>
          <ns3:TrackPointExtension>
            <ns3:hr>160</ns3:hr>
            <ns3:cad>78</ns3:cad>
          </ns3:TrackPointExtension>
        </extensions>
      </trkpt>
      <trkpt lat="52.181594185531139373779296875" lon="1.51396273635327816009521484375">
        <ele>-44.200000762939453125</ele>
        <time>2025-09-06T11:55:03.000Z</time>
        <extensions>
          <ns3:TrackPointExtension>
            <ns3:hr>161</ns3:hr>
            <ns3:cad>78</ns3:cad>
          </ns3:TrackPointExtension>
        </extensions>
      </trkpt>
      <trkpt lat="52.1816288866102695465087890625" lon="1.5139358304440975189208984375">
        <ele>-45.200000762939453125</ele>
        <time>2025-09-06T11:55:05.000Z</time>
        <extensions>
          <ns3:TrackPointExtension>
            <ns3:hr>159</ns3:hr>
            <ns3:cad>78</ns3:cad>
          </ns3:TrackPointExtension>
        </extensions>
      </trkpt>
      <trkpt lat="52.18166434206068515777587890625" lon="1.51392283849418163299560546875">
        <ele>-46.40000152587890625</ele>
        <time>2025-09-06T11:55:08.000Z</time>
        <extensions>
          <ns3:TrackPointExtension>
            <ns3:hr>159</ns3:hr>
            <ns3:cad>78</ns3:cad>
          </ns3:TrackPointExtension>
        </extensions>
      </trkpt>
      <trkpt lat="52.1816721372306346893310546875" lon="1.51392149738967418670654296875">
        <ele>-46.799999237060546875</ele>
        <time>2025-09-06T11:55:09.000Z</time>
        <extensions>
          <ns3:TrackPointExtension>
            <ns3:hr>158</ns3:hr>
            <ns3:cad>79</ns3:cad>
          </ns3:TrackPointExtension>
        </extensions>
      </trkpt>
      <trkpt lat="52.1816912479698657989501953125" lon="1.51391177438199520111083984375">
        <ele>-47.59999847412109375</ele>
        <time>2025-09-06T11:55:11.000Z</time>
        <extensions>
          <ns3:TrackPointExtension>
            <ns3:hr>159</ns3:hr>
            <ns3:cad>79</ns3:cad>
          </ns3:TrackPointExtension>
        </extensions>
      </trkpt>
      <trkpt lat="52.181726954877376556396484375" lon="1.51388528756797313690185546875">
        <ele>-48.799999237060546875</ele>
        <time>2025-09-06T11:55:14.000Z</time>
        <extensions>
          <ns3:TrackPointExtension>
            <ns3:hr>160</ns3:hr>
            <ns3:cad>79</ns3:cad>
          </ns3:TrackPointExtension>
        </extensions>
      </trkpt>
      <trkpt lat="52.18178487382829189300537109375" lon="1.513857208192348480224609375">
        <ele>-50</ele>
        <time>2025-09-06T11:55:17.000Z</time>
        <extensions>
          <ns3:TrackPointExtension>
            <ns3:hr>161</ns3:hr>
            <ns3:cad>79</ns3:cad>
          </ns3:TrackPointExtension>
        </extensions>
      </trkpt>
      <trkpt lat="52.1818545274436473846435546875" lon="1.51382477022707462310791015625">
        <ele>-51.200000762939453125</ele>
        <time>2025-09-06T11:55:20.000Z</time>
        <extensions>
          <ns3:TrackPointExtension>
            <ns3:hr>163</ns3:hr>
            <ns3:cad>79</ns3:cad>
          </ns3:TrackPointExtension>
        </extensions>
      </trkpt>
      <trkpt lat="52.181920073926448822021484375" lon="1.51379928924143314361572265625">
        <ele>-52.40000152587890625</ele>
        <time>2025-09-06T11:55:23.000Z</time>
        <extensions>
          <ns3:TrackPointExtension>
            <ns3:hr>166</ns3:hr>
            <ns3:cad>79</ns3:cad>
          </ns3:TrackPointExtension>
        </extensions>
      </trkpt>
      <trkpt lat="52.1819403581321239471435546875" lon="1.51379040442407131195068359375">
        <ele>-52.799999237060546875</ele>
        <time>2025-09-06T11:55:24.000Z</time>
        <extensions>
          <ns3:TrackPointExtension>
            <ns3:hr>168</ns3:hr>
            <ns3:cad>79</ns3:cad>
          </ns3:TrackPointExtension>
        </extensions>
      </trkpt>
      <trkpt lat="52.18197866342961788177490234375" lon="1.5137702040374279022216796875">
        <ele>-53.59999847412109375</ele>
        <time>2025-09-06T11:55:26.000Z</time>
        <extensions>
          <ns3:TrackPointExtension>
            <ns3:hr>169</ns3:hr>
            <ns3:cad>80</ns3:cad>
          </ns3:TrackPointExtension>
        </extensions>
      </trkpt>
      <trkpt lat="52.18203733675181865692138671875" lon="1.5137390233576297760009765625">
        <ele>-54.59999847412109375</ele>
        <time>2025-09-06T11:55:29.000Z</time>
        <extensions>
          <ns3:TrackPointExtension>
            <ns3:hr>170</ns3:hr>
            <ns3:cad>78</ns3:cad>
          </ns3:TrackPointExtension>
        </extensions>
      </trkpt>
      <trkpt lat="52.182099111378192901611328125" lon="1.5137148834764957427978515625">
        <ele>-55.799999237060546875</ele>
        <time>2025-09-06T11:55:32.000Z</time>
        <extensions>
          <ns3:TrackPointExtension>
            <ns3:hr>170</ns3:hr>
            <ns3:cad>78</ns3:cad>
          </ns3:TrackPointExtension>
        </extensions>
      </trkpt>
      <trkpt lat="52.182162143290042877197265625" lon="1.51369870640337467193603515625">
        <ele>-56.799999237060546875</ele>
        <time>2025-09-06T11:55:35.000Z</time>
        <extensions>
          <ns3:TrackPointExtension>
            <ns3:hr>170</ns3:hr>
            <ns3:cad>77</ns3:cad>
          </ns3:TrackPointExtension>
        </extensions>
      </trkpt>
      <trkpt lat="52.18222525902092456817626953125" lon="1.51365595869719982147216796875">
        <ele>-57.799999237060546875</ele>
        <time>2025-09-06T11:55:38.000Z</time>
        <extensions>
          <ns3:TrackPointExtension>
            <ns3:hr>168</ns3:hr>
            <ns3:cad>79</ns3:cad>
          </ns3:TrackPointExtension>
        </extensions>
      </trkpt>
      <trkpt lat="52.18224537558853626251220703125" lon="1.5136478282511234283447265625">
        <ele>-58.200000762939453125</ele>
        <time>2025-09-06T11:55:39.000Z</time>
        <extensions>
          <ns3:TrackPointExtension>
            <ns3:hr>169</ns3:hr>
            <ns3:cad>79</ns3:cad>
          </ns3:TrackPointExtension>
        </extensions>
      </trkpt>
      <trkpt lat="52.18228560872375965118408203125" lon="1.51362930424511432647705078125">
        <ele>-59</ele>
        <time>2025-09-06T11:55:41.000Z</time>
        <extensions>
          <ns3:TrackPointExtension>
            <ns3:hr>170</ns3:hr>
            <ns3:cad>79</ns3:cad>
          </ns3:TrackPointExtension>
        </extensions>
      </trkpt>
      <trkpt lat="52.18235098756849765777587890625" lon="1.51359711773693561553955078125">
        <ele>-60</ele>
        <time>2025-09-06T11:55:44.000Z</time>
        <extensions>
          <ns3:TrackPointExtension>
            <ns3:hr>171</ns3:hr>
            <ns3:cad>79</ns3:cad>
          </ns3:TrackPointExtension>
        </extensions>
      </trkpt>
      <trkpt lat="52.1824340522289276123046875" lon="1.51354548521339893341064453125">
        <ele>-61.200000762939453125</ele>
        <time>2025-09-06T11:55:48.000Z</time>
        <extensions>
          <ns3:TrackPointExtension>
            <ns3:hr>170</ns3:hr>
            <ns3:cad>80</ns3:cad>
          </ns3:TrackPointExtension>
        </extensions>
      </trkpt>
      <trkpt lat="52.18251443468034267425537109375" lon="1.5134905837476253509521484375">
        <ele>-62.59999847412109375</ele>
        <time>2025-09-06T11:55:52.000Z</time>
        <extensions>
          <ns3:TrackPointExtension>
            <ns3:hr>171</ns3:hr>
            <ns3:cad>80</ns3:cad>
          </ns3:TrackPointExtension>
        </extensions>
      </trkpt>
      <trkpt lat="52.18258358538150787353515625" lon="1.5134218521416187286376953125">
        <ele>-63.799999237060546875</ele>
        <time>2025-09-06T11:55:56.000Z</time>
        <extensions>
          <ns3:TrackPointExtension>
            <ns3:hr>172</ns3:hr>
            <ns3:cad>80</ns3:cad>
          </ns3:TrackPointExtension>
        </extensions>
      </trkpt>
      <trkpt lat="52.1826021932065486907958984375" lon="1.51340969838201999664306640625">
        <ele>-64.1999969482421875</ele>
        <time>2025-09-06T11:55:57.000Z</time>
        <extensions>
          <ns3:TrackPointExtension>
            <ns3:hr>171</ns3:hr>
            <ns3:cad>80</ns3:cad>
          </ns3:TrackPointExtension>
        </extensions>
      </trkpt>
      <trkpt lat="52.18265240080654621124267578125" lon="1.51337298564612865447998046875">
        <ele>-65</ele>
        <time>2025-09-06T11:56:00.000Z</time>
        <extensions>
          <ns3:TrackPointExtension>
            <ns3:hr>171</ns3:hr>
            <ns3:cad>80</ns3:cad>
          </ns3:TrackPointExtension>
        </extensions>
      </trkpt>
      <trkpt lat="52.1826749481260776519775390625" lon="1.5133618377149105072021484375">
        <ele>-65.59999847412109375</ele>
        <time>2025-09-06T11:56:02.000Z</time>
        <extensions>
          <ns3:TrackPointExtension>
            <ns3:hr>174</ns3:hr>
            <ns3:cad>80</ns3:cad>
          </ns3:TrackPointExtension>
        </extensions>
      </trkpt>
      <trkpt lat="52.18269347213208675384521484375" lon="1.51334700174629688262939453125">
        <ele>-66.1999969482421875</ele>
        <time>2025-09-06T11:56:04.000Z</time>
        <extensions>
          <ns3:TrackPointExtension>
            <ns3:hr>172</ns3:hr>
            <ns3:cad>0</ns3:cad>
          </ns3:TrackPointExtension>
        </extensions>
      </trkpt>
      <trkpt lat="52.18275583349168300628662109375" lon="1.5133081935346126556396484375">
        <ele>-67.59999847412109375</ele>
        <time>2025-09-06T11:56:08.000Z</time>
        <extensions>
          <ns3:TrackPointExtension>
            <ns3:hr>174</ns3:hr>
            <ns3:cad>0</ns3:cad>
          </ns3:TrackPointExtension>
        </extensions>
      </trkpt>
      <trkpt lat="52.18280394561588764190673828125" lon="1.5132687985897064208984375">
        <ele>-68.40000152587890625</ele>
        <time>2025-09-06T11:56:11.000Z</time>
        <extensions>
          <ns3:TrackPointExtension>
            <ns3:hr>172</ns3:hr>
            <ns3:cad>79</ns3:cad>
          </ns3:TrackPointExtension>
        </extensions>
      </trkpt>
      <trkpt lat="52.18281853012740612030029296875" lon="1.51325228624045848846435546875">
        <ele>-68.8000030517578125</ele>
        <time>2025-09-06T11:56:12.000Z</time>
        <extensions>
          <ns3:TrackPointExtension>
            <ns3:hr>172</ns3:hr>
            <ns3:cad>79</ns3:cad>
          </ns3:TrackPointExtension>
        </extensions>
      </trkpt>
      <trkpt lat="52.18288977630436420440673828125" lon="1.513213813304901123046875">
        <ele>-70</ele>
        <time>2025-09-06T11:56:16.000Z</time>
        <extensions>
          <ns3:TrackPointExtension>
            <ns3:hr>170</ns3:hr>
            <ns3:cad>78</ns3:cad>
          </ns3:TrackPointExtension>
        </extensions>
      </trkpt>
      <trkpt lat="52.18293788842856884002685546875" lon="1.51318573392927646636962890625">
        <ele>-70.8000030517578125</ele>
        <time>2025-09-06T11:56:19.000Z</time>
        <extensions>
          <ns3:TrackPointExtension>
            <ns3:hr>171</ns3:hr>
            <ns3:cad>78</ns3:cad>
          </ns3:TrackPointExtension>
        </extensions>
      </trkpt>
      <trkpt lat="52.18295414932072162628173828125" lon="1.51317517273128032684326171875">
        <ele>-71.1999969482421875</ele>
        <time>2025-09-06T11:56:20.000Z</time>
        <extensions>
          <ns3:TrackPointExtension>
            <ns3:hr>171</ns3:hr>
            <ns3:cad>79</ns3:cad>
          </ns3:TrackPointExtension>
        </extensions>
      </trkpt>
      <trkpt lat="52.1830414049327373504638671875" lon="1.513126306235790252685546875">
        <ele>-72.1999969482421875</ele>
        <time>2025-09-06T11:56:25.000Z</time>
        <extensions>
          <ns3:TrackPointExtension>
            <ns3:hr>169</ns3:hr>
            <ns3:cad>80</ns3:cad>
          </ns3:TrackPointExtension>
        </extensions>
      </trkpt>
      <trkpt lat="52.183076441287994384765625" lon="1.51309872977435588836669921875">
        <ele>-72.40000152587890625</ele>
        <time>2025-09-06T11:56:27.000Z</time>
        <extensions>
          <ns3:TrackPointExtension>
            <ns3:hr>172</ns3:hr>
            <ns3:cad>80</ns3:cad>
          </ns3:TrackPointExtension>
        </extensions>
      </trkpt>
      <trkpt lat="52.18309546820819377899169921875" lon="1.5130882523953914642333984375">
        <ele>-72.40000152587890625</ele>
        <time>2025-09-06T11:56:28.000Z</time>
        <extensions>
          <ns3:TrackPointExtension>
            <ns3:hr>171</ns3:hr>
            <ns3:cad>80</ns3:cad>
          </ns3:TrackPointExtension>
        </extensions>
      </trkpt>
      <trkpt lat="52.1832539699971675872802734375" lon="1.51297015137970447540283203125">
        <ele>-73</ele>
        <time>2025-09-06T11:56:36.000Z</time>
        <extensions>
          <ns3:TrackPointExtension>
            <ns3:hr>172</ns3:hr>
            <ns3:cad>80</ns3:cad>
          </ns3:TrackPointExtension>
        </extensions>
      </trkpt>
      <trkpt lat="52.18331716954708099365234375" lon="1.5129306726157665252685546875">
        <ele>-73.1999969482421875</ele>
        <time>2025-09-06T11:56:39.000Z</time>
        <extensions>
          <ns3:TrackPointExtension>
            <ns3:hr>171</ns3:hr>
            <ns3:cad>80</ns3:cad>
          </ns3:TrackPointExtension>
        </extensions>
      </trkpt>
      <trkpt lat="52.1834048442542552947998046875" lon="1.512875519692897796630859375">
        <ele>-73.59999847412109375</ele>
        <time>2025-09-06T11:56:43.000Z</time>
        <extensions>
          <ns3:TrackPointExtension>
            <ns3:hr>169</ns3:hr>
            <ns3:cad>79</ns3:cad>
          </ns3:TrackPointExtension>
        </extensions>
      </trkpt>
      <trkpt lat="52.18348841182887554168701171875" lon="1.512811146676540374755859375">
        <ele>-74.1999969482421875</ele>
        <time>2025-09-06T11:56:47.000Z</time>
        <extensions>
          <ns3:TrackPointExtension>
            <ns3:hr>170</ns3:hr>
            <ns3:cad>80</ns3:cad>
          </ns3:TrackPointExtension>
        </extensions>
      </trkpt>
      <trkpt lat="52.1835895814001560211181640625" lon="1.5127388946712017059326171875">
        <ele>-75</ele>
        <time>2025-09-06T11:56:52.000Z</time>
        <extensions>
          <ns3:TrackPointExtension>
            <ns3:hr>172</ns3:hr>
            <ns3:cad>81</ns3:cad>
          </ns3:TrackPointExtension>
        </extensions>
      </trkpt>
      <trkpt lat="52.1836303174495697021484375" lon="1.51271416805684566497802734375">
        <ele>-75.40000152587890625</ele>
        <time>2025-09-06T11:56:54.000Z</time>
        <extensions>
          <ns3:TrackPointExtension>
            <ns3:hr>172</ns3:hr>
            <ns3:cad>81</ns3:cad>
          </ns3:TrackPointExtension>
        </extensions>
      </trkpt>
      <trkpt lat="52.18371279537677764892578125" lon="1.5126859210431575775146484375">
        <ele>-76</ele>
        <time>2025-09-06T11:56:58.000Z</time>
        <extensions>
          <ns3:TrackPointExtension>
            <ns3:hr>169</ns3:hr>
            <ns3:cad>79</ns3:cad>
          </ns3:TrackPointExtension>
        </extensions>
      </trkpt>
      <trkpt lat="52.18373970128595829010009765625" lon="1.51267661713063716888427734375">
        <ele>-76.40000152587890625</ele>
        <time>2025-09-06T11:57:00.000Z</time>
        <extensions>
          <ns3:TrackPointExtension>
            <ns3:hr>169</ns3:hr>
            <ns3:cad>78</ns3:cad>
          </ns3:TrackPointExtension>
        </extensions>
      </trkpt>
      <trkpt lat="52.183747999370098114013671875" lon="1.5126785449683666229248046875">
        <ele>-76.40000152587890625</ele>
        <time>2025-09-06T11:57:01.000Z</time>
        <extensions>
          <ns3:TrackPointExtension>
            <ns3:hr>169</ns3:hr>
            <ns3:cad>0</ns3:cad>
          </ns3:TrackPointExtension>
        </extensions>
      </trkpt>
      <trkpt lat="52.18374322168529033660888671875" lon="1.512688100337982177734375">
        <ele>-77.1999969482421875</ele>
        <time>2025-09-06T11:57:06.000Z</time>
        <extensions>
          <ns3:TrackPointExtension>
            <ns3:hr>167</ns3:hr>
            <ns3:cad>0</ns3:cad>
          </ns3:TrackPointExtension>
        </extensions>
      </trkpt>
      <trkpt lat="52.18374229967594146728515625" lon="1.51269019581377506256103515625">
        <ele>-77.40000152587890625</ele>
        <time>2025-09-06T11:57:07.000Z</time>
        <extensions>
          <ns3:TrackPointExtension>
            <ns3:hr>170</ns3:hr>
            <ns3:cad>0</ns3:cad>
          </ns3:TrackPointExtension>
        </extensions>
      </trkpt>
      <trkpt lat="52.1837434731423854827880859375" lon="1.51269287802278995513916015625">
        <ele>-77.59999847412109375</ele>
        <time>2025-09-06T11:57:08.000Z</time>
        <extensions>
          <ns3:TrackPointExtension>
            <ns3:hr>170</ns3:hr>
            <ns3:cad>0</ns3:cad>
          </ns3:TrackPointExtension>
        </extensions>
      </trkpt>
      <trkpt lat="52.18379887752234935760498046875" lon="1.51269002817571163177490234375">
        <ele>-78</ele>
        <time>2025-09-06T11:57:16.000Z</time>
        <extensions>
          <ns3:TrackPointExtension>
            <ns3:hr>168</ns3:hr>
            <ns3:cad>0</ns3:cad>
          </ns3:TrackPointExtension>
        </extensions>
      </trkpt>
      <trkpt lat="52.18388018198311328887939453125" lon="1.51265029795467853546142578125">
        <ele>-78.59999847412109375</ele>
        <time>2025-09-06T11:57:24.000Z</time>
        <extensions>
          <ns3:TrackPointExtension>
            <ns3:hr>167</ns3:hr>
            <ns3:cad>56</ns3:cad>
          </ns3:TrackPointExtension>
        </extensions>
      </trkpt>
      <trkpt lat="52.1838953532278537750244140625" lon="1.51264023967087268829345703125">
        <ele>-78.59999847412109375</ele>
        <time>2025-09-06T11:57:25.000Z</time>
        <extensions>
          <ns3:TrackPointExtension>
            <ns3:hr>166</ns3:hr>
            <ns3:cad>0</ns3:cad>
          </ns3:TrackPointExtension>
        </extensions>
      </trkpt>
      <trkpt lat="52.1839493326842784881591796875" lon="1.5125860087573528289794921875">
        <ele>-79.1999969482421875</ele>
        <time>2025-09-06T11:57:29.000Z</time>
        <extensions>
          <ns3:TrackPointExtension>
            <ns3:hr>165</ns3:hr>
            <ns3:cad>60</ns3:cad>
          </ns3:TrackPointExtension>
        </extensions>
      </trkpt>
      <trkpt lat="52.183986715972423553466796875" lon="1.51255290023982524871826171875">
        <ele>-79.59999847412109375</ele>
        <time>2025-09-06T11:57:31.000Z</time>
        <extensions>
          <ns3:TrackPointExtension>
            <ns3:hr>165</ns3:hr>
            <ns3:cad>60</ns3:cad>
          </ns3:TrackPointExtension>
        </extensions>
      </trkpt>
      <trkpt lat="52.184111438691616058349609375" lon="1.512468159198760986328125">
        <ele>-79.59999847412109375</ele>
        <time>2025-09-06T11:57:37.000Z</time>
        <extensions>
          <ns3:TrackPointExtension>
            <ns3:hr>162</ns3:hr>
            <ns3:cad>77</ns3:cad>
          </ns3:TrackPointExtension>
        </extensions>
      </trkpt>
      <trkpt lat="52.184131555259227752685546875" lon="1.5124545805156230926513671875">
        <ele>-79.40000152587890625</ele>
        <time>2025-09-06T11:57:38.000Z</time>
        <extensions>
          <ns3:TrackPointExtension>
            <ns3:hr>163</ns3:hr>
            <ns3:cad>78</ns3:cad>
          </ns3:TrackPointExtension>
        </extensions>
      </trkpt>
      <trkpt lat="52.18431218527257442474365234375" lon="1.5123674087226390838623046875">
        <ele>-78.8000030517578125</ele>
        <time>2025-09-06T11:57:46.000Z</time>
        <extensions>
          <ns3:TrackPointExtension>
            <ns3:hr>164</ns3:hr>
            <ns3:cad>80</ns3:cad>
          </ns3:TrackPointExtension>
        </extensions>
      </trkpt>
      <trkpt lat="52.184333391487598419189453125" lon="1.51235341094434261322021484375">
        <ele>-78.59999847412109375</ele>
        <time>2025-09-06T11:57:47.000Z</time>
        <extensions>
          <ns3:TrackPointExtension>
            <ns3:hr>163</ns3:hr>
            <ns3:cad>81</ns3:cad>
          </ns3:TrackPointExtension>
        </extensions>
      </trkpt>
      <trkpt lat="52.18435610644519329071044921875" lon="1.5123355574905872344970703125">
        <ele>-78.59999847412109375</ele>
        <time>2025-09-06T11:57:48.000Z</time>
        <extensions>
          <ns3:TrackPointExtension>
            <ns3:hr>165</ns3:hr>
            <ns3:cad>81</ns3:cad>
          </ns3:TrackPointExtension>
        </extensions>
      </trkpt>
      <trkpt lat="52.184474207460880279541015625" lon="1.5122617967426776885986328125">
        <ele>-78</ele>
        <time>2025-09-06T11:57:54.000Z</time>
        <extensions>
          <ns3:TrackPointExtension>
            <ns3:hr>166</ns3:hr>
            <ns3:cad>78</ns3:cad>
          </ns3:TrackPointExtension>
        </extensions>
      </trkpt>
      <trkpt lat="52.1846443600952625274658203125" lon="1.51218912564218044281005859375">
        <ele>-77.59999847412109375</ele>
        <time>2025-09-06T11:58:03.000Z</time>
        <extensions>
          <ns3:TrackPointExtension>
            <ns3:hr>167</ns3:hr>
            <ns3:cad>80</ns3:cad>
          </ns3:TrackPointExtension>
        </extensions>
      </trkpt>
      <trkpt lat="52.184663303196430206298828125" lon="1.51217973791062831878662109375">
        <ele>-77.59999847412109375</ele>
        <time>2025-09-06T11:58:04.000Z</time>
        <extensions>
          <ns3:TrackPointExtension>
            <ns3:hr>168</ns3:hr>
            <ns3:cad>79</ns3:cad>
          </ns3:TrackPointExtension>
        </extensions>
      </trkpt>
      <trkpt lat="52.18483261764049530029296875" lon="1.51211100630462169647216796875">
        <ele>-77</ele>
        <time>2025-09-06T11:58:12.000Z</time>
        <extensions>
          <ns3:TrackPointExtension>
            <ns3:hr>168</ns3:hr>
            <ns3:cad>78</ns3:cad>
          </ns3:TrackPointExtension>
        </extensions>
      </trkpt>
      <trkpt lat="52.184965722262859344482421875" lon="1.5120559372007846832275390625">
        <ele>-76.8000030517578125</ele>
        <time>2025-09-06T11:58:19.000Z</time>
        <extensions>
          <ns3:TrackPointExtension>
            <ns3:hr>168</ns3:hr>
            <ns3:cad>79</ns3:cad>
          </ns3:TrackPointExtension>
        </extensions>
      </trkpt>
      <trkpt lat="52.184981815516948699951171875" lon="1.51204965077340602874755859375">
        <ele>-76.59999847412109375</ele>
        <time>2025-09-06T11:58:21.000Z</time>
        <extensions>
          <ns3:TrackPointExtension>
            <ns3:hr>165</ns3:hr>
            <ns3:cad>78</ns3:cad>
          </ns3:TrackPointExtension>
        </extensions>
      </trkpt>
      <trkpt lat="52.18497837893664836883544921875" lon="1.512065827846527099609375">
        <ele>-76.59999847412109375</ele>
        <time>2025-09-06T11:58:24.000Z</time>
        <extensions>
          <ns3:TrackPointExtension>
            <ns3:hr>165</ns3:hr>
            <ns3:cad>0</ns3:cad>
          </ns3:TrackPointExtension>
        </extensions>
      </trkpt>
      <trkpt lat="52.18496111221611499786376953125" lon="1.5120820887386798858642578125">
        <ele>-76.59999847412109375</ele>
        <time>2025-09-06T11:58:29.000Z</time>
        <extensions>
          <ns3:TrackPointExtension>
            <ns3:hr>161</ns3:hr>
            <ns3:cad>0</ns3:cad>
          </ns3:TrackPointExtension>
        </extensions>
      </trkpt>
      <trkpt lat="52.184959016740322113037109375" lon="1.5120834298431873321533203125">
        <ele>-76.59999847412109375</ele>
        <time>2025-09-06T11:58:37.000Z</time>
        <extensions>
          <ns3:TrackPointExtension>
            <ns3:hr>162</ns3:hr>
            <ns3:cad>0</ns3:cad>
          </ns3:TrackPointExtension>
        </extensions>
      </trkpt>
      <trkpt lat="52.18496136367321014404296875" lon="1.51207714341580867767333984375">
        <ele>-77.40000152587890625</ele>
        <time>2025-09-06T11:58:50.000Z</time>
        <extensions>
          <ns3:TrackPointExtension>
            <ns3:hr>164</ns3:hr>
            <ns3:cad>0</ns3:cad>
          </ns3:TrackPointExtension>
        </extensions>
      </trkpt>
      <trkpt lat="52.18496932648122310638427734375" lon="1.51206775568425655364990234375">
        <ele>-78</ele>
        <time>2025-09-06T11:58:56.000Z</time>
        <extensions>
          <ns3:TrackPointExtension>
            <ns3:hr>161</ns3:hr>
            <ns3:cad>0</ns3:cad>
          </ns3:TrackPointExtension>
        </extensions>
      </trkpt>
      <trkpt lat="52.18502665869891643524169921875" lon="1.5120381675660610198974609375">
        <ele>-78.40000152587890625</ele>
        <time>2025-09-06T11:59:00.000Z</time>
        <extensions>
          <ns3:TrackPointExtension>
            <ns3:hr>160</ns3:hr>
            <ns3:cad>72</ns3:cad>
          </ns3:TrackPointExtension>
        </extensions>
      </trkpt>
      <trkpt lat="52.18504694290459156036376953125" lon="1.51202852837741374969482421875">
        <ele>-78.59999847412109375</ele>
        <time>2025-09-06T11:59:01.000Z</time>
        <extensions>
          <ns3:TrackPointExtension>
            <ns3:hr>160</ns3:hr>
            <ns3:cad>72</ns3:cad>
          </ns3:TrackPointExtension>
        </extensions>
      </trkpt>
      <trkpt lat="52.1850872598588466644287109375" lon="1.51200237683951854705810546875">
        <ele>-78.8000030517578125</ele>
        <time>2025-09-06T11:59:03.000Z</time>
        <extensions>
          <ns3:TrackPointExtension>
            <ns3:hr>165</ns3:hr>
            <ns3:cad>75</ns3:cad>
          </ns3:TrackPointExtension>
        </extensions>
      </trkpt>
      <trkpt lat="52.18510896898806095123291015625" lon="1.51198997162282466888427734375">
        <ele>-79</ele>
        <time>2025-09-06T11:59:04.000Z</time>
        <extensions>
          <ns3:TrackPointExtension>
            <ns3:hr>165</ns3:hr>
            <ns3:cad>75</ns3:cad>
          </ns3:TrackPointExtension>
        </extensions>
      </trkpt>
      <trkpt lat="52.1851295046508312225341796875" lon="1.5119786560535430908203125">
        <ele>-79</ele>
        <time>2025-09-06T11:59:05.000Z</time>
        <extensions>
          <ns3:TrackPointExtension>
            <ns3:hr>169</ns3:hr>
            <ns3:cad>77</ns3:cad>
          </ns3:TrackPointExtension>
        </extensions>
      </trkpt>
      <trkpt lat="52.1851913630962371826171875" lon="1.51193683035671710968017578125">
        <ele>-79.40000152587890625</ele>
        <time>2025-09-06T11:59:08.000Z</time>
        <extensions>
          <ns3:TrackPointExtension>
            <ns3:hr>169</ns3:hr>
            <ns3:cad>79</ns3:cad>
          </ns3:TrackPointExtension>
        </extensions>
      </trkpt>
      <trkpt lat="52.18523017130792140960693359375" lon="1.51191093027591705322265625">
        <ele>-79.8000030517578125</ele>
        <time>2025-09-06T11:59:10.000Z</time>
        <extensions>
          <ns3:TrackPointExtension>
            <ns3:hr>173</ns3:hr>
            <ns3:cad>79</ns3:cad>
          </ns3:TrackPointExtension>
        </extensions>
      </trkpt>
      <trkpt lat="52.18536931090056896209716796875" lon="1.51182116009294986724853515625">
        <ele>-81</ele>
        <time>2025-09-06T11:59:17.000Z</time>
        <extensions>
          <ns3:TrackPointExtension>
            <ns3:hr>173</ns3:hr>
            <ns3:cad>78</ns3:cad>
          </ns3:TrackPointExtension>
        </extensions>
      </trkpt>
      <trkpt lat="52.1853863261640071868896484375" lon="1.5118051506578922271728515625">
        <ele>-81</ele>
        <time>2025-09-06T11:59:18.000Z</time>
        <extensions>
          <ns3:TrackPointExtension>
            <ns3:hr>174</ns3:hr>
            <ns3:cad>78</ns3:cad>
          </ns3:TrackPointExtension>
        </extensions>
      </trkpt>
      <trkpt lat="52.18546050600707530975341796875" lon="1.51175376959145069122314453125">
        <ele>-82</ele>
        <time>2025-09-06T11:59:23.000Z</time>
        <extensions>
          <ns3:TrackPointExtension>
            <ns3:hr>173</ns3:hr>
            <ns3:cad>77</ns3:cad>
          </ns3:TrackPointExtension>
        </extensions>
      </trkpt>
      <trkpt lat="52.18548079021275043487548828125" lon="1.51174874044954776763916015625">
        <ele>-82.1999969482421875</ele>
        <time>2025-09-06T11:59:24.000Z</time>
        <extensions>
          <ns3:TrackPointExtension>
            <ns3:hr>172</ns3:hr>
            <ns3:cad>75</ns3:cad>
          </ns3:TrackPointExtension>
        </extensions>
      </trkpt>
      <trkpt lat="52.18556695617735385894775390625" lon="1.5117184817790985107421875">
        <ele>-83</ele>
        <time>2025-09-06T11:59:28.000Z</time>
        <extensions>
          <ns3:TrackPointExtension>
            <ns3:hr>173</ns3:hr>
            <ns3:cad>78</ns3:cad>
          </ns3:TrackPointExtension>
        </extensions>
      </trkpt>
      <trkpt lat="52.18564130365848541259765625" lon="1.51167967356741428375244140625">
        <ele>-83.8000030517578125</ele>
        <time>2025-09-06T11:59:32.000Z</time>
        <extensions>
          <ns3:TrackPointExtension>
            <ns3:hr>171</ns3:hr>
            <ns3:cad>77</ns3:cad>
          </ns3:TrackPointExtension>
        </extensions>
      </trkpt>
      <trkpt lat="52.18567793257534503936767578125" lon="1.5116703696548938751220703125">
        <ele>-84.1999969482421875</ele>
        <time>2025-09-06T11:59:34.000Z</time>
        <extensions>
          <ns3:TrackPointExtension>
            <ns3:hr>171</ns3:hr>
            <ns3:cad>78</ns3:cad>
          </ns3:TrackPointExtension>
        </extensions>
      </trkpt>
      <trkpt lat="52.18579997308552265167236328125" lon="1.51162049733102321624755859375">
        <ele>-85.40000152587890625</ele>
        <time>2025-09-06T11:59:40.000Z</time>
        <extensions>
          <ns3:TrackPointExtension>
            <ns3:hr>170</ns3:hr>
            <ns3:cad>78</ns3:cad>
          </ns3:TrackPointExtension>
        </extensions>
      </trkpt>
      <trkpt lat="52.185909189283847808837890625" lon="1.51158370077610015869140625">
        <ele>-86.1999969482421875</ele>
        <time>2025-09-06T11:59:45.000Z</time>
        <extensions>
          <ns3:TrackPointExtension>
            <ns3:hr>173</ns3:hr>
            <ns3:cad>79</ns3:cad>
          </ns3:TrackPointExtension>
        </extensions>
      </trkpt>
      <trkpt lat="52.18593006022274494171142578125" lon="1.51157942600548267364501953125">
        <ele>-86.40000152587890625</ele>
        <time>2025-09-06T11:59:46.000Z</time>
        <extensions>
          <ns3:TrackPointExtension>
            <ns3:hr>173</ns3:hr>
            <ns3:cad>79</ns3:cad>
          </ns3:TrackPointExtension>
        </extensions>
      </trkpt>
      <trkpt lat="52.18595000915229320526123046875" lon="1.5115738101303577423095703125">
        <ele>-86.59999847412109375</ele>
        <time>2025-09-06T11:59:47.000Z</time>
        <extensions>
          <ns3:TrackPointExtension>
            <ns3:hr>174</ns3:hr>
            <ns3:cad>79</ns3:cad>
          </ns3:TrackPointExtension>
        </extensions>
      </trkpt>
      <trkpt lat="52.1860416233539581298828125" lon="1.51149946264922618865966796875">
        <ele>-87.59999847412109375</ele>
        <time>2025-09-06T11:59:54.000Z</time>
        <extensions>
          <ns3:TrackPointExtension>
            <ns3:hr>174</ns3:hr>
            <ns3:cad>79</ns3:cad>
          </ns3:TrackPointExtension>
        </extensions>
      </trkpt>
      <trkpt lat="52.1860096044838428497314453125" lon="1.5115007199347019195556640625">
        <ele>-88</ele>
        <time>2025-09-06T11:59:57.000Z</time>
        <extensions>
          <ns3:TrackPointExtension>
            <ns3:hr>174</ns3:hr>
            <ns3:cad>0</ns3:cad>
          </ns3:TrackPointExtension>
        </extensions>
      </trkpt>
      <trkpt lat="52.1859965287148952484130859375" lon="1.51150499470531940460205078125">
        <ele>-88</ele>
        <time>2025-09-06T11:59:58.000Z</time>
        <extensions>
          <ns3:TrackPointExtension>
            <ns3:hr>173</ns3:hr>
            <ns3:cad>0</ns3:cad>
          </ns3:TrackPointExtension>
        </extensions>
      </trkpt>
      <trkpt lat="52.185976915061473846435546875" lon="1.5115114487707614898681640625">
        <ele>-88.40000152587890625</ele>
        <time>2025-09-06T12:00:00.000Z</time>
        <extensions>
          <ns3:TrackPointExtension>
            <ns3:hr>176</ns3:hr>
            <ns3:cad>0</ns3:cad>
          </ns3:TrackPointExtension>
        </extensions>
      </trkpt>
      <trkpt lat="52.18597196973860263824462890625" lon="1.5115137957036495208740234375">
        <ele>-88.59999847412109375</ele>
        <time>2025-09-06T12:00:02.000Z</time>
        <extensions>
          <ns3:TrackPointExtension>
            <ns3:hr>175</ns3:hr>
            <ns3:cad>0</ns3:cad>
          </ns3:TrackPointExtension>
        </extensions>
      </trkpt>
      <trkpt lat="52.1859640069305896759033203125" lon="1.5115235187113285064697265625">
        <ele>-88.8000030517578125</ele>
        <time>2025-09-06T12:00:04.000Z</time>
        <extensions>
          <ns3:TrackPointExtension>
            <ns3:hr>176</ns3:hr>
            <ns3:cad>0</ns3:cad>
          </ns3:TrackPointExtension>
        </extensions>
      </trkpt>
      <trkpt lat="52.18595168553292751312255859375" lon="1.51154103688895702362060546875">
        <ele>-89.1999969482421875</ele>
        <time>2025-09-06T12:00:07.000Z</time>
        <extensions>
          <ns3:TrackPointExtension>
            <ns3:hr>172</ns3:hr>
            <ns3:cad>0</ns3:cad>
          </ns3:TrackPointExtension>
        </extensions>
      </trkpt>
      <trkpt lat="52.18594313599169254302978515625" lon="1.51155159808695316314697265625">
        <ele>-89.59999847412109375</ele>
        <time>2025-09-06T12:00:10.000Z</time>
        <extensions>
          <ns3:TrackPointExtension>
            <ns3:hr>172</ns3:hr>
            <ns3:cad>0</ns3:cad>
          </ns3:TrackPointExtension>
        </extensions>
      </trkpt>
      <trkpt lat="52.185942046344280242919921875" lon="1.51155143044888973236083984375">
        <ele>-90.1999969482421875</ele>
        <time>2025-09-06T12:00:16.000Z</time>
        <extensions>
          <ns3:TrackPointExtension>
            <ns3:hr>173</ns3:hr>
            <ns3:cad>0</ns3:cad>
          </ns3:TrackPointExtension>
        </extensions>
      </trkpt>
      <trkpt lat="52.1859391964972019195556640625" lon="1.51150214485824108123779296875">
        <ele>-90.59999847412109375</ele>
        <time>2025-09-06T12:00:19.000Z</time>
        <extensions>
          <ns3:TrackPointExtension>
            <ns3:hr>171</ns3:hr>
            <ns3:cad>0</ns3:cad>
          </ns3:TrackPointExtension>
        </extensions>
      </trkpt>
      <trkpt lat="52.1859499253332614898681640625" lon="1.511496864259243011474609375">
        <ele>-91.1999969482421875</ele>
        <time>2025-09-06T12:00:23.000Z</time>
        <extensions>
          <ns3:TrackPointExtension>
            <ns3:hr>170</ns3:hr>
            <ns3:cad>0</ns3:cad>
          </ns3:TrackPointExtension>
        </extensions>
      </trkpt>
      <trkpt lat="52.1859505958855152130126953125" lon="1.51148906908929347991943359375">
        <ele>-91.1999969482421875</ele>
        <time>2025-09-06T12:00:24.000Z</time>
        <extensions>
          <ns3:TrackPointExtension>
            <ns3:hr>165</ns3:hr>
            <ns3:cad>0</ns3:cad>
          </ns3:TrackPointExtension>
        </extensions>
      </trkpt>
      <trkpt lat="52.18594950623810291290283203125" lon="1.51148739270865917205810546875">
        <ele>-91.59999847412109375</ele>
        <time>2025-09-06T12:00:25.000Z</time>
        <extensions>
          <ns3:TrackPointExtension>
            <ns3:hr>161</ns3:hr>
            <ns3:cad>0</ns3:cad>
          </ns3:TrackPointExtension>
        </extensions>
      </trkpt>
      <trkpt lat="52.185948081314563751220703125" lon="1.511481441557407379150390625">
        <ele>-92.1999969482421875</ele>
        <time>2025-09-06T12:00:26.000Z</time>
        <extensions>
          <ns3:TrackPointExtension>
            <ns3:hr>159</ns3:hr>
            <ns3:cad>0</ns3:cad>
          </ns3:TrackPointExtension>
        </extensions>
      </trkpt>
      <trkpt lat="52.18594833277165889739990234375" lon="1.5114842914044857025146484375">
        <ele>-93.1999969482421875</ele>
        <time>2025-09-06T12:00:28.000Z</time>
        <extensions>
          <ns3:TrackPointExtension>
            <ns3:hr>159</ns3:hr>
            <ns3:cad>0</ns3:cad>
          </ns3:TrackPointExtension>
        </extensions>
      </trkpt>
      <trkpt lat="52.18594766221940517425537109375" lon="1.511487476527690887451171875">
        <ele>-94.1999969482421875</ele>
        <time>2025-09-06T12:00:30.000Z</time>
        <extensions>
          <ns3:TrackPointExtension>
            <ns3:hr>158</ns3:hr>
            <ns3:cad>0</ns3:cad>
          </ns3:TrackPointExtension>
        </extensions>
      </trkpt>
      <trkpt lat="52.1859502606093883514404296875" lon="1.51149091310799121856689453125">
        <ele>-95.40000152587890625</ele>
        <time>2025-09-06T12:00:32.000Z</time>
        <extensions>
          <ns3:TrackPointExtension>
            <ns3:hr>157</ns3:hr>
            <ns3:cad>0</ns3:cad>
          </ns3:TrackPointExtension>
        </extensions>
      </trkpt>
      <trkpt lat="52.18594967387616634368896484375" lon="1.51149258948862552642822265625">
        <ele>-96.40000152587890625</ele>
        <time>2025-09-06T12:00:34.000Z</time>
        <extensions>
          <ns3:TrackPointExtension>
            <ns3:hr>156</ns3:hr>
            <ns3:cad>0</ns3:cad>
          </ns3:TrackPointExtension>
        </extensions>
      </trkpt>
      <trkpt lat="52.1859490871429443359375" lon="1.511493511497974395751953125">
        <ele>-97.40000152587890625</ele>
        <time>2025-09-06T12:00:36.000Z</time>
        <extensions>
          <ns3:TrackPointExtension>
            <ns3:hr>155</ns3:hr>
            <ns3:cad>0</ns3:cad>
          </ns3:TrackPointExtension>
        </extensions>
      </trkpt>
      <trkpt lat="52.18596040271222591400146484375" lon="1.5114906616508960723876953125">
        <ele>-98.8000030517578125</ele>
        <time>2025-09-06T12:00:39.000Z</time>
        <extensions>
          <ns3:TrackPointExtension>
            <ns3:hr>154</ns3:hr>
            <ns3:cad>0</ns3:cad>
          </ns3:TrackPointExtension>
        </extensions>
      </trkpt>
      <trkpt lat="52.1859573014080524444580078125" lon="1.51149761863052845001220703125">
        <ele>-100</ele>
        <time>2025-09-06T12:00:42.000Z</time>
        <extensions>
          <ns3:TrackPointExtension>
            <ns3:hr>155</ns3:hr>
            <ns3:cad>0</ns3:cad>
          </ns3:TrackPointExtension>
        </extensions>
      </trkpt>
      <trkpt lat="52.18595604412257671356201171875" lon="1.511497199535369873046875">
        <ele>-100.40000152587890625</ele>
        <time>2025-09-06T12:00:43.000Z</time>
        <extensions>
          <ns3:TrackPointExtension>
            <ns3:hr>154</ns3:hr>
            <ns3:cad>0</ns3:cad>
          </ns3:TrackPointExtension>
        </extensions>
      </trkpt>
      <trkpt lat="52.18595109879970550537109375" lon="1.5114933438599109649658203125">
        <ele>-100.8000030517578125</ele>
        <time>2025-09-06T12:00:47.000Z</time>
        <extensions>
          <ns3:TrackPointExtension>
            <ns3:hr>151</ns3:hr>
            <ns3:cad>0</ns3:cad>
          </ns3:TrackPointExtension>
        </extensions>
      </trkpt>
      <trkpt lat="52.18595168553292751312255859375" lon="1.51149694807827472686767578125">
        <ele>-100.8000030517578125</ele>
        <time>2025-09-06T12:00:51.000Z</time>
        <extensions>
          <ns3:TrackPointExtension>
            <ns3:hr>151</ns3:hr>
            <ns3:cad>0</ns3:cad>
          </ns3:TrackPointExtension>
        </extensions>
      </trkpt>
      <trkpt lat="52.18595378100872039794921875" lon="1.5115003846585750579833984375">
        <ele>-100.8000030517578125</ele>
        <time>2025-09-06T12:00:54.000Z</time>
        <extensions>
          <ns3:TrackPointExtension>
            <ns3:hr>148</ns3:hr>
            <ns3:cad>0</ns3:cad>
          </ns3:TrackPointExtension>
        </extensions>
      </trkpt>
      <trkpt lat="52.18595378100872039794921875" lon="1.51150055229663848876953125">
        <ele>-100.8000030517578125</ele>
        <time>2025-09-06T12:00:56.000Z</time>
        <extensions>
          <ns3:TrackPointExtension>
            <ns3:hr>144</ns3:hr>
            <ns3:cad>0</ns3:cad>
          </ns3:TrackPointExtension>
        </extensions>
      </trkpt>
      <trkpt lat="52.18595512211322784423828125" lon="1.51150415651500225067138671875">
        <ele>-100.8000030517578125</ele>
        <time>2025-09-06T12:00:59.000Z</time>
        <extensions>
          <ns3:TrackPointExtension>
            <ns3:hr>140</ns3:hr>
            <ns3:cad>0</ns3:cad>
          </ns3:TrackPointExtension>
        </extensions>
      </trkpt>
      <trkpt lat="52.18595445156097412109375" lon="1.51150264777243137359619140625">
        <ele>-100.8000030517578125</ele>
        <time>2025-09-06T12:01:01.000Z</time>
        <extensions>
          <ns3:TrackPointExtension>
            <ns3:hr>136</ns3:hr>
            <ns3:cad>0</ns3:cad>
          </ns3:TrackPointExtension>
        </extensions>
      </trkpt>
      <trkpt lat="52.18595772050321102142333984375" lon="1.511504910886287689208984375">
        <ele>-100.8000030517578125</ele>
        <time>2025-09-06T12:01:04.000Z</time>
        <extensions>
          <ns3:TrackPointExtension>
            <ns3:hr>133</ns3:hr>
            <ns3:cad>0</ns3:cad>
          </ns3:TrackPointExtension>
        </extensions>
      </trkpt>
      <trkpt lat="52.18599795363843441009521484375" lon="1.51149828918278217315673828125">
        <ele>-100.8000030517578125</ele>
        <time>2025-09-06T12:01:07.000Z</time>
        <extensions>
          <ns3:TrackPointExtension>
            <ns3:hr>131</ns3:hr>
            <ns3:cad>0</ns3:cad>
          </ns3:TrackPointExtension>
        </extensions>
      </trkpt>
      <trkpt lat="52.18609719537198543548583984375" lon="1.51145093142986297607421875">
        <ele>-100.8000030517578125</ele>
        <time>2025-09-06T12:01:13.000Z</time>
        <extensions>
          <ns3:TrackPointExtension>
            <ns3:hr>132</ns3:hr>
            <ns3:cad>75</ns3:cad>
          </ns3:TrackPointExtension>
        </extensions>
      </trkpt>
      <trkpt lat="52.18611462973058223724365234375" lon="1.51144833303987979888916015625">
        <ele>-100.8000030517578125</ele>
        <time>2025-09-06T12:01:14.000Z</time>
        <extensions>
          <ns3:TrackPointExtension>
            <ns3:hr>136</ns3:hr>
            <ns3:cad>75</ns3:cad>
          </ns3:TrackPointExtension>
        </extensions>
      </trkpt>
      <trkpt lat="52.1861510910093784332275390625" lon="1.5114189125597476959228515625">
        <ele>-100.8000030517578125</ele>
        <time>2025-09-06T12:01:16.000Z</time>
        <extensions>
          <ns3:TrackPointExtension>
            <ns3:hr>142</ns3:hr>
            <ns3:cad>77</ns3:cad>
          </ns3:TrackPointExtension>
        </extensions>
      </trkpt>
      <trkpt lat="52.18618889339268207550048828125" lon="1.5113937668502330780029296875">
        <ele>-100.8000030517578125</ele>
        <time>2025-09-06T12:01:18.000Z</time>
        <extensions>
          <ns3:TrackPointExtension>
            <ns3:hr>146</ns3:hr>
            <ns3:cad>77</ns3:cad>
          </ns3:TrackPointExtension>
        </extensions>
      </trkpt>
      <trkpt lat="52.1862305514514446258544921875" lon="1.51136535219848155975341796875">
        <ele>-100.59999847412109375</ele>
        <time>2025-09-06T12:01:20.000Z</time>
        <extensions>
          <ns3:TrackPointExtension>
            <ns3:hr>148</ns3:hr>
            <ns3:cad>77</ns3:cad>
          </ns3:TrackPointExtension>
        </extensions>
      </trkpt>
      <trkpt lat="52.18631529249250888824462890625" lon="1.51131187565624713897705078125">
        <ele>-100.59999847412109375</ele>
        <time>2025-09-06T12:01:24.000Z</time>
        <extensions>
          <ns3:TrackPointExtension>
            <ns3:hr>151</ns3:hr>
            <ns3:cad>79</ns3:cad>
          </ns3:TrackPointExtension>
        </extensions>
      </trkpt>
      <trkpt lat="52.18637262471020221710205078125" lon="1.5112905018031597137451171875">
        <ele>-100.59999847412109375</ele>
        <time>2025-09-06T12:01:27.000Z</time>
        <extensions>
          <ns3:TrackPointExtension>
            <ns3:hr>155</ns3:hr>
            <ns3:cad>78</ns3:cad>
          </ns3:TrackPointExtension>
        </extensions>
      </trkpt>
      <trkpt lat="52.18639240600168704986572265625" lon="1.5112745761871337890625">
        <ele>-100.59999847412109375</ele>
        <time>2025-09-06T12:01:28.000Z</time>
        <extensions>
          <ns3:TrackPointExtension>
            <ns3:hr>156</ns3:hr>
            <ns3:cad>78</ns3:cad>
          </ns3:TrackPointExtension>
        </extensions>
      </trkpt>
      <trkpt lat="52.1864528395235538482666015625" lon="1.51122671552002429962158203125">
        <ele>-100.40000152587890625</ele>
        <time>2025-09-06T12:01:31.000Z</time>
        <extensions>
          <ns3:TrackPointExtension>
            <ns3:hr>159</ns3:hr>
            <ns3:cad>80</ns3:cad>
          </ns3:TrackPointExtension>
        </extensions>
      </trkpt>
      <trkpt lat="52.186562307178974151611328125" lon="1.51116569526493549346923828125">
        <ele>-100</ele>
        <time>2025-09-06T12:01:36.000Z</time>
        <extensions>
          <ns3:TrackPointExtension>
            <ns3:hr>161</ns3:hr>
            <ns3:cad>80</ns3:cad>
          </ns3:TrackPointExtension>
        </extensions>
      </trkpt>
      <trkpt lat="52.18662642873823642730712890625" lon="1.51112143881618976593017578125">
        <ele>-99.8000030517578125</ele>
        <time>2025-09-06T12:01:39.000Z</time>
        <extensions>
          <ns3:TrackPointExtension>
            <ns3:hr>155</ns3:hr>
            <ns3:cad>80</ns3:cad>
          </ns3:TrackPointExtension>
        </extensions>
      </trkpt>
      <trkpt lat="52.1866436116397380828857421875" lon="1.51111339218914508819580078125">
        <ele>-99.59999847412109375</ele>
        <time>2025-09-06T12:01:40.000Z</time>
        <extensions>
          <ns3:TrackPointExtension>
            <ns3:hr>156</ns3:hr>
            <ns3:cad>80</ns3:cad>
          </ns3:TrackPointExtension>
        </extensions>
      </trkpt>
      <trkpt lat="52.18667420558631420135498046875" lon="1.511121354997158050537109375">
        <ele>-99.59999847412109375</ele>
        <time>2025-09-06T12:01:42.000Z</time>
        <extensions>
          <ns3:TrackPointExtension>
            <ns3:hr>155</ns3:hr>
            <ns3:cad>78</ns3:cad>
          </ns3:TrackPointExtension>
        </extensions>
      </trkpt>
      <trkpt lat="52.1867364831268787384033203125" lon="1.51126560755074024200439453125">
        <ele>-99</ele>
        <time>2025-09-06T12:01:48.000Z</time>
        <extensions>
          <ns3:TrackPointExtension>
            <ns3:hr>157</ns3:hr>
            <ns3:cad>0</ns3:cad>
          </ns3:TrackPointExtension>
        </extensions>
      </trkpt>
      <trkpt lat="52.18677327968180179595947265625" lon="1.51154858060181140899658203125">
        <ele>-98.59999847412109375</ele>
        <time>2025-09-06T12:01:55.000Z</time>
        <extensions>
          <ns3:TrackPointExtension>
            <ns3:hr>160</ns3:hr>
            <ns3:cad>81</ns3:cad>
          </ns3:TrackPointExtension>
        </extensions>
      </trkpt>
      <trkpt lat="52.18677931465208530426025390625" lon="1.511624269187450408935546875">
        <ele>-98.40000152587890625</ele>
        <time>2025-09-06T12:01:56.000Z</time>
        <extensions>
          <ns3:TrackPointExtension>
            <ns3:hr>160</ns3:hr>
            <ns3:cad>82</ns3:cad>
          </ns3:TrackPointExtension>
        </extensions>
      </trkpt>
      <trkpt lat="52.18678467907011508941650390625" lon="1.511731557548046112060546875">
        <ele>-98.1999969482421875</ele>
        <time>2025-09-06T12:02:00.000Z</time>
        <extensions>
          <ns3:TrackPointExtension>
            <ns3:hr>163</ns3:hr>
            <ns3:cad>82</ns3:cad>
          </ns3:TrackPointExtension>
        </extensions>
      </trkpt>
      <trkpt lat="52.186788953840732574462890625" lon="1.51176399551331996917724609375">
        <ele>-98</ele>
        <time>2025-09-06T12:02:01.000Z</time>
        <extensions>
          <ns3:TrackPointExtension>
            <ns3:hr>162</ns3:hr>
            <ns3:cad>82</ns3:cad>
          </ns3:TrackPointExtension>
        </extensions>
      </trkpt>
      <trkpt lat="52.1868087351322174072265625" lon="1.51190682314336299896240234375">
        <ele>-97.59999847412109375</ele>
        <time>2025-09-06T12:02:05.000Z</time>
        <extensions>
          <ns3:TrackPointExtension>
            <ns3:hr>163</ns3:hr>
            <ns3:cad>82</ns3:cad>
          </ns3:TrackPointExtension>
        </extensions>
      </trkpt>
      <trkpt lat="52.186853997409343719482421875" lon="1.51212693192064762115478515625">
        <ele>-97</ele>
        <time>2025-09-06T12:02:12.000Z</time>
        <extensions>
          <ns3:TrackPointExtension>
            <ns3:hr>164</ns3:hr>
            <ns3:cad>81</ns3:cad>
          </ns3:TrackPointExtension>
        </extensions>
      </trkpt>
      <trkpt lat="52.1868581883609294891357421875" lon="1.51216439902782440185546875">
        <ele>-96.8000030517578125</ele>
        <time>2025-09-06T12:02:13.000Z</time>
        <extensions>
          <ns3:TrackPointExtension>
            <ns3:hr>163</ns3:hr>
            <ns3:cad>80</ns3:cad>
          </ns3:TrackPointExtension>
        </extensions>
      </trkpt>
      <trkpt lat="52.1869037859141826629638671875" lon="1.5123925544321537017822265625">
        <ele>-96.40000152587890625</ele>
        <time>2025-09-06T12:02:20.000Z</time>
        <extensions>
          <ns3:TrackPointExtension>
            <ns3:hr>163</ns3:hr>
            <ns3:cad>80</ns3:cad>
          </ns3:TrackPointExtension>
        </extensions>
      </trkpt>
      <trkpt lat="52.186934463679790496826171875" lon="1.512490622699260711669921875">
        <ele>-96.1999969482421875</ele>
        <time>2025-09-06T12:02:23.000Z</time>
        <extensions>
          <ns3:TrackPointExtension>
            <ns3:hr>167</ns3:hr>
            <ns3:cad>80</ns3:cad>
          </ns3:TrackPointExtension>
        </extensions>
      </trkpt>
      <trkpt lat="52.18699338845908641815185546875" lon="1.512652896344661712646484375">
        <ele>-96</ele>
        <time>2025-09-06T12:02:28.000Z</time>
        <extensions>
          <ns3:TrackPointExtension>
            <ns3:hr>166</ns3:hr>
            <ns3:cad>80</ns3:cad>
          </ns3:TrackPointExtension>
        </extensions>
      </trkpt>
      <trkpt lat="52.1870050393044948577880859375" lon="1.5126818977296352386474609375">
        <ele>-96</ele>
        <time>2025-09-06T12:02:29.000Z</time>
        <extensions>
          <ns3:TrackPointExtension>
            <ns3:hr>166</ns3:hr>
            <ns3:cad>81</ns3:cad>
          </ns3:TrackPointExtension>
        </extensions>
      </trkpt>
      <trkpt lat="52.18705625273287296295166015625" lon="1.512872837483882904052734375">
        <ele>-95.59999847412109375</ele>
        <time>2025-09-06T12:02:35.000Z</time>
        <extensions>
          <ns3:TrackPointExtension>
            <ns3:hr>167</ns3:hr>
            <ns3:cad>81</ns3:cad>
          </ns3:TrackPointExtension>
        </extensions>
      </trkpt>
      <trkpt lat="52.1871078014373779296875" lon="1.5130976401269435882568359375">
        <ele>-95</ele>
        <time>2025-09-06T12:02:42.000Z</time>
        <extensions>
          <ns3:TrackPointExtension>
            <ns3:hr>167</ns3:hr>
            <ns3:cad>81</ns3:cad>
          </ns3:TrackPointExtension>
        </extensions>
      </trkpt>
      <trkpt lat="52.18712733127176761627197265625" lon="1.51316159404814243316650390625">
        <ele>-94.8000030517578125</ele>
        <time>2025-09-06T12:02:44.000Z</time>
        <extensions>
          <ns3:TrackPointExtension>
            <ns3:hr>168</ns3:hr>
            <ns3:cad>81</ns3:cad>
          </ns3:TrackPointExtension>
        </extensions>
      </trkpt>
      <trkpt lat="52.187192626297473907470703125" lon="1.51339913718402385711669921875">
        <ele>-94.40000152587890625</ele>
        <time>2025-09-06T12:02:51.000Z</time>
        <extensions>
          <ns3:TrackPointExtension>
            <ns3:hr>168</ns3:hr>
            <ns3:cad>81</ns3:cad>
          </ns3:TrackPointExtension>
        </extensions>
      </trkpt>
      <trkpt lat="52.1872601844370365142822265625" lon="1.51359275914728641510009765625">
        <ele>-93.8000030517578125</ele>
        <time>2025-09-06T12:02:57.000Z</time>
        <extensions>
          <ns3:TrackPointExtension>
            <ns3:hr>168</ns3:hr>
            <ns3:cad>81</ns3:cad>
          </ns3:TrackPointExtension>
        </extensions>
      </trkpt>
      <trkpt lat="52.1872796304523944854736328125" lon="1.513652689754962921142578125">
        <ele>-93.8000030517578125</ele>
        <time>2025-09-06T12:02:59.000Z</time>
        <extensions>
          <ns3:TrackPointExtension>
            <ns3:hr>169</ns3:hr>
            <ns3:cad>81</ns3:cad>
          </ns3:TrackPointExtension>
        </extensions>
      </trkpt>
      <trkpt lat="52.1873409859836101531982421875" lon="1.51390858925879001617431640625">
        <ele>-93</ele>
        <time>2025-09-06T12:03:07.000Z</time>
        <extensions>
          <ns3:TrackPointExtension>
            <ns3:hr>167</ns3:hr>
            <ns3:cad>81</ns3:cad>
          </ns3:TrackPointExtension>
        </extensions>
      </trkpt>
      <trkpt lat="52.187367640435695648193359375" lon="1.5140173025429248809814453125">
        <ele>-92.8000030517578125</ele>
        <time>2025-09-06T12:03:10.000Z</time>
        <extensions>
          <ns3:TrackPointExtension>
            <ns3:hr>168</ns3:hr>
            <ns3:cad>81</ns3:cad>
          </ns3:TrackPointExtension>
        </extensions>
      </trkpt>
      <trkpt lat="52.18740661628544330596923828125" lon="1.51418670080602169036865234375">
        <ele>-92.40000152587890625</ele>
        <time>2025-09-06T12:03:15.000Z</time>
        <extensions>
          <ns3:TrackPointExtension>
            <ns3:hr>168</ns3:hr>
            <ns3:cad>81</ns3:cad>
          </ns3:TrackPointExtension>
        </extensions>
      </trkpt>
      <trkpt lat="52.18746327795088291168212890625" lon="1.5144249983131885528564453125">
        <ele>-92.1999969482421875</ele>
        <time>2025-09-06T12:03:22.000Z</time>
        <extensions>
          <ns3:TrackPointExtension>
            <ns3:hr>165</ns3:hr>
            <ns3:cad>81</ns3:cad>
          </ns3:TrackPointExtension>
        </extensions>
      </trkpt>
      <trkpt lat="52.187469564378261566162109375" lon="1.5144612081348896026611328125">
        <ele>-92.1999969482421875</ele>
        <time>2025-09-06T12:03:23.000Z</time>
        <extensions>
          <ns3:TrackPointExtension>
            <ns3:hr>167</ns3:hr>
            <ns3:cad>81</ns3:cad>
          </ns3:TrackPointExtension>
        </extensions>
      </trkpt>
      <trkpt lat="52.18749965541064739227294921875" lon="1.51461702771484851837158203125">
        <ele>-92.1999969482421875</ele>
        <time>2025-09-06T12:03:27.000Z</time>
        <extensions>
          <ns3:TrackPointExtension>
            <ns3:hr>163</ns3:hr>
            <ns3:cad>81</ns3:cad>
          </ns3:TrackPointExtension>
        </extensions>
      </trkpt>
      <trkpt lat="52.1875270642340183258056640625" lon="1.51472750119864940643310546875">
        <ele>-92.1999969482421875</ele>
        <time>2025-09-06T12:03:30.000Z</time>
        <extensions>
          <ns3:TrackPointExtension>
            <ns3:hr>164</ns3:hr>
            <ns3:cad>82</ns3:cad>
          </ns3:TrackPointExtension>
        </extensions>
      </trkpt>
      <trkpt lat="52.18758079223334789276123046875" lon="1.51500712148845195770263671875">
        <ele>-92</ele>
        <time>2025-09-06T12:03:38.000Z</time>
        <extensions>
          <ns3:TrackPointExtension>
            <ns3:hr>164</ns3:hr>
            <ns3:cad>81</ns3:cad>
          </ns3:TrackPointExtension>
        </extensions>
      </trkpt>
      <trkpt lat="52.18759604729712009429931640625" lon="1.5150707401335239410400390625">
        <ele>-91.8000030517578125</ele>
        <time>2025-09-06T12:03:40.000Z</time>
        <extensions>
          <ns3:TrackPointExtension>
            <ns3:hr>165</ns3:hr>
            <ns3:cad>81</ns3:cad>
          </ns3:TrackPointExtension>
        </extensions>
      </trkpt>
      <trkpt lat="52.187638543546199798583984375" lon="1.5152725763618946075439453125">
        <ele>-91.40000152587890625</ele>
        <time>2025-09-06T12:03:46.000Z</time>
        <extensions>
          <ns3:TrackPointExtension>
            <ns3:hr>163</ns3:hr>
            <ns3:cad>81</ns3:cad>
          </ns3:TrackPointExtension>
        </extensions>
      </trkpt>
      <trkpt lat="52.18767936341464519500732421875" lon="1.51552026160061359405517578125">
        <ele>-91</ele>
        <time>2025-09-06T12:03:53.000Z</time>
        <extensions>
          <ns3:TrackPointExtension>
            <ns3:hr>164</ns3:hr>
            <ns3:cad>81</ns3:cad>
          </ns3:TrackPointExtension>
        </extensions>
      </trkpt>
      <trkpt lat="52.187705934047698974609375" lon="1.5156541205942630767822265625">
        <ele>-90.8000030517578125</ele>
        <time>2025-09-06T12:03:57.000Z</time>
        <extensions>
          <ns3:TrackPointExtension>
            <ns3:hr>165</ns3:hr>
            <ns3:cad>81</ns3:cad>
          </ns3:TrackPointExtension>
        </extensions>
      </trkpt>
      <trkpt lat="52.1877265535295009613037109375" lon="1.51575394906103610992431640625">
        <ele>-90.59999847412109375</ele>
        <time>2025-09-06T12:04:00.000Z</time>
        <extensions>
          <ns3:TrackPointExtension>
            <ns3:hr>164</ns3:hr>
            <ns3:cad>81</ns3:cad>
          </ns3:TrackPointExtension>
        </extensions>
      </trkpt>
      <trkpt lat="52.187781035900115966796875" lon="1.515986211597919464111328125">
        <ele>-90.59999847412109375</ele>
        <time>2025-09-06T12:04:08.000Z</time>
        <extensions>
          <ns3:TrackPointExtension>
            <ns3:hr>163</ns3:hr>
            <ns3:cad>80</ns3:cad>
          </ns3:TrackPointExtension>
        </extensions>
      </trkpt>
      <trkpt lat="52.18774122186005115509033203125" lon="1.5162230841815471649169921875">
        <ele>-90.8000030517578125</ele>
        <time>2025-09-06T12:04:15.000Z</time>
        <extensions>
          <ns3:TrackPointExtension>
            <ns3:hr>163</ns3:hr>
            <ns3:cad>81</ns3:cad>
          </ns3:TrackPointExtension>
        </extensions>
      </trkpt>
      <trkpt lat="52.18772814609110355377197265625" lon="1.51636985130608081817626953125">
        <ele>-91</ele>
        <time>2025-09-06T12:04:19.000Z</time>
        <extensions>
          <ns3:TrackPointExtension>
            <ns3:hr>166</ns3:hr>
            <ns3:cad>81</ns3:cad>
          </ns3:TrackPointExtension>
        </extensions>
      </trkpt>
      <trkpt lat="52.1877101249992847442626953125" lon="1.51652173139154911041259765625">
        <ele>-91.1999969482421875</ele>
        <time>2025-09-06T12:04:23.000Z</time>
        <extensions>
          <ns3:TrackPointExtension>
            <ns3:hr>164</ns3:hr>
            <ns3:cad>81</ns3:cad>
          </ns3:TrackPointExtension>
        </extensions>
      </trkpt>
      <trkpt lat="52.18770719133317470550537109375" lon="1.516557522118091583251953125">
        <ele>-91.1999969482421875</ele>
        <time>2025-09-06T12:04:24.000Z</time>
        <extensions>
          <ns3:TrackPointExtension>
            <ns3:hr>165</ns3:hr>
            <ns3:cad>81</ns3:cad>
          </ns3:TrackPointExtension>
        </extensions>
      </trkpt>
      <trkpt lat="52.18770283274352550506591796875" lon="1.51680084876716136932373046875">
        <ele>-91.59999847412109375</ele>
        <time>2025-09-06T12:04:31.000Z</time>
        <extensions>
          <ns3:TrackPointExtension>
            <ns3:hr>165</ns3:hr>
            <ns3:cad>81</ns3:cad>
          </ns3:TrackPointExtension>
        </extensions>
      </trkpt>
      <trkpt lat="52.18770065344870090484619140625" lon="1.51711433194577693939208984375">
        <ele>-91.8000030517578125</ele>
        <time>2025-09-06T12:04:39.000Z</time>
        <extensions>
          <ns3:TrackPointExtension>
            <ns3:hr>168</ns3:hr>
            <ns3:cad>81</ns3:cad>
          </ns3:TrackPointExtension>
        </extensions>
      </trkpt>
      <trkpt lat="52.1877010725438594818115234375" lon="1.5171943791210651397705078125">
        <ele>-91.8000030517578125</ele>
        <time>2025-09-06T12:04:41.000Z</time>
        <extensions>
          <ns3:TrackPointExtension>
            <ns3:hr>167</ns3:hr>
            <ns3:cad>81</ns3:cad>
          </ns3:TrackPointExtension>
        </extensions>
      </trkpt>
      <trkpt lat="52.18769947998225688934326171875" lon="1.5174498595297336578369140625">
        <ele>-91.8000030517578125</ele>
        <time>2025-09-06T12:04:48.000Z</time>
        <extensions>
          <ns3:TrackPointExtension>
            <ns3:hr>166</ns3:hr>
            <ns3:cad>80</ns3:cad>
          </ns3:TrackPointExtension>
        </extensions>
      </trkpt>
      <trkpt lat="52.18770199455320835113525390625" lon="1.517548263072967529296875">
        <ele>-92</ele>
        <time>2025-09-06T12:04:51.000Z</time>
        <extensions>
          <ns3:TrackPointExtension>
            <ns3:hr>163</ns3:hr>
            <ns3:cad>81</ns3:cad>
          </ns3:TrackPointExtension>
        </extensions>
      </trkpt>
      <trkpt lat="52.18770115636289119720458984375" lon="1.5176775120198726654052734375">
        <ele>-92</ele>
        <time>2025-09-06T12:04:55.000Z</time>
        <extensions>
          <ns3:TrackPointExtension>
            <ns3:hr>164</ns3:hr>
            <ns3:cad>81</ns3:cad>
          </ns3:TrackPointExtension>
        </extensions>
      </trkpt>
      <trkpt lat="52.1877346001565456390380859375" lon="1.5179293043911457061767578125">
        <ele>-92.1999969482421875</ele>
        <time>2025-09-06T12:05:03.000Z</time>
        <extensions>
          <ns3:TrackPointExtension>
            <ns3:hr>166</ns3:hr>
            <ns3:cad>81</ns3:cad>
          </ns3:TrackPointExtension>
        </extensions>
      </trkpt>
      <trkpt lat="52.18773518688976764678955078125" lon="1.5180339105427265167236328125">
        <ele>-92.1999969482421875</ele>
        <time>2025-09-06T12:05:06.000Z</time>
        <extensions>
          <ns3:TrackPointExtension>
            <ns3:hr>169</ns3:hr>
            <ns3:cad>81</ns3:cad>
          </ns3:TrackPointExtension>
        </extensions>
      </trkpt>
      <trkpt lat="52.187749184668064117431640625" lon="1.51826818473637104034423828125">
        <ele>-92.1999969482421875</ele>
        <time>2025-09-06T12:05:12.000Z</time>
        <extensions>
          <ns3:TrackPointExtension>
            <ns3:hr>169</ns3:hr>
            <ns3:cad>81</ns3:cad>
          </ns3:TrackPointExtension>
        </extensions>
      </trkpt>
      <trkpt lat="52.1877862326800823211669921875" lon="1.518561802804470062255859375">
        <ele>-92.1999969482421875</ele>
        <time>2025-09-06T12:05:20.000Z</time>
        <extensions>
          <ns3:TrackPointExtension>
            <ns3:hr>170</ns3:hr>
            <ns3:cad>81</ns3:cad>
          </ns3:TrackPointExtension>
        </extensions>
      </trkpt>
      <trkpt lat="52.187819592654705047607421875" lon="1.51885726489126682281494140625">
        <ele>-92</ele>
        <time>2025-09-06T12:05:28.000Z</time>
        <extensions>
          <ns3:TrackPointExtension>
            <ns3:hr>171</ns3:hr>
            <ns3:cad>81</ns3:cad>
          </ns3:TrackPointExtension>
        </extensions>
      </trkpt>
      <trkpt lat="52.18782202340662479400634765625" lon="1.5188912115991115570068359375">
        <ele>-92</ele>
        <time>2025-09-06T12:05:29.000Z</time>
        <extensions>
          <ns3:TrackPointExtension>
            <ns3:hr>170</ns3:hr>
            <ns3:cad>81</ns3:cad>
          </ns3:TrackPointExtension>
        </extensions>
      </trkpt>
      <trkpt lat="52.18782319687306880950927734375" lon="1.51898793876171112060546875">
        <ele>-92</ele>
        <time>2025-09-06T12:05:32.000Z</time>
        <extensions>
          <ns3:TrackPointExtension>
            <ns3:hr>167</ns3:hr>
            <ns3:cad>79</ns3:cad>
          </ns3:TrackPointExtension>
        </extensions>
      </trkpt>
      <trkpt lat="52.18782135285437107086181640625" lon="1.5190853364765644073486328125">
        <ele>-92</ele>
        <time>2025-09-06T12:05:35.000Z</time>
        <extensions>
          <ns3:TrackPointExtension>
            <ns3:hr>164</ns3:hr>
            <ns3:cad>78</ns3:cad>
          </ns3:TrackPointExtension>
        </extensions>
      </trkpt>
      <trkpt lat="52.187822274863719940185546875" lon="1.5191865898668766021728515625">
        <ele>-92</ele>
        <time>2025-09-06T12:05:38.000Z</time>
        <extensions>
          <ns3:TrackPointExtension>
            <ns3:hr>164</ns3:hr>
            <ns3:cad>79</ns3:cad>
          </ns3:TrackPointExtension>
        </extensions>
      </trkpt>
      <trkpt lat="52.18782051466405391693115234375" lon="1.51944953016936779022216796875">
        <ele>-92</ele>
        <time>2025-09-06T12:05:45.000Z</time>
        <extensions>
          <ns3:TrackPointExtension>
            <ns3:hr>167</ns3:hr>
            <ns3:cad>80</ns3:cad>
          </ns3:TrackPointExtension>
        </extensions>
      </trkpt>
      <trkpt lat="52.18782068230211734771728515625" lon="1.51952664367854595184326171875">
        <ele>-92</ele>
        <time>2025-09-06T12:05:47.000Z</time>
        <extensions>
          <ns3:TrackPointExtension>
            <ns3:hr>167</ns3:hr>
            <ns3:cad>81</ns3:cad>
          </ns3:TrackPointExtension>
        </extensions>
      </trkpt>
      <trkpt lat="52.18782017938792705535888671875" lon="1.51981808245182037353515625">
        <ele>-92</ele>
        <time>2025-09-06T12:05:55.000Z</time>
        <extensions>
          <ns3:TrackPointExtension>
            <ns3:hr>167</ns3:hr>
            <ns3:cad>81</ns3:cad>
          </ns3:TrackPointExtension>
        </extensions>
      </trkpt>
      <trkpt lat="52.18782864511013031005859375" lon="1.5201250277459621429443359375">
        <ele>-92</ele>
        <time>2025-09-06T12:06:04.000Z</time>
        <extensions>
          <ns3:TrackPointExtension>
            <ns3:hr>167</ns3:hr>
            <ns3:cad>81</ns3:cad>
          </ns3:TrackPointExtension>
        </extensions>
      </trkpt>
      <trkpt lat="52.18782822601497173309326171875" lon="1.52028604410588741302490234375">
        <ele>-92</ele>
        <time>2025-09-06T12:06:10.000Z</time>
        <extensions>
          <ns3:TrackPointExtension>
            <ns3:hr>165</ns3:hr>
            <ns3:cad>80</ns3:cad>
          </ns3:TrackPointExtension>
        </extensions>
      </trkpt>
      <trkpt lat="52.18778975307941436767578125" lon="1.520415879786014556884765625">
        <ele>-92</ele>
        <time>2025-09-06T12:06:16.000Z</time>
        <extensions>
          <ns3:TrackPointExtension>
            <ns3:hr>165</ns3:hr>
            <ns3:cad>75</ns3:cad>
          </ns3:TrackPointExtension>
        </extensions>
      </trkpt>
      <trkpt lat="52.18780006282031536102294921875" lon="1.5206587873399257659912109375">
        <ele>-92.1999969482421875</ele>
        <time>2025-09-06T12:06:24.000Z</time>
        <extensions>
          <ns3:TrackPointExtension>
            <ns3:hr>163</ns3:hr>
            <ns3:cad>78</ns3:cad>
          </ns3:TrackPointExtension>
        </extensions>
      </trkpt>
      <trkpt lat="52.18781129457056522369384765625" lon="1.5207895450294017791748046875">
        <ele>-92.40000152587890625</ele>
        <time>2025-09-06T12:06:28.000Z</time>
        <extensions>
          <ns3:TrackPointExtension>
            <ns3:hr>167</ns3:hr>
            <ns3:cad>77</ns3:cad>
          </ns3:TrackPointExtension>
        </extensions>
      </trkpt>
      <trkpt lat="52.18781330622732639312744140625" lon="1.520883254706859588623046875">
        <ele>-92.40000152587890625</ele>
        <time>2025-09-06T12:06:31.000Z</time>
        <extensions>
          <ns3:TrackPointExtension>
            <ns3:hr>168</ns3:hr>
            <ns3:cad>78</ns3:cad>
          </ns3:TrackPointExtension>
        </extensions>
      </trkpt>
      <trkpt lat="52.18781816773116588592529296875" lon="1.52117528021335601806640625">
        <ele>-92.8000030517578125</ele>
        <time>2025-09-06T12:06:40.000Z</time>
        <extensions>
          <ns3:TrackPointExtension>
            <ns3:hr>169</ns3:hr>
            <ns3:cad>78</ns3:cad>
          </ns3:TrackPointExtension>
        </extensions>
      </trkpt>
      <trkpt lat="52.18781791627407073974609375" lon="1.52123638428747653961181640625">
        <ele>-92.8000030517578125</ele>
        <time>2025-09-06T12:06:42.000Z</time>
        <extensions>
          <ns3:TrackPointExtension>
            <ns3:hr>169</ns3:hr>
            <ns3:cad>77</ns3:cad>
          </ns3:TrackPointExtension>
        </extensions>
      </trkpt>
      <trkpt lat="52.1878091990947723388671875" lon="1.5214396454393863677978515625">
        <ele>-93</ele>
        <time>2025-09-06T12:06:48.000Z</time>
        <extensions>
          <ns3:TrackPointExtension>
            <ns3:hr>168</ns3:hr>
            <ns3:cad>79</ns3:cad>
          </ns3:TrackPointExtension>
        </extensions>
      </trkpt>
      <trkpt lat="52.18778841197490692138671875" lon="1.52167324908077716827392578125">
        <ele>-93.1999969482421875</ele>
        <time>2025-09-06T12:06:56.000Z</time>
        <extensions>
          <ns3:TrackPointExtension>
            <ns3:hr>167</ns3:hr>
            <ns3:cad>78</ns3:cad>
          </ns3:TrackPointExtension>
        </extensions>
      </trkpt>
      <trkpt lat="52.1877838857471942901611328125" lon="1.521909870207309722900390625">
        <ele>-93</ele>
        <time>2025-09-06T12:07:04.000Z</time>
        <extensions>
          <ns3:TrackPointExtension>
            <ns3:hr>167</ns3:hr>
            <ns3:cad>74</ns3:cad>
          </ns3:TrackPointExtension>
        </extensions>
      </trkpt>
      <trkpt lat="52.1877808682620525360107421875" lon="1.5220676176249980926513671875">
        <ele>-92.8000030517578125</ele>
        <time>2025-09-06T12:07:11.000Z</time>
        <extensions>
          <ns3:TrackPointExtension>
            <ns3:hr>167</ns3:hr>
            <ns3:cad>0</ns3:cad>
          </ns3:TrackPointExtension>
        </extensions>
      </trkpt>
      <trkpt lat="52.1877909265458583831787109375" lon="1.5222449786961078643798828125">
        <ele>-92.59999847412109375</ele>
        <time>2025-09-06T12:07:18.000Z</time>
        <extensions>
          <ns3:TrackPointExtension>
            <ns3:hr>166</ns3:hr>
            <ns3:cad>58</ns3:cad>
          </ns3:TrackPointExtension>
        </extensions>
      </trkpt>
      <trkpt lat="52.18780224211513996124267578125" lon="1.522282697260379791259765625">
        <ele>-92.59999847412109375</ele>
        <time>2025-09-06T12:07:20.000Z</time>
        <extensions>
          <ns3:TrackPointExtension>
            <ns3:hr>162</ns3:hr>
            <ns3:cad>58</ns3:cad>
          </ns3:TrackPointExtension>
        </extensions>
      </trkpt>
      <trkpt lat="52.18782973475754261016845703125" lon="1.5223802626132965087890625">
        <ele>-92.59999847412109375</ele>
        <time>2025-09-06T12:07:25.000Z</time>
        <extensions>
          <ns3:TrackPointExtension>
            <ns3:hr>163</ns3:hr>
            <ns3:cad>57</ns3:cad>
          </ns3:TrackPointExtension>
        </extensions>
      </trkpt>
      <trkpt lat="52.1878252923488616943359375" lon="1.5224280394613742828369140625">
        <ele>-92.59999847412109375</ele>
        <time>2025-09-06T12:07:29.000Z</time>
        <extensions>
          <ns3:TrackPointExtension>
            <ns3:hr>159</ns3:hr>
            <ns3:cad>0</ns3:cad>
          </ns3:TrackPointExtension>
        </extensions>
      </trkpt>
      <trkpt lat="52.1878199279308319091796875" lon="1.52246684767305850982666015625">
        <ele>-92.59999847412109375</ele>
        <time>2025-09-06T12:07:32.000Z</time>
        <extensions>
          <ns3:TrackPointExtension>
            <ns3:hr>157</ns3:hr>
            <ns3:cad>51</ns3:cad>
          </ns3:TrackPointExtension>
        </extensions>
      </trkpt>
      <trkpt lat="52.18777122907340526580810546875" lon="1.52258553542196750640869140625">
        <ele>-92.8000030517578125</ele>
        <time>2025-09-06T12:07:38.000Z</time>
        <extensions>
          <ns3:TrackPointExtension>
            <ns3:hr>154</ns3:hr>
            <ns3:cad>51</ns3:cad>
          </ns3:TrackPointExtension>
        </extensions>
      </trkpt>
      <trkpt lat="52.18776217661798000335693359375" lon="1.5226104296743869781494140625">
        <ele>-93</ele>
        <time>2025-09-06T12:07:39.000Z</time>
        <extensions>
          <ns3:TrackPointExtension>
            <ns3:hr>153</ns3:hr>
            <ns3:cad>51</ns3:cad>
          </ns3:TrackPointExtension>
        </extensions>
      </trkpt>
      <trkpt lat="52.18773786909878253936767578125" lon="1.5226919017732143402099609375">
        <ele>-93</ele>
        <time>2025-09-06T12:07:42.000Z</time>
        <extensions>
          <ns3:TrackPointExtension>
            <ns3:hr>149</ns3:hr>
            <ns3:cad>51</ns3:cad>
          </ns3:TrackPointExtension>
        </extensions>
      </trkpt>
      <trkpt lat="52.187707610428333282470703125" lon="1.52282626368105411529541015625">
        <ele>-93.1999969482421875</ele>
        <time>2025-09-06T12:07:46.000Z</time>
        <extensions>
          <ns3:TrackPointExtension>
            <ns3:hr>149</ns3:hr>
            <ns3:cad>75</ns3:cad>
          </ns3:TrackPointExtension>
        </extensions>
      </trkpt>
      <trkpt lat="52.18768070451915264129638671875" lon="1.5229515731334686279296875">
        <ele>-93.40000152587890625</ele>
        <time>2025-09-06T12:07:51.000Z</time>
        <extensions>
          <ns3:TrackPointExtension>
            <ns3:hr>153</ns3:hr>
            <ns3:cad>77</ns3:cad>
          </ns3:TrackPointExtension>
        </extensions>
      </trkpt>
      <trkpt lat="52.1876750886440277099609375" lon="1.5229738689959049224853515625">
        <ele>-93.40000152587890625</ele>
        <time>2025-09-06T12:07:52.000Z</time>
        <extensions>
          <ns3:TrackPointExtension>
            <ns3:hr>155</ns3:hr>
            <ns3:cad>77</ns3:cad>
          </ns3:TrackPointExtension>
        </extensions>
      </trkpt>
      <trkpt lat="52.1876638568937778472900390625" lon="1.52303396724164485931396484375">
        <ele>-93.40000152587890625</ele>
        <time>2025-09-06T12:07:55.000Z</time>
        <extensions>
          <ns3:TrackPointExtension>
            <ns3:hr>158</ns3:hr>
            <ns3:cad>57</ns3:cad>
          </ns3:TrackPointExtension>
        </extensions>
      </trkpt>
      <trkpt lat="52.18763493932783603668212890625" lon="1.523121893405914306640625">
        <ele>-93.59999847412109375</ele>
        <time>2025-09-06T12:07:59.000Z</time>
        <extensions>
          <ns3:TrackPointExtension>
            <ns3:hr>160</ns3:hr>
            <ns3:cad>55</ns3:cad>
          </ns3:TrackPointExtension>
        </extensions>
      </trkpt>
      <trkpt lat="52.18759596347808837890625" lon="1.52327771298587322235107421875">
        <ele>-93.8000030517578125</ele>
        <time>2025-09-06T12:08:06.000Z</time>
        <extensions>
          <ns3:TrackPointExtension>
            <ns3:hr>160</ns3:hr>
            <ns3:cad>57</ns3:cad>
          </ns3:TrackPointExtension>
        </extensions>
      </trkpt>
      <trkpt lat="52.1875927783548831939697265625" lon="1.52329397387802600860595703125">
        <ele>-93.8000030517578125</ele>
        <time>2025-09-06T12:08:07.000Z</time>
        <extensions>
          <ns3:TrackPointExtension>
            <ns3:hr>159</ns3:hr>
            <ns3:cad>57</ns3:cad>
          </ns3:TrackPointExtension>
        </extensions>
      </trkpt>
      <trkpt lat="52.1875924430787563323974609375" lon="1.523368656635284423828125">
        <ele>-94</ele>
        <time>2025-09-06T12:08:11.000Z</time>
        <extensions>
          <ns3:TrackPointExtension>
            <ns3:hr>156</ns3:hr>
            <ns3:cad>52</ns3:cad>
          </ns3:TrackPointExtension>
        </extensions>
      </trkpt>
      <trkpt lat="52.18758230097591876983642578125" lon="1.52343076653778553009033203125">
        <ele>-94.1999969482421875</ele>
        <time>2025-09-06T12:08:16.000Z</time>
        <extensions>
          <ns3:TrackPointExtension>
            <ns3:hr>153</ns3:hr>
            <ns3:cad>51</ns3:cad>
          </ns3:TrackPointExtension>
        </extensions>
      </trkpt>
      <trkpt lat="52.18756888993084430694580078125" lon="1.52345960028469562530517578125">
        <ele>-94.40000152587890625</ele>
        <time>2025-09-06T12:08:20.000Z</time>
        <extensions>
          <ns3:TrackPointExtension>
            <ns3:hr>150</ns3:hr>
            <ns3:cad>0</ns3:cad>
          </ns3:TrackPointExtension>
        </extensions>
      </trkpt>
      <trkpt lat="52.18756788410246372222900390625" lon="1.52347125113010406494140625">
        <ele>-94.40000152587890625</ele>
        <time>2025-09-06T12:08:21.000Z</time>
        <extensions>
          <ns3:TrackPointExtension>
            <ns3:hr>150</ns3:hr>
            <ns3:cad>0</ns3:cad>
          </ns3:TrackPointExtension>
        </extensions>
      </trkpt>
      <trkpt lat="52.18756050802767276763916015625" lon="1.52350050397217273712158203125">
        <ele>-94.59999847412109375</ele>
        <time>2025-09-06T12:08:25.000Z</time>
        <extensions>
          <ns3:TrackPointExtension>
            <ns3:hr>146</ns3:hr>
            <ns3:cad>0</ns3:cad>
          </ns3:TrackPointExtension>
        </extensions>
      </trkpt>
      <trkpt lat="52.18756671063601970672607421875" lon="1.52349966578185558319091796875">
        <ele>-94.59999847412109375</ele>
        <time>2025-09-06T12:08:27.000Z</time>
        <extensions>
          <ns3:TrackPointExtension>
            <ns3:hr>143</ns3:hr>
            <ns3:cad>0</ns3:cad>
          </ns3:TrackPointExtension>
        </extensions>
      </trkpt>
      <trkpt lat="52.1875686384737491607666015625" lon="1.52349664829671382904052734375">
        <ele>-94.59999847412109375</ele>
        <time>2025-09-06T12:08:28.000Z</time>
        <extensions>
          <ns3:TrackPointExtension>
            <ns3:hr>140</ns3:hr>
            <ns3:cad>0</ns3:cad>
          </ns3:TrackPointExtension>
        </extensions>
      </trkpt>
      <trkpt lat="52.18757023103535175323486328125" lon="1.52349664829671382904052734375">
        <ele>-94.59999847412109375</ele>
        <time>2025-09-06T12:08:29.000Z</time>
        <extensions>
          <ns3:TrackPointExtension>
            <ns3:hr>137</ns3:hr>
            <ns3:cad>0</ns3:cad>
          </ns3:TrackPointExtension>
        </extensions>
      </trkpt>
      <trkpt lat="52.18757274560630321502685546875" lon="1.52349212206900119781494140625">
        <ele>-94.8000030517578125</ele>
        <time>2025-09-06T12:08:31.000Z</time>
        <extensions>
          <ns3:TrackPointExtension>
            <ns3:hr>133</ns3:hr>
            <ns3:cad>0</ns3:cad>
          </ns3:TrackPointExtension>
        </extensions>
      </trkpt>
      <trkpt lat="52.18757274560630321502685546875" lon="1.52349212206900119781494140625">
        <ele>-94.8000030517578125</ele>
        <time>2025-09-06T12:08:32.000Z</time>
        <extensions>
          <ns3:TrackPointExtension>
            <ns3:hr>130</ns3:hr>
            <ns3:cad>0</ns3:cad>
          </ns3:TrackPointExtension>
        </extensions>
      </trkpt>
      <trkpt lat="52.18757324852049350738525390625" lon="1.52349329553544521331787109375">
        <ele>-95.1999969482421875</ele>
        <time>2025-09-06T12:08:37.000Z</time>
        <extensions>
          <ns3:TrackPointExtension>
            <ns3:hr>130</ns3:hr>
            <ns3:cad>0</ns3:cad>
          </ns3:TrackPointExtension>
        </extensions>
      </trkpt>
      <trkpt lat="52.18759353272616863250732421875" lon="1.52346496470272541046142578125">
        <ele>-95.59999847412109375</ele>
        <time>2025-09-06T12:08:45.000Z</time>
        <extensions>
          <ns3:TrackPointExtension>
            <ns3:hr>130</ns3:hr>
            <ns3:cad>0</ns3:cad>
          </ns3:TrackPointExtension>
        </extensions>
      </trkpt>
      <trkpt lat="52.18760292045772075653076171875" lon="1.523409895598888397216796875">
        <ele>-95.59999847412109375</ele>
        <time>2025-09-06T12:08:55.000Z</time>
        <extensions>
          <ns3:TrackPointExtension>
            <ns3:hr>127</ns3:hr>
            <ns3:cad>0</ns3:cad>
          </ns3:TrackPointExtension>
        </extensions>
      </trkpt>
      <trkpt lat="52.18761700205504894256591796875" lon="1.5233802236616611480712890625">
        <ele>-96</ele>
        <time>2025-09-06T12:09:01.000Z</time>
        <extensions>
          <ns3:TrackPointExtension>
            <ns3:hr>126</ns3:hr>
            <ns3:cad>0</ns3:cad>
          </ns3:TrackPointExtension>
        </extensions>
      </trkpt>
      <trkpt lat="52.1875807084143161773681640625" lon="1.523462198674678802490234375">
        <ele>-97</ele>
        <time>2025-09-06T12:09:11.000Z</time>
        <extensions>
          <ns3:TrackPointExtension>
            <ns3:hr>126</ns3:hr>
            <ns3:cad>0</ns3:cad>
          </ns3:TrackPointExtension>
        </extensions>
      </trkpt>
      <trkpt lat="52.1875760145485401153564453125" lon="1.5234948880970478057861328125">
        <ele>-97.1999969482421875</ele>
        <time>2025-09-06T12:09:12.000Z</time>
        <extensions>
          <ns3:TrackPointExtension>
            <ns3:hr>127</ns3:hr>
            <ns3:cad>0</ns3:cad>
          </ns3:TrackPointExtension>
        </extensions>
      </trkpt>
      <trkpt lat="52.18752262182533740997314453125" lon="1.52369580231606960296630859375">
        <ele>-97.8000030517578125</ele>
        <time>2025-09-06T12:09:18.000Z</time>
        <extensions>
          <ns3:TrackPointExtension>
            <ns3:hr>128</ns3:hr>
            <ns3:cad>74</ns3:cad>
          </ns3:TrackPointExtension>
        </extensions>
      </trkpt>
      <trkpt lat="52.187514491379261016845703125" lon="1.5237312577664852142333984375">
        <ele>-97.8000030517578125</ele>
        <time>2025-09-06T12:09:19.000Z</time>
        <extensions>
          <ns3:TrackPointExtension>
            <ns3:hr>132</ns3:hr>
            <ns3:cad>75</ns3:cad>
          </ns3:TrackPointExtension>
        </extensions>
      </trkpt>
      <trkpt lat="52.1874932013452053070068359375" lon="1.5238030068576335906982421875">
        <ele>-98</ele>
        <time>2025-09-06T12:09:21.000Z</time>
        <extensions>
          <ns3:TrackPointExtension>
            <ns3:hr>135</ns3:hr>
            <ns3:cad>78</ns3:cad>
          </ns3:TrackPointExtension>
        </extensions>
      </trkpt>
      <trkpt lat="52.187482975423336029052734375" lon="1.52383645065128803253173828125">
        <ele>-98</ele>
        <time>2025-09-06T12:09:22.000Z</time>
        <extensions>
          <ns3:TrackPointExtension>
            <ns3:hr>138</ns3:hr>
            <ns3:cad>78</ns3:cad>
          </ns3:TrackPointExtension>
        </extensions>
      </trkpt>
      <trkpt lat="52.1874660439789295196533203125" lon="1.52389504015445709228515625">
        <ele>-97.8000030517578125</ele>
        <time>2025-09-06T12:09:24.000Z</time>
        <extensions>
          <ns3:TrackPointExtension>
            <ns3:hr>142</ns3:hr>
            <ns3:cad>78</ns3:cad>
          </ns3:TrackPointExtension>
        </extensions>
      </trkpt>
      <trkpt lat="52.18745850026607513427734375" lon="1.5239589102566242218017578125">
        <ele>-97.59999847412109375</ele>
        <time>2025-09-06T12:09:26.000Z</time>
        <extensions>
          <ns3:TrackPointExtension>
            <ns3:hr>145</ns3:hr>
            <ns3:cad>78</ns3:cad>
          </ns3:TrackPointExtension>
        </extensions>
      </trkpt>
      <trkpt lat="52.187436707317829132080078125" lon="1.52404365129768848419189453125">
        <ele>-97.40000152587890625</ele>
        <time>2025-09-06T12:09:29.000Z</time>
        <extensions>
          <ns3:TrackPointExtension>
            <ns3:hr>149</ns3:hr>
            <ns3:cad>79</ns3:cad>
          </ns3:TrackPointExtension>
        </extensions>
      </trkpt>
      <trkpt lat="52.187429331243038177490234375" lon="1.5240727365016937255859375">
        <ele>-97.1999969482421875</ele>
        <time>2025-09-06T12:09:30.000Z</time>
        <extensions>
          <ns3:TrackPointExtension>
            <ns3:hr>146</ns3:hr>
            <ns3:cad>78</ns3:cad>
          </ns3:TrackPointExtension>
        </extensions>
      </trkpt>
      <trkpt lat="52.18740611337125301361083984375" lon="1.5241654403507709503173828125">
        <ele>-96.8000030517578125</ele>
        <time>2025-09-06T12:09:33.000Z</time>
        <extensions>
          <ns3:TrackPointExtension>
            <ns3:hr>150</ns3:hr>
            <ns3:cad>75</ns3:cad>
          </ns3:TrackPointExtension>
        </extensions>
      </trkpt>
      <trkpt lat="52.18739840202033519744873046875" lon="1.524191759526729583740234375">
        <ele>-96.59999847412109375</ele>
        <time>2025-09-06T12:09:34.000Z</time>
        <extensions>
          <ns3:TrackPointExtension>
            <ns3:hr>150</ns3:hr>
            <ns3:cad>75</ns3:cad>
          </ns3:TrackPointExtension>
        </extensions>
      </trkpt>
      <trkpt lat="52.1873661316931247711181640625" lon="1.5243153087794780731201171875">
        <ele>-96</ele>
        <time>2025-09-06T12:09:38.000Z</time>
        <extensions>
          <ns3:TrackPointExtension>
            <ns3:hr>153</ns3:hr>
            <ns3:cad>77</ns3:cad>
          </ns3:TrackPointExtension>
        </extensions>
      </trkpt>
      <trkpt lat="52.187330089509487152099609375" lon="1.52442804537713527679443359375">
        <ele>-95.1999969482421875</ele>
        <time>2025-09-06T12:09:42.000Z</time>
        <extensions>
          <ns3:TrackPointExtension>
            <ns3:hr>151</ns3:hr>
            <ns3:cad>74</ns3:cad>
          </ns3:TrackPointExtension>
        </extensions>
      </trkpt>
      <trkpt lat="52.187303602695465087890625" lon="1.5245288796722888946533203125">
        <ele>-94.8000030517578125</ele>
        <time>2025-09-06T12:09:45.000Z</time>
        <extensions>
          <ns3:TrackPointExtension>
            <ns3:hr>153</ns3:hr>
            <ns3:cad>73</ns3:cad>
          </ns3:TrackPointExtension>
        </extensions>
      </trkpt>
      <trkpt lat="52.18728206120431423187255859375" lon="1.52465946972370147705078125">
        <ele>-94.40000152587890625</ele>
        <time>2025-09-06T12:09:49.000Z</time>
        <extensions>
          <ns3:TrackPointExtension>
            <ns3:hr>156</ns3:hr>
            <ns3:cad>76</ns3:cad>
          </ns3:TrackPointExtension>
        </extensions>
      </trkpt>
      <trkpt lat="52.18727652914822101593017578125" lon="1.524695344269275665283203125">
        <ele>-94.40000152587890625</ele>
        <time>2025-09-06T12:09:50.000Z</time>
        <extensions>
          <ns3:TrackPointExtension>
            <ns3:hr>156</ns3:hr>
            <ns3:cad>76</ns3:cad>
          </ns3:TrackPointExtension>
        </extensions>
      </trkpt>
      <trkpt lat="52.1872236393392086029052734375" lon="1.52492458932101726531982421875">
        <ele>-93.8000030517578125</ele>
        <time>2025-09-06T12:09:56.000Z</time>
        <extensions>
          <ns3:TrackPointExtension>
            <ns3:hr>159</ns3:hr>
            <ns3:cad>78</ns3:cad>
          </ns3:TrackPointExtension>
        </extensions>
      </trkpt>
      <trkpt lat="52.18721617944538593292236328125" lon="1.52495996095240116119384765625">
        <ele>-93.8000030517578125</ele>
        <time>2025-09-06T12:09:57.000Z</time>
        <extensions>
          <ns3:TrackPointExtension>
            <ns3:hr>159</ns3:hr>
            <ns3:cad>78</ns3:cad>
          </ns3:TrackPointExtension>
        </extensions>
      </trkpt>
      <trkpt lat="52.18717527575790882110595703125" lon="1.5251578576862812042236328125">
        <ele>-93.40000152587890625</ele>
        <time>2025-09-06T12:10:04.000Z</time>
        <extensions>
          <ns3:TrackPointExtension>
            <ns3:hr>157</ns3:hr>
            <ns3:cad>75</ns3:cad>
          </ns3:TrackPointExtension>
        </extensions>
      </trkpt>
      <trkpt lat="52.187131941318511962890625" lon="1.5252530761063098907470703125">
        <ele>-93.1999969482421875</ele>
        <time>2025-09-06T12:10:11.000Z</time>
        <extensions>
          <ns3:TrackPointExtension>
            <ns3:hr>158</ns3:hr>
            <ns3:cad>0</ns3:cad>
          </ns3:TrackPointExtension>
        </extensions>
      </trkpt>
      <trkpt lat="52.18711241148412227630615234375" lon="1.52531585656106472015380859375">
        <ele>-93.40000152587890625</ele>
        <time>2025-09-06T12:10:19.000Z</time>
        <extensions>
          <ns3:TrackPointExtension>
            <ns3:hr>156</ns3:hr>
            <ns3:cad>0</ns3:cad>
          </ns3:TrackPointExtension>
        </extensions>
      </trkpt>
      <trkpt lat="52.1871079690754413604736328125" lon="1.52535608969628810882568359375">
        <ele>-93.40000152587890625</ele>
        <time>2025-09-06T12:10:22.000Z</time>
        <extensions>
          <ns3:TrackPointExtension>
            <ns3:hr>153</ns3:hr>
            <ns3:cad>0</ns3:cad>
          </ns3:TrackPointExtension>
        </extensions>
      </trkpt>
      <trkpt lat="52.187094055116176605224609375" lon="1.52542213909327983856201171875">
        <ele>-93.59999847412109375</ele>
        <time>2025-09-06T12:10:26.000Z</time>
        <extensions>
          <ns3:TrackPointExtension>
            <ns3:hr>152</ns3:hr>
            <ns3:cad>52</ns3:cad>
          </ns3:TrackPointExtension>
        </extensions>
      </trkpt>
      <trkpt lat="52.1870606951415538787841796875" lon="1.5255373902618885040283203125">
        <ele>-94</ele>
        <time>2025-09-06T12:10:31.000Z</time>
        <extensions>
          <ns3:TrackPointExtension>
            <ns3:hr>155</ns3:hr>
            <ns3:cad>52</ns3:cad>
          </ns3:TrackPointExtension>
        </extensions>
      </trkpt>
      <trkpt lat="52.18705792911350727081298828125" lon="1.5255605243146419525146484375">
        <ele>-94</ele>
        <time>2025-09-06T12:10:32.000Z</time>
        <extensions>
          <ns3:TrackPointExtension>
            <ns3:hr>154</ns3:hr>
            <ns3:cad>74</ns3:cad>
          </ns3:TrackPointExtension>
        </extensions>
      </trkpt>
      <trkpt lat="52.18702456913888454437255859375" lon="1.5256812237203121185302734375">
        <ele>-94.1999969482421875</ele>
        <time>2025-09-06T12:10:36.000Z</time>
        <extensions>
          <ns3:TrackPointExtension>
            <ns3:hr>158</ns3:hr>
            <ns3:cad>72</ns3:cad>
          </ns3:TrackPointExtension>
        </extensions>
      </trkpt>
      <trkpt lat="52.18700252473354339599609375" lon="1.5257757715880870819091796875">
        <ele>-94.1999969482421875</ele>
        <time>2025-09-06T12:10:39.000Z</time>
        <extensions>
          <ns3:TrackPointExtension>
            <ns3:hr>163</ns3:hr>
            <ns3:cad>75</ns3:cad>
          </ns3:TrackPointExtension>
        </extensions>
      </trkpt>
      <trkpt lat="52.18699514865875244140625" lon="1.52580552734434604644775390625">
        <ele>-94.40000152587890625</ele>
        <time>2025-09-06T12:10:40.000Z</time>
        <extensions>
          <ns3:TrackPointExtension>
            <ns3:hr>164</ns3:hr>
            <ns3:cad>77</ns3:cad>
          </ns3:TrackPointExtension>
        </extensions>
      </trkpt>
      <trkpt lat="52.186986096203327178955078125" lon="1.5258617699146270751953125">
        <ele>-94.40000152587890625</ele>
        <time>2025-09-06T12:10:42.000Z</time>
        <extensions>
          <ns3:TrackPointExtension>
            <ns3:hr>159</ns3:hr>
            <ns3:cad>78</ns3:cad>
          </ns3:TrackPointExtension>
        </extensions>
      </trkpt>
      <trkpt lat="52.186944521963596343994140625" lon="1.5260092914104461669921875">
        <ele>-94.59999847412109375</ele>
        <time>2025-09-06T12:10:48.000Z</time>
        <extensions>
          <ns3:TrackPointExtension>
            <ns3:hr>160</ns3:hr>
            <ns3:cad>77</ns3:cad>
          </ns3:TrackPointExtension>
        </extensions>
      </trkpt>
      <trkpt lat="52.18689657747745513916015625" lon="1.5261710621416568756103515625">
        <ele>-94.59999847412109375</ele>
        <time>2025-09-06T12:10:55.000Z</time>
        <extensions>
          <ns3:TrackPointExtension>
            <ns3:hr>162</ns3:hr>
            <ns3:cad>75</ns3:cad>
          </ns3:TrackPointExtension>
        </extensions>
      </trkpt>
      <trkpt lat="52.1868608705699443817138671875" lon="1.52629000134766101837158203125">
        <ele>-94.8000030517578125</ele>
        <time>2025-09-06T12:11:00.000Z</time>
        <extensions>
          <ns3:TrackPointExtension>
            <ns3:hr>161</ns3:hr>
            <ns3:cad>76</ns3:cad>
          </ns3:TrackPointExtension>
        </extensions>
      </trkpt>
      <trkpt lat="52.18685927800834178924560546875" lon="1.52631414122879505157470703125">
        <ele>-94.8000030517578125</ele>
        <time>2025-09-06T12:11:01.000Z</time>
        <extensions>
          <ns3:TrackPointExtension>
            <ns3:hr>158</ns3:hr>
            <ns3:cad>74</ns3:cad>
          </ns3:TrackPointExtension>
        </extensions>
      </trkpt>
      <trkpt lat="52.18685810454189777374267578125" lon="1.52633182704448699951171875">
        <ele>-94.8000030517578125</ele>
        <time>2025-09-06T12:11:02.000Z</time>
        <extensions>
          <ns3:TrackPointExtension>
            <ns3:hr>157</ns3:hr>
            <ns3:cad>74</ns3:cad>
          </ns3:TrackPointExtension>
        </extensions>
      </trkpt>
      <trkpt lat="52.18685860745608806610107421875" lon="1.52634632773697376251220703125">
        <ele>-94.8000030517578125</ele>
        <time>2025-09-06T12:11:03.000Z</time>
        <extensions>
          <ns3:TrackPointExtension>
            <ns3:hr>160</ns3:hr>
            <ns3:cad>0</ns3:cad>
          </ns3:TrackPointExtension>
        </extensions>
      </trkpt>
      <trkpt lat="52.18687671236693859100341796875" lon="1.526485383510589599609375">
        <ele>-95</ele>
        <time>2025-09-06T12:11:08.000Z</time>
        <extensions>
          <ns3:TrackPointExtension>
            <ns3:hr>161</ns3:hr>
            <ns3:cad>80</ns3:cad>
          </ns3:TrackPointExtension>
        </extensions>
      </trkpt>
      <trkpt lat="52.1869366429746150970458984375" lon="1.52670155279338359832763671875">
        <ele>-95</ele>
        <time>2025-09-06T12:11:14.000Z</time>
        <extensions>
          <ns3:TrackPointExtension>
            <ns3:hr>165</ns3:hr>
            <ns3:cad>81</ns3:cad>
          </ns3:TrackPointExtension>
        </extensions>
      </trkpt>
      <trkpt lat="52.1869456954300403594970703125" lon="1.52672887779772281646728515625">
        <ele>-95</ele>
        <time>2025-09-06T12:11:15.000Z</time>
        <extensions>
          <ns3:TrackPointExtension>
            <ns3:hr>167</ns3:hr>
            <ns3:cad>81</ns3:cad>
          </ns3:TrackPointExtension>
        </extensions>
      </trkpt>
      <trkpt lat="52.1869581006467342376708984375" lon="1.5268945880234241485595703125">
        <ele>-95</ele>
        <time>2025-09-06T12:11:21.000Z</time>
        <extensions>
          <ns3:TrackPointExtension>
            <ns3:hr>167</ns3:hr>
            <ns3:cad>82</ns3:cad>
          </ns3:TrackPointExtension>
        </extensions>
      </trkpt>
      <trkpt lat="52.18703445978462696075439453125" lon="1.5271175466477870941162109375">
        <ele>-94.8000030517578125</ele>
        <time>2025-09-06T12:11:29.000Z</time>
        <extensions>
          <ns3:TrackPointExtension>
            <ns3:hr>167</ns3:hr>
            <ns3:cad>81</ns3:cad>
          </ns3:TrackPointExtension>
        </extensions>
      </trkpt>
      <trkpt lat="52.18714074231684207916259765625" lon="1.52734980918467044830322265625">
        <ele>-94.59999847412109375</ele>
        <time>2025-09-06T12:11:37.000Z</time>
        <extensions>
          <ns3:TrackPointExtension>
            <ns3:hr>167</ns3:hr>
            <ns3:cad>81</ns3:cad>
          </ns3:TrackPointExtension>
        </extensions>
      </trkpt>
      <trkpt lat="52.1872162632644176483154296875" lon="1.527527756989002227783203125">
        <ele>-94.1999969482421875</ele>
        <time>2025-09-06T12:11:43.000Z</time>
        <extensions>
          <ns3:TrackPointExtension>
            <ns3:hr>165</ns3:hr>
            <ns3:cad>81</ns3:cad>
          </ns3:TrackPointExtension>
        </extensions>
      </trkpt>
      <trkpt lat="52.1872511319816112518310546875" lon="1.52774132788181304931640625">
        <ele>-94</ele>
        <time>2025-09-06T12:11:49.000Z</time>
        <extensions>
          <ns3:TrackPointExtension>
            <ns3:hr>166</ns3:hr>
            <ns3:cad>81</ns3:cad>
          </ns3:TrackPointExtension>
        </extensions>
      </trkpt>
      <trkpt lat="52.1872809715569019317626953125" lon="1.5278870053589344024658203125">
        <ele>-93.8000030517578125</ele>
        <time>2025-09-06T12:11:54.000Z</time>
        <extensions>
          <ns3:TrackPointExtension>
            <ns3:hr>165</ns3:hr>
            <ns3:cad>79</ns3:cad>
          </ns3:TrackPointExtension>
        </extensions>
      </trkpt>
      <trkpt lat="52.18732438981533050537109375" lon="1.5279741771519184112548828125">
        <ele>-93.59999847412109375</ele>
        <time>2025-09-06T12:11:57.000Z</time>
        <extensions>
          <ns3:TrackPointExtension>
            <ns3:hr>164</ns3:hr>
            <ns3:cad>78</ns3:cad>
          </ns3:TrackPointExtension>
        </extensions>
      </trkpt>
      <trkpt lat="52.1873584203422069549560546875" lon="1.52815698646008968353271484375">
        <ele>-93.40000152587890625</ele>
        <time>2025-09-06T12:12:04.000Z</time>
        <extensions>
          <ns3:TrackPointExtension>
            <ns3:hr>164</ns3:hr>
            <ns3:cad>55</ns3:cad>
          </ns3:TrackPointExtension>
        </extensions>
      </trkpt>
      <trkpt lat="52.18736235983669757843017578125" lon="1.52818095870316028594970703125">
        <ele>-93.40000152587890625</ele>
        <time>2025-09-06T12:12:05.000Z</time>
        <extensions>
          <ns3:TrackPointExtension>
            <ns3:hr>161</ns3:hr>
            <ns3:cad>54</ns3:cad>
          </ns3:TrackPointExtension>
        </extensions>
      </trkpt>
      <trkpt lat="52.187362611293792724609375" lon="1.52820426039397716522216796875">
        <ele>-93.40000152587890625</ele>
        <time>2025-09-06T12:12:06.000Z</time>
        <extensions>
          <ns3:TrackPointExtension>
            <ns3:hr>162</ns3:hr>
            <ns3:cad>54</ns3:cad>
          </ns3:TrackPointExtension>
        </extensions>
      </trkpt>
      <trkpt lat="52.18736437149345874786376953125" lon="1.5282569825649261474609375">
        <ele>-93.40000152587890625</ele>
        <time>2025-09-06T12:12:09.000Z</time>
        <extensions>
          <ns3:TrackPointExtension>
            <ns3:hr>162</ns3:hr>
            <ns3:cad>52</ns3:cad>
          </ns3:TrackPointExtension>
        </extensions>
      </trkpt>
      <trkpt lat="52.18735464848577976226806640625" lon="1.5282658673822879791259765625">
        <ele>-93.40000152587890625</ele>
        <time>2025-09-06T12:12:16.000Z</time>
        <extensions>
          <ns3:TrackPointExtension>
            <ns3:hr>159</ns3:hr>
            <ns3:cad>0</ns3:cad>
          </ns3:TrackPointExtension>
        </extensions>
      </trkpt>
      <trkpt lat="52.187352888286113739013671875" lon="1.5282645262777805328369140625">
        <ele>-93.40000152587890625</ele>
        <time>2025-09-06T12:12:17.000Z</time>
        <extensions>
          <ns3:TrackPointExtension>
            <ns3:hr>158</ns3:hr>
            <ns3:cad>0</ns3:cad>
          </ns3:TrackPointExtension>
        </extensions>
      </trkpt>
      <trkpt lat="52.1873433329164981842041015625" lon="1.528264023363590240478515625">
        <ele>-93.1999969482421875</ele>
        <time>2025-09-06T12:12:21.000Z</time>
        <extensions>
          <ns3:TrackPointExtension>
            <ns3:hr>155</ns3:hr>
            <ns3:cad>0</ns3:cad>
          </ns3:TrackPointExtension>
        </extensions>
      </trkpt>
      <trkpt lat="52.187346518039703369140625" lon="1.52824885211884975433349609375">
        <ele>-92.8000030517578125</ele>
        <time>2025-09-06T12:12:26.000Z</time>
        <extensions>
          <ns3:TrackPointExtension>
            <ns3:hr>153</ns3:hr>
            <ns3:cad>0</ns3:cad>
          </ns3:TrackPointExtension>
        </extensions>
      </trkpt>
      <trkpt lat="52.18734744004905223846435546875" lon="1.5282460860908031463623046875">
        <ele>-92.59999847412109375</ele>
        <time>2025-09-06T12:12:27.000Z</time>
        <extensions>
          <ns3:TrackPointExtension>
            <ns3:hr>149</ns3:hr>
            <ns3:cad>0</ns3:cad>
          </ns3:TrackPointExtension>
        </extensions>
      </trkpt>
      <trkpt lat="52.18734718859195709228515625" lon="1.52824692428112030029296875">
        <ele>-92.59999847412109375</ele>
        <time>2025-09-06T12:12:28.000Z</time>
        <extensions>
          <ns3:TrackPointExtension>
            <ns3:hr>150</ns3:hr>
            <ns3:cad>0</ns3:cad>
          </ns3:TrackPointExtension>
        </extensions>
      </trkpt>
      <trkpt lat="52.1873480267822742462158203125" lon="1.5282460860908031463623046875">
        <ele>-92</ele>
        <time>2025-09-06T12:12:32.000Z</time>
        <extensions>
          <ns3:TrackPointExtension>
            <ns3:hr>147</ns3:hr>
            <ns3:cad>0</ns3:cad>
          </ns3:TrackPointExtension>
        </extensions>
      </trkpt>
      <trkpt lat="52.1873480267822742462158203125" lon="1.5282462537288665771484375">
        <ele>-92</ele>
        <time>2025-09-06T12:12:33.000Z</time>
        <extensions>
          <ns3:TrackPointExtension>
            <ns3:hr>144</ns3:hr>
            <ns3:cad>0</ns3:cad>
          </ns3:TrackPointExtension>
        </extensions>
      </trkpt>
      <trkpt lat="52.18734827823936939239501953125" lon="1.528246589004993438720703125">
        <ele>-91.8000030517578125</ele>
        <time>2025-09-06T12:12:34.000Z</time>
        <extensions>
          <ns3:TrackPointExtension>
            <ns3:hr>139</ns3:hr>
            <ns3:cad>0</ns3:cad>
          </ns3:TrackPointExtension>
        </extensions>
      </trkpt>
      <trkpt lat="52.18734844587743282318115234375" lon="1.528246589004993438720703125">
        <ele>-91.59999847412109375</ele>
        <time>2025-09-06T12:12:35.000Z</time>
        <extensions>
          <ns3:TrackPointExtension>
            <ns3:hr>136</ns3:hr>
            <ns3:cad>0</ns3:cad>
          </ns3:TrackPointExtension>
        </extensions>
      </trkpt>
      <trkpt lat="52.1873369626700878143310546875" lon="1.5282252989709377288818359375">
        <ele>-90.59999847412109375</ele>
        <time>2025-09-06T12:12:46.000Z</time>
        <extensions>
          <ns3:TrackPointExtension>
            <ns3:hr>135</ns3:hr>
            <ns3:cad>0</ns3:cad>
          </ns3:TrackPointExtension>
        </extensions>
      </trkpt>
      <trkpt lat="52.18733377754688262939453125" lon="1.528227142989635467529296875">
        <ele>-90.59999847412109375</ele>
        <time>2025-09-06T12:12:47.000Z</time>
        <extensions>
          <ns3:TrackPointExtension>
            <ns3:hr>135</ns3:hr>
            <ns3:cad>0</ns3:cad>
          </ns3:TrackPointExtension>
        </extensions>
      </trkpt>
      <trkpt lat="52.1873269043862819671630859375" lon="1.52824315242469310760498046875">
        <ele>-90</ele>
        <time>2025-09-06T12:12:56.000Z</time>
        <extensions>
          <ns3:TrackPointExtension>
            <ns3:hr>133</ns3:hr>
            <ns3:cad>0</ns3:cad>
          </ns3:TrackPointExtension>
        </extensions>
      </trkpt>
      <trkpt lat="52.18732028268277645111083984375" lon="1.52823309414088726043701171875">
        <ele>-90.1999969482421875</ele>
        <time>2025-09-06T12:13:02.000Z</time>
        <extensions>
          <ns3:TrackPointExtension>
            <ns3:hr>130</ns3:hr>
            <ns3:cad>0</ns3:cad>
          </ns3:TrackPointExtension>
        </extensions>
      </trkpt>
      <trkpt lat="52.18732573091983795166015625" lon="1.52823108248412609100341796875">
        <ele>-91.1999969482421875</ele>
        <time>2025-09-06T12:13:14.000Z</time>
        <extensions>
          <ns3:TrackPointExtension>
            <ns3:hr>127</ns3:hr>
            <ns3:cad>0</ns3:cad>
          </ns3:TrackPointExtension>
        </extensions>
      </trkpt>
      <trkpt lat="52.187327407300472259521484375" lon="1.5282350219786167144775390625">
        <ele>-91.59999847412109375</ele>
        <time>2025-09-06T12:13:19.000Z</time>
        <extensions>
          <ns3:TrackPointExtension>
            <ns3:hr>126</ns3:hr>
            <ns3:cad>0</ns3:cad>
          </ns3:TrackPointExtension>
        </extensions>
      </trkpt>
      <trkpt lat="52.1873336099088191986083984375" lon="1.52823795564472675323486328125">
        <ele>-92.1999969482421875</ele>
        <time>2025-09-06T12:13:23.000Z</time>
        <extensions>
          <ns3:TrackPointExtension>
            <ns3:hr>129</ns3:hr>
            <ns3:cad>0</ns3:cad>
          </ns3:TrackPointExtension>
        </extensions>
      </trkpt>
      <trkpt lat="52.1873436681926250457763671875" lon="1.5282430686056613922119140625">
        <ele>-92.8000030517578125</ele>
        <time>2025-09-06T12:13:28.000Z</time>
        <extensions>
          <ns3:TrackPointExtension>
            <ns3:hr>129</ns3:hr>
            <ns3:cad>0</ns3:cad>
          </ns3:TrackPointExtension>
        </extensions>
      </trkpt>
      <trkpt lat="52.187343500554561614990234375" lon="1.528243236243724822998046875">
        <ele>-93</ele>
        <time>2025-09-06T12:13:30.000Z</time>
        <extensions>
          <ns3:TrackPointExtension>
            <ns3:hr>129</ns3:hr>
            <ns3:cad>0</ns3:cad>
          </ns3:TrackPointExtension>
        </extensions>
      </trkpt>
      <trkpt lat="52.1873295865952968597412109375" lon="1.5282382071018218994140625">
        <ele>-93.8000030517578125</ele>
        <time>2025-09-06T12:13:36.000Z</time>
        <extensions>
          <ns3:TrackPointExtension>
            <ns3:hr>128</ns3:hr>
            <ns3:cad>0</ns3:cad>
          </ns3:TrackPointExtension>
        </extensions>
      </trkpt>
      <trkpt lat="52.18733511865139007568359375" lon="1.52823896147310733795166015625">
        <ele>-94.8000030517578125</ele>
        <time>2025-09-06T12:13:43.000Z</time>
        <extensions>
          <ns3:TrackPointExtension>
            <ns3:hr>126</ns3:hr>
            <ns3:cad>0</ns3:cad>
          </ns3:TrackPointExtension>
        </extensions>
      </trkpt>
      <trkpt lat="52.18732799403369426727294921875" lon="1.52821817435324192047119140625">
        <ele>-96</ele>
        <time>2025-09-06T12:13:50.000Z</time>
        <extensions>
          <ns3:TrackPointExtension>
            <ns3:hr>125</ns3:hr>
            <ns3:cad>0</ns3:cad>
          </ns3:TrackPointExtension>
        </extensions>
      </trkpt>
      <trkpt lat="52.18732615001499652862548828125" lon="1.528223119676113128662109375">
        <ele>-96.59999847412109375</ele>
        <time>2025-09-06T12:13:55.000Z</time>
        <extensions>
          <ns3:TrackPointExtension>
            <ns3:hr>124</ns3:hr>
            <ns3:cad>0</ns3:cad>
          </ns3:TrackPointExtension>
        </extensions>
      </trkpt>
      <trkpt lat="52.1873272396624088287353515625" lon="1.52823125012218952178955078125">
        <ele>-97</ele>
        <time>2025-09-06T12:13:58.000Z</time>
        <extensions>
          <ns3:TrackPointExtension>
            <ns3:hr>124</ns3:hr>
            <ns3:cad>0</ns3:cad>
          </ns3:TrackPointExtension>
        </extensions>
      </trkpt>
      <trkpt lat="52.18733134679496288299560546875" lon="1.5282355248928070068359375">
        <ele>-97.59999847412109375</ele>
        <time>2025-09-06T12:14:13.000Z</time>
        <extensions>
          <ns3:TrackPointExtension>
            <ns3:hr>122</ns3:hr>
            <ns3:cad>0</ns3:cad>
          </ns3:TrackPointExtension>
        </extensions>
      </trkpt>
      <trkpt lat="52.1873129904270172119140625" lon="1.528196632862091064453125">
        <ele>-98</ele>
        <time>2025-09-06T12:14:20.000Z</time>
        <extensions>
          <ns3:TrackPointExtension>
            <ns3:hr>122</ns3:hr>
            <ns3:cad>0</ns3:cad>
          </ns3:TrackPointExtension>
        </extensions>
      </trkpt>
      <trkpt lat="52.18731743283569812774658203125" lon="1.52819219045341014862060546875">
        <ele>-98.1999969482421875</ele>
        <time>2025-09-06T12:14:27.000Z</time>
        <extensions>
          <ns3:TrackPointExtension>
            <ns3:hr>123</ns3:hr>
            <ns3:cad>0</ns3:cad>
          </ns3:TrackPointExtension>
        </extensions>
      </trkpt>
      <trkpt lat="52.1873289160430431365966796875" lon="1.5282060205936431884765625">
        <ele>-98.1999969482421875</ele>
        <time>2025-09-06T12:14:34.000Z</time>
        <extensions>
          <ns3:TrackPointExtension>
            <ns3:hr>120</ns3:hr>
            <ns3:cad>0</ns3:cad>
          </ns3:TrackPointExtension>
        </extensions>
      </trkpt>
      <trkpt lat="52.18732464127242565155029296875" lon="1.52821549214422702789306640625">
        <ele>-98.1999969482421875</ele>
        <time>2025-09-06T12:14:37.000Z</time>
        <extensions>
          <ns3:TrackPointExtension>
            <ns3:hr>124</ns3:hr>
            <ns3:cad>0</ns3:cad>
          </ns3:TrackPointExtension>
        </extensions>
      </trkpt>
      <trkpt lat="52.18732380308210849761962890625" lon="1.52821968309581279754638671875">
        <ele>-98.1999969482421875</ele>
        <time>2025-09-06T12:14:39.000Z</time>
        <extensions>
          <ns3:TrackPointExtension>
            <ns3:hr>121</ns3:hr>
            <ns3:cad>0</ns3:cad>
          </ns3:TrackPointExtension>
        </extensions>
      </trkpt>
      <trkpt lat="52.18732430599629878997802734375" lon="1.5282179228961467742919921875">
        <ele>-98.1999969482421875</ele>
        <time>2025-09-06T12:14:45.000Z</time>
        <extensions>
          <ns3:TrackPointExtension>
            <ns3:hr>120</ns3:hr>
            <ns3:cad>0</ns3:cad>
          </ns3:TrackPointExtension>
        </extensions>
      </trkpt>
      <trkpt lat="52.18732916750013828277587890625" lon="1.52821633033454418182373046875">
        <ele>-98.8000030517578125</ele>
        <time>2025-09-06T12:14:59.000Z</time>
        <extensions>
          <ns3:TrackPointExtension>
            <ns3:hr>121</ns3:hr>
            <ns3:cad>0</ns3:cad>
          </ns3:TrackPointExtension>
        </extensions>
      </trkpt>
      <trkpt lat="52.18732899986207485198974609375" lon="1.5282152406871318817138671875">
        <ele>-99</ele>
        <time>2025-09-06T12:15:05.000Z</time>
        <extensions>
          <ns3:TrackPointExtension>
            <ns3:hr>124</ns3:hr>
            <ns3:cad>0</ns3:cad>
          </ns3:TrackPointExtension>
        </extensions>
      </trkpt>
      <trkpt lat="52.1873517148196697235107421875" lon="1.52825002558529376983642578125">
        <ele>-99.40000152587890625</ele>
        <time>2025-09-06T12:15:17.000Z</time>
        <extensions>
          <ns3:TrackPointExtension>
            <ns3:hr>125</ns3:hr>
            <ns3:cad>0</ns3:cad>
          </ns3:TrackPointExtension>
        </extensions>
      </trkpt>
      <trkpt lat="52.1874559856951236724853515625" lon="1.5283272229135036468505859375">
        <ele>-99.59999847412109375</ele>
        <time>2025-09-06T12:15:25.000Z</time>
        <extensions>
          <ns3:TrackPointExtension>
            <ns3:hr>128</ns3:hr>
            <ns3:cad>75</ns3:cad>
          </ns3:TrackPointExtension>
        </extensions>
      </trkpt>
      <trkpt lat="52.18749747611582279205322265625" lon="1.528363265097141265869140625">
        <ele>-99.59999847412109375</ele>
        <time>2025-09-06T12:15:27.000Z</time>
        <extensions>
          <ns3:TrackPointExtension>
            <ns3:hr>134</ns3:hr>
            <ns3:cad>79</ns3:cad>
          </ns3:TrackPointExtension>
        </extensions>
      </trkpt>
      <trkpt lat="52.18753217719495296478271484375" lon="1.52841456234455108642578125">
        <ele>-99.59999847412109375</ele>
        <time>2025-09-06T12:15:29.000Z</time>
        <extensions>
          <ns3:TrackPointExtension>
            <ns3:hr>137</ns3:hr>
            <ns3:cad>79</ns3:cad>
          </ns3:TrackPointExtension>
        </extensions>
      </trkpt>
      <trkpt lat="52.187560759484767913818359375" lon="1.52845839969813823699951171875">
        <ele>-99.40000152587890625</ele>
        <time>2025-09-06T12:15:31.000Z</time>
        <extensions>
          <ns3:TrackPointExtension>
            <ns3:hr>141</ns3:hr>
            <ns3:cad>80</ns3:cad>
          </ns3:TrackPointExtension>
        </extensions>
      </trkpt>
      <trkpt lat="52.18757593072950839996337890625" lon="1.52847759425640106201171875">
        <ele>-99.40000152587890625</ele>
        <time>2025-09-06T12:15:32.000Z</time>
        <extensions>
          <ns3:TrackPointExtension>
            <ns3:hr>144</ns3:hr>
            <ns3:cad>81</ns3:cad>
          </ns3:TrackPointExtension>
        </extensions>
      </trkpt>
      <trkpt lat="52.1876165829598903656005859375" lon="1.52850701473653316497802734375">
        <ele>-99.40000152587890625</ele>
        <time>2025-09-06T12:15:34.000Z</time>
        <extensions>
          <ns3:TrackPointExtension>
            <ns3:hr>147</ns3:hr>
            <ns3:cad>81</ns3:cad>
          </ns3:TrackPointExtension>
        </extensions>
      </trkpt>
      <trkpt lat="52.18768187798559665679931640625" lon="1.5285575576126575469970703125">
        <ele>-99</ele>
        <time>2025-09-06T12:15:38.000Z</time>
        <extensions>
          <ns3:TrackPointExtension>
            <ns3:hr>152</ns3:hr>
            <ns3:cad>81</ns3:cad>
          </ns3:TrackPointExtension>
        </extensions>
      </trkpt>
      <trkpt lat="52.18769629485905170440673828125" lon="1.528570465743541717529296875">
        <ele>-99</ele>
        <time>2025-09-06T12:15:39.000Z</time>
        <extensions>
          <ns3:TrackPointExtension>
            <ns3:hr>151</ns3:hr>
            <ns3:cad>78</ns3:cad>
          </ns3:TrackPointExtension>
        </extensions>
      </trkpt>
      <trkpt lat="52.187711633741855621337890625" lon="1.52858245186507701873779296875">
        <ele>-98.8000030517578125</ele>
        <time>2025-09-06T12:15:40.000Z</time>
        <extensions>
          <ns3:TrackPointExtension>
            <ns3:hr>154</ns3:hr>
            <ns3:cad>78</ns3:cad>
          </ns3:TrackPointExtension>
        </extensions>
      </trkpt>
      <trkpt lat="52.18782730400562286376953125" lon="1.52871438302099704742431640625">
        <ele>-98.1999969482421875</ele>
        <time>2025-09-06T12:15:47.000Z</time>
        <extensions>
          <ns3:TrackPointExtension>
            <ns3:hr>156</ns3:hr>
            <ns3:cad>81</ns3:cad>
          </ns3:TrackPointExtension>
        </extensions>
      </trkpt>
      <trkpt lat="52.18788941390812397003173828125" lon="1.528784371912479400634765625">
        <ele>-98</ele>
        <time>2025-09-06T12:15:50.000Z</time>
        <extensions>
          <ns3:TrackPointExtension>
            <ns3:hr>155</ns3:hr>
            <ns3:cad>80</ns3:cad>
          </ns3:TrackPointExtension>
        </extensions>
      </trkpt>
      <trkpt lat="52.1879588998854160308837890625" lon="1.5288790874183177947998046875">
        <ele>-97.40000152587890625</ele>
        <time>2025-09-06T12:15:54.000Z</time>
        <extensions>
          <ns3:TrackPointExtension>
            <ns3:hr>154</ns3:hr>
            <ns3:cad>80</ns3:cad>
          </ns3:TrackPointExtension>
        </extensions>
      </trkpt>
      <trkpt lat="52.1880055032670497894287109375" lon="1.528957374393939971923828125">
        <ele>-96.8000030517578125</ele>
        <time>2025-09-06T12:15:57.000Z</time>
        <extensions>
          <ns3:TrackPointExtension>
            <ns3:hr>155</ns3:hr>
            <ns3:cad>80</ns3:cad>
          </ns3:TrackPointExtension>
        </extensions>
      </trkpt>
      <trkpt lat="52.18807079829275608062744140625" lon="1.52909592725336551666259765625">
        <ele>-95.8000030517578125</ele>
        <time>2025-09-06T12:16:02.000Z</time>
        <extensions>
          <ns3:TrackPointExtension>
            <ns3:hr>155</ns3:hr>
            <ns3:cad>79</ns3:cad>
          </ns3:TrackPointExtension>
        </extensions>
      </trkpt>
      <trkpt lat="52.188081108033657073974609375" lon="1.529129035770893096923828125">
        <ele>-95.8000030517578125</ele>
        <time>2025-09-06T12:16:03.000Z</time>
        <extensions>
          <ns3:TrackPointExtension>
            <ns3:hr>156</ns3:hr>
            <ns3:cad>79</ns3:cad>
          </ns3:TrackPointExtension>
        </extensions>
      </trkpt>
      <trkpt lat="52.1880920045077800750732421875" lon="1.52916030026972293853759765625">
        <ele>-95.59999847412109375</ele>
        <time>2025-09-06T12:16:04.000Z</time>
        <extensions>
          <ns3:TrackPointExtension>
            <ns3:hr>159</ns3:hr>
            <ns3:cad>80</ns3:cad>
          </ns3:TrackPointExtension>
        </extensions>
      </trkpt>
      <trkpt lat="52.1881262026727199554443359375" lon="1.52929969131946563720703125">
        <ele>-95</ele>
        <time>2025-09-06T12:16:08.000Z</time>
        <extensions>
          <ns3:TrackPointExtension>
            <ns3:hr>156</ns3:hr>
            <ns3:cad>81</ns3:cad>
          </ns3:TrackPointExtension>
        </extensions>
      </trkpt>
      <trkpt lat="52.18814757652580738067626953125" lon="1.52936532162129878997802734375">
        <ele>-94.59999847412109375</ele>
        <time>2025-09-06T12:16:10.000Z</time>
        <extensions>
          <ns3:TrackPointExtension>
            <ns3:hr>160</ns3:hr>
            <ns3:cad>81</ns3:cad>
          </ns3:TrackPointExtension>
        </extensions>
      </trkpt>
      <trkpt lat="52.1881761588156223297119140625" lon="1.5294671617448329925537109375">
        <ele>-94.1999969482421875</ele>
        <time>2025-09-06T12:16:13.000Z</time>
        <extensions>
          <ns3:TrackPointExtension>
            <ns3:hr>157</ns3:hr>
            <ns3:cad>82</ns3:cad>
          </ns3:TrackPointExtension>
        </extensions>
      </trkpt>
      <trkpt lat="52.18821060843765735626220703125" lon="1.5296042896807193756103515625">
        <ele>-93.59999847412109375</ele>
        <time>2025-09-06T12:16:17.000Z</time>
        <extensions>
          <ns3:TrackPointExtension>
            <ns3:hr>159</ns3:hr>
            <ns3:cad>82</ns3:cad>
          </ns3:TrackPointExtension>
        </extensions>
      </trkpt>
      <trkpt lat="52.18821630813181400299072265625" lon="1.5296356379985809326171875">
        <ele>-93.40000152587890625</ele>
        <time>2025-09-06T12:16:18.000Z</time>
        <extensions>
          <ns3:TrackPointExtension>
            <ns3:hr>158</ns3:hr>
            <ns3:cad>82</ns3:cad>
          </ns3:TrackPointExtension>
        </extensions>
      </trkpt>
      <trkpt lat="52.18825553543865680694580078125" lon="1.52981626801192760467529296875">
        <ele>-92.59999847412109375</ele>
        <time>2025-09-06T12:16:24.000Z</time>
        <extensions>
          <ns3:TrackPointExtension>
            <ns3:hr>158</ns3:hr>
            <ns3:cad>81</ns3:cad>
          </ns3:TrackPointExtension>
        </extensions>
      </trkpt>
      <trkpt lat="52.1882651746273040771484375" lon="1.52987762354314327239990234375">
        <ele>-92.1999969482421875</ele>
        <time>2025-09-06T12:16:26.000Z</time>
        <extensions>
          <ns3:TrackPointExtension>
            <ns3:hr>158</ns3:hr>
            <ns3:cad>81</ns3:cad>
          </ns3:TrackPointExtension>
        </extensions>
      </trkpt>
      <trkpt lat="52.18827766366302967071533203125" lon="1.52990763075649738311767578125">
        <ele>-92</ele>
        <time>2025-09-06T12:16:27.000Z</time>
        <extensions>
          <ns3:TrackPointExtension>
            <ns3:hr>154</ns3:hr>
            <ns3:cad>81</ns3:cad>
          </ns3:TrackPointExtension>
        </extensions>
      </trkpt>
      <trkpt lat="52.188313789665699005126953125" lon="1.52993763796985149383544921875">
        <ele>-91.8000030517578125</ele>
        <time>2025-09-06T12:16:28.000Z</time>
        <extensions>
          <ns3:TrackPointExtension>
            <ns3:hr>154</ns3:hr>
            <ns3:cad>81</ns3:cad>
          </ns3:TrackPointExtension>
        </extensions>
      </trkpt>
      <trkpt lat="52.18832443468272686004638671875" lon="1.52999094687402248382568359375">
        <ele>-91.40000152587890625</ele>
        <time>2025-09-06T12:16:30.000Z</time>
        <extensions>
          <ns3:TrackPointExtension>
            <ns3:hr>153</ns3:hr>
            <ns3:cad>81</ns3:cad>
          </ns3:TrackPointExtension>
        </extensions>
      </trkpt>
      <trkpt lat="52.18833868391811847686767578125" lon="1.53005498461425304412841796875">
        <ele>-90.59999847412109375</ele>
        <time>2025-09-06T12:16:33.000Z</time>
        <extensions>
          <ns3:TrackPointExtension>
            <ns3:hr>155</ns3:hr>
            <ns3:cad>68</ns3:cad>
          </ns3:TrackPointExtension>
        </extensions>
      </trkpt>
      <trkpt lat="52.18834362924098968505859375" lon="1.53007376007735729217529296875">
        <ele>-90.1999969482421875</ele>
        <time>2025-09-06T12:16:34.000Z</time>
        <extensions>
          <ns3:TrackPointExtension>
            <ns3:hr>153</ns3:hr>
            <ns3:cad>68</ns3:cad>
          </ns3:TrackPointExtension>
        </extensions>
      </trkpt>
      <trkpt lat="52.1883696131408214569091796875" lon="1.53014517389237880706787109375">
        <ele>-89</ele>
        <time>2025-09-06T12:16:38.000Z</time>
        <extensions>
          <ns3:TrackPointExtension>
            <ns3:hr>153</ns3:hr>
            <ns3:cad>61</ns3:cad>
          </ns3:TrackPointExtension>
        </extensions>
      </trkpt>
      <trkpt lat="52.18839148990809917449951171875" lon="1.53022329322993755340576171875">
        <ele>-87.8000030517578125</ele>
        <time>2025-09-06T12:16:42.000Z</time>
        <extensions>
          <ns3:TrackPointExtension>
            <ns3:hr>153</ns3:hr>
            <ns3:cad>60</ns3:cad>
          </ns3:TrackPointExtension>
        </extensions>
      </trkpt>
      <trkpt lat="52.18839920125901699066162109375" lon="1.53023905120790004730224609375">
        <ele>-87.40000152587890625</ele>
        <time>2025-09-06T12:16:43.000Z</time>
        <extensions>
          <ns3:TrackPointExtension>
            <ns3:hr>154</ns3:hr>
            <ns3:cad>60</ns3:cad>
          </ns3:TrackPointExtension>
        </extensions>
      </trkpt>
      <trkpt lat="52.18841378577053546905517578125" lon="1.5302936173975467681884765625">
        <ele>-86.59999847412109375</ele>
        <time>2025-09-06T12:16:46.000Z</time>
        <extensions>
          <ns3:TrackPointExtension>
            <ns3:hr>153</ns3:hr>
            <ns3:cad>60</ns3:cad>
          </ns3:TrackPointExtension>
        </extensions>
      </trkpt>
      <trkpt lat="52.18842334114015102386474609375" lon="1.5303576551377773284912109375">
        <ele>-85.8000030517578125</ele>
        <time>2025-09-06T12:16:49.000Z</time>
        <extensions>
          <ns3:TrackPointExtension>
            <ns3:hr>150</ns3:hr>
            <ns3:cad>60</ns3:cad>
          </ns3:TrackPointExtension>
        </extensions>
      </trkpt>
      <trkpt lat="52.188429124653339385986328125" lon="1.530376933515071868896484375">
        <ele>-85.59999847412109375</ele>
        <time>2025-09-06T12:16:50.000Z</time>
        <extensions>
          <ns3:TrackPointExtension>
            <ns3:hr>151</ns3:hr>
            <ns3:cad>60</ns3:cad>
          </ns3:TrackPointExtension>
        </extensions>
      </trkpt>
      <trkpt lat="52.188459299504756927490234375" lon="1.530468128621578216552734375">
        <ele>-84.59999847412109375</ele>
        <time>2025-09-06T12:16:54.000Z</time>
        <extensions>
          <ns3:TrackPointExtension>
            <ns3:hr>150</ns3:hr>
            <ns3:cad>60</ns3:cad>
          </ns3:TrackPointExtension>
        </extensions>
      </trkpt>
      <trkpt lat="52.1884695254266262054443359375" lon="1.53049168176949024200439453125">
        <ele>-84.40000152587890625</ele>
        <time>2025-09-06T12:16:55.000Z</time>
        <extensions>
          <ns3:TrackPointExtension>
            <ns3:hr>148</ns3:hr>
            <ns3:cad>60</ns3:cad>
          </ns3:TrackPointExtension>
        </extensions>
      </trkpt>
      <trkpt lat="52.1885307133197784423828125" lon="1.53061104007065296173095703125">
        <ele>-83.40000152587890625</ele>
        <time>2025-09-06T12:17:00.000Z</time>
        <extensions>
          <ns3:TrackPointExtension>
            <ns3:hr>147</ns3:hr>
            <ns3:cad>60</ns3:cad>
          </ns3:TrackPointExtension>
        </extensions>
      </trkpt>
      <trkpt lat="52.18855929560959339141845703125" lon="1.530701816082000732421875">
        <ele>-82.40000152587890625</ele>
        <time>2025-09-06T12:17:05.000Z</time>
        <extensions>
          <ns3:TrackPointExtension>
            <ns3:hr>145</ns3:hr>
            <ns3:cad>61</ns3:cad>
          </ns3:TrackPointExtension>
        </extensions>
      </trkpt>
      <trkpt lat="52.188567258417606353759765625" lon="1.5307231061160564422607421875">
        <ele>-82.40000152587890625</ele>
        <time>2025-09-06T12:17:06.000Z</time>
        <extensions>
          <ns3:TrackPointExtension>
            <ns3:hr>145</ns3:hr>
            <ns3:cad>61</ns3:cad>
          </ns3:TrackPointExtension>
        </extensions>
      </trkpt>
      <trkpt lat="52.18860246241092681884765625" lon="1.5308454819023609161376953125">
        <ele>-81.40000152587890625</ele>
        <time>2025-09-06T12:17:12.000Z</time>
        <extensions>
          <ns3:TrackPointExtension>
            <ns3:hr>142</ns3:hr>
            <ns3:cad>62</ns3:cad>
          </ns3:TrackPointExtension>
        </extensions>
      </trkpt>
      <trkpt lat="52.18860975466668605804443359375" lon="1.53086199425160884857177734375">
        <ele>-81.1999969482421875</ele>
        <time>2025-09-06T12:17:13.000Z</time>
        <extensions>
          <ns3:TrackPointExtension>
            <ns3:hr>142</ns3:hr>
            <ns3:cad>62</ns3:cad>
          </ns3:TrackPointExtension>
        </extensions>
      </trkpt>
      <trkpt lat="52.188672535121440887451171875" lon="1.53102007694542407989501953125">
        <ele>-80.40000152587890625</ele>
        <time>2025-09-06T12:17:21.000Z</time>
        <extensions>
          <ns3:TrackPointExtension>
            <ns3:hr>139</ns3:hr>
            <ns3:cad>62</ns3:cad>
          </ns3:TrackPointExtension>
        </extensions>
      </trkpt>
      <trkpt lat="52.18868602998554706573486328125" lon="1.53104840777814388275146484375">
        <ele>-80.1999969482421875</ele>
        <time>2025-09-06T12:17:22.000Z</time>
        <extensions>
          <ns3:TrackPointExtension>
            <ns3:hr>139</ns3:hr>
            <ns3:cad>62</ns3:cad>
          </ns3:TrackPointExtension>
        </extensions>
      </trkpt>
      <trkpt lat="52.1887903846800327301025390625" lon="1.53125275857746601104736328125">
        <ele>-79.59999847412109375</ele>
        <time>2025-09-06T12:17:28.000Z</time>
        <extensions>
          <ns3:TrackPointExtension>
            <ns3:hr>137</ns3:hr>
            <ns3:cad>78</ns3:cad>
          </ns3:TrackPointExtension>
        </extensions>
      </trkpt>
      <trkpt lat="52.188821397721767425537109375" lon="1.5314315445721149444580078125">
        <ele>-79</ele>
        <time>2025-09-06T12:17:33.000Z</time>
        <extensions>
          <ns3:TrackPointExtension>
            <ns3:hr>139</ns3:hr>
            <ns3:cad>80</ns3:cad>
          </ns3:TrackPointExtension>
        </extensions>
      </trkpt>
      <trkpt lat="52.18883824534714221954345703125" lon="1.531549729406833648681640625">
        <ele>-78.59999847412109375</ele>
        <time>2025-09-06T12:17:36.000Z</time>
        <extensions>
          <ns3:TrackPointExtension>
            <ns3:hr>143</ns3:hr>
            <ns3:cad>81</ns3:cad>
          </ns3:TrackPointExtension>
        </extensions>
      </trkpt>
      <trkpt lat="52.18885199166834354400634765625" lon="1.531624831259250640869140625">
        <ele>-78.40000152587890625</ele>
        <time>2025-09-06T12:17:38.000Z</time>
        <extensions>
          <ns3:TrackPointExtension>
            <ns3:hr>146</ns3:hr>
            <ns3:cad>81</ns3:cad>
          </ns3:TrackPointExtension>
        </extensions>
      </trkpt>
      <trkpt lat="52.18887814320623874664306640625" lon="1.53173337690532207489013671875">
        <ele>-78</ele>
        <time>2025-09-06T12:17:41.000Z</time>
        <extensions>
          <ns3:TrackPointExtension>
            <ns3:hr>149</ns3:hr>
            <ns3:cad>81</ns3:cad>
          </ns3:TrackPointExtension>
        </extensions>
      </trkpt>
      <trkpt lat="52.188899852335453033447265625" lon="1.5318492986261844635009765625">
        <ele>-77.59999847412109375</ele>
        <time>2025-09-06T12:17:44.000Z</time>
        <extensions>
          <ns3:TrackPointExtension>
            <ns3:hr>151</ns3:hr>
            <ns3:cad>81</ns3:cad>
          </ns3:TrackPointExtension>
        </extensions>
      </trkpt>
      <trkpt lat="52.18891334719955921173095703125" lon="1.53196756727993488311767578125">
        <ele>-77</ele>
        <time>2025-09-06T12:17:49.000Z</time>
        <extensions>
          <ns3:TrackPointExtension>
            <ns3:hr>150</ns3:hr>
            <ns3:cad>0</ns3:cad>
          </ns3:TrackPointExtension>
        </extensions>
      </trkpt>
      <trkpt lat="52.188913263380527496337890625" lon="1.53198550455272197723388671875">
        <ele>-77</ele>
        <time>2025-09-06T12:17:50.000Z</time>
        <extensions>
          <ns3:TrackPointExtension>
            <ns3:hr>152</ns3:hr>
            <ns3:cad>0</ns3:cad>
          </ns3:TrackPointExtension>
        </extensions>
      </trkpt>
      <trkpt lat="52.18888954259455204010009765625" lon="1.53203126974403858184814453125">
        <ele>-76.59999847412109375</ele>
        <time>2025-09-06T12:17:54.000Z</time>
        <extensions>
          <ns3:TrackPointExtension>
            <ns3:hr>152</ns3:hr>
            <ns3:cad>0</ns3:cad>
          </ns3:TrackPointExtension>
        </extensions>
      </trkpt>
      <trkpt lat="52.18891636468470096588134765625" lon="1.53203261084854602813720703125">
        <ele>-76.1999969482421875</ele>
        <time>2025-09-06T12:18:00.000Z</time>
        <extensions>
          <ns3:TrackPointExtension>
            <ns3:hr>153</ns3:hr>
            <ns3:cad>0</ns3:cad>
          </ns3:TrackPointExtension>
        </extensions>
      </trkpt>
      <trkpt lat="52.18888183124363422393798828125" lon="1.53201551176607608795166015625">
        <ele>-76.1999969482421875</ele>
        <time>2025-09-06T12:18:04.000Z</time>
        <extensions>
          <ns3:TrackPointExtension>
            <ns3:hr>149</ns3:hr>
            <ns3:cad>0</ns3:cad>
          </ns3:TrackPointExtension>
        </extensions>
      </trkpt>
      <trkpt lat="52.18886842019855976104736328125" lon="1.532011069357395172119140625">
        <ele>-76.1999969482421875</ele>
        <time>2025-09-06T12:18:05.000Z</time>
        <extensions>
          <ns3:TrackPointExtension>
            <ns3:hr>150</ns3:hr>
            <ns3:cad>60</ns3:cad>
          </ns3:TrackPointExtension>
        </extensions>
      </trkpt>
      <trkpt lat="52.18883422203361988067626953125" lon="1.53201098553836345672607421875">
        <ele>-76.1999969482421875</ele>
        <time>2025-09-06T12:18:07.000Z</time>
        <extensions>
          <ns3:TrackPointExtension>
            <ns3:hr>147</ns3:hr>
            <ns3:cad>58</ns3:cad>
          </ns3:TrackPointExtension>
        </extensions>
      </trkpt>
      <trkpt lat="52.18872324563562870025634765625" lon="1.53202037326991558074951171875">
        <ele>-76.59999847412109375</ele>
        <time>2025-09-06T12:18:14.000Z</time>
        <extensions>
          <ns3:TrackPointExtension>
            <ns3:hr>146</ns3:hr>
            <ns3:cad>61</ns3:cad>
          </ns3:TrackPointExtension>
        </extensions>
      </trkpt>
      <trkpt lat="52.18861696310341358184814453125" lon="1.53206479735672473907470703125">
        <ele>-77.1999969482421875</ele>
        <time>2025-09-06T12:18:21.000Z</time>
        <extensions>
          <ns3:TrackPointExtension>
            <ns3:hr>145</ns3:hr>
            <ns3:cad>62</ns3:cad>
          </ns3:TrackPointExtension>
        </extensions>
      </trkpt>
      <trkpt lat="52.18848821707069873809814453125" lon="1.5321530587971210479736328125">
        <ele>-77.59999847412109375</ele>
        <time>2025-09-06T12:18:29.000Z</time>
        <extensions>
          <ns3:TrackPointExtension>
            <ns3:hr>142</ns3:hr>
            <ns3:cad>61</ns3:cad>
          </ns3:TrackPointExtension>
        </extensions>
      </trkpt>
      <trkpt lat="52.18847849406301975250244140625" lon="1.53216890059411525726318359375">
        <ele>-77.59999847412109375</ele>
        <time>2025-09-06T12:18:30.000Z</time>
        <extensions>
          <ns3:TrackPointExtension>
            <ns3:hr>142</ns3:hr>
            <ns3:cad>61</ns3:cad>
          </ns3:TrackPointExtension>
        </extensions>
      </trkpt>
      <trkpt lat="52.1884802542626857757568359375" lon="1.5322103910148143768310546875">
        <ele>-77.59999847412109375</ele>
        <time>2025-09-06T12:18:32.000Z</time>
        <extensions>
          <ns3:TrackPointExtension>
            <ns3:hr>140</ns3:hr>
            <ns3:cad>60</ns3:cad>
          </ns3:TrackPointExtension>
        </extensions>
      </trkpt>
      <trkpt lat="52.18849743716418743133544921875" lon="1.5322831459343433380126953125">
        <ele>-77.40000152587890625</ele>
        <time>2025-09-06T12:18:35.000Z</time>
        <extensions>
          <ns3:TrackPointExtension>
            <ns3:hr>140</ns3:hr>
            <ns3:cad>56</ns3:cad>
          </ns3:TrackPointExtension>
        </extensions>
      </trkpt>
      <trkpt lat="52.188510261476039886474609375" lon="1.53234760276973247528076171875">
        <ele>-77.1999969482421875</ele>
        <time>2025-09-06T12:18:38.000Z</time>
        <extensions>
          <ns3:TrackPointExtension>
            <ns3:hr>141</ns3:hr>
            <ns3:cad>56</ns3:cad>
          </ns3:TrackPointExtension>
        </extensions>
      </trkpt>
      <trkpt lat="52.1885268576443195343017578125" lon="1.53238381259143352508544921875">
        <ele>-77</ele>
        <time>2025-09-06T12:18:40.000Z</time>
        <extensions>
          <ns3:TrackPointExtension>
            <ns3:hr>144</ns3:hr>
            <ns3:cad>56</ns3:cad>
          </ns3:TrackPointExtension>
        </extensions>
      </trkpt>
      <trkpt lat="52.18853767029941082000732421875" lon="1.53240443207323551177978515625">
        <ele>-77</ele>
        <time>2025-09-06T12:18:41.000Z</time>
        <extensions>
          <ns3:TrackPointExtension>
            <ns3:hr>146</ns3:hr>
            <ns3:cad>56</ns3:cad>
          </ns3:TrackPointExtension>
        </extensions>
      </trkpt>
      <trkpt lat="52.188600786030292510986328125" lon="1.532578356564044952392578125">
        <ele>-76.40000152587890625</ele>
        <time>2025-09-06T12:18:49.000Z</time>
        <extensions>
          <ns3:TrackPointExtension>
            <ns3:hr>147</ns3:hr>
            <ns3:cad>56</ns3:cad>
          </ns3:TrackPointExtension>
        </extensions>
      </trkpt>
      <trkpt lat="52.18866960145533084869384765625" lon="1.53270618058741092681884765625">
        <ele>-75.8000030517578125</ele>
        <time>2025-09-06T12:18:56.000Z</time>
        <extensions>
          <ns3:TrackPointExtension>
            <ns3:hr>147</ns3:hr>
            <ns3:cad>58</ns3:cad>
          </ns3:TrackPointExtension>
        </extensions>
      </trkpt>
      <trkpt lat="52.18869273550808429718017578125" lon="1.53274373151361942291259765625">
        <ele>-75.8000030517578125</ele>
        <time>2025-09-06T12:18:58.000Z</time>
        <extensions>
          <ns3:TrackPointExtension>
            <ns3:hr>144</ns3:hr>
            <ns3:cad>59</ns3:cad>
          </ns3:TrackPointExtension>
        </extensions>
      </trkpt>
      <trkpt lat="52.1887452900409698486328125" lon="1.53285169042646884918212890625">
        <ele>-75.59999847412109375</ele>
        <time>2025-09-06T12:19:03.000Z</time>
        <extensions>
          <ns3:TrackPointExtension>
            <ns3:hr>144</ns3:hr>
            <ns3:cad>59</ns3:cad>
          </ns3:TrackPointExtension>
        </extensions>
      </trkpt>
      <trkpt lat="52.18875627033412456512451171875" lon="1.53287264518439769744873046875">
        <ele>-75.59999847412109375</ele>
        <time>2025-09-06T12:19:04.000Z</time>
        <extensions>
          <ns3:TrackPointExtension>
            <ns3:hr>141</ns3:hr>
            <ns3:cad>59</ns3:cad>
          </ns3:TrackPointExtension>
        </extensions>
      </trkpt>
      <trkpt lat="52.18880086205899715423583984375" lon="1.532999463379383087158203125">
        <ele>-75.59999847412109375</ele>
        <time>2025-09-06T12:19:10.000Z</time>
        <extensions>
          <ns3:TrackPointExtension>
            <ns3:hr>141</ns3:hr>
            <ns3:cad>59</ns3:cad>
          </ns3:TrackPointExtension>
        </extensions>
      </trkpt>
      <trkpt lat="52.1888552606105804443359375" lon="1.53313550166785717010498046875">
        <ele>-76</ele>
        <time>2025-09-06T12:19:16.000Z</time>
        <extensions>
          <ns3:TrackPointExtension>
            <ns3:hr>138</ns3:hr>
            <ns3:cad>58</ns3:cad>
          </ns3:TrackPointExtension>
        </extensions>
      </trkpt>
      <trkpt lat="52.18887127004563808441162109375" lon="1.53317841701209545135498046875">
        <ele>-76</ele>
        <time>2025-09-06T12:19:18.000Z</time>
        <extensions>
          <ns3:TrackPointExtension>
            <ns3:hr>136</ns3:hr>
            <ns3:cad>58</ns3:cad>
          </ns3:TrackPointExtension>
        </extensions>
      </trkpt>
      <trkpt lat="52.1889097429811954498291015625" lon="1.53330598957836627960205078125">
        <ele>-76.59999847412109375</ele>
        <time>2025-09-06T12:19:24.000Z</time>
        <extensions>
          <ns3:TrackPointExtension>
            <ns3:hr>133</ns3:hr>
            <ns3:cad>0</ns3:cad>
          </ns3:TrackPointExtension>
        </extensions>
      </trkpt>
      <trkpt lat="52.18891602940857410430908203125" lon="1.53332644142210483551025390625">
        <ele>-76.8000030517578125</ele>
        <time>2025-09-06T12:19:25.000Z</time>
        <extensions>
          <ns3:TrackPointExtension>
            <ns3:hr>134</ns3:hr>
            <ns3:cad>0</ns3:cad>
          </ns3:TrackPointExtension>
        </extensions>
      </trkpt>
      <trkpt lat="52.1889352239668369293212890625" lon="1.53336449526250362396240234375">
        <ele>-77</ele>
        <time>2025-09-06T12:19:27.000Z</time>
        <extensions>
          <ns3:TrackPointExtension>
            <ns3:hr>133</ns3:hr>
            <ns3:cad>58</ns3:cad>
          </ns3:TrackPointExtension>
        </extensions>
      </trkpt>
      <trkpt lat="52.18894846737384796142578125" lon="1.53340640477836132049560546875">
        <ele>-77.1999969482421875</ele>
        <time>2025-09-06T12:19:29.000Z</time>
        <extensions>
          <ns3:TrackPointExtension>
            <ns3:hr>130</ns3:hr>
            <ns3:cad>58</ns3:cad>
          </ns3:TrackPointExtension>
        </extensions>
      </trkpt>
      <trkpt lat="52.18896833248436450958251953125" lon="1.53348100371658802032470703125">
        <ele>-77.59999847412109375</ele>
        <time>2025-09-06T12:19:32.000Z</time>
        <extensions>
          <ns3:TrackPointExtension>
            <ns3:hr>133</ns3:hr>
            <ns3:cad>58</ns3:cad>
          </ns3:TrackPointExtension>
        </extensions>
      </trkpt>
      <trkpt lat="52.18899800442159175872802734375" lon="1.53356431983411312103271484375">
        <ele>-78</ele>
        <time>2025-09-06T12:19:36.000Z</time>
        <extensions>
          <ns3:TrackPointExtension>
            <ns3:hr>132</ns3:hr>
            <ns3:cad>61</ns3:cad>
          </ns3:TrackPointExtension>
        </extensions>
      </trkpt>
      <trkpt lat="52.18901677988469600677490234375" lon="1.53360187076032161712646484375">
        <ele>-78.40000152587890625</ele>
        <time>2025-09-06T12:19:38.000Z</time>
        <extensions>
          <ns3:TrackPointExtension>
            <ns3:hr>131</ns3:hr>
            <ns3:cad>121</ns3:cad>
          </ns3:TrackPointExtension>
        </extensions>
      </trkpt>
      <trkpt lat="52.18904846347868442535400390625" lon="1.53372491709887981414794921875">
        <ele>-79</ele>
        <time>2025-09-06T12:19:43.000Z</time>
        <extensions>
          <ns3:TrackPointExtension>
            <ns3:hr>131</ns3:hr>
            <ns3:cad>60</ns3:cad>
          </ns3:TrackPointExtension>
        </extensions>
      </trkpt>
      <trkpt lat="52.1890653111040592193603515625" lon="1.5337657369673252105712890625">
        <ele>-79.40000152587890625</ele>
        <time>2025-09-06T12:19:45.000Z</time>
        <extensions>
          <ns3:TrackPointExtension>
            <ns3:hr>132</ns3:hr>
            <ns3:cad>61</ns3:cad>
          </ns3:TrackPointExtension>
        </extensions>
      </trkpt>
      <trkpt lat="52.18911116011440753936767578125" lon="1.533873863518238067626953125">
        <ele>-80</ele>
        <time>2025-09-06T12:19:50.000Z</time>
        <extensions>
          <ns3:TrackPointExtension>
            <ns3:hr>130</ns3:hr>
            <ns3:cad>59</ns3:cad>
          </ns3:TrackPointExtension>
        </extensions>
      </trkpt>
      <trkpt lat="52.1891665644943714141845703125" lon="1.53398727066814899444580078125">
        <ele>-81</ele>
        <time>2025-09-06T12:19:56.000Z</time>
        <extensions>
          <ns3:TrackPointExtension>
            <ns3:hr>133</ns3:hr>
            <ns3:cad>60</ns3:cad>
          </ns3:TrackPointExtension>
        </extensions>
      </trkpt>
      <trkpt lat="52.18917704187333583831787109375" lon="1.53400294482707977294921875">
        <ele>-81.1999969482421875</ele>
        <time>2025-09-06T12:19:57.000Z</time>
        <extensions>
          <ns3:TrackPointExtension>
            <ns3:hr>133</ns3:hr>
            <ns3:cad>60</ns3:cad>
          </ns3:TrackPointExtension>
        </extensions>
      </trkpt>
      <trkpt lat="52.1892409957945346832275390625" lon="1.53415172360837459564208984375">
        <ele>-82</ele>
        <time>2025-09-06T12:20:04.000Z</time>
        <extensions>
          <ns3:TrackPointExtension>
            <ns3:hr>134</ns3:hr>
            <ns3:cad>59</ns3:cad>
          </ns3:TrackPointExtension>
        </extensions>
      </trkpt>
      <trkpt lat="52.18925180844962596893310546875" lon="1.53416848741471767425537109375">
        <ele>-82.1999969482421875</ele>
        <time>2025-09-06T12:20:05.000Z</time>
        <extensions>
          <ns3:TrackPointExtension>
            <ns3:hr>130</ns3:hr>
            <ns3:cad>59</ns3:cad>
          </ns3:TrackPointExtension>
        </extensions>
      </trkpt>
      <trkpt lat="52.18930411152541637420654296875" lon="1.53428365476429462432861328125">
        <ele>-83</ele>
        <time>2025-09-06T12:20:12.000Z</time>
        <extensions>
          <ns3:TrackPointExtension>
            <ns3:hr>131</ns3:hr>
            <ns3:cad>57</ns3:cad>
          </ns3:TrackPointExtension>
        </extensions>
      </trkpt>
      <trkpt lat="52.18931450508534908294677734375" lon="1.5343152545392513275146484375">
        <ele>-83.1999969482421875</ele>
        <time>2025-09-06T12:20:14.000Z</time>
        <extensions>
          <ns3:TrackPointExtension>
            <ns3:hr>131</ns3:hr>
            <ns3:cad>57</ns3:cad>
          </ns3:TrackPointExtension>
        </extensions>
      </trkpt>
      <trkpt lat="52.18933680094778537750244140625" lon="1.53440267778933048248291015625">
        <ele>-83.59999847412109375</ele>
        <time>2025-09-06T12:20:18.000Z</time>
        <extensions>
          <ns3:TrackPointExtension>
            <ns3:hr>129</ns3:hr>
            <ns3:cad>57</ns3:cad>
          </ns3:TrackPointExtension>
        </extensions>
      </trkpt>
      <trkpt lat="52.18941827304661273956298828125" lon="1.5344850718975067138671875">
        <ele>-84.1999969482421875</ele>
        <time>2025-09-06T12:20:24.000Z</time>
        <extensions>
          <ns3:TrackPointExtension>
            <ns3:hr>127</ns3:hr>
            <ns3:cad>58</ns3:cad>
          </ns3:TrackPointExtension>
        </extensions>
      </trkpt>
      <trkpt lat="52.1894461847841739654541015625" lon="1.53451918624341487884521484375">
        <ele>-84.40000152587890625</ele>
        <time>2025-09-06T12:20:26.000Z</time>
        <extensions>
          <ns3:TrackPointExtension>
            <ns3:hr>130</ns3:hr>
            <ns3:cad>58</ns3:cad>
          </ns3:TrackPointExtension>
        </extensions>
      </trkpt>
      <trkpt lat="52.1895043551921844482421875" lon="1.5347021631896495819091796875">
        <ele>-85.40000152587890625</ele>
        <time>2025-09-06T12:20:34.000Z</time>
        <extensions>
          <ns3:TrackPointExtension>
            <ns3:hr>133</ns3:hr>
            <ns3:cad>58</ns3:cad>
          </ns3:TrackPointExtension>
        </extensions>
      </trkpt>
      <trkpt lat="52.189534865319728851318359375" lon="1.5348463319242000579833984375">
        <ele>-86</ele>
        <time>2025-09-06T12:20:41.000Z</time>
        <extensions>
          <ns3:TrackPointExtension>
            <ns3:hr>132</ns3:hr>
            <ns3:cad>60</ns3:cad>
          </ns3:TrackPointExtension>
        </extensions>
      </trkpt>
      <trkpt lat="52.18954752199351787567138671875" lon="1.53491078875958919525146484375">
        <ele>-86.40000152587890625</ele>
        <time>2025-09-06T12:20:44.000Z</time>
        <extensions>
          <ns3:TrackPointExtension>
            <ns3:hr>132</ns3:hr>
            <ns3:cad>59</ns3:cad>
          </ns3:TrackPointExtension>
        </extensions>
      </trkpt>
      <trkpt lat="52.1895611844956874847412109375" lon="1.5349837951362133026123046875">
        <ele>-86.8000030517578125</ele>
        <time>2025-09-06T12:20:47.000Z</time>
        <extensions>
          <ns3:TrackPointExtension>
            <ns3:hr>129</ns3:hr>
            <ns3:cad>58</ns3:cad>
          </ns3:TrackPointExtension>
        </extensions>
      </trkpt>
      <trkpt lat="52.1895678900182247161865234375" lon="1.53506518341600894927978515625">
        <ele>-87</ele>
        <time>2025-09-06T12:20:50.000Z</time>
        <extensions>
          <ns3:TrackPointExtension>
            <ns3:hr>128</ns3:hr>
            <ns3:cad>58</ns3:cad>
          </ns3:TrackPointExtension>
        </extensions>
      </trkpt>
      <trkpt lat="52.1895772777497768402099609375" lon="1.53519921004772186279296875">
        <ele>-87.40000152587890625</ele>
        <time>2025-09-06T12:20:55.000Z</time>
        <extensions>
          <ns3:TrackPointExtension>
            <ns3:hr>127</ns3:hr>
            <ns3:cad>60</ns3:cad>
          </ns3:TrackPointExtension>
        </extensions>
      </trkpt>
      <trkpt lat="52.1895901858806610107421875" lon="1.53527070768177509307861328125">
        <ele>-87.59999847412109375</ele>
        <time>2025-09-06T12:20:58.000Z</time>
        <extensions>
          <ns3:TrackPointExtension>
            <ns3:hr>127</ns3:hr>
            <ns3:cad>60</ns3:cad>
          </ns3:TrackPointExtension>
        </extensions>
      </trkpt>
      <trkpt lat="52.18963402323424816131591796875" lon="1.5354903973639011383056640625">
        <ele>-88.40000152587890625</ele>
        <time>2025-09-06T12:21:07.000Z</time>
        <extensions>
          <ns3:TrackPointExtension>
            <ns3:hr>126</ns3:hr>
            <ns3:cad>60</ns3:cad>
          </ns3:TrackPointExtension>
        </extensions>
      </trkpt>
      <trkpt lat="52.18964056111872196197509765625" lon="1.5355396829545497894287109375">
        <ele>-88.40000152587890625</ele>
        <time>2025-09-06T12:21:09.000Z</time>
        <extensions>
          <ns3:TrackPointExtension>
            <ns3:hr>126</ns3:hr>
            <ns3:cad>60</ns3:cad>
          </ns3:TrackPointExtension>
        </extensions>
      </trkpt>
      <trkpt lat="52.18964609317481517791748046875" lon="1.53558117337524890899658203125">
        <ele>-88.59999847412109375</ele>
        <time>2025-09-06T12:21:11.000Z</time>
        <extensions>
          <ns3:TrackPointExtension>
            <ns3:hr>127</ns3:hr>
            <ns3:cad>60</ns3:cad>
          </ns3:TrackPointExtension>
        </extensions>
      </trkpt>
      <trkpt lat="52.1896667964756488800048828125" lon="1.53560816310346126556396484375">
        <ele>-88.8000030517578125</ele>
        <time>2025-09-06T12:21:13.000Z</time>
        <extensions>
          <ns3:TrackPointExtension>
            <ns3:hr>125</ns3:hr>
            <ns3:cad>60</ns3:cad>
          </ns3:TrackPointExtension>
        </extensions>
      </trkpt>
      <trkpt lat="52.18970929272472858428955078125" lon="1.53564504347741603851318359375">
        <ele>-89</ele>
        <time>2025-09-06T12:21:16.000Z</time>
        <extensions>
          <ns3:TrackPointExtension>
            <ns3:hr>122</ns3:hr>
            <ns3:cad>57</ns3:cad>
          </ns3:TrackPointExtension>
        </extensions>
      </trkpt>
      <trkpt lat="52.18975237570703029632568359375" lon="1.535691730678081512451171875">
        <ele>-89.1999969482421875</ele>
        <time>2025-09-06T12:21:19.000Z</time>
        <extensions>
          <ns3:TrackPointExtension>
            <ns3:hr>119</ns3:hr>
            <ns3:cad>57</ns3:cad>
          </ns3:TrackPointExtension>
        </extensions>
      </trkpt>
      <trkpt lat="52.1897727437317371368408203125" lon="1.5357267670333385467529296875">
        <ele>-89.40000152587890625</ele>
        <time>2025-09-06T12:21:21.000Z</time>
        <extensions>
          <ns3:TrackPointExtension>
            <ns3:hr>120</ns3:hr>
            <ns3:cad>57</ns3:cad>
          </ns3:TrackPointExtension>
        </extensions>
      </trkpt>
      <trkpt lat="52.18979495577514171600341796875" lon="1.53575819917023181915283203125">
        <ele>-89.59999847412109375</ele>
        <time>2025-09-06T12:21:23.000Z</time>
        <extensions>
          <ns3:TrackPointExtension>
            <ns3:hr>120</ns3:hr>
            <ns3:cad>58</ns3:cad>
          </ns3:TrackPointExtension>
        </extensions>
      </trkpt>
      <trkpt lat="52.18984876759350299835205078125" lon="1.53586632572114467620849609375">
        <ele>-89.8000030517578125</ele>
        <time>2025-09-06T12:21:29.000Z</time>
        <extensions>
          <ns3:TrackPointExtension>
            <ns3:hr>119</ns3:hr>
            <ns3:cad>58</ns3:cad>
          </ns3:TrackPointExtension>
        </extensions>
      </trkpt>
      <trkpt lat="52.18990542925894260406494140625" lon="1.5359983406960964202880859375">
        <ele>-90.1999969482421875</ele>
        <time>2025-09-06T12:21:36.000Z</time>
        <extensions>
          <ns3:TrackPointExtension>
            <ns3:hr>125</ns3:hr>
            <ns3:cad>58</ns3:cad>
          </ns3:TrackPointExtension>
        </extensions>
      </trkpt>
      <trkpt lat="52.18992839567363262176513671875" lon="1.53604519553482532501220703125">
        <ele>-90.40000152587890625</ele>
        <time>2025-09-06T12:21:39.000Z</time>
        <extensions>
          <ns3:TrackPointExtension>
            <ns3:hr>128</ns3:hr>
            <ns3:cad>58</ns3:cad>
          </ns3:TrackPointExtension>
        </extensions>
      </trkpt>
      <trkpt lat="52.18995974399149417877197265625" lon="1.5360995940864086151123046875">
        <ele>-90.59999847412109375</ele>
        <time>2025-09-06T12:21:42.000Z</time>
        <extensions>
          <ns3:TrackPointExtension>
            <ns3:hr>129</ns3:hr>
            <ns3:cad>56</ns3:cad>
          </ns3:TrackPointExtension>
        </extensions>
      </trkpt>
      <trkpt lat="52.1899789385497570037841796875" lon="1.53617176227271556854248046875">
        <ele>-90.59999847412109375</ele>
        <time>2025-09-06T12:21:45.000Z</time>
        <extensions>
          <ns3:TrackPointExtension>
            <ns3:hr>132</ns3:hr>
            <ns3:cad>56</ns3:cad>
          </ns3:TrackPointExtension>
        </extensions>
      </trkpt>
      <trkpt lat="52.19003585167229175567626953125" lon="1.5362635441124439239501953125">
        <ele>-90.8000030517578125</ele>
        <time>2025-09-06T12:21:50.000Z</time>
        <extensions>
          <ns3:TrackPointExtension>
            <ns3:hr>133</ns3:hr>
            <ns3:cad>57</ns3:cad>
          </ns3:TrackPointExtension>
        </extensions>
      </trkpt>
      <trkpt lat="52.19008647836744785308837890625" lon="1.53633587993681430816650390625">
        <ele>-90.8000030517578125</ele>
        <time>2025-09-06T12:21:55.000Z</time>
        <extensions>
          <ns3:TrackPointExtension>
            <ns3:hr>131</ns3:hr>
            <ns3:cad>59</ns3:cad>
          </ns3:TrackPointExtension>
        </extensions>
      </trkpt>
      <trkpt lat="52.1900989674031734466552734375" lon="1.53636270202696323394775390625">
        <ele>-90.8000030517578125</ele>
        <time>2025-09-06T12:21:57.000Z</time>
        <extensions>
          <ns3:TrackPointExtension>
            <ns3:hr>127</ns3:hr>
            <ns3:cad>59</ns3:cad>
          </ns3:TrackPointExtension>
        </extensions>
      </trkpt>
      <trkpt lat="52.19013425521552562713623046875" lon="1.5364103950560092926025390625">
        <ele>-90.8000030517578125</ele>
        <time>2025-09-06T12:22:02.000Z</time>
        <extensions>
          <ns3:TrackPointExtension>
            <ns3:hr>126</ns3:hr>
            <ns3:cad>57</ns3:cad>
          </ns3:TrackPointExtension>
        </extensions>
      </trkpt>
      <trkpt lat="52.1901398710906505584716796875" lon="1.5364455990493297576904296875">
        <ele>-90.8000030517578125</ele>
        <time>2025-09-06T12:22:03.000Z</time>
        <extensions>
          <ns3:TrackPointExtension>
            <ns3:hr>127</ns3:hr>
            <ns3:cad>57</ns3:cad>
          </ns3:TrackPointExtension>
        </extensions>
      </trkpt>
      <trkpt lat="52.19014448113739490509033203125" lon="1.536560095846652984619140625">
        <ele>-90.8000030517578125</ele>
        <time>2025-09-06T12:22:06.000Z</time>
        <extensions>
          <ns3:TrackPointExtension>
            <ns3:hr>124</ns3:hr>
            <ns3:cad>75</ns3:cad>
          </ns3:TrackPointExtension>
        </extensions>
      </trkpt>
      <trkpt lat="52.1901573054492473602294921875" lon="1.5367416478693485260009765625">
        <ele>-90.8000030517578125</ele>
        <time>2025-09-06T12:22:11.000Z</time>
        <extensions>
          <ns3:TrackPointExtension>
            <ns3:hr>123</ns3:hr>
            <ns3:cad>77</ns3:cad>
          </ns3:TrackPointExtension>
        </extensions>
      </trkpt>
      <trkpt lat="52.19015722163021564483642578125" lon="1.53684399090707302093505859375">
        <ele>-90.8000030517578125</ele>
        <time>2025-09-06T12:22:14.000Z</time>
        <extensions>
          <ns3:TrackPointExtension>
            <ns3:hr>126</ns3:hr>
            <ns3:cad>79</ns3:cad>
          </ns3:TrackPointExtension>
        </extensions>
      </trkpt>
      <trkpt lat="52.1901561319828033447265625" lon="1.537015736103057861328125">
        <ele>-90.59999847412109375</ele>
        <time>2025-09-06T12:22:19.000Z</time>
        <extensions>
          <ns3:TrackPointExtension>
            <ns3:hr>126</ns3:hr>
            <ns3:cad>80</ns3:cad>
          </ns3:TrackPointExtension>
        </extensions>
      </trkpt>
      <trkpt lat="52.19014883972704410552978515625" lon="1.53720273636281490325927734375">
        <ele>-89.8000030517578125</ele>
        <time>2025-09-06T12:22:25.000Z</time>
        <extensions>
          <ns3:TrackPointExtension>
            <ns3:hr>129</ns3:hr>
            <ns3:cad>80</ns3:cad>
          </ns3:TrackPointExtension>
        </extensions>
      </trkpt>
      <trkpt lat="52.1901452355086803436279296875" lon="1.53723391704261302947998046875">
        <ele>-89.59999847412109375</ele>
        <time>2025-09-06T12:22:26.000Z</time>
        <extensions>
          <ns3:TrackPointExtension>
            <ns3:hr>132</ns3:hr>
            <ns3:cad>80</ns3:cad>
          </ns3:TrackPointExtension>
        </extensions>
      </trkpt>
      <trkpt lat="52.1901442296802997589111328125" lon="1.53726543299853801727294921875">
        <ele>-89.40000152587890625</ele>
        <time>2025-09-06T12:22:27.000Z</time>
        <extensions>
          <ns3:TrackPointExtension>
            <ns3:hr>135</ns3:hr>
            <ns3:cad>80</ns3:cad>
          </ns3:TrackPointExtension>
        </extensions>
      </trkpt>
      <trkpt lat="52.190144062042236328125" lon="1.53730063699185848236083984375">
        <ele>-89.1999969482421875</ele>
        <time>2025-09-06T12:22:28.000Z</time>
        <extensions>
          <ns3:TrackPointExtension>
            <ns3:hr>138</ns3:hr>
            <ns3:cad>80</ns3:cad>
          </ns3:TrackPointExtension>
        </extensions>
      </trkpt>
      <trkpt lat="52.190143726766109466552734375" lon="1.53733667917549610137939453125">
        <ele>-89</ele>
        <time>2025-09-06T12:22:29.000Z</time>
        <extensions>
          <ns3:TrackPointExtension>
            <ns3:hr>142</ns3:hr>
            <ns3:cad>80</ns3:cad>
          </ns3:TrackPointExtension>
        </extensions>
      </trkpt>
      <trkpt lat="52.19014431349933147430419921875" lon="1.5373666025698184967041015625">
        <ele>-88.59999847412109375</ele>
        <time>2025-09-06T12:22:30.000Z</time>
        <extensions>
          <ns3:TrackPointExtension>
            <ns3:hr>145</ns3:hr>
            <ns3:cad>80</ns3:cad>
          </ns3:TrackPointExtension>
        </extensions>
      </trkpt>
      <trkpt lat="52.190143726766109466552734375" lon="1.5374296344816684722900390625">
        <ele>-88.1999969482421875</ele>
        <time>2025-09-06T12:22:32.000Z</time>
        <extensions>
          <ns3:TrackPointExtension>
            <ns3:hr>149</ns3:hr>
            <ns3:cad>79</ns3:cad>
          </ns3:TrackPointExtension>
        </extensions>
      </trkpt>
      <trkpt lat="52.190139703452587127685546875" lon="1.537521667778491973876953125">
        <ele>-87.1999969482421875</ele>
        <time>2025-09-06T12:22:35.000Z</time>
        <extensions>
          <ns3:TrackPointExtension>
            <ns3:hr>152</ns3:hr>
            <ns3:cad>78</ns3:cad>
          </ns3:TrackPointExtension>
        </extensions>
      </trkpt>
      <trkpt lat="52.190138362348079681396484375" lon="1.537546813488006591796875">
        <ele>-87</ele>
        <time>2025-09-06T12:22:36.000Z</time>
        <extensions>
          <ns3:TrackPointExtension>
            <ns3:hr>152</ns3:hr>
            <ns3:cad>78</ns3:cad>
          </ns3:TrackPointExtension>
        </extensions>
      </trkpt>
      <trkpt lat="52.1901408769190311431884765625" lon="1.5376539342105388641357421875">
        <ele>-85.8000030517578125</ele>
        <time>2025-09-06T12:22:40.000Z</time>
        <extensions>
          <ns3:TrackPointExtension>
            <ns3:hr>151</ns3:hr>
            <ns3:cad>79</ns3:cad>
          </ns3:TrackPointExtension>
        </extensions>
      </trkpt>
      <trkpt lat="52.1901495940983295440673828125" lon="1.537765078246593475341796875">
        <ele>-84.40000152587890625</ele>
        <time>2025-09-06T12:22:44.000Z</time>
        <extensions>
          <ns3:TrackPointExtension>
            <ns3:hr>153</ns3:hr>
            <ns3:cad>78</ns3:cad>
          </ns3:TrackPointExtension>
        </extensions>
      </trkpt>
      <trkpt lat="52.19016577117145061492919921875" lon="1.5378872863948345184326171875">
        <ele>-83.1999969482421875</ele>
        <time>2025-09-06T12:22:48.000Z</time>
        <extensions>
          <ns3:TrackPointExtension>
            <ns3:hr>154</ns3:hr>
            <ns3:cad>79</ns3:cad>
          </ns3:TrackPointExtension>
        </extensions>
      </trkpt>
      <trkpt lat="52.19018940813839435577392578125" lon="1.53798627667129039764404296875">
        <ele>-82.1999969482421875</ele>
        <time>2025-09-06T12:22:51.000Z</time>
        <extensions>
          <ns3:TrackPointExtension>
            <ns3:hr>157</ns3:hr>
            <ns3:cad>79</ns3:cad>
          </ns3:TrackPointExtension>
        </extensions>
      </trkpt>
      <trkpt lat="52.1901977062225341796875" lon="1.5380148589611053466796875">
        <ele>-81.8000030517578125</ele>
        <time>2025-09-06T12:22:52.000Z</time>
        <extensions>
          <ns3:TrackPointExtension>
            <ns3:hr>157</ns3:hr>
            <ns3:cad>79</ns3:cad>
          </ns3:TrackPointExtension>
        </extensions>
      </trkpt>
      <trkpt lat="52.190214805305004119873046875" lon="1.53810563497245311737060546875">
        <ele>-80.8000030517578125</ele>
        <time>2025-09-06T12:22:55.000Z</time>
        <extensions>
          <ns3:TrackPointExtension>
            <ns3:hr>159</ns3:hr>
            <ns3:cad>78</ns3:cad>
          </ns3:TrackPointExtension>
        </extensions>
      </trkpt>
      <trkpt lat="52.19022947363555431365966796875" lon="1.53823438100516796112060546875">
        <ele>-79.59999847412109375</ele>
        <time>2025-09-06T12:22:59.000Z</time>
        <extensions>
          <ns3:TrackPointExtension>
            <ns3:hr>158</ns3:hr>
            <ns3:cad>79</ns3:cad>
          </ns3:TrackPointExtension>
        </extensions>
      </trkpt>
      <trkpt lat="52.19025411643087863922119140625" lon="1.5383580140769481658935546875">
        <ele>-78.1999969482421875</ele>
        <time>2025-09-06T12:23:03.000Z</time>
        <extensions>
          <ns3:TrackPointExtension>
            <ns3:hr>159</ns3:hr>
            <ns3:cad>79</ns3:cad>
          </ns3:TrackPointExtension>
        </extensions>
      </trkpt>
      <trkpt lat="52.19028010033071041107177734375" lon="1.53847762383520603179931640625">
        <ele>-77.1999969482421875</ele>
        <time>2025-09-06T12:23:07.000Z</time>
        <extensions>
          <ns3:TrackPointExtension>
            <ns3:hr>158</ns3:hr>
            <ns3:cad>80</ns3:cad>
          </ns3:TrackPointExtension>
        </extensions>
      </trkpt>
      <trkpt lat="52.19032050110399723052978515625" lon="1.53862732462584972381591796875">
        <ele>-76</ele>
        <time>2025-09-06T12:23:12.000Z</time>
        <extensions>
          <ns3:TrackPointExtension>
            <ns3:hr>159</ns3:hr>
            <ns3:cad>80</ns3:cad>
          </ns3:TrackPointExtension>
        </extensions>
      </trkpt>
      <trkpt lat="52.19033424742519855499267578125" lon="1.538686417043209075927734375">
        <ele>-75.40000152587890625</ele>
        <time>2025-09-06T12:23:14.000Z</time>
        <extensions>
          <ns3:TrackPointExtension>
            <ns3:hr>159</ns3:hr>
            <ns3:cad>80</ns3:cad>
          </ns3:TrackPointExtension>
        </extensions>
      </trkpt>
      <trkpt lat="52.1903561241924762725830078125" lon="1.53877853415906429290771484375">
        <ele>-74.8000030517578125</ele>
        <time>2025-09-06T12:23:17.000Z</time>
        <extensions>
          <ns3:TrackPointExtension>
            <ns3:hr>160</ns3:hr>
            <ns3:cad>80</ns3:cad>
          </ns3:TrackPointExtension>
        </extensions>
      </trkpt>
      <trkpt lat="52.19037129543721675872802734375" lon="1.538864113390445709228515625">
        <ele>-74.1999969482421875</ele>
        <time>2025-09-06T12:23:20.000Z</time>
        <extensions>
          <ns3:TrackPointExtension>
            <ns3:hr>161</ns3:hr>
            <ns3:cad>81</ns3:cad>
          </ns3:TrackPointExtension>
        </extensions>
      </trkpt>
      <trkpt lat="52.19040130265057086944580078125" lon="1.53895002789795398712158203125">
        <ele>-73.59999847412109375</ele>
        <time>2025-09-06T12:23:23.000Z</time>
        <extensions>
          <ns3:TrackPointExtension>
            <ns3:hr>162</ns3:hr>
            <ns3:cad>81</ns3:cad>
          </ns3:TrackPointExtension>
        </extensions>
      </trkpt>
      <trkpt lat="52.19044690020382404327392578125" lon="1.53905999846756458282470703125">
        <ele>-73</ele>
        <time>2025-09-06T12:23:27.000Z</time>
        <extensions>
          <ns3:TrackPointExtension>
            <ns3:hr>160</ns3:hr>
            <ns3:cad>80</ns3:cad>
          </ns3:TrackPointExtension>
        </extensions>
      </trkpt>
      <trkpt lat="52.19048478640615940093994140625" lon="1.5391440689563751220703125">
        <ele>-72.40000152587890625</ele>
        <time>2025-09-06T12:23:30.000Z</time>
        <extensions>
          <ns3:TrackPointExtension>
            <ns3:hr>159</ns3:hr>
            <ns3:cad>80</ns3:cad>
          </ns3:TrackPointExtension>
        </extensions>
      </trkpt>
      <trkpt lat="52.1905153803527355194091796875" lon="1.53926133178174495697021484375">
        <ele>-71.8000030517578125</ele>
        <time>2025-09-06T12:23:34.000Z</time>
        <extensions>
          <ns3:TrackPointExtension>
            <ns3:hr>162</ns3:hr>
            <ns3:cad>80</ns3:cad>
          </ns3:TrackPointExtension>
        </extensions>
      </trkpt>
      <trkpt lat="52.19052451662719249725341796875" lon="1.5392880700528621673583984375">
        <ele>-71.8000030517578125</ele>
        <time>2025-09-06T12:23:35.000Z</time>
        <extensions>
          <ns3:TrackPointExtension>
            <ns3:hr>159</ns3:hr>
            <ns3:cad>80</ns3:cad>
          </ns3:TrackPointExtension>
        </extensions>
      </trkpt>
      <trkpt lat="52.1905375085771083831787109375" lon="1.5393423847854137420654296875">
        <ele>-71.40000152587890625</ele>
        <time>2025-09-06T12:23:37.000Z</time>
        <extensions>
          <ns3:TrackPointExtension>
            <ns3:hr>157</ns3:hr>
            <ns3:cad>80</ns3:cad>
          </ns3:TrackPointExtension>
        </extensions>
      </trkpt>
      <trkpt lat="52.1905933320522308349609375" lon="1.5395452268421649932861328125">
        <ele>-70.40000152587890625</ele>
        <time>2025-09-06T12:23:44.000Z</time>
        <extensions>
          <ns3:TrackPointExtension>
            <ns3:hr>158</ns3:hr>
            <ns3:cad>79</ns3:cad>
          </ns3:TrackPointExtension>
        </extensions>
      </trkpt>
      <trkpt lat="52.19060230068862438201904296875" lon="1.5395764075219631195068359375">
        <ele>-70.40000152587890625</ele>
        <time>2025-09-06T12:23:45.000Z</time>
        <extensions>
          <ns3:TrackPointExtension>
            <ns3:hr>159</ns3:hr>
            <ns3:cad>79</ns3:cad>
          </ns3:TrackPointExtension>
        </extensions>
      </trkpt>
      <trkpt lat="52.19064706005156040191650390625" lon="1.53972686268389225006103515625">
        <ele>-69.59999847412109375</ele>
        <time>2025-09-06T12:23:50.000Z</time>
        <extensions>
          <ns3:TrackPointExtension>
            <ns3:hr>162</ns3:hr>
            <ns3:cad>80</ns3:cad>
          </ns3:TrackPointExtension>
        </extensions>
      </trkpt>
      <trkpt lat="52.1906551904976367950439453125" lon="1.53975854627788066864013671875">
        <ele>-69.59999847412109375</ele>
        <time>2025-09-06T12:23:51.000Z</time>
        <extensions>
          <ns3:TrackPointExtension>
            <ns3:hr>159</ns3:hr>
            <ns3:cad>80</ns3:cad>
          </ns3:TrackPointExtension>
        </extensions>
      </trkpt>
      <trkpt lat="52.19066550023853778839111328125" lon="1.539790816605091094970703125">
        <ele>-69.40000152587890625</ele>
        <time>2025-09-06T12:23:52.000Z</time>
        <extensions>
          <ns3:TrackPointExtension>
            <ns3:hr>159</ns3:hr>
            <ns3:cad>80</ns3:cad>
          </ns3:TrackPointExtension>
        </extensions>
      </trkpt>
      <trkpt lat="52.19067371450364589691162109375" lon="1.53982191346585750579833984375">
        <ele>-69.1999969482421875</ele>
        <time>2025-09-06T12:23:53.000Z</time>
        <extensions>
          <ns3:TrackPointExtension>
            <ns3:hr>160</ns3:hr>
            <ns3:cad>80</ns3:cad>
          </ns3:TrackPointExtension>
        </extensions>
      </trkpt>
      <trkpt lat="52.190719731152057647705078125" lon="1.53998837806284427642822265625">
        <ele>-68.40000152587890625</ele>
        <time>2025-09-06T12:23:59.000Z</time>
        <extensions>
          <ns3:TrackPointExtension>
            <ns3:hr>160</ns3:hr>
            <ns3:cad>80</ns3:cad>
          </ns3:TrackPointExtension>
        </extensions>
      </trkpt>
      <trkpt lat="52.1907274425029754638671875" lon="1.54001511633396148681640625">
        <ele>-68.1999969482421875</ele>
        <time>2025-09-06T12:24:00.000Z</time>
        <extensions>
          <ns3:TrackPointExtension>
            <ns3:hr>159</ns3:hr>
            <ns3:cad>80</ns3:cad>
          </ns3:TrackPointExtension>
        </extensions>
      </trkpt>
      <trkpt lat="52.19077865593135356903076171875" lon="1.540178395807743072509765625">
        <ele>-67</ele>
        <time>2025-09-06T12:24:06.000Z</time>
        <extensions>
          <ns3:TrackPointExtension>
            <ns3:hr>160</ns3:hr>
            <ns3:cad>81</ns3:cad>
          </ns3:TrackPointExtension>
        </extensions>
      </trkpt>
      <trkpt lat="52.19078603200614452362060546875" lon="1.540208570659160614013671875">
        <ele>-66.8000030517578125</ele>
        <time>2025-09-06T12:24:07.000Z</time>
        <extensions>
          <ns3:TrackPointExtension>
            <ns3:hr>159</ns3:hr>
            <ns3:cad>81</ns3:cad>
          </ns3:TrackPointExtension>
        </extensions>
      </trkpt>
      <trkpt lat="52.19082626514136791229248046875" lon="1.54032600112259387969970703125">
        <ele>-66</ele>
        <time>2025-09-06T12:24:11.000Z</time>
        <extensions>
          <ns3:TrackPointExtension>
            <ns3:hr>160</ns3:hr>
            <ns3:cad>80</ns3:cad>
          </ns3:TrackPointExtension>
        </extensions>
      </trkpt>
      <trkpt lat="52.190854512155055999755859375" lon="1.54041417874395847320556640625">
        <ele>-65.1999969482421875</ele>
        <time>2025-09-06T12:24:14.000Z</time>
        <extensions>
          <ns3:TrackPointExtension>
            <ns3:hr>158</ns3:hr>
            <ns3:cad>80</ns3:cad>
          </ns3:TrackPointExtension>
        </extensions>
      </trkpt>
      <trkpt lat="52.1908711083233356475830078125" lon="1.540470421314239501953125">
        <ele>-64.8000030517578125</ele>
        <time>2025-09-06T12:24:16.000Z</time>
        <extensions>
          <ns3:TrackPointExtension>
            <ns3:hr>158</ns3:hr>
            <ns3:cad>80</ns3:cad>
          </ns3:TrackPointExtension>
        </extensions>
      </trkpt>
      <trkpt lat="52.19092651270329952239990234375" lon="1.54060511849820613861083984375">
        <ele>-63.59999847412109375</ele>
        <time>2025-09-06T12:24:21.000Z</time>
        <extensions>
          <ns3:TrackPointExtension>
            <ns3:hr>157</ns3:hr>
            <ns3:cad>79</ns3:cad>
          </ns3:TrackPointExtension>
        </extensions>
      </trkpt>
      <trkpt lat="52.19093522988259792327880859375" lon="1.540635041892528533935546875">
        <ele>-63.40000152587890625</ele>
        <time>2025-09-06T12:24:22.000Z</time>
        <extensions>
          <ns3:TrackPointExtension>
            <ns3:hr>157</ns3:hr>
            <ns3:cad>80</ns3:cad>
          </ns3:TrackPointExtension>
        </extensions>
      </trkpt>
      <trkpt lat="52.1909649856388568878173828125" lon="1.54075062833726406097412109375">
        <ele>-62.59999847412109375</ele>
        <time>2025-09-06T12:24:26.000Z</time>
        <extensions>
          <ns3:TrackPointExtension>
            <ns3:hr>158</ns3:hr>
            <ns3:cad>80</ns3:cad>
          </ns3:TrackPointExtension>
        </extensions>
      </trkpt>
      <trkpt lat="52.1909871138632297515869140625" lon="1.54085976071655750274658203125">
        <ele>-61.59999847412109375</ele>
        <time>2025-09-06T12:24:30.000Z</time>
        <extensions>
          <ns3:TrackPointExtension>
            <ns3:hr>159</ns3:hr>
            <ns3:cad>81</ns3:cad>
          </ns3:TrackPointExtension>
        </extensions>
      </trkpt>
      <trkpt lat="52.19099239446222782135009765625" lon="1.54088708572089672088623046875">
        <ele>-61.40000152587890625</ele>
        <time>2025-09-06T12:24:31.000Z</time>
        <extensions>
          <ns3:TrackPointExtension>
            <ns3:hr>159</ns3:hr>
            <ns3:cad>81</ns3:cad>
          </ns3:TrackPointExtension>
        </extensions>
      </trkpt>
      <trkpt lat="52.1910273469984531402587890625" lon="1.54102228581905364990234375">
        <ele>-60.40000152587890625</ele>
        <time>2025-09-06T12:24:36.000Z</time>
        <extensions>
          <ns3:TrackPointExtension>
            <ns3:hr>157</ns3:hr>
            <ns3:cad>80</ns3:cad>
          </ns3:TrackPointExtension>
        </extensions>
      </trkpt>
      <trkpt lat="52.1910498104989528656005859375" lon="1.541078947484493255615234375">
        <ele>-59.799999237060546875</ele>
        <time>2025-09-06T12:24:38.000Z</time>
        <extensions>
          <ns3:TrackPointExtension>
            <ns3:hr>155</ns3:hr>
            <ns3:cad>80</ns3:cad>
          </ns3:TrackPointExtension>
        </extensions>
      </trkpt>
      <trkpt lat="52.19108493067324161529541015625" lon="1.541165448725223541259765625">
        <ele>-59.200000762939453125</ele>
        <time>2025-09-06T12:24:41.000Z</time>
        <extensions>
          <ns3:TrackPointExtension>
            <ns3:hr>156</ns3:hr>
            <ns3:cad>79</ns3:cad>
          </ns3:TrackPointExtension>
        </extensions>
      </trkpt>
      <trkpt lat="52.19111896120011806488037109375" lon="1.5412846393883228302001953125">
        <ele>-58</ele>
        <time>2025-09-06T12:24:45.000Z</time>
        <extensions>
          <ns3:TrackPointExtension>
            <ns3:hr>157</ns3:hr>
            <ns3:cad>80</ns3:cad>
          </ns3:TrackPointExtension>
        </extensions>
      </trkpt>
      <trkpt lat="52.191124074161052703857421875" lon="1.5413144789636135101318359375">
        <ele>-57.799999237060546875</ele>
        <time>2025-09-06T12:24:46.000Z</time>
        <extensions>
          <ns3:TrackPointExtension>
            <ns3:hr>157</ns3:hr>
            <ns3:cad>80</ns3:cad>
          </ns3:TrackPointExtension>
        </extensions>
      </trkpt>
      <trkpt lat="52.19114963896572589874267578125" lon="1.54139670543372631072998046875">
        <ele>-57</ele>
        <time>2025-09-06T12:24:49.000Z</time>
        <extensions>
          <ns3:TrackPointExtension>
            <ns3:hr>156</ns3:hr>
            <ns3:cad>80</ns3:cad>
          </ns3:TrackPointExtension>
        </extensions>
      </trkpt>
      <trkpt lat="52.191187106072902679443359375" lon="1.54150634072721004486083984375">
        <ele>-56</ele>
        <time>2025-09-06T12:24:53.000Z</time>
        <extensions>
          <ns3:TrackPointExtension>
            <ns3:hr>157</ns3:hr>
            <ns3:cad>80</ns3:cad>
          </ns3:TrackPointExtension>
        </extensions>
      </trkpt>
      <trkpt lat="52.1912156045436859130859375" lon="1.54164983890950679779052734375">
        <ele>-54.799999237060546875</ele>
        <time>2025-09-06T12:24:58.000Z</time>
        <extensions>
          <ns3:TrackPointExtension>
            <ns3:hr>157</ns3:hr>
            <ns3:cad>80</ns3:cad>
          </ns3:TrackPointExtension>
        </extensions>
      </trkpt>
      <trkpt lat="52.191234044730663299560546875" lon="1.5417189896106719970703125">
        <ele>-54</ele>
        <time>2025-09-06T12:25:01.000Z</time>
        <extensions>
          <ns3:TrackPointExtension>
            <ns3:hr>158</ns3:hr>
            <ns3:cad>0</ns3:cad>
          </ns3:TrackPointExtension>
        </extensions>
      </trkpt>
      <trkpt lat="52.191250808537006378173828125" lon="1.54176601208746433258056640625">
        <ele>-53.59999847412109375</ele>
        <time>2025-09-06T12:25:03.000Z</time>
        <extensions>
          <ns3:TrackPointExtension>
            <ns3:hr>159</ns3:hr>
            <ns3:cad>0</ns3:cad>
          </ns3:TrackPointExtension>
        </extensions>
      </trkpt>
      <trkpt lat="52.1912772953510284423828125" lon="1.54191118665039539337158203125">
        <ele>-52.59999847412109375</ele>
        <time>2025-09-06T12:25:09.000Z</time>
        <extensions>
          <ns3:TrackPointExtension>
            <ns3:hr>156</ns3:hr>
            <ns3:cad>0</ns3:cad>
          </ns3:TrackPointExtension>
        </extensions>
      </trkpt>
      <trkpt lat="52.19130755402147769927978515625" lon="1.54201713390648365020751953125">
        <ele>-52</ele>
        <time>2025-09-06T12:25:13.000Z</time>
        <extensions>
          <ns3:TrackPointExtension>
            <ns3:hr>152</ns3:hr>
            <ns3:cad>0</ns3:cad>
          </ns3:TrackPointExtension>
        </extensions>
      </trkpt>
      <trkpt lat="52.19132381491363048553466796875" lon="1.54209039174020290374755859375">
        <ele>-51.40000152587890625</ele>
        <time>2025-09-06T12:25:16.000Z</time>
        <extensions>
          <ns3:TrackPointExtension>
            <ns3:hr>155</ns3:hr>
            <ns3:cad>0</ns3:cad>
          </ns3:TrackPointExtension>
        </extensions>
      </trkpt>
      <trkpt lat="52.19133554957807064056396484375" lon="1.54223866760730743408203125">
        <ele>-50.799999237060546875</ele>
        <time>2025-09-06T12:25:22.000Z</time>
        <extensions>
          <ns3:TrackPointExtension>
            <ns3:hr>155</ns3:hr>
            <ns3:cad>0</ns3:cad>
          </ns3:TrackPointExtension>
        </extensions>
      </trkpt>
      <trkpt lat="52.1913311071693897247314453125" lon="1.542314775288105010986328125">
        <ele>-50.40000152587890625</ele>
        <time>2025-09-06T12:25:25.000Z</time>
        <extensions>
          <ns3:TrackPointExtension>
            <ns3:hr>154</ns3:hr>
            <ns3:cad>48</ns3:cad>
          </ns3:TrackPointExtension>
        </extensions>
      </trkpt>
      <trkpt lat="52.19133622013032436370849609375" lon="1.54240404255688190460205078125">
        <ele>-49.799999237060546875</ele>
        <time>2025-09-06T12:25:28.000Z</time>
        <extensions>
          <ns3:TrackPointExtension>
            <ns3:hr>153</ns3:hr>
            <ns3:cad>50</ns3:cad>
          </ns3:TrackPointExtension>
        </extensions>
      </trkpt>
      <trkpt lat="52.191337309777736663818359375" lon="1.5425100736320018768310546875">
        <ele>-49.40000152587890625</ele>
        <time>2025-09-06T12:25:31.000Z</time>
        <extensions>
          <ns3:TrackPointExtension>
            <ns3:hr>156</ns3:hr>
            <ns3:cad>75</ns3:cad>
          </ns3:TrackPointExtension>
        </extensions>
      </trkpt>
      <trkpt lat="52.19133454374969005584716796875" lon="1.542582996189594268798828125">
        <ele>-49.200000762939453125</ele>
        <time>2025-09-06T12:25:33.000Z</time>
        <extensions>
          <ns3:TrackPointExtension>
            <ns3:hr>155</ns3:hr>
            <ns3:cad>77</ns3:cad>
          </ns3:TrackPointExtension>
        </extensions>
      </trkpt>
      <trkpt lat="52.19132892787456512451171875" lon="1.54273579828441143035888671875">
        <ele>-48.799999237060546875</ele>
        <time>2025-09-06T12:25:37.000Z</time>
        <extensions>
          <ns3:TrackPointExtension>
            <ns3:hr>158</ns3:hr>
            <ns3:cad>80</ns3:cad>
          </ns3:TrackPointExtension>
        </extensions>
      </trkpt>
      <trkpt lat="52.19133161008358001708984375" lon="1.54295221902430057525634765625">
        <ele>-48.200000762939453125</ele>
        <time>2025-09-06T12:25:43.000Z</time>
        <extensions>
          <ns3:TrackPointExtension>
            <ns3:hr>160</ns3:hr>
            <ns3:cad>80</ns3:cad>
          </ns3:TrackPointExtension>
        </extensions>
      </trkpt>
      <trkpt lat="52.1913389861583709716796875" lon="1.543024219572544097900390625">
        <ele>-48</ele>
        <time>2025-09-06T12:25:45.000Z</time>
        <extensions>
          <ns3:TrackPointExtension>
            <ns3:hr>160</ns3:hr>
            <ns3:cad>80</ns3:cad>
          </ns3:TrackPointExtension>
        </extensions>
      </trkpt>
      <trkpt lat="52.1913445182144641876220703125" lon="1.54319630004465579986572265625">
        <ele>-47.59999847412109375</ele>
        <time>2025-09-06T12:25:50.000Z</time>
        <extensions>
          <ns3:TrackPointExtension>
            <ns3:hr>163</ns3:hr>
            <ns3:cad>78</ns3:cad>
          </ns3:TrackPointExtension>
        </extensions>
      </trkpt>
      <trkpt lat="52.1913416683673858642578125" lon="1.5432322584092617034912109375">
        <ele>-47.40000152587890625</ele>
        <time>2025-09-06T12:25:51.000Z</time>
        <extensions>
          <ns3:TrackPointExtension>
            <ns3:hr>157</ns3:hr>
            <ns3:cad>78</ns3:cad>
          </ns3:TrackPointExtension>
        </extensions>
      </trkpt>
      <trkpt lat="52.19133873470127582550048828125" lon="1.5432666242122650146484375">
        <ele>-47.40000152587890625</ele>
        <time>2025-09-06T12:25:52.000Z</time>
        <extensions>
          <ns3:TrackPointExtension>
            <ns3:hr>155</ns3:hr>
            <ns3:cad>78</ns3:cad>
          </ns3:TrackPointExtension>
        </extensions>
      </trkpt>
      <trkpt lat="52.1913341246545314788818359375" lon="1.5433767624199390411376953125">
        <ele>-47.200000762939453125</ele>
        <time>2025-09-06T12:25:55.000Z</time>
        <extensions>
          <ns3:TrackPointExtension>
            <ns3:hr>156</ns3:hr>
            <ns3:cad>77</ns3:cad>
          </ns3:TrackPointExtension>
        </extensions>
      </trkpt>
      <trkpt lat="52.19132247380912303924560546875" lon="1.54353953897953033447265625">
        <ele>-46.799999237060546875</ele>
        <time>2025-09-06T12:26:00.000Z</time>
        <extensions>
          <ns3:TrackPointExtension>
            <ns3:hr>156</ns3:hr>
            <ns3:cad>78</ns3:cad>
          </ns3:TrackPointExtension>
        </extensions>
      </trkpt>
      <trkpt lat="52.19130319543182849884033203125" lon="1.54366183094680309295654296875">
        <ele>-46.40000152587890625</ele>
        <time>2025-09-06T12:26:04.000Z</time>
        <extensions>
          <ns3:TrackPointExtension>
            <ns3:hr>159</ns3:hr>
            <ns3:cad>79</ns3:cad>
          </ns3:TrackPointExtension>
        </extensions>
      </trkpt>
      <trkpt lat="52.191301770508289337158203125" lon="1.5437676943838596343994140625">
        <ele>-46.200000762939453125</ele>
        <time>2025-09-06T12:26:07.000Z</time>
        <extensions>
          <ns3:TrackPointExtension>
            <ns3:hr>158</ns3:hr>
            <ns3:cad>79</ns3:cad>
          </ns3:TrackPointExtension>
        </extensions>
      </trkpt>
      <trkpt lat="52.1913022734224796295166015625" lon="1.54379610903561115264892578125">
        <ele>-46</ele>
        <time>2025-09-06T12:26:08.000Z</time>
        <extensions>
          <ns3:TrackPointExtension>
            <ns3:hr>157</ns3:hr>
            <ns3:cad>79</ns3:cad>
          </ns3:TrackPointExtension>
        </extensions>
      </trkpt>
      <trkpt lat="52.1912761218845844268798828125" lon="1.54399794526398181915283203125">
        <ele>-45.40000152587890625</ele>
        <time>2025-09-06T12:26:14.000Z</time>
        <extensions>
          <ns3:TrackPointExtension>
            <ns3:hr>160</ns3:hr>
            <ns3:cad>81</ns3:cad>
          </ns3:TrackPointExtension>
        </extensions>
      </trkpt>
      <trkpt lat="52.1912395767867565155029296875" lon="1.54412752948701381683349609375">
        <ele>-45</ele>
        <time>2025-09-06T12:26:18.000Z</time>
        <extensions>
          <ns3:TrackPointExtension>
            <ns3:hr>160</ns3:hr>
            <ns3:cad>80</ns3:cad>
          </ns3:TrackPointExtension>
        </extensions>
      </trkpt>
      <trkpt lat="52.19120881520211696624755859375" lon="1.5442136116325855255126953125">
        <ele>-44.799999237060546875</ele>
        <time>2025-09-06T12:26:21.000Z</time>
        <extensions>
          <ns3:TrackPointExtension>
            <ns3:hr>159</ns3:hr>
            <ns3:cad>79</ns3:cad>
          </ns3:TrackPointExtension>
        </extensions>
      </trkpt>
      <trkpt lat="52.19112114049494266510009765625" lon="1.54442156665027141571044921875">
        <ele>-44.40000152587890625</ele>
        <time>2025-09-06T12:26:28.000Z</time>
        <extensions>
          <ns3:TrackPointExtension>
            <ns3:hr>159</ns3:hr>
            <ns3:cad>79</ns3:cad>
          </ns3:TrackPointExtension>
        </extensions>
      </trkpt>
      <trkpt lat="52.191050983965396881103515625" lon="1.54466514475643634796142578125">
        <ele>-44.200000762939453125</ele>
        <time>2025-09-06T12:26:36.000Z</time>
        <extensions>
          <ns3:TrackPointExtension>
            <ns3:hr>158</ns3:hr>
            <ns3:cad>79</ns3:cad>
          </ns3:TrackPointExtension>
        </extensions>
      </trkpt>
      <trkpt lat="52.19104100950062274932861328125" lon="1.54472532682120800018310546875">
        <ele>-44</ele>
        <time>2025-09-06T12:26:38.000Z</time>
        <extensions>
          <ns3:TrackPointExtension>
            <ns3:hr>158</ns3:hr>
            <ns3:cad>78</ns3:cad>
          </ns3:TrackPointExtension>
        </extensions>
      </trkpt>
      <trkpt lat="52.19100362621247768402099609375" lon="1.5449009276926517486572265625">
        <ele>-43.799999237060546875</ele>
        <time>2025-09-06T12:26:44.000Z</time>
        <extensions>
          <ns3:TrackPointExtension>
            <ns3:hr>157</ns3:hr>
            <ns3:cad>77</ns3:cad>
          </ns3:TrackPointExtension>
        </extensions>
      </trkpt>
      <trkpt lat="52.191003374755382537841796875" lon="1.544930934906005859375">
        <ele>-43.799999237060546875</ele>
        <time>2025-09-06T12:26:45.000Z</time>
        <extensions>
          <ns3:TrackPointExtension>
            <ns3:hr>154</ns3:hr>
            <ns3:cad>77</ns3:cad>
          </ns3:TrackPointExtension>
        </extensions>
      </trkpt>
      <trkpt lat="52.19097009859979152679443359375" lon="1.54506932012736797332763671875">
        <ele>-43.40000152587890625</ele>
        <time>2025-09-06T12:26:50.000Z</time>
        <extensions>
          <ns3:TrackPointExtension>
            <ns3:hr>158</ns3:hr>
            <ns3:cad>75</ns3:cad>
          </ns3:TrackPointExtension>
        </extensions>
      </trkpt>
      <trkpt lat="52.19095953740179538726806640625" lon="1.5450890175998210906982421875">
        <ele>-43.40000152587890625</ele>
        <time>2025-09-06T12:26:51.000Z</time>
        <extensions>
          <ns3:TrackPointExtension>
            <ns3:hr>157</ns3:hr>
            <ns3:cad>75</ns3:cad>
          </ns3:TrackPointExtension>
        </extensions>
      </trkpt>
      <trkpt lat="52.19093070365488529205322265625" lon="1.54515146277844905853271484375">
        <ele>-42.799999237060546875</ele>
        <time>2025-09-06T12:26:54.000Z</time>
        <extensions>
          <ns3:TrackPointExtension>
            <ns3:hr>158</ns3:hr>
            <ns3:cad>75</ns3:cad>
          </ns3:TrackPointExtension>
        </extensions>
      </trkpt>
      <trkpt lat="52.19091494567692279815673828125" lon="1.54518934898078441619873046875">
        <ele>-42.40000152587890625</ele>
        <time>2025-09-06T12:26:57.000Z</time>
        <extensions>
          <ns3:TrackPointExtension>
            <ns3:hr>157</ns3:hr>
            <ns3:cad>62</ns3:cad>
          </ns3:TrackPointExtension>
        </extensions>
      </trkpt>
      <trkpt lat="52.19090522266924381256103515625" lon="1.54523779638111591339111328125">
        <ele>-41.799999237060546875</ele>
        <time>2025-09-06T12:27:00.000Z</time>
        <extensions>
          <ns3:TrackPointExtension>
            <ns3:hr>157</ns3:hr>
            <ns3:cad>57</ns3:cad>
          </ns3:TrackPointExtension>
        </extensions>
      </trkpt>
      <trkpt lat="52.19090270809829235076904296875" lon="1.545271240174770355224609375">
        <ele>-41.59999847412109375</ele>
        <time>2025-09-06T12:27:02.000Z</time>
        <extensions>
          <ns3:TrackPointExtension>
            <ns3:hr>157</ns3:hr>
            <ns3:cad>58</ns3:cad>
          </ns3:TrackPointExtension>
        </extensions>
      </trkpt>
      <trkpt lat="52.19089306890964508056640625" lon="1.5453257225453853607177734375">
        <ele>-41</ele>
        <time>2025-09-06T12:27:05.000Z</time>
        <extensions>
          <ns3:TrackPointExtension>
            <ns3:hr>157</ns3:hr>
            <ns3:cad>58</ns3:cad>
          </ns3:TrackPointExtension>
        </extensions>
      </trkpt>
      <trkpt lat="52.19088963232934474945068359375" lon="1.545341648161411285400390625">
        <ele>-40.799999237060546875</ele>
        <time>2025-09-06T12:27:06.000Z</time>
        <extensions>
          <ns3:TrackPointExtension>
            <ns3:hr>155</ns3:hr>
            <ns3:cad>58</ns3:cad>
          </ns3:TrackPointExtension>
        </extensions>
      </trkpt>
      <trkpt lat="52.19086599536240100860595703125" lon="1.5454843081533908843994140625">
        <ele>-39.799999237060546875</ele>
        <time>2025-09-06T12:27:14.000Z</time>
        <extensions>
          <ns3:TrackPointExtension>
            <ns3:hr>155</ns3:hr>
            <ns3:cad>58</ns3:cad>
          </ns3:TrackPointExtension>
        </extensions>
      </trkpt>
      <trkpt lat="52.19083313830196857452392578125" lon="1.545609533786773681640625">
        <ele>-39.40000152587890625</ele>
        <time>2025-09-06T12:27:18.000Z</time>
        <extensions>
          <ns3:TrackPointExtension>
            <ns3:hr>156</ns3:hr>
            <ns3:cad>57</ns3:cad>
          </ns3:TrackPointExtension>
        </extensions>
      </trkpt>
      <trkpt lat="52.1908224932849407196044921875" lon="1.54564683325588703155517578125">
        <ele>-39.40000152587890625</ele>
        <time>2025-09-06T12:27:20.000Z</time>
        <extensions>
          <ns3:TrackPointExtension>
            <ns3:hr>152</ns3:hr>
            <ns3:cad>54</ns3:cad>
          </ns3:TrackPointExtension>
        </extensions>
      </trkpt>
      <trkpt lat="52.190790474414825439453125" lon="1.545739285647869110107421875">
        <ele>-39</ele>
        <time>2025-09-06T12:27:25.000Z</time>
        <extensions>
          <ns3:TrackPointExtension>
            <ns3:hr>150</ns3:hr>
            <ns3:cad>60</ns3:cad>
          </ns3:TrackPointExtension>
        </extensions>
      </trkpt>
      <trkpt lat="52.190765328705310821533203125" lon="1.54590600170195102691650390625">
        <ele>-39</ele>
        <time>2025-09-06T12:27:33.000Z</time>
        <extensions>
          <ns3:TrackPointExtension>
            <ns3:hr>147</ns3:hr>
            <ns3:cad>58</ns3:cad>
          </ns3:TrackPointExtension>
        </extensions>
      </trkpt>
      <trkpt lat="52.1907649934291839599609375" lon="1.54592293314635753631591796875">
        <ele>-39</ele>
        <time>2025-09-06T12:27:34.000Z</time>
        <extensions>
          <ns3:TrackPointExtension>
            <ns3:hr>147</ns3:hr>
            <ns3:cad>58</ns3:cad>
          </ns3:TrackPointExtension>
        </extensions>
      </trkpt>
      <trkpt lat="52.1907423622906208038330078125" lon="1.5460780821740627288818359375">
        <ele>-39</ele>
        <time>2025-09-06T12:27:40.000Z</time>
        <extensions>
          <ns3:TrackPointExtension>
            <ns3:hr>147</ns3:hr>
            <ns3:cad>77</ns3:cad>
          </ns3:TrackPointExtension>
        </extensions>
      </trkpt>
      <trkpt lat="52.1906940825283527374267578125" lon="1.546302549540996551513671875">
        <ele>-39</ele>
        <time>2025-09-06T12:27:46.000Z</time>
        <extensions>
          <ns3:TrackPointExtension>
            <ns3:hr>150</ns3:hr>
            <ns3:cad>79</ns3:cad>
          </ns3:TrackPointExtension>
        </extensions>
      </trkpt>
      <trkpt lat="52.19065837562084197998046875" lon="1.5464217402040958404541015625">
        <ele>-39</ele>
        <time>2025-09-06T12:27:49.000Z</time>
        <extensions>
          <ns3:TrackPointExtension>
            <ns3:hr>153</ns3:hr>
            <ns3:cad>79</ns3:cad>
          </ns3:TrackPointExtension>
        </extensions>
      </trkpt>
      <trkpt lat="52.19062275253236293792724609375" lon="1.5465737879276275634765625">
        <ele>-39</ele>
        <time>2025-09-06T12:27:53.000Z</time>
        <extensions>
          <ns3:TrackPointExtension>
            <ns3:hr>156</ns3:hr>
            <ns3:cad>78</ns3:cad>
          </ns3:TrackPointExtension>
        </extensions>
      </trkpt>
      <trkpt lat="52.19059559516608715057373046875" lon="1.5466902963817119598388671875">
        <ele>-39</ele>
        <time>2025-09-06T12:27:56.000Z</time>
        <extensions>
          <ns3:TrackPointExtension>
            <ns3:hr>157</ns3:hr>
            <ns3:cad>77</ns3:cad>
          </ns3:TrackPointExtension>
        </extensions>
      </trkpt>
      <trkpt lat="52.1905663423240184783935546875" lon="1.54679196886718273162841796875">
        <ele>-39</ele>
        <time>2025-09-06T12:27:59.000Z</time>
        <extensions>
          <ns3:TrackPointExtension>
            <ns3:hr>160</ns3:hr>
            <ns3:cad>77</ns3:cad>
          </ns3:TrackPointExtension>
        </extensions>
      </trkpt>
      <trkpt lat="52.19055636785924434661865234375" lon="1.54682717286050319671630859375">
        <ele>-39</ele>
        <time>2025-09-06T12:28:00.000Z</time>
        <extensions>
          <ns3:TrackPointExtension>
            <ns3:hr>156</ns3:hr>
            <ns3:cad>77</ns3:cad>
          </ns3:TrackPointExtension>
        </extensions>
      </trkpt>
      <trkpt lat="52.19050884246826171875" lon="1.54698609374463558197021484375">
        <ele>-39</ele>
        <time>2025-09-06T12:28:05.000Z</time>
        <extensions>
          <ns3:TrackPointExtension>
            <ns3:hr>157</ns3:hr>
            <ns3:cad>78</ns3:cad>
          </ns3:TrackPointExtension>
        </extensions>
      </trkpt>
      <trkpt lat="52.1904443018138408660888671875" lon="1.54724023304879665374755859375">
        <ele>-39</ele>
        <time>2025-09-06T12:28:13.000Z</time>
        <extensions>
          <ns3:TrackPointExtension>
            <ns3:hr>160</ns3:hr>
            <ns3:cad>79</ns3:cad>
          </ns3:TrackPointExtension>
        </extensions>
      </trkpt>
      <trkpt lat="52.1904251910746097564697265625" lon="1.547339893877506256103515625">
        <ele>-39</ele>
        <time>2025-09-06T12:28:16.000Z</time>
        <extensions>
          <ns3:TrackPointExtension>
            <ns3:hr>163</ns3:hr>
            <ns3:cad>78</ns3:cad>
          </ns3:TrackPointExtension>
        </extensions>
      </trkpt>
      <trkpt lat="52.190407253801822662353515625" lon="1.54746067710220813751220703125">
        <ele>-39</ele>
        <time>2025-09-06T12:28:20.000Z</time>
        <extensions>
          <ns3:TrackPointExtension>
            <ns3:hr>164</ns3:hr>
            <ns3:cad>80</ns3:cad>
          </ns3:TrackPointExtension>
        </extensions>
      </trkpt>
      <trkpt lat="52.190350592136383056640625" lon="1.5477004833519458770751953125">
        <ele>-39.200000762939453125</ele>
        <time>2025-09-06T12:28:28.000Z</time>
        <extensions>
          <ns3:TrackPointExtension>
            <ns3:hr>164</ns3:hr>
            <ns3:cad>78</ns3:cad>
          </ns3:TrackPointExtension>
        </extensions>
      </trkpt>
      <trkpt lat="52.190290577709674835205078125" lon="1.547944061458110809326171875">
        <ele>-39.40000152587890625</ele>
        <time>2025-09-06T12:28:36.000Z</time>
        <extensions>
          <ns3:TrackPointExtension>
            <ns3:hr>163</ns3:hr>
            <ns3:cad>78</ns3:cad>
          </ns3:TrackPointExtension>
        </extensions>
      </trkpt>
      <trkpt lat="52.19025596044957637786865234375" lon="1.54820549301803112030029296875">
        <ele>-39.799999237060546875</ele>
        <time>2025-09-06T12:28:44.000Z</time>
        <extensions>
          <ns3:TrackPointExtension>
            <ns3:hr>163</ns3:hr>
            <ns3:cad>76</ns3:cad>
          </ns3:TrackPointExtension>
        </extensions>
      </trkpt>
      <trkpt lat="52.1902146376669406890869140625" lon="1.54837690293788909912109375">
        <ele>-40.200000762939453125</ele>
        <time>2025-09-06T12:28:50.000Z</time>
        <extensions>
          <ns3:TrackPointExtension>
            <ns3:hr>161</ns3:hr>
            <ns3:cad>78</ns3:cad>
          </ns3:TrackPointExtension>
        </extensions>
      </trkpt>
      <trkpt lat="52.1901687048375606536865234375" lon="1.5485551021993160247802734375">
        <ele>-40.799999237060546875</ele>
        <time>2025-09-06T12:28:56.000Z</time>
        <extensions>
          <ns3:TrackPointExtension>
            <ns3:hr>164</ns3:hr>
            <ns3:cad>78</ns3:cad>
          </ns3:TrackPointExtension>
        </extensions>
      </trkpt>
      <trkpt lat="52.1901492588222026824951171875" lon="1.54860950075089931488037109375">
        <ele>-41</ele>
        <time>2025-09-06T12:28:58.000Z</time>
        <extensions>
          <ns3:TrackPointExtension>
            <ns3:hr>164</ns3:hr>
            <ns3:cad>78</ns3:cad>
          </ns3:TrackPointExtension>
        </extensions>
      </trkpt>
      <trkpt lat="52.1900986321270465850830078125" lon="1.54877948574721813201904296875">
        <ele>-41.59999847412109375</ele>
        <time>2025-09-06T12:29:05.000Z</time>
        <extensions>
          <ns3:TrackPointExtension>
            <ns3:hr>163</ns3:hr>
            <ns3:cad>78</ns3:cad>
          </ns3:TrackPointExtension>
        </extensions>
      </trkpt>
      <trkpt lat="52.1900711394846439361572265625" lon="1.5488679148256778717041015625">
        <ele>-41.799999237060546875</ele>
        <time>2025-09-06T12:29:08.000Z</time>
        <extensions>
          <ns3:TrackPointExtension>
            <ns3:hr>163</ns3:hr>
            <ns3:cad>77</ns3:cad>
          </ns3:TrackPointExtension>
        </extensions>
      </trkpt>
      <trkpt lat="52.1900305710732936859130859375" lon="1.54904116876423358917236328125">
        <ele>-42.40000152587890625</ele>
        <time>2025-09-06T12:29:14.000Z</time>
        <extensions>
          <ns3:TrackPointExtension>
            <ns3:hr>162</ns3:hr>
            <ns3:cad>78</ns3:cad>
          </ns3:TrackPointExtension>
        </extensions>
      </trkpt>
      <trkpt lat="52.1899672038853168487548828125" lon="1.54926010407507419586181640625">
        <ele>-42.799999237060546875</ele>
        <time>2025-09-06T12:29:21.000Z</time>
        <extensions>
          <ns3:TrackPointExtension>
            <ns3:hr>163</ns3:hr>
            <ns3:cad>79</ns3:cad>
          </ns3:TrackPointExtension>
        </extensions>
      </trkpt>
      <trkpt lat="52.189953625202178955078125" lon="1.54932632111012935638427734375">
        <ele>-43</ele>
        <time>2025-09-06T12:29:23.000Z</time>
        <extensions>
          <ns3:TrackPointExtension>
            <ns3:hr>163</ns3:hr>
            <ns3:cad>79</ns3:cad>
          </ns3:TrackPointExtension>
        </extensions>
      </trkpt>
      <trkpt lat="52.18991012312471866607666015625" lon="1.5495123155415058135986328125">
        <ele>-43.200000762939453125</ele>
        <time>2025-09-06T12:29:29.000Z</time>
        <extensions>
          <ns3:TrackPointExtension>
            <ns3:hr>164</ns3:hr>
            <ns3:cad>79</ns3:cad>
          </ns3:TrackPointExtension>
        </extensions>
      </trkpt>
      <trkpt lat="52.18985379673540592193603515625" lon="1.54969043098390102386474609375">
        <ele>-43.59999847412109375</ele>
        <time>2025-09-06T12:29:34.000Z</time>
        <extensions>
          <ns3:TrackPointExtension>
            <ns3:hr>167</ns3:hr>
            <ns3:cad>80</ns3:cad>
          </ns3:TrackPointExtension>
        </extensions>
      </trkpt>
      <trkpt lat="52.18981121666729450225830078125" lon="1.549833007156848907470703125">
        <ele>-43.799999237060546875</ele>
        <time>2025-09-06T12:29:38.000Z</time>
        <extensions>
          <ns3:TrackPointExtension>
            <ns3:hr>165</ns3:hr>
            <ns3:cad>79</ns3:cad>
          </ns3:TrackPointExtension>
        </extensions>
      </trkpt>
      <trkpt lat="52.18976612202823162078857421875" lon="1.54997088946402072906494140625">
        <ele>-44</ele>
        <time>2025-09-06T12:29:42.000Z</time>
        <extensions>
          <ns3:TrackPointExtension>
            <ns3:hr>165</ns3:hr>
            <ns3:cad>79</ns3:cad>
          </ns3:TrackPointExtension>
        </extensions>
      </trkpt>
      <trkpt lat="52.18972957693040370941162109375" lon="1.5501024015247821807861328125">
        <ele>-44</ele>
        <time>2025-09-06T12:29:46.000Z</time>
        <extensions>
          <ns3:TrackPointExtension>
            <ns3:hr>165</ns3:hr>
            <ns3:cad>79</ns3:cad>
          </ns3:TrackPointExtension>
        </extensions>
      </trkpt>
      <trkpt lat="52.18969772569835186004638671875" lon="1.5502345003187656402587890625">
        <ele>-44</ele>
        <time>2025-09-06T12:29:50.000Z</time>
        <extensions>
          <ns3:TrackPointExtension>
            <ns3:hr>162</ns3:hr>
            <ns3:cad>78</ns3:cad>
          </ns3:TrackPointExtension>
        </extensions>
      </trkpt>
      <trkpt lat="52.18966939486563205718994140625" lon="1.5503256954252719879150390625">
        <ele>-44.200000762939453125</ele>
        <time>2025-09-06T12:29:53.000Z</time>
        <extensions>
          <ns3:TrackPointExtension>
            <ns3:hr>164</ns3:hr>
            <ns3:cad>79</ns3:cad>
          </ns3:TrackPointExtension>
        </extensions>
      </trkpt>
      <trkpt lat="52.18960267491638660430908203125" lon="1.550559885799884796142578125">
        <ele>-44.40000152587890625</ele>
        <time>2025-09-06T12:30:01.000Z</time>
        <extensions>
          <ns3:TrackPointExtension>
            <ns3:hr>163</ns3:hr>
            <ns3:cad>79</ns3:cad>
          </ns3:TrackPointExtension>
        </extensions>
      </trkpt>
      <trkpt lat="52.18952505849301815032958984375" lon="1.5507789887487888336181640625">
        <ele>-44.59999847412109375</ele>
        <time>2025-09-06T12:30:08.000Z</time>
        <extensions>
          <ns3:TrackPointExtension>
            <ns3:hr>162</ns3:hr>
            <ns3:cad>80</ns3:cad>
          </ns3:TrackPointExtension>
        </extensions>
      </trkpt>
      <trkpt lat="52.1894399821758270263671875" lon="1.55095308087766170501708984375">
        <ele>-44.799999237060546875</ele>
        <time>2025-09-06T12:30:16.000Z</time>
        <extensions>
          <ns3:TrackPointExtension>
            <ns3:hr>163</ns3:hr>
            <ns3:cad>80</ns3:cad>
          </ns3:TrackPointExtension>
        </extensions>
      </trkpt>
      <trkpt lat="52.18936689198017120361328125" lon="1.55107528902590274810791015625">
        <ele>-44.799999237060546875</ele>
        <time>2025-09-06T12:30:23.000Z</time>
        <extensions>
          <ns3:TrackPointExtension>
            <ns3:hr>161</ns3:hr>
            <ns3:cad>0</ns3:cad>
          </ns3:TrackPointExtension>
        </extensions>
      </trkpt>
      <trkpt lat="52.1893221326172351837158203125" lon="1.55116237699985504150390625">
        <ele>-45</ele>
        <time>2025-09-06T12:30:27.000Z</time>
        <extensions>
          <ns3:TrackPointExtension>
            <ns3:hr>158</ns3:hr>
            <ns3:cad>0</ns3:cad>
          </ns3:TrackPointExtension>
        </extensions>
      </trkpt>
      <trkpt lat="52.18927360139787197113037109375" lon="1.55128718353807926177978515625">
        <ele>-45.59999847412109375</ele>
        <time>2025-09-06T12:30:33.000Z</time>
        <extensions>
          <ns3:TrackPointExtension>
            <ns3:hr>155</ns3:hr>
            <ns3:cad>61</ns3:cad>
          </ns3:TrackPointExtension>
        </extensions>
      </trkpt>
      <trkpt lat="52.189265303313732147216796875" lon="1.5513013489544391632080078125">
        <ele>-45.59999847412109375</ele>
        <time>2025-09-06T12:30:34.000Z</time>
        <extensions>
          <ns3:TrackPointExtension>
            <ns3:hr>155</ns3:hr>
            <ns3:cad>61</ns3:cad>
          </ns3:TrackPointExtension>
        </extensions>
      </trkpt>
      <trkpt lat="52.18924828805029392242431640625" lon="1.55132808722555637359619140625">
        <ele>-46</ele>
        <time>2025-09-06T12:30:36.000Z</time>
        <extensions>
          <ns3:TrackPointExtension>
            <ns3:hr>156</ns3:hr>
            <ns3:cad>61</ns3:cad>
          </ns3:TrackPointExtension>
        </extensions>
      </trkpt>
      <trkpt lat="52.1892208792269229888916015625" lon="1.55137485824525356292724609375">
        <ele>-46.799999237060546875</ele>
        <time>2025-09-06T12:30:39.000Z</time>
        <extensions>
          <ns3:TrackPointExtension>
            <ns3:hr>153</ns3:hr>
            <ns3:cad>61</ns3:cad>
          </ns3:TrackPointExtension>
        </extensions>
      </trkpt>
      <trkpt lat="52.1891890279948711395263671875" lon="1.5514193661510944366455078125">
        <ele>-47.200000762939453125</ele>
        <time>2025-09-06T12:30:41.000Z</time>
        <extensions>
          <ns3:TrackPointExtension>
            <ns3:hr>156</ns3:hr>
            <ns3:cad>62</ns3:cad>
          </ns3:TrackPointExtension>
        </extensions>
      </trkpt>
      <trkpt lat="52.1891414187848567962646484375" lon="1.55148885212838649749755859375">
        <ele>-48</ele>
        <time>2025-09-06T12:30:44.000Z</time>
        <extensions>
          <ns3:TrackPointExtension>
            <ns3:hr>154</ns3:hr>
            <ns3:cad>77</ns3:cad>
          </ns3:TrackPointExtension>
        </extensions>
      </trkpt>
      <trkpt lat="52.18912540934979915618896484375" lon="1.55150838196277618408203125">
        <ele>-48.40000152587890625</ele>
        <time>2025-09-06T12:30:45.000Z</time>
        <extensions>
          <ns3:TrackPointExtension>
            <ns3:hr>155</ns3:hr>
            <ns3:cad>78</ns3:cad>
          </ns3:TrackPointExtension>
        </extensions>
      </trkpt>
      <trkpt lat="52.18907763250172138214111328125" lon="1.55158775858581066131591796875">
        <ele>-49.40000152587890625</ele>
        <time>2025-09-06T12:30:49.000Z</time>
        <extensions>
          <ns3:TrackPointExtension>
            <ns3:hr>152</ns3:hr>
            <ns3:cad>80</ns3:cad>
          </ns3:TrackPointExtension>
        </extensions>
      </trkpt>
      <trkpt lat="52.1890545822679996490478515625" lon="1.551636122167110443115234375">
        <ele>-50</ele>
        <time>2025-09-06T12:30:51.000Z</time>
        <extensions>
          <ns3:TrackPointExtension>
            <ns3:hr>155</ns3:hr>
            <ns3:cad>80</ns3:cad>
          </ns3:TrackPointExtension>
        </extensions>
      </trkpt>
      <trkpt lat="52.1890351362526416778564453125" lon="1.551655568182468414306640625">
        <ele>-50.200000762939453125</ele>
        <time>2025-09-06T12:30:52.000Z</time>
        <extensions>
          <ns3:TrackPointExtension>
            <ns3:hr>158</ns3:hr>
            <ns3:cad>80</ns3:cad>
          </ns3:TrackPointExtension>
        </extensions>
      </trkpt>
      <trkpt lat="52.18901627697050571441650390625" lon="1.55167400836944580078125">
        <ele>-50.40000152587890625</ele>
        <time>2025-09-06T12:30:53.000Z</time>
        <extensions>
          <ns3:TrackPointExtension>
            <ns3:hr>158</ns3:hr>
            <ns3:cad>80</ns3:cad>
          </ns3:TrackPointExtension>
        </extensions>
      </trkpt>
      <trkpt lat="52.18896414153277873992919921875" lon="1.55176260508596897125244140625">
        <ele>-51.40000152587890625</ele>
        <time>2025-09-06T12:30:57.000Z</time>
        <extensions>
          <ns3:TrackPointExtension>
            <ns3:hr>162</ns3:hr>
            <ns3:cad>80</ns3:cad>
          </ns3:TrackPointExtension>
        </extensions>
      </trkpt>
      <trkpt lat="52.18895073048770427703857421875" lon="1.551787666976451873779296875">
        <ele>-51.59999847412109375</ele>
        <time>2025-09-06T12:30:58.000Z</time>
        <extensions>
          <ns3:TrackPointExtension>
            <ns3:hr>159</ns3:hr>
            <ns3:cad>80</ns3:cad>
          </ns3:TrackPointExtension>
        </extensions>
      </trkpt>
      <trkpt lat="52.18891183845698833465576171875" lon="1.5518562309443950653076171875">
        <ele>-52.200000762939453125</ele>
        <time>2025-09-06T12:31:01.000Z</time>
        <extensions>
          <ns3:TrackPointExtension>
            <ns3:hr>160</ns3:hr>
            <ns3:cad>79</ns3:cad>
          </ns3:TrackPointExtension>
        </extensions>
      </trkpt>
      <trkpt lat="52.18886909075081348419189453125" lon="1.55192320235073566436767578125">
        <ele>-52.59999847412109375</ele>
        <time>2025-09-06T12:31:04.000Z</time>
        <extensions>
          <ns3:TrackPointExtension>
            <ns3:hr>161</ns3:hr>
            <ns3:cad>80</ns3:cad>
          </ns3:TrackPointExtension>
        </extensions>
      </trkpt>
      <trkpt lat="52.1888115070760250091552734375" lon="1.5520607493817806243896484375">
        <ele>-53</ele>
        <time>2025-09-06T12:31:09.000Z</time>
        <extensions>
          <ns3:TrackPointExtension>
            <ns3:hr>162</ns3:hr>
            <ns3:cad>80</ns3:cad>
          </ns3:TrackPointExtension>
        </extensions>
      </trkpt>
      <trkpt lat="52.188744954764842987060546875" lon="1.55228546820580959320068359375">
        <ele>-53.40000152587890625</ele>
        <time>2025-09-06T12:31:16.000Z</time>
        <extensions>
          <ns3:TrackPointExtension>
            <ns3:hr>159</ns3:hr>
            <ns3:cad>78</ns3:cad>
          </ns3:TrackPointExtension>
        </extensions>
      </trkpt>
      <trkpt lat="52.1887729503214359283447265625" lon="1.55236761085689067840576171875">
        <ele>-53.40000152587890625</ele>
        <time>2025-09-06T12:31:19.000Z</time>
        <extensions>
          <ns3:TrackPointExtension>
            <ns3:hr>159</ns3:hr>
            <ns3:cad>78</ns3:cad>
          </ns3:TrackPointExtension>
        </extensions>
      </trkpt>
      <trkpt lat="52.1888068132102489471435546875" lon="1.55240734107792377471923828125">
        <ele>-53.40000152587890625</ele>
        <time>2025-09-06T12:31:21.000Z</time>
        <extensions>
          <ns3:TrackPointExtension>
            <ns3:hr>158</ns3:hr>
            <ns3:cad>78</ns3:cad>
          </ns3:TrackPointExtension>
        </extensions>
      </trkpt>
      <trkpt lat="52.18887797556817531585693359375" lon="1.5525237657129764556884765625">
        <ele>-53.59999847412109375</ele>
        <time>2025-09-06T12:31:26.000Z</time>
        <extensions>
          <ns3:TrackPointExtension>
            <ns3:hr>158</ns3:hr>
            <ns3:cad>78</ns3:cad>
          </ns3:TrackPointExtension>
        </extensions>
      </trkpt>
      <trkpt lat="52.18898601830005645751953125" lon="1.55263935215771198272705078125">
        <ele>-53.59999847412109375</ele>
        <time>2025-09-06T12:31:32.000Z</time>
        <extensions>
          <ns3:TrackPointExtension>
            <ns3:hr>160</ns3:hr>
            <ns3:cad>79</ns3:cad>
          </ns3:TrackPointExtension>
        </extensions>
      </trkpt>
      <trkpt lat="52.18905852176249027252197265625" lon="1.55279659666121006011962890625">
        <ele>-53.799999237060546875</ele>
        <time>2025-09-06T12:31:39.000Z</time>
        <extensions>
          <ns3:TrackPointExtension>
            <ns3:hr>159</ns3:hr>
            <ns3:cad>78</ns3:cad>
          </ns3:TrackPointExtension>
        </extensions>
      </trkpt>
      <trkpt lat="52.18912540934979915618896484375" lon="1.552975885570049285888671875">
        <ele>-54</ele>
        <time>2025-09-06T12:31:46.000Z</time>
        <extensions>
          <ns3:TrackPointExtension>
            <ns3:hr>160</ns3:hr>
            <ns3:cad>79</ns3:cad>
          </ns3:TrackPointExtension>
        </extensions>
      </trkpt>
      <trkpt lat="52.18912675045430660247802734375" lon="1.55304260551929473876953125">
        <ele>-54</ele>
        <time>2025-09-06T12:31:48.000Z</time>
        <extensions>
          <ns3:TrackPointExtension>
            <ns3:hr>164</ns3:hr>
            <ns3:cad>79</ns3:cad>
          </ns3:TrackPointExtension>
        </extensions>
      </trkpt>
      <trkpt lat="52.18909255228936672210693359375" lon="1.55316204763948917388916015625">
        <ele>-54</ele>
        <time>2025-09-06T12:31:52.000Z</time>
        <extensions>
          <ns3:TrackPointExtension>
            <ns3:hr>165</ns3:hr>
            <ns3:cad>80</ns3:cad>
          </ns3:TrackPointExtension>
        </extensions>
      </trkpt>
      <trkpt lat="52.189033292233943939208984375" lon="1.553372852504253387451171875">
        <ele>-53.799999237060546875</ele>
        <time>2025-09-06T12:31:59.000Z</time>
        <extensions>
          <ns3:TrackPointExtension>
            <ns3:hr>165</ns3:hr>
            <ns3:cad>79</ns3:cad>
          </ns3:TrackPointExtension>
        </extensions>
      </trkpt>
      <trkpt lat="52.18898761086165904998779296875" lon="1.55364216305315494537353515625">
        <ele>-53.59999847412109375</ele>
        <time>2025-09-06T12:32:07.000Z</time>
        <extensions>
          <ns3:TrackPointExtension>
            <ns3:hr>164</ns3:hr>
            <ns3:cad>80</ns3:cad>
          </ns3:TrackPointExtension>
        </extensions>
      </trkpt>
      <trkpt lat="52.18900747597217559814453125" lon="1.553817428648471832275390625">
        <ele>-53.799999237060546875</ele>
        <time>2025-09-06T12:32:13.000Z</time>
        <extensions>
          <ns3:TrackPointExtension>
            <ns3:hr>163</ns3:hr>
            <ns3:cad>79</ns3:cad>
          </ns3:TrackPointExtension>
        </extensions>
      </trkpt>
      <trkpt lat="52.18913446180522441864013671875" lon="1.55405488796532154083251953125">
        <ele>-54</ele>
        <time>2025-09-06T12:32:22.000Z</time>
        <extensions>
          <ns3:TrackPointExtension>
            <ns3:hr>164</ns3:hr>
            <ns3:cad>79</ns3:cad>
          </ns3:TrackPointExtension>
        </extensions>
      </trkpt>
      <trkpt lat="52.1891464479267597198486328125" lon="1.55408238060772418975830078125">
        <ele>-54</ele>
        <time>2025-09-06T12:32:23.000Z</time>
        <extensions>
          <ns3:TrackPointExtension>
            <ns3:hr>165</ns3:hr>
            <ns3:cad>80</ns3:cad>
          </ns3:TrackPointExtension>
        </extensions>
      </trkpt>
      <trkpt lat="52.18917779624462127685546875" lon="1.55416552908718585968017578125">
        <ele>-54.200000762939453125</ele>
        <time>2025-09-06T12:32:26.000Z</time>
        <extensions>
          <ns3:TrackPointExtension>
            <ns3:hr>162</ns3:hr>
            <ns3:cad>80</ns3:cad>
          </ns3:TrackPointExtension>
        </extensions>
      </trkpt>
      <trkpt lat="52.189227752387523651123046875" lon="1.5543161518871784210205078125">
        <ele>-54.59999847412109375</ele>
        <time>2025-09-06T12:32:31.000Z</time>
        <extensions>
          <ns3:TrackPointExtension>
            <ns3:hr>164</ns3:hr>
            <ns3:cad>79</ns3:cad>
          </ns3:TrackPointExtension>
        </extensions>
      </trkpt>
      <trkpt lat="52.18926823697984218597412109375" lon="1.5544056706130504608154296875">
        <ele>-54.799999237060546875</ele>
        <time>2025-09-06T12:32:34.000Z</time>
        <extensions>
          <ns3:TrackPointExtension>
            <ns3:hr>163</ns3:hr>
            <ns3:cad>79</ns3:cad>
          </ns3:TrackPointExtension>
        </extensions>
      </trkpt>
      <trkpt lat="52.189322970807552337646484375" lon="1.55452695675194263458251953125">
        <ele>-55</ele>
        <time>2025-09-06T12:32:38.000Z</time>
        <extensions>
          <ns3:TrackPointExtension>
            <ns3:hr>164</ns3:hr>
            <ns3:cad>80</ns3:cad>
          </ns3:TrackPointExtension>
        </extensions>
      </trkpt>
      <trkpt lat="52.1894448436796665191650390625" lon="1.554752178490161895751953125">
        <ele>-55.799999237060546875</ele>
        <time>2025-09-06T12:32:46.000Z</time>
        <extensions>
          <ns3:TrackPointExtension>
            <ns3:hr>165</ns3:hr>
            <ns3:cad>80</ns3:cad>
          </ns3:TrackPointExtension>
        </extensions>
      </trkpt>
      <trkpt lat="52.189502678811550140380859375" lon="1.5549166314303874969482421875">
        <ele>-56.59999847412109375</ele>
        <time>2025-09-06T12:32:52.000Z</time>
        <extensions>
          <ns3:TrackPointExtension>
            <ns3:hr>167</ns3:hr>
            <ns3:cad>80</ns3:cad>
          </ns3:TrackPointExtension>
        </extensions>
      </trkpt>
      <trkpt lat="52.18953159637749195098876953125" lon="1.5549890510737895965576171875">
        <ele>-57</ele>
        <time>2025-09-06T12:32:55.000Z</time>
        <extensions>
          <ns3:TrackPointExtension>
            <ns3:hr>166</ns3:hr>
            <ns3:cad>79</ns3:cad>
          </ns3:TrackPointExtension>
        </extensions>
      </trkpt>
      <trkpt lat="52.1896161697804927825927734375" lon="1.5551744587719440460205078125">
        <ele>-57.799999237060546875</ele>
        <time>2025-09-06T12:33:02.000Z</time>
        <extensions>
          <ns3:TrackPointExtension>
            <ns3:hr>166</ns3:hr>
            <ns3:cad>79</ns3:cad>
          </ns3:TrackPointExtension>
        </extensions>
      </trkpt>
      <trkpt lat="52.1896309219300746917724609375" lon="1.5552024543285369873046875">
        <ele>-58</ele>
        <time>2025-09-06T12:33:03.000Z</time>
        <extensions>
          <ns3:TrackPointExtension>
            <ns3:hr>166</ns3:hr>
            <ns3:cad>79</ns3:cad>
          </ns3:TrackPointExtension>
        </extensions>
      </trkpt>
      <trkpt lat="52.18967459164559841156005859375" lon="1.55527814291417598724365234375">
        <ele>-58.59999847412109375</ele>
        <time>2025-09-06T12:33:07.000Z</time>
        <extensions>
          <ns3:TrackPointExtension>
            <ns3:hr>165</ns3:hr>
            <ns3:cad>80</ns3:cad>
          </ns3:TrackPointExtension>
        </extensions>
      </trkpt>
      <trkpt lat="52.18969202600419521331787109375" lon="1.55532005243003368377685546875">
        <ele>-58.799999237060546875</ele>
        <time>2025-09-06T12:33:09.000Z</time>
        <extensions>
          <ns3:TrackPointExtension>
            <ns3:hr>164</ns3:hr>
            <ns3:cad>75</ns3:cad>
          </ns3:TrackPointExtension>
        </extensions>
      </trkpt>
      <trkpt lat="52.1897003240883350372314453125" lon="1.5553749538958072662353515625">
        <ele>-59.200000762939453125</ele>
        <time>2025-09-06T12:33:11.000Z</time>
        <extensions>
          <ns3:TrackPointExtension>
            <ns3:hr>164</ns3:hr>
            <ns3:cad>59</ns3:cad>
          </ns3:TrackPointExtension>
        </extensions>
      </trkpt>
      <trkpt lat="52.18970476649701595306396484375" lon="1.55542750842869281768798828125">
        <ele>-59.59999847412109375</ele>
        <time>2025-09-06T12:33:13.000Z</time>
        <extensions>
          <ns3:TrackPointExtension>
            <ns3:hr>165</ns3:hr>
            <ns3:cad>59</ns3:cad>
          </ns3:TrackPointExtension>
        </extensions>
      </trkpt>
      <trkpt lat="52.18970744870603084564208984375" lon="1.55545382760465145111083984375">
        <ele>-59.59999847412109375</ele>
        <time>2025-09-06T12:33:14.000Z</time>
        <extensions>
          <ns3:TrackPointExtension>
            <ns3:hr>162</ns3:hr>
            <ns3:cad>59</ns3:cad>
          </ns3:TrackPointExtension>
        </extensions>
      </trkpt>
      <trkpt lat="52.18971566297113895416259765625" lon="1.55554099939763545989990234375">
        <ele>-60.200000762939453125</ele>
        <time>2025-09-06T12:33:17.000Z</time>
        <extensions>
          <ns3:TrackPointExtension>
            <ns3:hr>160</ns3:hr>
            <ns3:cad>59</ns3:cad>
          </ns3:TrackPointExtension>
        </extensions>
      </trkpt>
      <trkpt lat="52.189723290503025054931640625" lon="1.55558274127542972564697265625">
        <ele>-60.59999847412109375</ele>
        <time>2025-09-06T12:33:19.000Z</time>
        <extensions>
          <ns3:TrackPointExtension>
            <ns3:hr>159</ns3:hr>
            <ns3:cad>59</ns3:cad>
          </ns3:TrackPointExtension>
        </extensions>
      </trkpt>
      <trkpt lat="52.18975178897380828857421875" lon="1.55565599910914897918701171875">
        <ele>-61.40000152587890625</ele>
        <time>2025-09-06T12:33:23.000Z</time>
        <extensions>
          <ns3:TrackPointExtension>
            <ns3:hr>157</ns3:hr>
            <ns3:cad>60</ns3:cad>
          </ns3:TrackPointExtension>
        </extensions>
      </trkpt>
      <trkpt lat="52.18978154473006725311279296875" lon="1.55571986921131610870361328125">
        <ele>-62.200000762939453125</ele>
        <time>2025-09-06T12:33:26.000Z</time>
        <extensions>
          <ns3:TrackPointExtension>
            <ns3:hr>157</ns3:hr>
            <ns3:cad>60</ns3:cad>
          </ns3:TrackPointExtension>
        </extensions>
      </trkpt>
      <trkpt lat="52.1897978894412517547607421875" lon="1.55576596967875957489013671875">
        <ele>-62.59999847412109375</ele>
        <time>2025-09-06T12:33:28.000Z</time>
        <extensions>
          <ns3:TrackPointExtension>
            <ns3:hr>157</ns3:hr>
            <ns3:cad>61</ns3:cad>
          </ns3:TrackPointExtension>
        </extensions>
      </trkpt>
      <trkpt lat="52.18983585946261882781982421875" lon="1.55585766769945621490478515625">
        <ele>-63.799999237060546875</ele>
        <time>2025-09-06T12:33:32.000Z</time>
        <extensions>
          <ns3:TrackPointExtension>
            <ns3:hr>156</ns3:hr>
            <ns3:cad>60</ns3:cad>
          </ns3:TrackPointExtension>
        </extensions>
      </trkpt>
      <trkpt lat="52.18986720778048038482666015625" lon="1.55592924915254116058349609375">
        <ele>-64.8000030517578125</ele>
        <time>2025-09-06T12:33:35.000Z</time>
        <extensions>
          <ns3:TrackPointExtension>
            <ns3:hr>153</ns3:hr>
            <ns3:cad>60</ns3:cad>
          </ns3:TrackPointExtension>
        </extensions>
      </trkpt>
      <trkpt lat="52.18988011591136455535888671875" lon="1.5559546463191509246826171875">
        <ele>-65.1999969482421875</ele>
        <time>2025-09-06T12:33:36.000Z</time>
        <extensions>
          <ns3:TrackPointExtension>
            <ns3:hr>154</ns3:hr>
            <ns3:cad>60</ns3:cad>
          </ns3:TrackPointExtension>
        </extensions>
      </trkpt>
      <trkpt lat="52.18992001377046108245849609375" lon="1.5560312569141387939453125">
        <ele>-66.1999969482421875</ele>
        <time>2025-09-06T12:33:39.000Z</time>
        <extensions>
          <ns3:TrackPointExtension>
            <ns3:hr>154</ns3:hr>
            <ns3:cad>60</ns3:cad>
          </ns3:TrackPointExtension>
        </extensions>
      </trkpt>
      <trkpt lat="52.1899477578699588775634765625" lon="1.556128151714801788330078125">
        <ele>-67.40000152587890625</ele>
        <time>2025-09-06T12:33:42.000Z</time>
        <extensions>
          <ns3:TrackPointExtension>
            <ns3:hr>152</ns3:hr>
            <ns3:cad>78</ns3:cad>
          </ns3:TrackPointExtension>
        </extensions>
      </trkpt>
      <trkpt lat="52.18997466377913951873779296875" lon="1.5562188439071178436279296875">
        <ele>-68.40000152587890625</ele>
        <time>2025-09-06T12:33:45.000Z</time>
        <extensions>
          <ns3:TrackPointExtension>
            <ns3:hr>151</ns3:hr>
            <ns3:cad>78</ns3:cad>
          </ns3:TrackPointExtension>
        </extensions>
      </trkpt>
      <trkpt lat="52.189994864165782928466796875" lon="1.55626921914517879486083984375">
        <ele>-69.1999969482421875</ele>
        <time>2025-09-06T12:33:47.000Z</time>
        <extensions>
          <ns3:TrackPointExtension>
            <ns3:hr>154</ns3:hr>
            <ns3:cad>79</ns3:cad>
          </ns3:TrackPointExtension>
        </extensions>
      </trkpt>
      <trkpt lat="52.19001062214374542236328125" lon="1.55628581531345844268798828125">
        <ele>-69.59999847412109375</ele>
        <time>2025-09-06T12:33:48.000Z</time>
        <extensions>
          <ns3:TrackPointExtension>
            <ns3:hr>155</ns3:hr>
            <ns3:cad>79</ns3:cad>
          </ns3:TrackPointExtension>
        </extensions>
      </trkpt>
      <trkpt lat="52.1900354325771331787109375" lon="1.5563351847231388092041015625">
        <ele>-70.1999969482421875</ele>
        <time>2025-09-06T12:33:50.000Z</time>
        <extensions>
          <ns3:TrackPointExtension>
            <ns3:hr>157</ns3:hr>
            <ns3:cad>79</ns3:cad>
          </ns3:TrackPointExtension>
        </extensions>
      </trkpt>
      <trkpt lat="52.19004842452704906463623046875" lon="1.5563603304326534271240234375">
        <ele>-70.59999847412109375</ele>
        <time>2025-09-06T12:33:51.000Z</time>
        <extensions>
          <ns3:TrackPointExtension>
            <ns3:hr>156</ns3:hr>
            <ns3:cad>79</ns3:cad>
          </ns3:TrackPointExtension>
        </extensions>
      </trkpt>
      <trkpt lat="52.19006082974374294281005859375" lon="1.556386984884738922119140625">
        <ele>-71</ele>
        <time>2025-09-06T12:33:52.000Z</time>
        <extensions>
          <ns3:TrackPointExtension>
            <ns3:hr>159</ns3:hr>
            <ns3:cad>80</ns3:cad>
          </ns3:TrackPointExtension>
        </extensions>
      </trkpt>
      <trkpt lat="52.19008798711001873016357421875" lon="1.55643559992313385009765625">
        <ele>-71.59999847412109375</ele>
        <time>2025-09-06T12:33:54.000Z</time>
        <extensions>
          <ns3:TrackPointExtension>
            <ns3:hr>161</ns3:hr>
            <ns3:cad>80</ns3:cad>
          </ns3:TrackPointExtension>
        </extensions>
      </trkpt>
      <trkpt lat="52.1901251189410686492919921875" lon="1.55651045031845569610595703125">
        <ele>-72.59999847412109375</ele>
        <time>2025-09-06T12:33:57.000Z</time>
        <extensions>
          <ns3:TrackPointExtension>
            <ns3:hr>161</ns3:hr>
            <ns3:cad>79</ns3:cad>
          </ns3:TrackPointExtension>
        </extensions>
      </trkpt>
      <trkpt lat="52.19014942646026611328125" lon="1.5565762482583522796630859375">
        <ele>-73.40000152587890625</ele>
        <time>2025-09-06T12:33:59.000Z</time>
        <extensions>
          <ns3:TrackPointExtension>
            <ns3:hr>160</ns3:hr>
            <ns3:cad>79</ns3:cad>
          </ns3:TrackPointExtension>
        </extensions>
      </trkpt>
      <trkpt lat="52.190161831676959991455078125" lon="1.5566101111471652984619140625">
        <ele>-73.59999847412109375</ele>
        <time>2025-09-06T12:34:00.000Z</time>
        <extensions>
          <ns3:TrackPointExtension>
            <ns3:hr>162</ns3:hr>
            <ns3:cad>80</ns3:cad>
          </ns3:TrackPointExtension>
        </extensions>
      </trkpt>
      <trkpt lat="52.19020533375442028045654296875" lon="1.55673625878989696502685546875">
        <ele>-75</ele>
        <time>2025-09-06T12:34:04.000Z</time>
        <extensions>
          <ns3:TrackPointExtension>
            <ns3:hr>165</ns3:hr>
            <ns3:cad>80</ns3:cad>
          </ns3:TrackPointExtension>
        </extensions>
      </trkpt>
      <trkpt lat="52.19022461213171482086181640625" lon="1.5567925013601779937744140625">
        <ele>-75.59999847412109375</ele>
        <time>2025-09-06T12:34:06.000Z</time>
        <extensions>
          <ns3:TrackPointExtension>
            <ns3:hr>165</ns3:hr>
            <ns3:cad>80</ns3:cad>
          </ns3:TrackPointExtension>
        </extensions>
      </trkpt>
      <trkpt lat="52.19023902900516986846923828125" lon="1.55683868564665317535400390625">
        <ele>-76.1999969482421875</ele>
        <time>2025-09-06T12:34:08.000Z</time>
        <extensions>
          <ns3:TrackPointExtension>
            <ns3:hr>165</ns3:hr>
            <ns3:cad>80</ns3:cad>
          </ns3:TrackPointExtension>
        </extensions>
      </trkpt>
      <trkpt lat="52.1902714669704437255859375" lon="1.5568813495337963104248046875">
        <ele>-77.1999969482421875</ele>
        <time>2025-09-06T12:34:12.000Z</time>
        <extensions>
          <ns3:TrackPointExtension>
            <ns3:hr>162</ns3:hr>
            <ns3:cad>0</ns3:cad>
          </ns3:TrackPointExtension>
        </extensions>
      </trkpt>
      <trkpt lat="52.19030440784990787506103515625" lon="1.55692988075315952301025390625">
        <ele>-78.40000152587890625</ele>
        <time>2025-09-06T12:34:17.000Z</time>
        <extensions>
          <ns3:TrackPointExtension>
            <ns3:hr>161</ns3:hr>
            <ns3:cad>0</ns3:cad>
          </ns3:TrackPointExtension>
        </extensions>
      </trkpt>
      <trkpt lat="52.1903028152883052825927734375" lon="1.55693088658154010772705078125">
        <ele>-78.8000030517578125</ele>
        <time>2025-09-06T12:34:18.000Z</time>
        <extensions>
          <ns3:TrackPointExtension>
            <ns3:hr>162</ns3:hr>
            <ns3:cad>0</ns3:cad>
          </ns3:TrackPointExtension>
        </extensions>
      </trkpt>
      <trkpt lat="52.19030298292636871337890625" lon="1.55693910084664821624755859375">
        <ele>-79.1999969482421875</ele>
        <time>2025-09-06T12:34:20.000Z</time>
        <extensions>
          <ns3:TrackPointExtension>
            <ns3:hr>159</ns3:hr>
            <ns3:cad>0</ns3:cad>
          </ns3:TrackPointExtension>
        </extensions>
      </trkpt>
      <trkpt lat="52.19029619358479976654052734375" lon="1.5569728799164295196533203125">
        <ele>-79.59999847412109375</ele>
        <time>2025-09-06T12:34:22.000Z</time>
        <extensions>
          <ns3:TrackPointExtension>
            <ns3:hr>158</ns3:hr>
            <ns3:cad>0</ns3:cad>
          </ns3:TrackPointExtension>
        </extensions>
      </trkpt>
      <trkpt lat="52.1902645938098430633544921875" lon="1.55703767202794551849365234375">
        <ele>-80.1999969482421875</ele>
        <time>2025-09-06T12:34:25.000Z</time>
        <extensions>
          <ns3:TrackPointExtension>
            <ns3:hr>156</ns3:hr>
            <ns3:cad>0</ns3:cad>
          </ns3:TrackPointExtension>
        </extensions>
      </trkpt>
      <trkpt lat="52.1902330778539180755615234375" lon="1.55708528123795986175537109375">
        <ele>-80.8000030517578125</ele>
        <time>2025-09-06T12:34:28.000Z</time>
        <extensions>
          <ns3:TrackPointExtension>
            <ns3:hr>156</ns3:hr>
            <ns3:cad>61</ns3:cad>
          </ns3:TrackPointExtension>
        </extensions>
      </trkpt>
      <trkpt lat="52.1901764161884784698486328125" lon="1.55715032480657100677490234375">
        <ele>-82</ele>
        <time>2025-09-06T12:34:34.000Z</time>
        <extensions>
          <ns3:TrackPointExtension>
            <ns3:hr>156</ns3:hr>
            <ns3:cad>61</ns3:cad>
          </ns3:TrackPointExtension>
        </extensions>
      </trkpt>
      <trkpt lat="52.19016593880951404571533203125" lon="1.55716138891875743865966796875">
        <ele>-82.1999969482421875</ele>
        <time>2025-09-06T12:34:35.000Z</time>
        <extensions>
          <ns3:TrackPointExtension>
            <ns3:hr>158</ns3:hr>
            <ns3:cad>62</ns3:cad>
          </ns3:TrackPointExtension>
        </extensions>
      </trkpt>
      <trkpt lat="52.19014246948063373565673828125" lon="1.5571857802569866180419921875">
        <ele>-82.59999847412109375</ele>
        <time>2025-09-06T12:34:37.000Z</time>
        <extensions>
          <ns3:TrackPointExtension>
            <ns3:hr>154</ns3:hr>
            <ns3:cad>61</ns3:cad>
          </ns3:TrackPointExtension>
        </extensions>
      </trkpt>
      <trkpt lat="52.190130650997161865234375" lon="1.55719357542693614959716796875">
        <ele>-82.8000030517578125</ele>
        <time>2025-09-06T12:34:38.000Z</time>
        <extensions>
          <ns3:TrackPointExtension>
            <ns3:hr>151</ns3:hr>
            <ns3:cad>61</ns3:cad>
          </ns3:TrackPointExtension>
        </extensions>
      </trkpt>
      <trkpt lat="52.19011883251368999481201171875" lon="1.55720363371074199676513671875">
        <ele>-83</ele>
        <time>2025-09-06T12:34:39.000Z</time>
        <extensions>
          <ns3:TrackPointExtension>
            <ns3:hr>150</ns3:hr>
            <ns3:cad>60</ns3:cad>
          </ns3:TrackPointExtension>
        </extensions>
      </trkpt>
      <trkpt lat="52.190065942704677581787109375" lon="1.5572471357882022857666015625">
        <ele>-84</ele>
        <time>2025-09-06T12:34:43.000Z</time>
        <extensions>
          <ns3:TrackPointExtension>
            <ns3:hr>148</ns3:hr>
            <ns3:cad>60</ns3:cad>
          </ns3:TrackPointExtension>
        </extensions>
      </trkpt>
      <trkpt lat="52.19004574231803417205810546875" lon="1.557264067232608795166015625">
        <ele>-84.59999847412109375</ele>
        <time>2025-09-06T12:34:45.000Z</time>
        <extensions>
          <ns3:TrackPointExtension>
            <ns3:hr>147</ns3:hr>
            <ns3:cad>60</ns3:cad>
          </ns3:TrackPointExtension>
        </extensions>
      </trkpt>
      <trkpt lat="52.19002998434007167816162109375" lon="1.55728292651474475860595703125">
        <ele>-85.1999969482421875</ele>
        <time>2025-09-06T12:34:47.000Z</time>
        <extensions>
          <ns3:TrackPointExtension>
            <ns3:hr>147</ns3:hr>
            <ns3:cad>60</ns3:cad>
          </ns3:TrackPointExtension>
        </extensions>
      </trkpt>
      <trkpt lat="52.1899886615574359893798828125" lon="1.55730874277651309967041015625">
        <ele>-86.40000152587890625</ele>
        <time>2025-09-06T12:34:51.000Z</time>
        <extensions>
          <ns3:TrackPointExtension>
            <ns3:hr>146</ns3:hr>
            <ns3:cad>61</ns3:cad>
          </ns3:TrackPointExtension>
        </extensions>
      </trkpt>
      <trkpt lat="52.18996770679950714111328125" lon="1.55732517130672931671142578125">
        <ele>-87</ele>
        <time>2025-09-06T12:34:53.000Z</time>
        <extensions>
          <ns3:TrackPointExtension>
            <ns3:hr>145</ns3:hr>
            <ns3:cad>61</ns3:cad>
          </ns3:TrackPointExtension>
        </extensions>
      </trkpt>
      <trkpt lat="52.1899450756609439849853515625" lon="1.557345204055309295654296875">
        <ele>-87.8000030517578125</ele>
        <time>2025-09-06T12:34:55.000Z</time>
        <extensions>
          <ns3:TrackPointExtension>
            <ns3:hr>144</ns3:hr>
            <ns3:cad>61</ns3:cad>
          </ns3:TrackPointExtension>
        </extensions>
      </trkpt>
      <trkpt lat="52.18987290747463703155517578125" lon="1.557313017547130584716796875">
        <ele>-89</ele>
        <time>2025-09-06T12:34:59.000Z</time>
        <extensions>
          <ns3:TrackPointExtension>
            <ns3:hr>144</ns3:hr>
            <ns3:cad>61</ns3:cad>
          </ns3:TrackPointExtension>
        </extensions>
      </trkpt>
      <trkpt lat="52.18985362909734249114990234375" lon="1.5573165379464626312255859375">
        <ele>-89.40000152587890625</ele>
        <time>2025-09-06T12:35:00.000Z</time>
        <extensions>
          <ns3:TrackPointExtension>
            <ns3:hr>144</ns3:hr>
            <ns3:cad>61</ns3:cad>
          </ns3:TrackPointExtension>
        </extensions>
      </trkpt>
      <trkpt lat="52.18979462049901485443115234375" lon="1.55732232145965099334716796875">
        <ele>-90.40000152587890625</ele>
        <time>2025-09-06T12:35:03.000Z</time>
        <extensions>
          <ns3:TrackPointExtension>
            <ns3:hr>143</ns3:hr>
            <ns3:cad>60</ns3:cad>
          </ns3:TrackPointExtension>
        </extensions>
      </trkpt>
      <trkpt lat="52.18969487585127353668212890625" lon="1.55738568864762783050537109375">
        <ele>-91.59999847412109375</ele>
        <time>2025-09-06T12:35:07.000Z</time>
        <extensions>
          <ns3:TrackPointExtension>
            <ns3:hr>142</ns3:hr>
            <ns3:cad>60</ns3:cad>
          </ns3:TrackPointExtension>
        </extensions>
      </trkpt>
      <trkpt lat="52.18961323611438274383544921875" lon="1.55742307193577289581298828125">
        <ele>-92.8000030517578125</ele>
        <time>2025-09-06T12:35:11.000Z</time>
        <extensions>
          <ns3:TrackPointExtension>
            <ns3:hr>142</ns3:hr>
            <ns3:cad>62</ns3:cad>
          </ns3:TrackPointExtension>
        </extensions>
      </trkpt>
      <trkpt lat="52.189545594155788421630859375" lon="1.55745190568268299102783203125">
        <ele>-93.8000030517578125</ele>
        <time>2025-09-06T12:35:15.000Z</time>
        <extensions>
          <ns3:TrackPointExtension>
            <ns3:hr>142</ns3:hr>
            <ns3:cad>61</ns3:cad>
          </ns3:TrackPointExtension>
        </extensions>
      </trkpt>
      <trkpt lat="52.18945632688701152801513671875" lon="1.55746548436582088470458984375">
        <ele>-94.8000030517578125</ele>
        <time>2025-09-06T12:35:20.000Z</time>
        <extensions>
          <ns3:TrackPointExtension>
            <ns3:hr>145</ns3:hr>
            <ns3:cad>79</ns3:cad>
          </ns3:TrackPointExtension>
        </extensions>
      </trkpt>
      <trkpt lat="52.18937921337783336639404296875" lon="1.5574610419571399688720703125">
        <ele>-95.8000030517578125</ele>
        <time>2025-09-06T12:35:24.000Z</time>
        <extensions>
          <ns3:TrackPointExtension>
            <ns3:hr>143</ns3:hr>
            <ns3:cad>79</ns3:cad>
          </ns3:TrackPointExtension>
        </extensions>
      </trkpt>
      <trkpt lat="52.1893600188195705413818359375" lon="1.557467244565486907958984375">
        <ele>-96</ele>
        <time>2025-09-06T12:35:25.000Z</time>
        <extensions>
          <ns3:TrackPointExtension>
            <ns3:hr>144</ns3:hr>
            <ns3:cad>80</ns3:cad>
          </ns3:TrackPointExtension>
        </extensions>
      </trkpt>
      <trkpt lat="52.18934166245162487030029296875" lon="1.5574700944125652313232421875">
        <ele>-96.1999969482421875</ele>
        <time>2025-09-06T12:35:26.000Z</time>
        <extensions>
          <ns3:TrackPointExtension>
            <ns3:hr>147</ns3:hr>
            <ns3:cad>80</ns3:cad>
          </ns3:TrackPointExtension>
        </extensions>
      </trkpt>
      <trkpt lat="52.1893046982586383819580078125" lon="1.5574689209461212158203125">
        <ele>-96.40000152587890625</ele>
        <time>2025-09-06T12:35:28.000Z</time>
        <extensions>
          <ns3:TrackPointExtension>
            <ns3:hr>150</ns3:hr>
            <ns3:cad>80</ns3:cad>
          </ns3:TrackPointExtension>
        </extensions>
      </trkpt>
      <trkpt lat="52.18925532884895801544189453125" lon="1.5574716031551361083984375">
        <ele>-97</ele>
        <time>2025-09-06T12:35:31.000Z</time>
        <extensions>
          <ns3:TrackPointExtension>
            <ns3:hr>153</ns3:hr>
            <ns3:cad>81</ns3:cad>
          </ns3:TrackPointExtension>
        </extensions>
      </trkpt>
      <trkpt lat="52.18922029249370098114013671875" lon="1.557473279535770416259765625">
        <ele>-97.40000152587890625</ele>
        <time>2025-09-06T12:35:33.000Z</time>
        <extensions>
          <ns3:TrackPointExtension>
            <ns3:hr>154</ns3:hr>
            <ns3:cad>81</ns3:cad>
          </ns3:TrackPointExtension>
        </extensions>
      </trkpt>
      <trkpt lat="52.18918341211974620819091796875" lon="1.557479985058307647705078125">
        <ele>-97.59999847412109375</ele>
        <time>2025-09-06T12:35:35.000Z</time>
        <extensions>
          <ns3:TrackPointExtension>
            <ns3:hr>158</ns3:hr>
            <ns3:cad>80</ns3:cad>
          </ns3:TrackPointExtension>
        </extensions>
      </trkpt>
      <trkpt lat="52.18910244293510913848876953125" lon="1.557483673095703125">
        <ele>-98.1999969482421875</ele>
        <time>2025-09-06T12:35:39.000Z</time>
        <extensions>
          <ns3:TrackPointExtension>
            <ns3:hr>159</ns3:hr>
            <ns3:cad>79</ns3:cad>
          </ns3:TrackPointExtension>
        </extensions>
      </trkpt>
      <trkpt lat="52.18904326669871807098388671875" lon="1.5574915520846843719482421875">
        <ele>-98.59999847412109375</ele>
        <time>2025-09-06T12:35:42.000Z</time>
        <extensions>
          <ns3:TrackPointExtension>
            <ns3:hr>160</ns3:hr>
            <ns3:cad>80</ns3:cad>
          </ns3:TrackPointExtension>
        </extensions>
      </trkpt>
      <trkpt lat="52.18892558477818965911865234375" lon="1.55748928897082805633544921875">
        <ele>-99.1999969482421875</ele>
        <time>2025-09-06T12:35:48.000Z</time>
        <extensions>
          <ns3:TrackPointExtension>
            <ns3:hr>162</ns3:hr>
            <ns3:cad>79</ns3:cad>
          </ns3:TrackPointExtension>
        </extensions>
      </trkpt>
      <trkpt lat="52.1888909675180912017822265625" lon="1.557489372789859771728515625">
        <ele>-99.40000152587890625</ele>
        <time>2025-09-06T12:35:50.000Z</time>
        <extensions>
          <ns3:TrackPointExtension>
            <ns3:hr>161</ns3:hr>
            <ns3:cad>79</ns3:cad>
          </ns3:TrackPointExtension>
        </extensions>
      </trkpt>
      <trkpt lat="52.18880228698253631591796875" lon="1.55748568475246429443359375">
        <ele>-100</ele>
        <time>2025-09-06T12:35:55.000Z</time>
        <extensions>
          <ns3:TrackPointExtension>
            <ns3:hr>164</ns3:hr>
            <ns3:cad>61</ns3:cad>
          </ns3:TrackPointExtension>
        </extensions>
      </trkpt>
      <trkpt lat="52.1887595392763614654541015625" lon="1.55749515630304813385009765625">
        <ele>-100.1999969482421875</ele>
        <time>2025-09-06T12:35:57.000Z</time>
        <extensions>
          <ns3:TrackPointExtension>
            <ns3:hr>164</ns3:hr>
            <ns3:cad>61</ns3:cad>
          </ns3:TrackPointExtension>
        </extensions>
      </trkpt>
      <trkpt lat="52.188742272555828094482421875" lon="1.5574999339878559112548828125">
        <ele>-100.40000152587890625</ele>
        <time>2025-09-06T12:35:58.000Z</time>
        <extensions>
          <ns3:TrackPointExtension>
            <ns3:hr>164</ns3:hr>
            <ns3:cad>61</ns3:cad>
          </ns3:TrackPointExtension>
        </extensions>
      </trkpt>
      <trkpt lat="52.18867396004498004913330078125" lon="1.55751108191907405853271484375">
        <ele>-101</ele>
        <time>2025-09-06T12:36:02.000Z</time>
        <extensions>
          <ns3:TrackPointExtension>
            <ns3:hr>157</ns3:hr>
            <ns3:cad>60</ns3:cad>
          </ns3:TrackPointExtension>
        </extensions>
      </trkpt>
      <trkpt lat="52.188642024993896484375" lon="1.55751443468034267425537109375">
        <ele>-101.1999969482421875</ele>
        <time>2025-09-06T12:36:04.000Z</time>
        <extensions>
          <ns3:TrackPointExtension>
            <ns3:hr>157</ns3:hr>
            <ns3:cad>60</ns3:cad>
          </ns3:TrackPointExtension>
        </extensions>
      </trkpt>
      <trkpt lat="52.1886110119521617889404296875" lon="1.55752130784094333648681640625">
        <ele>-101.59999847412109375</ele>
        <time>2025-09-06T12:36:06.000Z</time>
        <extensions>
          <ns3:TrackPointExtension>
            <ns3:hr>159</ns3:hr>
            <ns3:cad>60</ns3:cad>
          </ns3:TrackPointExtension>
        </extensions>
      </trkpt>
      <trkpt lat="52.18853565864264965057373046875" lon="1.557539664208889007568359375">
        <ele>-102.40000152587890625</ele>
        <time>2025-09-06T12:36:11.000Z</time>
        <extensions>
          <ns3:TrackPointExtension>
            <ns3:hr>160</ns3:hr>
            <ns3:cad>61</ns3:cad>
          </ns3:TrackPointExtension>
        </extensions>
      </trkpt>
      <trkpt lat="52.1884779073297977447509765625" lon="1.55755701474845409393310546875">
        <ele>-103.1999969482421875</ele>
        <time>2025-09-06T12:36:15.000Z</time>
        <extensions>
          <ns3:TrackPointExtension>
            <ns3:hr>159</ns3:hr>
            <ns3:cad>61</ns3:cad>
          </ns3:TrackPointExtension>
        </extensions>
      </trkpt>
      <trkpt lat="52.18846290372312068939208984375" lon="1.55756170861423015594482421875">
        <ele>-103.40000152587890625</ele>
        <time>2025-09-06T12:36:16.000Z</time>
        <extensions>
          <ns3:TrackPointExtension>
            <ns3:hr>158</ns3:hr>
            <ns3:cad>61</ns3:cad>
          </ns3:TrackPointExtension>
        </extensions>
      </trkpt>
      <trkpt lat="52.18838922679424285888671875" lon="1.5576065517961978912353515625">
        <ele>-104.59999847412109375</ele>
        <time>2025-09-06T12:36:21.000Z</time>
        <extensions>
          <ns3:TrackPointExtension>
            <ns3:hr>156</ns3:hr>
            <ns3:cad>61</ns3:cad>
          </ns3:TrackPointExtension>
        </extensions>
      </trkpt>
      <trkpt lat="52.18835771083831787109375" lon="1.55762708745896816253662109375">
        <ele>-105.1999969482421875</ele>
        <time>2025-09-06T12:36:23.000Z</time>
        <extensions>
          <ns3:TrackPointExtension>
            <ns3:hr>155</ns3:hr>
            <ns3:cad>61</ns3:cad>
          </ns3:TrackPointExtension>
        </extensions>
      </trkpt>
      <trkpt lat="52.18832409940659999847412109375" lon="1.5576424263417720794677734375">
        <ele>-105.8000030517578125</ele>
        <time>2025-09-06T12:36:25.000Z</time>
        <extensions>
          <ns3:TrackPointExtension>
            <ns3:hr>155</ns3:hr>
            <ns3:cad>61</ns3:cad>
          </ns3:TrackPointExtension>
        </extensions>
      </trkpt>
      <trkpt lat="52.1882971934974193572998046875" lon="1.55765072442591190338134765625">
        <ele>-106.40000152587890625</ele>
        <time>2025-09-06T12:36:27.000Z</time>
        <extensions>
          <ns3:TrackPointExtension>
            <ns3:hr>152</ns3:hr>
            <ns3:cad>61</ns3:cad>
          </ns3:TrackPointExtension>
        </extensions>
      </trkpt>
      <trkpt lat="52.18826710246503353118896484375" lon="1.557666398584842681884765625">
        <ele>-107</ele>
        <time>2025-09-06T12:36:29.000Z</time>
        <extensions>
          <ns3:TrackPointExtension>
            <ns3:hr>150</ns3:hr>
            <ns3:cad>0</ns3:cad>
          </ns3:TrackPointExtension>
        </extensions>
      </trkpt>
      <trkpt lat="52.18824950046837329864501953125" lon="1.55767788179218769073486328125">
        <ele>-107.1999969482421875</ele>
        <time>2025-09-06T12:36:30.000Z</time>
        <extensions>
          <ns3:TrackPointExtension>
            <ns3:hr>150</ns3:hr>
            <ns3:cad>0</ns3:cad>
          </ns3:TrackPointExtension>
        </extensions>
      </trkpt>
      <trkpt lat="52.18819082714617252349853515625" lon="1.55769045464694499969482421875">
        <ele>-108.1999969482421875</ele>
        <time>2025-09-06T12:36:33.000Z</time>
        <extensions>
          <ns3:TrackPointExtension>
            <ns3:hr>148</ns3:hr>
            <ns3:cad>0</ns3:cad>
          </ns3:TrackPointExtension>
        </extensions>
      </trkpt>
      <trkpt lat="52.1881443075835704803466796875" lon="1.55770453624427318572998046875">
        <ele>-109</ele>
        <time>2025-09-06T12:36:36.000Z</time>
        <extensions>
          <ns3:TrackPointExtension>
            <ns3:hr>148</ns3:hr>
            <ns3:cad>0</ns3:cad>
          </ns3:TrackPointExtension>
        </extensions>
      </trkpt>
      <trkpt lat="52.18812494538724422454833984375" lon="1.55771241523325443267822265625">
        <ele>-109.40000152587890625</ele>
        <time>2025-09-06T12:36:37.000Z</time>
        <extensions>
          <ns3:TrackPointExtension>
            <ns3:hr>148</ns3:hr>
            <ns3:cad>0</ns3:cad>
          </ns3:TrackPointExtension>
        </extensions>
      </trkpt>
      <trkpt lat="52.1880876459181308746337890625" lon="1.55772649683058261871337890625">
        <ele>-110.1999969482421875</ele>
        <time>2025-09-06T12:36:39.000Z</time>
        <extensions>
          <ns3:TrackPointExtension>
            <ns3:hr>145</ns3:hr>
            <ns3:cad>0</ns3:cad>
          </ns3:TrackPointExtension>
        </extensions>
      </trkpt>
      <trkpt lat="52.1880708821117877960205078125" lon="1.557730101048946380615234375">
        <ele>-110.40000152587890625</ele>
        <time>2025-09-06T12:36:40.000Z</time>
        <extensions>
          <ns3:TrackPointExtension>
            <ns3:hr>145</ns3:hr>
            <ns3:cad>60</ns3:cad>
          </ns3:TrackPointExtension>
        </extensions>
      </trkpt>
      <trkpt lat="52.18802050687372684478759765625" lon="1.55773705802857875823974609375">
        <ele>-111.59999847412109375</ele>
        <time>2025-09-06T12:36:43.000Z</time>
        <extensions>
          <ns3:TrackPointExtension>
            <ns3:hr>144</ns3:hr>
            <ns3:cad>61</ns3:cad>
          </ns3:TrackPointExtension>
        </extensions>
      </trkpt>
      <trkpt lat="52.18797423876821994781494140625" lon="1.55774510465562343597412109375">
        <ele>-112.59999847412109375</ele>
        <time>2025-09-06T12:36:46.000Z</time>
        <extensions>
          <ns3:TrackPointExtension>
            <ns3:hr>143</ns3:hr>
            <ns3:cad>61</ns3:cad>
          </ns3:TrackPointExtension>
        </extensions>
      </trkpt>
      <trkpt lat="52.18793266452848911285400390625" lon="1.5577393211424350738525390625">
        <ele>-113.59999847412109375</ele>
        <time>2025-09-06T12:36:49.000Z</time>
        <extensions>
          <ns3:TrackPointExtension>
            <ns3:hr>142</ns3:hr>
            <ns3:cad>0</ns3:cad>
          </ns3:TrackPointExtension>
        </extensions>
      </trkpt>
      <trkpt lat="52.18790508806705474853515625" lon="1.5577403269708156585693359375">
        <ele>-114.40000152587890625</ele>
        <time>2025-09-06T12:36:51.000Z</time>
        <extensions>
          <ns3:TrackPointExtension>
            <ns3:hr>142</ns3:hr>
            <ns3:cad>61</ns3:cad>
          </ns3:TrackPointExtension>
        </extensions>
      </trkpt>
      <trkpt lat="52.1878911741077899932861328125" lon="1.557743847370147705078125">
        <ele>-114.8000030517578125</ele>
        <time>2025-09-06T12:36:52.000Z</time>
        <extensions>
          <ns3:TrackPointExtension>
            <ns3:hr>143</ns3:hr>
            <ns3:cad>0</ns3:cad>
          </ns3:TrackPointExtension>
        </extensions>
      </trkpt>
      <trkpt lat="52.1878439001739025115966796875" lon="1.5577483735978603363037109375">
        <ele>-115.8000030517578125</ele>
        <time>2025-09-06T12:36:55.000Z</time>
        <extensions>
          <ns3:TrackPointExtension>
            <ns3:hr>141</ns3:hr>
            <ns3:cad>61</ns3:cad>
          </ns3:TrackPointExtension>
        </extensions>
      </trkpt>
      <trkpt lat="52.18779369257390499114990234375" lon="1.5577451884746551513671875">
        <ele>-116.8000030517578125</ele>
        <time>2025-09-06T12:36:58.000Z</time>
        <extensions>
          <ns3:TrackPointExtension>
            <ns3:hr>142</ns3:hr>
            <ns3:cad>60</ns3:cad>
          </ns3:TrackPointExtension>
        </extensions>
      </trkpt>
      <trkpt lat="52.18776385299861431121826171875" lon="1.55774577520787715911865234375">
        <ele>-117.40000152587890625</ele>
        <time>2025-09-06T12:37:00.000Z</time>
        <extensions>
          <ns3:TrackPointExtension>
            <ns3:hr>144</ns3:hr>
            <ns3:cad>61</ns3:cad>
          </ns3:TrackPointExtension>
        </extensions>
      </trkpt>
      <trkpt lat="52.18773719854652881622314453125" lon="1.55774108134210109710693359375">
        <ele>-118</ele>
        <time>2025-09-06T12:37:02.000Z</time>
        <extensions>
          <ns3:TrackPointExtension>
            <ns3:hr>145</ns3:hr>
            <ns3:cad>61</ns3:cad>
          </ns3:TrackPointExtension>
        </extensions>
      </trkpt>
      <trkpt lat="52.18768053688108921051025390625" lon="1.55772767029702663421630859375">
        <ele>-119.40000152587890625</ele>
        <time>2025-09-06T12:37:06.000Z</time>
        <extensions>
          <ns3:TrackPointExtension>
            <ns3:hr>142</ns3:hr>
            <ns3:cad>0</ns3:cad>
          </ns3:TrackPointExtension>
        </extensions>
      </trkpt>
      <trkpt lat="52.1876477636396884918212890625" lon="1.5577237308025360107421875">
        <ele>-120</ele>
        <time>2025-09-06T12:37:08.000Z</time>
        <extensions>
          <ns3:TrackPointExtension>
            <ns3:hr>142</ns3:hr>
            <ns3:cad>61</ns3:cad>
          </ns3:TrackPointExtension>
        </extensions>
      </trkpt>
      <trkpt lat="52.187615744769573211669921875" lon="1.5577195398509502410888671875">
        <ele>-120.59999847412109375</ele>
        <time>2025-09-06T12:37:10.000Z</time>
        <extensions>
          <ns3:TrackPointExtension>
            <ns3:hr>142</ns3:hr>
            <ns3:cad>60</ns3:cad>
          </ns3:TrackPointExtension>
        </extensions>
      </trkpt>
      <trkpt lat="52.187555730342864990234375" lon="1.5577027760446071624755859375">
        <ele>-121.59999847412109375</ele>
        <time>2025-09-06T12:37:14.000Z</time>
        <extensions>
          <ns3:TrackPointExtension>
            <ns3:hr>142</ns3:hr>
            <ns3:cad>60</ns3:cad>
          </ns3:TrackPointExtension>
        </extensions>
      </trkpt>
      <trkpt lat="52.187509797513484954833984375" lon="1.5576897002756595611572265625">
        <ele>-122.40000152587890625</ele>
        <time>2025-09-06T12:37:17.000Z</time>
        <extensions>
          <ns3:TrackPointExtension>
            <ns3:hr>140</ns3:hr>
            <ns3:cad>61</ns3:cad>
          </ns3:TrackPointExtension>
        </extensions>
      </trkpt>
      <trkpt lat="52.187494374811649322509765625" lon="1.55768643133342266082763671875">
        <ele>-122.8000030517578125</ele>
        <time>2025-09-06T12:37:18.000Z</time>
        <extensions>
          <ns3:TrackPointExtension>
            <ns3:hr>140</ns3:hr>
            <ns3:cad>61</ns3:cad>
          </ns3:TrackPointExtension>
        </extensions>
      </trkpt>
      <trkpt lat="52.18743712641298770904541015625" lon="1.55767478048801422119140625">
        <ele>-123.8000030517578125</ele>
        <time>2025-09-06T12:37:22.000Z</time>
        <extensions>
          <ns3:TrackPointExtension>
            <ns3:hr>141</ns3:hr>
            <ns3:cad>60</ns3:cad>
          </ns3:TrackPointExtension>
        </extensions>
      </trkpt>
      <trkpt lat="52.1874041855335235595703125" lon="1.557677797973155975341796875">
        <ele>-124.8000030517578125</ele>
        <time>2025-09-06T12:37:25.000Z</time>
        <extensions>
          <ns3:TrackPointExtension>
            <ns3:hr>144</ns3:hr>
            <ns3:cad>63</ns3:cad>
          </ns3:TrackPointExtension>
        </extensions>
      </trkpt>
      <trkpt lat="52.18739504925906658172607421875" lon="1.5576803125441074371337890625">
        <ele>-125</ele>
        <time>2025-09-06T12:37:26.000Z</time>
        <extensions>
          <ns3:TrackPointExtension>
            <ns3:hr>144</ns3:hr>
            <ns3:cad>63</ns3:cad>
          </ns3:TrackPointExtension>
        </extensions>
      </trkpt>
      <trkpt lat="52.1873798780143260955810546875" lon="1.55768408440053462982177734375">
        <ele>-125.1999969482421875</ele>
        <time>2025-09-06T12:37:27.000Z</time>
        <extensions>
          <ns3:TrackPointExtension>
            <ns3:hr>141</ns3:hr>
            <ns3:cad>63</ns3:cad>
          </ns3:TrackPointExtension>
        </extensions>
      </trkpt>
      <trkpt lat="52.18733285553753376007080078125" lon="1.55768014490604400634765625">
        <ele>-126</ele>
        <time>2025-09-06T12:37:30.000Z</time>
        <extensions>
          <ns3:TrackPointExtension>
            <ns3:hr>140</ns3:hr>
            <ns3:cad>61</ns3:cad>
          </ns3:TrackPointExtension>
        </extensions>
      </trkpt>
      <trkpt lat="52.1872997470200061798095703125" lon="1.55767855234444141387939453125">
        <ele>-126.59999847412109375</ele>
        <time>2025-09-06T12:37:32.000Z</time>
        <extensions>
          <ns3:TrackPointExtension>
            <ns3:hr>139</ns3:hr>
            <ns3:cad>62</ns3:cad>
          </ns3:TrackPointExtension>
        </extensions>
      </trkpt>
      <trkpt lat="52.1872702427208423614501953125" lon="1.55767519958317279815673828125">
        <ele>-127.1999969482421875</ele>
        <time>2025-09-06T12:37:34.000Z</time>
        <extensions>
          <ns3:TrackPointExtension>
            <ns3:hr>136</ns3:hr>
            <ns3:cad>61</ns3:cad>
          </ns3:TrackPointExtension>
        </extensions>
      </trkpt>
      <trkpt lat="52.18720511533319950103759765625" lon="1.55767746269702911376953125">
        <ele>-128.1999969482421875</ele>
        <time>2025-09-06T12:37:38.000Z</time>
        <extensions>
          <ns3:TrackPointExtension>
            <ns3:hr>137</ns3:hr>
            <ns3:cad>60</ns3:cad>
          </ns3:TrackPointExtension>
        </extensions>
      </trkpt>
      <trkpt lat="52.1871803887188434600830078125" lon="1.55768039636313915252685546875">
        <ele>-128.8000030517578125</ele>
        <time>2025-09-06T12:37:40.000Z</time>
        <extensions>
          <ns3:TrackPointExtension>
            <ns3:hr>136</ns3:hr>
            <ns3:cad>60</ns3:cad>
          </ns3:TrackPointExtension>
        </extensions>
      </trkpt>
      <trkpt lat="52.187153398990631103515625" lon="1.5576826594769954681396484375">
        <ele>-129.1999969482421875</ele>
        <time>2025-09-06T12:37:42.000Z</time>
        <extensions>
          <ns3:TrackPointExtension>
            <ns3:hr>138</ns3:hr>
            <ns3:cad>0</ns3:cad>
          </ns3:TrackPointExtension>
        </extensions>
      </trkpt>
      <trkpt lat="52.18708164989948272705078125" lon="1.5576813183724880218505859375">
        <ele>-130.1999969482421875</ele>
        <time>2025-09-06T12:37:46.000Z</time>
        <extensions>
          <ns3:TrackPointExtension>
            <ns3:hr>141</ns3:hr>
            <ns3:cad>0</ns3:cad>
          </ns3:TrackPointExtension>
        </extensions>
      </trkpt>
      <trkpt lat="52.187064550817012786865234375" lon="1.55768140219151973724365234375">
        <ele>-130.399993896484375</ele>
        <time>2025-09-06T12:37:47.000Z</time>
        <extensions>
          <ns3:TrackPointExtension>
            <ns3:hr>140</ns3:hr>
            <ns3:cad>61</ns3:cad>
          </ns3:TrackPointExtension>
        </extensions>
      </trkpt>
      <trkpt lat="52.18697838485240936279296875" lon="1.55767436139285564422607421875">
        <ele>-130.1999969482421875</ele>
        <time>2025-09-06T12:37:53.000Z</time>
        <extensions>
          <ns3:TrackPointExtension>
            <ns3:hr>138</ns3:hr>
            <ns3:cad>62</ns3:cad>
          </ns3:TrackPointExtension>
        </extensions>
      </trkpt>
      <trkpt lat="52.186921723186969757080078125" lon="1.5576548315584659576416015625">
        <ele>-129.399993896484375</ele>
        <time>2025-09-06T12:37:58.000Z</time>
        <extensions>
          <ns3:TrackPointExtension>
            <ns3:hr>137</ns3:hr>
            <ns3:cad>61</ns3:cad>
          </ns3:TrackPointExtension>
        </extensions>
      </trkpt>
      <trkpt lat="52.186879813671112060546875" lon="1.55763312242925167083740234375">
        <ele>-128.8000030517578125</ele>
        <time>2025-09-06T12:38:01.000Z</time>
        <extensions>
          <ns3:TrackPointExtension>
            <ns3:hr>135</ns3:hr>
            <ns3:cad>61</ns3:cad>
          </ns3:TrackPointExtension>
        </extensions>
      </trkpt>
      <trkpt lat="52.186854667961597442626953125" lon="1.557630188763141632080078125">
        <ele>-128.1999969482421875</ele>
        <time>2025-09-06T12:38:03.000Z</time>
        <extensions>
          <ns3:TrackPointExtension>
            <ns3:hr>133</ns3:hr>
            <ns3:cad>61</ns3:cad>
          </ns3:TrackPointExtension>
        </extensions>
      </trkpt>
      <trkpt lat="52.1867877803742885589599609375" lon="1.557628847658634185791015625">
        <ele>-127.40000152587890625</ele>
        <time>2025-09-06T12:38:07.000Z</time>
        <extensions>
          <ns3:TrackPointExtension>
            <ns3:hr>136</ns3:hr>
            <ns3:cad>61</ns3:cad>
          </ns3:TrackPointExtension>
        </extensions>
      </trkpt>
      <trkpt lat="52.18677319586277008056640625" lon="1.55762842856347560882568359375">
        <ele>-127.1999969482421875</ele>
        <time>2025-09-06T12:38:08.000Z</time>
        <extensions>
          <ns3:TrackPointExtension>
            <ns3:hr>136</ns3:hr>
            <ns3:cad>61</ns3:cad>
          </ns3:TrackPointExtension>
        </extensions>
      </trkpt>
      <trkpt lat="52.18674059025943279266357421875" lon="1.55762155540287494659423828125">
        <ele>-126.59999847412109375</ele>
        <time>2025-09-06T12:38:10.000Z</time>
        <extensions>
          <ns3:TrackPointExtension>
            <ns3:hr>139</ns3:hr>
            <ns3:cad>61</ns3:cad>
          </ns3:TrackPointExtension>
        </extensions>
      </trkpt>
      <trkpt lat="52.18669918365776538848876953125" lon="1.5575998462736606597900390625">
        <ele>-126</ele>
        <time>2025-09-06T12:38:13.000Z</time>
        <extensions>
          <ns3:TrackPointExtension>
            <ns3:hr>138</ns3:hr>
            <ns3:cad>60</ns3:cad>
          </ns3:TrackPointExtension>
        </extensions>
      </trkpt>
      <trkpt lat="52.18666045926511287689208984375" lon="1.5575881116092205047607421875">
        <ele>-125.1999969482421875</ele>
        <time>2025-09-06T12:38:16.000Z</time>
        <extensions>
          <ns3:TrackPointExtension>
            <ns3:hr>136</ns3:hr>
            <ns3:cad>60</ns3:cad>
          </ns3:TrackPointExtension>
        </extensions>
      </trkpt>
      <trkpt lat="52.18663212843239307403564453125" lon="1.5575850941240787506103515625">
        <ele>-124.8000030517578125</ele>
        <time>2025-09-06T12:38:18.000Z</time>
        <extensions>
          <ns3:TrackPointExtension>
            <ns3:hr>134</ns3:hr>
            <ns3:cad>60</ns3:cad>
          </ns3:TrackPointExtension>
        </extensions>
      </trkpt>
      <trkpt lat="52.1865862794220447540283203125" lon="1.557595990598201751708984375">
        <ele>-124</ele>
        <time>2025-09-06T12:38:21.000Z</time>
        <extensions>
          <ns3:TrackPointExtension>
            <ns3:hr>131</ns3:hr>
            <ns3:cad>61</ns3:cad>
          </ns3:TrackPointExtension>
        </extensions>
      </trkpt>
      <trkpt lat="52.1865619719028472900390625" lon="1.55760730616748332977294921875">
        <ele>-123.59999847412109375</ele>
        <time>2025-09-06T12:38:23.000Z</time>
        <extensions>
          <ns3:TrackPointExtension>
            <ns3:hr>134</ns3:hr>
            <ns3:cad>61</ns3:cad>
          </ns3:TrackPointExtension>
        </extensions>
      </trkpt>
      <trkpt lat="52.18654361553490161895751953125" lon="1.55761082656681537628173828125">
        <ele>-123.40000152587890625</ele>
        <time>2025-09-06T12:38:24.000Z</time>
        <extensions>
          <ns3:TrackPointExtension>
            <ns3:hr>135</ns3:hr>
            <ns3:cad>61</ns3:cad>
          </ns3:TrackPointExtension>
        </extensions>
      </trkpt>
      <trkpt lat="52.186516039073467254638671875" lon="1.557615436613559722900390625">
        <ele>-123</ele>
        <time>2025-09-06T12:38:26.000Z</time>
        <extensions>
          <ns3:TrackPointExtension>
            <ns3:hr>140</ns3:hr>
            <ns3:cad>61</ns3:cad>
          </ns3:TrackPointExtension>
        </extensions>
      </trkpt>
      <trkpt lat="52.18650162220001220703125" lon="1.55760965310037136077880859375">
        <ele>-122.8000030517578125</ele>
        <time>2025-09-06T12:38:27.000Z</time>
        <extensions>
          <ns3:TrackPointExtension>
            <ns3:hr>140</ns3:hr>
            <ns3:cad>61</ns3:cad>
          </ns3:TrackPointExtension>
        </extensions>
      </trkpt>
      <trkpt lat="52.186485193669795989990234375" lon="1.55760697089135646820068359375">
        <ele>-122.40000152587890625</ele>
        <time>2025-09-06T12:38:28.000Z</time>
        <extensions>
          <ns3:TrackPointExtension>
            <ns3:hr>138</ns3:hr>
            <ns3:cad>61</ns3:cad>
          </ns3:TrackPointExtension>
        </extensions>
      </trkpt>
      <trkpt lat="52.18646734021604061126708984375" lon="1.5576015226542949676513671875">
        <ele>-122.1999969482421875</ele>
        <time>2025-09-06T12:38:29.000Z</time>
        <extensions>
          <ns3:TrackPointExtension>
            <ns3:hr>141</ns3:hr>
            <ns3:cad>61</ns3:cad>
          </ns3:TrackPointExtension>
        </extensions>
      </trkpt>
      <trkpt lat="52.1864491514861583709716796875" lon="1.5576016902923583984375">
        <ele>-122</ele>
        <time>2025-09-06T12:38:30.000Z</time>
        <extensions>
          <ns3:TrackPointExtension>
            <ns3:hr>145</ns3:hr>
            <ns3:cad>61</ns3:cad>
          </ns3:TrackPointExtension>
        </extensions>
      </trkpt>
      <trkpt lat="52.186431884765625" lon="1.5576045401394367218017578125">
        <ele>-121.8000030517578125</ele>
        <time>2025-09-06T12:38:31.000Z</time>
        <extensions>
          <ns3:TrackPointExtension>
            <ns3:hr>147</ns3:hr>
            <ns3:cad>0</ns3:cad>
          </ns3:TrackPointExtension>
        </extensions>
      </trkpt>
      <trkpt lat="52.1863978542387485504150390625" lon="1.55760663561522960662841796875">
        <ele>-121.40000152587890625</ele>
        <time>2025-09-06T12:38:33.000Z</time>
        <extensions>
          <ns3:TrackPointExtension>
            <ns3:hr>148</ns3:hr>
            <ns3:cad>0</ns3:cad>
          </ns3:TrackPointExtension>
        </extensions>
      </trkpt>
      <trkpt lat="52.18630439601838588714599609375" lon="1.55760881491005420684814453125">
        <ele>-120.1999969482421875</ele>
        <time>2025-09-06T12:38:39.000Z</time>
        <extensions>
          <ns3:TrackPointExtension>
            <ns3:hr>150</ns3:hr>
            <ns3:cad>61</ns3:cad>
          </ns3:TrackPointExtension>
        </extensions>
      </trkpt>
      <trkpt lat="52.18627539463341236114501953125" lon="1.55761568807065486907958984375">
        <ele>-119.8000030517578125</ele>
        <time>2025-09-06T12:38:41.000Z</time>
        <extensions>
          <ns3:TrackPointExtension>
            <ns3:hr>150</ns3:hr>
            <ns3:cad>61</ns3:cad>
          </ns3:TrackPointExtension>
        </extensions>
      </trkpt>
      <trkpt lat="52.18621269799768924713134765625" lon="1.55762574635446071624755859375">
        <ele>-119.1999969482421875</ele>
        <time>2025-09-06T12:38:45.000Z</time>
        <extensions>
          <ns3:TrackPointExtension>
            <ns3:hr>149</ns3:hr>
            <ns3:cad>61</ns3:cad>
          </ns3:TrackPointExtension>
        </extensions>
      </trkpt>
      <trkpt lat="52.1861373446881771087646484375" lon="1.557630859315395355224609375">
        <ele>-118.1999969482421875</ele>
        <time>2025-09-06T12:38:51.000Z</time>
        <extensions>
          <ns3:TrackPointExtension>
            <ns3:hr>149</ns3:hr>
            <ns3:cad>0</ns3:cad>
          </ns3:TrackPointExtension>
        </extensions>
      </trkpt>
      <trkpt lat="52.186010442674160003662109375" lon="1.5576551668345928192138671875">
        <ele>-117</ele>
        <time>2025-09-06T12:38:58.000Z</time>
        <extensions>
          <ns3:TrackPointExtension>
            <ns3:hr>149</ns3:hr>
            <ns3:cad>60</ns3:cad>
          </ns3:TrackPointExtension>
        </extensions>
      </trkpt>
      <trkpt lat="52.18589217402040958404541015625" lon="1.5576432645320892333984375">
        <ele>-116</ele>
        <time>2025-09-06T12:39:04.000Z</time>
        <extensions>
          <ns3:TrackPointExtension>
            <ns3:hr>153</ns3:hr>
            <ns3:cad>80</ns3:cad>
          </ns3:TrackPointExtension>
        </extensions>
      </trkpt>
      <trkpt lat="52.18587457202374935150146484375" lon="1.55764603056013584136962890625">
        <ele>-116</ele>
        <time>2025-09-06T12:39:05.000Z</time>
        <extensions>
          <ns3:TrackPointExtension>
            <ns3:hr>151</ns3:hr>
            <ns3:cad>80</ns3:cad>
          </ns3:TrackPointExtension>
        </extensions>
      </trkpt>
      <trkpt lat="52.185769714415073394775390625" lon="1.5576861798763275146484375">
        <ele>-115</ele>
        <time>2025-09-06T12:39:11.000Z</time>
        <extensions>
          <ns3:TrackPointExtension>
            <ns3:hr>155</ns3:hr>
            <ns3:cad>81</ns3:cad>
          </ns3:TrackPointExtension>
        </extensions>
      </trkpt>
      <trkpt lat="52.1857511065900325775146484375" lon="1.5576942265033721923828125">
        <ele>-114.8000030517578125</ele>
        <time>2025-09-06T12:39:12.000Z</time>
        <extensions>
          <ns3:TrackPointExtension>
            <ns3:hr>157</ns3:hr>
            <ns3:cad>81</ns3:cad>
          </ns3:TrackPointExtension>
        </extensions>
      </trkpt>
      <trkpt lat="52.18573115766048431396484375" lon="1.55770294368267059326171875">
        <ele>-114.59999847412109375</ele>
        <time>2025-09-06T12:39:13.000Z</time>
        <extensions>
          <ns3:TrackPointExtension>
            <ns3:hr>160</ns3:hr>
            <ns3:cad>81</ns3:cad>
          </ns3:TrackPointExtension>
        </extensions>
      </trkpt>
      <trkpt lat="52.18569184653460979461669921875" lon="1.5577188692986965179443359375">
        <ele>-114.1999969482421875</ele>
        <time>2025-09-06T12:39:15.000Z</time>
        <extensions>
          <ns3:TrackPointExtension>
            <ns3:hr>163</ns3:hr>
            <ns3:cad>82</ns3:cad>
          </ns3:TrackPointExtension>
        </extensions>
      </trkpt>
      <trkpt lat="52.1856394596397876739501953125" lon="1.557740159332752227783203125">
        <ele>-113.59999847412109375</ele>
        <time>2025-09-06T12:39:18.000Z</time>
        <extensions>
          <ns3:TrackPointExtension>
            <ns3:hr>166</ns3:hr>
            <ns3:cad>82</ns3:cad>
          </ns3:TrackPointExtension>
        </extensions>
      </trkpt>
      <trkpt lat="52.1855918504297733306884765625" lon="1.5577612817287445068359375">
        <ele>-112.8000030517578125</ele>
        <time>2025-09-06T12:39:21.000Z</time>
        <extensions>
          <ns3:TrackPointExtension>
            <ns3:hr>169</ns3:hr>
            <ns3:cad>81</ns3:cad>
          </ns3:TrackPointExtension>
        </extensions>
      </trkpt>
      <trkpt lat="52.18555354513227939605712890625" lon="1.55776773579418659210205078125">
        <ele>-112.40000152587890625</ele>
        <time>2025-09-06T12:39:23.000Z</time>
        <extensions>
          <ns3:TrackPointExtension>
            <ns3:hr>170</ns3:hr>
            <ns3:cad>81</ns3:cad>
          </ns3:TrackPointExtension>
        </extensions>
      </trkpt>
      <trkpt lat="52.18551431782543659210205078125" lon="1.55777527950704097747802734375">
        <ele>-111.8000030517578125</ele>
        <time>2025-09-06T12:39:25.000Z</time>
        <extensions>
          <ns3:TrackPointExtension>
            <ns3:hr>171</ns3:hr>
            <ns3:cad>81</ns3:cad>
          </ns3:TrackPointExtension>
        </extensions>
      </trkpt>
      <trkpt lat="52.18546964228153228759765625" lon="1.55777896754443645477294921875">
        <ele>-111.1999969482421875</ele>
        <time>2025-09-06T12:39:27.000Z</time>
        <extensions>
          <ns3:TrackPointExtension>
            <ns3:hr>171</ns3:hr>
            <ns3:cad>81</ns3:cad>
          </ns3:TrackPointExtension>
        </extensions>
      </trkpt>
      <trkpt lat="52.18541943468153476715087890625" lon="1.55781031586229801177978515625">
        <ele>-110</ele>
        <time>2025-09-06T12:39:31.000Z</time>
        <extensions>
          <ns3:TrackPointExtension>
            <ns3:hr>172</ns3:hr>
            <ns3:cad>81</ns3:cad>
          </ns3:TrackPointExtension>
        </extensions>
      </trkpt>
      <trkpt lat="52.18538775108754634857177734375" lon="1.55783143825829029083251953125">
        <ele>-109</ele>
        <time>2025-09-06T12:39:34.000Z</time>
        <extensions>
          <ns3:TrackPointExtension>
            <ns3:hr>173</ns3:hr>
            <ns3:cad>81</ns3:cad>
          </ns3:TrackPointExtension>
        </extensions>
      </trkpt>
      <trkpt lat="52.18537383712828159332275390625" lon="1.5578469447791576385498046875">
        <ele>-108.59999847412109375</ele>
        <time>2025-09-06T12:39:35.000Z</time>
        <extensions>
          <ns3:TrackPointExtension>
            <ns3:hr>170</ns3:hr>
            <ns3:cad>81</ns3:cad>
          </ns3:TrackPointExtension>
        </extensions>
      </trkpt>
      <trkpt lat="52.18534852378070354461669921875" lon="1.55787368305027484893798828125">
        <ele>-108</ele>
        <time>2025-09-06T12:39:37.000Z</time>
        <extensions>
          <ns3:TrackPointExtension>
            <ns3:hr>171</ns3:hr>
            <ns3:cad>80</ns3:cad>
          </ns3:TrackPointExtension>
        </extensions>
      </trkpt>
      <trkpt lat="52.1852958016097545623779296875" lon="1.5579559095203876495361328125">
        <ele>-106.8000030517578125</ele>
        <time>2025-09-06T12:39:40.000Z</time>
        <extensions>
          <ns3:TrackPointExtension>
            <ns3:hr>171</ns3:hr>
            <ns3:cad>80</ns3:cad>
          </ns3:TrackPointExtension>
        </extensions>
      </trkpt>
      <trkpt lat="52.1852342784404754638671875" lon="1.558036543428897857666015625">
        <ele>-105.8000030517578125</ele>
        <time>2025-09-06T12:39:43.000Z</time>
        <extensions>
          <ns3:TrackPointExtension>
            <ns3:hr>170</ns3:hr>
            <ns3:cad>80</ns3:cad>
          </ns3:TrackPointExtension>
        </extensions>
      </trkpt>
      <trkpt lat="52.18521357513964176177978515625" lon="1.55805431306362152099609375">
        <ele>-105.40000152587890625</ele>
        <time>2025-09-06T12:39:44.000Z</time>
        <extensions>
          <ns3:TrackPointExtension>
            <ns3:hr>170</ns3:hr>
            <ns3:cad>80</ns3:cad>
          </ns3:TrackPointExtension>
        </extensions>
      </trkpt>
      <trkpt lat="52.18517853878438472747802734375" lon="1.5580911934375762939453125">
        <ele>-104.59999847412109375</ele>
        <time>2025-09-06T12:39:46.000Z</time>
        <extensions>
          <ns3:TrackPointExtension>
            <ns3:hr>170</ns3:hr>
            <ns3:cad>80</ns3:cad>
          </ns3:TrackPointExtension>
        </extensions>
      </trkpt>
      <trkpt lat="52.1851221285760402679443359375" lon="1.558170318603515625">
        <ele>-103.59999847412109375</ele>
        <time>2025-09-06T12:39:49.000Z</time>
        <extensions>
          <ns3:TrackPointExtension>
            <ns3:hr>167</ns3:hr>
            <ns3:cad>80</ns3:cad>
          </ns3:TrackPointExtension>
        </extensions>
      </trkpt>
      <trkpt lat="52.1850694902241230010986328125" lon="1.55821926891803741455078125">
        <ele>-102.40000152587890625</ele>
        <time>2025-09-06T12:39:52.000Z</time>
        <extensions>
          <ns3:TrackPointExtension>
            <ns3:hr>167</ns3:hr>
            <ns3:cad>80</ns3:cad>
          </ns3:TrackPointExtension>
        </extensions>
      </trkpt>
      <trkpt lat="52.185053564608097076416015625" lon="1.5582328476011753082275390625">
        <ele>-102</ele>
        <time>2025-09-06T12:39:53.000Z</time>
        <extensions>
          <ns3:TrackPointExtension>
            <ns3:hr>167</ns3:hr>
            <ns3:cad>80</ns3:cad>
          </ns3:TrackPointExtension>
        </extensions>
      </trkpt>
      <trkpt lat="52.1850175224244594573974609375" lon="1.558265872299671173095703125">
        <ele>-101.40000152587890625</ele>
        <time>2025-09-06T12:39:55.000Z</time>
        <extensions>
          <ns3:TrackPointExtension>
            <ns3:hr>167</ns3:hr>
            <ns3:cad>80</ns3:cad>
          </ns3:TrackPointExtension>
        </extensions>
      </trkpt>
      <trkpt lat="52.18496580608189105987548828125" lon="1.5583227016031742095947265625">
        <ele>-100.1999969482421875</ele>
        <time>2025-09-06T12:39:58.000Z</time>
        <extensions>
          <ns3:TrackPointExtension>
            <ns3:hr>168</ns3:hr>
            <ns3:cad>80</ns3:cad>
          </ns3:TrackPointExtension>
        </extensions>
      </trkpt>
      <trkpt lat="52.1848981641232967376708984375" lon="1.55836435966193675994873046875">
        <ele>-99.1999969482421875</ele>
        <time>2025-09-06T12:40:01.000Z</time>
        <extensions>
          <ns3:TrackPointExtension>
            <ns3:hr>169</ns3:hr>
            <ns3:cad>80</ns3:cad>
          </ns3:TrackPointExtension>
        </extensions>
      </trkpt>
      <trkpt lat="52.184863127768039703369140625" lon="1.55839269049465656280517578125">
        <ele>-98.40000152587890625</ele>
        <time>2025-09-06T12:40:03.000Z</time>
        <extensions>
          <ns3:TrackPointExtension>
            <ns3:hr>168</ns3:hr>
            <ns3:cad>81</ns3:cad>
          </ns3:TrackPointExtension>
        </extensions>
      </trkpt>
      <trkpt lat="52.18484460376203060150146484375" lon="1.5584061853587627410888671875">
        <ele>-98.1999969482421875</ele>
        <time>2025-09-06T12:40:04.000Z</time>
        <extensions>
          <ns3:TrackPointExtension>
            <ns3:hr>167</ns3:hr>
            <ns3:cad>81</ns3:cad>
          </ns3:TrackPointExtension>
        </extensions>
      </trkpt>
      <trkpt lat="52.18478970229625701904296875" lon="1.5584599971771240234375">
        <ele>-97.1999969482421875</ele>
        <time>2025-09-06T12:40:07.000Z</time>
        <extensions>
          <ns3:TrackPointExtension>
            <ns3:hr>167</ns3:hr>
            <ns3:cad>79</ns3:cad>
          </ns3:TrackPointExtension>
        </extensions>
      </trkpt>
      <trkpt lat="52.1847291849553585052490234375" lon="1.55851774848997592926025390625">
        <ele>-95.8000030517578125</ele>
        <time>2025-09-06T12:40:11.000Z</time>
        <extensions>
          <ns3:TrackPointExtension>
            <ns3:hr>167</ns3:hr>
            <ns3:cad>80</ns3:cad>
          </ns3:TrackPointExtension>
        </extensions>
      </trkpt>
      <trkpt lat="52.18467378057539463043212890625" lon="1.55857726000249385833740234375">
        <ele>-94.59999847412109375</ele>
        <time>2025-09-06T12:40:15.000Z</time>
        <extensions>
          <ns3:TrackPointExtension>
            <ns3:hr>168</ns3:hr>
            <ns3:cad>80</ns3:cad>
          </ns3:TrackPointExtension>
        </extensions>
      </trkpt>
      <trkpt lat="52.18459599651396274566650390625" lon="1.55859285034239292144775390625">
        <ele>-93.40000152587890625</ele>
        <time>2025-09-06T12:40:19.000Z</time>
        <extensions>
          <ns3:TrackPointExtension>
            <ns3:hr>166</ns3:hr>
            <ns3:cad>80</ns3:cad>
          </ns3:TrackPointExtension>
        </extensions>
      </trkpt>
      <trkpt lat="52.18457202427089214324951171875" lon="1.55858748592436313629150390625">
        <ele>-93</ele>
        <time>2025-09-06T12:40:20.000Z</time>
        <extensions>
          <ns3:TrackPointExtension>
            <ns3:hr>167</ns3:hr>
            <ns3:cad>80</ns3:cad>
          </ns3:TrackPointExtension>
        </extensions>
      </trkpt>
      <trkpt lat="52.184508405625820159912109375" lon="1.5586086921393871307373046875">
        <ele>-92.1999969482421875</ele>
        <time>2025-09-06T12:40:23.000Z</time>
        <extensions>
          <ns3:TrackPointExtension>
            <ns3:hr>167</ns3:hr>
            <ns3:cad>80</ns3:cad>
          </ns3:TrackPointExtension>
        </extensions>
      </trkpt>
      <trkpt lat="52.18443104065954685211181640625" lon="1.558662168681621551513671875">
        <ele>-91</ele>
        <time>2025-09-06T12:40:27.000Z</time>
        <extensions>
          <ns3:TrackPointExtension>
            <ns3:hr>167</ns3:hr>
            <ns3:cad>80</ns3:cad>
          </ns3:TrackPointExtension>
        </extensions>
      </trkpt>
      <trkpt lat="52.18441410921514034271240234375" lon="1.5586734004318714141845703125">
        <ele>-90.8000030517578125</ele>
        <time>2025-09-06T12:40:28.000Z</time>
        <extensions>
          <ns3:TrackPointExtension>
            <ns3:hr>167</ns3:hr>
            <ns3:cad>80</ns3:cad>
          </ns3:TrackPointExtension>
        </extensions>
      </trkpt>
      <trkpt lat="52.18435627408325672149658203125" lon="1.55869963578879833221435546875">
        <ele>-89.8000030517578125</ele>
        <time>2025-09-06T12:40:31.000Z</time>
        <extensions>
          <ns3:TrackPointExtension>
            <ns3:hr>170</ns3:hr>
            <ns3:cad>81</ns3:cad>
          </ns3:TrackPointExtension>
        </extensions>
      </trkpt>
      <trkpt lat="52.18428670428693294525146484375" lon="1.55872285366058349609375">
        <ele>-88.59999847412109375</ele>
        <time>2025-09-06T12:40:35.000Z</time>
        <extensions>
          <ns3:TrackPointExtension>
            <ns3:hr>166</ns3:hr>
            <ns3:cad>80</ns3:cad>
          </ns3:TrackPointExtension>
        </extensions>
      </trkpt>
      <trkpt lat="52.18427128158509731292724609375" lon="1.5587260387837886810302734375">
        <ele>-88.1999969482421875</ele>
        <time>2025-09-06T12:40:36.000Z</time>
        <extensions>
          <ns3:TrackPointExtension>
            <ns3:hr>167</ns3:hr>
            <ns3:cad>80</ns3:cad>
          </ns3:TrackPointExtension>
        </extensions>
      </trkpt>
      <trkpt lat="52.1842088364064693450927734375" lon="1.5587585605680942535400390625">
        <ele>-87.40000152587890625</ele>
        <time>2025-09-06T12:40:39.000Z</time>
        <extensions>
          <ns3:TrackPointExtension>
            <ns3:hr>168</ns3:hr>
            <ns3:cad>79</ns3:cad>
          </ns3:TrackPointExtension>
        </extensions>
      </trkpt>
      <trkpt lat="52.18413800932466983795166015625" lon="1.5587724745273590087890625">
        <ele>-86.1999969482421875</ele>
        <time>2025-09-06T12:40:43.000Z</time>
        <extensions>
          <ns3:TrackPointExtension>
            <ns3:hr>167</ns3:hr>
            <ns3:cad>79</ns3:cad>
          </ns3:TrackPointExtension>
        </extensions>
      </trkpt>
      <trkpt lat="52.18410112895071506500244140625" lon="1.55877926386892795562744140625">
        <ele>-85.59999847412109375</ele>
        <time>2025-09-06T12:40:45.000Z</time>
        <extensions>
          <ns3:TrackPointExtension>
            <ns3:hr>167</ns3:hr>
            <ns3:cad>79</ns3:cad>
          </ns3:TrackPointExtension>
        </extensions>
      </trkpt>
      <trkpt lat="52.184061817824840545654296875" lon="1.558798961341381072998046875">
        <ele>-84.8000030517578125</ele>
        <time>2025-09-06T12:40:47.000Z</time>
        <extensions>
          <ns3:TrackPointExtension>
            <ns3:hr>166</ns3:hr>
            <ns3:cad>79</ns3:cad>
          </ns3:TrackPointExtension>
        </extensions>
      </trkpt>
      <trkpt lat="52.183973975479602813720703125" lon="1.55884422361850738525390625">
        <ele>-83.59999847412109375</ele>
        <time>2025-09-06T12:40:51.000Z</time>
        <extensions>
          <ns3:TrackPointExtension>
            <ns3:hr>167</ns3:hr>
            <ns3:cad>79</ns3:cad>
          </ns3:TrackPointExtension>
        </extensions>
      </trkpt>
      <trkpt lat="52.18389007262885570526123046875" lon="1.558878757059574127197265625">
        <ele>-82.40000152587890625</ele>
        <time>2025-09-06T12:40:55.000Z</time>
        <extensions>
          <ns3:TrackPointExtension>
            <ns3:hr>167</ns3:hr>
            <ns3:cad>80</ns3:cad>
          </ns3:TrackPointExtension>
        </extensions>
      </trkpt>
      <trkpt lat="52.1838658489286899566650390625" lon="1.5588849596679210662841796875">
        <ele>-82.1999969482421875</ele>
        <time>2025-09-06T12:40:56.000Z</time>
        <extensions>
          <ns3:TrackPointExtension>
            <ns3:hr>167</ns3:hr>
            <ns3:cad>80</ns3:cad>
          </ns3:TrackPointExtension>
        </extensions>
      </trkpt>
      <trkpt lat="52.18379183672368526458740234375" lon="1.558914296329021453857421875">
        <ele>-81.1999969482421875</ele>
        <time>2025-09-06T12:40:59.000Z</time>
        <extensions>
          <ns3:TrackPointExtension>
            <ns3:hr>167</ns3:hr>
            <ns3:cad>80</ns3:cad>
          </ns3:TrackPointExtension>
        </extensions>
      </trkpt>
      <trkpt lat="52.18370315618813037872314453125" lon="1.558946482837200164794921875">
        <ele>-80</ele>
        <time>2025-09-06T12:41:03.000Z</time>
        <extensions>
          <ns3:TrackPointExtension>
            <ns3:hr>167</ns3:hr>
            <ns3:cad>80</ns3:cad>
          </ns3:TrackPointExtension>
        </extensions>
      </trkpt>
      <trkpt lat="52.18368329107761383056640625" lon="1.558951847255229949951171875">
        <ele>-79.8000030517578125</ele>
        <time>2025-09-06T12:41:04.000Z</time>
        <extensions>
          <ns3:TrackPointExtension>
            <ns3:hr>168</ns3:hr>
            <ns3:cad>81</ns3:cad>
          </ns3:TrackPointExtension>
        </extensions>
      </trkpt>
      <trkpt lat="52.1836210973560810089111328125" lon="1.55899082310497760772705078125">
        <ele>-79</ele>
        <time>2025-09-06T12:41:07.000Z</time>
        <extensions>
          <ns3:TrackPointExtension>
            <ns3:hr>168</ns3:hr>
            <ns3:cad>81</ns3:cad>
          </ns3:TrackPointExtension>
        </extensions>
      </trkpt>
      <trkpt lat="52.18357290141284465789794921875" lon="1.55903197824954986572265625">
        <ele>-77.8000030517578125</ele>
        <time>2025-09-06T12:41:11.000Z</time>
        <extensions>
          <ns3:TrackPointExtension>
            <ns3:hr>169</ns3:hr>
            <ns3:cad>63</ns3:cad>
          </ns3:TrackPointExtension>
        </extensions>
      </trkpt>
      <trkpt lat="52.18353903852403163909912109375" lon="1.55901026912033557891845703125">
        <ele>-77.59999847412109375</ele>
        <time>2025-09-06T12:41:12.000Z</time>
        <extensions>
          <ns3:TrackPointExtension>
            <ns3:hr>168</ns3:hr>
            <ns3:cad>62</ns3:cad>
          </ns3:TrackPointExtension>
        </extensions>
      </trkpt>
      <trkpt lat="52.1834900043904781341552734375" lon="1.5590093471109867095947265625">
        <ele>-76.8000030517578125</ele>
        <time>2025-09-06T12:41:15.000Z</time>
        <extensions>
          <ns3:TrackPointExtension>
            <ns3:hr>171</ns3:hr>
            <ns3:cad>59</ns3:cad>
          </ns3:TrackPointExtension>
        </extensions>
      </trkpt>
      <trkpt lat="52.18348086811602115631103515625" lon="1.5590207464993000030517578125">
        <ele>-76.59999847412109375</ele>
        <time>2025-09-06T12:41:16.000Z</time>
        <extensions>
          <ns3:TrackPointExtension>
            <ns3:hr>170</ns3:hr>
            <ns3:cad>59</ns3:cad>
          </ns3:TrackPointExtension>
        </extensions>
      </trkpt>
      <trkpt lat="52.183451950550079345703125" lon="1.55909643508493900299072265625">
        <ele>-76.1999969482421875</ele>
        <time>2025-09-06T12:41:19.000Z</time>
        <extensions>
          <ns3:TrackPointExtension>
            <ns3:hr>170</ns3:hr>
            <ns3:cad>58</ns3:cad>
          </ns3:TrackPointExtension>
        </extensions>
      </trkpt>
      <trkpt lat="52.1834232844412326812744140625" lon="1.5591846965253353118896484375">
        <ele>-75.59999847412109375</ele>
        <time>2025-09-06T12:41:22.000Z</time>
        <extensions>
          <ns3:TrackPointExtension>
            <ns3:hr>168</ns3:hr>
            <ns3:cad>57</ns3:cad>
          </ns3:TrackPointExtension>
        </extensions>
      </trkpt>
      <trkpt lat="52.18339252285659313201904296875" lon="1.5592869557440280914306640625">
        <ele>-75.1999969482421875</ele>
        <time>2025-09-06T12:41:25.000Z</time>
        <extensions>
          <ns3:TrackPointExtension>
            <ns3:hr>165</ns3:hr>
            <ns3:cad>56</ns3:cad>
          </ns3:TrackPointExtension>
        </extensions>
      </trkpt>
      <trkpt lat="52.18338900245726108551025390625" lon="1.55934018082916736602783203125">
        <ele>-75</ele>
        <time>2025-09-06T12:41:27.000Z</time>
        <extensions>
          <ns3:TrackPointExtension>
            <ns3:hr>160</ns3:hr>
            <ns3:cad>57</ns3:cad>
          </ns3:TrackPointExtension>
        </extensions>
      </trkpt>
      <trkpt lat="52.1833996474742889404296875" lon="1.55946741811931133270263671875">
        <ele>-74.59999847412109375</ele>
        <time>2025-09-06T12:41:32.000Z</time>
        <extensions>
          <ns3:TrackPointExtension>
            <ns3:hr>160</ns3:hr>
            <ns3:cad>58</ns3:cad>
          </ns3:TrackPointExtension>
        </extensions>
      </trkpt>
      <trkpt lat="52.1834051795303821563720703125" lon="1.55955526046454906463623046875">
        <ele>-74.40000152587890625</ele>
        <time>2025-09-06T12:41:36.000Z</time>
        <extensions>
          <ns3:TrackPointExtension>
            <ns3:hr>159</ns3:hr>
            <ns3:cad>60</ns3:cad>
          </ns3:TrackPointExtension>
        </extensions>
      </trkpt>
      <trkpt lat="52.183396629989147186279296875" lon="1.55970613472163677215576171875">
        <ele>-73.8000030517578125</ele>
        <time>2025-09-06T12:41:42.000Z</time>
        <extensions>
          <ns3:TrackPointExtension>
            <ns3:hr>162</ns3:hr>
            <ns3:cad>60</ns3:cad>
          </ns3:TrackPointExtension>
        </extensions>
      </trkpt>
      <trkpt lat="52.18339637853205204010009765625" lon="1.5597841702401638031005859375">
        <ele>-73.8000030517578125</ele>
        <time>2025-09-06T12:41:45.000Z</time>
        <extensions>
          <ns3:TrackPointExtension>
            <ns3:hr>160</ns3:hr>
            <ns3:cad>60</ns3:cad>
          </ns3:TrackPointExtension>
        </extensions>
      </trkpt>
      <trkpt lat="52.18339101411402225494384765625" lon="1.55983873642981052398681640625">
        <ele>-73.59999847412109375</ele>
        <time>2025-09-06T12:41:47.000Z</time>
        <extensions>
          <ns3:TrackPointExtension>
            <ns3:hr>158</ns3:hr>
            <ns3:cad>60</ns3:cad>
          </ns3:TrackPointExtension>
        </extensions>
      </trkpt>
      <trkpt lat="52.18338447622954845428466796875" lon="1.55996630899608135223388671875">
        <ele>-73.1999969482421875</ele>
        <time>2025-09-06T12:41:52.000Z</time>
        <extensions>
          <ns3:TrackPointExtension>
            <ns3:hr>155</ns3:hr>
            <ns3:cad>59</ns3:cad>
          </ns3:TrackPointExtension>
        </extensions>
      </trkpt>
      <trkpt lat="52.18340392224490642547607421875" lon="1.560013331472873687744140625">
        <ele>-73.1999969482421875</ele>
        <time>2025-09-06T12:41:54.000Z</time>
        <extensions>
          <ns3:TrackPointExtension>
            <ns3:hr>155</ns3:hr>
            <ns3:cad>59</ns3:cad>
          </ns3:TrackPointExtension>
        </extensions>
      </trkpt>
      <trkpt lat="52.18340341933071613311767578125" lon="1.560207121074199676513671875">
        <ele>-73.1999969482421875</ele>
        <time>2025-09-06T12:42:00.000Z</time>
        <extensions>
          <ns3:TrackPointExtension>
            <ns3:hr>155</ns3:hr>
            <ns3:cad>78</ns3:cad>
          </ns3:TrackPointExtension>
        </extensions>
      </trkpt>
      <trkpt lat="52.183387577533721923828125" lon="1.5605130605399608612060546875">
        <ele>-73</ele>
        <time>2025-09-06T12:42:08.000Z</time>
        <extensions>
          <ns3:TrackPointExtension>
            <ns3:hr>161</ns3:hr>
            <ns3:cad>81</ns3:cad>
          </ns3:TrackPointExtension>
        </extensions>
      </trkpt>
      <trkpt lat="52.1833636052906513214111328125" lon="1.56075420789420604705810546875">
        <ele>-72.8000030517578125</ele>
        <time>2025-09-06T12:42:16.000Z</time>
        <extensions>
          <ns3:TrackPointExtension>
            <ns3:hr>161</ns3:hr>
            <ns3:cad>80</ns3:cad>
          </ns3:TrackPointExtension>
        </extensions>
      </trkpt>
      <trkpt lat="52.183351032435894012451171875" lon="1.56084607355296611785888671875">
        <ele>-72.8000030517578125</ele>
        <time>2025-09-06T12:42:19.000Z</time>
        <extensions>
          <ns3:TrackPointExtension>
            <ns3:hr>164</ns3:hr>
            <ns3:cad>80</ns3:cad>
          </ns3:TrackPointExtension>
        </extensions>
      </trkpt>
      <trkpt lat="52.183330245316028594970703125" lon="1.56101706437766551971435546875">
        <ele>-72.59999847412109375</ele>
        <time>2025-09-06T12:42:24.000Z</time>
        <extensions>
          <ns3:TrackPointExtension>
            <ns3:hr>164</ns3:hr>
            <ns3:cad>81</ns3:cad>
          </ns3:TrackPointExtension>
        </extensions>
      </trkpt>
      <trkpt lat="52.183326222002506256103515625" lon="1.56119107268750667572021484375">
        <ele>-72.40000152587890625</ele>
        <time>2025-09-06T12:42:29.000Z</time>
        <extensions>
          <ns3:TrackPointExtension>
            <ns3:hr>167</ns3:hr>
            <ns3:cad>81</ns3:cad>
          </ns3:TrackPointExtension>
        </extensions>
      </trkpt>
      <trkpt lat="52.18331792391836643218994140625" lon="1.56133021228015422821044921875">
        <ele>-72</ele>
        <time>2025-09-06T12:42:33.000Z</time>
        <extensions>
          <ns3:TrackPointExtension>
            <ns3:hr>164</ns3:hr>
            <ns3:cad>79</ns3:cad>
          </ns3:TrackPointExtension>
        </extensions>
      </trkpt>
      <trkpt lat="52.1833106316626071929931640625" lon="1.5615753829479217529296875">
        <ele>-71.59999847412109375</ele>
        <time>2025-09-06T12:42:40.000Z</time>
        <extensions>
          <ns3:TrackPointExtension>
            <ns3:hr>162</ns3:hr>
            <ns3:cad>79</ns3:cad>
          </ns3:TrackPointExtension>
        </extensions>
      </trkpt>
      <trkpt lat="52.18337777070701122283935546875" lon="1.56176070682704448699951171875">
        <ele>-71.1999969482421875</ele>
        <time>2025-09-06T12:42:45.000Z</time>
        <extensions>
          <ns3:TrackPointExtension>
            <ns3:hr>165</ns3:hr>
            <ns3:cad>80</ns3:cad>
          </ns3:TrackPointExtension>
        </extensions>
      </trkpt>
      <trkpt lat="52.1833914332091808319091796875" lon="1.5618323720991611480712890625">
        <ele>-71</ele>
        <time>2025-09-06T12:42:47.000Z</time>
        <extensions>
          <ns3:TrackPointExtension>
            <ns3:hr>166</ns3:hr>
            <ns3:cad>80</ns3:cad>
          </ns3:TrackPointExtension>
        </extensions>
      </trkpt>
      <trkpt lat="52.1833914332091808319091796875" lon="1.56208567321300506591796875">
        <ele>-70.40000152587890625</ele>
        <time>2025-09-06T12:42:54.000Z</time>
        <extensions>
          <ns3:TrackPointExtension>
            <ns3:hr>165</ns3:hr>
            <ns3:cad>80</ns3:cad>
          </ns3:TrackPointExtension>
        </extensions>
      </trkpt>
      <trkpt lat="52.1833907626569271087646484375" lon="1.562337465584278106689453125">
        <ele>-69.8000030517578125</ele>
        <time>2025-09-06T12:43:02.000Z</time>
        <extensions>
          <ns3:TrackPointExtension>
            <ns3:hr>164</ns3:hr>
            <ns3:cad>80</ns3:cad>
          </ns3:TrackPointExtension>
        </extensions>
      </trkpt>
      <trkpt lat="52.183395959436893463134765625" lon="1.56255631707608699798583984375">
        <ele>-69.40000152587890625</ele>
        <time>2025-09-06T12:43:08.000Z</time>
        <extensions>
          <ns3:TrackPointExtension>
            <ns3:hr>165</ns3:hr>
            <ns3:cad>79</ns3:cad>
          </ns3:TrackPointExtension>
        </extensions>
      </trkpt>
      <trkpt lat="52.18339403159916400909423828125" lon="1.5625870786607265472412109375">
        <ele>-69.40000152587890625</ele>
        <time>2025-09-06T12:43:09.000Z</time>
        <extensions>
          <ns3:TrackPointExtension>
            <ns3:hr>166</ns3:hr>
            <ns3:cad>79</ns3:cad>
          </ns3:TrackPointExtension>
        </extensions>
      </trkpt>
      <trkpt lat="52.183430157601833343505859375" lon="1.5627815388143062591552734375">
        <ele>-68.8000030517578125</ele>
        <time>2025-09-06T12:43:15.000Z</time>
        <extensions>
          <ns3:TrackPointExtension>
            <ns3:hr>165</ns3:hr>
            <ns3:cad>80</ns3:cad>
          </ns3:TrackPointExtension>
        </extensions>
      </trkpt>
      <trkpt lat="52.18344457447528839111328125" lon="1.56301832757890224456787109375">
        <ele>-68.40000152587890625</ele>
        <time>2025-09-06T12:43:22.000Z</time>
        <extensions>
          <ns3:TrackPointExtension>
            <ns3:hr>166</ns3:hr>
            <ns3:cad>79</ns3:cad>
          </ns3:TrackPointExtension>
        </extensions>
      </trkpt>
      <trkpt lat="52.18344197608530521392822265625" lon="1.56305168755352497100830078125">
        <ele>-68.40000152587890625</ele>
        <time>2025-09-06T12:43:23.000Z</time>
        <extensions>
          <ns3:TrackPointExtension>
            <ns3:hr>163</ns3:hr>
            <ns3:cad>79</ns3:cad>
          </ns3:TrackPointExtension>
        </extensions>
      </trkpt>
      <trkpt lat="52.18343996442854404449462890625" lon="1.5632743947207927703857421875">
        <ele>-68</ele>
        <time>2025-09-06T12:43:29.000Z</time>
        <extensions>
          <ns3:TrackPointExtension>
            <ns3:hr>160</ns3:hr>
            <ns3:cad>80</ns3:cad>
          </ns3:TrackPointExtension>
        </extensions>
      </trkpt>
      <trkpt lat="52.1834371984004974365234375" lon="1.5633803419768810272216796875">
        <ele>-68</ele>
        <time>2025-09-06T12:43:32.000Z</time>
        <extensions>
          <ns3:TrackPointExtension>
            <ns3:hr>162</ns3:hr>
            <ns3:cad>80</ns3:cad>
          </ns3:TrackPointExtension>
        </extensions>
      </trkpt>
      <trkpt lat="52.18344063498079776763916015625" lon="1.5636854432523250579833984375">
        <ele>-68</ele>
        <time>2025-09-06T12:43:41.000Z</time>
        <extensions>
          <ns3:TrackPointExtension>
            <ns3:hr>162</ns3:hr>
            <ns3:cad>80</ns3:cad>
          </ns3:TrackPointExtension>
        </extensions>
      </trkpt>
      <trkpt lat="52.18343912623822689056396484375" lon="1.5639372356235980987548828125">
        <ele>-68</ele>
        <time>2025-09-06T12:43:49.000Z</time>
        <extensions>
          <ns3:TrackPointExtension>
            <ns3:hr>163</ns3:hr>
            <ns3:cad>80</ns3:cad>
          </ns3:TrackPointExtension>
        </extensions>
      </trkpt>
      <trkpt lat="52.18344189226627349853515625" lon="1.5641699172556400299072265625">
        <ele>-68</ele>
        <time>2025-09-06T12:43:56.000Z</time>
        <extensions>
          <ns3:TrackPointExtension>
            <ns3:hr>162</ns3:hr>
            <ns3:cad>80</ns3:cad>
          </ns3:TrackPointExtension>
        </extensions>
      </trkpt>
      <trkpt lat="52.1834403835237026214599609375" lon="1.5642656385898590087890625">
        <ele>-68</ele>
        <time>2025-09-06T12:43:59.000Z</time>
        <extensions>
          <ns3:TrackPointExtension>
            <ns3:hr>165</ns3:hr>
            <ns3:cad>80</ns3:cad>
          </ns3:TrackPointExtension>
        </extensions>
      </trkpt>
      <trkpt lat="52.18337508849799633026123046875" lon="1.56437896192073822021484375">
        <ele>-67.8000030517578125</ele>
        <time>2025-09-06T12:44:03.000Z</time>
        <extensions>
          <ns3:TrackPointExtension>
            <ns3:hr>164</ns3:hr>
            <ns3:cad>79</ns3:cad>
          </ns3:TrackPointExtension>
        </extensions>
      </trkpt>
      <trkpt lat="52.18333150260150432586669921875" lon="1.56464290805160999298095703125">
        <ele>-67.8000030517578125</ele>
        <time>2025-09-06T12:44:11.000Z</time>
        <extensions>
          <ns3:TrackPointExtension>
            <ns3:hr>165</ns3:hr>
            <ns3:cad>79</ns3:cad>
          </ns3:TrackPointExtension>
        </extensions>
      </trkpt>
      <trkpt lat="52.18335480429232120513916015625" lon="1.564910709857940673828125">
        <ele>-67.59999847412109375</ele>
        <time>2025-09-06T12:44:19.000Z</time>
        <extensions>
          <ns3:TrackPointExtension>
            <ns3:hr>166</ns3:hr>
            <ns3:cad>79</ns3:cad>
          </ns3:TrackPointExtension>
        </extensions>
      </trkpt>
      <trkpt lat="52.183325551450252532958984375" lon="1.56516644172370433807373046875">
        <ele>-67.59999847412109375</ele>
        <time>2025-09-06T12:44:27.000Z</time>
        <extensions>
          <ns3:TrackPointExtension>
            <ns3:hr>164</ns3:hr>
            <ns3:cad>80</ns3:cad>
          </ns3:TrackPointExtension>
        </extensions>
      </trkpt>
      <trkpt lat="52.183295376598834991455078125" lon="1.565393842756748199462890625">
        <ele>-67.40000152587890625</ele>
        <time>2025-09-06T12:44:35.000Z</time>
        <extensions>
          <ns3:TrackPointExtension>
            <ns3:hr>167</ns3:hr>
            <ns3:cad>81</ns3:cad>
          </ns3:TrackPointExtension>
        </extensions>
      </trkpt>
      <trkpt lat="52.18327718786895275115966796875" lon="1.56558050774037837982177734375">
        <ele>-67.40000152587890625</ele>
        <time>2025-09-06T12:44:42.000Z</time>
        <extensions>
          <ns3:TrackPointExtension>
            <ns3:hr>164</ns3:hr>
            <ns3:cad>80</ns3:cad>
          </ns3:TrackPointExtension>
        </extensions>
      </trkpt>
      <trkpt lat="52.1832774393260478973388671875" lon="1.5656147897243499755859375">
        <ele>-67.40000152587890625</ele>
        <time>2025-09-06T12:44:43.000Z</time>
        <extensions>
          <ns3:TrackPointExtension>
            <ns3:hr>165</ns3:hr>
            <ns3:cad>81</ns3:cad>
          </ns3:TrackPointExtension>
        </extensions>
      </trkpt>
      <trkpt lat="52.183277271687984466552734375" lon="1.5656508319079875946044921875">
        <ele>-67.40000152587890625</ele>
        <time>2025-09-06T12:44:44.000Z</time>
        <extensions>
          <ns3:TrackPointExtension>
            <ns3:hr>166</ns3:hr>
            <ns3:cad>81</ns3:cad>
          </ns3:TrackPointExtension>
        </extensions>
      </trkpt>
      <trkpt lat="52.18324265442788600921630859375" lon="1.56592902727425098419189453125">
        <ele>-67.1999969482421875</ele>
        <time>2025-09-06T12:44:52.000Z</time>
        <extensions>
          <ns3:TrackPointExtension>
            <ns3:hr>167</ns3:hr>
            <ns3:cad>81</ns3:cad>
          </ns3:TrackPointExtension>
        </extensions>
      </trkpt>
      <trkpt lat="52.18321256339550018310546875" lon="1.56616933643817901611328125">
        <ele>-66.8000030517578125</ele>
        <time>2025-09-06T12:45:00.000Z</time>
        <extensions>
          <ns3:TrackPointExtension>
            <ns3:hr>166</ns3:hr>
            <ns3:cad>80</ns3:cad>
          </ns3:TrackPointExtension>
        </extensions>
      </trkpt>
      <trkpt lat="52.183164618909358978271484375" lon="1.566410064697265625">
        <ele>-66.40000152587890625</ele>
        <time>2025-09-06T12:45:07.000Z</time>
        <extensions>
          <ns3:TrackPointExtension>
            <ns3:hr>166</ns3:hr>
            <ns3:cad>79</ns3:cad>
          </ns3:TrackPointExtension>
        </extensions>
      </trkpt>
      <trkpt lat="52.183146178722381591796875" lon="1.56643378548324108123779296875">
        <ele>-66.1999969482421875</ele>
        <time>2025-09-06T12:45:08.000Z</time>
        <extensions>
          <ns3:TrackPointExtension>
            <ns3:hr>165</ns3:hr>
            <ns3:cad>79</ns3:cad>
          </ns3:TrackPointExtension>
        </extensions>
      </trkpt>
      <trkpt lat="52.18310116790235042572021484375" lon="1.56664936803281307220458984375">
        <ele>-65.8000030517578125</ele>
        <time>2025-09-06T12:45:15.000Z</time>
        <extensions>
          <ns3:TrackPointExtension>
            <ns3:hr>164</ns3:hr>
            <ns3:cad>79</ns3:cad>
          </ns3:TrackPointExtension>
        </extensions>
      </trkpt>
      <trkpt lat="52.18305565416812896728515625" lon="1.56684634275734424591064453125">
        <ele>-65.1999969482421875</ele>
        <time>2025-09-06T12:45:21.000Z</time>
        <extensions>
          <ns3:TrackPointExtension>
            <ns3:hr>166</ns3:hr>
            <ns3:cad>79</ns3:cad>
          </ns3:TrackPointExtension>
        </extensions>
      </trkpt>
      <trkpt lat="52.18303897418081760406494140625" lon="1.56690518371760845184326171875">
        <ele>-65</ele>
        <time>2025-09-06T12:45:23.000Z</time>
        <extensions>
          <ns3:TrackPointExtension>
            <ns3:hr>168</ns3:hr>
            <ns3:cad>79</ns3:cad>
          </ns3:TrackPointExtension>
        </extensions>
      </trkpt>
      <trkpt lat="52.1829450130462646484375" lon="1.56713015399873256683349609375">
        <ele>-64.1999969482421875</ele>
        <time>2025-09-06T12:45:30.000Z</time>
        <extensions>
          <ns3:TrackPointExtension>
            <ns3:hr>167</ns3:hr>
            <ns3:cad>79</ns3:cad>
          </ns3:TrackPointExtension>
        </extensions>
      </trkpt>
      <trkpt lat="52.1829284168779850006103515625" lon="1.56716099940240383148193359375">
        <ele>-64</ele>
        <time>2025-09-06T12:45:31.000Z</time>
        <extensions>
          <ns3:TrackPointExtension>
            <ns3:hr>168</ns3:hr>
            <ns3:cad>79</ns3:cad>
          </ns3:TrackPointExtension>
        </extensions>
      </trkpt>
      <trkpt lat="52.18283009715378284454345703125" lon="1.5673630870878696441650390625">
        <ele>-63.200000762939453125</ele>
        <time>2025-09-06T12:45:38.000Z</time>
        <extensions>
          <ns3:TrackPointExtension>
            <ns3:hr>167</ns3:hr>
            <ns3:cad>79</ns3:cad>
          </ns3:TrackPointExtension>
        </extensions>
      </trkpt>
      <trkpt lat="52.182801850140094757080078125" lon="1.56740843318402767181396484375">
        <ele>-63</ele>
        <time>2025-09-06T12:45:40.000Z</time>
        <extensions>
          <ns3:TrackPointExtension>
            <ns3:hr>167</ns3:hr>
            <ns3:cad>80</ns3:cad>
          </ns3:TrackPointExtension>
        </extensions>
      </trkpt>
      <trkpt lat="52.1826781332492828369140625" lon="1.567491330206394195556640625">
        <ele>-62</ele>
        <time>2025-09-06T12:45:47.000Z</time>
        <extensions>
          <ns3:TrackPointExtension>
            <ns3:hr>167</ns3:hr>
            <ns3:cad>79</ns3:cad>
          </ns3:TrackPointExtension>
        </extensions>
      </trkpt>
      <trkpt lat="52.1826608665287494659423828125" lon="1.5675032325088977813720703125">
        <ele>-62</ele>
        <time>2025-09-06T12:45:48.000Z</time>
        <extensions>
          <ns3:TrackPointExtension>
            <ns3:hr>168</ns3:hr>
            <ns3:cad>79</ns3:cad>
          </ns3:TrackPointExtension>
        </extensions>
      </trkpt>
      <trkpt lat="52.1824761293828487396240234375" lon="1.56760029494762420654296875">
        <ele>-61.200000762939453125</ele>
        <time>2025-09-06T12:45:58.000Z</time>
        <extensions>
          <ns3:TrackPointExtension>
            <ns3:hr>165</ns3:hr>
            <ns3:cad>80</ns3:cad>
          </ns3:TrackPointExtension>
        </extensions>
      </trkpt>
      <trkpt lat="52.1824581921100616455078125" lon="1.567610688507556915283203125">
        <ele>-61</ele>
        <time>2025-09-06T12:45:59.000Z</time>
        <extensions>
          <ns3:TrackPointExtension>
            <ns3:hr>168</ns3:hr>
            <ns3:cad>80</ns3:cad>
          </ns3:TrackPointExtension>
        </extensions>
      </trkpt>
      <trkpt lat="52.18243874609470367431640625" lon="1.56761295162141323089599609375">
        <ele>-61</ele>
        <time>2025-09-06T12:46:00.000Z</time>
        <extensions>
          <ns3:TrackPointExtension>
            <ns3:hr>169</ns3:hr>
            <ns3:cad>80</ns3:cad>
          </ns3:TrackPointExtension>
        </extensions>
      </trkpt>
      <trkpt lat="52.182347215712070465087890625" lon="1.56763390637934207916259765625">
        <ele>-60.799999237060546875</ele>
        <time>2025-09-06T12:46:05.000Z</time>
        <extensions>
          <ns3:TrackPointExtension>
            <ns3:hr>167</ns3:hr>
            <ns3:cad>80</ns3:cad>
          </ns3:TrackPointExtension>
        </extensions>
      </trkpt>
      <trkpt lat="52.18220346607267856597900390625" lon="1.5677020512521266937255859375">
        <ele>-60.40000152587890625</ele>
        <time>2025-09-06T12:46:13.000Z</time>
        <extensions>
          <ns3:TrackPointExtension>
            <ns3:hr>169</ns3:hr>
            <ns3:cad>81</ns3:cad>
          </ns3:TrackPointExtension>
        </extensions>
      </trkpt>
      <trkpt lat="52.18213699758052825927734375" lon="1.5678033046424388885498046875">
        <ele>-60</ele>
        <time>2025-09-06T12:46:16.000Z</time>
        <extensions>
          <ns3:TrackPointExtension>
            <ns3:hr>169</ns3:hr>
            <ns3:cad>81</ns3:cad>
          </ns3:TrackPointExtension>
        </extensions>
      </trkpt>
      <trkpt lat="52.18207530677318572998046875" lon="1.567890308797359466552734375">
        <ele>-59.200000762939453125</ele>
        <time>2025-09-06T12:46:20.000Z</time>
        <extensions>
          <ns3:TrackPointExtension>
            <ns3:hr>166</ns3:hr>
            <ns3:cad>60</ns3:cad>
          </ns3:TrackPointExtension>
        </extensions>
      </trkpt>
      <trkpt lat="52.1820456348359584808349609375" lon="1.5679266862571239471435546875">
        <ele>-58.799999237060546875</ele>
        <time>2025-09-06T12:46:22.000Z</time>
        <extensions>
          <ns3:TrackPointExtension>
            <ns3:hr>166</ns3:hr>
            <ns3:cad>60</ns3:cad>
          </ns3:TrackPointExtension>
        </extensions>
      </trkpt>
      <trkpt lat="52.18203331343829631805419921875" lon="1.56794286333024501800537109375">
        <ele>-58.59999847412109375</ele>
        <time>2025-09-06T12:46:23.000Z</time>
        <extensions>
          <ns3:TrackPointExtension>
            <ns3:hr>163</ns3:hr>
            <ns3:cad>60</ns3:cad>
          </ns3:TrackPointExtension>
        </extensions>
      </trkpt>
      <trkpt lat="52.18198947608470916748046875" lon="1.5679880417883396148681640625">
        <ele>-57.799999237060546875</ele>
        <time>2025-09-06T12:46:27.000Z</time>
        <extensions>
          <ns3:TrackPointExtension>
            <ns3:hr>160</ns3:hr>
            <ns3:cad>60</ns3:cad>
          </ns3:TrackPointExtension>
        </extensions>
      </trkpt>
      <trkpt lat="52.18197765760123729705810546875" lon="1.5679977647960186004638671875">
        <ele>-57.59999847412109375</ele>
        <time>2025-09-06T12:46:28.000Z</time>
        <extensions>
          <ns3:TrackPointExtension>
            <ns3:hr>161</ns3:hr>
            <ns3:cad>60</ns3:cad>
          </ns3:TrackPointExtension>
        </extensions>
      </trkpt>
      <trkpt lat="52.1819410286843776702880859375" lon="1.5680292807519435882568359375">
        <ele>-57.200000762939453125</ele>
        <time>2025-09-06T12:46:31.000Z</time>
        <extensions>
          <ns3:TrackPointExtension>
            <ns3:hr>158</ns3:hr>
            <ns3:cad>60</ns3:cad>
          </ns3:TrackPointExtension>
        </extensions>
      </trkpt>
      <trkpt lat="52.1818971075117588043212890625" lon="1.56807596795260906219482421875">
        <ele>-56.799999237060546875</ele>
        <time>2025-09-06T12:46:35.000Z</time>
        <extensions>
          <ns3:TrackPointExtension>
            <ns3:hr>158</ns3:hr>
            <ns3:cad>59</ns3:cad>
          </ns3:TrackPointExtension>
        </extensions>
      </trkpt>
      <trkpt lat="52.18186676502227783203125" lon="1.568113267421722412109375">
        <ele>-56.59999847412109375</ele>
        <time>2025-09-06T12:46:37.000Z</time>
        <extensions>
          <ns3:TrackPointExtension>
            <ns3:hr>156</ns3:hr>
            <ns3:cad>59</ns3:cad>
          </ns3:TrackPointExtension>
        </extensions>
      </trkpt>
      <trkpt lat="52.1817633323371410369873046875" lon="1.56824779696762561798095703125">
        <ele>-56.40000152587890625</ele>
        <time>2025-09-06T12:46:44.000Z</time>
        <extensions>
          <ns3:TrackPointExtension>
            <ns3:hr>153</ns3:hr>
            <ns3:cad>59</ns3:cad>
          </ns3:TrackPointExtension>
        </extensions>
      </trkpt>
      <trkpt lat="52.18174883164465427398681640625" lon="1.56826674006879329681396484375">
        <ele>-56.40000152587890625</ele>
        <time>2025-09-06T12:46:45.000Z</time>
        <extensions>
          <ns3:TrackPointExtension>
            <ns3:hr>152</ns3:hr>
            <ns3:cad>60</ns3:cad>
          </ns3:TrackPointExtension>
        </extensions>
      </trkpt>
      <trkpt lat="52.18163399957120418548583984375" lon="1.56842934899032115936279296875">
        <ele>-56.799999237060546875</ele>
        <time>2025-09-06T12:46:54.000Z</time>
        <extensions>
          <ns3:TrackPointExtension>
            <ns3:hr>150</ns3:hr>
            <ns3:cad>59</ns3:cad>
          </ns3:TrackPointExtension>
        </extensions>
      </trkpt>
      <trkpt lat="52.18153878115117549896240234375" lon="1.56854619272053241729736328125">
        <ele>-57.40000152587890625</ele>
        <time>2025-09-06T12:47:01.000Z</time>
        <extensions>
          <ns3:TrackPointExtension>
            <ns3:hr>151</ns3:hr>
            <ns3:cad>60</ns3:cad>
          </ns3:TrackPointExtension>
        </extensions>
      </trkpt>
      <trkpt lat="52.18151229433715343475341796875" lon="1.56858089379966259002685546875">
        <ele>-57.799999237060546875</ele>
        <time>2025-09-06T12:47:03.000Z</time>
        <extensions>
          <ns3:TrackPointExtension>
            <ns3:hr>150</ns3:hr>
            <ns3:cad>60</ns3:cad>
          </ns3:TrackPointExtension>
        </extensions>
      </trkpt>
      <trkpt lat="52.18143819831311702728271484375" lon="1.5686823986470699310302734375">
        <ele>-58.799999237060546875</ele>
        <time>2025-09-06T12:47:10.000Z</time>
        <extensions>
          <ns3:TrackPointExtension>
            <ns3:hr>148</ns3:hr>
            <ns3:cad>59</ns3:cad>
          </ns3:TrackPointExtension>
        </extensions>
      </trkpt>
      <trkpt lat="52.181380279362201690673828125" lon="1.568776778876781463623046875">
        <ele>-60</ele>
        <time>2025-09-06T12:47:16.000Z</time>
        <extensions>
          <ns3:TrackPointExtension>
            <ns3:hr>146</ns3:hr>
            <ns3:cad>0</ns3:cad>
          </ns3:TrackPointExtension>
        </extensions>
      </trkpt>
      <trkpt lat="52.18133325688540935516357421875" lon="1.56885129399597644805908203125">
        <ele>-61</ele>
        <time>2025-09-06T12:47:20.000Z</time>
        <extensions>
          <ns3:TrackPointExtension>
            <ns3:hr>147</ns3:hr>
            <ns3:cad>62</ns3:cad>
          </ns3:TrackPointExtension>
        </extensions>
      </trkpt>
      <trkpt lat="52.18131984584033489227294921875" lon="1.56887107528746128082275390625">
        <ele>-61.200000762939453125</ele>
        <time>2025-09-06T12:47:21.000Z</time>
        <extensions>
          <ns3:TrackPointExtension>
            <ns3:hr>147</ns3:hr>
            <ns3:cad>62</ns3:cad>
          </ns3:TrackPointExtension>
        </extensions>
      </trkpt>
      <trkpt lat="52.18127600848674774169921875" lon="1.56894215382635593414306640625">
        <ele>-62.200000762939453125</ele>
        <time>2025-09-06T12:47:25.000Z</time>
        <extensions>
          <ns3:TrackPointExtension>
            <ns3:hr>147</ns3:hr>
            <ns3:cad>62</ns3:cad>
          </ns3:TrackPointExtension>
        </extensions>
      </trkpt>
      <trkpt lat="52.18122563324868679046630859375" lon="1.5690106339752674102783203125">
        <ele>-63.40000152587890625</ele>
        <time>2025-09-06T12:47:29.000Z</time>
        <extensions>
          <ns3:TrackPointExtension>
            <ns3:hr>146</ns3:hr>
            <ns3:cad>60</ns3:cad>
          </ns3:TrackPointExtension>
        </extensions>
      </trkpt>
      <trkpt lat="52.1812141500413417816162109375" lon="1.56902454793453216552734375">
        <ele>-63.59999847412109375</ele>
        <time>2025-09-06T12:47:30.000Z</time>
        <extensions>
          <ns3:TrackPointExtension>
            <ns3:hr>146</ns3:hr>
            <ns3:cad>60</ns3:cad>
          </ns3:TrackPointExtension>
        </extensions>
      </trkpt>
      <trkpt lat="52.1811739169061183929443359375" lon="1.56907056458294391632080078125">
        <ele>-64.40000152587890625</ele>
        <time>2025-09-06T12:47:33.000Z</time>
        <extensions>
          <ns3:TrackPointExtension>
            <ns3:hr>145</ns3:hr>
            <ns3:cad>61</ns3:cad>
          </ns3:TrackPointExtension>
        </extensions>
      </trkpt>
      <trkpt lat="52.181127481162548065185546875" lon="1.56912990845739841461181640625">
        <ele>-65.59999847412109375</ele>
        <time>2025-09-06T12:47:37.000Z</time>
        <extensions>
          <ns3:TrackPointExtension>
            <ns3:hr>145</ns3:hr>
            <ns3:cad>61</ns3:cad>
          </ns3:TrackPointExtension>
        </extensions>
      </trkpt>
      <trkpt lat="52.18111549504101276397705078125" lon="1.5691450797021389007568359375">
        <ele>-65.8000030517578125</ele>
        <time>2025-09-06T12:47:38.000Z</time>
        <extensions>
          <ns3:TrackPointExtension>
            <ns3:hr>145</ns3:hr>
            <ns3:cad>61</ns3:cad>
          </ns3:TrackPointExtension>
        </extensions>
      </trkpt>
      <trkpt lat="52.18108297325670719146728515625" lon="1.569191180169582366943359375">
        <ele>-66.59999847412109375</ele>
        <time>2025-09-06T12:47:41.000Z</time>
        <extensions>
          <ns3:TrackPointExtension>
            <ns3:hr>147</ns3:hr>
            <ns3:cad>61</ns3:cad>
          </ns3:TrackPointExtension>
        </extensions>
      </trkpt>
      <trkpt lat="52.18103100545704364776611328125" lon="1.569254212081432342529296875">
        <ele>-67.8000030517578125</ele>
        <time>2025-09-06T12:47:45.000Z</time>
        <extensions>
          <ns3:TrackPointExtension>
            <ns3:hr>145</ns3:hr>
            <ns3:cad>60</ns3:cad>
          </ns3:TrackPointExtension>
        </extensions>
      </trkpt>
      <trkpt lat="52.18100485391914844512939453125" lon="1.56928296200931072235107421875">
        <ele>-68.40000152587890625</ele>
        <time>2025-09-06T12:47:47.000Z</time>
        <extensions>
          <ns3:TrackPointExtension>
            <ns3:hr>144</ns3:hr>
            <ns3:cad>60</ns3:cad>
          </ns3:TrackPointExtension>
        </extensions>
      </trkpt>
      <trkpt lat="52.180974595248699188232421875" lon="1.569315902888774871826171875">
        <ele>-68.8000030517578125</ele>
        <time>2025-09-06T12:47:49.000Z</time>
        <extensions>
          <ns3:TrackPointExtension>
            <ns3:hr>144</ns3:hr>
            <ns3:cad>60</ns3:cad>
          </ns3:TrackPointExtension>
        </extensions>
      </trkpt>
      <trkpt lat="52.18093134462833404541015625" lon="1.56937248073518276214599609375">
        <ele>-69.8000030517578125</ele>
        <time>2025-09-06T12:47:52.000Z</time>
        <extensions>
          <ns3:TrackPointExtension>
            <ns3:hr>143</ns3:hr>
            <ns3:cad>59</ns3:cad>
          </ns3:TrackPointExtension>
        </extensions>
      </trkpt>
      <trkpt lat="52.1809186041355133056640625" lon="1.569388993084430694580078125">
        <ele>-70.1999969482421875</ele>
        <time>2025-09-06T12:47:53.000Z</time>
        <extensions>
          <ns3:TrackPointExtension>
            <ns3:hr>143</ns3:hr>
            <ns3:cad>59</ns3:cad>
          </ns3:TrackPointExtension>
        </extensions>
      </trkpt>
      <trkpt lat="52.18089689500629901885986328125" lon="1.56942126341164112091064453125">
        <ele>-70.8000030517578125</ele>
        <time>2025-09-06T12:47:55.000Z</time>
        <extensions>
          <ns3:TrackPointExtension>
            <ns3:hr>144</ns3:hr>
            <ns3:cad>59</ns3:cad>
          </ns3:TrackPointExtension>
        </extensions>
      </trkpt>
      <trkpt lat="52.18087091110646724700927734375" lon="1.56945101916790008544921875">
        <ele>-71.40000152587890625</ele>
        <time>2025-09-06T12:47:57.000Z</time>
        <extensions>
          <ns3:TrackPointExtension>
            <ns3:hr>145</ns3:hr>
            <ns3:cad>59</ns3:cad>
          </ns3:TrackPointExtension>
        </extensions>
      </trkpt>
      <trkpt lat="52.18080125749111175537109375" lon="1.5695120394229888916015625">
        <ele>-73</ele>
        <time>2025-09-06T12:48:01.000Z</time>
        <extensions>
          <ns3:TrackPointExtension>
            <ns3:hr>145</ns3:hr>
            <ns3:cad>60</ns3:cad>
          </ns3:TrackPointExtension>
        </extensions>
      </trkpt>
      <trkpt lat="52.18080125749111175537109375" lon="1.5695120394229888916015625">
        <ele>-73</ele>
        <time>2025-09-06T12:48:02.000Z</time>
        <extensions>
          <ns3:TrackPointExtension>
            <ns3:hr>145</ns3:hr>
            <ns3:cad>60</ns3:cad>
          </ns3:TrackPointExtension>
        </extensions>
      </trkpt>
      <trkpt lat="52.18073747120797634124755859375" lon="1.56955822370946407318115234375">
        <ele>-74.1999969482421875</ele>
        <time>2025-09-06T12:48:06.000Z</time>
        <extensions>
          <ns3:TrackPointExtension>
            <ns3:hr>144</ns3:hr>
            <ns3:cad>61</ns3:cad>
          </ns3:TrackPointExtension>
        </extensions>
      </trkpt>
      <trkpt lat="52.18069891445338726043701171875" lon="1.56958672218024730682373046875">
        <ele>-75.40000152587890625</ele>
        <time>2025-09-06T12:48:10.000Z</time>
        <extensions>
          <ns3:TrackPointExtension>
            <ns3:hr>146</ns3:hr>
            <ns3:cad>59</ns3:cad>
          </ns3:TrackPointExtension>
        </extensions>
      </trkpt>
      <trkpt lat="52.18069262802600860595703125" lon="1.56959510408341884613037109375">
        <ele>-75.59999847412109375</ele>
        <time>2025-09-06T12:48:11.000Z</time>
        <extensions>
          <ns3:TrackPointExtension>
            <ns3:hr>142</ns3:hr>
            <ns3:cad>59</ns3:cad>
          </ns3:TrackPointExtension>
        </extensions>
      </trkpt>
      <trkpt lat="52.1806518919765949249267578125" lon="1.56963835470378398895263671875">
        <ele>-76.59999847412109375</ele>
        <time>2025-09-06T12:48:14.000Z</time>
        <extensions>
          <ns3:TrackPointExtension>
            <ns3:hr>144</ns3:hr>
            <ns3:cad>59</ns3:cad>
          </ns3:TrackPointExtension>
        </extensions>
      </trkpt>
      <trkpt lat="52.1806119941174983978271484375" lon="1.56967624090611934661865234375">
        <ele>-77.59999847412109375</ele>
        <time>2025-09-06T12:48:18.000Z</time>
        <extensions>
          <ns3:TrackPointExtension>
            <ns3:hr>144</ns3:hr>
            <ns3:cad>57</ns3:cad>
          </ns3:TrackPointExtension>
        </extensions>
      </trkpt>
      <trkpt lat="52.1806049533188343048095703125" lon="1.569683365523815155029296875">
        <ele>-78</ele>
        <time>2025-09-06T12:48:19.000Z</time>
        <extensions>
          <ns3:TrackPointExtension>
            <ns3:hr>145</ns3:hr>
            <ns3:cad>57</ns3:cad>
          </ns3:TrackPointExtension>
        </extensions>
      </trkpt>
      <trkpt lat="52.1805774606764316558837890625" lon="1.56970490701496601104736328125">
        <ele>-78.8000030517578125</ele>
        <time>2025-09-06T12:48:22.000Z</time>
        <extensions>
          <ns3:TrackPointExtension>
            <ns3:hr>146</ns3:hr>
            <ns3:cad>59</ns3:cad>
          </ns3:TrackPointExtension>
        </extensions>
      </trkpt>
      <trkpt lat="52.180532030761241912841796875" lon="1.56974740326404571533203125">
        <ele>-80</ele>
        <time>2025-09-06T12:48:27.000Z</time>
        <extensions>
          <ns3:TrackPointExtension>
            <ns3:hr>144</ns3:hr>
            <ns3:cad>60</ns3:cad>
          </ns3:TrackPointExtension>
        </extensions>
      </trkpt>
      <trkpt lat="52.18050814233720302581787109375" lon="1.5697834454476833343505859375">
        <ele>-80.59999847412109375</ele>
        <time>2025-09-06T12:48:30.000Z</time>
        <extensions>
          <ns3:TrackPointExtension>
            <ns3:hr>146</ns3:hr>
            <ns3:cad>59</ns3:cad>
          </ns3:TrackPointExtension>
        </extensions>
      </trkpt>
      <trkpt lat="52.18050680123269557952880859375" lon="1.56981152482330799102783203125">
        <ele>-81</ele>
        <time>2025-09-06T12:48:32.000Z</time>
        <extensions>
          <ns3:TrackPointExtension>
            <ns3:hr>146</ns3:hr>
            <ns3:cad>59</ns3:cad>
          </ns3:TrackPointExtension>
        </extensions>
      </trkpt>
      <trkpt lat="52.18050529249012470245361328125" lon="1.569830887019634246826171875">
        <ele>-81.40000152587890625</ele>
        <time>2025-09-06T12:48:33.000Z</time>
        <extensions>
          <ns3:TrackPointExtension>
            <ns3:hr>146</ns3:hr>
            <ns3:cad>59</ns3:cad>
          </ns3:TrackPointExtension>
        </extensions>
      </trkpt>
      <trkpt lat="52.18049724586308002471923828125" lon="1.56989148817956447601318359375">
        <ele>-81.8000030517578125</ele>
        <time>2025-09-06T12:48:35.000Z</time>
        <extensions>
          <ns3:TrackPointExtension>
            <ns3:hr>146</ns3:hr>
            <ns3:cad>59</ns3:cad>
          </ns3:TrackPointExtension>
        </extensions>
      </trkpt>
      <trkpt lat="52.180480062961578369140625" lon="1.569946892559528350830078125">
        <ele>-82.1999969482421875</ele>
        <time>2025-09-06T12:48:37.000Z</time>
        <extensions>
          <ns3:TrackPointExtension>
            <ns3:hr>145</ns3:hr>
            <ns3:cad>0</ns3:cad>
          </ns3:TrackPointExtension>
        </extensions>
      </trkpt>
      <trkpt lat="52.1804492175579071044921875" lon="1.5700493194162845611572265625">
        <ele>-82.8000030517578125</ele>
        <time>2025-09-06T12:48:41.000Z</time>
        <extensions>
          <ns3:TrackPointExtension>
            <ns3:hr>145</ns3:hr>
            <ns3:cad>77</ns3:cad>
          </ns3:TrackPointExtension>
        </extensions>
      </trkpt>
      <trkpt lat="52.18045215122401714324951171875" lon="1.570103131234645843505859375">
        <ele>-83.1999969482421875</ele>
        <time>2025-09-06T12:48:43.000Z</time>
        <extensions>
          <ns3:TrackPointExtension>
            <ns3:hr>145</ns3:hr>
            <ns3:cad>77</ns3:cad>
          </ns3:TrackPointExtension>
        </extensions>
      </trkpt>
      <trkpt lat="52.18044930137693881988525390625" lon="1.57019893638789653778076171875">
        <ele>-83.8000030517578125</ele>
        <time>2025-09-06T12:48:46.000Z</time>
        <extensions>
          <ns3:TrackPointExtension>
            <ns3:hr>148</ns3:hr>
            <ns3:cad>79</ns3:cad>
          </ns3:TrackPointExtension>
        </extensions>
      </trkpt>
      <trkpt lat="52.1804349683225154876708984375" lon="1.57025836408138275146484375">
        <ele>-84</ele>
        <time>2025-09-06T12:48:48.000Z</time>
        <extensions>
          <ns3:TrackPointExtension>
            <ns3:hr>151</ns3:hr>
            <ns3:cad>79</ns3:cad>
          </ns3:TrackPointExtension>
        </extensions>
      </trkpt>
      <trkpt lat="52.1804171986877918243408203125" lon="1.5703148581087589263916015625">
        <ele>-84.1999969482421875</ele>
        <time>2025-09-06T12:48:50.000Z</time>
        <extensions>
          <ns3:TrackPointExtension>
            <ns3:hr>153</ns3:hr>
            <ns3:cad>80</ns3:cad>
          </ns3:TrackPointExtension>
        </extensions>
      </trkpt>
      <trkpt lat="52.18036665581166744232177734375" lon="1.57047084532678127288818359375">
        <ele>-84.59999847412109375</ele>
        <time>2025-09-06T12:48:55.000Z</time>
        <extensions>
          <ns3:TrackPointExtension>
            <ns3:hr>157</ns3:hr>
            <ns3:cad>80</ns3:cad>
          </ns3:TrackPointExtension>
        </extensions>
      </trkpt>
      <trkpt lat="52.1803370676934719085693359375" lon="1.5706035308539867401123046875">
        <ele>-84.8000030517578125</ele>
        <time>2025-09-06T12:49:01.000Z</time>
        <extensions>
          <ns3:TrackPointExtension>
            <ns3:hr>160</ns3:hr>
            <ns3:cad>79</ns3:cad>
          </ns3:TrackPointExtension>
        </extensions>
      </trkpt>
      <trkpt lat="52.180328182876110076904296875" lon="1.57067268155515193939208984375">
        <ele>-84.59999847412109375</ele>
        <time>2025-09-06T12:49:04.000Z</time>
        <extensions>
          <ns3:TrackPointExtension>
            <ns3:hr>161</ns3:hr>
            <ns3:cad>79</ns3:cad>
          </ns3:TrackPointExtension>
        </extensions>
      </trkpt>
      <trkpt lat="52.1802311204373836517333984375" lon="1.57094878144562244415283203125">
        <ele>-84</ele>
        <time>2025-09-06T12:49:13.000Z</time>
        <extensions>
          <ns3:TrackPointExtension>
            <ns3:hr>161</ns3:hr>
            <ns3:cad>80</ns3:cad>
          </ns3:TrackPointExtension>
        </extensions>
      </trkpt>
      <trkpt lat="52.18014252372086048126220703125" lon="1.5711805410683155059814453125">
        <ele>-83.1999969482421875</ele>
        <time>2025-09-06T12:49:20.000Z</time>
        <extensions>
          <ns3:TrackPointExtension>
            <ns3:hr>159</ns3:hr>
            <ns3:cad>79</ns3:cad>
          </ns3:TrackPointExtension>
        </extensions>
      </trkpt>
      <trkpt lat="52.18013129197061061859130859375" lon="1.57120778225362300872802734375">
        <ele>-83.1999969482421875</ele>
        <time>2025-09-06T12:49:21.000Z</time>
        <extensions>
          <ns3:TrackPointExtension>
            <ns3:hr>159</ns3:hr>
            <ns3:cad>80</ns3:cad>
          </ns3:TrackPointExtension>
        </extensions>
      </trkpt>
      <trkpt lat="52.1800551004707813262939453125" lon="1.57141682691872119903564453125">
        <ele>-82.1999969482421875</ele>
        <time>2025-09-06T12:49:29.000Z</time>
        <extensions>
          <ns3:TrackPointExtension>
            <ns3:hr>158</ns3:hr>
            <ns3:cad>79</ns3:cad>
          </ns3:TrackPointExtension>
        </extensions>
      </trkpt>
      <trkpt lat="52.1799789927899837493896484375" lon="1.571619249880313873291015625">
        <ele>-81.40000152587890625</ele>
        <time>2025-09-06T12:49:38.000Z</time>
        <extensions>
          <ns3:TrackPointExtension>
            <ns3:hr>157</ns3:hr>
            <ns3:cad>78</ns3:cad>
          </ns3:TrackPointExtension>
        </extensions>
      </trkpt>
      <trkpt lat="52.17997069470584392547607421875" lon="1.5716636739671230316162109375">
        <ele>-81.1999969482421875</ele>
        <time>2025-09-06T12:49:40.000Z</time>
        <extensions>
          <ns3:TrackPointExtension>
            <ns3:hr>159</ns3:hr>
            <ns3:cad>78</ns3:cad>
          </ns3:TrackPointExtension>
        </extensions>
      </trkpt>
      <trkpt lat="52.17990850098431110382080078125" lon="1.571782529354095458984375">
        <ele>-80.8000030517578125</ele>
        <time>2025-09-06T12:49:45.000Z</time>
        <extensions>
          <ns3:TrackPointExtension>
            <ns3:hr>158</ns3:hr>
            <ns3:cad>80</ns3:cad>
          </ns3:TrackPointExtension>
        </extensions>
      </trkpt>
      <trkpt lat="52.17979718931019306182861328125" lon="1.57198059372603893280029296875">
        <ele>-80.1999969482421875</ele>
        <time>2025-09-06T12:49:51.000Z</time>
        <extensions>
          <ns3:TrackPointExtension>
            <ns3:hr>158</ns3:hr>
            <ns3:cad>78</ns3:cad>
          </ns3:TrackPointExtension>
        </extensions>
      </trkpt>
      <trkpt lat="52.1797862090170383453369140625" lon="1.5720172226428985595703125">
        <ele>-80.1999969482421875</ele>
        <time>2025-09-06T12:49:52.000Z</time>
        <extensions>
          <ns3:TrackPointExtension>
            <ns3:hr>158</ns3:hr>
            <ns3:cad>78</ns3:cad>
          </ns3:TrackPointExtension>
        </extensions>
      </trkpt>
      <trkpt lat="52.17971219681203365325927734375" lon="1.57222442328929901123046875">
        <ele>-79.59999847412109375</ele>
        <time>2025-09-06T12:49:58.000Z</time>
        <extensions>
          <ns3:TrackPointExtension>
            <ns3:hr>160</ns3:hr>
            <ns3:cad>77</ns3:cad>
          </ns3:TrackPointExtension>
        </extensions>
      </trkpt>
      <trkpt lat="52.17962552793323993682861328125" lon="1.5724763832986354827880859375">
        <ele>-79</ele>
        <time>2025-09-06T12:50:06.000Z</time>
        <extensions>
          <ns3:TrackPointExtension>
            <ns3:hr>161</ns3:hr>
            <ns3:cad>78</ns3:cad>
          </ns3:TrackPointExtension>
        </extensions>
      </trkpt>
      <trkpt lat="52.1796172298491001129150390625" lon="1.57250898890197277069091796875">
        <ele>-79</ele>
        <time>2025-09-06T12:50:07.000Z</time>
        <extensions>
          <ns3:TrackPointExtension>
            <ns3:hr>161</ns3:hr>
            <ns3:cad>78</ns3:cad>
          </ns3:TrackPointExtension>
        </extensions>
      </trkpt>
      <trkpt lat="52.179544977843761444091796875" lon="1.57272289507091045379638671875">
        <ele>-78.59999847412109375</ele>
        <time>2025-09-06T12:50:15.000Z</time>
        <extensions>
          <ns3:TrackPointExtension>
            <ns3:hr>160</ns3:hr>
            <ns3:cad>77</ns3:cad>
          </ns3:TrackPointExtension>
        </extensions>
      </trkpt>
      <trkpt lat="52.1794847957789897918701171875" lon="1.57284610904753208160400390625">
        <ele>-78.1999969482421875</ele>
        <time>2025-09-06T12:50:20.000Z</time>
        <extensions>
          <ns3:TrackPointExtension>
            <ns3:hr>163</ns3:hr>
            <ns3:cad>79</ns3:cad>
          </ns3:TrackPointExtension>
        </extensions>
      </trkpt>
      <trkpt lat="52.17945478856563568115234375" lon="1.5729031898081302642822265625">
        <ele>-78.1999969482421875</ele>
        <time>2025-09-06T12:50:22.000Z</time>
        <extensions>
          <ns3:TrackPointExtension>
            <ns3:hr>163</ns3:hr>
            <ns3:cad>79</ns3:cad>
          </ns3:TrackPointExtension>
        </extensions>
      </trkpt>
      <trkpt lat="52.17941899783909320831298828125" lon="1.57296982593834400177001953125">
        <ele>-78</ele>
        <time>2025-09-06T12:50:24.000Z</time>
        <extensions>
          <ns3:TrackPointExtension>
            <ns3:hr>166</ns3:hr>
            <ns3:cad>79</ns3:cad>
          </ns3:TrackPointExtension>
        </extensions>
      </trkpt>
      <trkpt lat="52.17932470142841339111328125" lon="1.57317803241312503814697265625">
        <ele>-77.59999847412109375</ele>
        <time>2025-09-06T12:50:31.000Z</time>
        <extensions>
          <ns3:TrackPointExtension>
            <ns3:hr>164</ns3:hr>
            <ns3:cad>78</ns3:cad>
          </ns3:TrackPointExtension>
        </extensions>
      </trkpt>
      <trkpt lat="52.17926024459302425384521484375" lon="1.5733695589005947113037109375">
        <ele>-77</ele>
        <time>2025-09-06T12:50:38.000Z</time>
        <extensions>
          <ns3:TrackPointExtension>
            <ns3:hr>165</ns3:hr>
            <ns3:cad>79</ns3:cad>
          </ns3:TrackPointExtension>
        </extensions>
      </trkpt>
      <trkpt lat="52.1792373619973659515380859375" lon="1.5734158270061016082763671875">
        <ele>-76.8000030517578125</ele>
        <time>2025-09-06T12:50:40.000Z</time>
        <extensions>
          <ns3:TrackPointExtension>
            <ns3:hr>163</ns3:hr>
            <ns3:cad>79</ns3:cad>
          </ns3:TrackPointExtension>
        </extensions>
      </trkpt>
      <trkpt lat="52.179166115820407867431640625" lon="1.57361112534999847412109375">
        <ele>-76</ele>
        <time>2025-09-06T12:50:47.000Z</time>
        <extensions>
          <ns3:TrackPointExtension>
            <ns3:hr>162</ns3:hr>
            <ns3:cad>79</ns3:cad>
          </ns3:TrackPointExtension>
        </extensions>
      </trkpt>
      <trkpt lat="52.17914457432925701141357421875" lon="1.5736595727503299713134765625">
        <ele>-75.59999847412109375</ele>
        <time>2025-09-06T12:50:49.000Z</time>
        <extensions>
          <ns3:TrackPointExtension>
            <ns3:hr>162</ns3:hr>
            <ns3:cad>79</ns3:cad>
          </ns3:TrackPointExtension>
        </extensions>
      </trkpt>
      <trkpt lat="52.1791086159646511077880859375" lon="1.57379510812461376190185546875">
        <ele>-75</ele>
        <time>2025-09-06T12:50:54.000Z</time>
        <extensions>
          <ns3:TrackPointExtension>
            <ns3:hr>165</ns3:hr>
            <ns3:cad>79</ns3:cad>
          </ns3:TrackPointExtension>
        </extensions>
      </trkpt>
      <trkpt lat="52.17909897677600383758544921875" lon="1.57382301986217498779296875">
        <ele>-74.8000030517578125</ele>
        <time>2025-09-06T12:50:55.000Z</time>
        <extensions>
          <ns3:TrackPointExtension>
            <ns3:hr>164</ns3:hr>
            <ns3:cad>79</ns3:cad>
          </ns3:TrackPointExtension>
        </extensions>
      </trkpt>
      <trkpt lat="52.1790563128888607025146484375" lon="1.57396693713963031768798828125">
        <ele>-74.1999969482421875</ele>
        <time>2025-09-06T12:51:00.000Z</time>
        <extensions>
          <ns3:TrackPointExtension>
            <ns3:hr>162</ns3:hr>
            <ns3:cad>79</ns3:cad>
          </ns3:TrackPointExtension>
        </extensions>
      </trkpt>
      <trkpt lat="52.1790221147239208221435546875" lon="1.57404522411525249481201171875">
        <ele>-73.59999847412109375</ele>
        <time>2025-09-06T12:51:03.000Z</time>
        <extensions>
          <ns3:TrackPointExtension>
            <ns3:hr>164</ns3:hr>
            <ns3:cad>80</ns3:cad>
          </ns3:TrackPointExtension>
        </extensions>
      </trkpt>
      <trkpt lat="52.17898850329220294952392578125" lon="1.5741388499736785888671875">
        <ele>-73.1999969482421875</ele>
        <time>2025-09-06T12:51:06.000Z</time>
        <extensions>
          <ns3:TrackPointExtension>
            <ns3:hr>164</ns3:hr>
            <ns3:cad>79</ns3:cad>
          </ns3:TrackPointExtension>
        </extensions>
      </trkpt>
      <trkpt lat="52.17893972061574459075927734375" lon="1.5742898918688297271728515625">
        <ele>-72.59999847412109375</ele>
        <time>2025-09-06T12:51:11.000Z</time>
        <extensions>
          <ns3:TrackPointExtension>
            <ns3:hr>167</ns3:hr>
            <ns3:cad>79</ns3:cad>
          </ns3:TrackPointExtension>
        </extensions>
      </trkpt>
      <trkpt lat="52.17893536202609539031982421875" lon="1.57431897707283496856689453125">
        <ele>-72.40000152587890625</ele>
        <time>2025-09-06T12:51:12.000Z</time>
        <extensions>
          <ns3:TrackPointExtension>
            <ns3:hr>166</ns3:hr>
            <ns3:cad>79</ns3:cad>
          </ns3:TrackPointExtension>
        </extensions>
      </trkpt>
      <trkpt lat="52.17888347804546356201171875" lon="1.57447454519569873809814453125">
        <ele>-71.59999847412109375</ele>
        <time>2025-09-06T12:51:17.000Z</time>
        <extensions>
          <ns3:TrackPointExtension>
            <ns3:hr>166</ns3:hr>
            <ns3:cad>80</ns3:cad>
          </ns3:TrackPointExtension>
        </extensions>
      </trkpt>
      <trkpt lat="52.17887015081942081451416015625" lon="1.57453916966915130615234375">
        <ele>-71.1999969482421875</ele>
        <time>2025-09-06T12:51:19.000Z</time>
        <extensions>
          <ns3:TrackPointExtension>
            <ns3:hr>166</ns3:hr>
            <ns3:cad>80</ns3:cad>
          </ns3:TrackPointExtension>
        </extensions>
      </trkpt>
      <trkpt lat="52.178843580186367034912109375" lon="1.5746645629405975341796875">
        <ele>-70.40000152587890625</ele>
        <time>2025-09-06T12:51:23.000Z</time>
        <extensions>
          <ns3:TrackPointExtension>
            <ns3:hr>166</ns3:hr>
            <ns3:cad>80</ns3:cad>
          </ns3:TrackPointExtension>
        </extensions>
      </trkpt>
      <trkpt lat="52.17879488132894039154052734375" lon="1.5748068876564502716064453125">
        <ele>-69.8000030517578125</ele>
        <time>2025-09-06T12:51:27.000Z</time>
        <extensions>
          <ns3:TrackPointExtension>
            <ns3:hr>166</ns3:hr>
            <ns3:cad>80</ns3:cad>
          </ns3:TrackPointExtension>
        </extensions>
      </trkpt>
      <trkpt lat="52.1787730045616626739501953125" lon="1.57487235032021999359130859375">
        <ele>-69.40000152587890625</ele>
        <time>2025-09-06T12:51:29.000Z</time>
        <extensions>
          <ns3:TrackPointExtension>
            <ns3:hr>167</ns3:hr>
            <ns3:cad>81</ns3:cad>
          </ns3:TrackPointExtension>
        </extensions>
      </trkpt>
      <trkpt lat="52.17871525324881076812744140625" lon="1.575023643672466278076171875">
        <ele>-68.40000152587890625</ele>
        <time>2025-09-06T12:51:34.000Z</time>
        <extensions>
          <ns3:TrackPointExtension>
            <ns3:hr>166</ns3:hr>
            <ns3:cad>80</ns3:cad>
          </ns3:TrackPointExtension>
        </extensions>
      </trkpt>
      <trkpt lat="52.17870175838470458984375" lon="1.5750508010387420654296875">
        <ele>-68.40000152587890625</ele>
        <time>2025-09-06T12:51:35.000Z</time>
        <extensions>
          <ns3:TrackPointExtension>
            <ns3:hr>165</ns3:hr>
            <ns3:cad>80</ns3:cad>
          </ns3:TrackPointExtension>
        </extensions>
      </trkpt>
      <trkpt lat="52.17866999097168445587158203125" lon="1.575141660869121551513671875">
        <ele>-67.8000030517578125</ele>
        <time>2025-09-06T12:51:38.000Z</time>
        <extensions>
          <ns3:TrackPointExtension>
            <ns3:hr>168</ns3:hr>
            <ns3:cad>80</ns3:cad>
          </ns3:TrackPointExtension>
        </extensions>
      </trkpt>
      <trkpt lat="52.17863579280674457550048828125" lon="1.57526395283639430999755859375">
        <ele>-67.1999969482421875</ele>
        <time>2025-09-06T12:51:42.000Z</time>
        <extensions>
          <ns3:TrackPointExtension>
            <ns3:hr>169</ns3:hr>
            <ns3:cad>80</ns3:cad>
          </ns3:TrackPointExtension>
        </extensions>
      </trkpt>
      <trkpt lat="52.17857929877936840057373046875" lon="1.5754610113799571990966796875">
        <ele>-66.1999969482421875</ele>
        <time>2025-09-06T12:51:50.000Z</time>
        <extensions>
          <ns3:TrackPointExtension>
            <ns3:hr>169</ns3:hr>
            <ns3:cad>79</ns3:cad>
          </ns3:TrackPointExtension>
        </extensions>
      </trkpt>
      <trkpt lat="52.1785597689449787139892578125" lon="1.57553167082369327545166015625">
        <ele>-65.8000030517578125</ele>
        <time>2025-09-06T12:51:53.000Z</time>
        <extensions>
          <ns3:TrackPointExtension>
            <ns3:hr>166</ns3:hr>
            <ns3:cad>78</ns3:cad>
          </ns3:TrackPointExtension>
        </extensions>
      </trkpt>
      <trkpt lat="52.17851375229656696319580078125" lon="1.57566745765507221221923828125">
        <ele>-65.1999969482421875</ele>
        <time>2025-09-06T12:51:58.000Z</time>
        <extensions>
          <ns3:TrackPointExtension>
            <ns3:hr>166</ns3:hr>
            <ns3:cad>78</ns3:cad>
          </ns3:TrackPointExtension>
        </extensions>
      </trkpt>
      <trkpt lat="52.178500592708587646484375" lon="1.5756943635642528533935546875">
        <ele>-65</ele>
        <time>2025-09-06T12:51:59.000Z</time>
        <extensions>
          <ns3:TrackPointExtension>
            <ns3:hr>165</ns3:hr>
            <ns3:cad>78</ns3:cad>
          </ns3:TrackPointExtension>
        </extensions>
      </trkpt>
      <trkpt lat="52.1784719265997409820556640625" lon="1.57575345598161220550537109375">
        <ele>-64.8000030517578125</ele>
        <time>2025-09-06T12:52:01.000Z</time>
        <extensions>
          <ns3:TrackPointExtension>
            <ns3:hr>168</ns3:hr>
            <ns3:cad>78</ns3:cad>
          </ns3:TrackPointExtension>
        </extensions>
      </trkpt>
      <trkpt lat="52.17839238233864307403564453125" lon="1.575981192290782928466796875">
        <ele>-64.1999969482421875</ele>
        <time>2025-09-06T12:52:08.000Z</time>
        <extensions>
          <ns3:TrackPointExtension>
            <ns3:hr>169</ns3:hr>
            <ns3:cad>78</ns3:cad>
          </ns3:TrackPointExtension>
        </extensions>
      </trkpt>
      <trkpt lat="52.178350724279880523681640625" lon="1.5761478245258331298828125">
        <ele>-63.799999237060546875</ele>
        <time>2025-09-06T12:52:14.000Z</time>
        <extensions>
          <ns3:TrackPointExtension>
            <ns3:hr>172</ns3:hr>
            <ns3:cad>79</ns3:cad>
          </ns3:TrackPointExtension>
        </extensions>
      </trkpt>
      <trkpt lat="52.1783294342458248138427734375" lon="1.5762251056730747222900390625">
        <ele>-63.59999847412109375</ele>
        <time>2025-09-06T12:52:17.000Z</time>
        <extensions>
          <ns3:TrackPointExtension>
            <ns3:hr>173</ns3:hr>
            <ns3:cad>80</ns3:cad>
          </ns3:TrackPointExtension>
        </extensions>
      </trkpt>
      <trkpt lat="52.17825860716402530670166015625" lon="1.5764363296329975128173828125">
        <ele>-63.200000762939453125</ele>
        <time>2025-09-06T12:52:24.000Z</time>
        <extensions>
          <ns3:TrackPointExtension>
            <ns3:hr>171</ns3:hr>
            <ns3:cad>79</ns3:cad>
          </ns3:TrackPointExtension>
        </extensions>
      </trkpt>
      <trkpt lat="52.178247459232807159423828125" lon="1.57647178508341312408447265625">
        <ele>-63</ele>
        <time>2025-09-06T12:52:25.000Z</time>
        <extensions>
          <ns3:TrackPointExtension>
            <ns3:hr>170</ns3:hr>
            <ns3:cad>79</ns3:cad>
          </ns3:TrackPointExtension>
        </extensions>
      </trkpt>
      <trkpt lat="52.17816892080008983612060546875" lon="1.57669273205101490020751953125">
        <ele>-62.59999847412109375</ele>
        <time>2025-09-06T12:52:32.000Z</time>
        <extensions>
          <ns3:TrackPointExtension>
            <ns3:hr>167</ns3:hr>
            <ns3:cad>79</ns3:cad>
          </ns3:TrackPointExtension>
        </extensions>
      </trkpt>
      <trkpt lat="52.17813589610159397125244140625" lon="1.57684913836419582366943359375">
        <ele>-62</ele>
        <time>2025-09-06T12:52:37.000Z</time>
        <extensions>
          <ns3:TrackPointExtension>
            <ns3:hr>170</ns3:hr>
            <ns3:cad>79</ns3:cad>
          </ns3:TrackPointExtension>
        </extensions>
      </trkpt>
      <trkpt lat="52.1781282685697078704833984375" lon="1.576873697340488433837890625">
        <ele>-61.799999237060546875</ele>
        <time>2025-09-06T12:52:38.000Z</time>
        <extensions>
          <ns3:TrackPointExtension>
            <ns3:hr>170</ns3:hr>
            <ns3:cad>79</ns3:cad>
          </ns3:TrackPointExtension>
        </extensions>
      </trkpt>
      <trkpt lat="52.17802441678941249847412109375" lon="1.5770589374005794525146484375">
        <ele>-61</ele>
        <time>2025-09-06T12:52:45.000Z</time>
        <extensions>
          <ns3:TrackPointExtension>
            <ns3:hr>171</ns3:hr>
            <ns3:cad>78</ns3:cad>
          </ns3:TrackPointExtension>
        </extensions>
      </trkpt>
      <trkpt lat="52.17800044454634189605712890625" lon="1.57711811363697052001953125">
        <ele>-60.59999847412109375</ele>
        <time>2025-09-06T12:52:47.000Z</time>
        <extensions>
          <ns3:TrackPointExtension>
            <ns3:hr>172</ns3:hr>
            <ns3:cad>78</ns3:cad>
          </ns3:TrackPointExtension>
        </extensions>
      </trkpt>
      <trkpt lat="52.177928946912288665771484375" lon="1.57729622907936573028564453125">
        <ele>-59.799999237060546875</ele>
        <time>2025-09-06T12:52:53.000Z</time>
        <extensions>
          <ns3:TrackPointExtension>
            <ns3:hr>172</ns3:hr>
            <ns3:cad>79</ns3:cad>
          </ns3:TrackPointExtension>
        </extensions>
      </trkpt>
      <trkpt lat="52.17788393609225749969482421875" lon="1.5774264000356197357177734375">
        <ele>-59.40000152587890625</ele>
        <time>2025-09-06T12:52:57.000Z</time>
        <extensions>
          <ns3:TrackPointExtension>
            <ns3:hr>170</ns3:hr>
            <ns3:cad>79</ns3:cad>
          </ns3:TrackPointExtension>
        </extensions>
      </trkpt>
      <trkpt lat="52.17783498577773571014404296875" lon="1.577556990087032318115234375">
        <ele>-58.799999237060546875</ele>
        <time>2025-09-06T12:53:02.000Z</time>
        <extensions>
          <ns3:TrackPointExtension>
            <ns3:hr>168</ns3:hr>
            <ns3:cad>77</ns3:cad>
          </ns3:TrackPointExtension>
        </extensions>
      </trkpt>
      <trkpt lat="52.1778188087046146392822265625" lon="1.57761692069470882415771484375">
        <ele>-58.59999847412109375</ele>
        <time>2025-09-06T12:53:04.000Z</time>
        <extensions>
          <ns3:TrackPointExtension>
            <ns3:hr>169</ns3:hr>
            <ns3:cad>77</ns3:cad>
          </ns3:TrackPointExtension>
        </extensions>
      </trkpt>
      <trkpt lat="52.17776742763817310333251953125" lon="1.57788832671940326690673828125">
        <ele>-57.799999237060546875</ele>
        <time>2025-09-06T12:53:11.000Z</time>
        <extensions>
          <ns3:TrackPointExtension>
            <ns3:hr>169</ns3:hr>
            <ns3:cad>79</ns3:cad>
          </ns3:TrackPointExtension>
        </extensions>
      </trkpt>
      <trkpt lat="52.17776055447757244110107421875" lon="1.57792336307466030120849609375">
        <ele>-57.799999237060546875</ele>
        <time>2025-09-06T12:53:12.000Z</time>
        <extensions>
          <ns3:TrackPointExtension>
            <ns3:hr>170</ns3:hr>
            <ns3:cad>79</ns3:cad>
          </ns3:TrackPointExtension>
        </extensions>
      </trkpt>
      <trkpt lat="52.17773105017840862274169921875" lon="1.57814078964293003082275390625">
        <ele>-57.200000762939453125</ele>
        <time>2025-09-06T12:53:18.000Z</time>
        <extensions>
          <ns3:TrackPointExtension>
            <ns3:hr>171</ns3:hr>
            <ns3:cad>79</ns3:cad>
          </ns3:TrackPointExtension>
        </extensions>
      </trkpt>
      <trkpt lat="52.1777188964188098907470703125" lon="1.578373722732067108154296875">
        <ele>-56.799999237060546875</ele>
        <time>2025-09-06T12:53:25.000Z</time>
        <extensions>
          <ns3:TrackPointExtension>
            <ns3:hr>172</ns3:hr>
            <ns3:cad>79</ns3:cad>
          </ns3:TrackPointExtension>
        </extensions>
      </trkpt>
      <trkpt lat="52.17770959250628948211669921875" lon="1.5784453041851520538330078125">
        <ele>-56.799999237060546875</ele>
        <time>2025-09-06T12:53:27.000Z</time>
        <extensions>
          <ns3:TrackPointExtension>
            <ns3:hr>170</ns3:hr>
            <ns3:cad>80</ns3:cad>
          </ns3:TrackPointExtension>
        </extensions>
      </trkpt>
      <trkpt lat="52.17767790891230106353759765625" lon="1.57864437438547611236572265625">
        <ele>-56.59999847412109375</ele>
        <time>2025-09-06T12:53:33.000Z</time>
        <extensions>
          <ns3:TrackPointExtension>
            <ns3:hr>172</ns3:hr>
            <ns3:cad>79</ns3:cad>
          </ns3:TrackPointExtension>
        </extensions>
      </trkpt>
      <trkpt lat="52.17763834632933139801025390625" lon="1.57883699052035808563232421875">
        <ele>-56.40000152587890625</ele>
        <time>2025-09-06T12:53:40.000Z</time>
        <extensions>
          <ns3:TrackPointExtension>
            <ns3:hr>173</ns3:hr>
            <ns3:cad>81</ns3:cad>
          </ns3:TrackPointExtension>
        </extensions>
      </trkpt>
      <trkpt lat="52.1775908209383487701416015625" lon="1.57903698273003101348876953125">
        <ele>-56.200000762939453125</ele>
        <time>2025-09-06T12:53:46.000Z</time>
        <extensions>
          <ns3:TrackPointExtension>
            <ns3:hr>172</ns3:hr>
            <ns3:cad>80</ns3:cad>
          </ns3:TrackPointExtension>
        </extensions>
      </trkpt>
      <trkpt lat="52.17752669937908649444580078125" lon="1.579309813678264617919921875">
        <ele>-56</ele>
        <time>2025-09-06T12:53:54.000Z</time>
        <extensions>
          <ns3:TrackPointExtension>
            <ns3:hr>171</ns3:hr>
            <ns3:cad>80</ns3:cad>
          </ns3:TrackPointExtension>
        </extensions>
      </trkpt>
      <trkpt lat="52.17747506685554981231689453125" lon="1.57956588082015514373779296875">
        <ele>-56</ele>
        <time>2025-09-06T12:54:01.000Z</time>
        <extensions>
          <ns3:TrackPointExtension>
            <ns3:hr>171</ns3:hr>
            <ns3:cad>80</ns3:cad>
          </ns3:TrackPointExtension>
        </extensions>
      </trkpt>
      <trkpt lat="52.1774932555854320526123046875" lon="1.579905934631824493408203125">
        <ele>-56</ele>
        <time>2025-09-06T12:54:10.000Z</time>
        <extensions>
          <ns3:TrackPointExtension>
            <ns3:hr>170</ns3:hr>
            <ns3:cad>79</ns3:cad>
          </ns3:TrackPointExtension>
        </extensions>
      </trkpt>
      <trkpt lat="52.17749409377574920654296875" lon="1.5801213495433330535888671875">
        <ele>-56</ele>
        <time>2025-09-06T12:54:17.000Z</time>
        <extensions>
          <ns3:TrackPointExtension>
            <ns3:hr>169</ns3:hr>
            <ns3:cad>79</ns3:cad>
          </ns3:TrackPointExtension>
        </extensions>
      </trkpt>
      <trkpt lat="52.1774919144809246063232421875" lon="1.5803607366979122161865234375">
        <ele>-56.200000762939453125</ele>
        <time>2025-09-06T12:54:26.000Z</time>
        <extensions>
          <ns3:TrackPointExtension>
            <ns3:hr>169</ns3:hr>
            <ns3:cad>61</ns3:cad>
          </ns3:TrackPointExtension>
        </extensions>
      </trkpt>
      <trkpt lat="52.17749317176640033721923828125" lon="1.58044262789189815521240234375">
        <ele>-56.40000152587890625</ele>
        <time>2025-09-06T12:54:29.000Z</time>
        <extensions>
          <ns3:TrackPointExtension>
            <ns3:hr>166</ns3:hr>
            <ns3:cad>61</ns3:cad>
          </ns3:TrackPointExtension>
        </extensions>
      </trkpt>
      <trkpt lat="52.1774831973016262054443359375" lon="1.580515801906585693359375">
        <ele>-56.40000152587890625</ele>
        <time>2025-09-06T12:54:32.000Z</time>
        <extensions>
          <ns3:TrackPointExtension>
            <ns3:hr>163</ns3:hr>
            <ns3:cad>60</ns3:cad>
          </ns3:TrackPointExtension>
        </extensions>
      </trkpt>
      <trkpt lat="52.17747758142650127410888671875" lon="1.58054019324481487274169921875">
        <ele>-56.59999847412109375</ele>
        <time>2025-09-06T12:54:33.000Z</time>
        <extensions>
          <ns3:TrackPointExtension>
            <ns3:hr>164</ns3:hr>
            <ns3:cad>60</ns3:cad>
          </ns3:TrackPointExtension>
        </extensions>
      </trkpt>
      <trkpt lat="52.17743986286222934722900390625" lon="1.580687798559665679931640625">
        <ele>-57.200000762939453125</ele>
        <time>2025-09-06T12:54:39.000Z</time>
        <extensions>
          <ns3:TrackPointExtension>
            <ns3:hr>161</ns3:hr>
            <ns3:cad>61</ns3:cad>
          </ns3:TrackPointExtension>
        </extensions>
      </trkpt>
      <trkpt lat="52.17742427252233028411865234375" lon="1.5807397663593292236328125">
        <ele>-57.59999847412109375</ele>
        <time>2025-09-06T12:54:41.000Z</time>
        <extensions>
          <ns3:TrackPointExtension>
            <ns3:hr>161</ns3:hr>
            <ns3:cad>61</ns3:cad>
          </ns3:TrackPointExtension>
        </extensions>
      </trkpt>
      <trkpt lat="52.177418656647205352783203125" lon="1.580763570964336395263671875">
        <ele>-57.799999237060546875</ele>
        <time>2025-09-06T12:54:42.000Z</time>
        <extensions>
          <ns3:TrackPointExtension>
            <ns3:hr>161</ns3:hr>
            <ns3:cad>61</ns3:cad>
          </ns3:TrackPointExtension>
        </extensions>
      </trkpt>
      <trkpt lat="52.1773977018892765045166015625" lon="1.58090597949922084808349609375">
        <ele>-59</ele>
        <time>2025-09-06T12:54:47.000Z</time>
        <extensions>
          <ns3:TrackPointExtension>
            <ns3:hr>159</ns3:hr>
            <ns3:cad>60</ns3:cad>
          </ns3:TrackPointExtension>
        </extensions>
      </trkpt>
      <trkpt lat="52.17739443294703960418701171875" lon="1.58093900419771671295166015625">
        <ele>-59.40000152587890625</ele>
        <time>2025-09-06T12:54:48.000Z</time>
        <extensions>
          <ns3:TrackPointExtension>
            <ns3:hr>159</ns3:hr>
            <ns3:cad>60</ns3:cad>
          </ns3:TrackPointExtension>
        </extensions>
      </trkpt>
      <trkpt lat="52.1773812733590602874755859375" lon="1.58100957982242107391357421875">
        <ele>-60.200000762939453125</ele>
        <time>2025-09-06T12:54:51.000Z</time>
        <extensions>
          <ns3:TrackPointExtension>
            <ns3:hr>158</ns3:hr>
            <ns3:cad>60</ns3:cad>
          </ns3:TrackPointExtension>
        </extensions>
      </trkpt>
      <trkpt lat="52.177368700504302978515625" lon="1.5811060555279254913330078125">
        <ele>-61.40000152587890625</ele>
        <time>2025-09-06T12:54:55.000Z</time>
        <extensions>
          <ns3:TrackPointExtension>
            <ns3:hr>157</ns3:hr>
            <ns3:cad>60</ns3:cad>
          </ns3:TrackPointExtension>
        </extensions>
      </trkpt>
      <trkpt lat="52.177365683019161224365234375" lon="1.58112935721874237060546875">
        <ele>-61.59999847412109375</ele>
        <time>2025-09-06T12:54:56.000Z</time>
        <extensions>
          <ns3:TrackPointExtension>
            <ns3:hr>157</ns3:hr>
            <ns3:cad>61</ns3:cad>
          </ns3:TrackPointExtension>
        </extensions>
      </trkpt>
      <trkpt lat="52.17736476100981235504150390625" lon="1.58120873384177684783935546875">
        <ele>-62.40000152587890625</ele>
        <time>2025-09-06T12:54:59.000Z</time>
        <extensions>
          <ns3:TrackPointExtension>
            <ns3:hr>155</ns3:hr>
            <ns3:cad>61</ns3:cad>
          </ns3:TrackPointExtension>
        </extensions>
      </trkpt>
      <trkpt lat="52.1773578040301799774169921875" lon="1.581296660006046295166015625">
        <ele>-63.59999847412109375</ele>
        <time>2025-09-06T12:55:03.000Z</time>
        <extensions>
          <ns3:TrackPointExtension>
            <ns3:hr>154</ns3:hr>
            <ns3:cad>61</ns3:cad>
          </ns3:TrackPointExtension>
        </extensions>
      </trkpt>
      <trkpt lat="52.1773561276495456695556640625" lon="1.58131845295429229736328125">
        <ele>-64</ele>
        <time>2025-09-06T12:55:04.000Z</time>
        <extensions>
          <ns3:TrackPointExtension>
            <ns3:hr>153</ns3:hr>
            <ns3:cad>61</ns3:cad>
          </ns3:TrackPointExtension>
        </extensions>
      </trkpt>
      <trkpt lat="52.17734162695705890655517578125" lon="1.5813809819519519805908203125">
        <ele>-64.8000030517578125</ele>
        <time>2025-09-06T12:55:07.000Z</time>
        <extensions>
          <ns3:TrackPointExtension>
            <ns3:hr>154</ns3:hr>
            <ns3:cad>61</ns3:cad>
          </ns3:TrackPointExtension>
        </extensions>
      </trkpt>
      <trkpt lat="52.17735084705054759979248046875" lon="1.58147561363875865936279296875">
        <ele>-66.1999969482421875</ele>
        <time>2025-09-06T12:55:11.000Z</time>
        <extensions>
          <ns3:TrackPointExtension>
            <ns3:hr>153</ns3:hr>
            <ns3:cad>60</ns3:cad>
          </ns3:TrackPointExtension>
        </extensions>
      </trkpt>
      <trkpt lat="52.17734833247959613800048828125" lon="1.58152121119201183319091796875">
        <ele>-66.8000030517578125</ele>
        <time>2025-09-06T12:55:13.000Z</time>
        <extensions>
          <ns3:TrackPointExtension>
            <ns3:hr>153</ns3:hr>
            <ns3:cad>60</ns3:cad>
          </ns3:TrackPointExtension>
        </extensions>
      </trkpt>
      <trkpt lat="52.1773420460522174835205078125" lon="1.581563539803028106689453125">
        <ele>-67.40000152587890625</ele>
        <time>2025-09-06T12:55:15.000Z</time>
        <extensions>
          <ns3:TrackPointExtension>
            <ns3:hr>154</ns3:hr>
            <ns3:cad>60</ns3:cad>
          </ns3:TrackPointExtension>
        </extensions>
      </trkpt>
      <trkpt lat="52.1773271262645721435546875" lon="1.58163067884743213653564453125">
        <ele>-68.40000152587890625</ele>
        <time>2025-09-06T12:55:18.000Z</time>
        <extensions>
          <ns3:TrackPointExtension>
            <ns3:hr>151</ns3:hr>
            <ns3:cad>60</ns3:cad>
          </ns3:TrackPointExtension>
        </extensions>
      </trkpt>
      <trkpt lat="52.177323438227176666259765625" lon="1.5816552378237247467041015625">
        <ele>-68.59999847412109375</ele>
        <time>2025-09-06T12:55:19.000Z</time>
        <extensions>
          <ns3:TrackPointExtension>
            <ns3:hr>150</ns3:hr>
            <ns3:cad>61</ns3:cad>
          </ns3:TrackPointExtension>
        </extensions>
      </trkpt>
      <trkpt lat="52.17730575241148471832275390625" lon="1.5817246399819850921630859375">
        <ele>-69.59999847412109375</ele>
        <time>2025-09-06T12:55:22.000Z</time>
        <extensions>
          <ns3:TrackPointExtension>
            <ns3:hr>149</ns3:hr>
            <ns3:cad>61</ns3:cad>
          </ns3:TrackPointExtension>
        </extensions>
      </trkpt>
      <trkpt lat="52.1773034892976284027099609375" lon="1.58174701966345310211181640625">
        <ele>-70</ele>
        <time>2025-09-06T12:55:23.000Z</time>
        <extensions>
          <ns3:TrackPointExtension>
            <ns3:hr>150</ns3:hr>
            <ns3:cad>60</ns3:cad>
          </ns3:TrackPointExtension>
        </extensions>
      </trkpt>
      <trkpt lat="52.17728781513869762420654296875" lon="1.58184927888214588165283203125">
        <ele>-71.1999969482421875</ele>
        <time>2025-09-06T12:55:27.000Z</time>
        <extensions>
          <ns3:TrackPointExtension>
            <ns3:hr>151</ns3:hr>
            <ns3:cad>60</ns3:cad>
          </ns3:TrackPointExtension>
        </extensions>
      </trkpt>
      <trkpt lat="52.1772820316255092620849609375" lon="1.5819298289716243743896484375">
        <ele>-72.1999969482421875</ele>
        <time>2025-09-06T12:55:30.000Z</time>
        <extensions>
          <ns3:TrackPointExtension>
            <ns3:hr>149</ns3:hr>
            <ns3:cad>61</ns3:cad>
          </ns3:TrackPointExtension>
        </extensions>
      </trkpt>
      <trkpt lat="52.177279852330684661865234375" lon="1.5819548070430755615234375">
        <ele>-72.40000152587890625</ele>
        <time>2025-09-06T12:55:31.000Z</time>
        <extensions>
          <ns3:TrackPointExtension>
            <ns3:hr>149</ns3:hr>
            <ns3:cad>60</ns3:cad>
          </ns3:TrackPointExtension>
        </extensions>
      </trkpt>
      <trkpt lat="52.17727683484554290771484375" lon="1.58206402324140071868896484375">
        <ele>-73.59999847412109375</ele>
        <time>2025-09-06T12:55:35.000Z</time>
        <extensions>
          <ns3:TrackPointExtension>
            <ns3:hr>148</ns3:hr>
            <ns3:cad>60</ns3:cad>
          </ns3:TrackPointExtension>
        </extensions>
      </trkpt>
      <trkpt lat="52.17727742157876491546630859375" lon="1.582103334367275238037109375">
        <ele>-74.1999969482421875</ele>
        <time>2025-09-06T12:55:37.000Z</time>
        <extensions>
          <ns3:TrackPointExtension>
            <ns3:hr>146</ns3:hr>
            <ns3:cad>0</ns3:cad>
          </ns3:TrackPointExtension>
        </extensions>
      </trkpt>
      <trkpt lat="52.17727842740714550018310546875" lon="1.5821306593716144561767578125">
        <ele>-74.8000030517578125</ele>
        <time>2025-09-06T12:55:39.000Z</time>
        <extensions>
          <ns3:TrackPointExtension>
            <ns3:hr>146</ns3:hr>
            <ns3:cad>58</ns3:cad>
          </ns3:TrackPointExtension>
        </extensions>
      </trkpt>
      <trkpt lat="52.177272140979766845703125" lon="1.58221623860299587249755859375">
        <ele>-75.8000030517578125</ele>
        <time>2025-09-06T12:55:43.000Z</time>
        <extensions>
          <ns3:TrackPointExtension>
            <ns3:hr>146</ns3:hr>
            <ns3:cad>59</ns3:cad>
          </ns3:TrackPointExtension>
        </extensions>
      </trkpt>
      <trkpt lat="52.17726551927626132965087890625" lon="1.5822667814791202545166015625">
        <ele>-76.1999969482421875</ele>
        <time>2025-09-06T12:55:45.000Z</time>
        <extensions>
          <ns3:TrackPointExtension>
            <ns3:hr>146</ns3:hr>
            <ns3:cad>59</ns3:cad>
          </ns3:TrackPointExtension>
        </extensions>
      </trkpt>
      <trkpt lat="52.1772582270205020904541015625" lon="1.58234129659831523895263671875">
        <ele>-77</ele>
        <time>2025-09-06T12:55:48.000Z</time>
        <extensions>
          <ns3:TrackPointExtension>
            <ns3:hr>144</ns3:hr>
            <ns3:cad>59</ns3:cad>
          </ns3:TrackPointExtension>
        </extensions>
      </trkpt>
      <trkpt lat="52.17725093476474285125732421875" lon="1.582427881658077239990234375">
        <ele>-77.59999847412109375</ele>
        <time>2025-09-06T12:55:51.000Z</time>
        <extensions>
          <ns3:TrackPointExtension>
            <ns3:hr>141</ns3:hr>
            <ns3:cad>60</ns3:cad>
          </ns3:TrackPointExtension>
        </extensions>
      </trkpt>
      <trkpt lat="52.17725009657442569732666015625" lon="1.5824565477669239044189453125">
        <ele>-77.8000030517578125</ele>
        <time>2025-09-06T12:55:52.000Z</time>
        <extensions>
          <ns3:TrackPointExtension>
            <ns3:hr>140</ns3:hr>
            <ns3:cad>61</ns3:cad>
          </ns3:TrackPointExtension>
        </extensions>
      </trkpt>
      <trkpt lat="52.17725269496440887451171875" lon="1.582486219704151153564453125">
        <ele>-78</ele>
        <time>2025-09-06T12:55:53.000Z</time>
        <extensions>
          <ns3:TrackPointExtension>
            <ns3:hr>141</ns3:hr>
            <ns3:cad>61</ns3:cad>
          </ns3:TrackPointExtension>
        </extensions>
      </trkpt>
      <trkpt lat="52.17720533721148967742919921875" lon="1.58258856274187564849853515625">
        <ele>-79</ele>
        <time>2025-09-06T12:55:58.000Z</time>
        <extensions>
          <ns3:TrackPointExtension>
            <ns3:hr>144</ns3:hr>
            <ns3:cad>60</ns3:cad>
          </ns3:TrackPointExtension>
        </extensions>
      </trkpt>
      <trkpt lat="52.177202403545379638671875" lon="1.58260666765272617340087890625">
        <ele>-79</ele>
        <time>2025-09-06T12:55:59.000Z</time>
        <extensions>
          <ns3:TrackPointExtension>
            <ns3:hr>143</ns3:hr>
            <ns3:cad>60</ns3:cad>
          </ns3:TrackPointExtension>
        </extensions>
      </trkpt>
      <trkpt lat="52.17720952816307544708251953125" lon="1.5827324800193309783935546875">
        <ele>-80.1999969482421875</ele>
        <time>2025-09-06T12:56:05.000Z</time>
        <extensions>
          <ns3:TrackPointExtension>
            <ns3:hr>146</ns3:hr>
            <ns3:cad>60</ns3:cad>
          </ns3:TrackPointExtension>
        </extensions>
      </trkpt>
      <trkpt lat="52.17721120454370975494384765625" lon="1.582755111157894134521484375">
        <ele>-80.40000152587890625</ele>
        <time>2025-09-06T12:56:06.000Z</time>
        <extensions>
          <ns3:TrackPointExtension>
            <ns3:hr>144</ns3:hr>
            <ns3:cad>60</ns3:cad>
          </ns3:TrackPointExtension>
        </extensions>
      </trkpt>
      <trkpt lat="52.1772171556949615478515625" lon="1.5828622318804264068603515625">
        <ele>-81.1999969482421875</ele>
        <time>2025-09-06T12:56:11.000Z</time>
        <extensions>
          <ns3:TrackPointExtension>
            <ns3:hr>143</ns3:hr>
            <ns3:cad>60</ns3:cad>
          </ns3:TrackPointExtension>
        </extensions>
      </trkpt>
      <trkpt lat="52.1771951951086521148681640625" lon="1.5829856134951114654541015625">
        <ele>-82</ele>
        <time>2025-09-06T12:56:16.000Z</time>
        <extensions>
          <ns3:TrackPointExtension>
            <ns3:hr>143</ns3:hr>
            <ns3:cad>60</ns3:cad>
          </ns3:TrackPointExtension>
        </extensions>
      </trkpt>
      <trkpt lat="52.17717063613235950469970703125" lon="1.5830734558403491973876953125">
        <ele>-82.1999969482421875</ele>
        <time>2025-09-06T12:56:19.000Z</time>
        <extensions>
          <ns3:TrackPointExtension>
            <ns3:hr>146</ns3:hr>
            <ns3:cad>61</ns3:cad>
          </ns3:TrackPointExtension>
        </extensions>
      </trkpt>
      <trkpt lat="52.17715672217309474945068359375" lon="1.58316859044134616851806640625">
        <ele>-82</ele>
        <time>2025-09-06T12:56:22.000Z</time>
        <extensions>
          <ns3:TrackPointExtension>
            <ns3:hr>151</ns3:hr>
            <ns3:cad>61</ns3:cad>
          </ns3:TrackPointExtension>
        </extensions>
      </trkpt>
      <trkpt lat="52.1771321631968021392822265625" lon="1.5833388268947601318359375">
        <ele>-81.40000152587890625</ele>
        <time>2025-09-06T12:56:28.000Z</time>
        <extensions>
          <ns3:TrackPointExtension>
            <ns3:hr>148</ns3:hr>
            <ns3:cad>120</ns3:cad>
          </ns3:TrackPointExtension>
        </extensions>
      </trkpt>
      <trkpt lat="52.17712738551199436187744140625" lon="1.5833658166229724884033203125">
        <ele>-81.40000152587890625</ele>
        <time>2025-09-06T12:56:29.000Z</time>
        <extensions>
          <ns3:TrackPointExtension>
            <ns3:hr>148</ns3:hr>
            <ns3:cad>61</ns3:cad>
          </ns3:TrackPointExtension>
        </extensions>
      </trkpt>
      <trkpt lat="52.177108861505985260009765625" lon="1.58355080522596836090087890625">
        <ele>-81</ele>
        <time>2025-09-06T12:56:37.000Z</time>
        <extensions>
          <ns3:TrackPointExtension>
            <ns3:hr>148</ns3:hr>
            <ns3:cad>63</ns3:cad>
          </ns3:TrackPointExtension>
        </extensions>
      </trkpt>
      <trkpt lat="52.177116237580776214599609375" lon="1.58366672694683074951171875">
        <ele>-81</ele>
        <time>2025-09-06T12:56:43.000Z</time>
        <extensions>
          <ns3:TrackPointExtension>
            <ns3:hr>149</ns3:hr>
            <ns3:cad>59</ns3:cad>
          </ns3:TrackPointExtension>
        </extensions>
      </trkpt>
      <trkpt lat="52.17711766250431537628173828125" lon="1.58380477689206600189208984375">
        <ele>-81.1999969482421875</ele>
        <time>2025-09-06T12:56:50.000Z</time>
        <extensions>
          <ns3:TrackPointExtension>
            <ns3:hr>146</ns3:hr>
            <ns3:cad>58</ns3:cad>
          </ns3:TrackPointExtension>
        </extensions>
      </trkpt>
      <trkpt lat="52.177116908133029937744140625" lon="1.58382623456418514251708984375">
        <ele>-81.40000152587890625</ele>
        <time>2025-09-06T12:56:51.000Z</time>
        <extensions>
          <ns3:TrackPointExtension>
            <ns3:hr>147</ns3:hr>
            <ns3:cad>58</ns3:cad>
          </ns3:TrackPointExtension>
        </extensions>
      </trkpt>
      <trkpt lat="52.17709989286959171295166015625" lon="1.58394894562661647796630859375">
        <ele>-81.8000030517578125</ele>
        <time>2025-09-06T12:56:57.000Z</time>
        <extensions>
          <ns3:TrackPointExtension>
            <ns3:hr>146</ns3:hr>
            <ns3:cad>53</ns3:cad>
          </ns3:TrackPointExtension>
        </extensions>
      </trkpt>
      <trkpt lat="52.1770865656435489654541015625" lon="1.58401683904230594635009765625">
        <ele>-82.1999969482421875</ele>
        <time>2025-09-06T12:57:00.000Z</time>
        <extensions>
          <ns3:TrackPointExtension>
            <ns3:hr>146</ns3:hr>
            <ns3:cad>56</ns3:cad>
          </ns3:TrackPointExtension>
        </extensions>
      </trkpt>
      <trkpt lat="52.17708597891032695770263671875" lon="1.5840574912726879119873046875">
        <ele>-82.40000152587890625</ele>
        <time>2025-09-06T12:57:02.000Z</time>
        <extensions>
          <ns3:TrackPointExtension>
            <ns3:hr>143</ns3:hr>
            <ns3:cad>56</ns3:cad>
          </ns3:TrackPointExtension>
        </extensions>
      </trkpt>
      <trkpt lat="52.17708715237677097320556640625" lon="1.58408037386834621429443359375">
        <ele>-82.59999847412109375</ele>
        <time>2025-09-06T12:57:03.000Z</time>
        <extensions>
          <ns3:TrackPointExtension>
            <ns3:hr>141</ns3:hr>
            <ns3:cad>56</ns3:cad>
          </ns3:TrackPointExtension>
        </extensions>
      </trkpt>
      <trkpt lat="52.17710383236408233642578125" lon="1.5842435695230960845947265625">
        <ele>-83.1999969482421875</ele>
        <time>2025-09-06T12:57:09.000Z</time>
        <extensions>
          <ns3:TrackPointExtension>
            <ns3:hr>143</ns3:hr>
            <ns3:cad>58</ns3:cad>
          </ns3:TrackPointExtension>
        </extensions>
      </trkpt>
      <trkpt lat="52.17710508964955806732177734375" lon="1.58432194031774997711181640625">
        <ele>-83.40000152587890625</ele>
        <time>2025-09-06T12:57:11.000Z</time>
        <extensions>
          <ns3:TrackPointExtension>
            <ns3:hr>143</ns3:hr>
            <ns3:cad>74</ns3:cad>
          </ns3:TrackPointExtension>
        </extensions>
      </trkpt>
      <trkpt lat="52.1771140582859516143798828125" lon="1.58441548235714435577392578125">
        <ele>-83.8000030517578125</ele>
        <time>2025-09-06T12:57:14.000Z</time>
        <extensions>
          <ns3:TrackPointExtension>
            <ns3:hr>146</ns3:hr>
            <ns3:cad>78</ns3:cad>
          </ns3:TrackPointExtension>
        </extensions>
      </trkpt>
      <trkpt lat="52.17711925506591796875" lon="1.58444783650338649749755859375">
        <ele>-84</ele>
        <time>2025-09-06T12:57:15.000Z</time>
        <extensions>
          <ns3:TrackPointExtension>
            <ns3:hr>150</ns3:hr>
            <ns3:cad>79</ns3:cad>
          </ns3:TrackPointExtension>
        </extensions>
      </trkpt>
      <trkpt lat="52.177126966416835784912109375" lon="1.58450818620622158050537109375">
        <ele>-84.1999969482421875</ele>
        <time>2025-09-06T12:57:17.000Z</time>
        <extensions>
          <ns3:TrackPointExtension>
            <ns3:hr>155</ns3:hr>
            <ns3:cad>80</ns3:cad>
          </ns3:TrackPointExtension>
        </extensions>
      </trkpt>
      <trkpt lat="52.177131660282611846923828125" lon="1.5845426358282566070556640625">
        <ele>-84.1999969482421875</ele>
        <time>2025-09-06T12:57:18.000Z</time>
        <extensions>
          <ns3:TrackPointExtension>
            <ns3:hr>156</ns3:hr>
            <ns3:cad>80</ns3:cad>
          </ns3:TrackPointExtension>
        </extensions>
      </trkpt>
      <trkpt lat="52.17713710851967334747314453125" lon="1.58457331359386444091796875">
        <ele>-84.40000152587890625</ele>
        <time>2025-09-06T12:57:19.000Z</time>
        <extensions>
          <ns3:TrackPointExtension>
            <ns3:hr>159</ns3:hr>
            <ns3:cad>79</ns3:cad>
          </ns3:TrackPointExtension>
        </extensions>
      </trkpt>
      <trkpt lat="52.17714582569897174835205078125" lon="1.584782190620899200439453125">
        <ele>-84.8000030517578125</ele>
        <time>2025-09-06T12:57:25.000Z</time>
        <extensions>
          <ns3:TrackPointExtension>
            <ns3:hr>163</ns3:hr>
            <ns3:cad>79</ns3:cad>
          </ns3:TrackPointExtension>
        </extensions>
      </trkpt>
      <trkpt lat="52.177150435745716094970703125" lon="1.584883444011211395263671875">
        <ele>-84.8000030517578125</ele>
        <time>2025-09-06T12:57:28.000Z</time>
        <extensions>
          <ns3:TrackPointExtension>
            <ns3:hr>164</ns3:hr>
            <ns3:cad>80</ns3:cad>
          </ns3:TrackPointExtension>
        </extensions>
      </trkpt>
      <trkpt lat="52.17715219594538211822509765625" lon="1.5849503315985202789306640625">
        <ele>-85</ele>
        <time>2025-09-06T12:57:30.000Z</time>
        <extensions>
          <ns3:TrackPointExtension>
            <ns3:hr>167</ns3:hr>
            <ns3:cad>80</ns3:cad>
          </ns3:TrackPointExtension>
        </extensions>
      </trkpt>
      <trkpt lat="52.17715504579246044158935546875" lon="1.5851278603076934814453125">
        <ele>-85</ele>
        <time>2025-09-06T12:57:35.000Z</time>
        <extensions>
          <ns3:TrackPointExtension>
            <ns3:hr>167</ns3:hr>
            <ns3:cad>78</ns3:cad>
          </ns3:TrackPointExtension>
        </extensions>
      </trkpt>
      <trkpt lat="52.1771549619734287261962890625" lon="1.585240848362445831298828125">
        <ele>-85</ele>
        <time>2025-09-06T12:57:38.000Z</time>
        <extensions>
          <ns3:TrackPointExtension>
            <ns3:hr>164</ns3:hr>
            <ns3:cad>78</ns3:cad>
          </ns3:TrackPointExtension>
        </extensions>
      </trkpt>
      <trkpt lat="52.17714163474738597869873046875" lon="1.58537621609866619110107421875">
        <ele>-84.8000030517578125</ele>
        <time>2025-09-06T12:57:42.000Z</time>
        <extensions>
          <ns3:TrackPointExtension>
            <ns3:hr>165</ns3:hr>
            <ns3:cad>79</ns3:cad>
          </ns3:TrackPointExtension>
        </extensions>
      </trkpt>
      <trkpt lat="52.17715077102184295654296875" lon="1.5855058841407299041748046875">
        <ele>-84.8000030517578125</ele>
        <time>2025-09-06T12:57:46.000Z</time>
        <extensions>
          <ns3:TrackPointExtension>
            <ns3:hr>168</ns3:hr>
            <ns3:cad>80</ns3:cad>
          </ns3:TrackPointExtension>
        </extensions>
      </trkpt>
      <trkpt lat="52.17715471051633358001708984375" lon="1.58560940064489841461181640625">
        <ele>-84.59999847412109375</ele>
        <time>2025-09-06T12:57:49.000Z</time>
        <extensions>
          <ns3:TrackPointExtension>
            <ns3:hr>166</ns3:hr>
            <ns3:cad>80</ns3:cad>
          </ns3:TrackPointExtension>
        </extensions>
      </trkpt>
      <trkpt lat="52.1771688759326934814453125" lon="1.585894636809825897216796875">
        <ele>-84.1999969482421875</ele>
        <time>2025-09-06T12:57:57.000Z</time>
        <extensions>
          <ns3:TrackPointExtension>
            <ns3:hr>168</ns3:hr>
            <ns3:cad>81</ns3:cad>
          </ns3:TrackPointExtension>
        </extensions>
      </trkpt>
      <trkpt lat="52.17720081098377704620361328125" lon="1.58609018661081790924072265625">
        <ele>-84</ele>
        <time>2025-09-06T12:58:03.000Z</time>
        <extensions>
          <ns3:TrackPointExtension>
            <ns3:hr>168</ns3:hr>
            <ns3:cad>80</ns3:cad>
          </ns3:TrackPointExtension>
        </extensions>
      </trkpt>
      <trkpt lat="52.17720483429729938507080078125" lon="1.58631666563451290130615234375">
        <ele>-83.59999847412109375</ele>
        <time>2025-09-06T12:58:10.000Z</time>
        <extensions>
          <ns3:TrackPointExtension>
            <ns3:hr>170</ns3:hr>
            <ns3:cad>80</ns3:cad>
          </ns3:TrackPointExtension>
        </extensions>
      </trkpt>
      <trkpt lat="52.17720952816307544708251953125" lon="1.5864557214081287384033203125">
        <ele>-83.40000152587890625</ele>
        <time>2025-09-06T12:58:14.000Z</time>
        <extensions>
          <ns3:TrackPointExtension>
            <ns3:hr>173</ns3:hr>
            <ns3:cad>80</ns3:cad>
          </ns3:TrackPointExtension>
        </extensions>
      </trkpt>
      <trkpt lat="52.1772119589149951934814453125" lon="1.586606092751026153564453125">
        <ele>-83.40000152587890625</ele>
        <time>2025-09-06T12:58:19.000Z</time>
        <extensions>
          <ns3:TrackPointExtension>
            <ns3:hr>171</ns3:hr>
            <ns3:cad>80</ns3:cad>
          </ns3:TrackPointExtension>
        </extensions>
      </trkpt>
      <trkpt lat="52.1772117912769317626953125" lon="1.5868121199309825897216796875">
        <ele>-83.40000152587890625</ele>
        <time>2025-09-06T12:58:26.000Z</time>
        <extensions>
          <ns3:TrackPointExtension>
            <ns3:hr>170</ns3:hr>
            <ns3:cad>80</ns3:cad>
          </ns3:TrackPointExtension>
        </extensions>
      </trkpt>
      <trkpt lat="52.17720399610698223114013671875" lon="1.5869717113673686981201171875">
        <ele>-83.40000152587890625</ele>
        <time>2025-09-06T12:58:30.000Z</time>
        <extensions>
          <ns3:TrackPointExtension>
            <ns3:hr>173</ns3:hr>
            <ns3:cad>82</ns3:cad>
          </ns3:TrackPointExtension>
        </extensions>
      </trkpt>
      <trkpt lat="52.17719972133636474609375" lon="1.58709484152495861053466796875">
        <ele>-83.40000152587890625</ele>
        <time>2025-09-06T12:58:33.000Z</time>
        <extensions>
          <ns3:TrackPointExtension>
            <ns3:hr>174</ns3:hr>
            <ns3:cad>82</ns3:cad>
          </ns3:TrackPointExtension>
        </extensions>
      </trkpt>
      <trkpt lat="52.177256047725677490234375" lon="1.5872657485306262969970703125">
        <ele>-83.40000152587890625</ele>
        <time>2025-09-06T12:58:39.000Z</time>
        <extensions>
          <ns3:TrackPointExtension>
            <ns3:hr>171</ns3:hr>
            <ns3:cad>80</ns3:cad>
          </ns3:TrackPointExtension>
        </extensions>
      </trkpt>
      <trkpt lat="52.1772635914385318756103515625" lon="1.587292738258838653564453125">
        <ele>-83.40000152587890625</ele>
        <time>2025-09-06T12:58:40.000Z</time>
        <extensions>
          <ns3:TrackPointExtension>
            <ns3:hr>171</ns3:hr>
            <ns3:cad>80</ns3:cad>
          </ns3:TrackPointExtension>
        </extensions>
      </trkpt>
      <trkpt lat="52.1773271262645721435546875" lon="1.58753271214663982391357421875">
        <ele>-83.40000152587890625</ele>
        <time>2025-09-06T12:58:49.000Z</time>
        <extensions>
          <ns3:TrackPointExtension>
            <ns3:hr>168</ns3:hr>
            <ns3:cad>81</ns3:cad>
          </ns3:TrackPointExtension>
        </extensions>
      </trkpt>
      <trkpt lat="52.17732779681682586669921875" lon="1.58760161139070987701416015625">
        <ele>-83.40000152587890625</ele>
        <time>2025-09-06T12:58:51.000Z</time>
        <extensions>
          <ns3:TrackPointExtension>
            <ns3:hr>165</ns3:hr>
            <ns3:cad>80</ns3:cad>
          </ns3:TrackPointExtension>
        </extensions>
      </trkpt>
      <trkpt lat="52.17735906131565570831298828125" lon="1.58783353865146636962890625">
        <ele>-83.40000152587890625</ele>
        <time>2025-09-06T12:58:57.000Z</time>
        <extensions>
          <ns3:TrackPointExtension>
            <ns3:hr>166</ns3:hr>
            <ns3:cad>80</ns3:cad>
          </ns3:TrackPointExtension>
        </extensions>
      </trkpt>
      <trkpt lat="52.17741304077208042144775390625" lon="1.5880841575562953948974609375">
        <ele>-83.40000152587890625</ele>
        <time>2025-09-06T12:59:05.000Z</time>
        <extensions>
          <ns3:TrackPointExtension>
            <ns3:hr>165</ns3:hr>
            <ns3:cad>80</ns3:cad>
          </ns3:TrackPointExtension>
        </extensions>
      </trkpt>
      <trkpt lat="52.17746417038142681121826171875" lon="1.5883852355182170867919921875">
        <ele>-83.40000152587890625</ele>
        <time>2025-09-06T12:59:14.000Z</time>
        <extensions>
          <ns3:TrackPointExtension>
            <ns3:hr>166</ns3:hr>
            <ns3:cad>81</ns3:cad>
          </ns3:TrackPointExtension>
        </extensions>
      </trkpt>
      <trkpt lat="52.177465595304965972900390625" lon="1.588420607149600982666015625">
        <ele>-83.40000152587890625</ele>
        <time>2025-09-06T12:59:15.000Z</time>
        <extensions>
          <ns3:TrackPointExtension>
            <ns3:hr>167</ns3:hr>
            <ns3:cad>81</ns3:cad>
          </ns3:TrackPointExtension>
        </extensions>
      </trkpt>
      <trkpt lat="52.17749015428125858306884765625" lon="1.5884993970394134521484375">
        <ele>-83.40000152587890625</ele>
        <time>2025-09-06T12:59:18.000Z</time>
        <extensions>
          <ns3:TrackPointExtension>
            <ns3:hr>164</ns3:hr>
            <ns3:cad>78</ns3:cad>
          </ns3:TrackPointExtension>
        </extensions>
      </trkpt>
      <trkpt lat="52.177489064633846282958984375" lon="1.58858497627079486846923828125">
        <ele>-83.40000152587890625</ele>
        <time>2025-09-06T12:59:21.000Z</time>
        <extensions>
          <ns3:TrackPointExtension>
            <ns3:hr>165</ns3:hr>
            <ns3:cad>79</ns3:cad>
          </ns3:TrackPointExtension>
        </extensions>
      </trkpt>
      <trkpt lat="52.17750423587858676910400390625" lon="1.58883743919432163238525390625">
        <ele>-83.40000152587890625</ele>
        <time>2025-09-06T12:59:28.000Z</time>
        <extensions>
          <ns3:TrackPointExtension>
            <ns3:hr>165</ns3:hr>
            <ns3:cad>80</ns3:cad>
          </ns3:TrackPointExtension>
        </extensions>
      </trkpt>
      <trkpt lat="52.1775542758405208587646484375" lon="1.5890812687575817108154296875">
        <ele>-83.40000152587890625</ele>
        <time>2025-09-06T12:59:36.000Z</time>
        <extensions>
          <ns3:TrackPointExtension>
            <ns3:hr>165</ns3:hr>
            <ns3:cad>80</ns3:cad>
          </ns3:TrackPointExtension>
        </extensions>
      </trkpt>
      <trkpt lat="52.17753969132900238037109375" lon="1.5891754813492298126220703125">
        <ele>-83.40000152587890625</ele>
        <time>2025-09-06T12:59:43.000Z</time>
        <extensions>
          <ns3:TrackPointExtension>
            <ns3:hr>166</ns3:hr>
            <ns3:cad>0</ns3:cad>
          </ns3:TrackPointExtension>
        </extensions>
      </trkpt>
      <trkpt lat="52.177522592246532440185546875" lon="1.58922493457794189453125">
        <ele>-83.1999969482421875</ele>
        <time>2025-09-06T12:59:46.000Z</time>
        <extensions>
          <ns3:TrackPointExtension>
            <ns3:hr>166</ns3:hr>
            <ns3:cad>55</ns3:cad>
          </ns3:TrackPointExtension>
        </extensions>
      </trkpt>
      <trkpt lat="52.1775177307426929473876953125" lon="1.5892797522246837615966796875">
        <ele>-83.1999969482421875</ele>
        <time>2025-09-06T12:59:49.000Z</time>
        <extensions>
          <ns3:TrackPointExtension>
            <ns3:hr>163</ns3:hr>
            <ns3:cad>56</ns3:cad>
          </ns3:TrackPointExtension>
        </extensions>
      </trkpt>
      <trkpt lat="52.17751932330429553985595703125" lon="1.58929559402167797088623046875">
        <ele>-83.1999969482421875</ele>
        <time>2025-09-06T12:59:50.000Z</time>
        <extensions>
          <ns3:TrackPointExtension>
            <ns3:hr>164</ns3:hr>
            <ns3:cad>58</ns3:cad>
          </ns3:TrackPointExtension>
        </extensions>
      </trkpt>
      <trkpt lat="52.1775130368769168853759765625" lon="1.58942501060664653778076171875">
        <ele>-82.8000030517578125</ele>
        <time>2025-09-06T12:59:59.000Z</time>
        <extensions>
          <ns3:TrackPointExtension>
            <ns3:hr>164</ns3:hr>
            <ns3:cad>59</ns3:cad>
          </ns3:TrackPointExtension>
        </extensions>
      </trkpt>
      <trkpt lat="52.17748068273067474365234375" lon="1.5895466320216655731201171875">
        <ele>-82.59999847412109375</ele>
        <time>2025-09-06T13:00:03.000Z</time>
        <extensions>
          <ns3:TrackPointExtension>
            <ns3:hr>163</ns3:hr>
            <ns3:cad>59</ns3:cad>
          </ns3:TrackPointExtension>
        </extensions>
      </trkpt>
      <trkpt lat="52.17744405381381511688232421875" lon="1.58964528702199459075927734375">
        <ele>-82.59999847412109375</ele>
        <time>2025-09-06T13:00:06.000Z</time>
        <extensions>
          <ns3:TrackPointExtension>
            <ns3:hr>163</ns3:hr>
            <ns3:cad>77</ns3:cad>
          </ns3:TrackPointExtension>
        </extensions>
      </trkpt>
      <trkpt lat="52.177444808185100555419921875" lon="1.5897933952510356903076171875">
        <ele>-82.40000152587890625</ele>
        <time>2025-09-06T13:00:10.000Z</time>
        <extensions>
          <ns3:TrackPointExtension>
            <ns3:hr>166</ns3:hr>
            <ns3:cad>80</ns3:cad>
          </ns3:TrackPointExtension>
        </extensions>
      </trkpt>
      <trkpt lat="52.17747104354202747344970703125" lon="1.58982935361564159393310546875">
        <ele>-82.40000152587890625</ele>
        <time>2025-09-06T13:00:11.000Z</time>
        <extensions>
          <ns3:TrackPointExtension>
            <ns3:hr>170</ns3:hr>
            <ns3:cad>80</ns3:cad>
          </ns3:TrackPointExtension>
        </extensions>
      </trkpt>
      <trkpt lat="52.17746215872466564178466796875" lon="1.58990244381129741668701171875">
        <ele>-82.40000152587890625</ele>
        <time>2025-09-06T13:00:13.000Z</time>
        <extensions>
          <ns3:TrackPointExtension>
            <ns3:hr>173</ns3:hr>
            <ns3:cad>81</ns3:cad>
          </ns3:TrackPointExtension>
        </extensions>
      </trkpt>
      <trkpt lat="52.17746190726757049560546875" lon="1.589935719966888427734375">
        <ele>-82.40000152587890625</ele>
        <time>2025-09-06T13:00:14.000Z</time>
        <extensions>
          <ns3:TrackPointExtension>
            <ns3:hr>174</ns3:hr>
            <ns3:cad>81</ns3:cad>
          </ns3:TrackPointExtension>
        </extensions>
      </trkpt>
      <trkpt lat="52.177445478737354278564453125" lon="1.5901945531368255615234375">
        <ele>-82.59999847412109375</ele>
        <time>2025-09-06T13:00:22.000Z</time>
        <extensions>
          <ns3:TrackPointExtension>
            <ns3:hr>177</ns3:hr>
            <ns3:cad>80</ns3:cad>
          </ns3:TrackPointExtension>
        </extensions>
      </trkpt>
      <trkpt lat="52.17743349261581897735595703125" lon="1.5904377959668636322021484375">
        <ele>-82.8000030517578125</ele>
        <time>2025-09-06T13:00:32.000Z</time>
        <extensions>
          <ns3:TrackPointExtension>
            <ns3:hr>177</ns3:hr>
            <ns3:cad>81</ns3:cad>
          </ns3:TrackPointExtension>
        </extensions>
      </trkpt>
      <trkpt lat="52.17748043127357959747314453125" lon="1.59065899439156055450439453125">
        <ele>-82.8000030517578125</ele>
        <time>2025-09-06T13:00:40.000Z</time>
        <extensions>
          <ns3:TrackPointExtension>
            <ns3:hr>177</ns3:hr>
            <ns3:cad>81</ns3:cad>
          </ns3:TrackPointExtension>
        </extensions>
      </trkpt>
      <trkpt lat="52.17750239185988903045654296875" lon="1.590994186699390411376953125">
        <ele>-82.8000030517578125</ele>
        <time>2025-09-06T13:00:49.000Z</time>
        <extensions>
          <ns3:TrackPointExtension>
            <ns3:hr>177</ns3:hr>
            <ns3:cad>81</ns3:cad>
          </ns3:TrackPointExtension>
        </extensions>
      </trkpt>
      <trkpt lat="52.17751127667725086212158203125" lon="1.5910902433097362518310546875">
        <ele>-82.8000030517578125</ele>
        <time>2025-09-06T13:00:51.000Z</time>
        <extensions>
          <ns3:TrackPointExtension>
            <ns3:hr>176</ns3:hr>
            <ns3:cad>80</ns3:cad>
          </ns3:TrackPointExtension>
        </extensions>
      </trkpt>
      <trkpt lat="52.17743785120546817779541015625" lon="1.59139760769903659820556640625">
        <ele>-82.8000030517578125</ele>
        <time>2025-09-06T13:00:57.000Z</time>
        <extensions>
          <ns3:TrackPointExtension>
            <ns3:hr>175</ns3:hr>
            <ns3:cad>81</ns3:cad>
          </ns3:TrackPointExtension>
        </extensions>
      </trkpt>
      <trkpt lat="52.1773497574031352996826171875" lon="1.591668426990509033203125">
        <ele>-82.8000030517578125</ele>
        <time>2025-09-06T13:01:02.000Z</time>
        <extensions>
          <ns3:TrackPointExtension>
            <ns3:hr>175</ns3:hr>
            <ns3:cad>79</ns3:cad>
          </ns3:TrackPointExtension>
        </extensions>
      </trkpt>
      <trkpt lat="52.17732519842684268951416015625" lon="1.59177060239017009735107421875">
        <ele>-82.59999847412109375</ele>
        <time>2025-09-06T13:01:05.000Z</time>
        <extensions>
          <ns3:TrackPointExtension>
            <ns3:hr>176</ns3:hr>
            <ns3:cad>81</ns3:cad>
          </ns3:TrackPointExtension>
        </extensions>
      </trkpt>
      <trkpt lat="52.17732109129428863525390625" lon="1.59187696874141693115234375">
        <ele>-82.1999969482421875</ele>
        <time>2025-09-06T13:01:09.000Z</time>
        <extensions>
          <ns3:TrackPointExtension>
            <ns3:hr>174</ns3:hr>
            <ns3:cad>81</ns3:cad>
          </ns3:TrackPointExtension>
        </extensions>
      </trkpt>
      <trkpt lat="52.17732151038944721221923828125" lon="1.59190940670669078826904296875">
        <ele>-81.8000030517578125</ele>
        <time>2025-09-06T13:01:11.000Z</time>
        <extensions>
          <ns3:TrackPointExtension>
            <ns3:hr>173</ns3:hr>
            <ns3:cad>81</ns3:cad>
          </ns3:TrackPointExtension>
        </extensions>
      </trkpt>
      <trkpt lat="52.1773169003427028656005859375" lon="1.59206950105726718902587890625">
        <ele>-81</ele>
        <time>2025-09-06T13:01:17.000Z</time>
        <extensions>
          <ns3:TrackPointExtension>
            <ns3:hr>171</ns3:hr>
            <ns3:cad>61</ns3:cad>
          </ns3:TrackPointExtension>
        </extensions>
      </trkpt>
      <trkpt lat="52.17731983400881290435791015625" lon="1.5921004302799701690673828125">
        <ele>-80.8000030517578125</ele>
        <time>2025-09-06T13:01:18.000Z</time>
        <extensions>
          <ns3:TrackPointExtension>
            <ns3:hr>171</ns3:hr>
            <ns3:cad>63</ns3:cad>
          </ns3:TrackPointExtension>
        </extensions>
      </trkpt>
      <trkpt lat="52.17732645571231842041015625" lon="1.59216254018247127532958984375">
        <ele>-80.59999847412109375</ele>
        <time>2025-09-06T13:01:20.000Z</time>
        <extensions>
          <ns3:TrackPointExtension>
            <ns3:hr>171</ns3:hr>
            <ns3:cad>63</ns3:cad>
          </ns3:TrackPointExtension>
        </extensions>
      </trkpt>
      <trkpt lat="52.177341878414154052734375" lon="1.59225507639348506927490234375">
        <ele>-80.40000152587890625</ele>
        <time>2025-09-06T13:01:24.000Z</time>
        <extensions>
          <ns3:TrackPointExtension>
            <ns3:hr>171</ns3:hr>
            <ns3:cad>60</ns3:cad>
          </ns3:TrackPointExtension>
        </extensions>
      </trkpt>
      <trkpt lat="52.1773477457463741302490234375" lon="1.59230075776576995849609375">
        <ele>-80.1999969482421875</ele>
        <time>2025-09-06T13:01:26.000Z</time>
        <extensions>
          <ns3:TrackPointExtension>
            <ns3:hr>168</ns3:hr>
            <ns3:cad>60</ns3:cad>
          </ns3:TrackPointExtension>
        </extensions>
      </trkpt>
      <trkpt lat="52.17736937105655670166015625" lon="1.59243964590132236480712890625">
        <ele>-80</ele>
        <time>2025-09-06T13:01:32.000Z</time>
        <extensions>
          <ns3:TrackPointExtension>
            <ns3:hr>167</ns3:hr>
            <ns3:cad>0</ns3:cad>
          </ns3:TrackPointExtension>
        </extensions>
      </trkpt>
      <trkpt lat="52.17741656117141246795654296875" lon="1.59265254624187946319580078125">
        <ele>-80</ele>
        <time>2025-09-06T13:01:39.000Z</time>
        <extensions>
          <ns3:TrackPointExtension>
            <ns3:hr>164</ns3:hr>
            <ns3:cad>79</ns3:cad>
          </ns3:TrackPointExtension>
        </extensions>
      </trkpt>
      <trkpt lat="52.17742226086556911468505859375" lon="1.5926871635019779205322265625">
        <ele>-80</ele>
        <time>2025-09-06T13:01:40.000Z</time>
        <extensions>
          <ns3:TrackPointExtension>
            <ns3:hr>165</ns3:hr>
            <ns3:cad>80</ns3:cad>
          </ns3:TrackPointExtension>
        </extensions>
      </trkpt>
      <trkpt lat="52.1774600632488727569580078125" lon="1.59287273883819580078125">
        <ele>-80</ele>
        <time>2025-09-06T13:01:46.000Z</time>
        <extensions>
          <ns3:TrackPointExtension>
            <ns3:hr>168</ns3:hr>
            <ns3:cad>82</ns3:cad>
          </ns3:TrackPointExtension>
        </extensions>
      </trkpt>
      <trkpt lat="52.177475653588771820068359375" lon="1.592934429645538330078125">
        <ele>-80</ele>
        <time>2025-09-06T13:01:48.000Z</time>
        <extensions>
          <ns3:TrackPointExtension>
            <ns3:hr>169</ns3:hr>
            <ns3:cad>82</ns3:cad>
          </ns3:TrackPointExtension>
        </extensions>
      </trkpt>
      <trkpt lat="52.17750406824052333831787109375" lon="1.59312830306589603424072265625">
        <ele>-80</ele>
        <time>2025-09-06T13:01:55.000Z</time>
        <extensions>
          <ns3:TrackPointExtension>
            <ns3:hr>170</ns3:hr>
            <ns3:cad>81</ns3:cad>
          </ns3:TrackPointExtension>
        </extensions>
      </trkpt>
      <trkpt lat="52.177513875067234039306640625" lon="1.59337121061980724334716796875">
        <ele>-80</ele>
        <time>2025-09-06T13:02:02.000Z</time>
        <extensions>
          <ns3:TrackPointExtension>
            <ns3:hr>170</ns3:hr>
            <ns3:cad>81</ns3:cad>
          </ns3:TrackPointExtension>
        </extensions>
      </trkpt>
      <trkpt lat="52.177512533962726593017578125" lon="1.59357757307589054107666015625">
        <ele>-79.8000030517578125</ele>
        <time>2025-09-06T13:02:07.000Z</time>
        <extensions>
          <ns3:TrackPointExtension>
            <ns3:hr>167</ns3:hr>
            <ns3:cad>81</ns3:cad>
          </ns3:TrackPointExtension>
        </extensions>
      </trkpt>
      <trkpt lat="52.1775234304368495941162109375" lon="1.59370355308055877685546875">
        <ele>-79.8000030517578125</ele>
        <time>2025-09-06T13:02:10.000Z</time>
        <extensions>
          <ns3:TrackPointExtension>
            <ns3:hr>169</ns3:hr>
            <ns3:cad>82</ns3:cad>
          </ns3:TrackPointExtension>
        </extensions>
      </trkpt>
      <trkpt lat="52.17759727500379085540771484375" lon="1.593927852809429168701171875">
        <ele>-79.59999847412109375</ele>
        <time>2025-09-06T13:02:16.000Z</time>
        <extensions>
          <ns3:TrackPointExtension>
            <ns3:hr>167</ns3:hr>
            <ns3:cad>81</ns3:cad>
          </ns3:TrackPointExtension>
        </extensions>
      </trkpt>
      <trkpt lat="52.1776347421109676361083984375" lon="1.594146788120269775390625">
        <ele>-79.1999969482421875</ele>
        <time>2025-09-06T13:02:22.000Z</time>
        <extensions>
          <ns3:TrackPointExtension>
            <ns3:hr>164</ns3:hr>
            <ns3:cad>80</ns3:cad>
          </ns3:TrackPointExtension>
        </extensions>
      </trkpt>
      <trkpt lat="52.17763801105320453643798828125" lon="1.59421727992594242095947265625">
        <ele>-79</ele>
        <time>2025-09-06T13:02:24.000Z</time>
        <extensions>
          <ns3:TrackPointExtension>
            <ns3:hr>167</ns3:hr>
            <ns3:cad>80</ns3:cad>
          </ns3:TrackPointExtension>
        </extensions>
      </trkpt>
      <trkpt lat="52.1776387654244899749755859375" lon="1.59425265155732631683349609375">
        <ele>-79</ele>
        <time>2025-09-06T13:02:25.000Z</time>
        <extensions>
          <ns3:TrackPointExtension>
            <ns3:hr>165</ns3:hr>
            <ns3:cad>80</ns3:cad>
          </ns3:TrackPointExtension>
        </extensions>
      </trkpt>
      <trkpt lat="52.17763851396739482879638671875" lon="1.59444090910255908966064453125">
        <ele>-78.59999847412109375</ele>
        <time>2025-09-06T13:02:30.000Z</time>
        <extensions>
          <ns3:TrackPointExtension>
            <ns3:hr>163</ns3:hr>
            <ns3:cad>81</ns3:cad>
          </ns3:TrackPointExtension>
        </extensions>
      </trkpt>
      <trkpt lat="52.1776397712528705596923828125" lon="1.5946991555392742156982421875">
        <ele>-77.8000030517578125</ele>
        <time>2025-09-06T13:02:37.000Z</time>
        <extensions>
          <ns3:TrackPointExtension>
            <ns3:hr>164</ns3:hr>
            <ns3:cad>81</ns3:cad>
          </ns3:TrackPointExtension>
        </extensions>
      </trkpt>
      <trkpt lat="52.17765997163951396942138671875" lon="1.59473829902708530426025390625">
        <ele>-77.8000030517578125</ele>
        <time>2025-09-06T13:02:38.000Z</time>
        <extensions>
          <ns3:TrackPointExtension>
            <ns3:hr>164</ns3:hr>
            <ns3:cad>81</ns3:cad>
          </ns3:TrackPointExtension>
        </extensions>
      </trkpt>
      <trkpt lat="52.1776892244815826416015625" lon="1.594847850501537322998046875">
        <ele>-77.40000152587890625</ele>
        <time>2025-09-06T13:02:41.000Z</time>
        <extensions>
          <ns3:TrackPointExtension>
            <ns3:hr>167</ns3:hr>
            <ns3:cad>81</ns3:cad>
          </ns3:TrackPointExtension>
        </extensions>
      </trkpt>
      <trkpt lat="52.1776702813804149627685546875" lon="1.59497718326747417449951171875">
        <ele>-77</ele>
        <time>2025-09-06T13:02:45.000Z</time>
        <extensions>
          <ns3:TrackPointExtension>
            <ns3:hr>166</ns3:hr>
            <ns3:cad>81</ns3:cad>
          </ns3:TrackPointExtension>
        </extensions>
      </trkpt>
      <trkpt lat="52.1776543557643890380859375" lon="1.59504474140703678131103515625">
        <ele>-76.8000030517578125</ele>
        <time>2025-09-06T13:02:47.000Z</time>
        <extensions>
          <ns3:TrackPointExtension>
            <ns3:hr>165</ns3:hr>
            <ns3:cad>81</ns3:cad>
          </ns3:TrackPointExtension>
        </extensions>
      </trkpt>
      <trkpt lat="52.1775824390351772308349609375" lon="1.59522612579166889190673828125">
        <ele>-76.40000152587890625</ele>
        <time>2025-09-06T13:02:52.000Z</time>
        <extensions>
          <ns3:TrackPointExtension>
            <ns3:hr>164</ns3:hr>
            <ns3:cad>80</ns3:cad>
          </ns3:TrackPointExtension>
        </extensions>
      </trkpt>
      <trkpt lat="52.1775851212441921234130859375" lon="1.5953214280307292938232421875">
        <ele>-76</ele>
        <time>2025-09-06T13:02:56.000Z</time>
        <extensions>
          <ns3:TrackPointExtension>
            <ns3:hr>161</ns3:hr>
            <ns3:cad>78</ns3:cad>
          </ns3:TrackPointExtension>
        </extensions>
      </trkpt>
      <trkpt lat="52.1775800921022891998291015625" lon="1.59536308608949184417724609375">
        <ele>-76</ele>
        <time>2025-09-06T13:02:58.000Z</time>
        <extensions>
          <ns3:TrackPointExtension>
            <ns3:hr>161</ns3:hr>
            <ns3:cad>78</ns3:cad>
          </ns3:TrackPointExtension>
        </extensions>
      </trkpt>
      <trkpt lat="52.1775901503860950469970703125" lon="1.5954092703759670257568359375">
        <ele>-75.8000030517578125</ele>
        <time>2025-09-06T13:03:01.000Z</time>
        <extensions>
          <ns3:TrackPointExtension>
            <ns3:hr>161</ns3:hr>
            <ns3:cad>57</ns3:cad>
          </ns3:TrackPointExtension>
        </extensions>
      </trkpt>
      <trkpt lat="52.1775846183300018310546875" lon="1.59549367614090442657470703125">
        <ele>-75.59999847412109375</ele>
        <time>2025-09-06T13:03:05.000Z</time>
        <extensions>
          <ns3:TrackPointExtension>
            <ns3:hr>159</ns3:hr>
            <ns3:cad>0</ns3:cad>
          </ns3:TrackPointExtension>
        </extensions>
      </trkpt>
      <trkpt lat="52.1776015497744083404541015625" lon="1.59557305276393890380859375">
        <ele>-75.59999847412109375</ele>
        <time>2025-09-06T13:03:08.000Z</time>
        <extensions>
          <ns3:TrackPointExtension>
            <ns3:hr>163</ns3:hr>
            <ns3:cad>61</ns3:cad>
          </ns3:TrackPointExtension>
        </extensions>
      </trkpt>
      <trkpt lat="52.17760917730629444122314453125" lon="1.5956506691873073577880859375">
        <ele>-75.8000030517578125</ele>
        <time>2025-09-06T13:03:11.000Z</time>
        <extensions>
          <ns3:TrackPointExtension>
            <ns3:hr>162</ns3:hr>
            <ns3:cad>63</ns3:cad>
          </ns3:TrackPointExtension>
        </extensions>
      </trkpt>
      <trkpt lat="52.17762552201747894287109375" lon="1.59587538801133632659912109375">
        <ele>-76.1999969482421875</ele>
        <time>2025-09-06T13:03:18.000Z</time>
        <extensions>
          <ns3:TrackPointExtension>
            <ns3:hr>161</ns3:hr>
            <ns3:cad>60</ns3:cad>
          </ns3:TrackPointExtension>
        </extensions>
      </trkpt>
      <trkpt lat="52.17764589004218578338623046875" lon="1.596030034124851226806640625">
        <ele>-76.8000030517578125</ele>
        <time>2025-09-06T13:03:23.000Z</time>
        <extensions>
          <ns3:TrackPointExtension>
            <ns3:hr>162</ns3:hr>
            <ns3:cad>61</ns3:cad>
          </ns3:TrackPointExtension>
        </extensions>
      </trkpt>
      <trkpt lat="52.177647314965724945068359375" lon="1.59607185982167720794677734375">
        <ele>-77.1999969482421875</ele>
        <time>2025-09-06T13:03:25.000Z</time>
        <extensions>
          <ns3:TrackPointExtension>
            <ns3:hr>161</ns3:hr>
            <ns3:cad>61</ns3:cad>
          </ns3:TrackPointExtension>
        </extensions>
      </trkpt>
      <trkpt lat="52.177641279995441436767578125" lon="1.59611561335623264312744140625">
        <ele>-77.40000152587890625</ele>
        <time>2025-09-06T13:03:27.000Z</time>
        <extensions>
          <ns3:TrackPointExtension>
            <ns3:hr>158</ns3:hr>
            <ns3:cad>60</ns3:cad>
          </ns3:TrackPointExtension>
        </extensions>
      </trkpt>
      <trkpt lat="52.17762996442615985870361328125" lon="1.5961750410497188568115234375">
        <ele>-77.8000030517578125</ele>
        <time>2025-09-06T13:03:30.000Z</time>
        <extensions>
          <ns3:TrackPointExtension>
            <ns3:hr>155</ns3:hr>
            <ns3:cad>60</ns3:cad>
          </ns3:TrackPointExtension>
        </extensions>
      </trkpt>
      <trkpt lat="52.17762493528425693511962890625" lon="1.59625994972884654998779296875">
        <ele>-78.59999847412109375</ele>
        <time>2025-09-06T13:03:34.000Z</time>
        <extensions>
          <ns3:TrackPointExtension>
            <ns3:hr>156</ns3:hr>
            <ns3:cad>80</ns3:cad>
          </ns3:TrackPointExtension>
        </extensions>
      </trkpt>
      <trkpt lat="52.17760808765888214111328125" lon="1.59631778486073017120361328125">
        <ele>-79</ele>
        <time>2025-09-06T13:03:36.000Z</time>
        <extensions>
          <ns3:TrackPointExtension>
            <ns3:hr>154</ns3:hr>
            <ns3:cad>80</ns3:cad>
          </ns3:TrackPointExtension>
        </extensions>
      </trkpt>
      <trkpt lat="52.1775913238525390625" lon="1.59645742736756801605224609375">
        <ele>-79.59999847412109375</ele>
        <time>2025-09-06T13:03:40.000Z</time>
        <extensions>
          <ns3:TrackPointExtension>
            <ns3:hr>157</ns3:hr>
            <ns3:cad>80</ns3:cad>
          </ns3:TrackPointExtension>
        </extensions>
      </trkpt>
      <trkpt lat="52.17756458558142185211181640625" lon="1.59653118811547756195068359375">
        <ele>-80</ele>
        <time>2025-09-06T13:03:42.000Z</time>
        <extensions>
          <ns3:TrackPointExtension>
            <ns3:hr>160</ns3:hr>
            <ns3:cad>81</ns3:cad>
          </ns3:TrackPointExtension>
        </extensions>
      </trkpt>
      <trkpt lat="52.17753231525421142578125" lon="1.5966293402016162872314453125">
        <ele>-80.59999847412109375</ele>
        <time>2025-09-06T13:03:46.000Z</time>
        <extensions>
          <ns3:TrackPointExtension>
            <ns3:hr>164</ns3:hr>
            <ns3:cad>81</ns3:cad>
          </ns3:TrackPointExtension>
        </extensions>
      </trkpt>
      <trkpt lat="52.1774962730705738067626953125" lon="1.59669647924602031707763671875">
        <ele>-81.1999969482421875</ele>
        <time>2025-09-06T13:03:49.000Z</time>
        <extensions>
          <ns3:TrackPointExtension>
            <ns3:hr>160</ns3:hr>
            <ns3:cad>81</ns3:cad>
          </ns3:TrackPointExtension>
        </extensions>
      </trkpt>
      <trkpt lat="52.1774516813457012176513671875" lon="1.5967748500406742095947265625">
        <ele>-81.40000152587890625</ele>
        <time>2025-09-06T13:03:52.000Z</time>
        <extensions>
          <ns3:TrackPointExtension>
            <ns3:hr>163</ns3:hr>
            <ns3:cad>81</ns3:cad>
          </ns3:TrackPointExtension>
        </extensions>
      </trkpt>
      <trkpt lat="52.1774020604789257049560546875" lon="1.59684416837990283966064453125">
        <ele>-81.8000030517578125</ele>
        <time>2025-09-06T13:03:55.000Z</time>
        <extensions>
          <ns3:TrackPointExtension>
            <ns3:hr>166</ns3:hr>
            <ns3:cad>81</ns3:cad>
          </ns3:TrackPointExtension>
        </extensions>
      </trkpt>
      <trkpt lat="52.1773588098585605621337890625" lon="1.5968851558864116668701171875">
        <ele>-82.1999969482421875</ele>
        <time>2025-09-06T13:03:58.000Z</time>
        <extensions>
          <ns3:TrackPointExtension>
            <ns3:hr>167</ns3:hr>
            <ns3:cad>81</ns3:cad>
          </ns3:TrackPointExtension>
        </extensions>
      </trkpt>
      <trkpt lat="52.17734984122216701507568359375" lon="1.596894375979900360107421875">
        <ele>-82.1999969482421875</ele>
        <time>2025-09-06T13:03:59.000Z</time>
        <extensions>
          <ns3:TrackPointExtension>
            <ns3:hr>165</ns3:hr>
            <ns3:cad>81</ns3:cad>
          </ns3:TrackPointExtension>
        </extensions>
      </trkpt>
      <trkpt lat="52.17734615318477153778076171875" lon="1.59696511924266815185546875">
        <ele>-82.40000152587890625</ele>
        <time>2025-09-06T13:04:02.000Z</time>
        <extensions>
          <ns3:TrackPointExtension>
            <ns3:hr>165</ns3:hr>
            <ns3:cad>81</ns3:cad>
          </ns3:TrackPointExtension>
        </extensions>
      </trkpt>
      <trkpt lat="52.17732804827392101287841796875" lon="1.59705220721662044525146484375">
        <ele>-82.59999847412109375</ele>
        <time>2025-09-06T13:04:05.000Z</time>
        <extensions>
          <ns3:TrackPointExtension>
            <ns3:hr>164</ns3:hr>
            <ns3:cad>80</ns3:cad>
          </ns3:TrackPointExtension>
        </extensions>
      </trkpt>
      <trkpt lat="52.17732436023652553558349609375" lon="1.59715765155851840972900390625">
        <ele>-83</ele>
        <time>2025-09-06T13:04:09.000Z</time>
        <extensions>
          <ns3:TrackPointExtension>
            <ns3:hr>161</ns3:hr>
            <ns3:cad>81</ns3:cad>
          </ns3:TrackPointExtension>
        </extensions>
      </trkpt>
      <trkpt lat="52.17732536606490612030029296875" lon="1.597188413143157958984375">
        <ele>-83</ele>
        <time>2025-09-06T13:04:10.000Z</time>
        <extensions>
          <ns3:TrackPointExtension>
            <ns3:hr>164</ns3:hr>
            <ns3:cad>80</ns3:cad>
          </ns3:TrackPointExtension>
        </extensions>
      </trkpt>
      <trkpt lat="52.1773417107760906219482421875" lon="1.59726284444332122802734375">
        <ele>-83</ele>
        <time>2025-09-06T13:04:13.000Z</time>
        <extensions>
          <ns3:TrackPointExtension>
            <ns3:hr>166</ns3:hr>
            <ns3:cad>79</ns3:cad>
          </ns3:TrackPointExtension>
        </extensions>
      </trkpt>
      <trkpt lat="52.17740113846957683563232421875" lon="1.59740927629172801971435546875">
        <ele>-83</ele>
        <time>2025-09-06T13:04:20.000Z</time>
        <extensions>
          <ns3:TrackPointExtension>
            <ns3:hr>167</ns3:hr>
            <ns3:cad>81</ns3:cad>
          </ns3:TrackPointExtension>
        </extensions>
      </trkpt>
      <trkpt lat="52.17747531831264495849609375" lon="1.59760792739689350128173828125">
        <ele>-83</ele>
        <time>2025-09-06T13:04:29.000Z</time>
        <extensions>
          <ns3:TrackPointExtension>
            <ns3:hr>166</ns3:hr>
            <ns3:cad>78</ns3:cad>
          </ns3:TrackPointExtension>
        </extensions>
      </trkpt>
      <trkpt lat="52.17760012485086917877197265625" lon="1.59782703034579753875732421875">
        <ele>-83</ele>
        <time>2025-09-06T13:04:38.000Z</time>
        <extensions>
          <ns3:TrackPointExtension>
            <ns3:hr>167</ns3:hr>
            <ns3:cad>81</ns3:cad>
          </ns3:TrackPointExtension>
        </extensions>
      </trkpt>
      <trkpt lat="52.17766164802014827728271484375" lon="1.5979563631117343902587890625">
        <ele>-83</ele>
        <time>2025-09-06T13:04:44.000Z</time>
        <extensions>
          <ns3:TrackPointExtension>
            <ns3:hr>164</ns3:hr>
            <ns3:cad>81</ns3:cad>
          </ns3:TrackPointExtension>
        </extensions>
      </trkpt>
      <trkpt lat="52.1776702813804149627685546875" lon="1.59799433313310146331787109375">
        <ele>-83</ele>
        <time>2025-09-06T13:04:46.000Z</time>
        <extensions>
          <ns3:TrackPointExtension>
            <ns3:hr>164</ns3:hr>
            <ns3:cad>81</ns3:cad>
          </ns3:TrackPointExtension>
        </extensions>
      </trkpt>
      <trkpt lat="52.17772669158875942230224609375" lon="1.5981742925941944122314453125">
        <ele>-83.1999969482421875</ele>
        <time>2025-09-06T13:04:54.000Z</time>
        <extensions>
          <ns3:TrackPointExtension>
            <ns3:hr>165</ns3:hr>
            <ns3:cad>81</ns3:cad>
          </ns3:TrackPointExtension>
        </extensions>
      </trkpt>
      <trkpt lat="52.17773322947323322296142578125" lon="1.598193906247615814208984375">
        <ele>-83.1999969482421875</ele>
        <time>2025-09-06T13:04:55.000Z</time>
        <extensions>
          <ns3:TrackPointExtension>
            <ns3:hr>165</ns3:hr>
            <ns3:cad>81</ns3:cad>
          </ns3:TrackPointExtension>
        </extensions>
      </trkpt>
      <trkpt lat="52.17782626859843730926513671875" lon="1.598442010581493377685546875">
        <ele>-83.1999969482421875</ele>
        <time>2025-09-06T13:05:04.000Z</time>
        <extensions>
          <ns3:TrackPointExtension>
            <ns3:hr>163</ns3:hr>
            <ns3:cad>81</ns3:cad>
          </ns3:TrackPointExtension>
        </extensions>
      </trkpt>
      <trkpt lat="52.1778895519673824310302734375" lon="1.59873294644057750701904296875">
        <ele>-83.40000152587890625</ele>
        <time>2025-09-06T13:05:13.000Z</time>
        <extensions>
          <ns3:TrackPointExtension>
            <ns3:hr>165</ns3:hr>
            <ns3:cad>81</ns3:cad>
          </ns3:TrackPointExtension>
        </extensions>
      </trkpt>
      <trkpt lat="52.177951075136661529541015625" lon="1.59902865998446941375732421875">
        <ele>-83.40000152587890625</ele>
        <time>2025-09-06T13:05:21.000Z</time>
        <extensions>
          <ns3:TrackPointExtension>
            <ns3:hr>164</ns3:hr>
            <ns3:cad>82</ns3:cad>
          </ns3:TrackPointExtension>
        </extensions>
      </trkpt>
      <trkpt lat="52.17798116616904735565185546875" lon="1.59914684481918811798095703125">
        <ele>-83.40000152587890625</ele>
        <time>2025-09-06T13:05:24.000Z</time>
        <extensions>
          <ns3:TrackPointExtension>
            <ns3:hr>168</ns3:hr>
            <ns3:cad>81</ns3:cad>
          </ns3:TrackPointExtension>
        </extensions>
      </trkpt>
      <trkpt lat="52.1779965050518512725830078125" lon="1.5991821326315402984619140625">
        <ele>-83.40000152587890625</ele>
        <time>2025-09-06T13:05:25.000Z</time>
        <extensions>
          <ns3:TrackPointExtension>
            <ns3:hr>164</ns3:hr>
            <ns3:cad>81</ns3:cad>
          </ns3:TrackPointExtension>
        </extensions>
      </trkpt>
      <trkpt lat="52.17802894301712512969970703125" lon="1.59927609376609325408935546875">
        <ele>-83.40000152587890625</ele>
        <time>2025-09-06T13:05:28.000Z</time>
        <extensions>
          <ns3:TrackPointExtension>
            <ns3:hr>164</ns3:hr>
            <ns3:cad>81</ns3:cad>
          </ns3:TrackPointExtension>
        </extensions>
      </trkpt>
      <trkpt lat="52.1780471317470073699951171875" lon="1.59939645789563655853271484375">
        <ele>-83.40000152587890625</ele>
        <time>2025-09-06T13:05:32.000Z</time>
        <extensions>
          <ns3:TrackPointExtension>
            <ns3:hr>161</ns3:hr>
            <ns3:cad>78</ns3:cad>
          </ns3:TrackPointExtension>
        </extensions>
      </trkpt>
      <trkpt lat="52.17806532047688961029052734375" lon="1.59945311956107616424560546875">
        <ele>-83.40000152587890625</ele>
        <time>2025-09-06T13:05:34.000Z</time>
        <extensions>
          <ns3:TrackPointExtension>
            <ns3:hr>159</ns3:hr>
            <ns3:cad>78</ns3:cad>
          </ns3:TrackPointExtension>
        </extensions>
      </trkpt>
      <trkpt lat="52.17809759080410003662109375" lon="1.599520929157733917236328125">
        <ele>-83.40000152587890625</ele>
        <time>2025-09-06T13:05:37.000Z</time>
        <extensions>
          <ns3:TrackPointExtension>
            <ns3:hr>159</ns3:hr>
            <ns3:cad>77</ns3:cad>
          </ns3:TrackPointExtension>
        </extensions>
      </trkpt>
      <trkpt lat="52.1781557612121105194091796875" lon="1.59958773292601108551025390625">
        <ele>-83.40000152587890625</ele>
        <time>2025-09-06T13:05:40.000Z</time>
        <extensions>
          <ns3:TrackPointExtension>
            <ns3:hr>158</ns3:hr>
            <ns3:cad>77</ns3:cad>
          </ns3:TrackPointExtension>
        </extensions>
      </trkpt>
      <trkpt lat="52.17824972234666347503662109375" lon="1.5998225100338459014892578125">
        <ele>-83.40000152587890625</ele>
        <time>2025-09-06T13:05:48.000Z</time>
        <extensions>
          <ns3:TrackPointExtension>
            <ns3:hr>158</ns3:hr>
            <ns3:cad>75</ns3:cad>
          </ns3:TrackPointExtension>
        </extensions>
      </trkpt>
      <trkpt lat="52.17834276147186756134033203125" lon="1.59992401488125324249267578125">
        <ele>-83.40000152587890625</ele>
        <time>2025-09-06T13:05:54.000Z</time>
        <extensions>
          <ns3:TrackPointExtension>
            <ns3:hr>158</ns3:hr>
            <ns3:cad>55</ns3:cad>
          </ns3:TrackPointExtension>
        </extensions>
      </trkpt>
      <trkpt lat="52.1783606149256229400634765625" lon="1.5999358333647251129150390625">
        <ele>-83.40000152587890625</ele>
        <time>2025-09-06T13:05:55.000Z</time>
        <extensions>
          <ns3:TrackPointExtension>
            <ns3:hr>159</ns3:hr>
            <ns3:cad>51</ns3:cad>
          </ns3:TrackPointExtension>
        </extensions>
      </trkpt>
      <trkpt lat="52.17842238955199718475341796875" lon="1.5999626554548740386962890625">
        <ele>-83.40000152587890625</ele>
        <time>2025-09-06T13:05:59.000Z</time>
        <extensions>
          <ns3:TrackPointExtension>
            <ns3:hr>156</ns3:hr>
            <ns3:cad>0</ns3:cad>
          </ns3:TrackPointExtension>
        </extensions>
      </trkpt>
      <trkpt lat="52.1784766204655170440673828125" lon="1.5999998711049556732177734375">
        <ele>-83.40000152587890625</ele>
        <time>2025-09-06T13:06:02.000Z</time>
        <extensions>
          <ns3:TrackPointExtension>
            <ns3:hr>157</ns3:hr>
            <ns3:cad>0</ns3:cad>
          </ns3:TrackPointExtension>
        </extensions>
      </trkpt>
      <trkpt lat="52.17862908728420734405517578125" lon="1.6001024655997753143310546875">
        <ele>-83</ele>
        <time>2025-09-06T13:06:11.000Z</time>
        <extensions>
          <ns3:TrackPointExtension>
            <ns3:hr>156</ns3:hr>
            <ns3:cad>0</ns3:cad>
          </ns3:TrackPointExtension>
        </extensions>
      </trkpt>
      <trkpt lat="52.17873989604413509368896484375" lon="1.60014194436371326446533203125">
        <ele>-82.40000152587890625</ele>
        <time>2025-09-06T13:06:19.000Z</time>
        <extensions>
          <ns3:TrackPointExtension>
            <ns3:hr>157</ns3:hr>
            <ns3:cad>61</ns3:cad>
          </ns3:TrackPointExtension>
        </extensions>
      </trkpt>
      <trkpt lat="52.178775854408740997314453125" lon="1.60014563240110874176025390625">
        <ele>-82.1999969482421875</ele>
        <time>2025-09-06T13:06:23.000Z</time>
        <extensions>
          <ns3:TrackPointExtension>
            <ns3:hr>155</ns3:hr>
            <ns3:cad>62</ns3:cad>
          </ns3:TrackPointExtension>
        </extensions>
      </trkpt>
      <trkpt lat="52.17883377335965633392333984375" lon="1.60014244727790355682373046875">
        <ele>-82</ele>
        <time>2025-09-06T13:06:27.000Z</time>
        <extensions>
          <ns3:TrackPointExtension>
            <ns3:hr>153</ns3:hr>
            <ns3:cad>61</ns3:cad>
          </ns3:TrackPointExtension>
        </extensions>
      </trkpt>
      <trkpt lat="52.17890837229788303375244140625" lon="1.60015569068491458892822265625">
        <ele>-81.8000030517578125</ele>
        <time>2025-09-06T13:06:32.000Z</time>
        <extensions>
          <ns3:TrackPointExtension>
            <ns3:hr>150</ns3:hr>
            <ns3:cad>60</ns3:cad>
          </ns3:TrackPointExtension>
        </extensions>
      </trkpt>
      <trkpt lat="52.17894692905247211456298828125" lon="1.6001423634588718414306640625">
        <ele>-81.8000030517578125</ele>
        <time>2025-09-06T13:06:36.000Z</time>
        <extensions>
          <ns3:TrackPointExtension>
            <ns3:hr>150</ns3:hr>
            <ns3:cad>60</ns3:cad>
          </ns3:TrackPointExtension>
        </extensions>
      </trkpt>
      <trkpt lat="52.1790167503058910369873046875" lon="1.60014546476304531097412109375">
        <ele>-81.8000030517578125</ele>
        <time>2025-09-06T13:06:41.000Z</time>
        <extensions>
          <ns3:TrackPointExtension>
            <ns3:hr>147</ns3:hr>
            <ns3:cad>60</ns3:cad>
          </ns3:TrackPointExtension>
        </extensions>
      </trkpt>
      <trkpt lat="52.17906896956264972686767578125" lon="1.600149236619472503662109375">
        <ele>-81.8000030517578125</ele>
        <time>2025-09-06T13:06:45.000Z</time>
        <extensions>
          <ns3:TrackPointExtension>
            <ns3:hr>147</ns3:hr>
            <ns3:cad>61</ns3:cad>
          </ns3:TrackPointExtension>
        </extensions>
      </trkpt>
      <trkpt lat="52.17917273752391338348388671875" lon="1.6001597978174686431884765625">
        <ele>-82.1999969482421875</ele>
        <time>2025-09-06T13:06:53.000Z</time>
        <extensions>
          <ns3:TrackPointExtension>
            <ns3:hr>145</ns3:hr>
            <ns3:cad>61</ns3:cad>
          </ns3:TrackPointExtension>
        </extensions>
      </trkpt>
      <trkpt lat="52.17929561622440814971923828125" lon="1.600165665149688720703125">
        <ele>-82.8000030517578125</ele>
        <time>2025-09-06T13:07:03.000Z</time>
        <extensions>
          <ns3:TrackPointExtension>
            <ns3:hr>142</ns3:hr>
            <ns3:cad>60</ns3:cad>
          </ns3:TrackPointExtension>
        </extensions>
      </trkpt>
      <trkpt lat="52.17930684797465801239013671875" lon="1.60016373731195926666259765625">
        <ele>-82.8000030517578125</ele>
        <time>2025-09-06T13:07:04.000Z</time>
        <extensions>
          <ns3:TrackPointExtension>
            <ns3:hr>142</ns3:hr>
            <ns3:cad>60</ns3:cad>
          </ns3:TrackPointExtension>
        </extensions>
      </trkpt>
      <trkpt lat="52.17939083464443683624267578125" lon="1.60018553026020526885986328125">
        <ele>-83.1999969482421875</ele>
        <time>2025-09-06T13:07:09.000Z</time>
        <extensions>
          <ns3:TrackPointExtension>
            <ns3:hr>140</ns3:hr>
            <ns3:cad>60</ns3:cad>
          </ns3:TrackPointExtension>
        </extensions>
      </trkpt>
      <trkpt lat="52.1794485859572887420654296875" lon="1.60019860602915287017822265625">
        <ele>-83.40000152587890625</ele>
        <time>2025-09-06T13:07:13.000Z</time>
        <extensions>
          <ns3:TrackPointExtension>
            <ns3:hr>142</ns3:hr>
            <ns3:cad>60</ns3:cad>
          </ns3:TrackPointExtension>
        </extensions>
      </trkpt>
      <trkpt lat="52.17960792593657970428466796875" lon="1.60022375173866748809814453125">
        <ele>-84</ele>
        <time>2025-09-06T13:07:21.000Z</time>
        <extensions>
          <ns3:TrackPointExtension>
            <ns3:hr>139</ns3:hr>
            <ns3:cad>59</ns3:cad>
          </ns3:TrackPointExtension>
        </extensions>
      </trkpt>
      <trkpt lat="52.179660983383655548095703125" lon="1.60021285526454448699951171875">
        <ele>-84.1999969482421875</ele>
        <time>2025-09-06T13:07:25.000Z</time>
        <extensions>
          <ns3:TrackPointExtension>
            <ns3:hr>138</ns3:hr>
            <ns3:cad>61</ns3:cad>
          </ns3:TrackPointExtension>
        </extensions>
      </trkpt>
      <trkpt lat="52.17967598699033260345458984375" lon="1.6001983545720577239990234375">
        <ele>-84.1999969482421875</ele>
        <time>2025-09-06T13:07:28.000Z</time>
        <extensions>
          <ns3:TrackPointExtension>
            <ns3:hr>139</ns3:hr>
            <ns3:cad>60</ns3:cad>
          </ns3:TrackPointExtension>
        </extensions>
      </trkpt>
      <trkpt lat="52.17983658425509929656982421875" lon="1.60013590939342975616455078125">
        <ele>-84.59999847412109375</ele>
        <time>2025-09-06T13:07:35.000Z</time>
        <extensions>
          <ns3:TrackPointExtension>
            <ns3:hr>137</ns3:hr>
            <ns3:cad>59</ns3:cad>
          </ns3:TrackPointExtension>
        </extensions>
      </trkpt>
      <trkpt lat="52.17986374162137508392333984375" lon="1.60012853331863880157470703125">
        <ele>-84.8000030517578125</ele>
        <time>2025-09-06T13:07:38.000Z</time>
        <extensions>
          <ns3:TrackPointExtension>
            <ns3:hr>134</ns3:hr>
            <ns3:cad>59</ns3:cad>
          </ns3:TrackPointExtension>
        </extensions>
      </trkpt>
      <trkpt lat="52.1799176372587680816650390625" lon="1.60012853331863880157470703125">
        <ele>-85</ele>
        <time>2025-09-06T13:07:43.000Z</time>
        <extensions>
          <ns3:TrackPointExtension>
            <ns3:hr>136</ns3:hr>
            <ns3:cad>58</ns3:cad>
          </ns3:TrackPointExtension>
        </extensions>
      </trkpt>
      <trkpt lat="52.17999349348247051239013671875" lon="1.60011939704418182373046875">
        <ele>-85.1999969482421875</ele>
        <time>2025-09-06T13:07:47.000Z</time>
        <extensions>
          <ns3:TrackPointExtension>
            <ns3:hr>138</ns3:hr>
            <ns3:cad>0</ns3:cad>
          </ns3:TrackPointExtension>
        </extensions>
      </trkpt>
      <trkpt lat="52.18002316541969776153564453125" lon="1.6001111827790737152099609375">
        <ele>-85.40000152587890625</ele>
        <time>2025-09-06T13:07:49.000Z</time>
        <extensions>
          <ns3:TrackPointExtension>
            <ns3:hr>137</ns3:hr>
            <ns3:cad>0</ns3:cad>
          </ns3:TrackPointExtension>
        </extensions>
      </trkpt>
      <trkpt lat="52.1801050566136837005615234375" lon="1.60007287748157978057861328125">
        <ele>-85.8000030517578125</ele>
        <time>2025-09-06T13:07:56.000Z</time>
        <extensions>
          <ns3:TrackPointExtension>
            <ns3:hr>136</ns3:hr>
            <ns3:cad>61</ns3:cad>
          </ns3:TrackPointExtension>
        </extensions>
      </trkpt>
      <trkpt lat="52.18016029335558414459228515625" lon="1.60004890523850917816162109375">
        <ele>-86</ele>
        <time>2025-09-06T13:08:00.000Z</time>
        <extensions>
          <ns3:TrackPointExtension>
            <ns3:hr>139</ns3:hr>
            <ns3:cad>0</ns3:cad>
          </ns3:TrackPointExtension>
        </extensions>
      </trkpt>
      <trkpt lat="52.18017051927745342254638671875" lon="1.6000464744865894317626953125">
        <ele>-86</ele>
        <time>2025-09-06T13:08:01.000Z</time>
        <extensions>
          <ns3:TrackPointExtension>
            <ns3:hr>136</ns3:hr>
            <ns3:cad>0</ns3:cad>
          </ns3:TrackPointExtension>
        </extensions>
      </trkpt>
      <trkpt lat="52.1801918931305408477783203125" lon="1.6000411100685596466064453125">
        <ele>-86.1999969482421875</ele>
        <time>2025-09-06T13:08:03.000Z</time>
        <extensions>
          <ns3:TrackPointExtension>
            <ns3:hr>136</ns3:hr>
            <ns3:cad>0</ns3:cad>
          </ns3:TrackPointExtension>
        </extensions>
      </trkpt>
      <trkpt lat="52.18021259643137454986572265625" lon="1.60004454664885997772216796875">
        <ele>-86.40000152587890625</ele>
        <time>2025-09-06T13:08:05.000Z</time>
        <extensions>
          <ns3:TrackPointExtension>
            <ns3:hr>137</ns3:hr>
            <ns3:cad>61</ns3:cad>
          </ns3:TrackPointExtension>
        </extensions>
      </trkpt>
      <trkpt lat="52.180308401584625244140625" lon="1.6000535152852535247802734375">
        <ele>-87.1999969482421875</ele>
        <time>2025-09-06T13:08:15.000Z</time>
        <extensions>
          <ns3:TrackPointExtension>
            <ns3:hr>137</ns3:hr>
            <ns3:cad>60</ns3:cad>
          </ns3:TrackPointExtension>
        </extensions>
      </trkpt>
      <trkpt lat="52.18034687452018260955810546875" lon="1.60004521720111370086669921875">
        <ele>-87.59999847412109375</ele>
        <time>2025-09-06T13:08:18.000Z</time>
        <extensions>
          <ns3:TrackPointExtension>
            <ns3:hr>134</ns3:hr>
            <ns3:cad>59</ns3:cad>
          </ns3:TrackPointExtension>
        </extensions>
      </trkpt>
      <trkpt lat="52.18040571548044681549072265625" lon="1.60004429519176483154296875">
        <ele>-87.8000030517578125</ele>
        <time>2025-09-06T13:08:21.000Z</time>
        <extensions>
          <ns3:TrackPointExtension>
            <ns3:hr>136</ns3:hr>
            <ns3:cad>59</ns3:cad>
          </ns3:TrackPointExtension>
        </extensions>
      </trkpt>
      <trkpt lat="52.18046958558261394500732421875" lon="1.6000347398221492767333984375">
        <ele>-88.1999969482421875</ele>
        <time>2025-09-06T13:08:24.000Z</time>
        <extensions>
          <ns3:TrackPointExtension>
            <ns3:hr>136</ns3:hr>
            <ns3:cad>59</ns3:cad>
          </ns3:TrackPointExtension>
        </extensions>
      </trkpt>
      <trkpt lat="52.180481068789958953857421875" lon="1.60003683529794216156005859375">
        <ele>-88.40000152587890625</ele>
        <time>2025-09-06T13:08:25.000Z</time>
        <extensions>
          <ns3:TrackPointExtension>
            <ns3:hr>136</ns3:hr>
            <ns3:cad>58</ns3:cad>
          </ns3:TrackPointExtension>
        </extensions>
      </trkpt>
      <trkpt lat="52.180589698255062103271484375" lon="1.60008251667022705078125">
        <ele>-89.1999969482421875</ele>
        <time>2025-09-06T13:08:32.000Z</time>
        <extensions>
          <ns3:TrackPointExtension>
            <ns3:hr>135</ns3:hr>
            <ns3:cad>60</ns3:cad>
          </ns3:TrackPointExtension>
        </extensions>
      </trkpt>
      <trkpt lat="52.180624902248382568359375" lon="1.60009601153433322906494140625">
        <ele>-89.40000152587890625</ele>
        <time>2025-09-06T13:08:34.000Z</time>
        <extensions>
          <ns3:TrackPointExtension>
            <ns3:hr>134</ns3:hr>
            <ns3:cad>59</ns3:cad>
          </ns3:TrackPointExtension>
        </extensions>
      </trkpt>
      <trkpt lat="52.18074224889278411865234375" lon="1.600114367902278900146484375">
        <ele>-89.8000030517578125</ele>
        <time>2025-09-06T13:08:40.000Z</time>
        <extensions>
          <ns3:TrackPointExtension>
            <ns3:hr>130</ns3:hr>
            <ns3:cad>60</ns3:cad>
          </ns3:TrackPointExtension>
        </extensions>
      </trkpt>
      <trkpt lat="52.180755995213985443115234375" lon="1.600103639066219329833984375">
        <ele>-89.8000030517578125</ele>
        <time>2025-09-06T13:08:41.000Z</time>
        <extensions>
          <ns3:TrackPointExtension>
            <ns3:hr>130</ns3:hr>
            <ns3:cad>60</ns3:cad>
          </ns3:TrackPointExtension>
        </extensions>
      </trkpt>
      <trkpt lat="52.18081709928810596466064453125" lon="1.60004555247724056243896484375">
        <ele>-89.8000030517578125</ele>
        <time>2025-09-06T13:08:47.000Z</time>
        <extensions>
          <ns3:TrackPointExtension>
            <ns3:hr>133</ns3:hr>
            <ns3:cad>58</ns3:cad>
          </ns3:TrackPointExtension>
        </extensions>
      </trkpt>
      <trkpt lat="52.18087904155254364013671875" lon="1.6000454686582088470458984375">
        <ele>-89.8000030517578125</ele>
        <time>2025-09-06T13:08:50.000Z</time>
        <extensions>
          <ns3:TrackPointExtension>
            <ns3:hr>135</ns3:hr>
            <ns3:cad>60</ns3:cad>
          </ns3:TrackPointExtension>
        </extensions>
      </trkpt>
      <trkpt lat="52.180968560278415679931640625" lon="1.60002543590962886810302734375">
        <ele>-89</ele>
        <time>2025-09-06T13:08:57.000Z</time>
        <extensions>
          <ns3:TrackPointExtension>
            <ns3:hr>132</ns3:hr>
            <ns3:cad>58</ns3:cad>
          </ns3:TrackPointExtension>
        </extensions>
      </trkpt>
      <trkpt lat="52.18098591081798076629638671875" lon="1.60001453943550586700439453125">
        <ele>-88.8000030517578125</ele>
        <time>2025-09-06T13:08:59.000Z</time>
        <extensions>
          <ns3:TrackPointExtension>
            <ns3:hr>135</ns3:hr>
            <ns3:cad>58</ns3:cad>
          </ns3:TrackPointExtension>
        </extensions>
      </trkpt>
      <trkpt lat="52.181038297712802886962890625" lon="1.59999107010662555694580078125">
        <ele>-88.1999969482421875</ele>
        <time>2025-09-06T13:09:03.000Z</time>
        <extensions>
          <ns3:TrackPointExtension>
            <ns3:hr>136</ns3:hr>
            <ns3:cad>60</ns3:cad>
          </ns3:TrackPointExtension>
        </extensions>
      </trkpt>
      <trkpt lat="52.18106520362198352813720703125" lon="1.59998402930796146392822265625">
        <ele>-88</ele>
        <time>2025-09-06T13:09:05.000Z</time>
        <extensions>
          <ns3:TrackPointExtension>
            <ns3:hr>136</ns3:hr>
            <ns3:cad>60</ns3:cad>
          </ns3:TrackPointExtension>
        </extensions>
      </trkpt>
      <trkpt lat="52.18112203292548656463623046875" lon="1.59996449947357177734375">
        <ele>-87.40000152587890625</ele>
        <time>2025-09-06T13:09:09.000Z</time>
        <extensions>
          <ns3:TrackPointExtension>
            <ns3:hr>133</ns3:hr>
            <ns3:cad>60</ns3:cad>
          </ns3:TrackPointExtension>
        </extensions>
      </trkpt>
      <trkpt lat="52.18115237541496753692626953125" lon="1.5999596379697322845458984375">
        <ele>-87.1999969482421875</ele>
        <time>2025-09-06T13:09:10.000Z</time>
        <extensions>
          <ns3:TrackPointExtension>
            <ns3:hr>134</ns3:hr>
            <ns3:cad>60</ns3:cad>
          </ns3:TrackPointExtension>
        </extensions>
      </trkpt>
      <trkpt lat="52.18127910979092121124267578125" lon="1.59994631074368953704833984375">
        <ele>-86.40000152587890625</ele>
        <time>2025-09-06T13:09:15.000Z</time>
        <extensions>
          <ns3:TrackPointExtension>
            <ns3:hr>134</ns3:hr>
            <ns3:cad>60</ns3:cad>
          </ns3:TrackPointExtension>
        </extensions>
      </trkpt>
      <trkpt lat="52.18131548725068569183349609375" lon="1.599941365420818328857421875">
        <ele>-86</ele>
        <time>2025-09-06T13:09:17.000Z</time>
        <extensions>
          <ns3:TrackPointExtension>
            <ns3:hr>133</ns3:hr>
            <ns3:cad>60</ns3:cad>
          </ns3:TrackPointExtension>
        </extensions>
      </trkpt>
      <trkpt lat="52.18138396739959716796875" lon="1.5998992882668972015380859375">
        <ele>-85.1999969482421875</ele>
        <time>2025-09-06T13:09:23.000Z</time>
        <extensions>
          <ns3:TrackPointExtension>
            <ns3:hr>134</ns3:hr>
            <ns3:cad>60</ns3:cad>
          </ns3:TrackPointExtension>
        </extensions>
      </trkpt>
      <trkpt lat="52.1813987195491790771484375" lon="1.5998902358114719390869140625">
        <ele>-85</ele>
        <time>2025-09-06T13:09:24.000Z</time>
        <extensions>
          <ns3:TrackPointExtension>
            <ns3:hr>135</ns3:hr>
            <ns3:cad>60</ns3:cad>
          </ns3:TrackPointExtension>
        </extensions>
      </trkpt>
      <trkpt lat="52.18146585859358310699462890625" lon="1.599878333508968353271484375">
        <ele>-84.8000030517578125</ele>
        <time>2025-09-06T13:09:27.000Z</time>
        <extensions>
          <ns3:TrackPointExtension>
            <ns3:hr>132</ns3:hr>
            <ns3:cad>0</ns3:cad>
          </ns3:TrackPointExtension>
        </extensions>
      </trkpt>
      <trkpt lat="52.181509025394916534423828125" lon="1.59986584447324275970458984375">
        <ele>-84.8000030517578125</ele>
        <time>2025-09-06T13:09:29.000Z</time>
        <extensions>
          <ns3:TrackPointExtension>
            <ns3:hr>124</ns3:hr>
            <ns3:cad>0</ns3:cad>
          </ns3:TrackPointExtension>
        </extensions>
      </trkpt>
      <trkpt lat="52.18155202455818653106689453125" lon="1.5998496674001216888427734375">
        <ele>-84.8000030517578125</ele>
        <time>2025-09-06T13:09:31.000Z</time>
        <extensions>
          <ns3:TrackPointExtension>
            <ns3:hr>120</ns3:hr>
            <ns3:cad>0</ns3:cad>
          </ns3:TrackPointExtension>
        </extensions>
      </trkpt>
      <trkpt lat="52.18166551552712917327880859375" lon="1.59979225136339664459228515625">
        <ele>-84.8000030517578125</ele>
        <time>2025-09-06T13:09:37.000Z</time>
        <extensions>
          <ns3:TrackPointExtension>
            <ns3:hr>119</ns3:hr>
            <ns3:cad>0</ns3:cad>
          </ns3:TrackPointExtension>
        </extensions>
      </trkpt>
      <trkpt lat="52.1817827783524990081787109375" lon="1.5997390262782573699951171875">
        <ele>-85.59999847412109375</ele>
        <time>2025-09-06T13:09:46.000Z</time>
        <extensions>
          <ns3:TrackPointExtension>
            <ns3:hr>117</ns3:hr>
            <ns3:cad>59</ns3:cad>
          </ns3:TrackPointExtension>
        </extensions>
      </trkpt>
      <trkpt lat="52.1818166412413120269775390625" lon="1.59973022527992725372314453125">
        <ele>-86</ele>
        <time>2025-09-06T13:09:49.000Z</time>
        <extensions>
          <ns3:TrackPointExtension>
            <ns3:hr>121</ns3:hr>
            <ns3:cad>60</ns3:cad>
          </ns3:TrackPointExtension>
        </extensions>
      </trkpt>
      <trkpt lat="52.1818256936967372894287109375" lon="1.59972536377608776092529296875">
        <ele>-86</ele>
        <time>2025-09-06T13:09:50.000Z</time>
        <extensions>
          <ns3:TrackPointExtension>
            <ns3:hr>118</ns3:hr>
            <ns3:cad>60</ns3:cad>
          </ns3:TrackPointExtension>
        </extensions>
      </trkpt>
      <trkpt lat="52.181871123611927032470703125" lon="1.5996977873146533966064453125">
        <ele>-86.59999847412109375</ele>
        <time>2025-09-06T13:09:54.000Z</time>
        <extensions>
          <ns3:TrackPointExtension>
            <ns3:hr>119</ns3:hr>
            <ns3:cad>58</ns3:cad>
          </ns3:TrackPointExtension>
        </extensions>
      </trkpt>
      <trkpt lat="52.18194429762661457061767578125" lon="1.59967741928994655609130859375">
        <ele>-87.1999969482421875</ele>
        <time>2025-09-06T13:09:58.000Z</time>
        <extensions>
          <ns3:TrackPointExtension>
            <ns3:hr>118</ns3:hr>
            <ns3:cad>58</ns3:cad>
          </ns3:TrackPointExtension>
        </extensions>
      </trkpt>
      <trkpt lat="52.18202610500156879425048828125" lon="1.59964188002049922943115234375">
        <ele>-88</ele>
        <time>2025-09-06T13:10:03.000Z</time>
        <extensions>
          <ns3:TrackPointExtension>
            <ns3:hr>120</ns3:hr>
            <ns3:cad>60</ns3:cad>
          </ns3:TrackPointExtension>
        </extensions>
      </trkpt>
      <trkpt lat="52.1820610575377941131591796875" lon="1.59963123500347137451171875">
        <ele>-88.40000152587890625</ele>
        <time>2025-09-06T13:10:05.000Z</time>
        <extensions>
          <ns3:TrackPointExtension>
            <ns3:hr>120</ns3:hr>
            <ns3:cad>60</ns3:cad>
          </ns3:TrackPointExtension>
        </extensions>
      </trkpt>
      <trkpt lat="52.18213473446667194366455078125" lon="1.59961271099746227264404296875">
        <ele>-89.40000152587890625</ele>
        <time>2025-09-06T13:10:10.000Z</time>
        <extensions>
          <ns3:TrackPointExtension>
            <ns3:hr>119</ns3:hr>
            <ns3:cad>59</ns3:cad>
          </ns3:TrackPointExtension>
        </extensions>
      </trkpt>
      <trkpt lat="52.18214713968336582183837890625" lon="1.5996092744171619415283203125">
        <ele>-89.59999847412109375</ele>
        <time>2025-09-06T13:10:11.000Z</time>
        <extensions>
          <ns3:TrackPointExtension>
            <ns3:hr>119</ns3:hr>
            <ns3:cad>59</ns3:cad>
          </ns3:TrackPointExtension>
        </extensions>
      </trkpt>
      <trkpt lat="52.18221805058419704437255859375" lon="1.5996096096932888031005859375">
        <ele>-90.40000152587890625</ele>
        <time>2025-09-06T13:10:15.000Z</time>
        <extensions>
          <ns3:TrackPointExtension>
            <ns3:hr>120</ns3:hr>
            <ns3:cad>0</ns3:cad>
          </ns3:TrackPointExtension>
        </extensions>
      </trkpt>
      <trkpt lat="52.18226172029972076416015625" lon="1.599585972726345062255859375">
        <ele>-91.40000152587890625</ele>
        <time>2025-09-06T13:10:19.000Z</time>
        <extensions>
          <ns3:TrackPointExtension>
            <ns3:hr>121</ns3:hr>
            <ns3:cad>0</ns3:cad>
          </ns3:TrackPointExtension>
        </extensions>
      </trkpt>
      <trkpt lat="52.18227622099220752716064453125" lon="1.59958655945956707000732421875">
        <ele>-91.59999847412109375</ele>
        <time>2025-09-06T13:10:20.000Z</time>
        <extensions>
          <ns3:TrackPointExtension>
            <ns3:hr>122</ns3:hr>
            <ns3:cad>60</ns3:cad>
          </ns3:TrackPointExtension>
        </extensions>
      </trkpt>
      <trkpt lat="52.1823561005294322967529296875" lon="1.59958303906023502349853515625">
        <ele>-92.8000030517578125</ele>
        <time>2025-09-06T13:10:25.000Z</time>
        <extensions>
          <ns3:TrackPointExtension>
            <ns3:hr>119</ns3:hr>
            <ns3:cad>59</ns3:cad>
          </ns3:TrackPointExtension>
        </extensions>
      </trkpt>
      <trkpt lat="52.18242642469704151153564453125" lon="1.5995928458869457244873046875">
        <ele>-93.8000030517578125</ele>
        <time>2025-09-06T13:10:29.000Z</time>
        <extensions>
          <ns3:TrackPointExtension>
            <ns3:hr>120</ns3:hr>
            <ns3:cad>59</ns3:cad>
          </ns3:TrackPointExtension>
        </extensions>
      </trkpt>
      <trkpt lat="52.1824436075985431671142578125" lon="1.59959368407726287841796875">
        <ele>-94.1999969482421875</ele>
        <time>2025-09-06T13:10:30.000Z</time>
        <extensions>
          <ns3:TrackPointExtension>
            <ns3:hr>119</ns3:hr>
            <ns3:cad>59</ns3:cad>
          </ns3:TrackPointExtension>
        </extensions>
      </trkpt>
      <trkpt lat="52.182498089969158172607421875" lon="1.5995787642896175384521484375">
        <ele>-95.1999969482421875</ele>
        <time>2025-09-06T13:10:34.000Z</time>
        <extensions>
          <ns3:TrackPointExtension>
            <ns3:hr>119</ns3:hr>
            <ns3:cad>59</ns3:cad>
          </ns3:TrackPointExtension>
        </extensions>
      </trkpt>
      <trkpt lat="52.18254812993109226226806640625" lon="1.5995620004832744598388671875">
        <ele>-96</ele>
        <time>2025-09-06T13:10:37.000Z</time>
        <extensions>
          <ns3:TrackPointExtension>
            <ns3:hr>119</ns3:hr>
            <ns3:cad>59</ns3:cad>
          </ns3:TrackPointExtension>
        </extensions>
      </trkpt>
      <trkpt lat="52.182563133537769317626953125" lon="1.59956275485455989837646484375">
        <ele>-96.1999969482421875</ele>
        <time>2025-09-06T13:10:38.000Z</time>
        <extensions>
          <ns3:TrackPointExtension>
            <ns3:hr>119</ns3:hr>
            <ns3:cad>59</ns3:cad>
          </ns3:TrackPointExtension>
        </extensions>
      </trkpt>
      <trkpt lat="52.18262339942157268524169921875" lon="1.59953526221215724945068359375">
        <ele>-97.40000152587890625</ele>
        <time>2025-09-06T13:10:42.000Z</time>
        <extensions>
          <ns3:TrackPointExtension>
            <ns3:hr>119</ns3:hr>
            <ns3:cad>0</ns3:cad>
          </ns3:TrackPointExtension>
        </extensions>
      </trkpt>
      <trkpt lat="52.18266463838517665863037109375" lon="1.599508859217166900634765625">
        <ele>-98.1999969482421875</ele>
        <time>2025-09-06T13:10:45.000Z</time>
        <extensions>
          <ns3:TrackPointExtension>
            <ns3:hr>119</ns3:hr>
            <ns3:cad>60</ns3:cad>
          </ns3:TrackPointExtension>
        </extensions>
      </trkpt>
      <trkpt lat="52.18268224038183689117431640625" lon="1.59950676374137401580810546875">
        <ele>-98.59999847412109375</ele>
        <time>2025-09-06T13:10:46.000Z</time>
        <extensions>
          <ns3:TrackPointExtension>
            <ns3:hr>120</ns3:hr>
            <ns3:cad>60</ns3:cad>
          </ns3:TrackPointExtension>
        </extensions>
      </trkpt>
      <trkpt lat="52.18271995894610881805419921875" lon="1.599494107067584991455078125">
        <ele>-99.1999969482421875</ele>
        <time>2025-09-06T13:10:48.000Z</time>
        <extensions>
          <ns3:TrackPointExtension>
            <ns3:hr>117</ns3:hr>
            <ns3:cad>60</ns3:cad>
          </ns3:TrackPointExtension>
        </extensions>
      </trkpt>
      <trkpt lat="52.18275725841522216796875" lon="1.59948061220347881317138671875">
        <ele>-99.8000030517578125</ele>
        <time>2025-09-06T13:10:50.000Z</time>
        <extensions>
          <ns3:TrackPointExtension>
            <ns3:hr>117</ns3:hr>
            <ns3:cad>0</ns3:cad>
          </ns3:TrackPointExtension>
        </extensions>
      </trkpt>
      <trkpt lat="52.18279271386563777923583984375" lon="1.5994748286902904510498046875">
        <ele>-100.40000152587890625</ele>
        <time>2025-09-06T13:10:52.000Z</time>
        <extensions>
          <ns3:TrackPointExtension>
            <ns3:hr>119</ns3:hr>
            <ns3:cad>60</ns3:cad>
          </ns3:TrackPointExtension>
        </extensions>
      </trkpt>
      <trkpt lat="52.18286496587097644805908203125" lon="1.59950240515172481536865234375">
        <ele>-101</ele>
        <time>2025-09-06T13:10:54.000Z</time>
        <extensions>
          <ns3:TrackPointExtension>
            <ns3:hr>120</ns3:hr>
            <ns3:cad>60</ns3:cad>
          </ns3:TrackPointExtension>
        </extensions>
      </trkpt>
      <trkpt lat="52.18292556703090667724609375" lon="1.599492765963077545166015625">
        <ele>-102.1999969482421875</ele>
        <time>2025-09-06T13:10:58.000Z</time>
        <extensions>
          <ns3:TrackPointExtension>
            <ns3:hr>118</ns3:hr>
            <ns3:cad>0</ns3:cad>
          </ns3:TrackPointExtension>
        </extensions>
      </trkpt>
      <trkpt lat="52.1829891018569469451904296875" lon="1.5994661115109920501708984375">
        <ele>-103.40000152587890625</ele>
        <time>2025-09-06T13:11:02.000Z</time>
        <extensions>
          <ns3:TrackPointExtension>
            <ns3:hr>116</ns3:hr>
            <ns3:cad>59</ns3:cad>
          </ns3:TrackPointExtension>
        </extensions>
      </trkpt>
      <trkpt lat="52.183035202324390411376953125" lon="1.5994664467871189117431640625">
        <ele>-104.40000152587890625</ele>
        <time>2025-09-06T13:11:05.000Z</time>
        <extensions>
          <ns3:TrackPointExtension>
            <ns3:hr>118</ns3:hr>
            <ns3:cad>59</ns3:cad>
          </ns3:TrackPointExtension>
        </extensions>
      </trkpt>
      <trkpt lat="52.18304836191236972808837890625" lon="1.59946359694004058837890625">
        <ele>-104.59999847412109375</ele>
        <time>2025-09-06T13:11:06.000Z</time>
        <extensions>
          <ns3:TrackPointExtension>
            <ns3:hr>117</ns3:hr>
            <ns3:cad>0</ns3:cad>
          </ns3:TrackPointExtension>
        </extensions>
      </trkpt>
      <trkpt lat="52.18310150317847728729248046875" lon="1.5994533710181713104248046875">
        <ele>-106</ele>
        <time>2025-09-06T13:11:10.000Z</time>
        <extensions>
          <ns3:TrackPointExtension>
            <ns3:hr>119</ns3:hr>
            <ns3:cad>0</ns3:cad>
          </ns3:TrackPointExtension>
        </extensions>
      </trkpt>
      <trkpt lat="52.1831520460546016693115234375" lon="1.59948010928928852081298828125">
        <ele>-106.8000030517578125</ele>
        <time>2025-09-06T13:11:13.000Z</time>
        <extensions>
          <ns3:TrackPointExtension>
            <ns3:hr>121</ns3:hr>
            <ns3:cad>60</ns3:cad>
          </ns3:TrackPointExtension>
        </extensions>
      </trkpt>
      <trkpt lat="52.1831624396145343780517578125" lon="1.59948966465890407562255859375">
        <ele>-107.1999969482421875</ele>
        <time>2025-09-06T13:11:14.000Z</time>
        <extensions>
          <ns3:TrackPointExtension>
            <ns3:hr>124</ns3:hr>
            <ns3:cad>60</ns3:cad>
          </ns3:TrackPointExtension>
        </extensions>
      </trkpt>
      <trkpt lat="52.1831728331744670867919921875" lon="1.599498130381107330322265625">
        <ele>-107.8000030517578125</ele>
        <time>2025-09-06T13:11:16.000Z</time>
        <extensions>
          <ns3:TrackPointExtension>
            <ns3:hr>131</ns3:hr>
            <ns3:cad>60</ns3:cad>
          </ns3:TrackPointExtension>
        </extensions>
      </trkpt>
      <trkpt lat="52.18319688923656940460205078125" lon="1.59950609318912029266357421875">
        <ele>-108.40000152587890625</ele>
        <time>2025-09-06T13:11:18.000Z</time>
        <extensions>
          <ns3:TrackPointExtension>
            <ns3:hr>134</ns3:hr>
            <ns3:cad>0</ns3:cad>
          </ns3:TrackPointExtension>
        </extensions>
      </trkpt>
      <trkpt lat="52.1832452528178691864013671875" lon="1.59949502907693386077880859375">
        <ele>-109.1999969482421875</ele>
        <time>2025-09-06T13:11:21.000Z</time>
        <extensions>
          <ns3:TrackPointExtension>
            <ns3:hr>138</ns3:hr>
            <ns3:cad>0</ns3:cad>
          </ns3:TrackPointExtension>
        </extensions>
      </trkpt>
      <trkpt lat="52.1832794509828090667724609375" lon="1.5994912572205066680908203125">
        <ele>-109.8000030517578125</ele>
        <time>2025-09-06T13:11:22.000Z</time>
        <extensions>
          <ns3:TrackPointExtension>
            <ns3:hr>139</ns3:hr>
            <ns3:cad>0</ns3:cad>
          </ns3:TrackPointExtension>
        </extensions>
      </trkpt>
      <trkpt lat="52.18328758142888545989990234375" lon="1.59949536435306072235107421875">
        <ele>-110.1999969482421875</ele>
        <time>2025-09-06T13:11:25.000Z</time>
        <extensions>
          <ns3:TrackPointExtension>
            <ns3:hr>141</ns3:hr>
            <ns3:cad>0</ns3:cad>
          </ns3:TrackPointExtension>
        </extensions>
      </trkpt>
      <trkpt lat="52.1833082847297191619873046875" lon="1.59950994886457920074462890625">
        <ele>-110.8000030517578125</ele>
        <time>2025-09-06T13:11:27.000Z</time>
        <extensions>
          <ns3:TrackPointExtension>
            <ns3:hr>142</ns3:hr>
            <ns3:cad>0</ns3:cad>
          </ns3:TrackPointExtension>
        </extensions>
      </trkpt>
      <trkpt lat="52.1833411417901515960693359375" lon="1.59947725944221019744873046875">
        <ele>-111.59999847412109375</ele>
        <time>2025-09-06T13:11:30.000Z</time>
        <extensions>
          <ns3:TrackPointExtension>
            <ns3:hr>145</ns3:hr>
            <ns3:cad>0</ns3:cad>
          </ns3:TrackPointExtension>
        </extensions>
      </trkpt>
      <trkpt lat="52.18335296027362346649169921875" lon="1.59946887753903865814208984375">
        <ele>-111.8000030517578125</ele>
        <time>2025-09-06T13:11:31.000Z</time>
        <extensions>
          <ns3:TrackPointExtension>
            <ns3:hr>146</ns3:hr>
            <ns3:cad>0</ns3:cad>
          </ns3:TrackPointExtension>
        </extensions>
      </trkpt>
      <trkpt lat="52.18337860889732837677001953125" lon="1.599469296634197235107421875">
        <ele>-112.40000152587890625</ele>
        <time>2025-09-06T13:11:33.000Z</time>
        <extensions>
          <ns3:TrackPointExtension>
            <ns3:hr>146</ns3:hr>
            <ns3:cad>57</ns3:cad>
          </ns3:TrackPointExtension>
        </extensions>
      </trkpt>
      <trkpt lat="52.18340576626360416412353515625" lon="1.59946150146424770355224609375">
        <ele>-113</ele>
        <time>2025-09-06T13:11:35.000Z</time>
        <extensions>
          <ns3:TrackPointExtension>
            <ns3:hr>148</ns3:hr>
            <ns3:cad>57</ns3:cad>
          </ns3:TrackPointExtension>
        </extensions>
      </trkpt>
      <trkpt lat="52.1834667026996612548828125" lon="1.599488072097301483154296875">
        <ele>-114</ele>
        <time>2025-09-06T13:11:39.000Z</time>
        <extensions>
          <ns3:TrackPointExtension>
            <ns3:hr>149</ns3:hr>
            <ns3:cad>0</ns3:cad>
          </ns3:TrackPointExtension>
        </extensions>
      </trkpt>
      <trkpt lat="52.18347701244056224822998046875" lon="1.5994956158101558685302734375">
        <ele>-114.1999969482421875</ele>
        <time>2025-09-06T13:11:40.000Z</time>
        <extensions>
          <ns3:TrackPointExtension>
            <ns3:hr>148</ns3:hr>
            <ns3:cad>0</ns3:cad>
          </ns3:TrackPointExtension>
        </extensions>
      </trkpt>
      <trkpt lat="52.1835288964211940765380859375" lon="1.59951397217810153961181640625">
        <ele>-115</ele>
        <time>2025-09-06T13:11:43.000Z</time>
        <extensions>
          <ns3:TrackPointExtension>
            <ns3:hr>149</ns3:hr>
            <ns3:cad>0</ns3:cad>
          </ns3:TrackPointExtension>
        </extensions>
      </trkpt>
      <trkpt lat="52.1836046688258647918701171875" lon="1.59953140653669834136962890625">
        <ele>-116</ele>
        <time>2025-09-06T13:11:47.000Z</time>
        <extensions>
          <ns3:TrackPointExtension>
            <ns3:hr>151</ns3:hr>
            <ns3:cad>60</ns3:cad>
          </ns3:TrackPointExtension>
        </extensions>
      </trkpt>
      <trkpt lat="52.18364029191434383392333984375" lon="1.59952956251800060272216796875">
        <ele>-116.40000152587890625</ele>
        <time>2025-09-06T13:11:49.000Z</time>
        <extensions>
          <ns3:TrackPointExtension>
            <ns3:hr>151</ns3:hr>
            <ns3:cad>61</ns3:cad>
          </ns3:TrackPointExtension>
        </extensions>
      </trkpt>
      <trkpt lat="52.1836839616298675537109375" lon="1.5995299816131591796875">
        <ele>-117.1999969482421875</ele>
        <time>2025-09-06T13:11:52.000Z</time>
        <extensions>
          <ns3:TrackPointExtension>
            <ns3:hr>151</ns3:hr>
            <ns3:cad>59</ns3:cad>
          </ns3:TrackPointExtension>
        </extensions>
      </trkpt>
      <trkpt lat="52.18375696800649166107177734375" lon="1.5995308198034763336181640625">
        <ele>-118.40000152587890625</ele>
        <time>2025-09-06T13:11:57.000Z</time>
        <extensions>
          <ns3:TrackPointExtension>
            <ns3:hr>152</ns3:hr>
            <ns3:cad>0</ns3:cad>
          </ns3:TrackPointExtension>
        </extensions>
      </trkpt>
      <trkpt lat="52.18382653780281543731689453125" lon="1.59955403767526149749755859375">
        <ele>-119.59999847412109375</ele>
        <time>2025-09-06T13:12:02.000Z</time>
        <extensions>
          <ns3:TrackPointExtension>
            <ns3:hr>153</ns3:hr>
            <ns3:cad>58</ns3:cad>
          </ns3:TrackPointExtension>
        </extensions>
      </trkpt>
      <trkpt lat="52.183884792029857635498046875" lon="1.599553786218166351318359375">
        <ele>-120.40000152587890625</ele>
        <time>2025-09-06T13:12:06.000Z</time>
        <extensions>
          <ns3:TrackPointExtension>
            <ns3:hr>152</ns3:hr>
            <ns3:cad>58</ns3:cad>
          </ns3:TrackPointExtension>
        </extensions>
      </trkpt>
      <trkpt lat="52.183896191418170928955078125" lon="1.5995539538562297821044921875">
        <ele>-120.59999847412109375</ele>
        <time>2025-09-06T13:12:07.000Z</time>
        <extensions>
          <ns3:TrackPointExtension>
            <ns3:hr>151</ns3:hr>
            <ns3:cad>58</ns3:cad>
          </ns3:TrackPointExtension>
        </extensions>
      </trkpt>
      <trkpt lat="52.18395092524588108062744140625" lon="1.59954096190631389617919921875">
        <ele>-121.59999847412109375</ele>
        <time>2025-09-06T13:12:11.000Z</time>
        <extensions>
          <ns3:TrackPointExtension>
            <ns3:hr>148</ns3:hr>
            <ns3:cad>58</ns3:cad>
          </ns3:TrackPointExtension>
        </extensions>
      </trkpt>
      <trkpt lat="52.18396869488060474395751953125" lon="1.599544398486614227294921875">
        <ele>-121.8000030517578125</ele>
        <time>2025-09-06T13:12:12.000Z</time>
        <extensions>
          <ns3:TrackPointExtension>
            <ns3:hr>148</ns3:hr>
            <ns3:cad>0</ns3:cad>
          </ns3:TrackPointExtension>
        </extensions>
      </trkpt>
      <trkpt lat="52.18398730270564556121826171875" lon="1.5995516069233417510986328125">
        <ele>-122.1999969482421875</ele>
        <time>2025-09-06T13:12:14.000Z</time>
        <extensions>
          <ns3:TrackPointExtension>
            <ns3:hr>148</ns3:hr>
            <ns3:cad>0</ns3:cad>
          </ns3:TrackPointExtension>
        </extensions>
      </trkpt>
      <trkpt lat="52.1840204112231731414794921875" lon="1.5995646826922893524169921875">
        <ele>-122.8000030517578125</ele>
        <time>2025-09-06T13:12:17.000Z</time>
        <extensions>
          <ns3:TrackPointExtension>
            <ns3:hr>147</ns3:hr>
            <ns3:cad>57</ns3:cad>
          </ns3:TrackPointExtension>
        </extensions>
      </trkpt>
      <trkpt lat="52.18405368737876415252685546875" lon="1.5995680354535579681396484375">
        <ele>-123.8000030517578125</ele>
        <time>2025-09-06T13:12:21.000Z</time>
        <extensions>
          <ns3:TrackPointExtension>
            <ns3:hr>147</ns3:hr>
            <ns3:cad>60</ns3:cad>
          </ns3:TrackPointExtension>
        </extensions>
      </trkpt>
      <trkpt lat="52.184069864451885223388671875" lon="1.59956074319779872894287109375">
        <ele>-124</ele>
        <time>2025-09-06T13:12:22.000Z</time>
        <extensions>
          <ns3:TrackPointExtension>
            <ns3:hr>146</ns3:hr>
            <ns3:cad>56</ns3:cad>
          </ns3:TrackPointExtension>
        </extensions>
      </trkpt>
      <trkpt lat="52.1841116063296794891357421875" lon="1.5995485894381999969482421875">
        <ele>-125</ele>
        <time>2025-09-06T13:12:27.000Z</time>
        <extensions>
          <ns3:TrackPointExtension>
            <ns3:hr>145</ns3:hr>
            <ns3:cad>0</ns3:cad>
          </ns3:TrackPointExtension>
        </extensions>
      </trkpt>
      <trkpt lat="52.1841625683009624481201171875" lon="1.59953827969729900360107421875">
        <ele>-126</ele>
        <time>2025-09-06T13:12:31.000Z</time>
        <extensions>
          <ns3:TrackPointExtension>
            <ns3:hr>141</ns3:hr>
            <ns3:cad>0</ns3:cad>
          </ns3:TrackPointExtension>
        </extensions>
      </trkpt>
      <trkpt lat="52.18421512283384799957275390625" lon="1.59954272210597991943359375">
        <ele>-126.8000030517578125</ele>
        <time>2025-09-06T13:12:34.000Z</time>
        <extensions>
          <ns3:TrackPointExtension>
            <ns3:hr>142</ns3:hr>
            <ns3:cad>0</ns3:cad>
          </ns3:TrackPointExtension>
        </extensions>
      </trkpt>
      <trkpt lat="52.18423423357307910919189453125" lon="1.59954674541950225830078125">
        <ele>-127.1999969482421875</ele>
        <time>2025-09-06T13:12:35.000Z</time>
        <extensions>
          <ns3:TrackPointExtension>
            <ns3:hr>141</ns3:hr>
            <ns3:cad>0</ns3:cad>
          </ns3:TrackPointExtension>
        </extensions>
      </trkpt>
      <trkpt lat="52.184300534427165985107421875" lon="1.59956275485455989837646484375">
        <ele>-128.1999969482421875</ele>
        <time>2025-09-06T13:12:39.000Z</time>
        <extensions>
          <ns3:TrackPointExtension>
            <ns3:hr>140</ns3:hr>
            <ns3:cad>60</ns3:cad>
          </ns3:TrackPointExtension>
        </extensions>
      </trkpt>
      <trkpt lat="52.18432492576539516448974609375" lon="1.5995687060058116912841796875">
        <ele>-129</ele>
        <time>2025-09-06T13:12:42.000Z</time>
        <extensions>
          <ns3:TrackPointExtension>
            <ns3:hr>139</ns3:hr>
            <ns3:cad>0</ns3:cad>
          </ns3:TrackPointExtension>
        </extensions>
      </trkpt>
      <trkpt lat="52.18433816917240619659423828125" lon="1.59957624971866607666015625">
        <ele>-129.1999969482421875</ele>
        <time>2025-09-06T13:12:43.000Z</time>
        <extensions>
          <ns3:TrackPointExtension>
            <ns3:hr>138</ns3:hr>
            <ns3:cad>0</ns3:cad>
          </ns3:TrackPointExtension>
        </extensions>
      </trkpt>
      <trkpt lat="52.1843996085226535797119140625" lon="1.59961354918777942657470703125">
        <ele>-130.399993896484375</ele>
        <time>2025-09-06T13:12:47.000Z</time>
        <extensions>
          <ns3:TrackPointExtension>
            <ns3:hr>140</ns3:hr>
            <ns3:cad>0</ns3:cad>
          </ns3:TrackPointExtension>
        </extensions>
      </trkpt>
      <trkpt lat="52.18442014418542385101318359375" lon="1.59963048063218593597412109375">
        <ele>-130.8000030517578125</ele>
        <time>2025-09-06T13:12:49.000Z</time>
        <extensions>
          <ns3:TrackPointExtension>
            <ns3:hr>138</ns3:hr>
            <ns3:cad>60</ns3:cad>
          </ns3:TrackPointExtension>
        </extensions>
      </trkpt>
      <trkpt lat="52.1844629757106304168701171875" lon="1.59963936544954776763916015625">
        <ele>-131.399993896484375</ele>
        <time>2025-09-06T13:12:51.000Z</time>
        <extensions>
          <ns3:TrackPointExtension>
            <ns3:hr>135</ns3:hr>
            <ns3:cad>60</ns3:cad>
          </ns3:TrackPointExtension>
        </extensions>
      </trkpt>
      <trkpt lat="52.18449868261814117431640625" lon="1.5996448136866092681884765625">
        <ele>-131.8000030517578125</ele>
        <time>2025-09-06T13:12:53.000Z</time>
        <extensions>
          <ns3:TrackPointExtension>
            <ns3:hr>138</ns3:hr>
            <ns3:cad>0</ns3:cad>
          </ns3:TrackPointExtension>
        </extensions>
      </trkpt>
      <trkpt lat="52.18453824520111083984375" lon="1.59966534934937953948974609375">
        <ele>-132.399993896484375</ele>
        <time>2025-09-06T13:12:55.000Z</time>
        <extensions>
          <ns3:TrackPointExtension>
            <ns3:hr>136</ns3:hr>
            <ns3:cad>0</ns3:cad>
          </ns3:TrackPointExtension>
        </extensions>
      </trkpt>
      <trkpt lat="52.184629105031490325927734375" lon="1.5996964462101459503173828125">
        <ele>-133.600006103515625</ele>
        <time>2025-09-06T13:13:00.000Z</time>
        <extensions>
          <ns3:TrackPointExtension>
            <ns3:hr>134</ns3:hr>
            <ns3:cad>0</ns3:cad>
          </ns3:TrackPointExtension>
        </extensions>
      </trkpt>
      <trkpt lat="52.1846902929246425628662109375" lon="1.59972167573869228363037109375">
        <ele>-134.600006103515625</ele>
        <time>2025-09-06T13:13:04.000Z</time>
        <extensions>
          <ns3:TrackPointExtension>
            <ns3:hr>133</ns3:hr>
            <ns3:cad>59</ns3:cad>
          </ns3:TrackPointExtension>
        </extensions>
      </trkpt>
      <trkpt lat="52.1847085654735565185546875" lon="1.599725782871246337890625">
        <ele>-134.8000030517578125</ele>
        <time>2025-09-06T13:13:05.000Z</time>
        <extensions>
          <ns3:TrackPointExtension>
            <ns3:hr>132</ns3:hr>
            <ns3:cad>60</ns3:cad>
          </ns3:TrackPointExtension>
        </extensions>
      </trkpt>
      <trkpt lat="52.184795401990413665771484375" lon="1.5997578017413616180419921875">
        <ele>-136</ele>
        <time>2025-09-06T13:13:10.000Z</time>
        <extensions>
          <ns3:TrackPointExtension>
            <ns3:hr>131</ns3:hr>
            <ns3:cad>0</ns3:cad>
          </ns3:TrackPointExtension>
        </extensions>
      </trkpt>
      <trkpt lat="52.1848069690167903900146484375" lon="1.5997646749019622802734375">
        <ele>-136.1999969482421875</ele>
        <time>2025-09-06T13:13:11.000Z</time>
        <extensions>
          <ns3:TrackPointExtension>
            <ns3:hr>132</ns3:hr>
            <ns3:cad>0</ns3:cad>
          </ns3:TrackPointExtension>
        </extensions>
      </trkpt>
      <trkpt lat="52.1848364733159542083740234375" lon="1.59978722222149372100830078125">
        <ele>-137</ele>
        <time>2025-09-06T13:13:15.000Z</time>
        <extensions>
          <ns3:TrackPointExtension>
            <ns3:hr>130</ns3:hr>
            <ns3:cad>60</ns3:cad>
          </ns3:TrackPointExtension>
        </extensions>
      </trkpt>
      <trkpt lat="52.18488316051661968231201171875" lon="1.59982393495738506317138671875">
        <ele>-137.8000030517578125</ele>
        <time>2025-09-06T13:13:19.000Z</time>
        <extensions>
          <ns3:TrackPointExtension>
            <ns3:hr>130</ns3:hr>
            <ns3:cad>60</ns3:cad>
          </ns3:TrackPointExtension>
        </extensions>
      </trkpt>
      <trkpt lat="52.18489422462880611419677734375" lon="1.59983248449862003326416015625">
        <ele>-138</ele>
        <time>2025-09-06T13:13:20.000Z</time>
        <extensions>
          <ns3:TrackPointExtension>
            <ns3:hr>131</ns3:hr>
            <ns3:cad>60</ns3:cad>
          </ns3:TrackPointExtension>
        </extensions>
      </trkpt>
      <trkpt lat="52.18492381274700164794921875" lon="1.59987187944352626800537109375">
        <ele>-138.8000030517578125</ele>
        <time>2025-09-06T13:13:24.000Z</time>
        <extensions>
          <ns3:TrackPointExtension>
            <ns3:hr>128</ns3:hr>
            <ns3:cad>60</ns3:cad>
          </ns3:TrackPointExtension>
        </extensions>
      </trkpt>
      <trkpt lat="52.1849538199603557586669921875" lon="1.5998835302889347076416015625">
        <ele>-139.1999969482421875</ele>
        <time>2025-09-06T13:13:26.000Z</time>
        <extensions>
          <ns3:TrackPointExtension>
            <ns3:hr>127</ns3:hr>
            <ns3:cad>60</ns3:cad>
          </ns3:TrackPointExtension>
        </extensions>
      </trkpt>
      <trkpt lat="52.1850252337753772735595703125" lon="1.59990104846656322479248046875">
        <ele>-139.600006103515625</ele>
        <time>2025-09-06T13:13:29.000Z</time>
        <extensions>
          <ns3:TrackPointExtension>
            <ns3:hr>128</ns3:hr>
            <ns3:cad>57</ns3:cad>
          </ns3:TrackPointExtension>
        </extensions>
      </trkpt>
      <trkpt lat="52.1850862540304660797119140625" lon="1.599908173084259033203125">
        <ele>-140</ele>
        <time>2025-09-06T13:13:32.000Z</time>
        <extensions>
          <ns3:TrackPointExtension>
            <ns3:hr>125</ns3:hr>
            <ns3:cad>57</ns3:cad>
          </ns3:TrackPointExtension>
        </extensions>
      </trkpt>
      <trkpt lat="52.18515372835099697113037109375" lon="1.5999472327530384063720703125">
        <ele>-140.1999969482421875</ele>
        <time>2025-09-06T13:13:35.000Z</time>
        <extensions>
          <ns3:TrackPointExtension>
            <ns3:hr>125</ns3:hr>
            <ns3:cad>60</ns3:cad>
          </ns3:TrackPointExtension>
        </extensions>
      </trkpt>
      <trkpt lat="52.18517418019473552703857421875" lon="1.59995402209460735321044921875">
        <ele>-140.1999969482421875</ele>
        <time>2025-09-06T13:13:36.000Z</time>
        <extensions>
          <ns3:TrackPointExtension>
            <ns3:hr>126</ns3:hr>
            <ns3:cad>60</ns3:cad>
          </ns3:TrackPointExtension>
        </extensions>
      </trkpt>
      <trkpt lat="52.1852696500718593597412109375" lon="1.5999871306121349334716796875">
        <ele>-140.600006103515625</ele>
        <time>2025-09-06T13:13:41.000Z</time>
        <extensions>
          <ns3:TrackPointExtension>
            <ns3:hr>125</ns3:hr>
            <ns3:cad>60</ns3:cad>
          </ns3:TrackPointExtension>
        </extensions>
      </trkpt>
      <trkpt lat="52.1853601746261119842529296875" lon="1.60002375952899456024169921875">
        <ele>-141</ele>
        <time>2025-09-06T13:13:48.000Z</time>
        <extensions>
          <ns3:TrackPointExtension>
            <ns3:hr>127</ns3:hr>
            <ns3:cad>60</ns3:cad>
          </ns3:TrackPointExtension>
        </extensions>
      </trkpt>
      <trkpt lat="52.18541926704347133636474609375" lon="1.60003398545086383819580078125">
        <ele>-141.1999969482421875</ele>
        <time>2025-09-06T13:13:52.000Z</time>
        <extensions>
          <ns3:TrackPointExtension>
            <ns3:hr>126</ns3:hr>
            <ns3:cad>60</ns3:cad>
          </ns3:TrackPointExtension>
        </extensions>
      </trkpt>
      <trkpt lat="52.18545497395098209381103515625" lon="1.60003515891730785369873046875">
        <ele>-141.399993896484375</ele>
        <time>2025-09-06T13:13:54.000Z</time>
        <extensions>
          <ns3:TrackPointExtension>
            <ns3:hr>127</ns3:hr>
            <ns3:cad>0</ns3:cad>
          </ns3:TrackPointExtension>
        </extensions>
      </trkpt>
      <trkpt lat="52.185608781874179840087890625" lon="1.60005426965653896331787109375">
        <ele>-141.8000030517578125</ele>
        <time>2025-09-06T13:14:01.000Z</time>
        <extensions>
          <ns3:TrackPointExtension>
            <ns3:hr>126</ns3:hr>
            <ns3:cad>0</ns3:cad>
          </ns3:TrackPointExtension>
        </extensions>
      </trkpt>
      <trkpt lat="52.18573241494596004486083984375" lon="1.60007354803383350372314453125">
        <ele>-142.1999969482421875</ele>
        <time>2025-09-06T13:14:08.000Z</time>
        <extensions>
          <ns3:TrackPointExtension>
            <ns3:hr>125</ns3:hr>
            <ns3:cad>57</ns3:cad>
          </ns3:TrackPointExtension>
        </extensions>
      </trkpt>
      <trkpt lat="52.18576476909220218658447265625" lon="1.60008159466087818145751953125">
        <ele>-142.1999969482421875</ele>
        <time>2025-09-06T13:14:10.000Z</time>
        <extensions>
          <ns3:TrackPointExtension>
            <ns3:hr>126</ns3:hr>
            <ns3:cad>57</ns3:cad>
          </ns3:TrackPointExtension>
        </extensions>
      </trkpt>
      <trkpt lat="52.185819335281848907470703125" lon="1.6000954248011112213134765625">
        <ele>-142.600006103515625</ele>
        <time>2025-09-06T13:14:14.000Z</time>
        <extensions>
          <ns3:TrackPointExtension>
            <ns3:hr>126</ns3:hr>
            <ns3:cad>0</ns3:cad>
          </ns3:TrackPointExtension>
        </extensions>
      </trkpt>
      <trkpt lat="52.18588094227015972137451171875" lon="1.60011143423616886138916015625">
        <ele>-142.8000030517578125</ele>
        <time>2025-09-06T13:14:18.000Z</time>
        <extensions>
          <ns3:TrackPointExtension>
            <ns3:hr>123</ns3:hr>
            <ns3:cad>60</ns3:cad>
          </ns3:TrackPointExtension>
        </extensions>
      </trkpt>
      <trkpt lat="52.1859314851462841033935546875" lon="1.60013138316571712493896484375">
        <ele>-143.1999969482421875</ele>
        <time>2025-09-06T13:14:21.000Z</time>
        <extensions>
          <ns3:TrackPointExtension>
            <ns3:hr>123</ns3:hr>
            <ns3:cad>0</ns3:cad>
          </ns3:TrackPointExtension>
        </extensions>
      </trkpt>
      <trkpt lat="52.18597314320504665374755859375" lon="1.60014010034501552581787109375">
        <ele>-143.399993896484375</ele>
        <time>2025-09-06T13:14:23.000Z</time>
        <extensions>
          <ns3:TrackPointExtension>
            <ns3:hr>123</ns3:hr>
            <ns3:cad>60</ns3:cad>
          </ns3:TrackPointExtension>
        </extensions>
      </trkpt>
      <trkpt lat="52.18603567220270633697509765625" lon="1.60012878477573394775390625">
        <ele>-144</ele>
        <time>2025-09-06T13:14:28.000Z</time>
        <extensions>
          <ns3:TrackPointExtension>
            <ns3:hr>125</ns3:hr>
            <ns3:cad>0</ns3:cad>
          </ns3:TrackPointExtension>
        </extensions>
      </trkpt>
      <trkpt lat="52.18608831055462360382080078125" lon="1.6001085005700588226318359375">
        <ele>-144.399993896484375</ele>
        <time>2025-09-06T13:14:32.000Z</time>
        <extensions>
          <ns3:TrackPointExtension>
            <ns3:hr>123</ns3:hr>
            <ns3:cad>60</ns3:cad>
          </ns3:TrackPointExtension>
        </extensions>
      </trkpt>
      <trkpt lat="52.186117060482501983642578125" lon="1.60008863545954227447509765625">
        <ele>-144.8000030517578125</ele>
        <time>2025-09-06T13:14:35.000Z</time>
        <extensions>
          <ns3:TrackPointExtension>
            <ns3:hr>125</ns3:hr>
            <ns3:cad>59</ns3:cad>
          </ns3:TrackPointExtension>
        </extensions>
      </trkpt>
      <trkpt lat="52.18612871132791042327880859375" lon="1.600083522498607635498046875">
        <ele>-145</ele>
        <time>2025-09-06T13:14:36.000Z</time>
        <extensions>
          <ns3:TrackPointExtension>
            <ns3:hr>122</ns3:hr>
            <ns3:cad>60</ns3:cad>
          </ns3:TrackPointExtension>
        </extensions>
      </trkpt>
      <trkpt lat="52.18618537299335002899169921875" lon="1.60007488913834095001220703125">
        <ele>-145.600006103515625</ele>
        <time>2025-09-06T13:14:40.000Z</time>
        <extensions>
          <ns3:TrackPointExtension>
            <ns3:hr>123</ns3:hr>
            <ns3:cad>59</ns3:cad>
          </ns3:TrackPointExtension>
        </extensions>
      </trkpt>
      <trkpt lat="52.1862295456230640411376953125" lon="1.60006038844585418701171875">
        <ele>-146</ele>
        <time>2025-09-06T13:14:43.000Z</time>
        <extensions>
          <ns3:TrackPointExtension>
            <ns3:hr>123</ns3:hr>
            <ns3:cad>60</ns3:cad>
          </ns3:TrackPointExtension>
        </extensions>
      </trkpt>
      <trkpt lat="52.18628964386880397796630859375" lon="1.60003482364118099212646484375">
        <ele>-146.600006103515625</ele>
        <time>2025-09-06T13:14:47.000Z</time>
        <extensions>
          <ns3:TrackPointExtension>
            <ns3:hr>124</ns3:hr>
            <ns3:cad>60</ns3:cad>
          </ns3:TrackPointExtension>
        </extensions>
      </trkpt>
      <trkpt lat="52.1863492392003536224365234375" lon="1.5999918244779109954833984375">
        <ele>-147.1999969482421875</ele>
        <time>2025-09-06T13:14:51.000Z</time>
        <extensions>
          <ns3:TrackPointExtension>
            <ns3:hr>123</ns3:hr>
            <ns3:cad>55</ns3:cad>
          </ns3:TrackPointExtension>
        </extensions>
      </trkpt>
      <trkpt lat="52.18640497885644435882568359375" lon="1.59997380338609218597412109375">
        <ele>-147.600006103515625</ele>
        <time>2025-09-06T13:14:54.000Z</time>
        <extensions>
          <ns3:TrackPointExtension>
            <ns3:hr>122</ns3:hr>
            <ns3:cad>56</ns3:cad>
          </ns3:TrackPointExtension>
        </extensions>
      </trkpt>
      <trkpt lat="52.1864333935081958770751953125" lon="1.59997045062482357025146484375">
        <ele>-148.1999969482421875</ele>
        <time>2025-09-06T13:14:57.000Z</time>
        <extensions>
          <ns3:TrackPointExtension>
            <ns3:hr>122</ns3:hr>
            <ns3:cad>56</ns3:cad>
          </ns3:TrackPointExtension>
        </extensions>
      </trkpt>
      <trkpt lat="52.18647538684308528900146484375" lon="1.59995377063751220703125">
        <ele>-148.8000030517578125</ele>
        <time>2025-09-06T13:15:01.000Z</time>
        <extensions>
          <ns3:TrackPointExtension>
            <ns3:hr>123</ns3:hr>
            <ns3:cad>60</ns3:cad>
          </ns3:TrackPointExtension>
        </extensions>
      </trkpt>
      <trkpt lat="52.18650497496128082275390625" lon="1.59995988942682743072509765625">
        <ele>-149.399993896484375</ele>
        <time>2025-09-06T13:15:04.000Z</time>
        <extensions>
          <ns3:TrackPointExtension>
            <ns3:hr>123</ns3:hr>
            <ns3:cad>60</ns3:cad>
          </ns3:TrackPointExtension>
        </extensions>
      </trkpt>
      <trkpt lat="52.18656130135059356689453125" lon="1.5999663434922695159912109375">
        <ele>-150</ele>
        <time>2025-09-06T13:15:08.000Z</time>
        <extensions>
          <ns3:TrackPointExtension>
            <ns3:hr>121</ns3:hr>
            <ns3:cad>60</ns3:cad>
          </ns3:TrackPointExtension>
        </extensions>
      </trkpt>
      <trkpt lat="52.1866131015121936798095703125" lon="1.599983274936676025390625">
        <ele>-150.399993896484375</ele>
        <time>2025-09-06T13:15:11.000Z</time>
        <extensions>
          <ns3:TrackPointExtension>
            <ns3:hr>122</ns3:hr>
            <ns3:cad>59</ns3:cad>
          </ns3:TrackPointExtension>
        </extensions>
      </trkpt>
      <trkpt lat="52.1866265125572681427001953125" lon="1.59998185001313686370849609375">
        <ele>-150.600006103515625</ele>
        <time>2025-09-06T13:15:12.000Z</time>
        <extensions>
          <ns3:TrackPointExtension>
            <ns3:hr>119</ns3:hr>
            <ns3:cad>59</ns3:cad>
          </ns3:TrackPointExtension>
        </extensions>
      </trkpt>
      <trkpt lat="52.186660207808017730712890625" lon="1.59999794326722621917724609375">
        <ele>-151</ele>
        <time>2025-09-06T13:15:15.000Z</time>
        <extensions>
          <ns3:TrackPointExtension>
            <ns3:hr>118</ns3:hr>
            <ns3:cad>59</ns3:cad>
          </ns3:TrackPointExtension>
        </extensions>
      </trkpt>
      <trkpt lat="52.186727933585643768310546875" lon="1.60000540316104888916015625">
        <ele>-152</ele>
        <time>2025-09-06T13:15:20.000Z</time>
        <extensions>
          <ns3:TrackPointExtension>
            <ns3:hr>116</ns3:hr>
            <ns3:cad>58</ns3:cad>
          </ns3:TrackPointExtension>
        </extensions>
      </trkpt>
      <trkpt lat="52.1867388300597667694091796875" lon="1.600007079541683197021484375">
        <ele>-152</ele>
        <time>2025-09-06T13:15:21.000Z</time>
        <extensions>
          <ns3:TrackPointExtension>
            <ns3:hr>116</ns3:hr>
            <ns3:cad>58</ns3:cad>
          </ns3:TrackPointExtension>
        </extensions>
      </trkpt>
      <trkpt lat="52.186809740960597991943359375" lon="1.60000397823750972747802734375">
        <ele>-153</ele>
        <time>2025-09-06T13:15:27.000Z</time>
        <extensions>
          <ns3:TrackPointExtension>
            <ns3:hr>116</ns3:hr>
            <ns3:cad>58</ns3:cad>
          </ns3:TrackPointExtension>
        </extensions>
      </trkpt>
      <trkpt lat="52.186842262744903564453125" lon="1.60001319833099842071533203125">
        <ele>-153.399993896484375</ele>
        <time>2025-09-06T13:15:29.000Z</time>
        <extensions>
          <ns3:TrackPointExtension>
            <ns3:hr>114</ns3:hr>
            <ns3:cad>58</ns3:cad>
          </ns3:TrackPointExtension>
        </extensions>
      </trkpt>
      <trkpt lat="52.18690437264740467071533203125" lon="1.600015126168727874755859375">
        <ele>-154</ele>
        <time>2025-09-06T13:15:32.000Z</time>
        <extensions>
          <ns3:TrackPointExtension>
            <ns3:hr>118</ns3:hr>
            <ns3:cad>58</ns3:cad>
          </ns3:TrackPointExtension>
        </extensions>
      </trkpt>
      <trkpt lat="52.1869363076984882354736328125" lon="1.6000114381313323974609375">
        <ele>-154.1999969482421875</ele>
        <time>2025-09-06T13:15:34.000Z</time>
        <extensions>
          <ns3:TrackPointExtension>
            <ns3:hr>120</ns3:hr>
            <ns3:cad>58</ns3:cad>
          </ns3:TrackPointExtension>
        </extensions>
      </trkpt>
      <trkpt lat="52.1869872696697711944580078125" lon="1.60001814365386962890625">
        <ele>-154.600006103515625</ele>
        <time>2025-09-06T13:15:37.000Z</time>
        <extensions>
          <ns3:TrackPointExtension>
            <ns3:hr>121</ns3:hr>
            <ns3:cad>57</ns3:cad>
          </ns3:TrackPointExtension>
        </extensions>
      </trkpt>
      <trkpt lat="52.1870167739689350128173828125" lon="1.60009064711630344390869140625">
        <ele>-155.399993896484375</ele>
        <time>2025-09-06T13:15:41.000Z</time>
        <extensions>
          <ns3:TrackPointExtension>
            <ns3:hr>121</ns3:hr>
            <ns3:cad>0</ns3:cad>
          </ns3:TrackPointExtension>
        </extensions>
      </trkpt>
      <trkpt lat="52.18696505762636661529541015625" lon="1.6003428585827350616455078125">
        <ele>-173</ele>
        <time>2025-09-06T13:15:57.000Z</time>
        <extensions>
          <ns3:TrackPointExtension>
            <ns3:hr>119</ns3:hr>
            <ns3:cad>0</ns3:cad>
          </ns3:TrackPointExtension>
        </extensions>
      </trkpt>
      <trkpt lat="52.186963967978954315185546875" lon="1.600347049534320831298828125">
        <ele>-173</ele>
        <time>2025-09-06T13:15:58.000Z</time>
        <extensions>
          <ns3:TrackPointExtension>
            <ns3:hr>120</ns3:hr>
            <ns3:cad>0</ns3:cad>
          </ns3:TrackPointExtension>
        </extensions>
      </trkpt>
      <trkpt lat="52.18694929964840412139892578125" lon="1.6003110073506832122802734375">
        <ele>-173.1999969482421875</ele>
        <time>2025-09-06T13:16:05.000Z</time>
        <extensions>
          <ns3:TrackPointExtension>
            <ns3:hr>122</ns3:hr>
            <ns3:cad>0</ns3:cad>
          </ns3:TrackPointExtension>
        </extensions>
      </trkpt>
      <trkpt lat="52.1869403310120105743408203125" lon="1.6003064811229705810546875">
        <ele>-173</ele>
        <time>2025-09-06T13:16:07.000Z</time>
        <extensions>
          <ns3:TrackPointExtension>
            <ns3:hr>119</ns3:hr>
            <ns3:cad>0</ns3:cad>
          </ns3:TrackPointExtension>
        </extensions>
      </trkpt>
      <trkpt lat="52.18693412840366363525390625" lon="1.6003069840371608734130859375">
        <ele>-170.600006103515625</ele>
        <time>2025-09-06T13:16:09.000Z</time>
        <extensions>
          <ns3:TrackPointExtension>
            <ns3:hr>121</ns3:hr>
            <ns3:cad>0</ns3:cad>
          </ns3:TrackPointExtension>
        </extensions>
      </trkpt>
      <trkpt lat="52.186933122575283050537109375" lon="1.60030849277973175048828125">
        <ele>-167.600006103515625</ele>
        <time>2025-09-06T13:16:10.000Z</time>
        <extensions>
          <ns3:TrackPointExtension>
            <ns3:hr>121</ns3:hr>
            <ns3:cad>0</ns3:cad>
          </ns3:TrackPointExtension>
        </extensions>
      </trkpt>
      <trkpt lat="52.186930440366268157958984375" lon="1.6003110073506832122802734375">
        <ele>-166.1999969482421875</ele>
        <time>2025-09-06T13:16:11.000Z</time>
        <extensions>
          <ns3:TrackPointExtension>
            <ns3:hr>121</ns3:hr>
            <ns3:cad>0</ns3:cad>
          </ns3:TrackPointExtension>
        </extensions>
      </trkpt>
      <trkpt lat="52.186927758157253265380859375" lon="1.600313521921634674072265625">
        <ele>-165</ele>
        <time>2025-09-06T13:16:13.000Z</time>
        <extensions>
          <ns3:TrackPointExtension>
            <ns3:hr>119</ns3:hr>
            <ns3:cad>0</ns3:cad>
          </ns3:TrackPointExtension>
        </extensions>
      </trkpt>
      <trkpt lat="52.1869279257953166961669921875" lon="1.60031762905418872833251953125">
        <ele>-164.8000030517578125</ele>
        <time>2025-09-06T13:16:15.000Z</time>
        <extensions>
          <ns3:TrackPointExtension>
            <ns3:hr>120</ns3:hr>
            <ns3:cad>0</ns3:cad>
          </ns3:TrackPointExtension>
        </extensions>
      </trkpt>
      <trkpt lat="52.18694041483104228973388671875" lon="1.6003160364925861358642578125">
        <ele>-166.1999969482421875</ele>
        <time>2025-09-06T13:16:21.000Z</time>
        <extensions>
          <ns3:TrackPointExtension>
            <ns3:hr>116</ns3:hr>
            <ns3:cad>0</ns3:cad>
          </ns3:TrackPointExtension>
        </extensions>
      </trkpt>
      <trkpt lat="52.1869406662881374359130859375" lon="1.60031519830226898193359375">
        <ele>-167.600006103515625</ele>
        <time>2025-09-06T13:16:24.000Z</time>
        <extensions>
          <ns3:TrackPointExtension>
            <ns3:hr>113</ns3:hr>
            <ns3:cad>0</ns3:cad>
          </ns3:TrackPointExtension>
        </extensions>
      </trkpt>
      <trkpt lat="52.186943180859088897705078125" lon="1.60031276755034923553466796875">
        <ele>-168.600006103515625</ele>
        <time>2025-09-06T13:16:28.000Z</time>
        <extensions>
          <ns3:TrackPointExtension>
            <ns3:hr>113</ns3:hr>
            <ns3:cad>0</ns3:cad>
          </ns3:TrackPointExtension>
        </extensions>
      </trkpt>
    </trkseg>
  </trk>
</gpx>
